<?xml version="1.0" encoding="UTF-8" standalone="no" ?>
<gpx xmlns="http://www.topografix.com/GPX/1/1" xmlns:xsi="http://www.w3.org/2001/XMLSchema-instance" xsi:schemaLocation="http://www.topografix.com/GPX/1/1 http://www.topografix.com/GPX/1/1/gpx.xsd" version="1.1" creator="VisuGPX - https://www.visugpx.com">
  <metadata>
    <name>20200913 - Lyon Meribel</name>
  </metadata>
  <wpt lat="45.78754" lon="4.88493">
    <ele>173.1</ele>
    <name><![CDATA[Pause à 12/09 à 11:56]]></name>
  </wpt>
  <wpt lat="45.80318" lon="4.93416">
    <ele>171.5</ele>
    <name><![CDATA[Pause à 12/09 à 12:21]]></name>
  </wpt>
  <wpt lat="45.83585" lon="4.97623">
    <ele>219.7</ele>
    <name><![CDATA[Pause à 12/09 à 12:45]]></name>
  </wpt>
  <wpt lat="45.84468" lon="4.97361">
    <ele>303</ele>
    <name><![CDATA[Pause à 12/09 à 12:59]]></name>
  </wpt>
  <wpt lat="45.86097" lon="4.95946">
    <ele>270.7</ele>
    <name><![CDATA[Pause à 12/09 à 13:10]]></name>
  </wpt>
  <wpt lat="45.82954" lon="4.94618">
    <ele>298.8</ele>
    <name><![CDATA[Pause à 12/09 à 13:24]]></name>
  </wpt>
  <wpt lat="45.77691" lon="4.84392">
    <ele>169.1</ele>
    <name><![CDATA[Pause à 12/09 à 13:56]]></name>
  </wpt>
  <trk>
    <name><![CDATA[Lyon Meribel]]></name>
    <extensions>
      <line xmlns="http://www.topografix.com/GPX/gpx_style/0/2">
        <color>0000FF</color>
        <width>4</width>
      </line>
    </extensions>
    <trkseg>
      <trkpt lat="45.73942" lon="4.8742">
        <ele>175.9</ele>
        <time>2020-09-12T09:15:11Z</time>
      </trkpt>
      <trkpt lat="45.73938" lon="4.87419">
        <ele>176</ele>
        <time>2020-09-12T09:15:43Z</time>
      </trkpt>
      <trkpt lat="45.73937" lon="4.87413">
        <ele>174.8</ele>
        <time>2020-09-12T09:15:47Z</time>
      </trkpt>
      <trkpt lat="45.73943" lon="4.87411">
        <ele>174.6</ele>
        <time>2020-09-12T09:15:50Z</time>
      </trkpt>
      <trkpt lat="45.73949" lon="4.87412">
        <ele>174.4</ele>
        <time>2020-09-12T09:15:52Z</time>
      </trkpt>
      <trkpt lat="45.73956" lon="4.87414">
        <ele>174.3</ele>
        <time>2020-09-12T09:15:54Z</time>
      </trkpt>
      <trkpt lat="45.73962" lon="4.87415">
        <ele>174.1</ele>
        <time>2020-09-12T09:15:56Z</time>
      </trkpt>
      <trkpt lat="45.73969" lon="4.87416">
        <ele>173.9</ele>
        <time>2020-09-12T09:15:58Z</time>
      </trkpt>
      <trkpt lat="45.73974" lon="4.87415">
        <ele>173.8</ele>
        <time>2020-09-12T09:16:01Z</time>
      </trkpt>
      <trkpt lat="45.73979" lon="4.87415">
        <ele>173.7</ele>
        <time>2020-09-12T09:16:05Z</time>
      </trkpt>
      <trkpt lat="45.73984" lon="4.87414">
        <ele>173.5</ele>
        <time>2020-09-12T09:16:10Z</time>
      </trkpt>
      <trkpt lat="45.73991" lon="4.87414">
        <ele>173.3</ele>
        <time>2020-09-12T09:16:13Z</time>
      </trkpt>
      <trkpt lat="45.73996" lon="4.87415">
        <ele>173.2</ele>
        <time>2020-09-12T09:16:15Z</time>
      </trkpt>
      <trkpt lat="45.74003" lon="4.87414">
        <ele>173.2</ele>
        <time>2020-09-12T09:16:18Z</time>
      </trkpt>
      <trkpt lat="45.74009" lon="4.87414">
        <ele>173.4</ele>
        <time>2020-09-12T09:16:20Z</time>
      </trkpt>
      <trkpt lat="45.74016" lon="4.87415">
        <ele>173.7</ele>
        <time>2020-09-12T09:16:22Z</time>
      </trkpt>
      <trkpt lat="45.74025" lon="4.87415">
        <ele>174</ele>
        <time>2020-09-12T09:16:24Z</time>
      </trkpt>
      <trkpt lat="45.74033" lon="4.87415">
        <ele>174.3</ele>
        <time>2020-09-12T09:16:26Z</time>
      </trkpt>
      <trkpt lat="45.74042" lon="4.87415">
        <ele>174.5</ele>
        <time>2020-09-12T09:16:28Z</time>
      </trkpt>
      <trkpt lat="45.7405" lon="4.87416">
        <ele>174.8</ele>
        <time>2020-09-12T09:16:30Z</time>
      </trkpt>
      <trkpt lat="45.74059" lon="4.87416">
        <ele>175.2</ele>
        <time>2020-09-12T09:16:32Z</time>
      </trkpt>
      <trkpt lat="45.74068" lon="4.87416">
        <ele>175.7</ele>
        <time>2020-09-12T09:16:34Z</time>
      </trkpt>
      <trkpt lat="45.74072" lon="4.87416">
        <ele>176</ele>
        <time>2020-09-12T09:16:35Z</time>
      </trkpt>
      <trkpt lat="45.74081" lon="4.87416">
        <ele>176.7</ele>
        <time>2020-09-12T09:16:37Z</time>
      </trkpt>
      <trkpt lat="45.74086" lon="4.87416">
        <ele>177</ele>
        <time>2020-09-12T09:16:38Z</time>
      </trkpt>
      <trkpt lat="45.7409" lon="4.87416">
        <ele>177.1</ele>
        <time>2020-09-12T09:16:39Z</time>
      </trkpt>
      <trkpt lat="45.74099" lon="4.87417">
        <ele>177</ele>
        <time>2020-09-12T09:16:41Z</time>
      </trkpt>
      <trkpt lat="45.74107" lon="4.87417">
        <ele>177</ele>
        <time>2020-09-12T09:16:43Z</time>
      </trkpt>
      <trkpt lat="45.74112" lon="4.87417">
        <ele>177.1</ele>
        <time>2020-09-12T09:16:44Z</time>
      </trkpt>
      <trkpt lat="45.74117" lon="4.87416">
        <ele>177.4</ele>
        <time>2020-09-12T09:16:45Z</time>
      </trkpt>
      <trkpt lat="45.74122" lon="4.87417">
        <ele>177.5</ele>
        <time>2020-09-12T09:16:46Z</time>
      </trkpt>
      <trkpt lat="45.74128" lon="4.87417">
        <ele>177.3</ele>
        <time>2020-09-12T09:16:47Z</time>
      </trkpt>
      <trkpt lat="45.74134" lon="4.87418">
        <ele>177.4</ele>
        <time>2020-09-12T09:16:48Z</time>
      </trkpt>
      <trkpt lat="45.74139" lon="4.87419">
        <ele>177.5</ele>
        <time>2020-09-12T09:16:49Z</time>
      </trkpt>
      <trkpt lat="45.74144" lon="4.87419">
        <ele>177.7</ele>
        <time>2020-09-12T09:16:50Z</time>
      </trkpt>
      <trkpt lat="45.7415" lon="4.87419">
        <ele>177.9</ele>
        <time>2020-09-12T09:16:51Z</time>
      </trkpt>
      <trkpt lat="45.74155" lon="4.87419">
        <ele>178.1</ele>
        <time>2020-09-12T09:16:52Z</time>
      </trkpt>
      <trkpt lat="45.7416" lon="4.87419">
        <ele>178.4</ele>
        <time>2020-09-12T09:16:53Z</time>
      </trkpt>
      <trkpt lat="45.74165" lon="4.87419">
        <ele>178.7</ele>
        <time>2020-09-12T09:16:54Z</time>
      </trkpt>
      <trkpt lat="45.7417" lon="4.8742">
        <ele>178.6</ele>
        <time>2020-09-12T09:16:55Z</time>
      </trkpt>
      <trkpt lat="45.74176" lon="4.8742">
        <ele>178.2</ele>
        <time>2020-09-12T09:16:56Z</time>
      </trkpt>
      <trkpt lat="45.74181" lon="4.87419">
        <ele>177.9</ele>
        <time>2020-09-12T09:16:57Z</time>
      </trkpt>
      <trkpt lat="45.74186" lon="4.8742">
        <ele>177.6</ele>
        <time>2020-09-12T09:16:58Z</time>
      </trkpt>
      <trkpt lat="45.74191" lon="4.8742">
        <ele>177.3</ele>
        <time>2020-09-12T09:16:59Z</time>
      </trkpt>
      <trkpt lat="45.74197" lon="4.87421">
        <ele>177.1</ele>
        <time>2020-09-12T09:17:00Z</time>
      </trkpt>
      <trkpt lat="45.74203" lon="4.87421">
        <ele>176.9</ele>
        <time>2020-09-12T09:17:01Z</time>
      </trkpt>
      <trkpt lat="45.74208" lon="4.87423">
        <ele>176.7</ele>
        <time>2020-09-12T09:17:02Z</time>
      </trkpt>
      <trkpt lat="45.74213" lon="4.87423">
        <ele>176.5</ele>
        <time>2020-09-12T09:17:03Z</time>
      </trkpt>
      <trkpt lat="45.74218" lon="4.87423">
        <ele>176.3</ele>
        <time>2020-09-12T09:17:04Z</time>
      </trkpt>
      <trkpt lat="45.74223" lon="4.87423">
        <ele>176.1</ele>
        <time>2020-09-12T09:17:05Z</time>
      </trkpt>
      <trkpt lat="45.74229" lon="4.87423">
        <ele>175.8</ele>
        <time>2020-09-12T09:17:06Z</time>
      </trkpt>
      <trkpt lat="45.74234" lon="4.87423">
        <ele>175.5</ele>
        <time>2020-09-12T09:17:07Z</time>
      </trkpt>
      <trkpt lat="45.7424" lon="4.87422">
        <ele>175.1</ele>
        <time>2020-09-12T09:17:08Z</time>
      </trkpt>
      <trkpt lat="45.74246" lon="4.87422">
        <ele>174.7</ele>
        <time>2020-09-12T09:17:09Z</time>
      </trkpt>
      <trkpt lat="45.7425" lon="4.87422">
        <ele>174.5</ele>
        <time>2020-09-12T09:17:10Z</time>
      </trkpt>
      <trkpt lat="45.74256" lon="4.87422">
        <ele>174.8</ele>
        <time>2020-09-12T09:17:11Z</time>
      </trkpt>
      <trkpt lat="45.74261" lon="4.87422">
        <ele>175.1</ele>
        <time>2020-09-12T09:17:12Z</time>
      </trkpt>
      <trkpt lat="45.74266" lon="4.87422">
        <ele>175.4</ele>
        <time>2020-09-12T09:17:13Z</time>
      </trkpt>
      <trkpt lat="45.74271" lon="4.87423">
        <ele>175.7</ele>
        <time>2020-09-12T09:17:14Z</time>
      </trkpt>
      <trkpt lat="45.74277" lon="4.87423">
        <ele>175.9</ele>
        <time>2020-09-12T09:17:15Z</time>
      </trkpt>
      <trkpt lat="45.74282" lon="4.87423">
        <ele>176</ele>
        <time>2020-09-12T09:17:16Z</time>
      </trkpt>
      <trkpt lat="45.74286" lon="4.87424">
        <ele>176.2</ele>
        <time>2020-09-12T09:17:17Z</time>
      </trkpt>
      <trkpt lat="45.74291" lon="4.87424">
        <ele>176.3</ele>
        <time>2020-09-12T09:17:18Z</time>
      </trkpt>
      <trkpt lat="45.74299" lon="4.87424">
        <ele>176.5</ele>
        <time>2020-09-12T09:17:20Z</time>
      </trkpt>
      <trkpt lat="45.74307" lon="4.87425">
        <ele>176.6</ele>
        <time>2020-09-12T09:17:22Z</time>
      </trkpt>
      <trkpt lat="45.74313" lon="4.87425">
        <ele>176.7</ele>
        <time>2020-09-12T09:17:24Z</time>
      </trkpt>
      <trkpt lat="45.74318" lon="4.87425">
        <ele>176.8</ele>
        <time>2020-09-12T09:17:26Z</time>
      </trkpt>
      <trkpt lat="45.74324" lon="4.87425">
        <ele>176.8</ele>
        <time>2020-09-12T09:17:28Z</time>
      </trkpt>
      <trkpt lat="45.74331" lon="4.87427">
        <ele>176.9</ele>
        <time>2020-09-12T09:17:30Z</time>
      </trkpt>
      <trkpt lat="45.7434" lon="4.87429">
        <ele>178.3</ele>
        <time>2020-09-12T09:17:32Z</time>
      </trkpt>
      <trkpt lat="45.74344" lon="4.8743">
        <ele>178.6</ele>
        <time>2020-09-12T09:17:33Z</time>
      </trkpt>
      <trkpt lat="45.74349" lon="4.87431">
        <ele>178.9</ele>
        <time>2020-09-12T09:17:34Z</time>
      </trkpt>
      <trkpt lat="45.74353" lon="4.87432">
        <ele>179.1</ele>
        <time>2020-09-12T09:17:35Z</time>
      </trkpt>
      <trkpt lat="45.74362" lon="4.87435">
        <ele>179.6</ele>
        <time>2020-09-12T09:17:37Z</time>
      </trkpt>
      <trkpt lat="45.74366" lon="4.87437">
        <ele>179.8</ele>
        <time>2020-09-12T09:17:38Z</time>
      </trkpt>
      <trkpt lat="45.74375" lon="4.87438">
        <ele>180.2</ele>
        <time>2020-09-12T09:17:40Z</time>
      </trkpt>
      <trkpt lat="45.7438" lon="4.8744">
        <ele>180.4</ele>
        <time>2020-09-12T09:17:41Z</time>
      </trkpt>
      <trkpt lat="45.74385" lon="4.87441">
        <ele>180.6</ele>
        <time>2020-09-12T09:17:42Z</time>
      </trkpt>
      <trkpt lat="45.74389" lon="4.87443">
        <ele>180.8</ele>
        <time>2020-09-12T09:17:43Z</time>
      </trkpt>
      <trkpt lat="45.74394" lon="4.87445">
        <ele>180.9</ele>
        <time>2020-09-12T09:17:44Z</time>
      </trkpt>
      <trkpt lat="45.74399" lon="4.87446">
        <ele>181.1</ele>
        <time>2020-09-12T09:17:45Z</time>
      </trkpt>
      <trkpt lat="45.74406" lon="4.8745">
        <ele>181.2</ele>
        <time>2020-09-12T09:17:47Z</time>
      </trkpt>
      <trkpt lat="45.74413" lon="4.87452">
        <ele>181.2</ele>
        <time>2020-09-12T09:17:49Z</time>
      </trkpt>
      <trkpt lat="45.74426" lon="4.87457">
        <ele>181.9</ele>
        <time>2020-09-12T09:17:53Z</time>
      </trkpt>
      <trkpt lat="45.74434" lon="4.8746">
        <ele>181.7</ele>
        <time>2020-09-12T09:17:55Z</time>
      </trkpt>
      <trkpt lat="45.74443" lon="4.87461">
        <ele>181.6</ele>
        <time>2020-09-12T09:17:57Z</time>
      </trkpt>
      <trkpt lat="45.74448" lon="4.87462">
        <ele>181.5</ele>
        <time>2020-09-12T09:17:58Z</time>
      </trkpt>
      <trkpt lat="45.74453" lon="4.87464">
        <ele>181.4</ele>
        <time>2020-09-12T09:17:59Z</time>
      </trkpt>
      <trkpt lat="45.74458" lon="4.87466">
        <ele>181.4</ele>
        <time>2020-09-12T09:18:00Z</time>
      </trkpt>
      <trkpt lat="45.74463" lon="4.87467">
        <ele>181.3</ele>
        <time>2020-09-12T09:18:01Z</time>
      </trkpt>
      <trkpt lat="45.74468" lon="4.87469">
        <ele>181.2</ele>
        <time>2020-09-12T09:18:02Z</time>
      </trkpt>
      <trkpt lat="45.74474" lon="4.87471">
        <ele>181.1</ele>
        <time>2020-09-12T09:18:03Z</time>
      </trkpt>
      <trkpt lat="45.74479" lon="4.87472">
        <ele>181.1</ele>
        <time>2020-09-12T09:18:04Z</time>
      </trkpt>
      <trkpt lat="45.74484" lon="4.87473">
        <ele>181</ele>
        <time>2020-09-12T09:18:05Z</time>
      </trkpt>
      <trkpt lat="45.74489" lon="4.87474">
        <ele>180.9</ele>
        <time>2020-09-12T09:18:06Z</time>
      </trkpt>
      <trkpt lat="45.74494" lon="4.87476">
        <ele>180.9</ele>
        <time>2020-09-12T09:18:07Z</time>
      </trkpt>
      <trkpt lat="45.745" lon="4.87478">
        <ele>180.8</ele>
        <time>2020-09-12T09:18:08Z</time>
      </trkpt>
      <trkpt lat="45.74505" lon="4.87479">
        <ele>179.6</ele>
        <time>2020-09-12T09:18:09Z</time>
      </trkpt>
      <trkpt lat="45.74511" lon="4.87481">
        <ele>179.6</ele>
        <time>2020-09-12T09:18:10Z</time>
      </trkpt>
      <trkpt lat="45.74516" lon="4.87482">
        <ele>179.5</ele>
        <time>2020-09-12T09:18:11Z</time>
      </trkpt>
      <trkpt lat="45.74521" lon="4.87484">
        <ele>179.4</ele>
        <time>2020-09-12T09:18:12Z</time>
      </trkpt>
      <trkpt lat="45.74526" lon="4.87485">
        <ele>179.4</ele>
        <time>2020-09-12T09:18:13Z</time>
      </trkpt>
      <trkpt lat="45.74531" lon="4.87487">
        <ele>179.3</ele>
        <time>2020-09-12T09:18:14Z</time>
      </trkpt>
      <trkpt lat="45.74536" lon="4.87488">
        <ele>179.2</ele>
        <time>2020-09-12T09:18:15Z</time>
      </trkpt>
      <trkpt lat="45.74544" lon="4.87489">
        <ele>179</ele>
        <time>2020-09-12T09:18:17Z</time>
      </trkpt>
      <trkpt lat="45.7455" lon="4.87491">
        <ele>178.8</ele>
        <time>2020-09-12T09:18:18Z</time>
      </trkpt>
      <trkpt lat="45.74556" lon="4.87492">
        <ele>178.6</ele>
        <time>2020-09-12T09:18:19Z</time>
      </trkpt>
      <trkpt lat="45.74561" lon="4.87493">
        <ele>178.4</ele>
        <time>2020-09-12T09:18:20Z</time>
      </trkpt>
      <trkpt lat="45.74567" lon="4.87494">
        <ele>178.2</ele>
        <time>2020-09-12T09:18:21Z</time>
      </trkpt>
      <trkpt lat="45.74572" lon="4.87494">
        <ele>177.9</ele>
        <time>2020-09-12T09:18:22Z</time>
      </trkpt>
      <trkpt lat="45.74578" lon="4.87494">
        <ele>177.6</ele>
        <time>2020-09-12T09:18:23Z</time>
      </trkpt>
      <trkpt lat="45.74584" lon="4.87496">
        <ele>177.4</ele>
        <time>2020-09-12T09:18:24Z</time>
      </trkpt>
      <trkpt lat="45.7459" lon="4.87498">
        <ele>177.5</ele>
        <time>2020-09-12T09:18:25Z</time>
      </trkpt>
      <trkpt lat="45.74595" lon="4.87499">
        <ele>177.8</ele>
        <time>2020-09-12T09:18:26Z</time>
      </trkpt>
      <trkpt lat="45.74601" lon="4.875">
        <ele>177.4</ele>
        <time>2020-09-12T09:18:27Z</time>
      </trkpt>
      <trkpt lat="45.74607" lon="4.87501">
        <ele>177.5</ele>
        <time>2020-09-12T09:18:28Z</time>
      </trkpt>
      <trkpt lat="45.74612" lon="4.87502">
        <ele>177.6</ele>
        <time>2020-09-12T09:18:29Z</time>
      </trkpt>
      <trkpt lat="45.74618" lon="4.87503">
        <ele>177.7</ele>
        <time>2020-09-12T09:18:30Z</time>
      </trkpt>
      <trkpt lat="45.74624" lon="4.87504">
        <ele>177.8</ele>
        <time>2020-09-12T09:18:31Z</time>
      </trkpt>
      <trkpt lat="45.74629" lon="4.87504">
        <ele>177.9</ele>
        <time>2020-09-12T09:18:32Z</time>
      </trkpt>
      <trkpt lat="45.74634" lon="4.87505">
        <ele>178</ele>
        <time>2020-09-12T09:18:33Z</time>
      </trkpt>
      <trkpt lat="45.7464" lon="4.87506">
        <ele>178.1</ele>
        <time>2020-09-12T09:18:34Z</time>
      </trkpt>
      <trkpt lat="45.74645" lon="4.87507">
        <ele>178.2</ele>
        <time>2020-09-12T09:18:35Z</time>
      </trkpt>
      <trkpt lat="45.74651" lon="4.87508">
        <ele>178.4</ele>
        <time>2020-09-12T09:18:36Z</time>
      </trkpt>
      <trkpt lat="45.74661" lon="4.8751">
        <ele>178.6</ele>
        <time>2020-09-12T09:18:38Z</time>
      </trkpt>
      <trkpt lat="45.74667" lon="4.8751">
        <ele>179.1</ele>
        <time>2020-09-12T09:18:39Z</time>
      </trkpt>
      <trkpt lat="45.74673" lon="4.87511">
        <ele>179.1</ele>
        <time>2020-09-12T09:18:40Z</time>
      </trkpt>
      <trkpt lat="45.74678" lon="4.87513">
        <ele>179.1</ele>
        <time>2020-09-12T09:18:41Z</time>
      </trkpt>
      <trkpt lat="45.74684" lon="4.87514">
        <ele>179.2</ele>
        <time>2020-09-12T09:18:42Z</time>
      </trkpt>
      <trkpt lat="45.7469" lon="4.87514">
        <ele>179.2</ele>
        <time>2020-09-12T09:18:43Z</time>
      </trkpt>
      <trkpt lat="45.74695" lon="4.87517">
        <ele>179.2</ele>
        <time>2020-09-12T09:18:44Z</time>
      </trkpt>
      <trkpt lat="45.74701" lon="4.87518">
        <ele>179.3</ele>
        <time>2020-09-12T09:18:45Z</time>
      </trkpt>
      <trkpt lat="45.74706" lon="4.87519">
        <ele>179.3</ele>
        <time>2020-09-12T09:18:46Z</time>
      </trkpt>
      <trkpt lat="45.74711" lon="4.8752">
        <ele>179.3</ele>
        <time>2020-09-12T09:18:47Z</time>
      </trkpt>
      <trkpt lat="45.74716" lon="4.87521">
        <ele>179.4</ele>
        <time>2020-09-12T09:18:48Z</time>
      </trkpt>
      <trkpt lat="45.74721" lon="4.87521">
        <ele>179.4</ele>
        <time>2020-09-12T09:18:49Z</time>
      </trkpt>
      <trkpt lat="45.74727" lon="4.87522">
        <ele>179.4</ele>
        <time>2020-09-12T09:18:50Z</time>
      </trkpt>
      <trkpt lat="45.74732" lon="4.87523">
        <ele>179.5</ele>
        <time>2020-09-12T09:18:51Z</time>
      </trkpt>
      <trkpt lat="45.74737" lon="4.87524">
        <ele>179.5</ele>
        <time>2020-09-12T09:18:52Z</time>
      </trkpt>
      <trkpt lat="45.74743" lon="4.87524">
        <ele>179.5</ele>
        <time>2020-09-12T09:18:53Z</time>
      </trkpt>
      <trkpt lat="45.74748" lon="4.87525">
        <ele>179.5</ele>
        <time>2020-09-12T09:18:54Z</time>
      </trkpt>
      <trkpt lat="45.74753" lon="4.87526">
        <ele>180.2</ele>
        <time>2020-09-12T09:18:55Z</time>
      </trkpt>
      <trkpt lat="45.74759" lon="4.87527">
        <ele>180.2</ele>
        <time>2020-09-12T09:18:56Z</time>
      </trkpt>
      <trkpt lat="45.74765" lon="4.87527">
        <ele>180.3</ele>
        <time>2020-09-12T09:18:57Z</time>
      </trkpt>
      <trkpt lat="45.7477" lon="4.87528">
        <ele>180.3</ele>
        <time>2020-09-12T09:18:58Z</time>
      </trkpt>
      <trkpt lat="45.74775" lon="4.87529">
        <ele>180.4</ele>
        <time>2020-09-12T09:18:59Z</time>
      </trkpt>
      <trkpt lat="45.74781" lon="4.8753">
        <ele>180.4</ele>
        <time>2020-09-12T09:19:00Z</time>
      </trkpt>
      <trkpt lat="45.74787" lon="4.87531">
        <ele>180.5</ele>
        <time>2020-09-12T09:19:01Z</time>
      </trkpt>
      <trkpt lat="45.74793" lon="4.87533">
        <ele>180.6</ele>
        <time>2020-09-12T09:19:02Z</time>
      </trkpt>
      <trkpt lat="45.74798" lon="4.87534">
        <ele>180.6</ele>
        <time>2020-09-12T09:19:03Z</time>
      </trkpt>
      <trkpt lat="45.74803" lon="4.87535">
        <ele>180.7</ele>
        <time>2020-09-12T09:19:04Z</time>
      </trkpt>
      <trkpt lat="45.74809" lon="4.87536">
        <ele>180.8</ele>
        <time>2020-09-12T09:19:05Z</time>
      </trkpt>
      <trkpt lat="45.74815" lon="4.87537">
        <ele>180.8</ele>
        <time>2020-09-12T09:19:06Z</time>
      </trkpt>
      <trkpt lat="45.7482" lon="4.87538">
        <ele>180.8</ele>
        <time>2020-09-12T09:19:07Z</time>
      </trkpt>
      <trkpt lat="45.74825" lon="4.87539">
        <ele>180.9</ele>
        <time>2020-09-12T09:19:08Z</time>
      </trkpt>
      <trkpt lat="45.74831" lon="4.87539">
        <ele>180.9</ele>
        <time>2020-09-12T09:19:09Z</time>
      </trkpt>
      <trkpt lat="45.74837" lon="4.87542">
        <ele>181.8</ele>
        <time>2020-09-12T09:19:10Z</time>
      </trkpt>
      <trkpt lat="45.74844" lon="4.87545">
        <ele>181.8</ele>
        <time>2020-09-12T09:19:11Z</time>
      </trkpt>
      <trkpt lat="45.7485" lon="4.87546">
        <ele>181.8</ele>
        <time>2020-09-12T09:19:12Z</time>
      </trkpt>
      <trkpt lat="45.74856" lon="4.87547">
        <ele>181.9</ele>
        <time>2020-09-12T09:19:13Z</time>
      </trkpt>
      <trkpt lat="45.74862" lon="4.87548">
        <ele>181.9</ele>
        <time>2020-09-12T09:19:14Z</time>
      </trkpt>
      <trkpt lat="45.74867" lon="4.87549">
        <ele>181.9</ele>
        <time>2020-09-12T09:19:15Z</time>
      </trkpt>
      <trkpt lat="45.74872" lon="4.8755">
        <ele>182</ele>
        <time>2020-09-12T09:19:16Z</time>
      </trkpt>
      <trkpt lat="45.74878" lon="4.87551">
        <ele>182</ele>
        <time>2020-09-12T09:19:17Z</time>
      </trkpt>
      <trkpt lat="45.74883" lon="4.87552">
        <ele>182.1</ele>
        <time>2020-09-12T09:19:18Z</time>
      </trkpt>
      <trkpt lat="45.74888" lon="4.87553">
        <ele>182.1</ele>
        <time>2020-09-12T09:19:19Z</time>
      </trkpt>
      <trkpt lat="45.74892" lon="4.87555">
        <ele>182.2</ele>
        <time>2020-09-12T09:19:20Z</time>
      </trkpt>
      <trkpt lat="45.74897" lon="4.87555">
        <ele>182.2</ele>
        <time>2020-09-12T09:19:21Z</time>
      </trkpt>
      <trkpt lat="45.74902" lon="4.87555">
        <ele>182.2</ele>
        <time>2020-09-12T09:19:22Z</time>
      </trkpt>
      <trkpt lat="45.74907" lon="4.87556">
        <ele>182.3</ele>
        <time>2020-09-12T09:19:23Z</time>
      </trkpt>
      <trkpt lat="45.74912" lon="4.87557">
        <ele>182.3</ele>
        <time>2020-09-12T09:19:24Z</time>
      </trkpt>
      <trkpt lat="45.74921" lon="4.87558">
        <ele>182.8</ele>
        <time>2020-09-12T09:19:26Z</time>
      </trkpt>
      <trkpt lat="45.7493" lon="4.8756">
        <ele>182.8</ele>
        <time>2020-09-12T09:19:28Z</time>
      </trkpt>
      <trkpt lat="45.74934" lon="4.87561">
        <ele>182.8</ele>
        <time>2020-09-12T09:19:29Z</time>
      </trkpt>
      <trkpt lat="45.74939" lon="4.87562">
        <ele>182.8</ele>
        <time>2020-09-12T09:19:30Z</time>
      </trkpt>
      <trkpt lat="45.74947" lon="4.87563">
        <ele>182.8</ele>
        <time>2020-09-12T09:19:32Z</time>
      </trkpt>
      <trkpt lat="45.74952" lon="4.87562">
        <ele>182.8</ele>
        <time>2020-09-12T09:19:34Z</time>
      </trkpt>
      <trkpt lat="45.74956" lon="4.87566">
        <ele>182.8</ele>
        <time>2020-09-12T09:19:57Z</time>
      </trkpt>
      <trkpt lat="45.74962" lon="4.87566">
        <ele>182.8</ele>
        <time>2020-09-12T09:20:00Z</time>
      </trkpt>
      <trkpt lat="45.74966" lon="4.87563">
        <ele>182.8</ele>
        <time>2020-09-12T09:20:02Z</time>
      </trkpt>
      <trkpt lat="45.74972" lon="4.8756">
        <ele>182.8</ele>
        <time>2020-09-12T09:20:05Z</time>
      </trkpt>
      <trkpt lat="45.74978" lon="4.87558">
        <ele>182.8</ele>
        <time>2020-09-12T09:20:08Z</time>
      </trkpt>
      <trkpt lat="45.74984" lon="4.87559">
        <ele>182.9</ele>
        <time>2020-09-12T09:20:11Z</time>
      </trkpt>
      <trkpt lat="45.74989" lon="4.87556">
        <ele>182.9</ele>
        <time>2020-09-12T09:20:13Z</time>
      </trkpt>
      <trkpt lat="45.74994" lon="4.87548">
        <ele>182.8</ele>
        <time>2020-09-12T09:20:15Z</time>
      </trkpt>
      <trkpt lat="45.74996" lon="4.87543">
        <ele>182.8</ele>
        <time>2020-09-12T09:20:16Z</time>
      </trkpt>
      <trkpt lat="45.74999" lon="4.87534">
        <ele>182.8</ele>
        <time>2020-09-12T09:20:17Z</time>
      </trkpt>
      <trkpt lat="45.75003" lon="4.8752">
        <ele>182.5</ele>
        <time>2020-09-12T09:20:19Z</time>
      </trkpt>
      <trkpt lat="45.75007" lon="4.87515">
        <ele>182.5</ele>
        <time>2020-09-12T09:20:20Z</time>
      </trkpt>
      <trkpt lat="45.75009" lon="4.87509">
        <ele>182.6</ele>
        <time>2020-09-12T09:20:21Z</time>
      </trkpt>
      <trkpt lat="45.75013" lon="4.87502">
        <ele>182.6</ele>
        <time>2020-09-12T09:20:22Z</time>
      </trkpt>
      <trkpt lat="45.75017" lon="4.87495">
        <ele>182.3</ele>
        <time>2020-09-12T09:20:23Z</time>
      </trkpt>
      <trkpt lat="45.75021" lon="4.87489">
        <ele>182.2</ele>
        <time>2020-09-12T09:20:24Z</time>
      </trkpt>
      <trkpt lat="45.75025" lon="4.87483">
        <ele>182.1</ele>
        <time>2020-09-12T09:20:25Z</time>
      </trkpt>
      <trkpt lat="45.75029" lon="4.87476">
        <ele>182</ele>
        <time>2020-09-12T09:20:26Z</time>
      </trkpt>
      <trkpt lat="45.75033" lon="4.8747">
        <ele>181.9</ele>
        <time>2020-09-12T09:20:27Z</time>
      </trkpt>
      <trkpt lat="45.75036" lon="4.87463">
        <ele>181.8</ele>
        <time>2020-09-12T09:20:28Z</time>
      </trkpt>
      <trkpt lat="45.7504" lon="4.87457">
        <ele>181.8</ele>
        <time>2020-09-12T09:20:29Z</time>
      </trkpt>
      <trkpt lat="45.75044" lon="4.8745">
        <ele>181.7</ele>
        <time>2020-09-12T09:20:30Z</time>
      </trkpt>
      <trkpt lat="45.75047" lon="4.87443">
        <ele>181.7</ele>
        <time>2020-09-12T09:20:31Z</time>
      </trkpt>
      <trkpt lat="45.75049" lon="4.87436">
        <ele>181.6</ele>
        <time>2020-09-12T09:20:32Z</time>
      </trkpt>
      <trkpt lat="45.75053" lon="4.87429">
        <ele>181.6</ele>
        <time>2020-09-12T09:20:33Z</time>
      </trkpt>
      <trkpt lat="45.75057" lon="4.87421">
        <ele>181.5</ele>
        <time>2020-09-12T09:20:34Z</time>
      </trkpt>
      <trkpt lat="45.75059" lon="4.87415">
        <ele>181.3</ele>
        <time>2020-09-12T09:20:35Z</time>
      </trkpt>
      <trkpt lat="45.75062" lon="4.87407">
        <ele>181.3</ele>
        <time>2020-09-12T09:20:36Z</time>
      </trkpt>
      <trkpt lat="45.75066" lon="4.87401">
        <ele>181.3</ele>
        <time>2020-09-12T09:20:37Z</time>
      </trkpt>
      <trkpt lat="45.7507" lon="4.87394">
        <ele>181.3</ele>
        <time>2020-09-12T09:20:38Z</time>
      </trkpt>
      <trkpt lat="45.75074" lon="4.87386">
        <ele>181.3</ele>
        <time>2020-09-12T09:20:39Z</time>
      </trkpt>
      <trkpt lat="45.75078" lon="4.87379">
        <ele>181.3</ele>
        <time>2020-09-12T09:20:40Z</time>
      </trkpt>
      <trkpt lat="45.75082" lon="4.87371">
        <ele>181.3</ele>
        <time>2020-09-12T09:20:41Z</time>
      </trkpt>
      <trkpt lat="45.75086" lon="4.87364">
        <ele>180.7</ele>
        <time>2020-09-12T09:20:42Z</time>
      </trkpt>
      <trkpt lat="45.75089" lon="4.87356">
        <ele>180.7</ele>
        <time>2020-09-12T09:20:43Z</time>
      </trkpt>
      <trkpt lat="45.75092" lon="4.87346">
        <ele>180.8</ele>
        <time>2020-09-12T09:20:44Z</time>
      </trkpt>
      <trkpt lat="45.75096" lon="4.87338">
        <ele>180.8</ele>
        <time>2020-09-12T09:20:45Z</time>
      </trkpt>
      <trkpt lat="45.75099" lon="4.8733">
        <ele>180.4</ele>
        <time>2020-09-12T09:20:46Z</time>
      </trkpt>
      <trkpt lat="45.75103" lon="4.87322">
        <ele>180.2</ele>
        <time>2020-09-12T09:20:47Z</time>
      </trkpt>
      <trkpt lat="45.75106" lon="4.87313">
        <ele>180.1</ele>
        <time>2020-09-12T09:20:48Z</time>
      </trkpt>
      <trkpt lat="45.7511" lon="4.87305">
        <ele>180</ele>
        <time>2020-09-12T09:20:49Z</time>
      </trkpt>
      <trkpt lat="45.75114" lon="4.87296">
        <ele>179.8</ele>
        <time>2020-09-12T09:20:50Z</time>
      </trkpt>
      <trkpt lat="45.7512" lon="4.87289">
        <ele>179.7</ele>
        <time>2020-09-12T09:20:51Z</time>
      </trkpt>
      <trkpt lat="45.75125" lon="4.8728">
        <ele>179.6</ele>
        <time>2020-09-12T09:20:52Z</time>
      </trkpt>
      <trkpt lat="45.75129" lon="4.87271">
        <ele>179.6</ele>
        <time>2020-09-12T09:20:53Z</time>
      </trkpt>
      <trkpt lat="45.75135" lon="4.87264">
        <ele>179.5</ele>
        <time>2020-09-12T09:20:54Z</time>
      </trkpt>
      <trkpt lat="45.7514" lon="4.87256">
        <ele>179.4</ele>
        <time>2020-09-12T09:20:55Z</time>
      </trkpt>
      <trkpt lat="45.75146" lon="4.87247">
        <ele>178.9</ele>
        <time>2020-09-12T09:20:56Z</time>
      </trkpt>
      <trkpt lat="45.75149" lon="4.87238">
        <ele>178.9</ele>
        <time>2020-09-12T09:20:57Z</time>
      </trkpt>
      <trkpt lat="45.75155" lon="4.8723">
        <ele>178.9</ele>
        <time>2020-09-12T09:20:58Z</time>
      </trkpt>
      <trkpt lat="45.75161" lon="4.87222">
        <ele>178.9</ele>
        <time>2020-09-12T09:20:59Z</time>
      </trkpt>
      <trkpt lat="45.75166" lon="4.87213">
        <ele>178.8</ele>
        <time>2020-09-12T09:21:00Z</time>
      </trkpt>
      <trkpt lat="45.75169" lon="4.87205">
        <ele>177.6</ele>
        <time>2020-09-12T09:21:01Z</time>
      </trkpt>
      <trkpt lat="45.75173" lon="4.87196">
        <ele>177.6</ele>
        <time>2020-09-12T09:21:02Z</time>
      </trkpt>
      <trkpt lat="45.75178" lon="4.87188">
        <ele>177.7</ele>
        <time>2020-09-12T09:21:03Z</time>
      </trkpt>
      <trkpt lat="45.75182" lon="4.87179">
        <ele>177.8</ele>
        <time>2020-09-12T09:21:04Z</time>
      </trkpt>
      <trkpt lat="45.75186" lon="4.8717">
        <ele>177.7</ele>
        <time>2020-09-12T09:21:05Z</time>
      </trkpt>
      <trkpt lat="45.7519" lon="4.87163">
        <ele>177.1</ele>
        <time>2020-09-12T09:21:06Z</time>
      </trkpt>
      <trkpt lat="45.75194" lon="4.87155">
        <ele>176.9</ele>
        <time>2020-09-12T09:21:07Z</time>
      </trkpt>
      <trkpt lat="45.75197" lon="4.87147">
        <ele>176.7</ele>
        <time>2020-09-12T09:21:08Z</time>
      </trkpt>
      <trkpt lat="45.75201" lon="4.87139">
        <ele>176.5</ele>
        <time>2020-09-12T09:21:09Z</time>
      </trkpt>
      <trkpt lat="45.75203" lon="4.87131">
        <ele>176.4</ele>
        <time>2020-09-12T09:21:10Z</time>
      </trkpt>
      <trkpt lat="45.75207" lon="4.87123">
        <ele>176.3</ele>
        <time>2020-09-12T09:21:11Z</time>
      </trkpt>
      <trkpt lat="45.7521" lon="4.87116">
        <ele>176.2</ele>
        <time>2020-09-12T09:21:12Z</time>
      </trkpt>
      <trkpt lat="45.75213" lon="4.8711">
        <ele>176.2</ele>
        <time>2020-09-12T09:21:13Z</time>
      </trkpt>
      <trkpt lat="45.75216" lon="4.87104">
        <ele>176.1</ele>
        <time>2020-09-12T09:21:14Z</time>
      </trkpt>
      <trkpt lat="45.75219" lon="4.87099">
        <ele>176.1</ele>
        <time>2020-09-12T09:21:15Z</time>
      </trkpt>
      <trkpt lat="45.75222" lon="4.87093">
        <ele>176.1</ele>
        <time>2020-09-12T09:21:16Z</time>
      </trkpt>
      <trkpt lat="45.75225" lon="4.87086">
        <ele>176.1</ele>
        <time>2020-09-12T09:21:17Z</time>
      </trkpt>
      <trkpt lat="45.75229" lon="4.87079">
        <ele>175.9</ele>
        <time>2020-09-12T09:21:18Z</time>
      </trkpt>
      <trkpt lat="45.75232" lon="4.87072">
        <ele>175.9</ele>
        <time>2020-09-12T09:21:19Z</time>
      </trkpt>
      <trkpt lat="45.75236" lon="4.87064">
        <ele>175.9</ele>
        <time>2020-09-12T09:21:20Z</time>
      </trkpt>
      <trkpt lat="45.75239" lon="4.87056">
        <ele>175.9</ele>
        <time>2020-09-12T09:21:21Z</time>
      </trkpt>
      <trkpt lat="45.75243" lon="4.87049">
        <ele>176</ele>
        <time>2020-09-12T09:21:22Z</time>
      </trkpt>
      <trkpt lat="45.75246" lon="4.87041">
        <ele>176</ele>
        <time>2020-09-12T09:21:23Z</time>
      </trkpt>
      <trkpt lat="45.7525" lon="4.87034">
        <ele>176.1</ele>
        <time>2020-09-12T09:21:24Z</time>
      </trkpt>
      <trkpt lat="45.75253" lon="4.87027">
        <ele>176.5</ele>
        <time>2020-09-12T09:21:25Z</time>
      </trkpt>
      <trkpt lat="45.75257" lon="4.87019">
        <ele>176.6</ele>
        <time>2020-09-12T09:21:26Z</time>
      </trkpt>
      <trkpt lat="45.75261" lon="4.87012">
        <ele>176.7</ele>
        <time>2020-09-12T09:21:27Z</time>
      </trkpt>
      <trkpt lat="45.75264" lon="4.87004">
        <ele>176.7</ele>
        <time>2020-09-12T09:21:28Z</time>
      </trkpt>
      <trkpt lat="45.75267" lon="4.86997">
        <ele>176.7</ele>
        <time>2020-09-12T09:21:29Z</time>
      </trkpt>
      <trkpt lat="45.75271" lon="4.86988">
        <ele>176.6</ele>
        <time>2020-09-12T09:21:30Z</time>
      </trkpt>
      <trkpt lat="45.75275" lon="4.86981">
        <ele>176.6</ele>
        <time>2020-09-12T09:21:31Z</time>
      </trkpt>
      <trkpt lat="45.7528" lon="4.86974">
        <ele>176.5</ele>
        <time>2020-09-12T09:21:32Z</time>
      </trkpt>
      <trkpt lat="45.75284" lon="4.86966">
        <ele>176.4</ele>
        <time>2020-09-12T09:21:33Z</time>
      </trkpt>
      <trkpt lat="45.75288" lon="4.86959">
        <ele>176.3</ele>
        <time>2020-09-12T09:21:34Z</time>
      </trkpt>
      <trkpt lat="45.75293" lon="4.86952">
        <ele>176.1</ele>
        <time>2020-09-12T09:21:35Z</time>
      </trkpt>
      <trkpt lat="45.75298" lon="4.86945">
        <ele>176</ele>
        <time>2020-09-12T09:21:36Z</time>
      </trkpt>
      <trkpt lat="45.75302" lon="4.86938">
        <ele>175.8</ele>
        <time>2020-09-12T09:21:37Z</time>
      </trkpt>
      <trkpt lat="45.75306" lon="4.86931">
        <ele>175.6</ele>
        <time>2020-09-12T09:21:38Z</time>
      </trkpt>
      <trkpt lat="45.75309" lon="4.86923">
        <ele>175.4</ele>
        <time>2020-09-12T09:21:39Z</time>
      </trkpt>
      <trkpt lat="45.75313" lon="4.86917">
        <ele>174.8</ele>
        <time>2020-09-12T09:21:40Z</time>
      </trkpt>
      <trkpt lat="45.75317" lon="4.86909">
        <ele>174.7</ele>
        <time>2020-09-12T09:21:41Z</time>
      </trkpt>
      <trkpt lat="45.75321" lon="4.86902">
        <ele>174.7</ele>
        <time>2020-09-12T09:21:42Z</time>
      </trkpt>
      <trkpt lat="45.75325" lon="4.86895">
        <ele>174.7</ele>
        <time>2020-09-12T09:21:43Z</time>
      </trkpt>
      <trkpt lat="45.75329" lon="4.86888">
        <ele>174.7</ele>
        <time>2020-09-12T09:21:44Z</time>
      </trkpt>
      <trkpt lat="45.75334" lon="4.86882">
        <ele>172.8</ele>
        <time>2020-09-12T09:21:45Z</time>
      </trkpt>
      <trkpt lat="45.75338" lon="4.86874">
        <ele>172.7</ele>
        <time>2020-09-12T09:21:46Z</time>
      </trkpt>
      <trkpt lat="45.75341" lon="4.86866">
        <ele>172.5</ele>
        <time>2020-09-12T09:21:47Z</time>
      </trkpt>
      <trkpt lat="45.75345" lon="4.86858">
        <ele>172.4</ele>
        <time>2020-09-12T09:21:48Z</time>
      </trkpt>
      <trkpt lat="45.75348" lon="4.8685">
        <ele>172.4</ele>
        <time>2020-09-12T09:21:49Z</time>
      </trkpt>
      <trkpt lat="45.75352" lon="4.86842">
        <ele>172.3</ele>
        <time>2020-09-12T09:21:50Z</time>
      </trkpt>
      <trkpt lat="45.75357" lon="4.86835">
        <ele>172.3</ele>
        <time>2020-09-12T09:21:51Z</time>
      </trkpt>
      <trkpt lat="45.7536" lon="4.86826">
        <ele>171.7</ele>
        <time>2020-09-12T09:21:52Z</time>
      </trkpt>
      <trkpt lat="45.75364" lon="4.86819">
        <ele>171.7</ele>
        <time>2020-09-12T09:21:53Z</time>
      </trkpt>
      <trkpt lat="45.75368" lon="4.86811">
        <ele>171.6</ele>
        <time>2020-09-12T09:21:54Z</time>
      </trkpt>
      <trkpt lat="45.75372" lon="4.86804">
        <ele>171.6</ele>
        <time>2020-09-12T09:21:55Z</time>
      </trkpt>
      <trkpt lat="45.75375" lon="4.86796">
        <ele>171.5</ele>
        <time>2020-09-12T09:21:56Z</time>
      </trkpt>
      <trkpt lat="45.7538" lon="4.86788">
        <ele>171.5</ele>
        <time>2020-09-12T09:21:57Z</time>
      </trkpt>
      <trkpt lat="45.75383" lon="4.8678">
        <ele>171.4</ele>
        <time>2020-09-12T09:21:58Z</time>
      </trkpt>
      <trkpt lat="45.75387" lon="4.86772">
        <ele>171.4</ele>
        <time>2020-09-12T09:21:59Z</time>
      </trkpt>
      <trkpt lat="45.7539" lon="4.86763">
        <ele>171.3</ele>
        <time>2020-09-12T09:22:00Z</time>
      </trkpt>
      <trkpt lat="45.75395" lon="4.86755">
        <ele>171.3</ele>
        <time>2020-09-12T09:22:01Z</time>
      </trkpt>
      <trkpt lat="45.754" lon="4.86748">
        <ele>171</ele>
        <time>2020-09-12T09:22:02Z</time>
      </trkpt>
      <trkpt lat="45.75404" lon="4.86741">
        <ele>171</ele>
        <time>2020-09-12T09:22:03Z</time>
      </trkpt>
      <trkpt lat="45.75409" lon="4.86734">
        <ele>171</ele>
        <time>2020-09-12T09:22:04Z</time>
      </trkpt>
      <trkpt lat="45.75412" lon="4.86727">
        <ele>171</ele>
        <time>2020-09-12T09:22:05Z</time>
      </trkpt>
      <trkpt lat="45.75416" lon="4.86723">
        <ele>171</ele>
        <time>2020-09-12T09:22:06Z</time>
      </trkpt>
      <trkpt lat="45.7542" lon="4.86714">
        <ele>171.3</ele>
        <time>2020-09-12T09:22:07Z</time>
      </trkpt>
      <trkpt lat="45.75426" lon="4.86708">
        <ele>171.3</ele>
        <time>2020-09-12T09:22:08Z</time>
      </trkpt>
      <trkpt lat="45.7543" lon="4.86701">
        <ele>171.4</ele>
        <time>2020-09-12T09:22:09Z</time>
      </trkpt>
      <trkpt lat="45.75433" lon="4.86694">
        <ele>171.4</ele>
        <time>2020-09-12T09:22:10Z</time>
      </trkpt>
      <trkpt lat="45.75437" lon="4.86686">
        <ele>171.4</ele>
        <time>2020-09-12T09:22:11Z</time>
      </trkpt>
      <trkpt lat="45.75442" lon="4.86679">
        <ele>171.4</ele>
        <time>2020-09-12T09:22:12Z</time>
      </trkpt>
      <trkpt lat="45.75446" lon="4.86671">
        <ele>171.5</ele>
        <time>2020-09-12T09:22:13Z</time>
      </trkpt>
      <trkpt lat="45.75451" lon="4.86664">
        <ele>172.5</ele>
        <time>2020-09-12T09:22:14Z</time>
      </trkpt>
      <trkpt lat="45.75454" lon="4.86657">
        <ele>172.6</ele>
        <time>2020-09-12T09:22:15Z</time>
      </trkpt>
      <trkpt lat="45.75458" lon="4.8665">
        <ele>172.7</ele>
        <time>2020-09-12T09:22:16Z</time>
      </trkpt>
      <trkpt lat="45.75462" lon="4.8664">
        <ele>172.9</ele>
        <time>2020-09-12T09:22:18Z</time>
      </trkpt>
      <trkpt lat="45.75468" lon="4.86633">
        <ele>173</ele>
        <time>2020-09-12T09:22:19Z</time>
      </trkpt>
      <trkpt lat="45.75474" lon="4.86626">
        <ele>173.2</ele>
        <time>2020-09-12T09:22:20Z</time>
      </trkpt>
      <trkpt lat="45.7548" lon="4.86619">
        <ele>173.3</ele>
        <time>2020-09-12T09:22:21Z</time>
      </trkpt>
      <trkpt lat="45.75485" lon="4.86613">
        <ele>173.5</ele>
        <time>2020-09-12T09:22:22Z</time>
      </trkpt>
      <trkpt lat="45.75489" lon="4.86606">
        <ele>173.7</ele>
        <time>2020-09-12T09:22:23Z</time>
      </trkpt>
      <trkpt lat="45.75493" lon="4.866">
        <ele>174</ele>
        <time>2020-09-12T09:22:24Z</time>
      </trkpt>
      <trkpt lat="45.75497" lon="4.86593">
        <ele>174.3</ele>
        <time>2020-09-12T09:22:25Z</time>
      </trkpt>
      <trkpt lat="45.75501" lon="4.86586">
        <ele>174.9</ele>
        <time>2020-09-12T09:22:26Z</time>
      </trkpt>
      <trkpt lat="45.75505" lon="4.8658">
        <ele>174.6</ele>
        <time>2020-09-12T09:22:27Z</time>
      </trkpt>
      <trkpt lat="45.75509" lon="4.86573">
        <ele>174.2</ele>
        <time>2020-09-12T09:22:28Z</time>
      </trkpt>
      <trkpt lat="45.75513" lon="4.86566">
        <ele>173.9</ele>
        <time>2020-09-12T09:22:29Z</time>
      </trkpt>
      <trkpt lat="45.75518" lon="4.86559">
        <ele>173.6</ele>
        <time>2020-09-12T09:22:30Z</time>
      </trkpt>
      <trkpt lat="45.75522" lon="4.86552">
        <ele>173.4</ele>
        <time>2020-09-12T09:22:31Z</time>
      </trkpt>
      <trkpt lat="45.75527" lon="4.86546">
        <ele>173.3</ele>
        <time>2020-09-12T09:22:32Z</time>
      </trkpt>
      <trkpt lat="45.7553" lon="4.86539">
        <ele>173.2</ele>
        <time>2020-09-12T09:22:33Z</time>
      </trkpt>
      <trkpt lat="45.75534" lon="4.86533">
        <ele>173.1</ele>
        <time>2020-09-12T09:22:34Z</time>
      </trkpt>
      <trkpt lat="45.75538" lon="4.86526">
        <ele>173</ele>
        <time>2020-09-12T09:22:35Z</time>
      </trkpt>
      <trkpt lat="45.75542" lon="4.8652">
        <ele>172.9</ele>
        <time>2020-09-12T09:22:36Z</time>
      </trkpt>
      <trkpt lat="45.75547" lon="4.86512">
        <ele>172.9</ele>
        <time>2020-09-12T09:22:37Z</time>
      </trkpt>
      <trkpt lat="45.7555" lon="4.86505">
        <ele>172.9</ele>
        <time>2020-09-12T09:22:38Z</time>
      </trkpt>
      <trkpt lat="45.75554" lon="4.86498">
        <ele>173.2</ele>
        <time>2020-09-12T09:22:39Z</time>
      </trkpt>
      <trkpt lat="45.75557" lon="4.86489">
        <ele>173.3</ele>
        <time>2020-09-12T09:22:40Z</time>
      </trkpt>
      <trkpt lat="45.75562" lon="4.86483">
        <ele>173.4</ele>
        <time>2020-09-12T09:22:41Z</time>
      </trkpt>
      <trkpt lat="45.75566" lon="4.86476">
        <ele>173.4</ele>
        <time>2020-09-12T09:22:42Z</time>
      </trkpt>
      <trkpt lat="45.7557" lon="4.86469">
        <ele>173.5</ele>
        <time>2020-09-12T09:22:43Z</time>
      </trkpt>
      <trkpt lat="45.75575" lon="4.86463">
        <ele>173.6</ele>
        <time>2020-09-12T09:22:44Z</time>
      </trkpt>
      <trkpt lat="45.75579" lon="4.86456">
        <ele>173.7</ele>
        <time>2020-09-12T09:22:45Z</time>
      </trkpt>
      <trkpt lat="45.75581" lon="4.86448">
        <ele>173.8</ele>
        <time>2020-09-12T09:22:46Z</time>
      </trkpt>
      <trkpt lat="45.75585" lon="4.86441">
        <ele>174.1</ele>
        <time>2020-09-12T09:22:47Z</time>
      </trkpt>
      <trkpt lat="45.7559" lon="4.86434">
        <ele>174.1</ele>
        <time>2020-09-12T09:22:48Z</time>
      </trkpt>
      <trkpt lat="45.75593" lon="4.86427">
        <ele>174.1</ele>
        <time>2020-09-12T09:22:49Z</time>
      </trkpt>
      <trkpt lat="45.75597" lon="4.86421">
        <ele>174.2</ele>
        <time>2020-09-12T09:22:50Z</time>
      </trkpt>
      <trkpt lat="45.75601" lon="4.86415">
        <ele>174</ele>
        <time>2020-09-12T09:22:51Z</time>
      </trkpt>
      <trkpt lat="45.75605" lon="4.86409">
        <ele>174</ele>
        <time>2020-09-12T09:22:52Z</time>
      </trkpt>
      <trkpt lat="45.75611" lon="4.86403">
        <ele>174</ele>
        <time>2020-09-12T09:22:53Z</time>
      </trkpt>
      <trkpt lat="45.75615" lon="4.86398">
        <ele>174</ele>
        <time>2020-09-12T09:22:54Z</time>
      </trkpt>
      <trkpt lat="45.75619" lon="4.86391">
        <ele>173.9</ele>
        <time>2020-09-12T09:22:55Z</time>
      </trkpt>
      <trkpt lat="45.75622" lon="4.86385">
        <ele>173.9</ele>
        <time>2020-09-12T09:22:56Z</time>
      </trkpt>
      <trkpt lat="45.75626" lon="4.86378">
        <ele>173.8</ele>
        <time>2020-09-12T09:22:57Z</time>
      </trkpt>
      <trkpt lat="45.7563" lon="4.86372">
        <ele>173.8</ele>
        <time>2020-09-12T09:22:58Z</time>
      </trkpt>
      <trkpt lat="45.75635" lon="4.86365">
        <ele>173.7</ele>
        <time>2020-09-12T09:22:59Z</time>
      </trkpt>
      <trkpt lat="45.75639" lon="4.86359">
        <ele>173.6</ele>
        <time>2020-09-12T09:23:00Z</time>
      </trkpt>
      <trkpt lat="45.75641" lon="4.86353">
        <ele>173.5</ele>
        <time>2020-09-12T09:23:01Z</time>
      </trkpt>
      <trkpt lat="45.75644" lon="4.86347">
        <ele>173.5</ele>
        <time>2020-09-12T09:23:02Z</time>
      </trkpt>
      <trkpt lat="45.75648" lon="4.8634">
        <ele>173.4</ele>
        <time>2020-09-12T09:23:03Z</time>
      </trkpt>
      <trkpt lat="45.75652" lon="4.86333">
        <ele>172.3</ele>
        <time>2020-09-12T09:23:04Z</time>
      </trkpt>
      <trkpt lat="45.75654" lon="4.86327">
        <ele>172.3</ele>
        <time>2020-09-12T09:23:05Z</time>
      </trkpt>
      <trkpt lat="45.75658" lon="4.8632">
        <ele>172.2</ele>
        <time>2020-09-12T09:23:06Z</time>
      </trkpt>
      <trkpt lat="45.75662" lon="4.86313">
        <ele>172</ele>
        <time>2020-09-12T09:23:07Z</time>
      </trkpt>
      <trkpt lat="45.75665" lon="4.86306">
        <ele>171.8</ele>
        <time>2020-09-12T09:23:08Z</time>
      </trkpt>
      <trkpt lat="45.75668" lon="4.86299">
        <ele>171.8</ele>
        <time>2020-09-12T09:23:09Z</time>
      </trkpt>
      <trkpt lat="45.75671" lon="4.86292">
        <ele>171.7</ele>
        <time>2020-09-12T09:23:10Z</time>
      </trkpt>
      <trkpt lat="45.75673" lon="4.86283">
        <ele>171.5</ele>
        <time>2020-09-12T09:23:11Z</time>
      </trkpt>
      <trkpt lat="45.75675" lon="4.86275">
        <ele>171.4</ele>
        <time>2020-09-12T09:23:12Z</time>
      </trkpt>
      <trkpt lat="45.75678" lon="4.86269">
        <ele>171.3</ele>
        <time>2020-09-12T09:23:13Z</time>
      </trkpt>
      <trkpt lat="45.75684" lon="4.8626">
        <ele>171.2</ele>
        <time>2020-09-12T09:23:15Z</time>
      </trkpt>
      <trkpt lat="45.75688" lon="4.86257">
        <ele>171.2</ele>
        <time>2020-09-12T09:23:16Z</time>
      </trkpt>
      <trkpt lat="45.75694" lon="4.86253">
        <ele>171.2</ele>
        <time>2020-09-12T09:23:18Z</time>
      </trkpt>
      <trkpt lat="45.75699" lon="4.86251">
        <ele>171.2</ele>
        <time>2020-09-12T09:23:21Z</time>
      </trkpt>
      <trkpt lat="45.75704" lon="4.86245">
        <ele>169.9</ele>
        <time>2020-09-12T09:23:25Z</time>
      </trkpt>
      <trkpt lat="45.75707" lon="4.86238">
        <ele>169.8</ele>
        <time>2020-09-12T09:23:27Z</time>
      </trkpt>
      <trkpt lat="45.7571" lon="4.86231">
        <ele>169.7</ele>
        <time>2020-09-12T09:23:29Z</time>
      </trkpt>
      <trkpt lat="45.75713" lon="4.86222">
        <ele>169.6</ele>
        <time>2020-09-12T09:23:31Z</time>
      </trkpt>
      <trkpt lat="45.75716" lon="4.86214">
        <ele>169.6</ele>
        <time>2020-09-12T09:23:33Z</time>
      </trkpt>
      <trkpt lat="45.75717" lon="4.86207">
        <ele>169.5</ele>
        <time>2020-09-12T09:23:35Z</time>
      </trkpt>
      <trkpt lat="45.75719" lon="4.86197">
        <ele>169.4</ele>
        <time>2020-09-12T09:23:38Z</time>
      </trkpt>
      <trkpt lat="45.75721" lon="4.86188">
        <ele>169.3</ele>
        <time>2020-09-12T09:23:40Z</time>
      </trkpt>
      <trkpt lat="45.75722" lon="4.86177">
        <ele>169.2</ele>
        <time>2020-09-12T09:23:42Z</time>
      </trkpt>
      <trkpt lat="45.7572" lon="4.86168">
        <ele>169.2</ele>
        <time>2020-09-12T09:23:43Z</time>
      </trkpt>
      <trkpt lat="45.7572" lon="4.86161">
        <ele>169.2</ele>
        <time>2020-09-12T09:23:44Z</time>
      </trkpt>
      <trkpt lat="45.7572" lon="4.86153">
        <ele>169.3</ele>
        <time>2020-09-12T09:23:45Z</time>
      </trkpt>
      <trkpt lat="45.7572" lon="4.86145">
        <ele>169.3</ele>
        <time>2020-09-12T09:23:46Z</time>
      </trkpt>
      <trkpt lat="45.75719" lon="4.86137">
        <ele>169.4</ele>
        <time>2020-09-12T09:23:47Z</time>
      </trkpt>
      <trkpt lat="45.75718" lon="4.86129">
        <ele>169.5</ele>
        <time>2020-09-12T09:23:48Z</time>
      </trkpt>
      <trkpt lat="45.75718" lon="4.86122">
        <ele>169.6</ele>
        <time>2020-09-12T09:23:49Z</time>
      </trkpt>
      <trkpt lat="45.7572" lon="4.86113">
        <ele>169.7</ele>
        <time>2020-09-12T09:23:50Z</time>
      </trkpt>
      <trkpt lat="45.7572" lon="4.86104">
        <ele>169.8</ele>
        <time>2020-09-12T09:23:51Z</time>
      </trkpt>
      <trkpt lat="45.75721" lon="4.86096">
        <ele>169.9</ele>
        <time>2020-09-12T09:23:52Z</time>
      </trkpt>
      <trkpt lat="45.75721" lon="4.86087">
        <ele>170</ele>
        <time>2020-09-12T09:23:53Z</time>
      </trkpt>
      <trkpt lat="45.7572" lon="4.86077">
        <ele>172.3</ele>
        <time>2020-09-12T09:23:54Z</time>
      </trkpt>
      <trkpt lat="45.75719" lon="4.86067">
        <ele>172.5</ele>
        <time>2020-09-12T09:23:55Z</time>
      </trkpt>
      <trkpt lat="45.75719" lon="4.86057">
        <ele>172.8</ele>
        <time>2020-09-12T09:23:56Z</time>
      </trkpt>
      <trkpt lat="45.7572" lon="4.86048">
        <ele>173.1</ele>
        <time>2020-09-12T09:23:57Z</time>
      </trkpt>
      <trkpt lat="45.75721" lon="4.86042">
        <ele>173.4</ele>
        <time>2020-09-12T09:23:58Z</time>
      </trkpt>
      <trkpt lat="45.75723" lon="4.86035">
        <ele>173.6</ele>
        <time>2020-09-12T09:23:59Z</time>
      </trkpt>
      <trkpt lat="45.75724" lon="4.86027">
        <ele>174</ele>
        <time>2020-09-12T09:24:00Z</time>
      </trkpt>
      <trkpt lat="45.75726" lon="4.86021">
        <ele>174.3</ele>
        <time>2020-09-12T09:24:01Z</time>
      </trkpt>
      <trkpt lat="45.75731" lon="4.85957">
        <ele>176.1</ele>
        <time>2020-09-12T09:24:06Z</time>
      </trkpt>
      <trkpt lat="45.75715" lon="4.85937">
        <ele>176</ele>
        <time>2020-09-12T09:24:08Z</time>
      </trkpt>
      <trkpt lat="45.75714" lon="4.8593">
        <ele>176</ele>
        <time>2020-09-12T09:24:09Z</time>
      </trkpt>
      <trkpt lat="45.75713" lon="4.85921">
        <ele>176</ele>
        <time>2020-09-12T09:24:11Z</time>
      </trkpt>
      <trkpt lat="45.75713" lon="4.85914">
        <ele>175.1</ele>
        <time>2020-09-12T09:24:12Z</time>
      </trkpt>
      <trkpt lat="45.75711" lon="4.85906">
        <ele>175</ele>
        <time>2020-09-12T09:24:14Z</time>
      </trkpt>
      <trkpt lat="45.75711" lon="4.85906">
        <ele>175</ele>
        <time>2020-09-12T09:24:39Z</time>
      </trkpt>
      <trkpt lat="45.75711" lon="4.85906">
        <ele>175</ele>
        <time>2020-09-12T09:24:40Z</time>
      </trkpt>
      <trkpt lat="45.75713" lon="4.85898">
        <ele>174.9</ele>
        <time>2020-09-12T09:24:55Z</time>
      </trkpt>
      <trkpt lat="45.75715" lon="4.85889">
        <ele>174.7</ele>
        <time>2020-09-12T09:24:57Z</time>
      </trkpt>
      <trkpt lat="45.75717" lon="4.85878">
        <ele>174.5</ele>
        <time>2020-09-12T09:24:59Z</time>
      </trkpt>
      <trkpt lat="45.75718" lon="4.85866">
        <ele>174.3</ele>
        <time>2020-09-12T09:25:01Z</time>
      </trkpt>
      <trkpt lat="45.75715" lon="4.85851">
        <ele>174</ele>
        <time>2020-09-12T09:25:03Z</time>
      </trkpt>
      <trkpt lat="45.75715" lon="4.85843">
        <ele>173.9</ele>
        <time>2020-09-12T09:25:04Z</time>
      </trkpt>
      <trkpt lat="45.75715" lon="4.85835">
        <ele>173.8</ele>
        <time>2020-09-12T09:25:05Z</time>
      </trkpt>
      <trkpt lat="45.75716" lon="4.85826">
        <ele>173.1</ele>
        <time>2020-09-12T09:25:06Z</time>
      </trkpt>
      <trkpt lat="45.75716" lon="4.85819">
        <ele>173.1</ele>
        <time>2020-09-12T09:25:07Z</time>
      </trkpt>
      <trkpt lat="45.75716" lon="4.8581">
        <ele>173.1</ele>
        <time>2020-09-12T09:25:08Z</time>
      </trkpt>
      <trkpt lat="45.75716" lon="4.85802">
        <ele>173.2</ele>
        <time>2020-09-12T09:25:09Z</time>
      </trkpt>
      <trkpt lat="45.75715" lon="4.85795">
        <ele>173.3</ele>
        <time>2020-09-12T09:25:10Z</time>
      </trkpt>
      <trkpt lat="45.75715" lon="4.85788">
        <ele>173.3</ele>
        <time>2020-09-12T09:25:11Z</time>
      </trkpt>
      <trkpt lat="45.75716" lon="4.85781">
        <ele>173.4</ele>
        <time>2020-09-12T09:25:12Z</time>
      </trkpt>
      <trkpt lat="45.75716" lon="4.85772">
        <ele>173.4</ele>
        <time>2020-09-12T09:25:13Z</time>
      </trkpt>
      <trkpt lat="45.75717" lon="4.85764">
        <ele>173.5</ele>
        <time>2020-09-12T09:25:14Z</time>
      </trkpt>
      <trkpt lat="45.75718" lon="4.85756">
        <ele>173.5</ele>
        <time>2020-09-12T09:25:15Z</time>
      </trkpt>
      <trkpt lat="45.75718" lon="4.85749">
        <ele>173.4</ele>
        <time>2020-09-12T09:25:16Z</time>
      </trkpt>
      <trkpt lat="45.75717" lon="4.8574">
        <ele>173.4</ele>
        <time>2020-09-12T09:25:17Z</time>
      </trkpt>
      <trkpt lat="45.75716" lon="4.85732">
        <ele>173.3</ele>
        <time>2020-09-12T09:25:18Z</time>
      </trkpt>
      <trkpt lat="45.75716" lon="4.85723">
        <ele>173.2</ele>
        <time>2020-09-12T09:25:19Z</time>
      </trkpt>
      <trkpt lat="45.75716" lon="4.85714">
        <ele>173.1</ele>
        <time>2020-09-12T09:25:20Z</time>
      </trkpt>
      <trkpt lat="45.75715" lon="4.85706">
        <ele>173</ele>
        <time>2020-09-12T09:25:21Z</time>
      </trkpt>
      <trkpt lat="45.75715" lon="4.85698">
        <ele>172.9</ele>
        <time>2020-09-12T09:25:22Z</time>
      </trkpt>
      <trkpt lat="45.75715" lon="4.85691">
        <ele>172.9</ele>
        <time>2020-09-12T09:25:23Z</time>
      </trkpt>
      <trkpt lat="45.75715" lon="4.85684">
        <ele>172.8</ele>
        <time>2020-09-12T09:25:24Z</time>
      </trkpt>
      <trkpt lat="45.75715" lon="4.85673">
        <ele>172.8</ele>
        <time>2020-09-12T09:25:26Z</time>
      </trkpt>
      <trkpt lat="45.75716" lon="4.85665">
        <ele>173</ele>
        <time>2020-09-12T09:25:28Z</time>
      </trkpt>
      <trkpt lat="45.75715" lon="4.85654">
        <ele>173.1</ele>
        <time>2020-09-12T09:25:30Z</time>
      </trkpt>
      <trkpt lat="45.75715" lon="4.85647">
        <ele>173.2</ele>
        <time>2020-09-12T09:25:31Z</time>
      </trkpt>
      <trkpt lat="45.75715" lon="4.8564">
        <ele>173.2</ele>
        <time>2020-09-12T09:25:32Z</time>
      </trkpt>
      <trkpt lat="45.75716" lon="4.85632">
        <ele>173.3</ele>
        <time>2020-09-12T09:25:33Z</time>
      </trkpt>
      <trkpt lat="45.75714" lon="4.85624">
        <ele>173.4</ele>
        <time>2020-09-12T09:25:34Z</time>
      </trkpt>
      <trkpt lat="45.75714" lon="4.85616">
        <ele>173.5</ele>
        <time>2020-09-12T09:25:35Z</time>
      </trkpt>
      <trkpt lat="45.75713" lon="4.85608">
        <ele>173.6</ele>
        <time>2020-09-12T09:25:36Z</time>
      </trkpt>
      <trkpt lat="45.75712" lon="4.85599">
        <ele>173.7</ele>
        <time>2020-09-12T09:25:37Z</time>
      </trkpt>
      <trkpt lat="45.75713" lon="4.85591">
        <ele>173.7</ele>
        <time>2020-09-12T09:25:38Z</time>
      </trkpt>
      <trkpt lat="45.75713" lon="4.85582">
        <ele>174.3</ele>
        <time>2020-09-12T09:25:39Z</time>
      </trkpt>
      <trkpt lat="45.75712" lon="4.85573">
        <ele>174.3</ele>
        <time>2020-09-12T09:25:40Z</time>
      </trkpt>
      <trkpt lat="45.75712" lon="4.85563">
        <ele>174.4</ele>
        <time>2020-09-12T09:25:41Z</time>
      </trkpt>
      <trkpt lat="45.75711" lon="4.85554">
        <ele>174.4</ele>
        <time>2020-09-12T09:25:42Z</time>
      </trkpt>
      <trkpt lat="45.7571" lon="4.85545">
        <ele>174.5</ele>
        <time>2020-09-12T09:25:43Z</time>
      </trkpt>
      <trkpt lat="45.75711" lon="4.85536">
        <ele>174.4</ele>
        <time>2020-09-12T09:25:44Z</time>
      </trkpt>
      <trkpt lat="45.75712" lon="4.85528">
        <ele>174.4</ele>
        <time>2020-09-12T09:25:45Z</time>
      </trkpt>
      <trkpt lat="45.75712" lon="4.85521">
        <ele>174.4</ele>
        <time>2020-09-12T09:25:46Z</time>
      </trkpt>
      <trkpt lat="45.75713" lon="4.85513">
        <ele>174.4</ele>
        <time>2020-09-12T09:25:47Z</time>
      </trkpt>
      <trkpt lat="45.75712" lon="4.85505">
        <ele>174.4</ele>
        <time>2020-09-12T09:25:48Z</time>
      </trkpt>
      <trkpt lat="45.75712" lon="4.85498">
        <ele>174.1</ele>
        <time>2020-09-12T09:25:49Z</time>
      </trkpt>
      <trkpt lat="45.75712" lon="4.85486">
        <ele>174.1</ele>
        <time>2020-09-12T09:25:51Z</time>
      </trkpt>
      <trkpt lat="45.75713" lon="4.85476">
        <ele>174</ele>
        <time>2020-09-12T09:25:54Z</time>
      </trkpt>
      <trkpt lat="45.75712" lon="4.85468">
        <ele>174</ele>
        <time>2020-09-12T09:25:56Z</time>
      </trkpt>
      <trkpt lat="45.75711" lon="4.85457">
        <ele>173.9</ele>
        <time>2020-09-12T09:25:58Z</time>
      </trkpt>
      <trkpt lat="45.75711" lon="4.85446">
        <ele>173.9</ele>
        <time>2020-09-12T09:26:00Z</time>
      </trkpt>
      <trkpt lat="45.7571" lon="4.85433">
        <ele>173.8</ele>
        <time>2020-09-12T09:26:02Z</time>
      </trkpt>
      <trkpt lat="45.7571" lon="4.85427">
        <ele>173.8</ele>
        <time>2020-09-12T09:26:03Z</time>
      </trkpt>
      <trkpt lat="45.75709" lon="4.8542">
        <ele>173.8</ele>
        <time>2020-09-12T09:26:04Z</time>
      </trkpt>
      <trkpt lat="45.7571" lon="4.85413">
        <ele>173</ele>
        <time>2020-09-12T09:26:05Z</time>
      </trkpt>
      <trkpt lat="45.75709" lon="4.85405">
        <ele>173</ele>
        <time>2020-09-12T09:26:06Z</time>
      </trkpt>
      <trkpt lat="45.75709" lon="4.85398">
        <ele>172.9</ele>
        <time>2020-09-12T09:26:07Z</time>
      </trkpt>
      <trkpt lat="45.75708" lon="4.85391">
        <ele>172.9</ele>
        <time>2020-09-12T09:26:08Z</time>
      </trkpt>
      <trkpt lat="45.75709" lon="4.85383">
        <ele>172.8</ele>
        <time>2020-09-12T09:26:09Z</time>
      </trkpt>
      <trkpt lat="45.75709" lon="4.85376">
        <ele>172.7</ele>
        <time>2020-09-12T09:26:10Z</time>
      </trkpt>
      <trkpt lat="45.75709" lon="4.85363">
        <ele>172.6</ele>
        <time>2020-09-12T09:26:12Z</time>
      </trkpt>
      <trkpt lat="45.7571" lon="4.85356">
        <ele>172.6</ele>
        <time>2020-09-12T09:26:13Z</time>
      </trkpt>
      <trkpt lat="45.7571" lon="4.85349">
        <ele>172.5</ele>
        <time>2020-09-12T09:26:14Z</time>
      </trkpt>
      <trkpt lat="45.7571" lon="4.85342">
        <ele>172.4</ele>
        <time>2020-09-12T09:26:15Z</time>
      </trkpt>
      <trkpt lat="45.7571" lon="4.85335">
        <ele>172.4</ele>
        <time>2020-09-12T09:26:16Z</time>
      </trkpt>
      <trkpt lat="45.75709" lon="4.85328">
        <ele>172.3</ele>
        <time>2020-09-12T09:26:17Z</time>
      </trkpt>
      <trkpt lat="45.7571" lon="4.85321">
        <ele>172.3</ele>
        <time>2020-09-12T09:26:18Z</time>
      </trkpt>
      <trkpt lat="45.75709" lon="4.85315">
        <ele>172.4</ele>
        <time>2020-09-12T09:26:19Z</time>
      </trkpt>
      <trkpt lat="45.7571" lon="4.85304">
        <ele>172.4</ele>
        <time>2020-09-12T09:26:21Z</time>
      </trkpt>
      <trkpt lat="45.75713" lon="4.85293">
        <ele>172.4</ele>
        <time>2020-09-12T09:26:23Z</time>
      </trkpt>
      <trkpt lat="45.75712" lon="4.85281">
        <ele>172.5</ele>
        <time>2020-09-12T09:26:25Z</time>
      </trkpt>
      <trkpt lat="45.75711" lon="4.85275">
        <ele>172.5</ele>
        <time>2020-09-12T09:26:26Z</time>
      </trkpt>
      <trkpt lat="45.75711" lon="4.85268">
        <ele>172.6</ele>
        <time>2020-09-12T09:26:27Z</time>
      </trkpt>
      <trkpt lat="45.75711" lon="4.85256">
        <ele>172.6</ele>
        <time>2020-09-12T09:26:29Z</time>
      </trkpt>
      <trkpt lat="45.75711" lon="4.85244">
        <ele>173.4</ele>
        <time>2020-09-12T09:26:31Z</time>
      </trkpt>
      <trkpt lat="45.75712" lon="4.85235">
        <ele>173.4</ele>
        <time>2020-09-12T09:26:33Z</time>
      </trkpt>
      <trkpt lat="45.75712" lon="4.8522">
        <ele>173.6</ele>
        <time>2020-09-12T09:26:35Z</time>
      </trkpt>
      <trkpt lat="45.7571" lon="4.85208">
        <ele>173.7</ele>
        <time>2020-09-12T09:26:37Z</time>
      </trkpt>
      <trkpt lat="45.75707" lon="4.85193">
        <ele>173.9</ele>
        <time>2020-09-12T09:26:39Z</time>
      </trkpt>
      <trkpt lat="45.75706" lon="4.85187">
        <ele>174</ele>
        <time>2020-09-12T09:26:40Z</time>
      </trkpt>
      <trkpt lat="45.75706" lon="4.85174">
        <ele>174</ele>
        <time>2020-09-12T09:26:42Z</time>
      </trkpt>
      <trkpt lat="45.75706" lon="4.85165">
        <ele>174.5</ele>
        <time>2020-09-12T09:26:43Z</time>
      </trkpt>
      <trkpt lat="45.75705" lon="4.85154">
        <ele>174.5</ele>
        <time>2020-09-12T09:26:45Z</time>
      </trkpt>
      <trkpt lat="45.75705" lon="4.85146">
        <ele>174.5</ele>
        <time>2020-09-12T09:26:47Z</time>
      </trkpt>
      <trkpt lat="45.75703" lon="4.85138">
        <ele>174.5</ele>
        <time>2020-09-12T09:26:50Z</time>
      </trkpt>
      <trkpt lat="45.75701" lon="4.85131">
        <ele>174.5</ele>
        <time>2020-09-12T09:26:54Z</time>
      </trkpt>
      <trkpt lat="45.75694" lon="4.85128">
        <ele>174.6</ele>
        <time>2020-09-12T09:26:57Z</time>
      </trkpt>
      <trkpt lat="45.75687" lon="4.85129">
        <ele>174.6</ele>
        <time>2020-09-12T09:26:59Z</time>
      </trkpt>
      <trkpt lat="45.75679" lon="4.8513">
        <ele>174.7</ele>
        <time>2020-09-12T09:27:01Z</time>
      </trkpt>
      <trkpt lat="45.75674" lon="4.85131">
        <ele>174.7</ele>
        <time>2020-09-12T09:27:02Z</time>
      </trkpt>
      <trkpt lat="45.75666" lon="4.85133">
        <ele>174.2</ele>
        <time>2020-09-12T09:27:04Z</time>
      </trkpt>
      <trkpt lat="45.75656" lon="4.85137">
        <ele>174.2</ele>
        <time>2020-09-12T09:27:06Z</time>
      </trkpt>
      <trkpt lat="45.75651" lon="4.85138">
        <ele>174.2</ele>
        <time>2020-09-12T09:27:07Z</time>
      </trkpt>
      <trkpt lat="45.75645" lon="4.85139">
        <ele>174.1</ele>
        <time>2020-09-12T09:27:08Z</time>
      </trkpt>
      <trkpt lat="45.75639" lon="4.8514">
        <ele>174</ele>
        <time>2020-09-12T09:27:09Z</time>
      </trkpt>
      <trkpt lat="45.75633" lon="4.85141">
        <ele>173.9</ele>
        <time>2020-09-12T09:27:10Z</time>
      </trkpt>
      <trkpt lat="45.75627" lon="4.85142">
        <ele>173.8</ele>
        <time>2020-09-12T09:27:11Z</time>
      </trkpt>
      <trkpt lat="45.75621" lon="4.85143">
        <ele>173.7</ele>
        <time>2020-09-12T09:27:12Z</time>
      </trkpt>
      <trkpt lat="45.75616" lon="4.85143">
        <ele>173.7</ele>
        <time>2020-09-12T09:27:13Z</time>
      </trkpt>
      <trkpt lat="45.75612" lon="4.85143">
        <ele>173.6</ele>
        <time>2020-09-12T09:27:14Z</time>
      </trkpt>
      <trkpt lat="45.75607" lon="4.85142">
        <ele>173.5</ele>
        <time>2020-09-12T09:27:15Z</time>
      </trkpt>
      <trkpt lat="45.75601" lon="4.85142">
        <ele>173.5</ele>
        <time>2020-09-12T09:27:16Z</time>
      </trkpt>
      <trkpt lat="45.75595" lon="4.85144">
        <ele>173.4</ele>
        <time>2020-09-12T09:27:17Z</time>
      </trkpt>
      <trkpt lat="45.7559" lon="4.85145">
        <ele>173.4</ele>
        <time>2020-09-12T09:27:18Z</time>
      </trkpt>
      <trkpt lat="45.75584" lon="4.85145">
        <ele>173.3</ele>
        <time>2020-09-12T09:27:19Z</time>
      </trkpt>
      <trkpt lat="45.75578" lon="4.85145">
        <ele>172.5</ele>
        <time>2020-09-12T09:27:20Z</time>
      </trkpt>
      <trkpt lat="45.75571" lon="4.85147">
        <ele>172.4</ele>
        <time>2020-09-12T09:27:21Z</time>
      </trkpt>
      <trkpt lat="45.75566" lon="4.85147">
        <ele>172.4</ele>
        <time>2020-09-12T09:27:22Z</time>
      </trkpt>
      <trkpt lat="45.75559" lon="4.85149">
        <ele>172.3</ele>
        <time>2020-09-12T09:27:23Z</time>
      </trkpt>
      <trkpt lat="45.75554" lon="4.8515">
        <ele>172.2</ele>
        <time>2020-09-12T09:27:24Z</time>
      </trkpt>
      <trkpt lat="45.75547" lon="4.85151">
        <ele>172.1</ele>
        <time>2020-09-12T09:27:25Z</time>
      </trkpt>
      <trkpt lat="45.75541" lon="4.85152">
        <ele>172</ele>
        <time>2020-09-12T09:27:26Z</time>
      </trkpt>
      <trkpt lat="45.75536" lon="4.85153">
        <ele>171.9</ele>
        <time>2020-09-12T09:27:27Z</time>
      </trkpt>
      <trkpt lat="45.7553" lon="4.85155">
        <ele>171.7</ele>
        <time>2020-09-12T09:27:28Z</time>
      </trkpt>
      <trkpt lat="45.75523" lon="4.85156">
        <ele>171.6</ele>
        <time>2020-09-12T09:27:29Z</time>
      </trkpt>
      <trkpt lat="45.75518" lon="4.85157">
        <ele>171.4</ele>
        <time>2020-09-12T09:27:30Z</time>
      </trkpt>
      <trkpt lat="45.75512" lon="4.85158">
        <ele>171.1</ele>
        <time>2020-09-12T09:27:31Z</time>
      </trkpt>
      <trkpt lat="45.75507" lon="4.85159">
        <ele>170.9</ele>
        <time>2020-09-12T09:27:32Z</time>
      </trkpt>
      <trkpt lat="45.75498" lon="4.85162">
        <ele>170.5</ele>
        <time>2020-09-12T09:27:34Z</time>
      </trkpt>
      <trkpt lat="45.75492" lon="4.85163">
        <ele>170.9</ele>
        <time>2020-09-12T09:27:35Z</time>
      </trkpt>
      <trkpt lat="45.75487" lon="4.85164">
        <ele>171.2</ele>
        <time>2020-09-12T09:27:36Z</time>
      </trkpt>
      <trkpt lat="45.75479" lon="4.85167">
        <ele>170.7</ele>
        <time>2020-09-12T09:27:38Z</time>
      </trkpt>
      <trkpt lat="45.75473" lon="4.85169">
        <ele>170.8</ele>
        <time>2020-09-12T09:27:40Z</time>
      </trkpt>
      <trkpt lat="45.75468" lon="4.8517">
        <ele>170.9</ele>
        <time>2020-09-12T09:27:42Z</time>
      </trkpt>
      <trkpt lat="45.75462" lon="4.85167">
        <ele>171.1</ele>
        <time>2020-09-12T09:27:45Z</time>
      </trkpt>
      <trkpt lat="45.75461" lon="4.85159">
        <ele>172.3</ele>
        <time>2020-09-12T09:27:49Z</time>
      </trkpt>
      <trkpt lat="45.75463" lon="4.85152">
        <ele>172.3</ele>
        <time>2020-09-12T09:27:54Z</time>
      </trkpt>
      <trkpt lat="45.75465" lon="4.85143">
        <ele>172.4</ele>
        <time>2020-09-12T09:27:56Z</time>
      </trkpt>
      <trkpt lat="45.75469" lon="4.85132">
        <ele>172.5</ele>
        <time>2020-09-12T09:27:58Z</time>
      </trkpt>
      <trkpt lat="45.75473" lon="4.85121">
        <ele>172.7</ele>
        <time>2020-09-12T09:28:00Z</time>
      </trkpt>
      <trkpt lat="45.75476" lon="4.85111">
        <ele>172.9</ele>
        <time>2020-09-12T09:28:02Z</time>
      </trkpt>
      <trkpt lat="45.7548" lon="4.851">
        <ele>173.1</ele>
        <time>2020-09-12T09:28:04Z</time>
      </trkpt>
      <trkpt lat="45.75481" lon="4.85091">
        <ele>173.3</ele>
        <time>2020-09-12T09:28:06Z</time>
      </trkpt>
      <trkpt lat="45.75483" lon="4.85082">
        <ele>174.6</ele>
        <time>2020-09-12T09:28:08Z</time>
      </trkpt>
      <trkpt lat="45.75483" lon="4.85073">
        <ele>174.6</ele>
        <time>2020-09-12T09:28:11Z</time>
      </trkpt>
      <trkpt lat="45.75482" lon="4.85067">
        <ele>174.8</ele>
        <time>2020-09-12T09:28:13Z</time>
      </trkpt>
      <trkpt lat="45.75479" lon="4.85061">
        <ele>174.9</ele>
        <time>2020-09-12T09:28:31Z</time>
      </trkpt>
      <trkpt lat="45.7548" lon="4.85061">
        <ele>174.9</ele>
        <time>2020-09-12T09:28:51Z</time>
      </trkpt>
      <trkpt lat="45.7548" lon="4.85061">
        <ele>174.9</ele>
        <time>2020-09-12T09:28:53Z</time>
      </trkpt>
      <trkpt lat="45.75478" lon="4.85064">
        <ele>174.8</ele>
        <time>2020-09-12T09:29:15Z</time>
      </trkpt>
      <trkpt lat="45.75633" lon="4.84614">
        <ele>177.6</ele>
        <time>2020-09-12T09:31:11Z</time>
      </trkpt>
      <trkpt lat="45.75636" lon="4.84606">
        <ele>177.5</ele>
        <time>2020-09-12T09:31:15Z</time>
      </trkpt>
      <trkpt lat="45.75641" lon="4.84597">
        <ele>177.4</ele>
        <time>2020-09-12T09:31:17Z</time>
      </trkpt>
      <trkpt lat="45.75645" lon="4.84586">
        <ele>177.4</ele>
        <time>2020-09-12T09:31:19Z</time>
      </trkpt>
      <trkpt lat="45.75647" lon="4.8458">
        <ele>176.5</ele>
        <time>2020-09-12T09:31:20Z</time>
      </trkpt>
      <trkpt lat="45.75648" lon="4.84569">
        <ele>176.3</ele>
        <time>2020-09-12T09:31:21Z</time>
      </trkpt>
      <trkpt lat="45.75651" lon="4.84563">
        <ele>176.2</ele>
        <time>2020-09-12T09:31:22Z</time>
      </trkpt>
      <trkpt lat="45.75653" lon="4.84556">
        <ele>176.1</ele>
        <time>2020-09-12T09:31:23Z</time>
      </trkpt>
      <trkpt lat="45.75657" lon="4.84551">
        <ele>175.9</ele>
        <time>2020-09-12T09:31:24Z</time>
      </trkpt>
      <trkpt lat="45.75658" lon="4.84543">
        <ele>175.7</ele>
        <time>2020-09-12T09:31:25Z</time>
      </trkpt>
      <trkpt lat="45.7566" lon="4.84537">
        <ele>175.5</ele>
        <time>2020-09-12T09:31:26Z</time>
      </trkpt>
      <trkpt lat="45.75663" lon="4.8453">
        <ele>175.2</ele>
        <time>2020-09-12T09:31:27Z</time>
      </trkpt>
      <trkpt lat="45.75665" lon="4.84523">
        <ele>174.9</ele>
        <time>2020-09-12T09:31:28Z</time>
      </trkpt>
      <trkpt lat="45.75667" lon="4.84516">
        <ele>173.7</ele>
        <time>2020-09-12T09:31:29Z</time>
      </trkpt>
      <trkpt lat="45.75669" lon="4.84509">
        <ele>173.5</ele>
        <time>2020-09-12T09:31:30Z</time>
      </trkpt>
      <trkpt lat="45.75671" lon="4.84504">
        <ele>173.3</ele>
        <time>2020-09-12T09:31:31Z</time>
      </trkpt>
      <trkpt lat="45.75674" lon="4.84497">
        <ele>173.1</ele>
        <time>2020-09-12T09:31:32Z</time>
      </trkpt>
      <trkpt lat="45.75676" lon="4.84491">
        <ele>173.2</ele>
        <time>2020-09-12T09:31:33Z</time>
      </trkpt>
      <trkpt lat="45.75678" lon="4.84483">
        <ele>173.3</ele>
        <time>2020-09-12T09:31:34Z</time>
      </trkpt>
      <trkpt lat="45.75681" lon="4.84477">
        <ele>173.4</ele>
        <time>2020-09-12T09:31:35Z</time>
      </trkpt>
      <trkpt lat="45.75684" lon="4.8447">
        <ele>173.4</ele>
        <time>2020-09-12T09:31:36Z</time>
      </trkpt>
      <trkpt lat="45.75686" lon="4.84463">
        <ele>173.5</ele>
        <time>2020-09-12T09:31:37Z</time>
      </trkpt>
      <trkpt lat="45.75688" lon="4.84456">
        <ele>173.5</ele>
        <time>2020-09-12T09:31:38Z</time>
      </trkpt>
      <trkpt lat="45.75691" lon="4.8445">
        <ele>173.6</ele>
        <time>2020-09-12T09:31:39Z</time>
      </trkpt>
      <trkpt lat="45.75693" lon="4.84444">
        <ele>173.6</ele>
        <time>2020-09-12T09:31:40Z</time>
      </trkpt>
      <trkpt lat="45.75695" lon="4.84438">
        <ele>173.6</ele>
        <time>2020-09-12T09:31:41Z</time>
      </trkpt>
      <trkpt lat="45.75697" lon="4.84432">
        <ele>173.7</ele>
        <time>2020-09-12T09:31:42Z</time>
      </trkpt>
      <trkpt lat="45.75702" lon="4.84422">
        <ele>173.7</ele>
        <time>2020-09-12T09:31:44Z</time>
      </trkpt>
      <trkpt lat="45.75704" lon="4.84416">
        <ele>174.5</ele>
        <time>2020-09-12T09:31:45Z</time>
      </trkpt>
      <trkpt lat="45.7571" lon="4.84407">
        <ele>174.5</ele>
        <time>2020-09-12T09:31:47Z</time>
      </trkpt>
      <trkpt lat="45.75713" lon="4.844">
        <ele>174.6</ele>
        <time>2020-09-12T09:31:49Z</time>
      </trkpt>
      <trkpt lat="45.75716" lon="4.84393">
        <ele>174.6</ele>
        <time>2020-09-12T09:31:52Z</time>
      </trkpt>
      <trkpt lat="45.75721" lon="4.84386">
        <ele>174.7</ele>
        <time>2020-09-12T09:31:55Z</time>
      </trkpt>
      <trkpt lat="45.75724" lon="4.8438">
        <ele>174.7</ele>
        <time>2020-09-12T09:31:57Z</time>
      </trkpt>
      <trkpt lat="45.75729" lon="4.84372">
        <ele>174.9</ele>
        <time>2020-09-12T09:31:59Z</time>
      </trkpt>
      <trkpt lat="45.75733" lon="4.84362">
        <ele>175</ele>
        <time>2020-09-12T09:32:01Z</time>
      </trkpt>
      <trkpt lat="45.75737" lon="4.84351">
        <ele>175.2</ele>
        <time>2020-09-12T09:32:03Z</time>
      </trkpt>
      <trkpt lat="45.75737" lon="4.84342">
        <ele>175.4</ele>
        <time>2020-09-12T09:32:04Z</time>
      </trkpt>
      <trkpt lat="45.7574" lon="4.84337">
        <ele>175.6</ele>
        <time>2020-09-12T09:32:05Z</time>
      </trkpt>
      <trkpt lat="45.75743" lon="4.84332">
        <ele>176</ele>
        <time>2020-09-12T09:32:06Z</time>
      </trkpt>
      <trkpt lat="45.75746" lon="4.84326">
        <ele>176</ele>
        <time>2020-09-12T09:32:07Z</time>
      </trkpt>
      <trkpt lat="45.7575" lon="4.8432">
        <ele>176</ele>
        <time>2020-09-12T09:32:08Z</time>
      </trkpt>
      <trkpt lat="45.75753" lon="4.84314">
        <ele>176.6</ele>
        <time>2020-09-12T09:32:09Z</time>
      </trkpt>
      <trkpt lat="45.75756" lon="4.84308">
        <ele>176.7</ele>
        <time>2020-09-12T09:32:10Z</time>
      </trkpt>
      <trkpt lat="45.75756" lon="4.84301">
        <ele>176.7</ele>
        <time>2020-09-12T09:32:11Z</time>
      </trkpt>
      <trkpt lat="45.75757" lon="4.84294">
        <ele>176.8</ele>
        <time>2020-09-12T09:32:12Z</time>
      </trkpt>
      <trkpt lat="45.75762" lon="4.84285">
        <ele>176.9</ele>
        <time>2020-09-12T09:32:14Z</time>
      </trkpt>
      <trkpt lat="45.75766" lon="4.84282">
        <ele>176.9</ele>
        <time>2020-09-12T09:32:18Z</time>
      </trkpt>
      <trkpt lat="45.75771" lon="4.84282">
        <ele>176.9</ele>
        <time>2020-09-12T09:32:22Z</time>
      </trkpt>
      <trkpt lat="45.75776" lon="4.8428">
        <ele>176.9</ele>
        <time>2020-09-12T09:32:24Z</time>
      </trkpt>
      <trkpt lat="45.75783" lon="4.84275">
        <ele>177</ele>
        <time>2020-09-12T09:32:27Z</time>
      </trkpt>
      <trkpt lat="45.7579" lon="4.84271">
        <ele>177</ele>
        <time>2020-09-12T09:32:29Z</time>
      </trkpt>
      <trkpt lat="45.75795" lon="4.84267">
        <ele>177</ele>
        <time>2020-09-12T09:32:31Z</time>
      </trkpt>
      <trkpt lat="45.75803" lon="4.84263">
        <ele>177</ele>
        <time>2020-09-12T09:32:33Z</time>
      </trkpt>
      <trkpt lat="45.75809" lon="4.84261">
        <ele>177</ele>
        <time>2020-09-12T09:32:34Z</time>
      </trkpt>
      <trkpt lat="45.75822" lon="4.84259">
        <ele>177</ele>
        <time>2020-09-12T09:32:35Z</time>
      </trkpt>
      <trkpt lat="45.75827" lon="4.84258">
        <ele>177</ele>
        <time>2020-09-12T09:32:36Z</time>
      </trkpt>
      <trkpt lat="45.75832" lon="4.84256">
        <ele>177</ele>
        <time>2020-09-12T09:32:37Z</time>
      </trkpt>
      <trkpt lat="45.75838" lon="4.84257">
        <ele>177.1</ele>
        <time>2020-09-12T09:32:38Z</time>
      </trkpt>
      <trkpt lat="45.75842" lon="4.84256">
        <ele>177.1</ele>
        <time>2020-09-12T09:32:39Z</time>
      </trkpt>
      <trkpt lat="45.75847" lon="4.84253">
        <ele>177.2</ele>
        <time>2020-09-12T09:32:40Z</time>
      </trkpt>
      <trkpt lat="45.75851" lon="4.8425">
        <ele>177.2</ele>
        <time>2020-09-12T09:32:41Z</time>
      </trkpt>
      <trkpt lat="45.75856" lon="4.84251">
        <ele>177.2</ele>
        <time>2020-09-12T09:32:42Z</time>
      </trkpt>
      <trkpt lat="45.75862" lon="4.84251">
        <ele>177.2</ele>
        <time>2020-09-12T09:32:43Z</time>
      </trkpt>
      <trkpt lat="45.75867" lon="4.84251">
        <ele>177.2</ele>
        <time>2020-09-12T09:32:44Z</time>
      </trkpt>
      <trkpt lat="45.75876" lon="4.8425">
        <ele>177.1</ele>
        <time>2020-09-12T09:32:46Z</time>
      </trkpt>
      <trkpt lat="45.75882" lon="4.8425">
        <ele>177.1</ele>
        <time>2020-09-12T09:32:48Z</time>
      </trkpt>
      <trkpt lat="45.75888" lon="4.84249">
        <ele>177</ele>
        <time>2020-09-12T09:32:55Z</time>
      </trkpt>
      <trkpt lat="45.75893" lon="4.84249">
        <ele>176.9</ele>
        <time>2020-09-12T09:33:00Z</time>
      </trkpt>
      <trkpt lat="45.75897" lon="4.84244">
        <ele>176.8</ele>
        <time>2020-09-12T09:33:22Z</time>
      </trkpt>
      <trkpt lat="45.75906" lon="4.84242">
        <ele>176.6</ele>
        <time>2020-09-12T09:33:24Z</time>
      </trkpt>
      <trkpt lat="45.75914" lon="4.84241">
        <ele>176.5</ele>
        <time>2020-09-12T09:33:26Z</time>
      </trkpt>
      <trkpt lat="45.75922" lon="4.84239">
        <ele>176.7</ele>
        <time>2020-09-12T09:33:27Z</time>
      </trkpt>
      <trkpt lat="45.75928" lon="4.84237">
        <ele>176.9</ele>
        <time>2020-09-12T09:33:28Z</time>
      </trkpt>
      <trkpt lat="45.75934" lon="4.84236">
        <ele>177</ele>
        <time>2020-09-12T09:33:29Z</time>
      </trkpt>
      <trkpt lat="45.75942" lon="4.84232">
        <ele>177.2</ele>
        <time>2020-09-12T09:33:31Z</time>
      </trkpt>
      <trkpt lat="45.75946" lon="4.8423">
        <ele>177.3</ele>
        <time>2020-09-12T09:33:32Z</time>
      </trkpt>
      <trkpt lat="45.75951" lon="4.84229">
        <ele>177.4</ele>
        <time>2020-09-12T09:33:33Z</time>
      </trkpt>
      <trkpt lat="45.75958" lon="4.84226">
        <ele>177.5</ele>
        <time>2020-09-12T09:33:34Z</time>
      </trkpt>
      <trkpt lat="45.75966" lon="4.84223">
        <ele>177.6</ele>
        <time>2020-09-12T09:33:36Z</time>
      </trkpt>
      <trkpt lat="45.75971" lon="4.84223">
        <ele>177.6</ele>
        <time>2020-09-12T09:33:37Z</time>
      </trkpt>
      <trkpt lat="45.75977" lon="4.84226">
        <ele>177.6</ele>
        <time>2020-09-12T09:33:38Z</time>
      </trkpt>
      <trkpt lat="45.75984" lon="4.8423">
        <ele>177.5</ele>
        <time>2020-09-12T09:33:40Z</time>
      </trkpt>
      <trkpt lat="45.75989" lon="4.84232">
        <ele>177.5</ele>
        <time>2020-09-12T09:33:42Z</time>
      </trkpt>
      <trkpt lat="45.75994" lon="4.84233">
        <ele>177.5</ele>
        <time>2020-09-12T09:33:51Z</time>
      </trkpt>
      <trkpt lat="45.75997" lon="4.84226">
        <ele>177.6</ele>
        <time>2020-09-12T09:33:55Z</time>
      </trkpt>
      <trkpt lat="45.76002" lon="4.84219">
        <ele>176.7</ele>
        <time>2020-09-12T09:33:57Z</time>
      </trkpt>
      <trkpt lat="45.76005" lon="4.84208">
        <ele>176.9</ele>
        <time>2020-09-12T09:33:59Z</time>
      </trkpt>
      <trkpt lat="45.76001" lon="4.84197">
        <ele>177.3</ele>
        <time>2020-09-12T09:34:00Z</time>
      </trkpt>
      <trkpt lat="45.76001" lon="4.8419">
        <ele>177.7</ele>
        <time>2020-09-12T09:34:01Z</time>
      </trkpt>
      <trkpt lat="45.76" lon="4.84183">
        <ele>178.1</ele>
        <time>2020-09-12T09:34:02Z</time>
      </trkpt>
      <trkpt lat="45.76001" lon="4.84176">
        <ele>178.7</ele>
        <time>2020-09-12T09:34:03Z</time>
      </trkpt>
      <trkpt lat="45.76001" lon="4.84169">
        <ele>179.6</ele>
        <time>2020-09-12T09:34:04Z</time>
      </trkpt>
      <trkpt lat="45.76001" lon="4.84162">
        <ele>178.7</ele>
        <time>2020-09-12T09:34:05Z</time>
      </trkpt>
      <trkpt lat="45.76003" lon="4.84149">
        <ele>176.4</ele>
        <time>2020-09-12T09:34:07Z</time>
      </trkpt>
      <trkpt lat="45.76003" lon="4.84137">
        <ele>175</ele>
        <time>2020-09-12T09:34:09Z</time>
      </trkpt>
      <trkpt lat="45.76002" lon="4.84127">
        <ele>174.1</ele>
        <time>2020-09-12T09:34:11Z</time>
      </trkpt>
      <trkpt lat="45.76003" lon="4.84118">
        <ele>173.3</ele>
        <time>2020-09-12T09:34:13Z</time>
      </trkpt>
      <trkpt lat="45.76004" lon="4.84112">
        <ele>172.8</ele>
        <time>2020-09-12T09:34:15Z</time>
      </trkpt>
      <trkpt lat="45.76001" lon="4.84111">
        <ele>172.7</ele>
        <time>2020-09-12T09:34:40Z</time>
      </trkpt>
      <trkpt lat="45.76166" lon="4.84125">
        <ele>172.6</ele>
        <time>2020-09-12T09:36:15Z</time>
      </trkpt>
      <trkpt lat="45.76181" lon="4.84125">
        <ele>172.7</ele>
        <time>2020-09-12T09:36:17Z</time>
      </trkpt>
      <trkpt lat="45.76229" lon="4.84122">
        <ele>172.1</ele>
        <time>2020-09-12T09:36:22Z</time>
      </trkpt>
      <trkpt lat="45.76242" lon="4.84122">
        <ele>172</ele>
        <time>2020-09-12T09:36:23Z</time>
      </trkpt>
      <trkpt lat="45.76464" lon="4.84145">
        <ele>171.7</ele>
        <time>2020-09-12T09:36:32Z</time>
      </trkpt>
      <trkpt lat="45.76468" lon="4.84143">
        <ele>171.7</ele>
        <time>2020-09-12T09:36:34Z</time>
      </trkpt>
      <trkpt lat="45.76476" lon="4.84142">
        <ele>171.8</ele>
        <time>2020-09-12T09:36:36Z</time>
      </trkpt>
      <trkpt lat="45.76482" lon="4.84142">
        <ele>171.9</ele>
        <time>2020-09-12T09:36:37Z</time>
      </trkpt>
      <trkpt lat="45.76487" lon="4.84142">
        <ele>171.9</ele>
        <time>2020-09-12T09:36:38Z</time>
      </trkpt>
      <trkpt lat="45.76492" lon="4.84142">
        <ele>172</ele>
        <time>2020-09-12T09:36:39Z</time>
      </trkpt>
      <trkpt lat="45.76497" lon="4.84141">
        <ele>172</ele>
        <time>2020-09-12T09:36:40Z</time>
      </trkpt>
      <trkpt lat="45.76507" lon="4.84142">
        <ele>172.5</ele>
        <time>2020-09-12T09:36:42Z</time>
      </trkpt>
      <trkpt lat="45.76512" lon="4.84143">
        <ele>172.4</ele>
        <time>2020-09-12T09:36:43Z</time>
      </trkpt>
      <trkpt lat="45.76521" lon="4.84144">
        <ele>172.4</ele>
        <time>2020-09-12T09:36:45Z</time>
      </trkpt>
      <trkpt lat="45.76527" lon="4.84144">
        <ele>172.4</ele>
        <time>2020-09-12T09:36:46Z</time>
      </trkpt>
      <trkpt lat="45.76533" lon="4.84145">
        <ele>172.4</ele>
        <time>2020-09-12T09:36:47Z</time>
      </trkpt>
      <trkpt lat="45.76538" lon="4.84145">
        <ele>172.4</ele>
        <time>2020-09-12T09:36:48Z</time>
      </trkpt>
      <trkpt lat="45.76543" lon="4.84145">
        <ele>172.5</ele>
        <time>2020-09-12T09:36:49Z</time>
      </trkpt>
      <trkpt lat="45.76549" lon="4.84145">
        <ele>172.6</ele>
        <time>2020-09-12T09:36:50Z</time>
      </trkpt>
      <trkpt lat="45.76561" lon="4.84145">
        <ele>172.9</ele>
        <time>2020-09-12T09:36:52Z</time>
      </trkpt>
      <trkpt lat="45.76567" lon="4.84146">
        <ele>173.1</ele>
        <time>2020-09-12T09:36:53Z</time>
      </trkpt>
      <trkpt lat="45.76572" lon="4.84145">
        <ele>173.2</ele>
        <time>2020-09-12T09:36:54Z</time>
      </trkpt>
      <trkpt lat="45.76579" lon="4.84145">
        <ele>173.3</ele>
        <time>2020-09-12T09:36:55Z</time>
      </trkpt>
      <trkpt lat="45.76585" lon="4.84145">
        <ele>173.8</ele>
        <time>2020-09-12T09:36:56Z</time>
      </trkpt>
      <trkpt lat="45.76591" lon="4.84144">
        <ele>173.7</ele>
        <time>2020-09-12T09:36:57Z</time>
      </trkpt>
      <trkpt lat="45.76596" lon="4.84144">
        <ele>173.6</ele>
        <time>2020-09-12T09:36:58Z</time>
      </trkpt>
      <trkpt lat="45.76602" lon="4.84143">
        <ele>173.5</ele>
        <time>2020-09-12T09:36:59Z</time>
      </trkpt>
      <trkpt lat="45.76608" lon="4.84142">
        <ele>173.3</ele>
        <time>2020-09-12T09:37:00Z</time>
      </trkpt>
      <trkpt lat="45.76614" lon="4.8414">
        <ele>173.3</ele>
        <time>2020-09-12T09:37:01Z</time>
      </trkpt>
      <trkpt lat="45.76619" lon="4.8414">
        <ele>173.2</ele>
        <time>2020-09-12T09:37:02Z</time>
      </trkpt>
      <trkpt lat="45.76624" lon="4.84139">
        <ele>173.2</ele>
        <time>2020-09-12T09:37:03Z</time>
      </trkpt>
      <trkpt lat="45.7663" lon="4.84138">
        <ele>173.2</ele>
        <time>2020-09-12T09:37:04Z</time>
      </trkpt>
      <trkpt lat="45.76637" lon="4.84137">
        <ele>173.3</ele>
        <time>2020-09-12T09:37:05Z</time>
      </trkpt>
      <trkpt lat="45.76643" lon="4.84136">
        <ele>173.3</ele>
        <time>2020-09-12T09:37:06Z</time>
      </trkpt>
      <trkpt lat="45.76648" lon="4.84135">
        <ele>173.3</ele>
        <time>2020-09-12T09:37:07Z</time>
      </trkpt>
      <trkpt lat="45.76653" lon="4.84134">
        <ele>173.3</ele>
        <time>2020-09-12T09:37:08Z</time>
      </trkpt>
      <trkpt lat="45.76659" lon="4.84133">
        <ele>173.3</ele>
        <time>2020-09-12T09:37:09Z</time>
      </trkpt>
      <trkpt lat="45.76664" lon="4.84131">
        <ele>173.2</ele>
        <time>2020-09-12T09:37:10Z</time>
      </trkpt>
      <trkpt lat="45.7667" lon="4.8413">
        <ele>174</ele>
        <time>2020-09-12T09:37:11Z</time>
      </trkpt>
      <trkpt lat="45.76676" lon="4.84128">
        <ele>174</ele>
        <time>2020-09-12T09:37:12Z</time>
      </trkpt>
      <trkpt lat="45.76681" lon="4.84128">
        <ele>173.9</ele>
        <time>2020-09-12T09:37:13Z</time>
      </trkpt>
      <trkpt lat="45.76687" lon="4.84127">
        <ele>173.9</ele>
        <time>2020-09-12T09:37:14Z</time>
      </trkpt>
      <trkpt lat="45.76693" lon="4.84124">
        <ele>173.8</ele>
        <time>2020-09-12T09:37:15Z</time>
      </trkpt>
      <trkpt lat="45.76699" lon="4.84123">
        <ele>173.7</ele>
        <time>2020-09-12T09:37:16Z</time>
      </trkpt>
      <trkpt lat="45.76706" lon="4.84124">
        <ele>173.9</ele>
        <time>2020-09-12T09:37:18Z</time>
      </trkpt>
      <trkpt lat="45.76714" lon="4.84125">
        <ele>174</ele>
        <time>2020-09-12T09:37:20Z</time>
      </trkpt>
      <trkpt lat="45.76722" lon="4.84124">
        <ele>174</ele>
        <time>2020-09-12T09:37:22Z</time>
      </trkpt>
      <trkpt lat="45.76727" lon="4.84123">
        <ele>174.1</ele>
        <time>2020-09-12T09:37:23Z</time>
      </trkpt>
      <trkpt lat="45.76732" lon="4.84123">
        <ele>174.1</ele>
        <time>2020-09-12T09:37:24Z</time>
      </trkpt>
      <trkpt lat="45.76737" lon="4.84122">
        <ele>174</ele>
        <time>2020-09-12T09:37:25Z</time>
      </trkpt>
      <trkpt lat="45.76742" lon="4.84122">
        <ele>173.9</ele>
        <time>2020-09-12T09:37:26Z</time>
      </trkpt>
      <trkpt lat="45.76747" lon="4.84121">
        <ele>173.9</ele>
        <time>2020-09-12T09:37:27Z</time>
      </trkpt>
      <trkpt lat="45.76753" lon="4.84121">
        <ele>172.5</ele>
        <time>2020-09-12T09:37:28Z</time>
      </trkpt>
      <trkpt lat="45.76757" lon="4.8412">
        <ele>172.3</ele>
        <time>2020-09-12T09:37:29Z</time>
      </trkpt>
      <trkpt lat="45.76763" lon="4.84119">
        <ele>172.2</ele>
        <time>2020-09-12T09:37:30Z</time>
      </trkpt>
      <trkpt lat="45.76768" lon="4.84119">
        <ele>172</ele>
        <time>2020-09-12T09:37:31Z</time>
      </trkpt>
      <trkpt lat="45.76773" lon="4.84117">
        <ele>171.8</ele>
        <time>2020-09-12T09:37:32Z</time>
      </trkpt>
      <trkpt lat="45.76779" lon="4.84116">
        <ele>171.6</ele>
        <time>2020-09-12T09:37:33Z</time>
      </trkpt>
      <trkpt lat="45.76784" lon="4.84115">
        <ele>171.4</ele>
        <time>2020-09-12T09:37:34Z</time>
      </trkpt>
      <trkpt lat="45.76789" lon="4.84113">
        <ele>171.2</ele>
        <time>2020-09-12T09:37:35Z</time>
      </trkpt>
      <trkpt lat="45.76794" lon="4.84112">
        <ele>171</ele>
        <time>2020-09-12T09:37:36Z</time>
      </trkpt>
      <trkpt lat="45.76798" lon="4.84112">
        <ele>170.8</ele>
        <time>2020-09-12T09:37:37Z</time>
      </trkpt>
      <trkpt lat="45.76807" lon="4.84111">
        <ele>170.5</ele>
        <time>2020-09-12T09:37:39Z</time>
      </trkpt>
      <trkpt lat="45.76815" lon="4.8411">
        <ele>170</ele>
        <time>2020-09-12T09:37:41Z</time>
      </trkpt>
      <trkpt lat="45.76823" lon="4.84109">
        <ele>169.7</ele>
        <time>2020-09-12T09:37:43Z</time>
      </trkpt>
      <trkpt lat="45.76831" lon="4.84108">
        <ele>169.4</ele>
        <time>2020-09-12T09:37:45Z</time>
      </trkpt>
      <trkpt lat="45.7684" lon="4.84106">
        <ele>168.9</ele>
        <time>2020-09-12T09:37:47Z</time>
      </trkpt>
      <trkpt lat="45.76847" lon="4.84105">
        <ele>169.1</ele>
        <time>2020-09-12T09:37:49Z</time>
      </trkpt>
      <trkpt lat="45.76854" lon="4.84104">
        <ele>169.4</ele>
        <time>2020-09-12T09:37:51Z</time>
      </trkpt>
      <trkpt lat="45.76862" lon="4.84103">
        <ele>169.7</ele>
        <time>2020-09-12T09:37:53Z</time>
      </trkpt>
      <trkpt lat="45.76869" lon="4.84102">
        <ele>169.9</ele>
        <time>2020-09-12T09:37:55Z</time>
      </trkpt>
      <trkpt lat="45.76877" lon="4.84101">
        <ele>170.2</ele>
        <time>2020-09-12T09:37:57Z</time>
      </trkpt>
      <trkpt lat="45.76882" lon="4.841">
        <ele>170.4</ele>
        <time>2020-09-12T09:37:58Z</time>
      </trkpt>
      <trkpt lat="45.76887" lon="4.84098">
        <ele>170.5</ele>
        <time>2020-09-12T09:37:59Z</time>
      </trkpt>
      <trkpt lat="45.76893" lon="4.84097">
        <ele>170.6</ele>
        <time>2020-09-12T09:38:00Z</time>
      </trkpt>
      <trkpt lat="45.76899" lon="4.84097">
        <ele>170.8</ele>
        <time>2020-09-12T09:38:01Z</time>
      </trkpt>
      <trkpt lat="45.76905" lon="4.84097">
        <ele>170.9</ele>
        <time>2020-09-12T09:38:02Z</time>
      </trkpt>
      <trkpt lat="45.76912" lon="4.84095">
        <ele>170.9</ele>
        <time>2020-09-12T09:38:03Z</time>
      </trkpt>
      <trkpt lat="45.76919" lon="4.84093">
        <ele>172.3</ele>
        <time>2020-09-12T09:38:04Z</time>
      </trkpt>
      <trkpt lat="45.76927" lon="4.8409">
        <ele>172.6</ele>
        <time>2020-09-12T09:38:05Z</time>
      </trkpt>
      <trkpt lat="45.76934" lon="4.84089">
        <ele>173.1</ele>
        <time>2020-09-12T09:38:06Z</time>
      </trkpt>
      <trkpt lat="45.76942" lon="4.84087">
        <ele>173.5</ele>
        <time>2020-09-12T09:38:07Z</time>
      </trkpt>
      <trkpt lat="45.76949" lon="4.84085">
        <ele>173.7</ele>
        <time>2020-09-12T09:38:08Z</time>
      </trkpt>
      <trkpt lat="45.76956" lon="4.84086">
        <ele>174</ele>
        <time>2020-09-12T09:38:09Z</time>
      </trkpt>
      <trkpt lat="45.76963" lon="4.84087">
        <ele>174.1</ele>
        <time>2020-09-12T09:38:10Z</time>
      </trkpt>
      <trkpt lat="45.76971" lon="4.84087">
        <ele>174.2</ele>
        <time>2020-09-12T09:38:11Z</time>
      </trkpt>
      <trkpt lat="45.76977" lon="4.84088">
        <ele>174.2</ele>
        <time>2020-09-12T09:38:12Z</time>
      </trkpt>
      <trkpt lat="45.76984" lon="4.84089">
        <ele>174.1</ele>
        <time>2020-09-12T09:38:13Z</time>
      </trkpt>
      <trkpt lat="45.76991" lon="4.8409">
        <ele>173.9</ele>
        <time>2020-09-12T09:38:14Z</time>
      </trkpt>
      <trkpt lat="45.76997" lon="4.84091">
        <ele>173.7</ele>
        <time>2020-09-12T09:38:15Z</time>
      </trkpt>
      <trkpt lat="45.77004" lon="4.84091">
        <ele>174.3</ele>
        <time>2020-09-12T09:38:16Z</time>
      </trkpt>
      <trkpt lat="45.7701" lon="4.84092">
        <ele>174.7</ele>
        <time>2020-09-12T09:38:17Z</time>
      </trkpt>
      <trkpt lat="45.77016" lon="4.84092">
        <ele>175.1</ele>
        <time>2020-09-12T09:38:18Z</time>
      </trkpt>
      <trkpt lat="45.77023" lon="4.84093">
        <ele>175.4</ele>
        <time>2020-09-12T09:38:19Z</time>
      </trkpt>
      <trkpt lat="45.7703" lon="4.84093">
        <ele>175.6</ele>
        <time>2020-09-12T09:38:20Z</time>
      </trkpt>
      <trkpt lat="45.77036" lon="4.84093">
        <ele>175.7</ele>
        <time>2020-09-12T09:38:21Z</time>
      </trkpt>
      <trkpt lat="45.77042" lon="4.84093">
        <ele>175.7</ele>
        <time>2020-09-12T09:38:22Z</time>
      </trkpt>
      <trkpt lat="45.77049" lon="4.84093">
        <ele>175.6</ele>
        <time>2020-09-12T09:38:23Z</time>
      </trkpt>
      <trkpt lat="45.77056" lon="4.84093">
        <ele>175.3</ele>
        <time>2020-09-12T09:38:24Z</time>
      </trkpt>
      <trkpt lat="45.77063" lon="4.84094">
        <ele>175</ele>
        <time>2020-09-12T09:38:25Z</time>
      </trkpt>
      <trkpt lat="45.7707" lon="4.84093">
        <ele>174.5</ele>
        <time>2020-09-12T09:38:26Z</time>
      </trkpt>
      <trkpt lat="45.77075" lon="4.84093">
        <ele>174.1</ele>
        <time>2020-09-12T09:38:27Z</time>
      </trkpt>
      <trkpt lat="45.7708" lon="4.84095">
        <ele>174</ele>
        <time>2020-09-12T09:38:28Z</time>
      </trkpt>
      <trkpt lat="45.77087" lon="4.84093">
        <ele>172.9</ele>
        <time>2020-09-12T09:38:29Z</time>
      </trkpt>
      <trkpt lat="45.77093" lon="4.84094">
        <ele>173.1</ele>
        <time>2020-09-12T09:38:30Z</time>
      </trkpt>
      <trkpt lat="45.77099" lon="4.84096">
        <ele>173.3</ele>
        <time>2020-09-12T09:38:31Z</time>
      </trkpt>
      <trkpt lat="45.77105" lon="4.84096">
        <ele>173.3</ele>
        <time>2020-09-12T09:38:32Z</time>
      </trkpt>
      <trkpt lat="45.77112" lon="4.84096">
        <ele>173.2</ele>
        <time>2020-09-12T09:38:33Z</time>
      </trkpt>
      <trkpt lat="45.77118" lon="4.84095">
        <ele>173</ele>
        <time>2020-09-12T09:38:34Z</time>
      </trkpt>
      <trkpt lat="45.77124" lon="4.84093">
        <ele>172.8</ele>
        <time>2020-09-12T09:38:35Z</time>
      </trkpt>
      <trkpt lat="45.77129" lon="4.84091">
        <ele>172.4</ele>
        <time>2020-09-12T09:38:36Z</time>
      </trkpt>
      <trkpt lat="45.77134" lon="4.8409">
        <ele>172</ele>
        <time>2020-09-12T09:38:37Z</time>
      </trkpt>
      <trkpt lat="45.77139" lon="4.84088">
        <ele>171.4</ele>
        <time>2020-09-12T09:38:38Z</time>
      </trkpt>
      <trkpt lat="45.77148" lon="4.84086">
        <ele>170.3</ele>
        <time>2020-09-12T09:38:40Z</time>
      </trkpt>
      <trkpt lat="45.77153" lon="4.84085">
        <ele>169.5</ele>
        <time>2020-09-12T09:38:41Z</time>
      </trkpt>
      <trkpt lat="45.77158" lon="4.84083">
        <ele>168.5</ele>
        <time>2020-09-12T09:38:42Z</time>
      </trkpt>
      <trkpt lat="45.77163" lon="4.84082">
        <ele>166.2</ele>
        <time>2020-09-12T09:38:43Z</time>
      </trkpt>
      <trkpt lat="45.77168" lon="4.84082">
        <ele>166.2</ele>
        <time>2020-09-12T09:38:44Z</time>
      </trkpt>
      <trkpt lat="45.77174" lon="4.84081">
        <ele>166.5</ele>
        <time>2020-09-12T09:38:45Z</time>
      </trkpt>
      <trkpt lat="45.77179" lon="4.84078">
        <ele>166.7</ele>
        <time>2020-09-12T09:38:46Z</time>
      </trkpt>
      <trkpt lat="45.77184" lon="4.84076">
        <ele>167</ele>
        <time>2020-09-12T09:38:47Z</time>
      </trkpt>
      <trkpt lat="45.77189" lon="4.84073">
        <ele>167.2</ele>
        <time>2020-09-12T09:38:48Z</time>
      </trkpt>
      <trkpt lat="45.77194" lon="4.84072">
        <ele>167.4</ele>
        <time>2020-09-12T09:38:49Z</time>
      </trkpt>
      <trkpt lat="45.77199" lon="4.84072">
        <ele>167.6</ele>
        <time>2020-09-12T09:38:50Z</time>
      </trkpt>
      <trkpt lat="45.77205" lon="4.84071">
        <ele>167.8</ele>
        <time>2020-09-12T09:38:51Z</time>
      </trkpt>
      <trkpt lat="45.77211" lon="4.84071">
        <ele>168.1</ele>
        <time>2020-09-12T09:38:52Z</time>
      </trkpt>
      <trkpt lat="45.77216" lon="4.84072">
        <ele>168.3</ele>
        <time>2020-09-12T09:38:53Z</time>
      </trkpt>
      <trkpt lat="45.77221" lon="4.84072">
        <ele>168.6</ele>
        <time>2020-09-12T09:38:54Z</time>
      </trkpt>
      <trkpt lat="45.77227" lon="4.84073">
        <ele>169</ele>
        <time>2020-09-12T09:38:55Z</time>
      </trkpt>
      <trkpt lat="45.77232" lon="4.84073">
        <ele>169.3</ele>
        <time>2020-09-12T09:38:57Z</time>
      </trkpt>
      <trkpt lat="45.77241" lon="4.84072">
        <ele>169.9</ele>
        <time>2020-09-12T09:38:59Z</time>
      </trkpt>
      <trkpt lat="45.77249" lon="4.84069">
        <ele>170</ele>
        <time>2020-09-12T09:39:00Z</time>
      </trkpt>
      <trkpt lat="45.77253" lon="4.84077">
        <ele>170.9</ele>
        <time>2020-09-12T09:39:01Z</time>
      </trkpt>
      <trkpt lat="45.77262" lon="4.84083">
        <ele>170.2</ele>
        <time>2020-09-12T09:39:03Z</time>
      </trkpt>
      <trkpt lat="45.77267" lon="4.84084">
        <ele>171.8</ele>
        <time>2020-09-12T09:39:04Z</time>
      </trkpt>
      <trkpt lat="45.77272" lon="4.84086">
        <ele>171.6</ele>
        <time>2020-09-12T09:39:05Z</time>
      </trkpt>
      <trkpt lat="45.77277" lon="4.84087">
        <ele>171.5</ele>
        <time>2020-09-12T09:39:06Z</time>
      </trkpt>
      <trkpt lat="45.77285" lon="4.8409">
        <ele>171.3</ele>
        <time>2020-09-12T09:39:08Z</time>
      </trkpt>
      <trkpt lat="45.77292" lon="4.84095">
        <ele>171</ele>
        <time>2020-09-12T09:39:10Z</time>
      </trkpt>
      <trkpt lat="45.77299" lon="4.84101">
        <ele>170.9</ele>
        <time>2020-09-12T09:39:12Z</time>
      </trkpt>
      <trkpt lat="45.77306" lon="4.84105">
        <ele>170.7</ele>
        <time>2020-09-12T09:39:14Z</time>
      </trkpt>
      <trkpt lat="45.77314" lon="4.8411">
        <ele>170.6</ele>
        <time>2020-09-12T09:39:16Z</time>
      </trkpt>
      <trkpt lat="45.77321" lon="4.84114">
        <ele>170.6</ele>
        <time>2020-09-12T09:39:18Z</time>
      </trkpt>
      <trkpt lat="45.77329" lon="4.84119">
        <ele>170.9</ele>
        <time>2020-09-12T09:39:20Z</time>
      </trkpt>
      <trkpt lat="45.77336" lon="4.84125">
        <ele>169.5</ele>
        <time>2020-09-12T09:39:22Z</time>
      </trkpt>
      <trkpt lat="45.7734" lon="4.8413">
        <ele>169.9</ele>
        <time>2020-09-12T09:39:23Z</time>
      </trkpt>
      <trkpt lat="45.77345" lon="4.84134">
        <ele>170.1</ele>
        <time>2020-09-12T09:39:24Z</time>
      </trkpt>
      <trkpt lat="45.77349" lon="4.84137">
        <ele>170.2</ele>
        <time>2020-09-12T09:39:25Z</time>
      </trkpt>
      <trkpt lat="45.77353" lon="4.84141">
        <ele>170.4</ele>
        <time>2020-09-12T09:39:26Z</time>
      </trkpt>
      <trkpt lat="45.77357" lon="4.84145">
        <ele>170.4</ele>
        <time>2020-09-12T09:39:27Z</time>
      </trkpt>
      <trkpt lat="45.77361" lon="4.84148">
        <ele>170.5</ele>
        <time>2020-09-12T09:39:28Z</time>
      </trkpt>
      <trkpt lat="45.77365" lon="4.84152">
        <ele>170.5</ele>
        <time>2020-09-12T09:39:29Z</time>
      </trkpt>
      <trkpt lat="45.77369" lon="4.84156">
        <ele>170.5</ele>
        <time>2020-09-12T09:39:30Z</time>
      </trkpt>
      <trkpt lat="45.77374" lon="4.8416">
        <ele>170.4</ele>
        <time>2020-09-12T09:39:31Z</time>
      </trkpt>
      <trkpt lat="45.77377" lon="4.84165">
        <ele>170.4</ele>
        <time>2020-09-12T09:39:32Z</time>
      </trkpt>
      <trkpt lat="45.77382" lon="4.84169">
        <ele>175.4</ele>
        <time>2020-09-12T09:39:33Z</time>
      </trkpt>
      <trkpt lat="45.77386" lon="4.84173">
        <ele>175.3</ele>
        <time>2020-09-12T09:39:34Z</time>
      </trkpt>
      <trkpt lat="45.77391" lon="4.84176">
        <ele>175.1</ele>
        <time>2020-09-12T09:39:35Z</time>
      </trkpt>
      <trkpt lat="45.77396" lon="4.8418">
        <ele>175.1</ele>
        <time>2020-09-12T09:39:36Z</time>
      </trkpt>
      <trkpt lat="45.774" lon="4.84184">
        <ele>175.1</ele>
        <time>2020-09-12T09:39:37Z</time>
      </trkpt>
      <trkpt lat="45.77406" lon="4.84188">
        <ele>175.2</ele>
        <time>2020-09-12T09:39:38Z</time>
      </trkpt>
      <trkpt lat="45.77411" lon="4.84192">
        <ele>175.4</ele>
        <time>2020-09-12T09:39:39Z</time>
      </trkpt>
      <trkpt lat="45.77416" lon="4.84195">
        <ele>175.8</ele>
        <time>2020-09-12T09:39:40Z</time>
      </trkpt>
      <trkpt lat="45.77421" lon="4.84199">
        <ele>173</ele>
        <time>2020-09-12T09:39:41Z</time>
      </trkpt>
      <trkpt lat="45.77427" lon="4.84202">
        <ele>173.2</ele>
        <time>2020-09-12T09:39:42Z</time>
      </trkpt>
      <trkpt lat="45.77432" lon="4.84206">
        <ele>173.2</ele>
        <time>2020-09-12T09:39:43Z</time>
      </trkpt>
      <trkpt lat="45.77437" lon="4.84209">
        <ele>173.3</ele>
        <time>2020-09-12T09:39:44Z</time>
      </trkpt>
      <trkpt lat="45.77443" lon="4.84213">
        <ele>173.3</ele>
        <time>2020-09-12T09:39:45Z</time>
      </trkpt>
      <trkpt lat="45.77448" lon="4.84216">
        <ele>173.2</ele>
        <time>2020-09-12T09:39:46Z</time>
      </trkpt>
      <trkpt lat="45.77453" lon="4.8422">
        <ele>173.1</ele>
        <time>2020-09-12T09:39:47Z</time>
      </trkpt>
      <trkpt lat="45.77458" lon="4.84224">
        <ele>172.8</ele>
        <time>2020-09-12T09:39:48Z</time>
      </trkpt>
      <trkpt lat="45.77464" lon="4.84228">
        <ele>172.5</ele>
        <time>2020-09-12T09:39:49Z</time>
      </trkpt>
      <trkpt lat="45.77469" lon="4.84231">
        <ele>172.2</ele>
        <time>2020-09-12T09:39:50Z</time>
      </trkpt>
      <trkpt lat="45.77474" lon="4.84234">
        <ele>171.8</ele>
        <time>2020-09-12T09:39:51Z</time>
      </trkpt>
      <trkpt lat="45.7748" lon="4.84237">
        <ele>171.4</ele>
        <time>2020-09-12T09:39:52Z</time>
      </trkpt>
      <trkpt lat="45.77485" lon="4.84241">
        <ele>170.9</ele>
        <time>2020-09-12T09:39:53Z</time>
      </trkpt>
      <trkpt lat="45.7749" lon="4.84244">
        <ele>170.4</ele>
        <time>2020-09-12T09:39:54Z</time>
      </trkpt>
      <trkpt lat="45.77496" lon="4.84248">
        <ele>169.6</ele>
        <time>2020-09-12T09:39:55Z</time>
      </trkpt>
      <trkpt lat="45.775" lon="4.84251">
        <ele>169.3</ele>
        <time>2020-09-12T09:39:56Z</time>
      </trkpt>
      <trkpt lat="45.77509" lon="4.8426">
        <ele>170.4</ele>
        <time>2020-09-12T09:39:58Z</time>
      </trkpt>
      <trkpt lat="45.77514" lon="4.84266">
        <ele>170.8</ele>
        <time>2020-09-12T09:39:59Z</time>
      </trkpt>
      <trkpt lat="45.7752" lon="4.84269">
        <ele>171.2</ele>
        <time>2020-09-12T09:40:00Z</time>
      </trkpt>
      <trkpt lat="45.77525" lon="4.84273">
        <ele>171.4</ele>
        <time>2020-09-12T09:40:01Z</time>
      </trkpt>
      <trkpt lat="45.7753" lon="4.84276">
        <ele>171.6</ele>
        <time>2020-09-12T09:40:02Z</time>
      </trkpt>
      <trkpt lat="45.77535" lon="4.8428">
        <ele>171.8</ele>
        <time>2020-09-12T09:40:03Z</time>
      </trkpt>
      <trkpt lat="45.77541" lon="4.84283">
        <ele>171.9</ele>
        <time>2020-09-12T09:40:04Z</time>
      </trkpt>
      <trkpt lat="45.77546" lon="4.84287">
        <ele>172.1</ele>
        <time>2020-09-12T09:40:05Z</time>
      </trkpt>
      <trkpt lat="45.77552" lon="4.84291">
        <ele>172.3</ele>
        <time>2020-09-12T09:40:06Z</time>
      </trkpt>
      <trkpt lat="45.77557" lon="4.84295">
        <ele>172.5</ele>
        <time>2020-09-12T09:40:07Z</time>
      </trkpt>
      <trkpt lat="45.77562" lon="4.84299">
        <ele>172.7</ele>
        <time>2020-09-12T09:40:08Z</time>
      </trkpt>
      <trkpt lat="45.77568" lon="4.84303">
        <ele>173</ele>
        <time>2020-09-12T09:40:09Z</time>
      </trkpt>
      <trkpt lat="45.77574" lon="4.84306">
        <ele>173.2</ele>
        <time>2020-09-12T09:40:10Z</time>
      </trkpt>
      <trkpt lat="45.77579" lon="4.8431">
        <ele>173.5</ele>
        <time>2020-09-12T09:40:11Z</time>
      </trkpt>
      <trkpt lat="45.77585" lon="4.84313">
        <ele>172.3</ele>
        <time>2020-09-12T09:40:12Z</time>
      </trkpt>
      <trkpt lat="45.77591" lon="4.84316">
        <ele>172.4</ele>
        <time>2020-09-12T09:40:13Z</time>
      </trkpt>
      <trkpt lat="45.77596" lon="4.8432">
        <ele>172.4</ele>
        <time>2020-09-12T09:40:14Z</time>
      </trkpt>
      <trkpt lat="45.77605" lon="4.84327">
        <ele>171.9</ele>
        <time>2020-09-12T09:40:16Z</time>
      </trkpt>
      <trkpt lat="45.77612" lon="4.8433">
        <ele>171.3</ele>
        <time>2020-09-12T09:40:17Z</time>
      </trkpt>
      <trkpt lat="45.77616" lon="4.84333">
        <ele>171</ele>
        <time>2020-09-12T09:40:18Z</time>
      </trkpt>
      <trkpt lat="45.77621" lon="4.84338">
        <ele>174</ele>
        <time>2020-09-12T09:40:19Z</time>
      </trkpt>
      <trkpt lat="45.77626" lon="4.84342">
        <ele>173.8</ele>
        <time>2020-09-12T09:40:20Z</time>
      </trkpt>
      <trkpt lat="45.77631" lon="4.84348">
        <ele>173.5</ele>
        <time>2020-09-12T09:40:21Z</time>
      </trkpt>
      <trkpt lat="45.77635" lon="4.84353">
        <ele>173.3</ele>
        <time>2020-09-12T09:40:22Z</time>
      </trkpt>
      <trkpt lat="45.7764" lon="4.84357">
        <ele>173.1</ele>
        <time>2020-09-12T09:40:23Z</time>
      </trkpt>
      <trkpt lat="45.77646" lon="4.84361">
        <ele>173</ele>
        <time>2020-09-12T09:40:24Z</time>
      </trkpt>
      <trkpt lat="45.77651" lon="4.84364">
        <ele>172.8</ele>
        <time>2020-09-12T09:40:25Z</time>
      </trkpt>
      <trkpt lat="45.77655" lon="4.84367">
        <ele>172.8</ele>
        <time>2020-09-12T09:40:26Z</time>
      </trkpt>
      <trkpt lat="45.7766" lon="4.8437">
        <ele>172.7</ele>
        <time>2020-09-12T09:40:27Z</time>
      </trkpt>
      <trkpt lat="45.77666" lon="4.84372">
        <ele>172.7</ele>
        <time>2020-09-12T09:40:28Z</time>
      </trkpt>
      <trkpt lat="45.77671" lon="4.84374">
        <ele>168.8</ele>
        <time>2020-09-12T09:40:29Z</time>
      </trkpt>
      <trkpt lat="45.77676" lon="4.84375">
        <ele>168.8</ele>
        <time>2020-09-12T09:40:30Z</time>
      </trkpt>
      <trkpt lat="45.77684" lon="4.84375">
        <ele>168.8</ele>
        <time>2020-09-12T09:40:32Z</time>
      </trkpt>
      <trkpt lat="45.77689" lon="4.84376">
        <ele>168.7</ele>
        <time>2020-09-12T09:40:33Z</time>
      </trkpt>
      <trkpt lat="45.77694" lon="4.84377">
        <ele>168.7</ele>
        <time>2020-09-12T09:40:34Z</time>
      </trkpt>
      <trkpt lat="45.777" lon="4.84379">
        <ele>168.7</ele>
        <time>2020-09-12T09:40:35Z</time>
      </trkpt>
      <trkpt lat="45.77706" lon="4.8438">
        <ele>168.6</ele>
        <time>2020-09-12T09:40:36Z</time>
      </trkpt>
      <trkpt lat="45.77712" lon="4.84381">
        <ele>168.6</ele>
        <time>2020-09-12T09:40:37Z</time>
      </trkpt>
      <trkpt lat="45.77718" lon="4.84382">
        <ele>168.5</ele>
        <time>2020-09-12T09:40:38Z</time>
      </trkpt>
      <trkpt lat="45.77724" lon="4.84384">
        <ele>168.5</ele>
        <time>2020-09-12T09:40:39Z</time>
      </trkpt>
      <trkpt lat="45.7773" lon="4.84386">
        <ele>168.5</ele>
        <time>2020-09-12T09:40:40Z</time>
      </trkpt>
      <trkpt lat="45.77736" lon="4.84388">
        <ele>168.5</ele>
        <time>2020-09-12T09:40:41Z</time>
      </trkpt>
      <trkpt lat="45.77742" lon="4.8439">
        <ele>168.5</ele>
        <time>2020-09-12T09:40:42Z</time>
      </trkpt>
      <trkpt lat="45.77748" lon="4.84392">
        <ele>168.5</ele>
        <time>2020-09-12T09:40:43Z</time>
      </trkpt>
      <trkpt lat="45.77755" lon="4.84394">
        <ele>167.8</ele>
        <time>2020-09-12T09:40:45Z</time>
      </trkpt>
      <trkpt lat="45.77759" lon="4.84388">
        <ele>167.6</ele>
        <time>2020-09-12T09:40:47Z</time>
      </trkpt>
      <trkpt lat="45.77759" lon="4.84379">
        <ele>167.4</ele>
        <time>2020-09-12T09:40:49Z</time>
      </trkpt>
      <trkpt lat="45.7776" lon="4.8437">
        <ele>167.2</ele>
        <time>2020-09-12T09:40:51Z</time>
      </trkpt>
      <trkpt lat="45.77763" lon="4.84364">
        <ele>167.1</ele>
        <time>2020-09-12T09:40:53Z</time>
      </trkpt>
      <trkpt lat="45.77767" lon="4.84359">
        <ele>167</ele>
        <time>2020-09-12T09:40:55Z</time>
      </trkpt>
      <trkpt lat="45.77774" lon="4.84355">
        <ele>167</ele>
        <time>2020-09-12T09:40:57Z</time>
      </trkpt>
      <trkpt lat="45.77778" lon="4.84355">
        <ele>167</ele>
        <time>2020-09-12T09:40:58Z</time>
      </trkpt>
      <trkpt lat="45.77783" lon="4.84357">
        <ele>167.1</ele>
        <time>2020-09-12T09:40:59Z</time>
      </trkpt>
      <trkpt lat="45.77792" lon="4.84365">
        <ele>167.2</ele>
        <time>2020-09-12T09:41:00Z</time>
      </trkpt>
      <trkpt lat="45.77797" lon="4.84367">
        <ele>167.2</ele>
        <time>2020-09-12T09:41:01Z</time>
      </trkpt>
      <trkpt lat="45.77802" lon="4.84369">
        <ele>167.2</ele>
        <time>2020-09-12T09:41:02Z</time>
      </trkpt>
      <trkpt lat="45.77807" lon="4.84373">
        <ele>167.2</ele>
        <time>2020-09-12T09:41:03Z</time>
      </trkpt>
      <trkpt lat="45.77812" lon="4.84376">
        <ele>167.2</ele>
        <time>2020-09-12T09:41:04Z</time>
      </trkpt>
      <trkpt lat="45.77824" lon="4.84381">
        <ele>167.2</ele>
        <time>2020-09-12T09:41:07Z</time>
      </trkpt>
      <trkpt lat="45.77829" lon="4.84385">
        <ele>167.2</ele>
        <time>2020-09-12T09:41:08Z</time>
      </trkpt>
      <trkpt lat="45.77835" lon="4.84389">
        <ele>166.9</ele>
        <time>2020-09-12T09:41:09Z</time>
      </trkpt>
      <trkpt lat="45.7784" lon="4.84392">
        <ele>166.9</ele>
        <time>2020-09-12T09:41:10Z</time>
      </trkpt>
      <trkpt lat="45.77847" lon="4.84397">
        <ele>166.9</ele>
        <time>2020-09-12T09:41:11Z</time>
      </trkpt>
      <trkpt lat="45.77852" lon="4.844">
        <ele>166.9</ele>
        <time>2020-09-12T09:41:12Z</time>
      </trkpt>
      <trkpt lat="45.77858" lon="4.84404">
        <ele>166.9</ele>
        <time>2020-09-12T09:41:13Z</time>
      </trkpt>
      <trkpt lat="45.77863" lon="4.84408">
        <ele>166.9</ele>
        <time>2020-09-12T09:41:14Z</time>
      </trkpt>
      <trkpt lat="45.77868" lon="4.84411">
        <ele>166.8</ele>
        <time>2020-09-12T09:41:15Z</time>
      </trkpt>
      <trkpt lat="45.77874" lon="4.84415">
        <ele>166.8</ele>
        <time>2020-09-12T09:41:16Z</time>
      </trkpt>
      <trkpt lat="45.77879" lon="4.84419">
        <ele>168.9</ele>
        <time>2020-09-12T09:41:17Z</time>
      </trkpt>
      <trkpt lat="45.77884" lon="4.84423">
        <ele>168.8</ele>
        <time>2020-09-12T09:41:18Z</time>
      </trkpt>
      <trkpt lat="45.7789" lon="4.84427">
        <ele>168.8</ele>
        <time>2020-09-12T09:41:19Z</time>
      </trkpt>
      <trkpt lat="45.77895" lon="4.8443">
        <ele>168.7</ele>
        <time>2020-09-12T09:41:20Z</time>
      </trkpt>
      <trkpt lat="45.779" lon="4.84433">
        <ele>168.7</ele>
        <time>2020-09-12T09:41:21Z</time>
      </trkpt>
      <trkpt lat="45.77906" lon="4.84437">
        <ele>168.7</ele>
        <time>2020-09-12T09:41:22Z</time>
      </trkpt>
      <trkpt lat="45.77911" lon="4.84439">
        <ele>168.7</ele>
        <time>2020-09-12T09:41:23Z</time>
      </trkpt>
      <trkpt lat="45.77917" lon="4.84444">
        <ele>167</ele>
        <time>2020-09-12T09:41:24Z</time>
      </trkpt>
      <trkpt lat="45.77922" lon="4.84447">
        <ele>167</ele>
        <time>2020-09-12T09:41:25Z</time>
      </trkpt>
      <trkpt lat="45.77928" lon="4.84451">
        <ele>167</ele>
        <time>2020-09-12T09:41:26Z</time>
      </trkpt>
      <trkpt lat="45.77934" lon="4.84455">
        <ele>167</ele>
        <time>2020-09-12T09:41:27Z</time>
      </trkpt>
      <trkpt lat="45.77945" lon="4.84462">
        <ele>166.9</ele>
        <time>2020-09-12T09:41:29Z</time>
      </trkpt>
      <trkpt lat="45.7795" lon="4.84465">
        <ele>166.8</ele>
        <time>2020-09-12T09:41:30Z</time>
      </trkpt>
      <trkpt lat="45.77955" lon="4.84469">
        <ele>166.7</ele>
        <time>2020-09-12T09:41:31Z</time>
      </trkpt>
      <trkpt lat="45.77961" lon="4.84473">
        <ele>166.5</ele>
        <time>2020-09-12T09:41:32Z</time>
      </trkpt>
      <trkpt lat="45.77967" lon="4.84477">
        <ele>166.3</ele>
        <time>2020-09-12T09:41:33Z</time>
      </trkpt>
      <trkpt lat="45.77971" lon="4.8448">
        <ele>166.1</ele>
        <time>2020-09-12T09:41:34Z</time>
      </trkpt>
      <trkpt lat="45.77976" lon="4.84484">
        <ele>165.9</ele>
        <time>2020-09-12T09:41:35Z</time>
      </trkpt>
      <trkpt lat="45.77982" lon="4.84489">
        <ele>165.6</ele>
        <time>2020-09-12T09:41:36Z</time>
      </trkpt>
      <trkpt lat="45.77987" lon="4.84492">
        <ele>165.3</ele>
        <time>2020-09-12T09:41:37Z</time>
      </trkpt>
      <trkpt lat="45.77992" lon="4.84497">
        <ele>164.8</ele>
        <time>2020-09-12T09:41:38Z</time>
      </trkpt>
      <trkpt lat="45.77997" lon="4.84501">
        <ele>164.6</ele>
        <time>2020-09-12T09:41:39Z</time>
      </trkpt>
      <trkpt lat="45.78002" lon="4.84505">
        <ele>164.5</ele>
        <time>2020-09-12T09:41:40Z</time>
      </trkpt>
      <trkpt lat="45.78007" lon="4.8451">
        <ele>164.9</ele>
        <time>2020-09-12T09:41:41Z</time>
      </trkpt>
      <trkpt lat="45.78011" lon="4.84514">
        <ele>165.3</ele>
        <time>2020-09-12T09:41:42Z</time>
      </trkpt>
      <trkpt lat="45.78015" lon="4.84519">
        <ele>165.5</ele>
        <time>2020-09-12T09:41:43Z</time>
      </trkpt>
      <trkpt lat="45.7802" lon="4.84523">
        <ele>165.7</ele>
        <time>2020-09-12T09:41:44Z</time>
      </trkpt>
      <trkpt lat="45.78026" lon="4.84528">
        <ele>165.9</ele>
        <time>2020-09-12T09:41:45Z</time>
      </trkpt>
      <trkpt lat="45.78032" lon="4.84533">
        <ele>166.1</ele>
        <time>2020-09-12T09:41:46Z</time>
      </trkpt>
      <trkpt lat="45.78035" lon="4.84538">
        <ele>166.2</ele>
        <time>2020-09-12T09:41:47Z</time>
      </trkpt>
      <trkpt lat="45.78041" lon="4.84543">
        <ele>166.2</ele>
        <time>2020-09-12T09:41:48Z</time>
      </trkpt>
      <trkpt lat="45.78044" lon="4.84547">
        <ele>166.3</ele>
        <time>2020-09-12T09:41:49Z</time>
      </trkpt>
      <trkpt lat="45.78051" lon="4.84551">
        <ele>166.3</ele>
        <time>2020-09-12T09:41:50Z</time>
      </trkpt>
      <trkpt lat="45.78056" lon="4.84555">
        <ele>166.3</ele>
        <time>2020-09-12T09:41:51Z</time>
      </trkpt>
      <trkpt lat="45.7806" lon="4.84559">
        <ele>166.3</ele>
        <time>2020-09-12T09:41:52Z</time>
      </trkpt>
      <trkpt lat="45.78065" lon="4.84562">
        <ele>166.3</ele>
        <time>2020-09-12T09:41:53Z</time>
      </trkpt>
      <trkpt lat="45.7807" lon="4.84567">
        <ele>166.3</ele>
        <time>2020-09-12T09:41:54Z</time>
      </trkpt>
      <trkpt lat="45.78076" lon="4.84573">
        <ele>166.2</ele>
        <time>2020-09-12T09:41:55Z</time>
      </trkpt>
      <trkpt lat="45.78081" lon="4.84578">
        <ele>166.1</ele>
        <time>2020-09-12T09:41:56Z</time>
      </trkpt>
      <trkpt lat="45.78086" lon="4.84583">
        <ele>166</ele>
        <time>2020-09-12T09:41:57Z</time>
      </trkpt>
      <trkpt lat="45.7809" lon="4.84587">
        <ele>166.6</ele>
        <time>2020-09-12T09:41:58Z</time>
      </trkpt>
      <trkpt lat="45.78096" lon="4.84592">
        <ele>166.9</ele>
        <time>2020-09-12T09:41:59Z</time>
      </trkpt>
      <trkpt lat="45.781" lon="4.84597">
        <ele>167.2</ele>
        <time>2020-09-12T09:42:00Z</time>
      </trkpt>
      <trkpt lat="45.78105" lon="4.84601">
        <ele>167.4</ele>
        <time>2020-09-12T09:42:01Z</time>
      </trkpt>
      <trkpt lat="45.7811" lon="4.84605">
        <ele>167.5</ele>
        <time>2020-09-12T09:42:02Z</time>
      </trkpt>
      <trkpt lat="45.78116" lon="4.8461">
        <ele>167.6</ele>
        <time>2020-09-12T09:42:03Z</time>
      </trkpt>
      <trkpt lat="45.7812" lon="4.84615">
        <ele>167.7</ele>
        <time>2020-09-12T09:42:04Z</time>
      </trkpt>
      <trkpt lat="45.78126" lon="4.84619">
        <ele>167.8</ele>
        <time>2020-09-12T09:42:05Z</time>
      </trkpt>
      <trkpt lat="45.7813" lon="4.84624">
        <ele>167.9</ele>
        <time>2020-09-12T09:42:06Z</time>
      </trkpt>
      <trkpt lat="45.78135" lon="4.84629">
        <ele>168</ele>
        <time>2020-09-12T09:42:07Z</time>
      </trkpt>
      <trkpt lat="45.78139" lon="4.84634">
        <ele>168.1</ele>
        <time>2020-09-12T09:42:08Z</time>
      </trkpt>
      <trkpt lat="45.78143" lon="4.84636">
        <ele>168.1</ele>
        <time>2020-09-12T09:42:09Z</time>
      </trkpt>
      <trkpt lat="45.78151" lon="4.84643">
        <ele>168.3</ele>
        <time>2020-09-12T09:42:11Z</time>
      </trkpt>
      <trkpt lat="45.78158" lon="4.8465">
        <ele>168.4</ele>
        <time>2020-09-12T09:42:13Z</time>
      </trkpt>
      <trkpt lat="45.78166" lon="4.84656">
        <ele>168.6</ele>
        <time>2020-09-12T09:42:15Z</time>
      </trkpt>
      <trkpt lat="45.7817" lon="4.84659">
        <ele>168</ele>
        <time>2020-09-12T09:42:16Z</time>
      </trkpt>
      <trkpt lat="45.78174" lon="4.84663">
        <ele>168</ele>
        <time>2020-09-12T09:42:17Z</time>
      </trkpt>
      <trkpt lat="45.78179" lon="4.84666">
        <ele>167.6</ele>
        <time>2020-09-12T09:42:18Z</time>
      </trkpt>
      <trkpt lat="45.78183" lon="4.8467">
        <ele>168.6</ele>
        <time>2020-09-12T09:42:19Z</time>
      </trkpt>
      <trkpt lat="45.78188" lon="4.84674">
        <ele>168.5</ele>
        <time>2020-09-12T09:42:20Z</time>
      </trkpt>
      <trkpt lat="45.78193" lon="4.84678">
        <ele>168.4</ele>
        <time>2020-09-12T09:42:21Z</time>
      </trkpt>
      <trkpt lat="45.78197" lon="4.84681">
        <ele>168.3</ele>
        <time>2020-09-12T09:42:22Z</time>
      </trkpt>
      <trkpt lat="45.78202" lon="4.84685">
        <ele>168.1</ele>
        <time>2020-09-12T09:42:23Z</time>
      </trkpt>
      <trkpt lat="45.78206" lon="4.84688">
        <ele>168</ele>
        <time>2020-09-12T09:42:24Z</time>
      </trkpt>
      <trkpt lat="45.7821" lon="4.84691">
        <ele>167.9</ele>
        <time>2020-09-12T09:42:25Z</time>
      </trkpt>
      <trkpt lat="45.78215" lon="4.84696">
        <ele>167.9</ele>
        <time>2020-09-12T09:42:26Z</time>
      </trkpt>
      <trkpt lat="45.78223" lon="4.84703">
        <ele>167.8</ele>
        <time>2020-09-12T09:42:28Z</time>
      </trkpt>
      <trkpt lat="45.78228" lon="4.84708">
        <ele>167.8</ele>
        <time>2020-09-12T09:42:29Z</time>
      </trkpt>
      <trkpt lat="45.78233" lon="4.84712">
        <ele>167.8</ele>
        <time>2020-09-12T09:42:30Z</time>
      </trkpt>
      <trkpt lat="45.78238" lon="4.84716">
        <ele>167.8</ele>
        <time>2020-09-12T09:42:31Z</time>
      </trkpt>
      <trkpt lat="45.78242" lon="4.8472">
        <ele>167.9</ele>
        <time>2020-09-12T09:42:32Z</time>
      </trkpt>
      <trkpt lat="45.78247" lon="4.84724">
        <ele>167.9</ele>
        <time>2020-09-12T09:42:33Z</time>
      </trkpt>
      <trkpt lat="45.78251" lon="4.84728">
        <ele>166.8</ele>
        <time>2020-09-12T09:42:34Z</time>
      </trkpt>
      <trkpt lat="45.78257" lon="4.84734">
        <ele>167</ele>
        <time>2020-09-12T09:42:35Z</time>
      </trkpt>
      <trkpt lat="45.78261" lon="4.84739">
        <ele>167.1</ele>
        <time>2020-09-12T09:42:36Z</time>
      </trkpt>
      <trkpt lat="45.78265" lon="4.84744">
        <ele>167.1</ele>
        <time>2020-09-12T09:42:37Z</time>
      </trkpt>
      <trkpt lat="45.7827" lon="4.84749">
        <ele>167.1</ele>
        <time>2020-09-12T09:42:38Z</time>
      </trkpt>
      <trkpt lat="45.78277" lon="4.8476">
        <ele>168.5</ele>
        <time>2020-09-12T09:42:40Z</time>
      </trkpt>
      <trkpt lat="45.78281" lon="4.84765">
        <ele>168.5</ele>
        <time>2020-09-12T09:42:41Z</time>
      </trkpt>
      <trkpt lat="45.78285" lon="4.8477">
        <ele>168.6</ele>
        <time>2020-09-12T09:42:42Z</time>
      </trkpt>
      <trkpt lat="45.7829" lon="4.84775">
        <ele>168.6</ele>
        <time>2020-09-12T09:42:43Z</time>
      </trkpt>
      <trkpt lat="45.78295" lon="4.84779">
        <ele>168.6</ele>
        <time>2020-09-12T09:42:44Z</time>
      </trkpt>
      <trkpt lat="45.783" lon="4.84785">
        <ele>168.7</ele>
        <time>2020-09-12T09:42:45Z</time>
      </trkpt>
      <trkpt lat="45.78304" lon="4.8479">
        <ele>168.8</ele>
        <time>2020-09-12T09:42:46Z</time>
      </trkpt>
      <trkpt lat="45.78307" lon="4.84796">
        <ele>168.8</ele>
        <time>2020-09-12T09:42:47Z</time>
      </trkpt>
      <trkpt lat="45.78312" lon="4.84801">
        <ele>168.9</ele>
        <time>2020-09-12T09:42:48Z</time>
      </trkpt>
      <trkpt lat="45.78316" lon="4.84806">
        <ele>169</ele>
        <time>2020-09-12T09:42:49Z</time>
      </trkpt>
      <trkpt lat="45.7832" lon="4.84812">
        <ele>169.2</ele>
        <time>2020-09-12T09:42:50Z</time>
      </trkpt>
      <trkpt lat="45.78324" lon="4.84817">
        <ele>169.3</ele>
        <time>2020-09-12T09:42:51Z</time>
      </trkpt>
      <trkpt lat="45.78328" lon="4.84822">
        <ele>169.5</ele>
        <time>2020-09-12T09:42:52Z</time>
      </trkpt>
      <trkpt lat="45.78332" lon="4.84828">
        <ele>169.7</ele>
        <time>2020-09-12T09:42:53Z</time>
      </trkpt>
      <trkpt lat="45.78336" lon="4.84833">
        <ele>169.8</ele>
        <time>2020-09-12T09:42:54Z</time>
      </trkpt>
      <trkpt lat="45.78339" lon="4.84838">
        <ele>169.5</ele>
        <time>2020-09-12T09:42:55Z</time>
      </trkpt>
      <trkpt lat="45.78344" lon="4.84844">
        <ele>169.1</ele>
        <time>2020-09-12T09:42:56Z</time>
      </trkpt>
      <trkpt lat="45.78348" lon="4.8485">
        <ele>168.8</ele>
        <time>2020-09-12T09:42:57Z</time>
      </trkpt>
      <trkpt lat="45.78353" lon="4.84859">
        <ele>168.6</ele>
        <time>2020-09-12T09:42:59Z</time>
      </trkpt>
      <trkpt lat="45.78357" lon="4.84865">
        <ele>168.4</ele>
        <time>2020-09-12T09:43:00Z</time>
      </trkpt>
      <trkpt lat="45.78361" lon="4.84871">
        <ele>168.3</ele>
        <time>2020-09-12T09:43:01Z</time>
      </trkpt>
      <trkpt lat="45.78364" lon="4.84877">
        <ele>168.3</ele>
        <time>2020-09-12T09:43:02Z</time>
      </trkpt>
      <trkpt lat="45.78367" lon="4.84882">
        <ele>168.2</ele>
        <time>2020-09-12T09:43:03Z</time>
      </trkpt>
      <trkpt lat="45.7837" lon="4.84887">
        <ele>168.1</ele>
        <time>2020-09-12T09:43:04Z</time>
      </trkpt>
      <trkpt lat="45.78374" lon="4.84892">
        <ele>168</ele>
        <time>2020-09-12T09:43:05Z</time>
      </trkpt>
      <trkpt lat="45.78377" lon="4.84897">
        <ele>167.9</ele>
        <time>2020-09-12T09:43:06Z</time>
      </trkpt>
      <trkpt lat="45.78381" lon="4.84902">
        <ele>167.8</ele>
        <time>2020-09-12T09:43:07Z</time>
      </trkpt>
      <trkpt lat="45.78388" lon="4.84913">
        <ele>167.5</ele>
        <time>2020-09-12T09:43:09Z</time>
      </trkpt>
      <trkpt lat="45.78391" lon="4.84919">
        <ele>167.7</ele>
        <time>2020-09-12T09:43:10Z</time>
      </trkpt>
      <trkpt lat="45.78394" lon="4.84924">
        <ele>167.6</ele>
        <time>2020-09-12T09:43:11Z</time>
      </trkpt>
      <trkpt lat="45.78397" lon="4.8493">
        <ele>167.6</ele>
        <time>2020-09-12T09:43:12Z</time>
      </trkpt>
      <trkpt lat="45.784" lon="4.84936">
        <ele>167.6</ele>
        <time>2020-09-12T09:43:13Z</time>
      </trkpt>
      <trkpt lat="45.78404" lon="4.84942">
        <ele>167.7</ele>
        <time>2020-09-12T09:43:14Z</time>
      </trkpt>
      <trkpt lat="45.78407" lon="4.84948">
        <ele>167.8</ele>
        <time>2020-09-12T09:43:15Z</time>
      </trkpt>
      <trkpt lat="45.78411" lon="4.84954">
        <ele>167.9</ele>
        <time>2020-09-12T09:43:16Z</time>
      </trkpt>
      <trkpt lat="45.78414" lon="4.8496">
        <ele>168</ele>
        <time>2020-09-12T09:43:17Z</time>
      </trkpt>
      <trkpt lat="45.78418" lon="4.84966">
        <ele>166.8</ele>
        <time>2020-09-12T09:43:18Z</time>
      </trkpt>
      <trkpt lat="45.78421" lon="4.84971">
        <ele>166.9</ele>
        <time>2020-09-12T09:43:19Z</time>
      </trkpt>
      <trkpt lat="45.78425" lon="4.84978">
        <ele>167</ele>
        <time>2020-09-12T09:43:20Z</time>
      </trkpt>
      <trkpt lat="45.78429" lon="4.84984">
        <ele>167.1</ele>
        <time>2020-09-12T09:43:21Z</time>
      </trkpt>
      <trkpt lat="45.78432" lon="4.84991">
        <ele>167.2</ele>
        <time>2020-09-12T09:43:22Z</time>
      </trkpt>
      <trkpt lat="45.78436" lon="4.84997">
        <ele>167.2</ele>
        <time>2020-09-12T09:43:23Z</time>
      </trkpt>
      <trkpt lat="45.78439" lon="4.85004">
        <ele>167.7</ele>
        <time>2020-09-12T09:43:24Z</time>
      </trkpt>
      <trkpt lat="45.78443" lon="4.8501">
        <ele>167.6</ele>
        <time>2020-09-12T09:43:25Z</time>
      </trkpt>
      <trkpt lat="45.7845" lon="4.85023">
        <ele>167.5</ele>
        <time>2020-09-12T09:43:27Z</time>
      </trkpt>
      <trkpt lat="45.78453" lon="4.8503">
        <ele>167.5</ele>
        <time>2020-09-12T09:43:28Z</time>
      </trkpt>
      <trkpt lat="45.78456" lon="4.85037">
        <ele>167.5</ele>
        <time>2020-09-12T09:43:29Z</time>
      </trkpt>
      <trkpt lat="45.78459" lon="4.85043">
        <ele>167.5</ele>
        <time>2020-09-12T09:43:30Z</time>
      </trkpt>
      <trkpt lat="45.78463" lon="4.8505">
        <ele>167.5</ele>
        <time>2020-09-12T09:43:31Z</time>
      </trkpt>
      <trkpt lat="45.78466" lon="4.85057">
        <ele>167.4</ele>
        <time>2020-09-12T09:43:32Z</time>
      </trkpt>
      <trkpt lat="45.7847" lon="4.85064">
        <ele>167.3</ele>
        <time>2020-09-12T09:43:33Z</time>
      </trkpt>
      <trkpt lat="45.78473" lon="4.85071">
        <ele>167.2</ele>
        <time>2020-09-12T09:43:34Z</time>
      </trkpt>
      <trkpt lat="45.78476" lon="4.85078">
        <ele>167.1</ele>
        <time>2020-09-12T09:43:35Z</time>
      </trkpt>
      <trkpt lat="45.78479" lon="4.85085">
        <ele>168.3</ele>
        <time>2020-09-12T09:43:36Z</time>
      </trkpt>
      <trkpt lat="45.78482" lon="4.85092">
        <ele>168.3</ele>
        <time>2020-09-12T09:43:37Z</time>
      </trkpt>
      <trkpt lat="45.78486" lon="4.85099">
        <ele>168.4</ele>
        <time>2020-09-12T09:43:38Z</time>
      </trkpt>
      <trkpt lat="45.78489" lon="4.85106">
        <ele>168.7</ele>
        <time>2020-09-12T09:43:39Z</time>
      </trkpt>
      <trkpt lat="45.78493" lon="4.85114">
        <ele>169</ele>
        <time>2020-09-12T09:43:40Z</time>
      </trkpt>
      <trkpt lat="45.78497" lon="4.8512">
        <ele>169.2</ele>
        <time>2020-09-12T09:43:41Z</time>
      </trkpt>
      <trkpt lat="45.785" lon="4.85126">
        <ele>167.4</ele>
        <time>2020-09-12T09:43:42Z</time>
      </trkpt>
      <trkpt lat="45.78504" lon="4.85132">
        <ele>167.6</ele>
        <time>2020-09-12T09:43:43Z</time>
      </trkpt>
      <trkpt lat="45.78507" lon="4.85141">
        <ele>167.9</ele>
        <time>2020-09-12T09:43:44Z</time>
      </trkpt>
      <trkpt lat="45.7851" lon="4.85148">
        <ele>168.2</ele>
        <time>2020-09-12T09:43:45Z</time>
      </trkpt>
      <trkpt lat="45.78513" lon="4.85156">
        <ele>168.5</ele>
        <time>2020-09-12T09:43:46Z</time>
      </trkpt>
      <trkpt lat="45.78517" lon="4.85163">
        <ele>168.4</ele>
        <time>2020-09-12T09:43:47Z</time>
      </trkpt>
      <trkpt lat="45.78519" lon="4.85171">
        <ele>169.8</ele>
        <time>2020-09-12T09:43:48Z</time>
      </trkpt>
      <trkpt lat="45.78522" lon="4.85178">
        <ele>169.8</ele>
        <time>2020-09-12T09:43:49Z</time>
      </trkpt>
      <trkpt lat="45.78525" lon="4.85185">
        <ele>169.9</ele>
        <time>2020-09-12T09:43:50Z</time>
      </trkpt>
      <trkpt lat="45.78528" lon="4.85192">
        <ele>169.9</ele>
        <time>2020-09-12T09:43:51Z</time>
      </trkpt>
      <trkpt lat="45.78531" lon="4.852">
        <ele>170</ele>
        <time>2020-09-12T09:43:52Z</time>
      </trkpt>
      <trkpt lat="45.78533" lon="4.85208">
        <ele>170.1</ele>
        <time>2020-09-12T09:43:53Z</time>
      </trkpt>
      <trkpt lat="45.78536" lon="4.85216">
        <ele>170.2</ele>
        <time>2020-09-12T09:43:54Z</time>
      </trkpt>
      <trkpt lat="45.78538" lon="4.85223">
        <ele>170.3</ele>
        <time>2020-09-12T09:43:55Z</time>
      </trkpt>
      <trkpt lat="45.78541" lon="4.85231">
        <ele>170.3</ele>
        <time>2020-09-12T09:43:56Z</time>
      </trkpt>
      <trkpt lat="45.78543" lon="4.85239">
        <ele>170.2</ele>
        <time>2020-09-12T09:43:57Z</time>
      </trkpt>
      <trkpt lat="45.78547" lon="4.85247">
        <ele>170</ele>
        <time>2020-09-12T09:43:58Z</time>
      </trkpt>
      <trkpt lat="45.7855" lon="4.85254">
        <ele>171.3</ele>
        <time>2020-09-12T09:43:59Z</time>
      </trkpt>
      <trkpt lat="45.78552" lon="4.85262">
        <ele>171.2</ele>
        <time>2020-09-12T09:44:00Z</time>
      </trkpt>
      <trkpt lat="45.78554" lon="4.8527">
        <ele>171.2</ele>
        <time>2020-09-12T09:44:01Z</time>
      </trkpt>
      <trkpt lat="45.78557" lon="4.85277">
        <ele>171.1</ele>
        <time>2020-09-12T09:44:02Z</time>
      </trkpt>
      <trkpt lat="45.78561" lon="4.85294">
        <ele>171.1</ele>
        <time>2020-09-12T09:44:04Z</time>
      </trkpt>
      <trkpt lat="45.78563" lon="4.85302">
        <ele>170.9</ele>
        <time>2020-09-12T09:44:05Z</time>
      </trkpt>
      <trkpt lat="45.78566" lon="4.8531">
        <ele>170.5</ele>
        <time>2020-09-12T09:44:06Z</time>
      </trkpt>
      <trkpt lat="45.78568" lon="4.85319">
        <ele>169.9</ele>
        <time>2020-09-12T09:44:07Z</time>
      </trkpt>
      <trkpt lat="45.7857" lon="4.85326">
        <ele>169.1</ele>
        <time>2020-09-12T09:44:08Z</time>
      </trkpt>
      <trkpt lat="45.78572" lon="4.85334">
        <ele>168.7</ele>
        <time>2020-09-12T09:44:09Z</time>
      </trkpt>
      <trkpt lat="45.78574" lon="4.85342">
        <ele>168.9</ele>
        <time>2020-09-12T09:44:10Z</time>
      </trkpt>
      <trkpt lat="45.78576" lon="4.8535">
        <ele>169.5</ele>
        <time>2020-09-12T09:44:11Z</time>
      </trkpt>
      <trkpt lat="45.78578" lon="4.85358">
        <ele>170.1</ele>
        <time>2020-09-12T09:44:12Z</time>
      </trkpt>
      <trkpt lat="45.7858" lon="4.85367">
        <ele>170.5</ele>
        <time>2020-09-12T09:44:13Z</time>
      </trkpt>
      <trkpt lat="45.78582" lon="4.85375">
        <ele>170.6</ele>
        <time>2020-09-12T09:44:14Z</time>
      </trkpt>
      <trkpt lat="45.78584" lon="4.85383">
        <ele>166.4</ele>
        <time>2020-09-12T09:44:15Z</time>
      </trkpt>
      <trkpt lat="45.78585" lon="4.85391">
        <ele>166.5</ele>
        <time>2020-09-12T09:44:16Z</time>
      </trkpt>
      <trkpt lat="45.78587" lon="4.85399">
        <ele>166.6</ele>
        <time>2020-09-12T09:44:17Z</time>
      </trkpt>
      <trkpt lat="45.78589" lon="4.85407">
        <ele>166.7</ele>
        <time>2020-09-12T09:44:18Z</time>
      </trkpt>
      <trkpt lat="45.78591" lon="4.85415">
        <ele>166.8</ele>
        <time>2020-09-12T09:44:19Z</time>
      </trkpt>
      <trkpt lat="45.78592" lon="4.85423">
        <ele>167</ele>
        <time>2020-09-12T09:44:20Z</time>
      </trkpt>
      <trkpt lat="45.78593" lon="4.85432">
        <ele>167.1</ele>
        <time>2020-09-12T09:44:21Z</time>
      </trkpt>
      <trkpt lat="45.78595" lon="4.8544">
        <ele>167.1</ele>
        <time>2020-09-12T09:44:22Z</time>
      </trkpt>
      <trkpt lat="45.78597" lon="4.85448">
        <ele>167.2</ele>
        <time>2020-09-12T09:44:23Z</time>
      </trkpt>
      <trkpt lat="45.78599" lon="4.85457">
        <ele>167.3</ele>
        <time>2020-09-12T09:44:24Z</time>
      </trkpt>
      <trkpt lat="45.786" lon="4.85465">
        <ele>167.4</ele>
        <time>2020-09-12T09:44:25Z</time>
      </trkpt>
      <trkpt lat="45.78602" lon="4.85473">
        <ele>167.5</ele>
        <time>2020-09-12T09:44:26Z</time>
      </trkpt>
      <trkpt lat="45.78603" lon="4.85481">
        <ele>167.6</ele>
        <time>2020-09-12T09:44:27Z</time>
      </trkpt>
      <trkpt lat="45.78605" lon="4.8549">
        <ele>167.7</ele>
        <time>2020-09-12T09:44:28Z</time>
      </trkpt>
      <trkpt lat="45.78606" lon="4.85498">
        <ele>167.7</ele>
        <time>2020-09-12T09:44:29Z</time>
      </trkpt>
      <trkpt lat="45.78607" lon="4.85506">
        <ele>167.8</ele>
        <time>2020-09-12T09:44:30Z</time>
      </trkpt>
      <trkpt lat="45.78608" lon="4.85515">
        <ele>167.7</ele>
        <time>2020-09-12T09:44:31Z</time>
      </trkpt>
      <trkpt lat="45.7861" lon="4.85523">
        <ele>167.6</ele>
        <time>2020-09-12T09:44:32Z</time>
      </trkpt>
      <trkpt lat="45.7861" lon="4.85532">
        <ele>167.5</ele>
        <time>2020-09-12T09:44:33Z</time>
      </trkpt>
      <trkpt lat="45.78611" lon="4.8554">
        <ele>167.5</ele>
        <time>2020-09-12T09:44:34Z</time>
      </trkpt>
      <trkpt lat="45.78612" lon="4.85549">
        <ele>167.4</ele>
        <time>2020-09-12T09:44:35Z</time>
      </trkpt>
      <trkpt lat="45.78613" lon="4.85557">
        <ele>167.4</ele>
        <time>2020-09-12T09:44:36Z</time>
      </trkpt>
      <trkpt lat="45.78613" lon="4.85566">
        <ele>167.4</ele>
        <time>2020-09-12T09:44:37Z</time>
      </trkpt>
      <trkpt lat="45.78614" lon="4.85575">
        <ele>167.4</ele>
        <time>2020-09-12T09:44:38Z</time>
      </trkpt>
      <trkpt lat="45.78614" lon="4.85584">
        <ele>167.5</ele>
        <time>2020-09-12T09:44:39Z</time>
      </trkpt>
      <trkpt lat="45.78615" lon="4.85593">
        <ele>167.5</ele>
        <time>2020-09-12T09:44:40Z</time>
      </trkpt>
      <trkpt lat="45.78616" lon="4.85601">
        <ele>167.5</ele>
        <time>2020-09-12T09:44:41Z</time>
      </trkpt>
      <trkpt lat="45.78616" lon="4.85609">
        <ele>167.6</ele>
        <time>2020-09-12T09:44:42Z</time>
      </trkpt>
      <trkpt lat="45.78617" lon="4.85618">
        <ele>167.6</ele>
        <time>2020-09-12T09:44:43Z</time>
      </trkpt>
      <trkpt lat="45.78618" lon="4.85627">
        <ele>167.6</ele>
        <time>2020-09-12T09:44:44Z</time>
      </trkpt>
      <trkpt lat="45.78618" lon="4.85635">
        <ele>167.7</ele>
        <time>2020-09-12T09:44:45Z</time>
      </trkpt>
      <trkpt lat="45.78618" lon="4.85643">
        <ele>167.8</ele>
        <time>2020-09-12T09:44:46Z</time>
      </trkpt>
      <trkpt lat="45.78619" lon="4.85652">
        <ele>167.8</ele>
        <time>2020-09-12T09:44:47Z</time>
      </trkpt>
      <trkpt lat="45.78619" lon="4.8566">
        <ele>167.9</ele>
        <time>2020-09-12T09:44:48Z</time>
      </trkpt>
      <trkpt lat="45.78619" lon="4.85669">
        <ele>167.9</ele>
        <time>2020-09-12T09:44:49Z</time>
      </trkpt>
      <trkpt lat="45.7862" lon="4.85678">
        <ele>167.8</ele>
        <time>2020-09-12T09:44:50Z</time>
      </trkpt>
      <trkpt lat="45.78621" lon="4.85687">
        <ele>167.7</ele>
        <time>2020-09-12T09:44:51Z</time>
      </trkpt>
      <trkpt lat="45.78621" lon="4.85695">
        <ele>167.7</ele>
        <time>2020-09-12T09:44:52Z</time>
      </trkpt>
      <trkpt lat="45.78621" lon="4.85703">
        <ele>167.6</ele>
        <time>2020-09-12T09:44:53Z</time>
      </trkpt>
      <trkpt lat="45.78621" lon="4.85712">
        <ele>167.5</ele>
        <time>2020-09-12T09:44:54Z</time>
      </trkpt>
      <trkpt lat="45.78621" lon="4.85719">
        <ele>167.5</ele>
        <time>2020-09-12T09:44:55Z</time>
      </trkpt>
      <trkpt lat="45.78621" lon="4.85727">
        <ele>167.5</ele>
        <time>2020-09-12T09:44:56Z</time>
      </trkpt>
      <trkpt lat="45.78621" lon="4.85735">
        <ele>167.4</ele>
        <time>2020-09-12T09:44:57Z</time>
      </trkpt>
      <trkpt lat="45.78621" lon="4.85742">
        <ele>167.4</ele>
        <time>2020-09-12T09:44:58Z</time>
      </trkpt>
      <trkpt lat="45.78621" lon="4.85749">
        <ele>167.4</ele>
        <time>2020-09-12T09:44:59Z</time>
      </trkpt>
      <trkpt lat="45.78621" lon="4.85755">
        <ele>167.2</ele>
        <time>2020-09-12T09:45:00Z</time>
      </trkpt>
      <trkpt lat="45.78621" lon="4.85764">
        <ele>167.3</ele>
        <time>2020-09-12T09:45:02Z</time>
      </trkpt>
      <trkpt lat="45.78616" lon="4.85769">
        <ele>167.3</ele>
        <time>2020-09-12T09:45:09Z</time>
      </trkpt>
      <trkpt lat="45.7861" lon="4.85767">
        <ele>167.4</ele>
        <time>2020-09-12T09:45:12Z</time>
      </trkpt>
      <trkpt lat="45.78603" lon="4.85767">
        <ele>167.5</ele>
        <time>2020-09-12T09:45:15Z</time>
      </trkpt>
      <trkpt lat="45.78597" lon="4.85771">
        <ele>167.6</ele>
        <time>2020-09-12T09:45:18Z</time>
      </trkpt>
      <trkpt lat="45.78594" lon="4.85782">
        <ele>167.6</ele>
        <time>2020-09-12T09:45:20Z</time>
      </trkpt>
      <trkpt lat="45.78594" lon="4.85789">
        <ele>167.6</ele>
        <time>2020-09-12T09:45:21Z</time>
      </trkpt>
      <trkpt lat="45.78596" lon="4.85799">
        <ele>167.7</ele>
        <time>2020-09-12T09:45:22Z</time>
      </trkpt>
      <trkpt lat="45.78597" lon="4.85806">
        <ele>167.8</ele>
        <time>2020-09-12T09:45:23Z</time>
      </trkpt>
      <trkpt lat="45.78597" lon="4.85813">
        <ele>167.9</ele>
        <time>2020-09-12T09:45:24Z</time>
      </trkpt>
      <trkpt lat="45.78596" lon="4.85821">
        <ele>168.1</ele>
        <time>2020-09-12T09:45:25Z</time>
      </trkpt>
      <trkpt lat="45.78596" lon="4.85829">
        <ele>168.2</ele>
        <time>2020-09-12T09:45:26Z</time>
      </trkpt>
      <trkpt lat="45.78596" lon="4.85837">
        <ele>168.6</ele>
        <time>2020-09-12T09:45:27Z</time>
      </trkpt>
      <trkpt lat="45.78596" lon="4.85845">
        <ele>168.5</ele>
        <time>2020-09-12T09:45:28Z</time>
      </trkpt>
      <trkpt lat="45.78596" lon="4.85854">
        <ele>168.5</ele>
        <time>2020-09-12T09:45:29Z</time>
      </trkpt>
      <trkpt lat="45.78596" lon="4.85862">
        <ele>168.5</ele>
        <time>2020-09-12T09:45:30Z</time>
      </trkpt>
      <trkpt lat="45.78595" lon="4.85871">
        <ele>168.6</ele>
        <time>2020-09-12T09:45:31Z</time>
      </trkpt>
      <trkpt lat="45.78595" lon="4.85881">
        <ele>168.7</ele>
        <time>2020-09-12T09:45:32Z</time>
      </trkpt>
      <trkpt lat="45.78595" lon="4.8589">
        <ele>169</ele>
        <time>2020-09-12T09:45:33Z</time>
      </trkpt>
      <trkpt lat="45.78594" lon="4.85899">
        <ele>169.3</ele>
        <time>2020-09-12T09:45:34Z</time>
      </trkpt>
      <trkpt lat="45.78593" lon="4.85909">
        <ele>169.8</ele>
        <time>2020-09-12T09:45:35Z</time>
      </trkpt>
      <trkpt lat="45.78593" lon="4.85919">
        <ele>170.4</ele>
        <time>2020-09-12T09:45:36Z</time>
      </trkpt>
      <trkpt lat="45.78592" lon="4.85928">
        <ele>170.3</ele>
        <time>2020-09-12T09:45:37Z</time>
      </trkpt>
      <trkpt lat="45.78592" lon="4.85938">
        <ele>170.2</ele>
        <time>2020-09-12T09:45:38Z</time>
      </trkpt>
      <trkpt lat="45.78591" lon="4.85948">
        <ele>170.2</ele>
        <time>2020-09-12T09:45:39Z</time>
      </trkpt>
      <trkpt lat="45.78591" lon="4.85958">
        <ele>170.4</ele>
        <time>2020-09-12T09:45:40Z</time>
      </trkpt>
      <trkpt lat="45.7859" lon="4.85967">
        <ele>170.6</ele>
        <time>2020-09-12T09:45:41Z</time>
      </trkpt>
      <trkpt lat="45.7859" lon="4.85977">
        <ele>171.1</ele>
        <time>2020-09-12T09:45:42Z</time>
      </trkpt>
      <trkpt lat="45.78589" lon="4.85986">
        <ele>171.8</ele>
        <time>2020-09-12T09:45:43Z</time>
      </trkpt>
      <trkpt lat="45.78588" lon="4.85996">
        <ele>172.9</ele>
        <time>2020-09-12T09:45:44Z</time>
      </trkpt>
      <trkpt lat="45.78587" lon="4.86006">
        <ele>172.6</ele>
        <time>2020-09-12T09:45:45Z</time>
      </trkpt>
      <trkpt lat="45.78587" lon="4.86015">
        <ele>171.5</ele>
        <time>2020-09-12T09:45:46Z</time>
      </trkpt>
      <trkpt lat="45.78587" lon="4.86022">
        <ele>170.7</ele>
        <time>2020-09-12T09:45:47Z</time>
      </trkpt>
      <trkpt lat="45.78586" lon="4.86036">
        <ele>169.7</ele>
        <time>2020-09-12T09:45:48Z</time>
      </trkpt>
      <trkpt lat="45.78584" lon="4.86046">
        <ele>169.3</ele>
        <time>2020-09-12T09:45:49Z</time>
      </trkpt>
      <trkpt lat="45.78584" lon="4.86055">
        <ele>168.9</ele>
        <time>2020-09-12T09:45:50Z</time>
      </trkpt>
      <trkpt lat="45.78582" lon="4.86065">
        <ele>170</ele>
        <time>2020-09-12T09:45:51Z</time>
      </trkpt>
      <trkpt lat="45.78581" lon="4.86075">
        <ele>169.2</ele>
        <time>2020-09-12T09:45:52Z</time>
      </trkpt>
      <trkpt lat="45.7858" lon="4.86085">
        <ele>168.1</ele>
        <time>2020-09-12T09:45:53Z</time>
      </trkpt>
      <trkpt lat="45.78579" lon="4.86094">
        <ele>168.2</ele>
        <time>2020-09-12T09:45:54Z</time>
      </trkpt>
      <trkpt lat="45.78577" lon="4.86102">
        <ele>168.3</ele>
        <time>2020-09-12T09:45:55Z</time>
      </trkpt>
      <trkpt lat="45.78576" lon="4.86111">
        <ele>168.2</ele>
        <time>2020-09-12T09:45:56Z</time>
      </trkpt>
      <trkpt lat="45.78575" lon="4.8612">
        <ele>168.1</ele>
        <time>2020-09-12T09:45:57Z</time>
      </trkpt>
      <trkpt lat="45.78573" lon="4.86128">
        <ele>167.9</ele>
        <time>2020-09-12T09:45:58Z</time>
      </trkpt>
      <trkpt lat="45.78571" lon="4.86136">
        <ele>167.7</ele>
        <time>2020-09-12T09:45:59Z</time>
      </trkpt>
      <trkpt lat="45.78569" lon="4.86144">
        <ele>167.5</ele>
        <time>2020-09-12T09:46:00Z</time>
      </trkpt>
      <trkpt lat="45.78568" lon="4.86152">
        <ele>167.2</ele>
        <time>2020-09-12T09:46:01Z</time>
      </trkpt>
      <trkpt lat="45.78565" lon="4.8616">
        <ele>167.1</ele>
        <time>2020-09-12T09:46:02Z</time>
      </trkpt>
      <trkpt lat="45.78563" lon="4.86168">
        <ele>167</ele>
        <time>2020-09-12T09:46:03Z</time>
      </trkpt>
      <trkpt lat="45.78561" lon="4.86175">
        <ele>167.2</ele>
        <time>2020-09-12T09:46:04Z</time>
      </trkpt>
      <trkpt lat="45.78559" lon="4.86182">
        <ele>167.5</ele>
        <time>2020-09-12T09:46:05Z</time>
      </trkpt>
      <trkpt lat="45.78556" lon="4.86189">
        <ele>167.8</ele>
        <time>2020-09-12T09:46:06Z</time>
      </trkpt>
      <trkpt lat="45.78554" lon="4.86197">
        <ele>168</ele>
        <time>2020-09-12T09:46:07Z</time>
      </trkpt>
      <trkpt lat="45.78552" lon="4.86204">
        <ele>168.1</ele>
        <time>2020-09-12T09:46:08Z</time>
      </trkpt>
      <trkpt lat="45.78549" lon="4.86211">
        <ele>168.3</ele>
        <time>2020-09-12T09:46:09Z</time>
      </trkpt>
      <trkpt lat="45.78547" lon="4.86218">
        <ele>168.4</ele>
        <time>2020-09-12T09:46:10Z</time>
      </trkpt>
      <trkpt lat="45.78545" lon="4.86225">
        <ele>168.6</ele>
        <time>2020-09-12T09:46:11Z</time>
      </trkpt>
      <trkpt lat="45.78542" lon="4.86231">
        <ele>168.7</ele>
        <time>2020-09-12T09:46:12Z</time>
      </trkpt>
      <trkpt lat="45.7854" lon="4.86237">
        <ele>168.9</ele>
        <time>2020-09-12T09:46:13Z</time>
      </trkpt>
      <trkpt lat="45.78538" lon="4.86243">
        <ele>169</ele>
        <time>2020-09-12T09:46:14Z</time>
      </trkpt>
      <trkpt lat="45.78535" lon="4.86248">
        <ele>169.2</ele>
        <time>2020-09-12T09:46:15Z</time>
      </trkpt>
      <trkpt lat="45.78532" lon="4.86254">
        <ele>170.4</ele>
        <time>2020-09-12T09:46:16Z</time>
      </trkpt>
      <trkpt lat="45.78531" lon="4.86261">
        <ele>170.5</ele>
        <time>2020-09-12T09:46:17Z</time>
      </trkpt>
      <trkpt lat="45.78528" lon="4.86269">
        <ele>170.6</ele>
        <time>2020-09-12T09:46:19Z</time>
      </trkpt>
      <trkpt lat="45.78524" lon="4.86278">
        <ele>170.7</ele>
        <time>2020-09-12T09:46:21Z</time>
      </trkpt>
      <trkpt lat="45.78521" lon="4.86284">
        <ele>170.8</ele>
        <time>2020-09-12T09:46:23Z</time>
      </trkpt>
      <trkpt lat="45.78516" lon="4.86288">
        <ele>171</ele>
        <time>2020-09-12T09:46:26Z</time>
      </trkpt>
      <trkpt lat="45.7851" lon="4.86291">
        <ele>171.1</ele>
        <time>2020-09-12T09:46:28Z</time>
      </trkpt>
      <trkpt lat="45.78503" lon="4.86295">
        <ele>171.3</ele>
        <time>2020-09-12T09:46:30Z</time>
      </trkpt>
      <trkpt lat="45.78495" lon="4.86299">
        <ele>173</ele>
        <time>2020-09-12T09:46:32Z</time>
      </trkpt>
      <trkpt lat="45.7849" lon="4.86303">
        <ele>173</ele>
        <time>2020-09-12T09:46:33Z</time>
      </trkpt>
      <trkpt lat="45.78486" lon="4.86307">
        <ele>173.1</ele>
        <time>2020-09-12T09:46:34Z</time>
      </trkpt>
      <trkpt lat="45.78482" lon="4.8631">
        <ele>173.1</ele>
        <time>2020-09-12T09:46:35Z</time>
      </trkpt>
      <trkpt lat="45.78478" lon="4.86315">
        <ele>173.1</ele>
        <time>2020-09-12T09:46:36Z</time>
      </trkpt>
      <trkpt lat="45.78475" lon="4.8632">
        <ele>173.1</ele>
        <time>2020-09-12T09:46:37Z</time>
      </trkpt>
      <trkpt lat="45.78473" lon="4.86326">
        <ele>173.2</ele>
        <time>2020-09-12T09:46:38Z</time>
      </trkpt>
      <trkpt lat="45.7847" lon="4.86332">
        <ele>173.2</ele>
        <time>2020-09-12T09:46:39Z</time>
      </trkpt>
      <trkpt lat="45.78468" lon="4.8634">
        <ele>173.3</ele>
        <time>2020-09-12T09:46:40Z</time>
      </trkpt>
      <trkpt lat="45.78466" lon="4.86346">
        <ele>173.2</ele>
        <time>2020-09-12T09:46:41Z</time>
      </trkpt>
      <trkpt lat="45.78466" lon="4.86353">
        <ele>173.2</ele>
        <time>2020-09-12T09:46:42Z</time>
      </trkpt>
      <trkpt lat="45.78466" lon="4.8636">
        <ele>173.2</ele>
        <time>2020-09-12T09:46:43Z</time>
      </trkpt>
      <trkpt lat="45.78467" lon="4.86367">
        <ele>173.1</ele>
        <time>2020-09-12T09:46:44Z</time>
      </trkpt>
      <trkpt lat="45.78468" lon="4.86373">
        <ele>173.1</ele>
        <time>2020-09-12T09:46:45Z</time>
      </trkpt>
      <trkpt lat="45.7847" lon="4.86379">
        <ele>173.1</ele>
        <time>2020-09-12T09:46:46Z</time>
      </trkpt>
      <trkpt lat="45.78472" lon="4.86385">
        <ele>173.1</ele>
        <time>2020-09-12T09:46:47Z</time>
      </trkpt>
      <trkpt lat="45.78474" lon="4.86396">
        <ele>173.2</ele>
        <time>2020-09-12T09:46:49Z</time>
      </trkpt>
      <trkpt lat="45.78474" lon="4.86403">
        <ele>173.2</ele>
        <time>2020-09-12T09:46:52Z</time>
      </trkpt>
      <trkpt lat="45.78477" lon="4.86408">
        <ele>173.3</ele>
        <time>2020-09-12T09:46:56Z</time>
      </trkpt>
      <trkpt lat="45.78481" lon="4.86413">
        <ele>173.4</ele>
        <time>2020-09-12T09:46:58Z</time>
      </trkpt>
      <trkpt lat="45.78486" lon="4.86418">
        <ele>173.2</ele>
        <time>2020-09-12T09:47:00Z</time>
      </trkpt>
      <trkpt lat="45.7849" lon="4.86423">
        <ele>173.3</ele>
        <time>2020-09-12T09:47:03Z</time>
      </trkpt>
      <trkpt lat="45.78489" lon="4.86432">
        <ele>173.1</ele>
        <time>2020-09-12T09:47:07Z</time>
      </trkpt>
      <trkpt lat="45.78485" lon="4.86439">
        <ele>172.8</ele>
        <time>2020-09-12T09:47:09Z</time>
      </trkpt>
      <trkpt lat="45.78481" lon="4.86447">
        <ele>172.7</ele>
        <time>2020-09-12T09:47:11Z</time>
      </trkpt>
      <trkpt lat="45.78476" lon="4.86457">
        <ele>172.5</ele>
        <time>2020-09-12T09:47:13Z</time>
      </trkpt>
      <trkpt lat="45.78472" lon="4.86468">
        <ele>172.4</ele>
        <time>2020-09-12T09:47:15Z</time>
      </trkpt>
      <trkpt lat="45.78469" lon="4.86479">
        <ele>172.4</ele>
        <time>2020-09-12T09:47:17Z</time>
      </trkpt>
      <trkpt lat="45.78467" lon="4.8649">
        <ele>172.3</ele>
        <time>2020-09-12T09:47:19Z</time>
      </trkpt>
      <trkpt lat="45.78466" lon="4.86499">
        <ele>172.3</ele>
        <time>2020-09-12T09:47:21Z</time>
      </trkpt>
      <trkpt lat="45.78466" lon="4.86508">
        <ele>172.1</ele>
        <time>2020-09-12T09:47:23Z</time>
      </trkpt>
      <trkpt lat="45.7847" lon="4.86513">
        <ele>172.2</ele>
        <time>2020-09-12T09:47:28Z</time>
      </trkpt>
      <trkpt lat="45.78474" lon="4.86519">
        <ele>172.2</ele>
        <time>2020-09-12T09:47:31Z</time>
      </trkpt>
      <trkpt lat="45.78475" lon="4.86529">
        <ele>172.2</ele>
        <time>2020-09-12T09:47:33Z</time>
      </trkpt>
      <trkpt lat="45.78476" lon="4.8654">
        <ele>172.2</ele>
        <time>2020-09-12T09:47:35Z</time>
      </trkpt>
      <trkpt lat="45.78476" lon="4.86552">
        <ele>172.2</ele>
        <time>2020-09-12T09:47:37Z</time>
      </trkpt>
      <trkpt lat="45.78477" lon="4.86558">
        <ele>172.2</ele>
        <time>2020-09-12T09:47:38Z</time>
      </trkpt>
      <trkpt lat="45.78478" lon="4.86566">
        <ele>172.3</ele>
        <time>2020-09-12T09:47:39Z</time>
      </trkpt>
      <trkpt lat="45.78479" lon="4.86573">
        <ele>172.4</ele>
        <time>2020-09-12T09:47:40Z</time>
      </trkpt>
      <trkpt lat="45.78479" lon="4.8658">
        <ele>172.4</ele>
        <time>2020-09-12T09:47:41Z</time>
      </trkpt>
      <trkpt lat="45.7848" lon="4.86587">
        <ele>172.3</ele>
        <time>2020-09-12T09:47:42Z</time>
      </trkpt>
      <trkpt lat="45.7848" lon="4.86594">
        <ele>172.3</ele>
        <time>2020-09-12T09:47:43Z</time>
      </trkpt>
      <trkpt lat="45.7848" lon="4.86602">
        <ele>172.2</ele>
        <time>2020-09-12T09:47:44Z</time>
      </trkpt>
      <trkpt lat="45.7848" lon="4.86609">
        <ele>172.1</ele>
        <time>2020-09-12T09:47:45Z</time>
      </trkpt>
      <trkpt lat="45.78481" lon="4.86616">
        <ele>172.1</ele>
        <time>2020-09-12T09:47:46Z</time>
      </trkpt>
      <trkpt lat="45.78482" lon="4.86624">
        <ele>172.1</ele>
        <time>2020-09-12T09:47:47Z</time>
      </trkpt>
      <trkpt lat="45.78484" lon="4.86632">
        <ele>172.1</ele>
        <time>2020-09-12T09:47:48Z</time>
      </trkpt>
      <trkpt lat="45.78485" lon="4.8664">
        <ele>172.1</ele>
        <time>2020-09-12T09:47:49Z</time>
      </trkpt>
      <trkpt lat="45.78486" lon="4.86647">
        <ele>172.2</ele>
        <time>2020-09-12T09:47:50Z</time>
      </trkpt>
      <trkpt lat="45.78486" lon="4.86655">
        <ele>172.3</ele>
        <time>2020-09-12T09:47:51Z</time>
      </trkpt>
      <trkpt lat="45.78486" lon="4.86663">
        <ele>172.4</ele>
        <time>2020-09-12T09:47:52Z</time>
      </trkpt>
      <trkpt lat="45.78487" lon="4.8667">
        <ele>172.6</ele>
        <time>2020-09-12T09:47:53Z</time>
      </trkpt>
      <trkpt lat="45.78488" lon="4.86678">
        <ele>172.6</ele>
        <time>2020-09-12T09:47:54Z</time>
      </trkpt>
      <trkpt lat="45.78489" lon="4.86686">
        <ele>172.5</ele>
        <time>2020-09-12T09:47:55Z</time>
      </trkpt>
      <trkpt lat="45.7849" lon="4.86694">
        <ele>172.5</ele>
        <time>2020-09-12T09:47:56Z</time>
      </trkpt>
      <trkpt lat="45.78491" lon="4.86702">
        <ele>172.5</ele>
        <time>2020-09-12T09:47:57Z</time>
      </trkpt>
      <trkpt lat="45.78492" lon="4.8671">
        <ele>172.5</ele>
        <time>2020-09-12T09:47:58Z</time>
      </trkpt>
      <trkpt lat="45.78492" lon="4.86717">
        <ele>172.5</ele>
        <time>2020-09-12T09:47:59Z</time>
      </trkpt>
      <trkpt lat="45.78493" lon="4.86725">
        <ele>172.6</ele>
        <time>2020-09-12T09:48:00Z</time>
      </trkpt>
      <trkpt lat="45.78494" lon="4.86732">
        <ele>172.7</ele>
        <time>2020-09-12T09:48:01Z</time>
      </trkpt>
      <trkpt lat="45.78495" lon="4.86739">
        <ele>172.8</ele>
        <time>2020-09-12T09:48:02Z</time>
      </trkpt>
      <trkpt lat="45.78496" lon="4.86747">
        <ele>172.9</ele>
        <time>2020-09-12T09:48:03Z</time>
      </trkpt>
      <trkpt lat="45.78497" lon="4.86755">
        <ele>173.4</ele>
        <time>2020-09-12T09:48:04Z</time>
      </trkpt>
      <trkpt lat="45.78497" lon="4.86762">
        <ele>173.8</ele>
        <time>2020-09-12T09:48:05Z</time>
      </trkpt>
      <trkpt lat="45.78499" lon="4.8677">
        <ele>174.2</ele>
        <time>2020-09-12T09:48:06Z</time>
      </trkpt>
      <trkpt lat="45.78499" lon="4.86777">
        <ele>174.5</ele>
        <time>2020-09-12T09:48:07Z</time>
      </trkpt>
      <trkpt lat="45.785" lon="4.86785">
        <ele>174.6</ele>
        <time>2020-09-12T09:48:08Z</time>
      </trkpt>
      <trkpt lat="45.78501" lon="4.86793">
        <ele>174.9</ele>
        <time>2020-09-12T09:48:09Z</time>
      </trkpt>
      <trkpt lat="45.78502" lon="4.86801">
        <ele>175.2</ele>
        <time>2020-09-12T09:48:10Z</time>
      </trkpt>
      <trkpt lat="45.78503" lon="4.86809">
        <ele>175.5</ele>
        <time>2020-09-12T09:48:11Z</time>
      </trkpt>
      <trkpt lat="45.78504" lon="4.86817">
        <ele>175.8</ele>
        <time>2020-09-12T09:48:12Z</time>
      </trkpt>
      <trkpt lat="45.78505" lon="4.86825">
        <ele>176.3</ele>
        <time>2020-09-12T09:48:13Z</time>
      </trkpt>
      <trkpt lat="45.78506" lon="4.86833">
        <ele>176.5</ele>
        <time>2020-09-12T09:48:14Z</time>
      </trkpt>
      <trkpt lat="45.78507" lon="4.86841">
        <ele>176.9</ele>
        <time>2020-09-12T09:48:15Z</time>
      </trkpt>
      <trkpt lat="45.78508" lon="4.86849">
        <ele>176.8</ele>
        <time>2020-09-12T09:48:16Z</time>
      </trkpt>
      <trkpt lat="45.7851" lon="4.86857">
        <ele>176.8</ele>
        <time>2020-09-12T09:48:17Z</time>
      </trkpt>
      <trkpt lat="45.78511" lon="4.86865">
        <ele>176.8</ele>
        <time>2020-09-12T09:48:18Z</time>
      </trkpt>
      <trkpt lat="45.78512" lon="4.86873">
        <ele>176.8</ele>
        <time>2020-09-12T09:48:19Z</time>
      </trkpt>
      <trkpt lat="45.78513" lon="4.86881">
        <ele>176.8</ele>
        <time>2020-09-12T09:48:20Z</time>
      </trkpt>
      <trkpt lat="45.78515" lon="4.8689">
        <ele>176.9</ele>
        <time>2020-09-12T09:48:21Z</time>
      </trkpt>
      <trkpt lat="45.78516" lon="4.86899">
        <ele>177</ele>
        <time>2020-09-12T09:48:22Z</time>
      </trkpt>
      <trkpt lat="45.78517" lon="4.86907">
        <ele>177.1</ele>
        <time>2020-09-12T09:48:23Z</time>
      </trkpt>
      <trkpt lat="45.78518" lon="4.86915">
        <ele>177.2</ele>
        <time>2020-09-12T09:48:24Z</time>
      </trkpt>
      <trkpt lat="45.7852" lon="4.86923">
        <ele>176.2</ele>
        <time>2020-09-12T09:48:25Z</time>
      </trkpt>
      <trkpt lat="45.78521" lon="4.86931">
        <ele>176</ele>
        <time>2020-09-12T09:48:26Z</time>
      </trkpt>
      <trkpt lat="45.78523" lon="4.8694">
        <ele>175.7</ele>
        <time>2020-09-12T09:48:27Z</time>
      </trkpt>
      <trkpt lat="45.78524" lon="4.86948">
        <ele>175.4</ele>
        <time>2020-09-12T09:48:28Z</time>
      </trkpt>
      <trkpt lat="45.78526" lon="4.86956">
        <ele>175.2</ele>
        <time>2020-09-12T09:48:29Z</time>
      </trkpt>
      <trkpt lat="45.78527" lon="4.86964">
        <ele>174.9</ele>
        <time>2020-09-12T09:48:30Z</time>
      </trkpt>
      <trkpt lat="45.78528" lon="4.86972">
        <ele>174.7</ele>
        <time>2020-09-12T09:48:31Z</time>
      </trkpt>
      <trkpt lat="45.7853" lon="4.8698">
        <ele>174.6</ele>
        <time>2020-09-12T09:48:32Z</time>
      </trkpt>
      <trkpt lat="45.78532" lon="4.86988">
        <ele>174.5</ele>
        <time>2020-09-12T09:48:33Z</time>
      </trkpt>
      <trkpt lat="45.78532" lon="4.86995">
        <ele>174.4</ele>
        <time>2020-09-12T09:48:34Z</time>
      </trkpt>
      <trkpt lat="45.78534" lon="4.87004">
        <ele>174.3</ele>
        <time>2020-09-12T09:48:35Z</time>
      </trkpt>
      <trkpt lat="45.78534" lon="4.87012">
        <ele>174.4</ele>
        <time>2020-09-12T09:48:36Z</time>
      </trkpt>
      <trkpt lat="45.78536" lon="4.8702">
        <ele>174.6</ele>
        <time>2020-09-12T09:48:37Z</time>
      </trkpt>
      <trkpt lat="45.78538" lon="4.87028">
        <ele>174.7</ele>
        <time>2020-09-12T09:48:38Z</time>
      </trkpt>
      <trkpt lat="45.78539" lon="4.87036">
        <ele>174.9</ele>
        <time>2020-09-12T09:48:39Z</time>
      </trkpt>
      <trkpt lat="45.78542" lon="4.87044">
        <ele>175</ele>
        <time>2020-09-12T09:48:40Z</time>
      </trkpt>
      <trkpt lat="45.78543" lon="4.87053">
        <ele>175.2</ele>
        <time>2020-09-12T09:48:41Z</time>
      </trkpt>
      <trkpt lat="45.78544" lon="4.87061">
        <ele>175.4</ele>
        <time>2020-09-12T09:48:42Z</time>
      </trkpt>
      <trkpt lat="45.78546" lon="4.8707">
        <ele>175.5</ele>
        <time>2020-09-12T09:48:43Z</time>
      </trkpt>
      <trkpt lat="45.78547" lon="4.87078">
        <ele>175.7</ele>
        <time>2020-09-12T09:48:44Z</time>
      </trkpt>
      <trkpt lat="45.78548" lon="4.87087">
        <ele>176.1</ele>
        <time>2020-09-12T09:48:45Z</time>
      </trkpt>
      <trkpt lat="45.7855" lon="4.87095">
        <ele>176.1</ele>
        <time>2020-09-12T09:48:46Z</time>
      </trkpt>
      <trkpt lat="45.78552" lon="4.87103">
        <ele>176</ele>
        <time>2020-09-12T09:48:47Z</time>
      </trkpt>
      <trkpt lat="45.78553" lon="4.87111">
        <ele>176</ele>
        <time>2020-09-12T09:48:48Z</time>
      </trkpt>
      <trkpt lat="45.78556" lon="4.87119">
        <ele>175.9</ele>
        <time>2020-09-12T09:48:49Z</time>
      </trkpt>
      <trkpt lat="45.78558" lon="4.87127">
        <ele>175.9</ele>
        <time>2020-09-12T09:48:50Z</time>
      </trkpt>
      <trkpt lat="45.7856" lon="4.87135">
        <ele>175.8</ele>
        <time>2020-09-12T09:48:51Z</time>
      </trkpt>
      <trkpt lat="45.78561" lon="4.87143">
        <ele>175.9</ele>
        <time>2020-09-12T09:48:52Z</time>
      </trkpt>
      <trkpt lat="45.78564" lon="4.87151">
        <ele>176</ele>
        <time>2020-09-12T09:48:53Z</time>
      </trkpt>
      <trkpt lat="45.78566" lon="4.87159">
        <ele>176.1</ele>
        <time>2020-09-12T09:48:54Z</time>
      </trkpt>
      <trkpt lat="45.78568" lon="4.87168">
        <ele>175.7</ele>
        <time>2020-09-12T09:48:55Z</time>
      </trkpt>
      <trkpt lat="45.7857" lon="4.87176">
        <ele>175.6</ele>
        <time>2020-09-12T09:48:56Z</time>
      </trkpt>
      <trkpt lat="45.78571" lon="4.87184">
        <ele>175.4</ele>
        <time>2020-09-12T09:48:57Z</time>
      </trkpt>
      <trkpt lat="45.78573" lon="4.87193">
        <ele>175.1</ele>
        <time>2020-09-12T09:48:58Z</time>
      </trkpt>
      <trkpt lat="45.78575" lon="4.87202">
        <ele>175</ele>
        <time>2020-09-12T09:48:59Z</time>
      </trkpt>
      <trkpt lat="45.78577" lon="4.8721">
        <ele>174.8</ele>
        <time>2020-09-12T09:49:00Z</time>
      </trkpt>
      <trkpt lat="45.78579" lon="4.87219">
        <ele>174.8</ele>
        <time>2020-09-12T09:49:01Z</time>
      </trkpt>
      <trkpt lat="45.78581" lon="4.87227">
        <ele>174.8</ele>
        <time>2020-09-12T09:49:02Z</time>
      </trkpt>
      <trkpt lat="45.78582" lon="4.87235">
        <ele>174.8</ele>
        <time>2020-09-12T09:49:03Z</time>
      </trkpt>
      <trkpt lat="45.78584" lon="4.87243">
        <ele>175</ele>
        <time>2020-09-12T09:49:04Z</time>
      </trkpt>
      <trkpt lat="45.78586" lon="4.87252">
        <ele>174.9</ele>
        <time>2020-09-12T09:49:05Z</time>
      </trkpt>
      <trkpt lat="45.78588" lon="4.8726">
        <ele>174.7</ele>
        <time>2020-09-12T09:49:06Z</time>
      </trkpt>
      <trkpt lat="45.7859" lon="4.87268">
        <ele>174.5</ele>
        <time>2020-09-12T09:49:07Z</time>
      </trkpt>
      <trkpt lat="45.78592" lon="4.87276">
        <ele>174.4</ele>
        <time>2020-09-12T09:49:08Z</time>
      </trkpt>
      <trkpt lat="45.78593" lon="4.87284">
        <ele>174.3</ele>
        <time>2020-09-12T09:49:09Z</time>
      </trkpt>
      <trkpt lat="45.78595" lon="4.87292">
        <ele>174.3</ele>
        <time>2020-09-12T09:49:10Z</time>
      </trkpt>
      <trkpt lat="45.78597" lon="4.87299">
        <ele>174.3</ele>
        <time>2020-09-12T09:49:11Z</time>
      </trkpt>
      <trkpt lat="45.78598" lon="4.87307">
        <ele>174.3</ele>
        <time>2020-09-12T09:49:12Z</time>
      </trkpt>
      <trkpt lat="45.786" lon="4.87315">
        <ele>174.4</ele>
        <time>2020-09-12T09:49:13Z</time>
      </trkpt>
      <trkpt lat="45.78601" lon="4.87323">
        <ele>174.4</ele>
        <time>2020-09-12T09:49:14Z</time>
      </trkpt>
      <trkpt lat="45.78603" lon="4.8733">
        <ele>174.4</ele>
        <time>2020-09-12T09:49:15Z</time>
      </trkpt>
      <trkpt lat="45.78604" lon="4.87338">
        <ele>173.9</ele>
        <time>2020-09-12T09:49:16Z</time>
      </trkpt>
      <trkpt lat="45.78605" lon="4.87345">
        <ele>173.7</ele>
        <time>2020-09-12T09:49:17Z</time>
      </trkpt>
      <trkpt lat="45.78608" lon="4.87353">
        <ele>173.5</ele>
        <time>2020-09-12T09:49:18Z</time>
      </trkpt>
      <trkpt lat="45.7861" lon="4.8736">
        <ele>173.4</ele>
        <time>2020-09-12T09:49:19Z</time>
      </trkpt>
      <trkpt lat="45.78611" lon="4.87368">
        <ele>173.3</ele>
        <time>2020-09-12T09:49:20Z</time>
      </trkpt>
      <trkpt lat="45.78613" lon="4.87375">
        <ele>173.1</ele>
        <time>2020-09-12T09:49:21Z</time>
      </trkpt>
      <trkpt lat="45.78614" lon="4.87383">
        <ele>173</ele>
        <time>2020-09-12T09:49:22Z</time>
      </trkpt>
      <trkpt lat="45.78616" lon="4.8739">
        <ele>172.9</ele>
        <time>2020-09-12T09:49:23Z</time>
      </trkpt>
      <trkpt lat="45.78616" lon="4.87399">
        <ele>172.9</ele>
        <time>2020-09-12T09:49:24Z</time>
      </trkpt>
      <trkpt lat="45.78618" lon="4.87406">
        <ele>172.8</ele>
        <time>2020-09-12T09:49:25Z</time>
      </trkpt>
      <trkpt lat="45.78621" lon="4.87415">
        <ele>172.7</ele>
        <time>2020-09-12T09:49:26Z</time>
      </trkpt>
      <trkpt lat="45.78624" lon="4.87423">
        <ele>171.9</ele>
        <time>2020-09-12T09:49:27Z</time>
      </trkpt>
      <trkpt lat="45.78625" lon="4.87432">
        <ele>171.8</ele>
        <time>2020-09-12T09:49:28Z</time>
      </trkpt>
      <trkpt lat="45.78626" lon="4.8744">
        <ele>171.8</ele>
        <time>2020-09-12T09:49:29Z</time>
      </trkpt>
      <trkpt lat="45.78628" lon="4.8745">
        <ele>171.8</ele>
        <time>2020-09-12T09:49:30Z</time>
      </trkpt>
      <trkpt lat="45.7863" lon="4.87459">
        <ele>171.7</ele>
        <time>2020-09-12T09:49:31Z</time>
      </trkpt>
      <trkpt lat="45.78633" lon="4.87467">
        <ele>171.7</ele>
        <time>2020-09-12T09:49:32Z</time>
      </trkpt>
      <trkpt lat="45.78635" lon="4.87476">
        <ele>171.7</ele>
        <time>2020-09-12T09:49:33Z</time>
      </trkpt>
      <trkpt lat="45.78637" lon="4.87484">
        <ele>171.7</ele>
        <time>2020-09-12T09:49:34Z</time>
      </trkpt>
      <trkpt lat="45.78639" lon="4.87492">
        <ele>171.7</ele>
        <time>2020-09-12T09:49:35Z</time>
      </trkpt>
      <trkpt lat="45.78641" lon="4.87501">
        <ele>171.8</ele>
        <time>2020-09-12T09:49:36Z</time>
      </trkpt>
      <trkpt lat="45.78642" lon="4.87511">
        <ele>171.8</ele>
        <time>2020-09-12T09:49:37Z</time>
      </trkpt>
      <trkpt lat="45.78644" lon="4.87519">
        <ele>171.9</ele>
        <time>2020-09-12T09:49:38Z</time>
      </trkpt>
      <trkpt lat="45.78647" lon="4.87527">
        <ele>171.9</ele>
        <time>2020-09-12T09:49:39Z</time>
      </trkpt>
      <trkpt lat="45.78648" lon="4.87535">
        <ele>172</ele>
        <time>2020-09-12T09:49:40Z</time>
      </trkpt>
      <trkpt lat="45.7865" lon="4.87544">
        <ele>172.1</ele>
        <time>2020-09-12T09:49:41Z</time>
      </trkpt>
      <trkpt lat="45.78651" lon="4.87552">
        <ele>172.3</ele>
        <time>2020-09-12T09:49:42Z</time>
      </trkpt>
      <trkpt lat="45.78653" lon="4.8756">
        <ele>172.5</ele>
        <time>2020-09-12T09:49:43Z</time>
      </trkpt>
      <trkpt lat="45.78655" lon="4.87568">
        <ele>172.7</ele>
        <time>2020-09-12T09:49:44Z</time>
      </trkpt>
      <trkpt lat="45.78657" lon="4.87577">
        <ele>173.1</ele>
        <time>2020-09-12T09:49:45Z</time>
      </trkpt>
      <trkpt lat="45.78659" lon="4.87586">
        <ele>173.5</ele>
        <time>2020-09-12T09:49:46Z</time>
      </trkpt>
      <trkpt lat="45.78661" lon="4.87594">
        <ele>173.3</ele>
        <time>2020-09-12T09:49:47Z</time>
      </trkpt>
      <trkpt lat="45.78663" lon="4.87602">
        <ele>173.1</ele>
        <time>2020-09-12T09:49:48Z</time>
      </trkpt>
      <trkpt lat="45.78664" lon="4.87611">
        <ele>173</ele>
        <time>2020-09-12T09:49:49Z</time>
      </trkpt>
      <trkpt lat="45.78667" lon="4.8762">
        <ele>173.9</ele>
        <time>2020-09-12T09:49:50Z</time>
      </trkpt>
      <trkpt lat="45.78668" lon="4.87628">
        <ele>173.8</ele>
        <time>2020-09-12T09:49:51Z</time>
      </trkpt>
      <trkpt lat="45.7867" lon="4.87636">
        <ele>173.8</ele>
        <time>2020-09-12T09:49:52Z</time>
      </trkpt>
      <trkpt lat="45.78672" lon="4.87645">
        <ele>173.9</ele>
        <time>2020-09-12T09:49:53Z</time>
      </trkpt>
      <trkpt lat="45.78674" lon="4.87653">
        <ele>173.9</ele>
        <time>2020-09-12T09:49:54Z</time>
      </trkpt>
      <trkpt lat="45.78675" lon="4.87661">
        <ele>173.9</ele>
        <time>2020-09-12T09:49:55Z</time>
      </trkpt>
      <trkpt lat="45.78677" lon="4.8767">
        <ele>174.3</ele>
        <time>2020-09-12T09:49:56Z</time>
      </trkpt>
      <trkpt lat="45.78679" lon="4.87678">
        <ele>174.4</ele>
        <time>2020-09-12T09:49:57Z</time>
      </trkpt>
      <trkpt lat="45.78681" lon="4.87687">
        <ele>174.5</ele>
        <time>2020-09-12T09:49:58Z</time>
      </trkpt>
      <trkpt lat="45.78682" lon="4.87695">
        <ele>174.7</ele>
        <time>2020-09-12T09:49:59Z</time>
      </trkpt>
      <trkpt lat="45.78685" lon="4.87704">
        <ele>174.8</ele>
        <time>2020-09-12T09:50:00Z</time>
      </trkpt>
      <trkpt lat="45.78687" lon="4.87712">
        <ele>174.9</ele>
        <time>2020-09-12T09:50:01Z</time>
      </trkpt>
      <trkpt lat="45.78688" lon="4.87721">
        <ele>175</ele>
        <time>2020-09-12T09:50:02Z</time>
      </trkpt>
      <trkpt lat="45.7869" lon="4.87729">
        <ele>175.1</ele>
        <time>2020-09-12T09:50:03Z</time>
      </trkpt>
      <trkpt lat="45.78692" lon="4.87737">
        <ele>175.2</ele>
        <time>2020-09-12T09:50:04Z</time>
      </trkpt>
      <trkpt lat="45.78694" lon="4.87745">
        <ele>175.3</ele>
        <time>2020-09-12T09:50:05Z</time>
      </trkpt>
      <trkpt lat="45.78696" lon="4.87753">
        <ele>176.1</ele>
        <time>2020-09-12T09:50:06Z</time>
      </trkpt>
      <trkpt lat="45.78697" lon="4.87761">
        <ele>176.2</ele>
        <time>2020-09-12T09:50:07Z</time>
      </trkpt>
      <trkpt lat="45.78698" lon="4.87769">
        <ele>176.2</ele>
        <time>2020-09-12T09:50:08Z</time>
      </trkpt>
      <trkpt lat="45.78699" lon="4.87776">
        <ele>176.3</ele>
        <time>2020-09-12T09:50:09Z</time>
      </trkpt>
      <trkpt lat="45.787" lon="4.87784">
        <ele>176.3</ele>
        <time>2020-09-12T09:50:10Z</time>
      </trkpt>
      <trkpt lat="45.78702" lon="4.87792">
        <ele>176.3</ele>
        <time>2020-09-12T09:50:11Z</time>
      </trkpt>
      <trkpt lat="45.78704" lon="4.878">
        <ele>176.4</ele>
        <time>2020-09-12T09:50:12Z</time>
      </trkpt>
      <trkpt lat="45.78706" lon="4.87807">
        <ele>176.4</ele>
        <time>2020-09-12T09:50:13Z</time>
      </trkpt>
      <trkpt lat="45.78708" lon="4.87817">
        <ele>176.5</ele>
        <time>2020-09-12T09:50:14Z</time>
      </trkpt>
      <trkpt lat="45.78709" lon="4.87825">
        <ele>176.5</ele>
        <time>2020-09-12T09:50:15Z</time>
      </trkpt>
      <trkpt lat="45.78711" lon="4.87834">
        <ele>175.5</ele>
        <time>2020-09-12T09:50:16Z</time>
      </trkpt>
      <trkpt lat="45.78713" lon="4.87844">
        <ele>175.5</ele>
        <time>2020-09-12T09:50:17Z</time>
      </trkpt>
      <trkpt lat="45.78714" lon="4.87851">
        <ele>175.4</ele>
        <time>2020-09-12T09:50:18Z</time>
      </trkpt>
      <trkpt lat="45.78716" lon="4.8786">
        <ele>175.3</ele>
        <time>2020-09-12T09:50:19Z</time>
      </trkpt>
      <trkpt lat="45.78719" lon="4.87868">
        <ele>175.1</ele>
        <time>2020-09-12T09:50:20Z</time>
      </trkpt>
      <trkpt lat="45.78721" lon="4.87876">
        <ele>174.9</ele>
        <time>2020-09-12T09:50:21Z</time>
      </trkpt>
      <trkpt lat="45.78722" lon="4.87885">
        <ele>174.7</ele>
        <time>2020-09-12T09:50:22Z</time>
      </trkpt>
      <trkpt lat="45.78724" lon="4.87893">
        <ele>174.4</ele>
        <time>2020-09-12T09:50:23Z</time>
      </trkpt>
      <trkpt lat="45.78726" lon="4.87902">
        <ele>174.2</ele>
        <time>2020-09-12T09:50:24Z</time>
      </trkpt>
      <trkpt lat="45.78728" lon="4.8791">
        <ele>174</ele>
        <time>2020-09-12T09:50:25Z</time>
      </trkpt>
      <trkpt lat="45.7873" lon="4.87917">
        <ele>172.9</ele>
        <time>2020-09-12T09:50:26Z</time>
      </trkpt>
      <trkpt lat="45.78732" lon="4.87926">
        <ele>172.8</ele>
        <time>2020-09-12T09:50:27Z</time>
      </trkpt>
      <trkpt lat="45.78733" lon="4.87934">
        <ele>172.8</ele>
        <time>2020-09-12T09:50:28Z</time>
      </trkpt>
      <trkpt lat="45.78735" lon="4.87942">
        <ele>172.8</ele>
        <time>2020-09-12T09:50:29Z</time>
      </trkpt>
      <trkpt lat="45.78737" lon="4.8795">
        <ele>172.7</ele>
        <time>2020-09-12T09:50:30Z</time>
      </trkpt>
      <trkpt lat="45.7874" lon="4.87958">
        <ele>172.7</ele>
        <time>2020-09-12T09:50:31Z</time>
      </trkpt>
      <trkpt lat="45.78742" lon="4.87967">
        <ele>172.6</ele>
        <time>2020-09-12T09:50:32Z</time>
      </trkpt>
      <trkpt lat="45.78745" lon="4.87974">
        <ele>172.5</ele>
        <time>2020-09-12T09:50:33Z</time>
      </trkpt>
      <trkpt lat="45.78746" lon="4.87982">
        <ele>172.4</ele>
        <time>2020-09-12T09:50:34Z</time>
      </trkpt>
      <trkpt lat="45.78747" lon="4.8799">
        <ele>172.3</ele>
        <time>2020-09-12T09:50:35Z</time>
      </trkpt>
      <trkpt lat="45.78749" lon="4.87999">
        <ele>172.1</ele>
        <time>2020-09-12T09:50:36Z</time>
      </trkpt>
      <trkpt lat="45.78751" lon="4.88007">
        <ele>172.4</ele>
        <time>2020-09-12T09:50:37Z</time>
      </trkpt>
      <trkpt lat="45.78752" lon="4.88014">
        <ele>172.7</ele>
        <time>2020-09-12T09:50:38Z</time>
      </trkpt>
      <trkpt lat="45.78754" lon="4.88022">
        <ele>173</ele>
        <time>2020-09-12T09:50:39Z</time>
      </trkpt>
      <trkpt lat="45.78755" lon="4.8803">
        <ele>173.2</ele>
        <time>2020-09-12T09:50:40Z</time>
      </trkpt>
      <trkpt lat="45.78756" lon="4.88039">
        <ele>173.3</ele>
        <time>2020-09-12T09:50:41Z</time>
      </trkpt>
      <trkpt lat="45.78758" lon="4.88047">
        <ele>173.4</ele>
        <time>2020-09-12T09:50:42Z</time>
      </trkpt>
      <trkpt lat="45.78759" lon="4.88056">
        <ele>173.4</ele>
        <time>2020-09-12T09:50:43Z</time>
      </trkpt>
      <trkpt lat="45.78761" lon="4.88064">
        <ele>173.4</ele>
        <time>2020-09-12T09:50:44Z</time>
      </trkpt>
      <trkpt lat="45.78762" lon="4.88073">
        <ele>173.3</ele>
        <time>2020-09-12T09:50:45Z</time>
      </trkpt>
      <trkpt lat="45.78763" lon="4.88081">
        <ele>173.3</ele>
        <time>2020-09-12T09:50:46Z</time>
      </trkpt>
      <trkpt lat="45.78764" lon="4.8809">
        <ele>173.3</ele>
        <time>2020-09-12T09:50:47Z</time>
      </trkpt>
      <trkpt lat="45.78764" lon="4.88097">
        <ele>173.3</ele>
        <time>2020-09-12T09:50:48Z</time>
      </trkpt>
      <trkpt lat="45.78766" lon="4.88105">
        <ele>173.4</ele>
        <time>2020-09-12T09:50:49Z</time>
      </trkpt>
      <trkpt lat="45.78767" lon="4.88113">
        <ele>173.4</ele>
        <time>2020-09-12T09:50:50Z</time>
      </trkpt>
      <trkpt lat="45.78768" lon="4.88121">
        <ele>173.4</ele>
        <time>2020-09-12T09:50:51Z</time>
      </trkpt>
      <trkpt lat="45.78768" lon="4.88129">
        <ele>173.4</ele>
        <time>2020-09-12T09:50:52Z</time>
      </trkpt>
      <trkpt lat="45.7877" lon="4.88137">
        <ele>173.3</ele>
        <time>2020-09-12T09:50:53Z</time>
      </trkpt>
      <trkpt lat="45.78771" lon="4.88145">
        <ele>173.3</ele>
        <time>2020-09-12T09:50:54Z</time>
      </trkpt>
      <trkpt lat="45.78771" lon="4.88153">
        <ele>173.3</ele>
        <time>2020-09-12T09:50:55Z</time>
      </trkpt>
      <trkpt lat="45.7877" lon="4.88161">
        <ele>173.2</ele>
        <time>2020-09-12T09:50:56Z</time>
      </trkpt>
      <trkpt lat="45.78771" lon="4.8817">
        <ele>173.3</ele>
        <time>2020-09-12T09:50:57Z</time>
      </trkpt>
      <trkpt lat="45.78772" lon="4.88177">
        <ele>173.3</ele>
        <time>2020-09-12T09:50:58Z</time>
      </trkpt>
      <trkpt lat="45.78773" lon="4.88185">
        <ele>173.3</ele>
        <time>2020-09-12T09:50:59Z</time>
      </trkpt>
      <trkpt lat="45.78774" lon="4.88192">
        <ele>173.4</ele>
        <time>2020-09-12T09:51:00Z</time>
      </trkpt>
      <trkpt lat="45.78774" lon="4.882">
        <ele>173.4</ele>
        <time>2020-09-12T09:51:01Z</time>
      </trkpt>
      <trkpt lat="45.78774" lon="4.88208">
        <ele>173.5</ele>
        <time>2020-09-12T09:51:02Z</time>
      </trkpt>
      <trkpt lat="45.78774" lon="4.88217">
        <ele>173.6</ele>
        <time>2020-09-12T09:51:03Z</time>
      </trkpt>
      <trkpt lat="45.78774" lon="4.88225">
        <ele>173.6</ele>
        <time>2020-09-12T09:51:04Z</time>
      </trkpt>
      <trkpt lat="45.78774" lon="4.88232">
        <ele>173.7</ele>
        <time>2020-09-12T09:51:05Z</time>
      </trkpt>
      <trkpt lat="45.78773" lon="4.8824">
        <ele>173.7</ele>
        <time>2020-09-12T09:51:06Z</time>
      </trkpt>
      <trkpt lat="45.78774" lon="4.88247">
        <ele>173.7</ele>
        <time>2020-09-12T09:51:07Z</time>
      </trkpt>
      <trkpt lat="45.78774" lon="4.88255">
        <ele>174</ele>
        <time>2020-09-12T09:51:08Z</time>
      </trkpt>
      <trkpt lat="45.78774" lon="4.88263">
        <ele>174</ele>
        <time>2020-09-12T09:51:09Z</time>
      </trkpt>
      <trkpt lat="45.78773" lon="4.88271">
        <ele>174</ele>
        <time>2020-09-12T09:51:10Z</time>
      </trkpt>
      <trkpt lat="45.78774" lon="4.88279">
        <ele>174</ele>
        <time>2020-09-12T09:51:11Z</time>
      </trkpt>
      <trkpt lat="45.78774" lon="4.88287">
        <ele>174</ele>
        <time>2020-09-12T09:51:12Z</time>
      </trkpt>
      <trkpt lat="45.78774" lon="4.88295">
        <ele>174</ele>
        <time>2020-09-12T09:51:13Z</time>
      </trkpt>
      <trkpt lat="45.78774" lon="4.88303">
        <ele>174</ele>
        <time>2020-09-12T09:51:14Z</time>
      </trkpt>
      <trkpt lat="45.78774" lon="4.88311">
        <ele>174</ele>
        <time>2020-09-12T09:51:15Z</time>
      </trkpt>
      <trkpt lat="45.78774" lon="4.88319">
        <ele>174</ele>
        <time>2020-09-12T09:51:16Z</time>
      </trkpt>
      <trkpt lat="45.78774" lon="4.88327">
        <ele>174</ele>
        <time>2020-09-12T09:51:17Z</time>
      </trkpt>
      <trkpt lat="45.78773" lon="4.88334">
        <ele>173.9</ele>
        <time>2020-09-12T09:51:18Z</time>
      </trkpt>
      <trkpt lat="45.78773" lon="4.88341">
        <ele>173.9</ele>
        <time>2020-09-12T09:51:19Z</time>
      </trkpt>
      <trkpt lat="45.78773" lon="4.8835">
        <ele>173.9</ele>
        <time>2020-09-12T09:51:20Z</time>
      </trkpt>
      <trkpt lat="45.78772" lon="4.88358">
        <ele>173.9</ele>
        <time>2020-09-12T09:51:21Z</time>
      </trkpt>
      <trkpt lat="45.78771" lon="4.88365">
        <ele>173.9</ele>
        <time>2020-09-12T09:51:22Z</time>
      </trkpt>
      <trkpt lat="45.7877" lon="4.88373">
        <ele>173.9</ele>
        <time>2020-09-12T09:51:23Z</time>
      </trkpt>
      <trkpt lat="45.7877" lon="4.88381">
        <ele>174</ele>
        <time>2020-09-12T09:51:24Z</time>
      </trkpt>
      <trkpt lat="45.78769" lon="4.88388">
        <ele>174</ele>
        <time>2020-09-12T09:51:25Z</time>
      </trkpt>
      <trkpt lat="45.78768" lon="4.88396">
        <ele>174.1</ele>
        <time>2020-09-12T09:51:26Z</time>
      </trkpt>
      <trkpt lat="45.78767" lon="4.88412">
        <ele>174.3</ele>
        <time>2020-09-12T09:51:28Z</time>
      </trkpt>
      <trkpt lat="45.78766" lon="4.8842">
        <ele>174.1</ele>
        <time>2020-09-12T09:51:29Z</time>
      </trkpt>
      <trkpt lat="45.78766" lon="4.88428">
        <ele>174</ele>
        <time>2020-09-12T09:51:30Z</time>
      </trkpt>
      <trkpt lat="45.78764" lon="4.88443">
        <ele>173.7</ele>
        <time>2020-09-12T09:51:32Z</time>
      </trkpt>
      <trkpt lat="45.78763" lon="4.8845">
        <ele>173.6</ele>
        <time>2020-09-12T09:51:33Z</time>
      </trkpt>
      <trkpt lat="45.78762" lon="4.88457">
        <ele>173.5</ele>
        <time>2020-09-12T09:51:34Z</time>
      </trkpt>
      <trkpt lat="45.78762" lon="4.88465">
        <ele>173.4</ele>
        <time>2020-09-12T09:51:35Z</time>
      </trkpt>
      <trkpt lat="45.78762" lon="4.88472">
        <ele>173.3</ele>
        <time>2020-09-12T09:51:36Z</time>
      </trkpt>
      <trkpt lat="45.7876" lon="4.88479">
        <ele>173.3</ele>
        <time>2020-09-12T09:51:37Z</time>
      </trkpt>
      <trkpt lat="45.78759" lon="4.88485">
        <ele>173.2</ele>
        <time>2020-09-12T09:51:38Z</time>
      </trkpt>
      <trkpt lat="45.78758" lon="4.88493">
        <ele>173.1</ele>
        <time>2020-09-12T09:51:39Z</time>
      </trkpt>
      <trkpt lat="45.78757" lon="4.885">
        <ele>172.8</ele>
        <time>2020-09-12T09:51:40Z</time>
      </trkpt>
      <trkpt lat="45.78756" lon="4.88507">
        <ele>172.8</ele>
        <time>2020-09-12T09:51:41Z</time>
      </trkpt>
      <trkpt lat="45.78754" lon="4.88514">
        <ele>172.7</ele>
        <time>2020-09-12T09:51:42Z</time>
      </trkpt>
      <trkpt lat="45.78753" lon="4.8852">
        <ele>172.6</ele>
        <time>2020-09-12T09:51:43Z</time>
      </trkpt>
      <trkpt lat="45.78752" lon="4.88527">
        <ele>172.5</ele>
        <time>2020-09-12T09:51:44Z</time>
      </trkpt>
      <trkpt lat="45.78746" lon="4.8855">
        <ele>172.1</ele>
        <time>2020-09-12T09:51:48Z</time>
      </trkpt>
      <trkpt lat="45.78744" lon="4.88556">
        <ele>172.1</ele>
        <time>2020-09-12T09:51:49Z</time>
      </trkpt>
      <trkpt lat="45.78743" lon="4.88565">
        <ele>172</ele>
        <time>2020-09-12T09:51:51Z</time>
      </trkpt>
      <trkpt lat="45.78746" lon="4.88559">
        <ele>172.1</ele>
        <time>2020-09-12T09:52:07Z</time>
      </trkpt>
      <trkpt lat="45.7875" lon="4.88554">
        <ele>172.2</ele>
        <time>2020-09-12T09:52:12Z</time>
      </trkpt>
      <trkpt lat="45.78753" lon="4.88559">
        <ele>172.2</ele>
        <time>2020-09-12T09:52:17Z</time>
      </trkpt>
      <trkpt lat="45.78754" lon="4.88568">
        <ele>172.1</ele>
        <time>2020-09-12T09:52:21Z</time>
      </trkpt>
      <trkpt lat="45.78753" lon="4.88575">
        <ele>172.1</ele>
        <time>2020-09-12T09:52:23Z</time>
      </trkpt>
      <trkpt lat="45.78754" lon="4.88584">
        <ele>172.1</ele>
        <time>2020-09-12T09:52:26Z</time>
      </trkpt>
      <trkpt lat="45.78754" lon="4.88591">
        <ele>172.1</ele>
        <time>2020-09-12T09:52:29Z</time>
      </trkpt>
      <trkpt lat="45.78756" lon="4.88584">
        <ele>172.1</ele>
        <time>2020-09-12T09:52:33Z</time>
      </trkpt>
      <trkpt lat="45.78756" lon="4.88576">
        <ele>172.1</ele>
        <time>2020-09-12T09:52:35Z</time>
      </trkpt>
      <trkpt lat="45.78756" lon="4.88568">
        <ele>172.1</ele>
        <time>2020-09-12T09:52:37Z</time>
      </trkpt>
      <trkpt lat="45.78757" lon="4.88561">
        <ele>172.2</ele>
        <time>2020-09-12T09:52:39Z</time>
      </trkpt>
      <trkpt lat="45.78762" lon="4.88557">
        <ele>172.2</ele>
        <time>2020-09-12T09:52:41Z</time>
      </trkpt>
      <trkpt lat="45.7877" lon="4.88556">
        <ele>172.2</ele>
        <time>2020-09-12T09:52:43Z</time>
      </trkpt>
      <trkpt lat="45.7878" lon="4.88557">
        <ele>172.2</ele>
        <time>2020-09-12T09:52:45Z</time>
      </trkpt>
      <trkpt lat="45.78784" lon="4.88558">
        <ele>172.1</ele>
        <time>2020-09-12T09:52:46Z</time>
      </trkpt>
      <trkpt lat="45.78789" lon="4.88558">
        <ele>172.1</ele>
        <time>2020-09-12T09:52:47Z</time>
      </trkpt>
      <trkpt lat="45.78796" lon="4.88556">
        <ele>172.1</ele>
        <time>2020-09-12T09:52:48Z</time>
      </trkpt>
      <trkpt lat="45.78801" lon="4.88556">
        <ele>172.1</ele>
        <time>2020-09-12T09:52:49Z</time>
      </trkpt>
      <trkpt lat="45.78806" lon="4.88555">
        <ele>172.1</ele>
        <time>2020-09-12T09:52:50Z</time>
      </trkpt>
      <trkpt lat="45.78811" lon="4.88554">
        <ele>172</ele>
        <time>2020-09-12T09:52:51Z</time>
      </trkpt>
      <trkpt lat="45.78816" lon="4.88553">
        <ele>172</ele>
        <time>2020-09-12T09:52:52Z</time>
      </trkpt>
      <trkpt lat="45.7882" lon="4.88553">
        <ele>172</ele>
        <time>2020-09-12T09:52:53Z</time>
      </trkpt>
      <trkpt lat="45.78825" lon="4.88552">
        <ele>172</ele>
        <time>2020-09-12T09:52:54Z</time>
      </trkpt>
      <trkpt lat="45.7883" lon="4.88551">
        <ele>172</ele>
        <time>2020-09-12T09:52:55Z</time>
      </trkpt>
      <trkpt lat="45.78835" lon="4.88551">
        <ele>172.3</ele>
        <time>2020-09-12T09:52:56Z</time>
      </trkpt>
      <trkpt lat="45.7884" lon="4.8855">
        <ele>172.3</ele>
        <time>2020-09-12T09:52:57Z</time>
      </trkpt>
      <trkpt lat="45.78845" lon="4.8855">
        <ele>172.4</ele>
        <time>2020-09-12T09:52:58Z</time>
      </trkpt>
      <trkpt lat="45.78853" lon="4.88549">
        <ele>172.5</ele>
        <time>2020-09-12T09:53:00Z</time>
      </trkpt>
      <trkpt lat="45.78861" lon="4.8855">
        <ele>172.6</ele>
        <time>2020-09-12T09:53:02Z</time>
      </trkpt>
      <trkpt lat="45.78867" lon="4.8855">
        <ele>172.6</ele>
        <time>2020-09-12T09:53:04Z</time>
      </trkpt>
      <trkpt lat="45.78873" lon="4.8855">
        <ele>172.7</ele>
        <time>2020-09-12T09:53:06Z</time>
      </trkpt>
      <trkpt lat="45.78878" lon="4.88549">
        <ele>172.8</ele>
        <time>2020-09-12T09:53:08Z</time>
      </trkpt>
      <trkpt lat="45.78878" lon="4.88542">
        <ele>172.8</ele>
        <time>2020-09-12T09:53:12Z</time>
      </trkpt>
      <trkpt lat="45.78871" lon="4.88541">
        <ele>172.7</ele>
        <time>2020-09-12T09:53:14Z</time>
      </trkpt>
      <trkpt lat="45.78863" lon="4.88543">
        <ele>172.6</ele>
        <time>2020-09-12T09:53:16Z</time>
      </trkpt>
      <trkpt lat="45.78858" lon="4.88544">
        <ele>172.6</ele>
        <time>2020-09-12T09:53:17Z</time>
      </trkpt>
      <trkpt lat="45.78851" lon="4.88547">
        <ele>172.5</ele>
        <time>2020-09-12T09:53:18Z</time>
      </trkpt>
      <trkpt lat="45.78846" lon="4.88548">
        <ele>172.4</ele>
        <time>2020-09-12T09:53:19Z</time>
      </trkpt>
      <trkpt lat="45.78841" lon="4.88549">
        <ele>172.4</ele>
        <time>2020-09-12T09:53:20Z</time>
      </trkpt>
      <trkpt lat="45.78836" lon="4.8855">
        <ele>172.3</ele>
        <time>2020-09-12T09:53:21Z</time>
      </trkpt>
      <trkpt lat="45.7883" lon="4.8855">
        <ele>172</ele>
        <time>2020-09-12T09:53:22Z</time>
      </trkpt>
      <trkpt lat="45.78825" lon="4.88552">
        <ele>172</ele>
        <time>2020-09-12T09:53:23Z</time>
      </trkpt>
      <trkpt lat="45.78819" lon="4.88553">
        <ele>172</ele>
        <time>2020-09-12T09:53:24Z</time>
      </trkpt>
      <trkpt lat="45.78808" lon="4.88554">
        <ele>172</ele>
        <time>2020-09-12T09:53:26Z</time>
      </trkpt>
      <trkpt lat="45.78803" lon="4.88555">
        <ele>172.1</ele>
        <time>2020-09-12T09:53:27Z</time>
      </trkpt>
      <trkpt lat="45.78798" lon="4.88557">
        <ele>172.1</ele>
        <time>2020-09-12T09:53:28Z</time>
      </trkpt>
      <trkpt lat="45.78793" lon="4.88558">
        <ele>172.1</ele>
        <time>2020-09-12T09:53:29Z</time>
      </trkpt>
      <trkpt lat="45.78788" lon="4.88559">
        <ele>172.1</ele>
        <time>2020-09-12T09:53:30Z</time>
      </trkpt>
      <trkpt lat="45.78782" lon="4.88559">
        <ele>172.1</ele>
        <time>2020-09-12T09:53:31Z</time>
      </trkpt>
      <trkpt lat="45.78777" lon="4.88559">
        <ele>172.2</ele>
        <time>2020-09-12T09:53:32Z</time>
      </trkpt>
      <trkpt lat="45.78772" lon="4.88559">
        <ele>172.2</ele>
        <time>2020-09-12T09:53:33Z</time>
      </trkpt>
      <trkpt lat="45.78766" lon="4.88559">
        <ele>172.2</ele>
        <time>2020-09-12T09:53:34Z</time>
      </trkpt>
      <trkpt lat="45.78758" lon="4.88557">
        <ele>172.2</ele>
        <time>2020-09-12T09:53:36Z</time>
      </trkpt>
      <trkpt lat="45.78752" lon="4.88554">
        <ele>172.2</ele>
        <time>2020-09-12T09:53:38Z</time>
      </trkpt>
      <trkpt lat="45.78748" lon="4.88553">
        <ele>172.1</ele>
        <time>2020-09-12T09:53:43Z</time>
      </trkpt>
      <trkpt lat="45.78745" lon="4.8856">
        <ele>172.1</ele>
        <time>2020-09-12T09:53:49Z</time>
      </trkpt>
      <trkpt lat="45.78743" lon="4.88566">
        <ele>172</ele>
        <time>2020-09-12T09:53:55Z</time>
      </trkpt>
      <trkpt lat="45.78743" lon="4.88557">
        <ele>172.1</ele>
        <time>2020-09-12T09:54:08Z</time>
      </trkpt>
      <trkpt lat="45.78744" lon="4.88551">
        <ele>172.1</ele>
        <time>2020-09-12T09:54:10Z</time>
      </trkpt>
      <trkpt lat="45.78746" lon="4.88542">
        <ele>172.2</ele>
        <time>2020-09-12T09:54:12Z</time>
      </trkpt>
      <trkpt lat="45.78748" lon="4.88533">
        <ele>172.3</ele>
        <time>2020-09-12T09:54:14Z</time>
      </trkpt>
      <trkpt lat="45.7875" lon="4.88523">
        <ele>172.6</ele>
        <time>2020-09-12T09:54:16Z</time>
      </trkpt>
      <trkpt lat="45.78752" lon="4.88511">
        <ele>172.7</ele>
        <time>2020-09-12T09:54:18Z</time>
      </trkpt>
      <trkpt lat="45.78754" lon="4.88499">
        <ele>173.1</ele>
        <time>2020-09-12T09:54:20Z</time>
      </trkpt>
      <trkpt lat="45.78754" lon="4.88493">
        <ele>173.1</ele>
        <time>2020-09-12T09:54:21Z</time>
      </trkpt>
      <trkpt lat="45.78756" lon="4.88485">
        <ele>173.2</ele>
        <time>2020-09-12T09:54:22Z</time>
      </trkpt>
      <trkpt lat="45.78756" lon="4.88479">
        <ele>173.3</ele>
        <time>2020-09-12T09:54:23Z</time>
      </trkpt>
      <trkpt lat="45.78758" lon="4.88472">
        <ele>173.3</ele>
        <time>2020-09-12T09:54:24Z</time>
      </trkpt>
      <trkpt lat="45.78759" lon="4.88465">
        <ele>173.4</ele>
        <time>2020-09-12T09:54:25Z</time>
      </trkpt>
      <trkpt lat="45.78761" lon="4.88453">
        <ele>173.6</ele>
        <time>2020-09-12T09:54:27Z</time>
      </trkpt>
      <trkpt lat="45.78762" lon="4.88441">
        <ele>173.8</ele>
        <time>2020-09-12T09:54:29Z</time>
      </trkpt>
      <trkpt lat="45.78763" lon="4.88432">
        <ele>174</ele>
        <time>2020-09-12T09:54:31Z</time>
      </trkpt>
      <trkpt lat="45.78766" lon="4.88429">
        <ele>174</ele>
        <time>2020-09-12T09:54:50Z</time>
      </trkpt>
      <trkpt lat="45.78766" lon="4.88429">
        <ele>174</ele>
        <time>2020-09-12T09:54:53Z</time>
      </trkpt>
      <trkpt lat="45.78764" lon="4.88433">
        <ele>173.9</ele>
        <time>2020-09-12T09:55:20Z</time>
      </trkpt>
      <trkpt lat="45.78764" lon="4.88433">
        <ele>173.9</ele>
        <time>2020-09-12T09:55:21Z</time>
      </trkpt>
      <trkpt lat="45.78764" lon="4.88433">
        <ele>173.9</ele>
        <time>2020-09-12T09:55:50Z</time>
      </trkpt>
      <trkpt lat="45.78764" lon="4.88433">
        <ele>173.9</ele>
        <time>2020-09-12T09:55:51Z</time>
      </trkpt>
      <trkpt lat="45.78764" lon="4.88433">
        <ele>173.9</ele>
        <time>2020-09-12T09:56:20Z</time>
      </trkpt>
      <trkpt lat="45.78765" lon="4.88427">
        <ele>174</ele>
        <time>2020-09-12T09:56:47Z</time>
      </trkpt>
      <trkpt lat="45.78766" lon="4.88419">
        <ele>174.1</ele>
        <time>2020-09-12T09:56:49Z</time>
      </trkpt>
      <trkpt lat="45.78767" lon="4.88408">
        <ele>174.3</ele>
        <time>2020-09-12T09:56:51Z</time>
      </trkpt>
      <trkpt lat="45.78768" lon="4.88396">
        <ele>174.1</ele>
        <time>2020-09-12T09:56:53Z</time>
      </trkpt>
      <trkpt lat="45.78769" lon="4.88384">
        <ele>174</ele>
        <time>2020-09-12T09:56:55Z</time>
      </trkpt>
      <trkpt lat="45.7877" lon="4.88372">
        <ele>173.9</ele>
        <time>2020-09-12T09:56:57Z</time>
      </trkpt>
      <trkpt lat="45.78771" lon="4.8836">
        <ele>173.9</ele>
        <time>2020-09-12T09:56:59Z</time>
      </trkpt>
      <trkpt lat="45.78772" lon="4.88347">
        <ele>173.9</ele>
        <time>2020-09-12T09:57:01Z</time>
      </trkpt>
      <trkpt lat="45.78773" lon="4.88335">
        <ele>173.9</ele>
        <time>2020-09-12T09:57:03Z</time>
      </trkpt>
      <trkpt lat="45.78774" lon="4.88322">
        <ele>174</ele>
        <time>2020-09-12T09:57:05Z</time>
      </trkpt>
      <trkpt lat="45.78774" lon="4.88315">
        <ele>174</ele>
        <time>2020-09-12T09:57:06Z</time>
      </trkpt>
      <trkpt lat="45.78775" lon="4.88308">
        <ele>174</ele>
        <time>2020-09-12T09:57:07Z</time>
      </trkpt>
      <trkpt lat="45.78775" lon="4.88301">
        <ele>174</ele>
        <time>2020-09-12T09:57:08Z</time>
      </trkpt>
      <trkpt lat="45.78775" lon="4.88294">
        <ele>174</ele>
        <time>2020-09-12T09:57:09Z</time>
      </trkpt>
      <trkpt lat="45.78775" lon="4.88287">
        <ele>174</ele>
        <time>2020-09-12T09:57:10Z</time>
      </trkpt>
      <trkpt lat="45.78775" lon="4.8828">
        <ele>174</ele>
        <time>2020-09-12T09:57:11Z</time>
      </trkpt>
      <trkpt lat="45.78775" lon="4.88273">
        <ele>174</ele>
        <time>2020-09-12T09:57:12Z</time>
      </trkpt>
      <trkpt lat="45.78775" lon="4.88266">
        <ele>174</ele>
        <time>2020-09-12T09:57:13Z</time>
      </trkpt>
      <trkpt lat="45.78775" lon="4.88259">
        <ele>174</ele>
        <time>2020-09-12T09:57:14Z</time>
      </trkpt>
      <trkpt lat="45.78775" lon="4.88251">
        <ele>174</ele>
        <time>2020-09-12T09:57:15Z</time>
      </trkpt>
      <trkpt lat="45.78775" lon="4.88244">
        <ele>173.7</ele>
        <time>2020-09-12T09:57:16Z</time>
      </trkpt>
      <trkpt lat="45.78775" lon="4.88238">
        <ele>173.7</ele>
        <time>2020-09-12T09:57:17Z</time>
      </trkpt>
      <trkpt lat="45.78775" lon="4.88231">
        <ele>173.6</ele>
        <time>2020-09-12T09:57:18Z</time>
      </trkpt>
      <trkpt lat="45.78775" lon="4.88224">
        <ele>173.6</ele>
        <time>2020-09-12T09:57:19Z</time>
      </trkpt>
      <trkpt lat="45.78774" lon="4.88217">
        <ele>173.6</ele>
        <time>2020-09-12T09:57:20Z</time>
      </trkpt>
      <trkpt lat="45.78774" lon="4.88211">
        <ele>173.5</ele>
        <time>2020-09-12T09:57:21Z</time>
      </trkpt>
      <trkpt lat="45.78774" lon="4.88204">
        <ele>173.5</ele>
        <time>2020-09-12T09:57:22Z</time>
      </trkpt>
      <trkpt lat="45.78773" lon="4.88197">
        <ele>173.4</ele>
        <time>2020-09-12T09:57:23Z</time>
      </trkpt>
      <trkpt lat="45.78773" lon="4.8819">
        <ele>173.4</ele>
        <time>2020-09-12T09:57:24Z</time>
      </trkpt>
      <trkpt lat="45.78772" lon="4.88183">
        <ele>173.3</ele>
        <time>2020-09-12T09:57:25Z</time>
      </trkpt>
      <trkpt lat="45.78772" lon="4.88175">
        <ele>173.3</ele>
        <time>2020-09-12T09:57:26Z</time>
      </trkpt>
      <trkpt lat="45.7877" lon="4.88169">
        <ele>173.3</ele>
        <time>2020-09-12T09:57:27Z</time>
      </trkpt>
      <trkpt lat="45.78769" lon="4.88155">
        <ele>173.2</ele>
        <time>2020-09-12T09:57:29Z</time>
      </trkpt>
      <trkpt lat="45.78769" lon="4.88144">
        <ele>173.3</ele>
        <time>2020-09-12T09:57:31Z</time>
      </trkpt>
      <trkpt lat="45.78769" lon="4.88135">
        <ele>173.3</ele>
        <time>2020-09-12T09:57:33Z</time>
      </trkpt>
      <trkpt lat="45.78773" lon="4.88129">
        <ele>173.4</ele>
        <time>2020-09-12T09:57:36Z</time>
      </trkpt>
      <trkpt lat="45.7878" lon="4.88127">
        <ele>173.4</ele>
        <time>2020-09-12T09:57:39Z</time>
      </trkpt>
      <trkpt lat="45.78785" lon="4.88131">
        <ele>173.4</ele>
        <time>2020-09-12T09:57:41Z</time>
      </trkpt>
      <trkpt lat="45.7879" lon="4.88138">
        <ele>173.4</ele>
        <time>2020-09-12T09:57:43Z</time>
      </trkpt>
      <trkpt lat="45.78792" lon="4.88151">
        <ele>173.4</ele>
        <time>2020-09-12T09:57:45Z</time>
      </trkpt>
      <trkpt lat="45.78791" lon="4.88157">
        <ele>173.3</ele>
        <time>2020-09-12T09:57:46Z</time>
      </trkpt>
      <trkpt lat="45.7879" lon="4.88164">
        <ele>173.3</ele>
        <time>2020-09-12T09:57:47Z</time>
      </trkpt>
      <trkpt lat="45.78788" lon="4.8817">
        <ele>173.3</ele>
        <time>2020-09-12T09:57:48Z</time>
      </trkpt>
      <trkpt lat="45.78787" lon="4.88177">
        <ele>173.3</ele>
        <time>2020-09-12T09:57:49Z</time>
      </trkpt>
      <trkpt lat="45.78787" lon="4.88183">
        <ele>173.4</ele>
        <time>2020-09-12T09:57:50Z</time>
      </trkpt>
      <trkpt lat="45.78786" lon="4.8819">
        <ele>173.4</ele>
        <time>2020-09-12T09:57:51Z</time>
      </trkpt>
      <trkpt lat="45.78785" lon="4.88196">
        <ele>173.4</ele>
        <time>2020-09-12T09:57:52Z</time>
      </trkpt>
      <trkpt lat="45.78784" lon="4.88203">
        <ele>173.5</ele>
        <time>2020-09-12T09:57:53Z</time>
      </trkpt>
      <trkpt lat="45.78784" lon="4.88212">
        <ele>173.5</ele>
        <time>2020-09-12T09:57:55Z</time>
      </trkpt>
      <trkpt lat="45.78787" lon="4.88219">
        <ele>173.6</ele>
        <time>2020-09-12T09:57:58Z</time>
      </trkpt>
      <trkpt lat="45.78791" lon="4.88216">
        <ele>173.5</ele>
        <time>2020-09-12T09:58:00Z</time>
      </trkpt>
      <trkpt lat="45.78795" lon="4.88207">
        <ele>173.5</ele>
        <time>2020-09-12T09:58:02Z</time>
      </trkpt>
      <trkpt lat="45.78798" lon="4.88196">
        <ele>173.4</ele>
        <time>2020-09-12T09:58:04Z</time>
      </trkpt>
      <trkpt lat="45.788" lon="4.8819">
        <ele>173.4</ele>
        <time>2020-09-12T09:58:05Z</time>
      </trkpt>
      <trkpt lat="45.78802" lon="4.88184">
        <ele>173.4</ele>
        <time>2020-09-12T09:58:06Z</time>
      </trkpt>
      <trkpt lat="45.78804" lon="4.88176">
        <ele>173.3</ele>
        <time>2020-09-12T09:58:07Z</time>
      </trkpt>
      <trkpt lat="45.78809" lon="4.88165">
        <ele>173.3</ele>
        <time>2020-09-12T09:58:09Z</time>
      </trkpt>
      <trkpt lat="45.78813" lon="4.88155">
        <ele>173.3</ele>
        <time>2020-09-12T09:58:11Z</time>
      </trkpt>
      <trkpt lat="45.78817" lon="4.88146">
        <ele>173.4</ele>
        <time>2020-09-12T09:58:13Z</time>
      </trkpt>
      <trkpt lat="45.78821" lon="4.88143">
        <ele>173.4</ele>
        <time>2020-09-12T09:58:16Z</time>
      </trkpt>
      <trkpt lat="45.78825" lon="4.88148">
        <ele>173.3</ele>
        <time>2020-09-12T09:58:18Z</time>
      </trkpt>
      <trkpt lat="45.78827" lon="4.88157">
        <ele>173.2</ele>
        <time>2020-09-12T09:58:20Z</time>
      </trkpt>
      <trkpt lat="45.78828" lon="4.88168">
        <ele>173.1</ele>
        <time>2020-09-12T09:58:22Z</time>
      </trkpt>
      <trkpt lat="45.78831" lon="4.8818">
        <ele>173.2</ele>
        <time>2020-09-12T09:58:24Z</time>
      </trkpt>
      <trkpt lat="45.78834" lon="4.88187">
        <ele>172.8</ele>
        <time>2020-09-12T09:58:25Z</time>
      </trkpt>
      <trkpt lat="45.78836" lon="4.88193">
        <ele>172.8</ele>
        <time>2020-09-12T09:58:26Z</time>
      </trkpt>
      <trkpt lat="45.78838" lon="4.88199">
        <ele>172.8</ele>
        <time>2020-09-12T09:58:27Z</time>
      </trkpt>
      <trkpt lat="45.78841" lon="4.88204">
        <ele>172.8</ele>
        <time>2020-09-12T09:58:28Z</time>
      </trkpt>
      <trkpt lat="45.78844" lon="4.88211">
        <ele>172.8</ele>
        <time>2020-09-12T09:58:29Z</time>
      </trkpt>
      <trkpt lat="45.78848" lon="4.88216">
        <ele>172.9</ele>
        <time>2020-09-12T09:58:30Z</time>
      </trkpt>
      <trkpt lat="45.78851" lon="4.88222">
        <ele>172.9</ele>
        <time>2020-09-12T09:58:31Z</time>
      </trkpt>
      <trkpt lat="45.78854" lon="4.88228">
        <ele>172.9</ele>
        <time>2020-09-12T09:58:32Z</time>
      </trkpt>
      <trkpt lat="45.78857" lon="4.88233">
        <ele>173</ele>
        <time>2020-09-12T09:58:33Z</time>
      </trkpt>
      <trkpt lat="45.78861" lon="4.88238">
        <ele>172.9</ele>
        <time>2020-09-12T09:58:34Z</time>
      </trkpt>
      <trkpt lat="45.78867" lon="4.88248">
        <ele>172.8</ele>
        <time>2020-09-12T09:58:36Z</time>
      </trkpt>
      <trkpt lat="45.7887" lon="4.88253">
        <ele>173.1</ele>
        <time>2020-09-12T09:58:37Z</time>
      </trkpt>
      <trkpt lat="45.78874" lon="4.88258">
        <ele>173</ele>
        <time>2020-09-12T09:58:38Z</time>
      </trkpt>
      <trkpt lat="45.78878" lon="4.88262">
        <ele>172.9</ele>
        <time>2020-09-12T09:58:39Z</time>
      </trkpt>
      <trkpt lat="45.78883" lon="4.88266">
        <ele>172.9</ele>
        <time>2020-09-12T09:58:40Z</time>
      </trkpt>
      <trkpt lat="45.78887" lon="4.8827">
        <ele>172.8</ele>
        <time>2020-09-12T09:58:41Z</time>
      </trkpt>
      <trkpt lat="45.78891" lon="4.88274">
        <ele>172.8</ele>
        <time>2020-09-12T09:58:42Z</time>
      </trkpt>
      <trkpt lat="45.78896" lon="4.88278">
        <ele>172.7</ele>
        <time>2020-09-12T09:58:43Z</time>
      </trkpt>
      <trkpt lat="45.78902" lon="4.88282">
        <ele>172.7</ele>
        <time>2020-09-12T09:58:44Z</time>
      </trkpt>
      <trkpt lat="45.78907" lon="4.88285">
        <ele>172.7</ele>
        <time>2020-09-12T09:58:45Z</time>
      </trkpt>
      <trkpt lat="45.78912" lon="4.88289">
        <ele>172.6</ele>
        <time>2020-09-12T09:58:46Z</time>
      </trkpt>
      <trkpt lat="45.78917" lon="4.88292">
        <ele>172.3</ele>
        <time>2020-09-12T09:58:47Z</time>
      </trkpt>
      <trkpt lat="45.78923" lon="4.88295">
        <ele>172.3</ele>
        <time>2020-09-12T09:58:48Z</time>
      </trkpt>
      <trkpt lat="45.78928" lon="4.88298">
        <ele>172.3</ele>
        <time>2020-09-12T09:58:49Z</time>
      </trkpt>
      <trkpt lat="45.78939" lon="4.88301">
        <ele>172.4</ele>
        <time>2020-09-12T09:58:51Z</time>
      </trkpt>
      <trkpt lat="45.78944" lon="4.88303">
        <ele>172.4</ele>
        <time>2020-09-12T09:58:52Z</time>
      </trkpt>
      <trkpt lat="45.78949" lon="4.88304">
        <ele>172.4</ele>
        <time>2020-09-12T09:58:53Z</time>
      </trkpt>
      <trkpt lat="45.78955" lon="4.88305">
        <ele>172.5</ele>
        <time>2020-09-12T09:58:54Z</time>
      </trkpt>
      <trkpt lat="45.7896" lon="4.88307">
        <ele>172.5</ele>
        <time>2020-09-12T09:58:55Z</time>
      </trkpt>
      <trkpt lat="45.78966" lon="4.88308">
        <ele>172.6</ele>
        <time>2020-09-12T09:58:56Z</time>
      </trkpt>
      <trkpt lat="45.78971" lon="4.88308">
        <ele>172.6</ele>
        <time>2020-09-12T09:58:57Z</time>
      </trkpt>
      <trkpt lat="45.78976" lon="4.88308">
        <ele>172.6</ele>
        <time>2020-09-12T09:58:58Z</time>
      </trkpt>
      <trkpt lat="45.78982" lon="4.88307">
        <ele>172.7</ele>
        <time>2020-09-12T09:58:59Z</time>
      </trkpt>
      <trkpt lat="45.78988" lon="4.88307">
        <ele>172.7</ele>
        <time>2020-09-12T09:59:00Z</time>
      </trkpt>
      <trkpt lat="45.78993" lon="4.88305">
        <ele>172.7</ele>
        <time>2020-09-12T09:59:01Z</time>
      </trkpt>
      <trkpt lat="45.79" lon="4.88304">
        <ele>172.7</ele>
        <time>2020-09-12T09:59:02Z</time>
      </trkpt>
      <trkpt lat="45.79005" lon="4.88303">
        <ele>172.2</ele>
        <time>2020-09-12T09:59:03Z</time>
      </trkpt>
      <trkpt lat="45.79011" lon="4.88301">
        <ele>172.2</ele>
        <time>2020-09-12T09:59:04Z</time>
      </trkpt>
      <trkpt lat="45.79017" lon="4.88298">
        <ele>172.1</ele>
        <time>2020-09-12T09:59:05Z</time>
      </trkpt>
      <trkpt lat="45.79022" lon="4.88295">
        <ele>172</ele>
        <time>2020-09-12T09:59:06Z</time>
      </trkpt>
      <trkpt lat="45.79027" lon="4.88293">
        <ele>172</ele>
        <time>2020-09-12T09:59:07Z</time>
      </trkpt>
      <trkpt lat="45.79033" lon="4.8829">
        <ele>171.9</ele>
        <time>2020-09-12T09:59:08Z</time>
      </trkpt>
      <trkpt lat="45.79039" lon="4.88287">
        <ele>171.8</ele>
        <time>2020-09-12T09:59:09Z</time>
      </trkpt>
      <trkpt lat="45.79043" lon="4.88281">
        <ele>171.7</ele>
        <time>2020-09-12T09:59:10Z</time>
      </trkpt>
      <trkpt lat="45.79048" lon="4.88278">
        <ele>171.6</ele>
        <time>2020-09-12T09:59:11Z</time>
      </trkpt>
      <trkpt lat="45.79052" lon="4.88274">
        <ele>171.5</ele>
        <time>2020-09-12T09:59:12Z</time>
      </trkpt>
      <trkpt lat="45.79057" lon="4.8827">
        <ele>171.4</ele>
        <time>2020-09-12T09:59:13Z</time>
      </trkpt>
      <trkpt lat="45.79062" lon="4.88266">
        <ele>171.2</ele>
        <time>2020-09-12T09:59:14Z</time>
      </trkpt>
      <trkpt lat="45.79067" lon="4.88259">
        <ele>171</ele>
        <time>2020-09-12T09:59:15Z</time>
      </trkpt>
      <trkpt lat="45.79071" lon="4.88255">
        <ele>170.7</ele>
        <time>2020-09-12T09:59:16Z</time>
      </trkpt>
      <trkpt lat="45.79076" lon="4.8825">
        <ele>170.4</ele>
        <time>2020-09-12T09:59:17Z</time>
      </trkpt>
      <trkpt lat="45.7908" lon="4.88244">
        <ele>170.4</ele>
        <time>2020-09-12T09:59:18Z</time>
      </trkpt>
      <trkpt lat="45.79084" lon="4.88238">
        <ele>169.8</ele>
        <time>2020-09-12T09:59:19Z</time>
      </trkpt>
      <trkpt lat="45.79087" lon="4.88232">
        <ele>169.8</ele>
        <time>2020-09-12T09:59:20Z</time>
      </trkpt>
      <trkpt lat="45.79091" lon="4.88225">
        <ele>169.7</ele>
        <time>2020-09-12T09:59:21Z</time>
      </trkpt>
      <trkpt lat="45.79095" lon="4.88218">
        <ele>169.7</ele>
        <time>2020-09-12T09:59:22Z</time>
      </trkpt>
      <trkpt lat="45.79097" lon="4.88211">
        <ele>169.6</ele>
        <time>2020-09-12T09:59:23Z</time>
      </trkpt>
      <trkpt lat="45.791" lon="4.88204">
        <ele>169.6</ele>
        <time>2020-09-12T09:59:24Z</time>
      </trkpt>
      <trkpt lat="45.79103" lon="4.88197">
        <ele>169.6</ele>
        <time>2020-09-12T09:59:25Z</time>
      </trkpt>
      <trkpt lat="45.79106" lon="4.88191">
        <ele>169.6</ele>
        <time>2020-09-12T09:59:26Z</time>
      </trkpt>
      <trkpt lat="45.79108" lon="4.88184">
        <ele>169.6</ele>
        <time>2020-09-12T09:59:27Z</time>
      </trkpt>
      <trkpt lat="45.7911" lon="4.88175">
        <ele>169.6</ele>
        <time>2020-09-12T09:59:29Z</time>
      </trkpt>
      <trkpt lat="45.79113" lon="4.88169">
        <ele>169.6</ele>
        <time>2020-09-12T09:59:30Z</time>
      </trkpt>
      <trkpt lat="45.79116" lon="4.88162">
        <ele>169.3</ele>
        <time>2020-09-12T09:59:31Z</time>
      </trkpt>
      <trkpt lat="45.79118" lon="4.88156">
        <ele>169.2</ele>
        <time>2020-09-12T09:59:32Z</time>
      </trkpt>
      <trkpt lat="45.79124" lon="4.88146">
        <ele>169.1</ele>
        <time>2020-09-12T09:59:34Z</time>
      </trkpt>
      <trkpt lat="45.79131" lon="4.88141">
        <ele>169</ele>
        <time>2020-09-12T09:59:36Z</time>
      </trkpt>
      <trkpt lat="45.79135" lon="4.88139">
        <ele>169</ele>
        <time>2020-09-12T09:59:37Z</time>
      </trkpt>
      <trkpt lat="45.79143" lon="4.88137">
        <ele>168.9</ele>
        <time>2020-09-12T09:59:39Z</time>
      </trkpt>
      <trkpt lat="45.79151" lon="4.88137">
        <ele>168.9</ele>
        <time>2020-09-12T09:59:41Z</time>
      </trkpt>
      <trkpt lat="45.79155" lon="4.88137">
        <ele>168.8</ele>
        <time>2020-09-12T09:59:42Z</time>
      </trkpt>
      <trkpt lat="45.7916" lon="4.88136">
        <ele>168.8</ele>
        <time>2020-09-12T09:59:43Z</time>
      </trkpt>
      <trkpt lat="45.79165" lon="4.88134">
        <ele>168.8</ele>
        <time>2020-09-12T09:59:44Z</time>
      </trkpt>
      <trkpt lat="45.7917" lon="4.88134">
        <ele>168.2</ele>
        <time>2020-09-12T09:59:45Z</time>
      </trkpt>
      <trkpt lat="45.79174" lon="4.88133">
        <ele>168.1</ele>
        <time>2020-09-12T09:59:46Z</time>
      </trkpt>
      <trkpt lat="45.79179" lon="4.88131">
        <ele>168.1</ele>
        <time>2020-09-12T09:59:47Z</time>
      </trkpt>
      <trkpt lat="45.79184" lon="4.88128">
        <ele>168.1</ele>
        <time>2020-09-12T09:59:48Z</time>
      </trkpt>
      <trkpt lat="45.79189" lon="4.88126">
        <ele>168</ele>
        <time>2020-09-12T09:59:49Z</time>
      </trkpt>
      <trkpt lat="45.79194" lon="4.88124">
        <ele>168</ele>
        <time>2020-09-12T09:59:50Z</time>
      </trkpt>
      <trkpt lat="45.79199" lon="4.8812">
        <ele>167.9</ele>
        <time>2020-09-12T09:59:51Z</time>
      </trkpt>
      <trkpt lat="45.79203" lon="4.88117">
        <ele>167.9</ele>
        <time>2020-09-12T09:59:52Z</time>
      </trkpt>
      <trkpt lat="45.79208" lon="4.88113">
        <ele>167.8</ele>
        <time>2020-09-12T09:59:53Z</time>
      </trkpt>
      <trkpt lat="45.79213" lon="4.88109">
        <ele>167.7</ele>
        <time>2020-09-12T09:59:54Z</time>
      </trkpt>
      <trkpt lat="45.79218" lon="4.88105">
        <ele>167.6</ele>
        <time>2020-09-12T09:59:55Z</time>
      </trkpt>
      <trkpt lat="45.79222" lon="4.88102">
        <ele>167.5</ele>
        <time>2020-09-12T09:59:56Z</time>
      </trkpt>
      <trkpt lat="45.79227" lon="4.88098">
        <ele>167.3</ele>
        <time>2020-09-12T09:59:57Z</time>
      </trkpt>
      <trkpt lat="45.79232" lon="4.88095">
        <ele>167.2</ele>
        <time>2020-09-12T09:59:58Z</time>
      </trkpt>
      <trkpt lat="45.79237" lon="4.88093">
        <ele>167</ele>
        <time>2020-09-12T09:59:59Z</time>
      </trkpt>
      <trkpt lat="45.79242" lon="4.88091">
        <ele>166.7</ele>
        <time>2020-09-12T10:00:00Z</time>
      </trkpt>
      <trkpt lat="45.79248" lon="4.88088">
        <ele>166.4</ele>
        <time>2020-09-12T10:00:01Z</time>
      </trkpt>
      <trkpt lat="45.79252" lon="4.88085">
        <ele>166.2</ele>
        <time>2020-09-12T10:00:02Z</time>
      </trkpt>
      <trkpt lat="45.7926" lon="4.8808">
        <ele>166.3</ele>
        <time>2020-09-12T10:00:04Z</time>
      </trkpt>
      <trkpt lat="45.79266" lon="4.88079">
        <ele>166.4</ele>
        <time>2020-09-12T10:00:06Z</time>
      </trkpt>
      <trkpt lat="45.79271" lon="4.88084">
        <ele>166.9</ele>
        <time>2020-09-12T10:00:08Z</time>
      </trkpt>
      <trkpt lat="45.79277" lon="4.88091">
        <ele>167</ele>
        <time>2020-09-12T10:00:10Z</time>
      </trkpt>
      <trkpt lat="45.79282" lon="4.88101">
        <ele>167.2</ele>
        <time>2020-09-12T10:00:12Z</time>
      </trkpt>
      <trkpt lat="45.79284" lon="4.88107">
        <ele>167.3</ele>
        <time>2020-09-12T10:00:13Z</time>
      </trkpt>
      <trkpt lat="45.79287" lon="4.88113">
        <ele>167.4</ele>
        <time>2020-09-12T10:00:14Z</time>
      </trkpt>
      <trkpt lat="45.7929" lon="4.88119">
        <ele>167.4</ele>
        <time>2020-09-12T10:00:15Z</time>
      </trkpt>
      <trkpt lat="45.79292" lon="4.88126">
        <ele>167.5</ele>
        <time>2020-09-12T10:00:16Z</time>
      </trkpt>
      <trkpt lat="45.79295" lon="4.88133">
        <ele>167.6</ele>
        <time>2020-09-12T10:00:17Z</time>
      </trkpt>
      <trkpt lat="45.79297" lon="4.8814">
        <ele>167.6</ele>
        <time>2020-09-12T10:00:18Z</time>
      </trkpt>
      <trkpt lat="45.79299" lon="4.88147">
        <ele>167.6</ele>
        <time>2020-09-12T10:00:19Z</time>
      </trkpt>
      <trkpt lat="45.79301" lon="4.88154">
        <ele>167.6</ele>
        <time>2020-09-12T10:00:20Z</time>
      </trkpt>
      <trkpt lat="45.79302" lon="4.88161">
        <ele>167.6</ele>
        <time>2020-09-12T10:00:21Z</time>
      </trkpt>
      <trkpt lat="45.79303" lon="4.88169">
        <ele>168.2</ele>
        <time>2020-09-12T10:00:22Z</time>
      </trkpt>
      <trkpt lat="45.79305" lon="4.88176">
        <ele>168.2</ele>
        <time>2020-09-12T10:00:23Z</time>
      </trkpt>
      <trkpt lat="45.79305" lon="4.88184">
        <ele>168.2</ele>
        <time>2020-09-12T10:00:24Z</time>
      </trkpt>
      <trkpt lat="45.79305" lon="4.88192">
        <ele>168.3</ele>
        <time>2020-09-12T10:00:25Z</time>
      </trkpt>
      <trkpt lat="45.79306" lon="4.88199">
        <ele>168.3</ele>
        <time>2020-09-12T10:00:26Z</time>
      </trkpt>
      <trkpt lat="45.79305" lon="4.88208">
        <ele>168.3</ele>
        <time>2020-09-12T10:00:27Z</time>
      </trkpt>
      <trkpt lat="45.79305" lon="4.88216">
        <ele>168.4</ele>
        <time>2020-09-12T10:00:28Z</time>
      </trkpt>
      <trkpt lat="45.79305" lon="4.88224">
        <ele>168.4</ele>
        <time>2020-09-12T10:00:29Z</time>
      </trkpt>
      <trkpt lat="45.79304" lon="4.88232">
        <ele>168.4</ele>
        <time>2020-09-12T10:00:30Z</time>
      </trkpt>
      <trkpt lat="45.79304" lon="4.88241">
        <ele>168.4</ele>
        <time>2020-09-12T10:00:31Z</time>
      </trkpt>
      <trkpt lat="45.79303" lon="4.88248">
        <ele>168.4</ele>
        <time>2020-09-12T10:00:32Z</time>
      </trkpt>
      <trkpt lat="45.79302" lon="4.88256">
        <ele>168.6</ele>
        <time>2020-09-12T10:00:33Z</time>
      </trkpt>
      <trkpt lat="45.79301" lon="4.88265">
        <ele>168.6</ele>
        <time>2020-09-12T10:00:34Z</time>
      </trkpt>
      <trkpt lat="45.793" lon="4.88273">
        <ele>168.6</ele>
        <time>2020-09-12T10:00:35Z</time>
      </trkpt>
      <trkpt lat="45.79299" lon="4.88281">
        <ele>168.7</ele>
        <time>2020-09-12T10:00:36Z</time>
      </trkpt>
      <trkpt lat="45.79298" lon="4.88288">
        <ele>168.7</ele>
        <time>2020-09-12T10:00:37Z</time>
      </trkpt>
      <trkpt lat="45.79297" lon="4.88295">
        <ele>168.7</ele>
        <time>2020-09-12T10:00:38Z</time>
      </trkpt>
      <trkpt lat="45.79295" lon="4.88303">
        <ele>168.7</ele>
        <time>2020-09-12T10:00:39Z</time>
      </trkpt>
      <trkpt lat="45.79292" lon="4.88309">
        <ele>168.8</ele>
        <time>2020-09-12T10:00:40Z</time>
      </trkpt>
      <trkpt lat="45.79289" lon="4.88316">
        <ele>168.9</ele>
        <time>2020-09-12T10:00:41Z</time>
      </trkpt>
      <trkpt lat="45.79286" lon="4.88322">
        <ele>168.9</ele>
        <time>2020-09-12T10:00:42Z</time>
      </trkpt>
      <trkpt lat="45.79282" lon="4.88329">
        <ele>169</ele>
        <time>2020-09-12T10:00:43Z</time>
      </trkpt>
      <trkpt lat="45.79279" lon="4.88335">
        <ele>168.9</ele>
        <time>2020-09-12T10:00:44Z</time>
      </trkpt>
      <trkpt lat="45.79274" lon="4.8834">
        <ele>169</ele>
        <time>2020-09-12T10:00:45Z</time>
      </trkpt>
      <trkpt lat="45.7927" lon="4.88345">
        <ele>169</ele>
        <time>2020-09-12T10:00:46Z</time>
      </trkpt>
      <trkpt lat="45.79266" lon="4.88349">
        <ele>169.1</ele>
        <time>2020-09-12T10:00:47Z</time>
      </trkpt>
      <trkpt lat="45.79262" lon="4.88355">
        <ele>169</ele>
        <time>2020-09-12T10:00:48Z</time>
      </trkpt>
      <trkpt lat="45.79258" lon="4.88359">
        <ele>169</ele>
        <time>2020-09-12T10:00:49Z</time>
      </trkpt>
      <trkpt lat="45.79254" lon="4.88364">
        <ele>168.9</ele>
        <time>2020-09-12T10:00:50Z</time>
      </trkpt>
      <trkpt lat="45.7925" lon="4.88369">
        <ele>170</ele>
        <time>2020-09-12T10:00:51Z</time>
      </trkpt>
      <trkpt lat="45.79247" lon="4.88375">
        <ele>170</ele>
        <time>2020-09-12T10:00:52Z</time>
      </trkpt>
      <trkpt lat="45.79243" lon="4.88379">
        <ele>169.9</ele>
        <time>2020-09-12T10:00:53Z</time>
      </trkpt>
      <trkpt lat="45.79239" lon="4.88384">
        <ele>169.8</ele>
        <time>2020-09-12T10:00:54Z</time>
      </trkpt>
      <trkpt lat="45.79236" lon="4.8839">
        <ele>169.8</ele>
        <time>2020-09-12T10:00:55Z</time>
      </trkpt>
      <trkpt lat="45.79232" lon="4.88394">
        <ele>169.7</ele>
        <time>2020-09-12T10:00:56Z</time>
      </trkpt>
      <trkpt lat="45.79229" lon="4.88399">
        <ele>169.7</ele>
        <time>2020-09-12T10:00:57Z</time>
      </trkpt>
      <trkpt lat="45.79226" lon="4.88404">
        <ele>169.7</ele>
        <time>2020-09-12T10:00:58Z</time>
      </trkpt>
      <trkpt lat="45.79222" lon="4.8841">
        <ele>169.7</ele>
        <time>2020-09-12T10:00:59Z</time>
      </trkpt>
      <trkpt lat="45.79219" lon="4.88415">
        <ele>169.8</ele>
        <time>2020-09-12T10:01:00Z</time>
      </trkpt>
      <trkpt lat="45.79215" lon="4.88421">
        <ele>168.9</ele>
        <time>2020-09-12T10:01:01Z</time>
      </trkpt>
      <trkpt lat="45.79211" lon="4.88427">
        <ele>168.9</ele>
        <time>2020-09-12T10:01:02Z</time>
      </trkpt>
      <trkpt lat="45.79208" lon="4.88432">
        <ele>169</ele>
        <time>2020-09-12T10:01:03Z</time>
      </trkpt>
      <trkpt lat="45.79205" lon="4.88438">
        <ele>169</ele>
        <time>2020-09-12T10:01:04Z</time>
      </trkpt>
      <trkpt lat="45.79201" lon="4.88444">
        <ele>169</ele>
        <time>2020-09-12T10:01:05Z</time>
      </trkpt>
      <trkpt lat="45.79198" lon="4.8845">
        <ele>169</ele>
        <time>2020-09-12T10:01:06Z</time>
      </trkpt>
      <trkpt lat="45.79194" lon="4.88455">
        <ele>168.9</ele>
        <time>2020-09-12T10:01:07Z</time>
      </trkpt>
      <trkpt lat="45.7919" lon="4.88461">
        <ele>168.9</ele>
        <time>2020-09-12T10:01:08Z</time>
      </trkpt>
      <trkpt lat="45.79186" lon="4.88467">
        <ele>168.8</ele>
        <time>2020-09-12T10:01:09Z</time>
      </trkpt>
      <trkpt lat="45.79181" lon="4.88472">
        <ele>168.7</ele>
        <time>2020-09-12T10:01:10Z</time>
      </trkpt>
      <trkpt lat="45.79176" lon="4.88478">
        <ele>168.6</ele>
        <time>2020-09-12T10:01:11Z</time>
      </trkpt>
      <trkpt lat="45.79172" lon="4.88484">
        <ele>168.5</ele>
        <time>2020-09-12T10:01:12Z</time>
      </trkpt>
      <trkpt lat="45.79168" lon="4.88489">
        <ele>168.3</ele>
        <time>2020-09-12T10:01:13Z</time>
      </trkpt>
      <trkpt lat="45.79163" lon="4.88494">
        <ele>168.6</ele>
        <time>2020-09-12T10:01:14Z</time>
      </trkpt>
      <trkpt lat="45.79158" lon="4.88499">
        <ele>168.7</ele>
        <time>2020-09-12T10:01:15Z</time>
      </trkpt>
      <trkpt lat="45.79154" lon="4.88503">
        <ele>168.7</ele>
        <time>2020-09-12T10:01:16Z</time>
      </trkpt>
      <trkpt lat="45.79149" lon="4.88507">
        <ele>169</ele>
        <time>2020-09-12T10:01:17Z</time>
      </trkpt>
      <trkpt lat="45.79144" lon="4.88511">
        <ele>169.2</ele>
        <time>2020-09-12T10:01:18Z</time>
      </trkpt>
      <trkpt lat="45.79139" lon="4.88516">
        <ele>169.3</ele>
        <time>2020-09-12T10:01:19Z</time>
      </trkpt>
      <trkpt lat="45.79134" lon="4.8852">
        <ele>169.5</ele>
        <time>2020-09-12T10:01:20Z</time>
      </trkpt>
      <trkpt lat="45.79129" lon="4.88523">
        <ele>169.6</ele>
        <time>2020-09-12T10:01:21Z</time>
      </trkpt>
      <trkpt lat="45.79125" lon="4.88527">
        <ele>169.7</ele>
        <time>2020-09-12T10:01:22Z</time>
      </trkpt>
      <trkpt lat="45.79121" lon="4.88531">
        <ele>169.8</ele>
        <time>2020-09-12T10:01:23Z</time>
      </trkpt>
      <trkpt lat="45.79116" lon="4.88535">
        <ele>169.9</ele>
        <time>2020-09-12T10:01:24Z</time>
      </trkpt>
      <trkpt lat="45.79112" lon="4.88539">
        <ele>170</ele>
        <time>2020-09-12T10:01:25Z</time>
      </trkpt>
      <trkpt lat="45.79107" lon="4.88543">
        <ele>170.1</ele>
        <time>2020-09-12T10:01:26Z</time>
      </trkpt>
      <trkpt lat="45.79104" lon="4.88547">
        <ele>170.2</ele>
        <time>2020-09-12T10:01:27Z</time>
      </trkpt>
      <trkpt lat="45.79098" lon="4.88551">
        <ele>170.4</ele>
        <time>2020-09-12T10:01:28Z</time>
      </trkpt>
      <trkpt lat="45.79093" lon="4.88556">
        <ele>170.5</ele>
        <time>2020-09-12T10:01:29Z</time>
      </trkpt>
      <trkpt lat="45.79088" lon="4.88562">
        <ele>170.7</ele>
        <time>2020-09-12T10:01:30Z</time>
      </trkpt>
      <trkpt lat="45.79083" lon="4.88567">
        <ele>171.9</ele>
        <time>2020-09-12T10:01:31Z</time>
      </trkpt>
      <trkpt lat="45.79078" lon="4.88573">
        <ele>172</ele>
        <time>2020-09-12T10:01:32Z</time>
      </trkpt>
      <trkpt lat="45.79073" lon="4.88578">
        <ele>172</ele>
        <time>2020-09-12T10:01:33Z</time>
      </trkpt>
      <trkpt lat="45.79067" lon="4.88583">
        <ele>172</ele>
        <time>2020-09-12T10:01:34Z</time>
      </trkpt>
      <trkpt lat="45.79062" lon="4.88587">
        <ele>172.3</ele>
        <time>2020-09-12T10:01:35Z</time>
      </trkpt>
      <trkpt lat="45.79057" lon="4.88591">
        <ele>172.3</ele>
        <time>2020-09-12T10:01:36Z</time>
      </trkpt>
      <trkpt lat="45.79051" lon="4.88596">
        <ele>172.4</ele>
        <time>2020-09-12T10:01:37Z</time>
      </trkpt>
      <trkpt lat="45.79046" lon="4.88601">
        <ele>172.4</ele>
        <time>2020-09-12T10:01:38Z</time>
      </trkpt>
      <trkpt lat="45.79041" lon="4.88606">
        <ele>172.4</ele>
        <time>2020-09-12T10:01:39Z</time>
      </trkpt>
      <trkpt lat="45.79036" lon="4.88611">
        <ele>172.4</ele>
        <time>2020-09-12T10:01:40Z</time>
      </trkpt>
      <trkpt lat="45.7903" lon="4.88616">
        <ele>172.4</ele>
        <time>2020-09-12T10:01:41Z</time>
      </trkpt>
      <trkpt lat="45.79025" lon="4.88621">
        <ele>172.4</ele>
        <time>2020-09-12T10:01:42Z</time>
      </trkpt>
      <trkpt lat="45.7902" lon="4.88626">
        <ele>172.4</ele>
        <time>2020-09-12T10:01:43Z</time>
      </trkpt>
      <trkpt lat="45.79015" lon="4.88631">
        <ele>172.4</ele>
        <time>2020-09-12T10:01:44Z</time>
      </trkpt>
      <trkpt lat="45.79009" lon="4.88636">
        <ele>172.3</ele>
        <time>2020-09-12T10:01:45Z</time>
      </trkpt>
      <trkpt lat="45.79004" lon="4.88642">
        <ele>172.3</ele>
        <time>2020-09-12T10:01:46Z</time>
      </trkpt>
      <trkpt lat="45.78998" lon="4.88647">
        <ele>171.9</ele>
        <time>2020-09-12T10:01:47Z</time>
      </trkpt>
      <trkpt lat="45.78992" lon="4.88652">
        <ele>171.9</ele>
        <time>2020-09-12T10:01:48Z</time>
      </trkpt>
      <trkpt lat="45.78986" lon="4.88657">
        <ele>171.9</ele>
        <time>2020-09-12T10:01:49Z</time>
      </trkpt>
      <trkpt lat="45.78981" lon="4.88661">
        <ele>171.9</ele>
        <time>2020-09-12T10:01:50Z</time>
      </trkpt>
      <trkpt lat="45.78976" lon="4.88666">
        <ele>171.8</ele>
        <time>2020-09-12T10:01:51Z</time>
      </trkpt>
      <trkpt lat="45.78971" lon="4.8867">
        <ele>171.1</ele>
        <time>2020-09-12T10:01:52Z</time>
      </trkpt>
      <trkpt lat="45.78966" lon="4.88675">
        <ele>171</ele>
        <time>2020-09-12T10:01:53Z</time>
      </trkpt>
      <trkpt lat="45.78961" lon="4.88681">
        <ele>170.9</ele>
        <time>2020-09-12T10:01:54Z</time>
      </trkpt>
      <trkpt lat="45.78956" lon="4.88686">
        <ele>170.8</ele>
        <time>2020-09-12T10:01:55Z</time>
      </trkpt>
      <trkpt lat="45.78952" lon="4.88693">
        <ele>170.7</ele>
        <time>2020-09-12T10:01:56Z</time>
      </trkpt>
      <trkpt lat="45.78947" lon="4.88699">
        <ele>170.6</ele>
        <time>2020-09-12T10:01:57Z</time>
      </trkpt>
      <trkpt lat="45.78942" lon="4.88705">
        <ele>170.4</ele>
        <time>2020-09-12T10:01:58Z</time>
      </trkpt>
      <trkpt lat="45.78937" lon="4.88712">
        <ele>170.3</ele>
        <time>2020-09-12T10:01:59Z</time>
      </trkpt>
      <trkpt lat="45.78933" lon="4.88717">
        <ele>170.1</ele>
        <time>2020-09-12T10:02:00Z</time>
      </trkpt>
      <trkpt lat="45.78928" lon="4.88723">
        <ele>169.9</ele>
        <time>2020-09-12T10:02:01Z</time>
      </trkpt>
      <trkpt lat="45.78923" lon="4.88728">
        <ele>169.6</ele>
        <time>2020-09-12T10:02:02Z</time>
      </trkpt>
      <trkpt lat="45.78919" lon="4.88734">
        <ele>169.3</ele>
        <time>2020-09-12T10:02:03Z</time>
      </trkpt>
      <trkpt lat="45.78914" lon="4.8874">
        <ele>168.6</ele>
        <time>2020-09-12T10:02:04Z</time>
      </trkpt>
      <trkpt lat="45.7891" lon="4.88745">
        <ele>168.5</ele>
        <time>2020-09-12T10:02:05Z</time>
      </trkpt>
      <trkpt lat="45.78905" lon="4.8875">
        <ele>168.9</ele>
        <time>2020-09-12T10:02:06Z</time>
      </trkpt>
      <trkpt lat="45.789" lon="4.88756">
        <ele>169.3</ele>
        <time>2020-09-12T10:02:07Z</time>
      </trkpt>
      <trkpt lat="45.78895" lon="4.88761">
        <ele>169.6</ele>
        <time>2020-09-12T10:02:08Z</time>
      </trkpt>
      <trkpt lat="45.78891" lon="4.88766">
        <ele>169.8</ele>
        <time>2020-09-12T10:02:09Z</time>
      </trkpt>
      <trkpt lat="45.78886" lon="4.88772">
        <ele>170.1</ele>
        <time>2020-09-12T10:02:10Z</time>
      </trkpt>
      <trkpt lat="45.78883" lon="4.88779">
        <ele>170.3</ele>
        <time>2020-09-12T10:02:11Z</time>
      </trkpt>
      <trkpt lat="45.78879" lon="4.88786">
        <ele>170.5</ele>
        <time>2020-09-12T10:02:12Z</time>
      </trkpt>
      <trkpt lat="45.78875" lon="4.88793">
        <ele>170.8</ele>
        <time>2020-09-12T10:02:13Z</time>
      </trkpt>
      <trkpt lat="45.78871" lon="4.888">
        <ele>171</ele>
        <time>2020-09-12T10:02:14Z</time>
      </trkpt>
      <trkpt lat="45.78867" lon="4.88806">
        <ele>171.3</ele>
        <time>2020-09-12T10:02:15Z</time>
      </trkpt>
      <trkpt lat="45.78865" lon="4.88812">
        <ele>171.6</ele>
        <time>2020-09-12T10:02:16Z</time>
      </trkpt>
      <trkpt lat="45.78862" lon="4.88819">
        <ele>172</ele>
        <time>2020-09-12T10:02:17Z</time>
      </trkpt>
      <trkpt lat="45.78859" lon="4.88826">
        <ele>172.4</ele>
        <time>2020-09-12T10:02:18Z</time>
      </trkpt>
      <trkpt lat="45.78854" lon="4.88833">
        <ele>172.9</ele>
        <time>2020-09-12T10:02:19Z</time>
      </trkpt>
      <trkpt lat="45.78851" lon="4.8884">
        <ele>173.4</ele>
        <time>2020-09-12T10:02:20Z</time>
      </trkpt>
      <trkpt lat="45.78847" lon="4.88848">
        <ele>173.3</ele>
        <time>2020-09-12T10:02:21Z</time>
      </trkpt>
      <trkpt lat="45.78843" lon="4.88855">
        <ele>173.1</ele>
        <time>2020-09-12T10:02:22Z</time>
      </trkpt>
      <trkpt lat="45.78838" lon="4.88861">
        <ele>172.9</ele>
        <time>2020-09-12T10:02:23Z</time>
      </trkpt>
      <trkpt lat="45.78835" lon="4.88866">
        <ele>172.6</ele>
        <time>2020-09-12T10:02:24Z</time>
      </trkpt>
      <trkpt lat="45.78832" lon="4.88873">
        <ele>174.4</ele>
        <time>2020-09-12T10:02:25Z</time>
      </trkpt>
      <trkpt lat="45.78829" lon="4.8888">
        <ele>174.1</ele>
        <time>2020-09-12T10:02:26Z</time>
      </trkpt>
      <trkpt lat="45.78825" lon="4.88886">
        <ele>174</ele>
        <time>2020-09-12T10:02:27Z</time>
      </trkpt>
      <trkpt lat="45.78822" lon="4.88893">
        <ele>173.8</ele>
        <time>2020-09-12T10:02:28Z</time>
      </trkpt>
      <trkpt lat="45.78818" lon="4.889">
        <ele>173.6</ele>
        <time>2020-09-12T10:02:29Z</time>
      </trkpt>
      <trkpt lat="45.78815" lon="4.88907">
        <ele>173.5</ele>
        <time>2020-09-12T10:02:30Z</time>
      </trkpt>
      <trkpt lat="45.78812" lon="4.88915">
        <ele>173.5</ele>
        <time>2020-09-12T10:02:31Z</time>
      </trkpt>
      <trkpt lat="45.78809" lon="4.88922">
        <ele>172.9</ele>
        <time>2020-09-12T10:02:32Z</time>
      </trkpt>
      <trkpt lat="45.78805" lon="4.88928">
        <ele>173</ele>
        <time>2020-09-12T10:02:33Z</time>
      </trkpt>
      <trkpt lat="45.78801" lon="4.88935">
        <ele>173.1</ele>
        <time>2020-09-12T10:02:34Z</time>
      </trkpt>
      <trkpt lat="45.78798" lon="4.88942">
        <ele>173.1</ele>
        <time>2020-09-12T10:02:35Z</time>
      </trkpt>
      <trkpt lat="45.78795" lon="4.88949">
        <ele>173.2</ele>
        <time>2020-09-12T10:02:36Z</time>
      </trkpt>
      <trkpt lat="45.78791" lon="4.88955">
        <ele>173.3</ele>
        <time>2020-09-12T10:02:37Z</time>
      </trkpt>
      <trkpt lat="45.78788" lon="4.88962">
        <ele>173.3</ele>
        <time>2020-09-12T10:02:38Z</time>
      </trkpt>
      <trkpt lat="45.78784" lon="4.88968">
        <ele>173.5</ele>
        <time>2020-09-12T10:02:39Z</time>
      </trkpt>
      <trkpt lat="45.7878" lon="4.88972">
        <ele>173.6</ele>
        <time>2020-09-12T10:02:40Z</time>
      </trkpt>
      <trkpt lat="45.78776" lon="4.88977">
        <ele>173.8</ele>
        <time>2020-09-12T10:02:41Z</time>
      </trkpt>
      <trkpt lat="45.78772" lon="4.88982">
        <ele>174</ele>
        <time>2020-09-12T10:02:42Z</time>
      </trkpt>
      <trkpt lat="45.78769" lon="4.88988">
        <ele>174.3</ele>
        <time>2020-09-12T10:02:43Z</time>
      </trkpt>
      <trkpt lat="45.78766" lon="4.88994">
        <ele>174.6</ele>
        <time>2020-09-12T10:02:44Z</time>
      </trkpt>
      <trkpt lat="45.78762" lon="4.89">
        <ele>174.9</ele>
        <time>2020-09-12T10:02:45Z</time>
      </trkpt>
      <trkpt lat="45.78758" lon="4.89005">
        <ele>174.5</ele>
        <time>2020-09-12T10:02:46Z</time>
      </trkpt>
      <trkpt lat="45.78755" lon="4.89011">
        <ele>174.2</ele>
        <time>2020-09-12T10:02:47Z</time>
      </trkpt>
      <trkpt lat="45.78751" lon="4.89017">
        <ele>173.7</ele>
        <time>2020-09-12T10:02:48Z</time>
      </trkpt>
      <trkpt lat="45.78748" lon="4.89022">
        <ele>174.5</ele>
        <time>2020-09-12T10:02:49Z</time>
      </trkpt>
      <trkpt lat="45.78744" lon="4.89028">
        <ele>174.3</ele>
        <time>2020-09-12T10:02:50Z</time>
      </trkpt>
      <trkpt lat="45.7874" lon="4.89033">
        <ele>174</ele>
        <time>2020-09-12T10:02:51Z</time>
      </trkpt>
      <trkpt lat="45.78736" lon="4.89038">
        <ele>173.8</ele>
        <time>2020-09-12T10:02:52Z</time>
      </trkpt>
      <trkpt lat="45.78732" lon="4.89044">
        <ele>173.7</ele>
        <time>2020-09-12T10:02:53Z</time>
      </trkpt>
      <trkpt lat="45.78727" lon="4.8905">
        <ele>173.5</ele>
        <time>2020-09-12T10:02:54Z</time>
      </trkpt>
      <trkpt lat="45.78723" lon="4.89055">
        <ele>173.4</ele>
        <time>2020-09-12T10:02:55Z</time>
      </trkpt>
      <trkpt lat="45.78718" lon="4.8906">
        <ele>173.4</ele>
        <time>2020-09-12T10:02:56Z</time>
      </trkpt>
      <trkpt lat="45.78714" lon="4.89065">
        <ele>173.4</ele>
        <time>2020-09-12T10:02:57Z</time>
      </trkpt>
      <trkpt lat="45.78708" lon="4.8907">
        <ele>173.5</ele>
        <time>2020-09-12T10:02:58Z</time>
      </trkpt>
      <trkpt lat="45.78703" lon="4.89074">
        <ele>173.7</ele>
        <time>2020-09-12T10:02:59Z</time>
      </trkpt>
      <trkpt lat="45.78697" lon="4.89078">
        <ele>173.9</ele>
        <time>2020-09-12T10:03:00Z</time>
      </trkpt>
      <trkpt lat="45.78692" lon="4.8908">
        <ele>174</ele>
        <time>2020-09-12T10:03:01Z</time>
      </trkpt>
      <trkpt lat="45.78687" lon="4.89084">
        <ele>173.3</ele>
        <time>2020-09-12T10:03:02Z</time>
      </trkpt>
      <trkpt lat="45.78682" lon="4.89089">
        <ele>173.5</ele>
        <time>2020-09-12T10:03:03Z</time>
      </trkpt>
      <trkpt lat="45.78676" lon="4.89095">
        <ele>173.6</ele>
        <time>2020-09-12T10:03:04Z</time>
      </trkpt>
      <trkpt lat="45.78672" lon="4.89101">
        <ele>173.4</ele>
        <time>2020-09-12T10:03:05Z</time>
      </trkpt>
      <trkpt lat="45.78667" lon="4.89107">
        <ele>173.2</ele>
        <time>2020-09-12T10:03:06Z</time>
      </trkpt>
      <trkpt lat="45.78663" lon="4.89113">
        <ele>174.9</ele>
        <time>2020-09-12T10:03:07Z</time>
      </trkpt>
      <trkpt lat="45.78659" lon="4.89119">
        <ele>174.8</ele>
        <time>2020-09-12T10:03:08Z</time>
      </trkpt>
      <trkpt lat="45.78655" lon="4.89124">
        <ele>174.7</ele>
        <time>2020-09-12T10:03:09Z</time>
      </trkpt>
      <trkpt lat="45.7865" lon="4.89129">
        <ele>174.7</ele>
        <time>2020-09-12T10:03:10Z</time>
      </trkpt>
      <trkpt lat="45.78645" lon="4.89134">
        <ele>174.7</ele>
        <time>2020-09-12T10:03:11Z</time>
      </trkpt>
      <trkpt lat="45.7864" lon="4.89138">
        <ele>174.7</ele>
        <time>2020-09-12T10:03:12Z</time>
      </trkpt>
      <trkpt lat="45.78635" lon="4.89141">
        <ele>174.7</ele>
        <time>2020-09-12T10:03:13Z</time>
      </trkpt>
      <trkpt lat="45.7863" lon="4.89145">
        <ele>174.8</ele>
        <time>2020-09-12T10:03:14Z</time>
      </trkpt>
      <trkpt lat="45.78625" lon="4.8915">
        <ele>174.9</ele>
        <time>2020-09-12T10:03:15Z</time>
      </trkpt>
      <trkpt lat="45.78619" lon="4.89154">
        <ele>175</ele>
        <time>2020-09-12T10:03:16Z</time>
      </trkpt>
      <trkpt lat="45.78614" lon="4.89159">
        <ele>175.2</ele>
        <time>2020-09-12T10:03:17Z</time>
      </trkpt>
      <trkpt lat="45.78609" lon="4.89163">
        <ele>175.3</ele>
        <time>2020-09-12T10:03:18Z</time>
      </trkpt>
      <trkpt lat="45.78604" lon="4.89165">
        <ele>175.4</ele>
        <time>2020-09-12T10:03:19Z</time>
      </trkpt>
      <trkpt lat="45.78594" lon="4.8917">
        <ele>174.7</ele>
        <time>2020-09-12T10:03:21Z</time>
      </trkpt>
      <trkpt lat="45.78589" lon="4.89173">
        <ele>175</ele>
        <time>2020-09-12T10:03:22Z</time>
      </trkpt>
      <trkpt lat="45.78584" lon="4.89174">
        <ele>175.1</ele>
        <time>2020-09-12T10:03:23Z</time>
      </trkpt>
      <trkpt lat="45.78579" lon="4.89177">
        <ele>175</ele>
        <time>2020-09-12T10:03:24Z</time>
      </trkpt>
      <trkpt lat="45.78574" lon="4.89179">
        <ele>174.7</ele>
        <time>2020-09-12T10:03:25Z</time>
      </trkpt>
      <trkpt lat="45.78568" lon="4.89183">
        <ele>174.4</ele>
        <time>2020-09-12T10:03:26Z</time>
      </trkpt>
      <trkpt lat="45.78562" lon="4.89186">
        <ele>174.1</ele>
        <time>2020-09-12T10:03:27Z</time>
      </trkpt>
      <trkpt lat="45.78557" lon="4.89188">
        <ele>173.9</ele>
        <time>2020-09-12T10:03:28Z</time>
      </trkpt>
      <trkpt lat="45.78551" lon="4.89192">
        <ele>173.8</ele>
        <time>2020-09-12T10:03:29Z</time>
      </trkpt>
      <trkpt lat="45.78545" lon="4.89195">
        <ele>173.6</ele>
        <time>2020-09-12T10:03:30Z</time>
      </trkpt>
      <trkpt lat="45.78539" lon="4.89199">
        <ele>173.5</ele>
        <time>2020-09-12T10:03:31Z</time>
      </trkpt>
      <trkpt lat="45.78534" lon="4.89201">
        <ele>173.4</ele>
        <time>2020-09-12T10:03:32Z</time>
      </trkpt>
      <trkpt lat="45.78528" lon="4.89206">
        <ele>173.3</ele>
        <time>2020-09-12T10:03:33Z</time>
      </trkpt>
      <trkpt lat="45.78523" lon="4.89207">
        <ele>173.2</ele>
        <time>2020-09-12T10:03:34Z</time>
      </trkpt>
      <trkpt lat="45.78517" lon="4.89212">
        <ele>173.1</ele>
        <time>2020-09-12T10:03:35Z</time>
      </trkpt>
      <trkpt lat="45.7851" lon="4.89212">
        <ele>173</ele>
        <time>2020-09-12T10:03:37Z</time>
      </trkpt>
      <trkpt lat="45.78505" lon="4.89215">
        <ele>172.9</ele>
        <time>2020-09-12T10:03:38Z</time>
      </trkpt>
      <trkpt lat="45.78499" lon="4.89218">
        <ele>172.4</ele>
        <time>2020-09-12T10:03:39Z</time>
      </trkpt>
      <trkpt lat="45.78494" lon="4.89219">
        <ele>172.3</ele>
        <time>2020-09-12T10:03:40Z</time>
      </trkpt>
      <trkpt lat="45.7849" lon="4.89221">
        <ele>172.3</ele>
        <time>2020-09-12T10:03:41Z</time>
      </trkpt>
      <trkpt lat="45.78484" lon="4.89225">
        <ele>172.2</ele>
        <time>2020-09-12T10:03:42Z</time>
      </trkpt>
      <trkpt lat="45.78478" lon="4.89229">
        <ele>172.1</ele>
        <time>2020-09-12T10:03:43Z</time>
      </trkpt>
      <trkpt lat="45.78473" lon="4.89233">
        <ele>172.1</ele>
        <time>2020-09-12T10:03:44Z</time>
      </trkpt>
      <trkpt lat="45.78466" lon="4.89238">
        <ele>172</ele>
        <time>2020-09-12T10:03:45Z</time>
      </trkpt>
      <trkpt lat="45.78462" lon="4.89241">
        <ele>172</ele>
        <time>2020-09-12T10:03:46Z</time>
      </trkpt>
      <trkpt lat="45.78457" lon="4.89244">
        <ele>172</ele>
        <time>2020-09-12T10:03:47Z</time>
      </trkpt>
      <trkpt lat="45.78449" lon="4.89248">
        <ele>171.9</ele>
        <time>2020-09-12T10:03:49Z</time>
      </trkpt>
      <trkpt lat="45.78445" lon="4.89245">
        <ele>171.9</ele>
        <time>2020-09-12T10:03:51Z</time>
      </trkpt>
      <trkpt lat="45.78445" lon="4.89238">
        <ele>171.9</ele>
        <time>2020-09-12T10:03:53Z</time>
      </trkpt>
      <trkpt lat="45.78446" lon="4.89231">
        <ele>172</ele>
        <time>2020-09-12T10:03:55Z</time>
      </trkpt>
      <trkpt lat="45.78446" lon="4.89223">
        <ele>172.2</ele>
        <time>2020-09-12T10:03:58Z</time>
      </trkpt>
      <trkpt lat="45.78445" lon="4.89216">
        <ele>172.3</ele>
        <time>2020-09-12T10:04:01Z</time>
      </trkpt>
      <trkpt lat="45.78441" lon="4.89212">
        <ele>172.3</ele>
        <time>2020-09-12T10:04:07Z</time>
      </trkpt>
      <trkpt lat="45.78436" lon="4.89211">
        <ele>172.3</ele>
        <time>2020-09-12T10:04:09Z</time>
      </trkpt>
      <trkpt lat="45.78431" lon="4.89213">
        <ele>172.3</ele>
        <time>2020-09-12T10:04:11Z</time>
      </trkpt>
      <trkpt lat="45.78425" lon="4.89217">
        <ele>172.1</ele>
        <time>2020-09-12T10:04:13Z</time>
      </trkpt>
      <trkpt lat="45.78421" lon="4.89222">
        <ele>172</ele>
        <time>2020-09-12T10:04:15Z</time>
      </trkpt>
      <trkpt lat="45.78415" lon="4.89224">
        <ele>172</ele>
        <time>2020-09-12T10:04:17Z</time>
      </trkpt>
      <trkpt lat="45.78407" lon="4.8922">
        <ele>172.1</ele>
        <time>2020-09-12T10:04:19Z</time>
      </trkpt>
      <trkpt lat="45.78404" lon="4.89216">
        <ele>172.2</ele>
        <time>2020-09-12T10:04:20Z</time>
      </trkpt>
      <trkpt lat="45.78398" lon="4.8921">
        <ele>172.3</ele>
        <time>2020-09-12T10:04:22Z</time>
      </trkpt>
      <trkpt lat="45.78398" lon="4.89202">
        <ele>172.5</ele>
        <time>2020-09-12T10:04:25Z</time>
      </trkpt>
      <trkpt lat="45.78401" lon="4.89197">
        <ele>172.6</ele>
        <time>2020-09-12T10:04:27Z</time>
      </trkpt>
      <trkpt lat="45.78404" lon="4.89192">
        <ele>172.6</ele>
        <time>2020-09-12T10:04:29Z</time>
      </trkpt>
      <trkpt lat="45.78409" lon="4.89187">
        <ele>172.7</ele>
        <time>2020-09-12T10:04:31Z</time>
      </trkpt>
      <trkpt lat="45.78414" lon="4.89184">
        <ele>172.7</ele>
        <time>2020-09-12T10:04:33Z</time>
      </trkpt>
      <trkpt lat="45.7842" lon="4.8918">
        <ele>172.8</ele>
        <time>2020-09-12T10:04:35Z</time>
      </trkpt>
      <trkpt lat="45.78425" lon="4.89176">
        <ele>172.8</ele>
        <time>2020-09-12T10:04:37Z</time>
      </trkpt>
      <trkpt lat="45.78429" lon="4.89169">
        <ele>172.9</ele>
        <time>2020-09-12T10:04:39Z</time>
      </trkpt>
      <trkpt lat="45.78429" lon="4.89161">
        <ele>173.4</ele>
        <time>2020-09-12T10:04:41Z</time>
      </trkpt>
      <trkpt lat="45.78423" lon="4.89156">
        <ele>173.3</ele>
        <time>2020-09-12T10:04:43Z</time>
      </trkpt>
      <trkpt lat="45.78418" lon="4.89158">
        <ele>173.3</ele>
        <time>2020-09-12T10:04:44Z</time>
      </trkpt>
      <trkpt lat="45.78414" lon="4.89161">
        <ele>173.2</ele>
        <time>2020-09-12T10:04:45Z</time>
      </trkpt>
      <trkpt lat="45.7841" lon="4.89165">
        <ele>173.2</ele>
        <time>2020-09-12T10:04:46Z</time>
      </trkpt>
      <trkpt lat="45.78406" lon="4.89168">
        <ele>172.9</ele>
        <time>2020-09-12T10:04:47Z</time>
      </trkpt>
      <trkpt lat="45.78399" lon="4.89176">
        <ele>172.8</ele>
        <time>2020-09-12T10:04:49Z</time>
      </trkpt>
      <trkpt lat="45.78392" lon="4.89182">
        <ele>172.8</ele>
        <time>2020-09-12T10:04:51Z</time>
      </trkpt>
      <trkpt lat="45.78386" lon="4.89188">
        <ele>172.7</ele>
        <time>2020-09-12T10:04:53Z</time>
      </trkpt>
      <trkpt lat="45.78379" lon="4.89195">
        <ele>172.7</ele>
        <time>2020-09-12T10:04:55Z</time>
      </trkpt>
      <trkpt lat="45.78375" lon="4.892">
        <ele>172.7</ele>
        <time>2020-09-12T10:04:56Z</time>
      </trkpt>
      <trkpt lat="45.7837" lon="4.89204">
        <ele>172.6</ele>
        <time>2020-09-12T10:04:57Z</time>
      </trkpt>
      <trkpt lat="45.78367" lon="4.89209">
        <ele>172.5</ele>
        <time>2020-09-12T10:04:58Z</time>
      </trkpt>
      <trkpt lat="45.78363" lon="4.89215">
        <ele>172.4</ele>
        <time>2020-09-12T10:04:59Z</time>
      </trkpt>
      <trkpt lat="45.7836" lon="4.89223">
        <ele>172.3</ele>
        <time>2020-09-12T10:05:00Z</time>
      </trkpt>
      <trkpt lat="45.78357" lon="4.89231">
        <ele>172.1</ele>
        <time>2020-09-12T10:05:01Z</time>
      </trkpt>
      <trkpt lat="45.78355" lon="4.89239">
        <ele>171.9</ele>
        <time>2020-09-12T10:05:02Z</time>
      </trkpt>
      <trkpt lat="45.78355" lon="4.89248">
        <ele>171.8</ele>
        <time>2020-09-12T10:05:03Z</time>
      </trkpt>
      <trkpt lat="45.78357" lon="4.89257">
        <ele>171.1</ele>
        <time>2020-09-12T10:05:04Z</time>
      </trkpt>
      <trkpt lat="45.78357" lon="4.89265">
        <ele>171.1</ele>
        <time>2020-09-12T10:05:05Z</time>
      </trkpt>
      <trkpt lat="45.78359" lon="4.89271">
        <ele>171.2</ele>
        <time>2020-09-12T10:05:06Z</time>
      </trkpt>
      <trkpt lat="45.7836" lon="4.89278">
        <ele>171.2</ele>
        <time>2020-09-12T10:05:07Z</time>
      </trkpt>
      <trkpt lat="45.78362" lon="4.89285">
        <ele>171.2</ele>
        <time>2020-09-12T10:05:08Z</time>
      </trkpt>
      <trkpt lat="45.78363" lon="4.89291">
        <ele>171.2</ele>
        <time>2020-09-12T10:05:09Z</time>
      </trkpt>
      <trkpt lat="45.78364" lon="4.89298">
        <ele>171.2</ele>
        <time>2020-09-12T10:05:10Z</time>
      </trkpt>
      <trkpt lat="45.78367" lon="4.89309">
        <ele>171.3</ele>
        <time>2020-09-12T10:05:12Z</time>
      </trkpt>
      <trkpt lat="45.78368" lon="4.89316">
        <ele>171.3</ele>
        <time>2020-09-12T10:05:13Z</time>
      </trkpt>
      <trkpt lat="45.7837" lon="4.89322">
        <ele>171.3</ele>
        <time>2020-09-12T10:05:14Z</time>
      </trkpt>
      <trkpt lat="45.78371" lon="4.89329">
        <ele>171.3</ele>
        <time>2020-09-12T10:05:15Z</time>
      </trkpt>
      <trkpt lat="45.78373" lon="4.89335">
        <ele>171.6</ele>
        <time>2020-09-12T10:05:16Z</time>
      </trkpt>
      <trkpt lat="45.78375" lon="4.89342">
        <ele>171.7</ele>
        <time>2020-09-12T10:05:17Z</time>
      </trkpt>
      <trkpt lat="45.78376" lon="4.89349">
        <ele>171.7</ele>
        <time>2020-09-12T10:05:18Z</time>
      </trkpt>
      <trkpt lat="45.78378" lon="4.89355">
        <ele>171.7</ele>
        <time>2020-09-12T10:05:19Z</time>
      </trkpt>
      <trkpt lat="45.78379" lon="4.89362">
        <ele>171.7</ele>
        <time>2020-09-12T10:05:20Z</time>
      </trkpt>
      <trkpt lat="45.78381" lon="4.89369">
        <ele>171.8</ele>
        <time>2020-09-12T10:05:21Z</time>
      </trkpt>
      <trkpt lat="45.78383" lon="4.89375">
        <ele>171.8</ele>
        <time>2020-09-12T10:05:22Z</time>
      </trkpt>
      <trkpt lat="45.78384" lon="4.89382">
        <ele>171.8</ele>
        <time>2020-09-12T10:05:23Z</time>
      </trkpt>
      <trkpt lat="45.78386" lon="4.89389">
        <ele>171.8</ele>
        <time>2020-09-12T10:05:24Z</time>
      </trkpt>
      <trkpt lat="45.78388" lon="4.89396">
        <ele>171.8</ele>
        <time>2020-09-12T10:05:25Z</time>
      </trkpt>
      <trkpt lat="45.78389" lon="4.89402">
        <ele>171.8</ele>
        <time>2020-09-12T10:05:26Z</time>
      </trkpt>
      <trkpt lat="45.78391" lon="4.89409">
        <ele>171.9</ele>
        <time>2020-09-12T10:05:27Z</time>
      </trkpt>
      <trkpt lat="45.78393" lon="4.89416">
        <ele>171.9</ele>
        <time>2020-09-12T10:05:28Z</time>
      </trkpt>
      <trkpt lat="45.78395" lon="4.89423">
        <ele>172.7</ele>
        <time>2020-09-12T10:05:29Z</time>
      </trkpt>
      <trkpt lat="45.78397" lon="4.89431">
        <ele>172.8</ele>
        <time>2020-09-12T10:05:30Z</time>
      </trkpt>
      <trkpt lat="45.78399" lon="4.89439">
        <ele>173</ele>
        <time>2020-09-12T10:05:31Z</time>
      </trkpt>
      <trkpt lat="45.78401" lon="4.89446">
        <ele>173.1</ele>
        <time>2020-09-12T10:05:32Z</time>
      </trkpt>
      <trkpt lat="45.78402" lon="4.89454">
        <ele>173.4</ele>
        <time>2020-09-12T10:05:33Z</time>
      </trkpt>
      <trkpt lat="45.78404" lon="4.89462">
        <ele>173.6</ele>
        <time>2020-09-12T10:05:34Z</time>
      </trkpt>
      <trkpt lat="45.78407" lon="4.89471">
        <ele>173.9</ele>
        <time>2020-09-12T10:05:35Z</time>
      </trkpt>
      <trkpt lat="45.7841" lon="4.89479">
        <ele>174.3</ele>
        <time>2020-09-12T10:05:36Z</time>
      </trkpt>
      <trkpt lat="45.78412" lon="4.89486">
        <ele>174.7</ele>
        <time>2020-09-12T10:05:37Z</time>
      </trkpt>
      <trkpt lat="45.78416" lon="4.89494">
        <ele>175.4</ele>
        <time>2020-09-12T10:05:38Z</time>
      </trkpt>
      <trkpt lat="45.7842" lon="4.89502">
        <ele>175.6</ele>
        <time>2020-09-12T10:05:39Z</time>
      </trkpt>
      <trkpt lat="45.78424" lon="4.89511">
        <ele>175</ele>
        <time>2020-09-12T10:05:40Z</time>
      </trkpt>
      <trkpt lat="45.78428" lon="4.89518">
        <ele>174.6</ele>
        <time>2020-09-12T10:05:41Z</time>
      </trkpt>
      <trkpt lat="45.78431" lon="4.89524">
        <ele>174.3</ele>
        <time>2020-09-12T10:05:42Z</time>
      </trkpt>
      <trkpt lat="45.78434" lon="4.89529">
        <ele>174.1</ele>
        <time>2020-09-12T10:05:43Z</time>
      </trkpt>
      <trkpt lat="45.78438" lon="4.89537">
        <ele>173.9</ele>
        <time>2020-09-12T10:05:45Z</time>
      </trkpt>
      <trkpt lat="45.78442" lon="4.89542">
        <ele>173.8</ele>
        <time>2020-09-12T10:05:47Z</time>
      </trkpt>
      <trkpt lat="45.78445" lon="4.89537">
        <ele>173.8</ele>
        <time>2020-09-12T10:05:50Z</time>
      </trkpt>
      <trkpt lat="45.78443" lon="4.89532">
        <ele>173.9</ele>
        <time>2020-09-12T10:05:52Z</time>
      </trkpt>
      <trkpt lat="45.78439" lon="4.89525">
        <ele>174.1</ele>
        <time>2020-09-12T10:05:54Z</time>
      </trkpt>
      <trkpt lat="45.78435" lon="4.89515">
        <ele>174.4</ele>
        <time>2020-09-12T10:05:56Z</time>
      </trkpt>
      <trkpt lat="45.78433" lon="4.89506">
        <ele>174.8</ele>
        <time>2020-09-12T10:05:58Z</time>
      </trkpt>
      <trkpt lat="45.78431" lon="4.89497">
        <ele>174.6</ele>
        <time>2020-09-12T10:06:00Z</time>
      </trkpt>
      <trkpt lat="45.78429" lon="4.89489">
        <ele>174.5</ele>
        <time>2020-09-12T10:06:02Z</time>
      </trkpt>
      <trkpt lat="45.78427" lon="4.89482">
        <ele>174.2</ele>
        <time>2020-09-12T10:06:04Z</time>
      </trkpt>
      <trkpt lat="45.78425" lon="4.89474">
        <ele>173.9</ele>
        <time>2020-09-12T10:06:06Z</time>
      </trkpt>
      <trkpt lat="45.78423" lon="4.89468">
        <ele>173.7</ele>
        <time>2020-09-12T10:06:08Z</time>
      </trkpt>
      <trkpt lat="45.78423" lon="4.8946">
        <ele>173.4</ele>
        <time>2020-09-12T10:06:13Z</time>
      </trkpt>
      <trkpt lat="45.78423" lon="4.89454">
        <ele>173.2</ele>
        <time>2020-09-12T10:06:15Z</time>
      </trkpt>
      <trkpt lat="45.78421" lon="4.89446">
        <ele>173</ele>
        <time>2020-09-12T10:06:17Z</time>
      </trkpt>
      <trkpt lat="45.7842" lon="4.89438">
        <ele>172.7</ele>
        <time>2020-09-12T10:06:19Z</time>
      </trkpt>
      <trkpt lat="45.78419" lon="4.89428">
        <ele>172.4</ele>
        <time>2020-09-12T10:06:21Z</time>
      </trkpt>
      <trkpt lat="45.78421" lon="4.89419">
        <ele>172.2</ele>
        <time>2020-09-12T10:06:23Z</time>
      </trkpt>
      <trkpt lat="45.78426" lon="4.89417">
        <ele>172.3</ele>
        <time>2020-09-12T10:06:41Z</time>
      </trkpt>
      <trkpt lat="45.78432" lon="4.89414">
        <ele>172</ele>
        <time>2020-09-12T10:06:44Z</time>
      </trkpt>
      <trkpt lat="45.78438" lon="4.89412">
        <ele>172</ele>
        <time>2020-09-12T10:06:46Z</time>
      </trkpt>
      <trkpt lat="45.78445" lon="4.89408">
        <ele>172</ele>
        <time>2020-09-12T10:06:48Z</time>
      </trkpt>
      <trkpt lat="45.78454" lon="4.89405">
        <ele>172</ele>
        <time>2020-09-12T10:06:50Z</time>
      </trkpt>
      <trkpt lat="45.7846" lon="4.89403">
        <ele>172</ele>
        <time>2020-09-12T10:06:51Z</time>
      </trkpt>
      <trkpt lat="45.78465" lon="4.894">
        <ele>172</ele>
        <time>2020-09-12T10:06:52Z</time>
      </trkpt>
      <trkpt lat="45.78469" lon="4.89399">
        <ele>172</ele>
        <time>2020-09-12T10:06:53Z</time>
      </trkpt>
      <trkpt lat="45.78475" lon="4.89397">
        <ele>172</ele>
        <time>2020-09-12T10:06:54Z</time>
      </trkpt>
      <trkpt lat="45.78481" lon="4.89395">
        <ele>172</ele>
        <time>2020-09-12T10:06:55Z</time>
      </trkpt>
      <trkpt lat="45.78486" lon="4.89391">
        <ele>172</ele>
        <time>2020-09-12T10:06:56Z</time>
      </trkpt>
      <trkpt lat="45.78492" lon="4.89388">
        <ele>172</ele>
        <time>2020-09-12T10:06:57Z</time>
      </trkpt>
      <trkpt lat="45.78497" lon="4.89385">
        <ele>172</ele>
        <time>2020-09-12T10:06:58Z</time>
      </trkpt>
      <trkpt lat="45.78505" lon="4.89381">
        <ele>171.8</ele>
        <time>2020-09-12T10:06:59Z</time>
      </trkpt>
      <trkpt lat="45.78511" lon="4.89378">
        <ele>171.8</ele>
        <time>2020-09-12T10:07:00Z</time>
      </trkpt>
      <trkpt lat="45.78516" lon="4.89376">
        <ele>171.8</ele>
        <time>2020-09-12T10:07:01Z</time>
      </trkpt>
      <trkpt lat="45.78521" lon="4.89373">
        <ele>171.8</ele>
        <time>2020-09-12T10:07:02Z</time>
      </trkpt>
      <trkpt lat="45.78526" lon="4.8937">
        <ele>171.8</ele>
        <time>2020-09-12T10:07:03Z</time>
      </trkpt>
      <trkpt lat="45.78531" lon="4.89368">
        <ele>171.8</ele>
        <time>2020-09-12T10:07:04Z</time>
      </trkpt>
      <trkpt lat="45.78536" lon="4.89365">
        <ele>171.8</ele>
        <time>2020-09-12T10:07:05Z</time>
      </trkpt>
      <trkpt lat="45.78541" lon="4.89362">
        <ele>171.8</ele>
        <time>2020-09-12T10:07:06Z</time>
      </trkpt>
      <trkpt lat="45.78546" lon="4.89359">
        <ele>171.8</ele>
        <time>2020-09-12T10:07:07Z</time>
      </trkpt>
      <trkpt lat="45.78552" lon="4.89356">
        <ele>171.8</ele>
        <time>2020-09-12T10:07:08Z</time>
      </trkpt>
      <trkpt lat="45.78557" lon="4.89354">
        <ele>171.8</ele>
        <time>2020-09-12T10:07:09Z</time>
      </trkpt>
      <trkpt lat="45.78562" lon="4.89351">
        <ele>171.8</ele>
        <time>2020-09-12T10:07:10Z</time>
      </trkpt>
      <trkpt lat="45.78567" lon="4.89347">
        <ele>171.8</ele>
        <time>2020-09-12T10:07:11Z</time>
      </trkpt>
      <trkpt lat="45.78572" lon="4.89344">
        <ele>171.9</ele>
        <time>2020-09-12T10:07:12Z</time>
      </trkpt>
      <trkpt lat="45.78577" lon="4.89341">
        <ele>171.9</ele>
        <time>2020-09-12T10:07:13Z</time>
      </trkpt>
      <trkpt lat="45.78582" lon="4.89338">
        <ele>171.9</ele>
        <time>2020-09-12T10:07:14Z</time>
      </trkpt>
      <trkpt lat="45.78587" lon="4.89335">
        <ele>172</ele>
        <time>2020-09-12T10:07:15Z</time>
      </trkpt>
      <trkpt lat="45.78592" lon="4.89332">
        <ele>171.9</ele>
        <time>2020-09-12T10:07:16Z</time>
      </trkpt>
      <trkpt lat="45.78597" lon="4.89329">
        <ele>171.8</ele>
        <time>2020-09-12T10:07:17Z</time>
      </trkpt>
      <trkpt lat="45.78602" lon="4.89326">
        <ele>171.7</ele>
        <time>2020-09-12T10:07:18Z</time>
      </trkpt>
      <trkpt lat="45.78607" lon="4.89322">
        <ele>171.7</ele>
        <time>2020-09-12T10:07:19Z</time>
      </trkpt>
      <trkpt lat="45.78612" lon="4.89319">
        <ele>171.7</ele>
        <time>2020-09-12T10:07:20Z</time>
      </trkpt>
      <trkpt lat="45.78616" lon="4.89316">
        <ele>171.6</ele>
        <time>2020-09-12T10:07:21Z</time>
      </trkpt>
      <trkpt lat="45.78621" lon="4.89312">
        <ele>171.6</ele>
        <time>2020-09-12T10:07:22Z</time>
      </trkpt>
      <trkpt lat="45.78624" lon="4.89308">
        <ele>171.6</ele>
        <time>2020-09-12T10:07:23Z</time>
      </trkpt>
      <trkpt lat="45.7863" lon="4.89301">
        <ele>171.6</ele>
        <time>2020-09-12T10:07:25Z</time>
      </trkpt>
      <trkpt lat="45.78634" lon="4.89294">
        <ele>171.5</ele>
        <time>2020-09-12T10:07:28Z</time>
      </trkpt>
      <trkpt lat="45.78637" lon="4.8929">
        <ele>171.5</ele>
        <time>2020-09-12T10:07:30Z</time>
      </trkpt>
      <trkpt lat="45.78644" lon="4.89285">
        <ele>171.5</ele>
        <time>2020-09-12T10:07:32Z</time>
      </trkpt>
      <trkpt lat="45.78648" lon="4.89282">
        <ele>171.4</ele>
        <time>2020-09-12T10:07:33Z</time>
      </trkpt>
      <trkpt lat="45.78652" lon="4.89279">
        <ele>171.4</ele>
        <time>2020-09-12T10:07:34Z</time>
      </trkpt>
      <trkpt lat="45.78656" lon="4.89276">
        <ele>171.4</ele>
        <time>2020-09-12T10:07:35Z</time>
      </trkpt>
      <trkpt lat="45.78661" lon="4.89273">
        <ele>171.3</ele>
        <time>2020-09-12T10:07:36Z</time>
      </trkpt>
      <trkpt lat="45.78666" lon="4.89268">
        <ele>171.3</ele>
        <time>2020-09-12T10:07:37Z</time>
      </trkpt>
      <trkpt lat="45.78671" lon="4.89265">
        <ele>171.1</ele>
        <time>2020-09-12T10:07:38Z</time>
      </trkpt>
      <trkpt lat="45.78679" lon="4.89258">
        <ele>171.1</ele>
        <time>2020-09-12T10:07:40Z</time>
      </trkpt>
      <trkpt lat="45.78684" lon="4.89255">
        <ele>171.1</ele>
        <time>2020-09-12T10:07:41Z</time>
      </trkpt>
      <trkpt lat="45.78691" lon="4.89246">
        <ele>171.2</ele>
        <time>2020-09-12T10:07:43Z</time>
      </trkpt>
      <trkpt lat="45.78696" lon="4.89242">
        <ele>171.2</ele>
        <time>2020-09-12T10:07:44Z</time>
      </trkpt>
      <trkpt lat="45.78701" lon="4.89238">
        <ele>171.2</ele>
        <time>2020-09-12T10:07:45Z</time>
      </trkpt>
      <trkpt lat="45.78707" lon="4.89232">
        <ele>171.2</ele>
        <time>2020-09-12T10:07:46Z</time>
      </trkpt>
      <trkpt lat="45.78712" lon="4.89228">
        <ele>171.2</ele>
        <time>2020-09-12T10:07:47Z</time>
      </trkpt>
      <trkpt lat="45.78717" lon="4.89224">
        <ele>171.2</ele>
        <time>2020-09-12T10:07:48Z</time>
      </trkpt>
      <trkpt lat="45.78722" lon="4.89218">
        <ele>171.2</ele>
        <time>2020-09-12T10:07:49Z</time>
      </trkpt>
      <trkpt lat="45.78727" lon="4.89213">
        <ele>171.2</ele>
        <time>2020-09-12T10:07:50Z</time>
      </trkpt>
      <trkpt lat="45.78732" lon="4.89207">
        <ele>171.2</ele>
        <time>2020-09-12T10:07:51Z</time>
      </trkpt>
      <trkpt lat="45.78736" lon="4.89204">
        <ele>171.2</ele>
        <time>2020-09-12T10:07:52Z</time>
      </trkpt>
      <trkpt lat="45.78742" lon="4.89198">
        <ele>171.2</ele>
        <time>2020-09-12T10:07:53Z</time>
      </trkpt>
      <trkpt lat="45.78746" lon="4.89195">
        <ele>171.2</ele>
        <time>2020-09-12T10:07:54Z</time>
      </trkpt>
      <trkpt lat="45.78751" lon="4.89191">
        <ele>171.2</ele>
        <time>2020-09-12T10:07:55Z</time>
      </trkpt>
      <trkpt lat="45.78757" lon="4.89193">
        <ele>171.2</ele>
        <time>2020-09-12T10:07:56Z</time>
      </trkpt>
      <trkpt lat="45.78761" lon="4.89198">
        <ele>171.2</ele>
        <time>2020-09-12T10:07:57Z</time>
      </trkpt>
      <trkpt lat="45.78762" lon="4.89205">
        <ele>171.2</ele>
        <time>2020-09-12T10:07:58Z</time>
      </trkpt>
      <trkpt lat="45.78763" lon="4.89212">
        <ele>171.2</ele>
        <time>2020-09-12T10:07:59Z</time>
      </trkpt>
      <trkpt lat="45.78764" lon="4.89218">
        <ele>171.1</ele>
        <time>2020-09-12T10:08:00Z</time>
      </trkpt>
      <trkpt lat="45.78765" lon="4.89232">
        <ele>171.1</ele>
        <time>2020-09-12T10:08:02Z</time>
      </trkpt>
      <trkpt lat="45.78764" lon="4.89239">
        <ele>171.1</ele>
        <time>2020-09-12T10:08:03Z</time>
      </trkpt>
      <trkpt lat="45.78766" lon="4.89246">
        <ele>171</ele>
        <time>2020-09-12T10:08:04Z</time>
      </trkpt>
      <trkpt lat="45.78767" lon="4.89255">
        <ele>170.7</ele>
        <time>2020-09-12T10:08:05Z</time>
      </trkpt>
      <trkpt lat="45.78768" lon="4.89264">
        <ele>170.7</ele>
        <time>2020-09-12T10:08:06Z</time>
      </trkpt>
      <trkpt lat="45.78769" lon="4.8927">
        <ele>170.7</ele>
        <time>2020-09-12T10:08:07Z</time>
      </trkpt>
      <trkpt lat="45.78771" lon="4.89279">
        <ele>170.6</ele>
        <time>2020-09-12T10:08:08Z</time>
      </trkpt>
      <trkpt lat="45.78773" lon="4.89287">
        <ele>170.6</ele>
        <time>2020-09-12T10:08:09Z</time>
      </trkpt>
      <trkpt lat="45.78775" lon="4.89296">
        <ele>170.6</ele>
        <time>2020-09-12T10:08:10Z</time>
      </trkpt>
      <trkpt lat="45.78776" lon="4.89304">
        <ele>170.6</ele>
        <time>2020-09-12T10:08:11Z</time>
      </trkpt>
      <trkpt lat="45.78778" lon="4.89312">
        <ele>170.6</ele>
        <time>2020-09-12T10:08:12Z</time>
      </trkpt>
      <trkpt lat="45.7878" lon="4.89321">
        <ele>170.6</ele>
        <time>2020-09-12T10:08:13Z</time>
      </trkpt>
      <trkpt lat="45.78782" lon="4.89329">
        <ele>170.6</ele>
        <time>2020-09-12T10:08:14Z</time>
      </trkpt>
      <trkpt lat="45.78784" lon="4.89337">
        <ele>170.9</ele>
        <time>2020-09-12T10:08:15Z</time>
      </trkpt>
      <trkpt lat="45.78787" lon="4.89345">
        <ele>170.9</ele>
        <time>2020-09-12T10:08:16Z</time>
      </trkpt>
      <trkpt lat="45.78789" lon="4.89353">
        <ele>170.9</ele>
        <time>2020-09-12T10:08:17Z</time>
      </trkpt>
      <trkpt lat="45.78792" lon="4.8936">
        <ele>170.9</ele>
        <time>2020-09-12T10:08:18Z</time>
      </trkpt>
      <trkpt lat="45.78794" lon="4.89368">
        <ele>170.9</ele>
        <time>2020-09-12T10:08:19Z</time>
      </trkpt>
      <trkpt lat="45.78796" lon="4.89376">
        <ele>171</ele>
        <time>2020-09-12T10:08:20Z</time>
      </trkpt>
      <trkpt lat="45.78799" lon="4.89384">
        <ele>171</ele>
        <time>2020-09-12T10:08:21Z</time>
      </trkpt>
      <trkpt lat="45.78802" lon="4.89392">
        <ele>171</ele>
        <time>2020-09-12T10:08:22Z</time>
      </trkpt>
      <trkpt lat="45.78805" lon="4.89399">
        <ele>171</ele>
        <time>2020-09-12T10:08:23Z</time>
      </trkpt>
      <trkpt lat="45.78808" lon="4.89407">
        <ele>171.1</ele>
        <time>2020-09-12T10:08:24Z</time>
      </trkpt>
      <trkpt lat="45.78811" lon="4.89414">
        <ele>171.1</ele>
        <time>2020-09-12T10:08:25Z</time>
      </trkpt>
      <trkpt lat="45.78813" lon="4.89422">
        <ele>171.6</ele>
        <time>2020-09-12T10:08:26Z</time>
      </trkpt>
      <trkpt lat="45.78816" lon="4.8943">
        <ele>171.6</ele>
        <time>2020-09-12T10:08:27Z</time>
      </trkpt>
      <trkpt lat="45.78819" lon="4.89438">
        <ele>171.6</ele>
        <time>2020-09-12T10:08:28Z</time>
      </trkpt>
      <trkpt lat="45.78823" lon="4.89445">
        <ele>171.7</ele>
        <time>2020-09-12T10:08:29Z</time>
      </trkpt>
      <trkpt lat="45.78827" lon="4.89452">
        <ele>171.8</ele>
        <time>2020-09-12T10:08:30Z</time>
      </trkpt>
      <trkpt lat="45.7883" lon="4.8946">
        <ele>171.8</ele>
        <time>2020-09-12T10:08:31Z</time>
      </trkpt>
      <trkpt lat="45.78833" lon="4.89466">
        <ele>172.3</ele>
        <time>2020-09-12T10:08:32Z</time>
      </trkpt>
      <trkpt lat="45.78838" lon="4.89474">
        <ele>172.4</ele>
        <time>2020-09-12T10:08:33Z</time>
      </trkpt>
      <trkpt lat="45.78841" lon="4.89481">
        <ele>172.4</ele>
        <time>2020-09-12T10:08:34Z</time>
      </trkpt>
      <trkpt lat="45.78845" lon="4.89488">
        <ele>172.4</ele>
        <time>2020-09-12T10:08:35Z</time>
      </trkpt>
      <trkpt lat="45.78848" lon="4.89495">
        <ele>172.4</ele>
        <time>2020-09-12T10:08:36Z</time>
      </trkpt>
      <trkpt lat="45.78853" lon="4.89503">
        <ele>173.4</ele>
        <time>2020-09-12T10:08:37Z</time>
      </trkpt>
      <trkpt lat="45.78857" lon="4.8951">
        <ele>173.7</ele>
        <time>2020-09-12T10:08:38Z</time>
      </trkpt>
      <trkpt lat="45.78861" lon="4.89516">
        <ele>173.9</ele>
        <time>2020-09-12T10:08:39Z</time>
      </trkpt>
      <trkpt lat="45.78865" lon="4.89523">
        <ele>174.1</ele>
        <time>2020-09-12T10:08:40Z</time>
      </trkpt>
      <trkpt lat="45.78869" lon="4.89528">
        <ele>174.3</ele>
        <time>2020-09-12T10:08:41Z</time>
      </trkpt>
      <trkpt lat="45.78873" lon="4.89535">
        <ele>174.4</ele>
        <time>2020-09-12T10:08:42Z</time>
      </trkpt>
      <trkpt lat="45.78878" lon="4.89541">
        <ele>174.5</ele>
        <time>2020-09-12T10:08:43Z</time>
      </trkpt>
      <trkpt lat="45.78883" lon="4.89547">
        <ele>174.6</ele>
        <time>2020-09-12T10:08:44Z</time>
      </trkpt>
      <trkpt lat="45.78886" lon="4.89553">
        <ele>174.7</ele>
        <time>2020-09-12T10:08:45Z</time>
      </trkpt>
      <trkpt lat="45.78891" lon="4.89558">
        <ele>174.7</ele>
        <time>2020-09-12T10:08:46Z</time>
      </trkpt>
      <trkpt lat="45.78895" lon="4.89563">
        <ele>174.8</ele>
        <time>2020-09-12T10:08:47Z</time>
      </trkpt>
      <trkpt lat="45.78899" lon="4.89569">
        <ele>174.8</ele>
        <time>2020-09-12T10:08:48Z</time>
      </trkpt>
      <trkpt lat="45.78902" lon="4.89575">
        <ele>174.8</ele>
        <time>2020-09-12T10:08:49Z</time>
      </trkpt>
      <trkpt lat="45.78902" lon="4.89583">
        <ele>174.9</ele>
        <time>2020-09-12T10:08:50Z</time>
      </trkpt>
      <trkpt lat="45.78901" lon="4.89591">
        <ele>174.7</ele>
        <time>2020-09-12T10:08:51Z</time>
      </trkpt>
      <trkpt lat="45.78898" lon="4.89598">
        <ele>174.7</ele>
        <time>2020-09-12T10:08:52Z</time>
      </trkpt>
      <trkpt lat="45.78895" lon="4.89605">
        <ele>174.6</ele>
        <time>2020-09-12T10:08:53Z</time>
      </trkpt>
      <trkpt lat="45.78892" lon="4.89612">
        <ele>174.5</ele>
        <time>2020-09-12T10:08:54Z</time>
      </trkpt>
      <trkpt lat="45.78889" lon="4.89618">
        <ele>174.5</ele>
        <time>2020-09-12T10:08:55Z</time>
      </trkpt>
      <trkpt lat="45.78885" lon="4.89625">
        <ele>174.4</ele>
        <time>2020-09-12T10:08:56Z</time>
      </trkpt>
      <trkpt lat="45.78884" lon="4.89633">
        <ele>174.3</ele>
        <time>2020-09-12T10:08:57Z</time>
      </trkpt>
      <trkpt lat="45.78882" lon="4.89639">
        <ele>174.2</ele>
        <time>2020-09-12T10:08:58Z</time>
      </trkpt>
      <trkpt lat="45.7888" lon="4.89648">
        <ele>174.1</ele>
        <time>2020-09-12T10:08:59Z</time>
      </trkpt>
      <trkpt lat="45.78879" lon="4.89654">
        <ele>174.1</ele>
        <time>2020-09-12T10:09:00Z</time>
      </trkpt>
      <trkpt lat="45.78879" lon="4.89663">
        <ele>174</ele>
        <time>2020-09-12T10:09:01Z</time>
      </trkpt>
      <trkpt lat="45.78879" lon="4.89671">
        <ele>173.1</ele>
        <time>2020-09-12T10:09:02Z</time>
      </trkpt>
      <trkpt lat="45.78879" lon="4.89678">
        <ele>173.1</ele>
        <time>2020-09-12T10:09:03Z</time>
      </trkpt>
      <trkpt lat="45.78877" lon="4.89687">
        <ele>173.1</ele>
        <time>2020-09-12T10:09:04Z</time>
      </trkpt>
      <trkpt lat="45.78875" lon="4.89697">
        <ele>173.1</ele>
        <time>2020-09-12T10:09:05Z</time>
      </trkpt>
      <trkpt lat="45.78873" lon="4.89706">
        <ele>173</ele>
        <time>2020-09-12T10:09:06Z</time>
      </trkpt>
      <trkpt lat="45.78873" lon="4.89715">
        <ele>173</ele>
        <time>2020-09-12T10:09:07Z</time>
      </trkpt>
      <trkpt lat="45.78872" lon="4.89723">
        <ele>172.9</ele>
        <time>2020-09-12T10:09:08Z</time>
      </trkpt>
      <trkpt lat="45.78872" lon="4.89734">
        <ele>172.8</ele>
        <time>2020-09-12T10:09:09Z</time>
      </trkpt>
      <trkpt lat="45.78871" lon="4.89742">
        <ele>172.7</ele>
        <time>2020-09-12T10:09:10Z</time>
      </trkpt>
      <trkpt lat="45.78872" lon="4.89751">
        <ele>172.4</ele>
        <time>2020-09-12T10:09:11Z</time>
      </trkpt>
      <trkpt lat="45.78872" lon="4.8976">
        <ele>172.4</ele>
        <time>2020-09-12T10:09:12Z</time>
      </trkpt>
      <trkpt lat="45.78873" lon="4.89769">
        <ele>172.5</ele>
        <time>2020-09-12T10:09:13Z</time>
      </trkpt>
      <trkpt lat="45.78876" lon="4.89778">
        <ele>172.5</ele>
        <time>2020-09-12T10:09:14Z</time>
      </trkpt>
      <trkpt lat="45.78878" lon="4.89787">
        <ele>172.6</ele>
        <time>2020-09-12T10:09:15Z</time>
      </trkpt>
      <trkpt lat="45.7888" lon="4.89795">
        <ele>172.6</ele>
        <time>2020-09-12T10:09:16Z</time>
      </trkpt>
      <trkpt lat="45.78882" lon="4.89804">
        <ele>172.6</ele>
        <time>2020-09-12T10:09:17Z</time>
      </trkpt>
      <trkpt lat="45.78883" lon="4.89814">
        <ele>172.7</ele>
        <time>2020-09-12T10:09:18Z</time>
      </trkpt>
      <trkpt lat="45.78885" lon="4.89823">
        <ele>172.8</ele>
        <time>2020-09-12T10:09:19Z</time>
      </trkpt>
      <trkpt lat="45.78888" lon="4.8983">
        <ele>172.8</ele>
        <time>2020-09-12T10:09:20Z</time>
      </trkpt>
      <trkpt lat="45.7889" lon="4.89839">
        <ele>172.7</ele>
        <time>2020-09-12T10:09:21Z</time>
      </trkpt>
      <trkpt lat="45.78893" lon="4.89846">
        <ele>172.7</ele>
        <time>2020-09-12T10:09:22Z</time>
      </trkpt>
      <trkpt lat="45.78896" lon="4.89854">
        <ele>172.7</ele>
        <time>2020-09-12T10:09:23Z</time>
      </trkpt>
      <trkpt lat="45.78897" lon="4.89864">
        <ele>172.6</ele>
        <time>2020-09-12T10:09:24Z</time>
      </trkpt>
      <trkpt lat="45.78899" lon="4.89872">
        <ele>172.5</ele>
        <time>2020-09-12T10:09:25Z</time>
      </trkpt>
      <trkpt lat="45.78902" lon="4.89881">
        <ele>172.4</ele>
        <time>2020-09-12T10:09:26Z</time>
      </trkpt>
      <trkpt lat="45.78905" lon="4.89888">
        <ele>172.3</ele>
        <time>2020-09-12T10:09:27Z</time>
      </trkpt>
      <trkpt lat="45.78906" lon="4.89897">
        <ele>172.2</ele>
        <time>2020-09-12T10:09:28Z</time>
      </trkpt>
      <trkpt lat="45.78908" lon="4.89906">
        <ele>172.2</ele>
        <time>2020-09-12T10:09:29Z</time>
      </trkpt>
      <trkpt lat="45.78909" lon="4.89915">
        <ele>172.1</ele>
        <time>2020-09-12T10:09:30Z</time>
      </trkpt>
      <trkpt lat="45.7891" lon="4.89924">
        <ele>171.7</ele>
        <time>2020-09-12T10:09:31Z</time>
      </trkpt>
      <trkpt lat="45.78911" lon="4.89933">
        <ele>171.5</ele>
        <time>2020-09-12T10:09:32Z</time>
      </trkpt>
      <trkpt lat="45.78914" lon="4.89942">
        <ele>171.3</ele>
        <time>2020-09-12T10:09:33Z</time>
      </trkpt>
      <trkpt lat="45.78916" lon="4.89951">
        <ele>171.1</ele>
        <time>2020-09-12T10:09:34Z</time>
      </trkpt>
      <trkpt lat="45.78917" lon="4.89959">
        <ele>170.5</ele>
        <time>2020-09-12T10:09:35Z</time>
      </trkpt>
      <trkpt lat="45.78919" lon="4.89967">
        <ele>170.4</ele>
        <time>2020-09-12T10:09:36Z</time>
      </trkpt>
      <trkpt lat="45.78921" lon="4.89975">
        <ele>170.3</ele>
        <time>2020-09-12T10:09:37Z</time>
      </trkpt>
      <trkpt lat="45.78923" lon="4.89983">
        <ele>170.2</ele>
        <time>2020-09-12T10:09:38Z</time>
      </trkpt>
      <trkpt lat="45.78925" lon="4.8999">
        <ele>170.1</ele>
        <time>2020-09-12T10:09:39Z</time>
      </trkpt>
      <trkpt lat="45.78927" lon="4.89998">
        <ele>170.1</ele>
        <time>2020-09-12T10:09:40Z</time>
      </trkpt>
      <trkpt lat="45.78928" lon="4.90007">
        <ele>170</ele>
        <time>2020-09-12T10:09:41Z</time>
      </trkpt>
      <trkpt lat="45.7893" lon="4.90015">
        <ele>170</ele>
        <time>2020-09-12T10:09:42Z</time>
      </trkpt>
      <trkpt lat="45.78932" lon="4.90024">
        <ele>170</ele>
        <time>2020-09-12T10:09:43Z</time>
      </trkpt>
      <trkpt lat="45.78936" lon="4.90032">
        <ele>170</ele>
        <time>2020-09-12T10:09:44Z</time>
      </trkpt>
      <trkpt lat="45.78939" lon="4.9004">
        <ele>170</ele>
        <time>2020-09-12T10:09:45Z</time>
      </trkpt>
      <trkpt lat="45.78941" lon="4.90048">
        <ele>170</ele>
        <time>2020-09-12T10:09:46Z</time>
      </trkpt>
      <trkpt lat="45.78943" lon="4.90056">
        <ele>170</ele>
        <time>2020-09-12T10:09:47Z</time>
      </trkpt>
      <trkpt lat="45.78946" lon="4.90064">
        <ele>170.1</ele>
        <time>2020-09-12T10:09:48Z</time>
      </trkpt>
      <trkpt lat="45.78949" lon="4.90072">
        <ele>170.1</ele>
        <time>2020-09-12T10:09:49Z</time>
      </trkpt>
      <trkpt lat="45.78952" lon="4.9008">
        <ele>170.1</ele>
        <time>2020-09-12T10:09:50Z</time>
      </trkpt>
      <trkpt lat="45.78954" lon="4.90087">
        <ele>171.1</ele>
        <time>2020-09-12T10:09:51Z</time>
      </trkpt>
      <trkpt lat="45.78958" lon="4.90095">
        <ele>171.2</ele>
        <time>2020-09-12T10:09:52Z</time>
      </trkpt>
      <trkpt lat="45.7896" lon="4.90102">
        <ele>171.3</ele>
        <time>2020-09-12T10:09:53Z</time>
      </trkpt>
      <trkpt lat="45.78963" lon="4.90109">
        <ele>171.4</ele>
        <time>2020-09-12T10:09:54Z</time>
      </trkpt>
      <trkpt lat="45.78966" lon="4.90117">
        <ele>171.5</ele>
        <time>2020-09-12T10:09:55Z</time>
      </trkpt>
      <trkpt lat="45.78968" lon="4.90125">
        <ele>171.6</ele>
        <time>2020-09-12T10:09:56Z</time>
      </trkpt>
      <trkpt lat="45.78972" lon="4.90132">
        <ele>171.8</ele>
        <time>2020-09-12T10:09:57Z</time>
      </trkpt>
      <trkpt lat="45.78975" lon="4.90139">
        <ele>172</ele>
        <time>2020-09-12T10:09:58Z</time>
      </trkpt>
      <trkpt lat="45.78979" lon="4.90147">
        <ele>172.2</ele>
        <time>2020-09-12T10:09:59Z</time>
      </trkpt>
      <trkpt lat="45.78983" lon="4.90153">
        <ele>172.5</ele>
        <time>2020-09-12T10:10:00Z</time>
      </trkpt>
      <trkpt lat="45.78987" lon="4.90159">
        <ele>172.8</ele>
        <time>2020-09-12T10:10:01Z</time>
      </trkpt>
      <trkpt lat="45.78991" lon="4.90166">
        <ele>173.2</ele>
        <time>2020-09-12T10:10:02Z</time>
      </trkpt>
      <trkpt lat="45.78994" lon="4.90171">
        <ele>174</ele>
        <time>2020-09-12T10:10:03Z</time>
      </trkpt>
      <trkpt lat="45.78998" lon="4.90176">
        <ele>174.1</ele>
        <time>2020-09-12T10:10:04Z</time>
      </trkpt>
      <trkpt lat="45.79002" lon="4.90181">
        <ele>174.8</ele>
        <time>2020-09-12T10:10:05Z</time>
      </trkpt>
      <trkpt lat="45.79007" lon="4.90186">
        <ele>175</ele>
        <time>2020-09-12T10:10:06Z</time>
      </trkpt>
      <trkpt lat="45.7901" lon="4.90191">
        <ele>175.2</ele>
        <time>2020-09-12T10:10:07Z</time>
      </trkpt>
      <trkpt lat="45.79015" lon="4.90195">
        <ele>175.4</ele>
        <time>2020-09-12T10:10:08Z</time>
      </trkpt>
      <trkpt lat="45.79018" lon="4.90201">
        <ele>175.5</ele>
        <time>2020-09-12T10:10:09Z</time>
      </trkpt>
      <trkpt lat="45.79023" lon="4.90205">
        <ele>175.6</ele>
        <time>2020-09-12T10:10:10Z</time>
      </trkpt>
      <trkpt lat="45.7903" lon="4.90212">
        <ele>175.7</ele>
        <time>2020-09-12T10:10:12Z</time>
      </trkpt>
      <trkpt lat="45.79034" lon="4.90216">
        <ele>175.8</ele>
        <time>2020-09-12T10:10:13Z</time>
      </trkpt>
      <trkpt lat="45.7904" lon="4.9022">
        <ele>175.7</ele>
        <time>2020-09-12T10:10:14Z</time>
      </trkpt>
      <trkpt lat="45.79044" lon="4.90223">
        <ele>175.7</ele>
        <time>2020-09-12T10:10:15Z</time>
      </trkpt>
      <trkpt lat="45.79047" lon="4.90228">
        <ele>175.7</ele>
        <time>2020-09-12T10:10:16Z</time>
      </trkpt>
      <trkpt lat="45.79053" lon="4.90234">
        <ele>175.6</ele>
        <time>2020-09-12T10:10:17Z</time>
      </trkpt>
      <trkpt lat="45.79059" lon="4.90239">
        <ele>175.6</ele>
        <time>2020-09-12T10:10:18Z</time>
      </trkpt>
      <trkpt lat="45.79063" lon="4.90245">
        <ele>175.5</ele>
        <time>2020-09-12T10:10:19Z</time>
      </trkpt>
      <trkpt lat="45.79068" lon="4.90251">
        <ele>176.5</ele>
        <time>2020-09-12T10:10:20Z</time>
      </trkpt>
      <trkpt lat="45.79071" lon="4.90257">
        <ele>176.4</ele>
        <time>2020-09-12T10:10:21Z</time>
      </trkpt>
      <trkpt lat="45.79075" lon="4.90262">
        <ele>176.4</ele>
        <time>2020-09-12T10:10:22Z</time>
      </trkpt>
      <trkpt lat="45.79081" lon="4.90269">
        <ele>176.7</ele>
        <time>2020-09-12T10:10:23Z</time>
      </trkpt>
      <trkpt lat="45.79084" lon="4.90276">
        <ele>174.7</ele>
        <time>2020-09-12T10:10:24Z</time>
      </trkpt>
      <trkpt lat="45.79089" lon="4.90284">
        <ele>174.8</ele>
        <time>2020-09-12T10:10:25Z</time>
      </trkpt>
      <trkpt lat="45.79093" lon="4.90291">
        <ele>175</ele>
        <time>2020-09-12T10:10:26Z</time>
      </trkpt>
      <trkpt lat="45.79097" lon="4.90299">
        <ele>175.1</ele>
        <time>2020-09-12T10:10:27Z</time>
      </trkpt>
      <trkpt lat="45.79102" lon="4.90307">
        <ele>175.3</ele>
        <time>2020-09-12T10:10:28Z</time>
      </trkpt>
      <trkpt lat="45.79105" lon="4.90315">
        <ele>175.5</ele>
        <time>2020-09-12T10:10:29Z</time>
      </trkpt>
      <trkpt lat="45.79108" lon="4.90324">
        <ele>175.6</ele>
        <time>2020-09-12T10:10:30Z</time>
      </trkpt>
      <trkpt lat="45.79113" lon="4.90331">
        <ele>175.3</ele>
        <time>2020-09-12T10:10:31Z</time>
      </trkpt>
      <trkpt lat="45.79117" lon="4.9034">
        <ele>175.7</ele>
        <time>2020-09-12T10:10:32Z</time>
      </trkpt>
      <trkpt lat="45.79119" lon="4.9035">
        <ele>175.5</ele>
        <time>2020-09-12T10:10:33Z</time>
      </trkpt>
      <trkpt lat="45.7912" lon="4.90358">
        <ele>175.3</ele>
        <time>2020-09-12T10:10:34Z</time>
      </trkpt>
      <trkpt lat="45.79121" lon="4.90367">
        <ele>175.2</ele>
        <time>2020-09-12T10:10:35Z</time>
      </trkpt>
      <trkpt lat="45.79122" lon="4.90375">
        <ele>175.2</ele>
        <time>2020-09-12T10:10:36Z</time>
      </trkpt>
      <trkpt lat="45.79125" lon="4.90383">
        <ele>175</ele>
        <time>2020-09-12T10:10:37Z</time>
      </trkpt>
      <trkpt lat="45.79127" lon="4.90391">
        <ele>174.9</ele>
        <time>2020-09-12T10:10:38Z</time>
      </trkpt>
      <trkpt lat="45.79128" lon="4.904">
        <ele>174.7</ele>
        <time>2020-09-12T10:10:39Z</time>
      </trkpt>
      <trkpt lat="45.79129" lon="4.90409">
        <ele>174.6</ele>
        <time>2020-09-12T10:10:40Z</time>
      </trkpt>
      <trkpt lat="45.79131" lon="4.90415">
        <ele>174.4</ele>
        <time>2020-09-12T10:10:41Z</time>
      </trkpt>
      <trkpt lat="45.79133" lon="4.90423">
        <ele>174.3</ele>
        <time>2020-09-12T10:10:42Z</time>
      </trkpt>
      <trkpt lat="45.79133" lon="4.9043">
        <ele>174.4</ele>
        <time>2020-09-12T10:10:43Z</time>
      </trkpt>
      <trkpt lat="45.79135" lon="4.90439">
        <ele>174.4</ele>
        <time>2020-09-12T10:10:44Z</time>
      </trkpt>
      <trkpt lat="45.79136" lon="4.90447">
        <ele>174.4</ele>
        <time>2020-09-12T10:10:45Z</time>
      </trkpt>
      <trkpt lat="45.79136" lon="4.90456">
        <ele>174.5</ele>
        <time>2020-09-12T10:10:46Z</time>
      </trkpt>
      <trkpt lat="45.79136" lon="4.90466">
        <ele>174.5</ele>
        <time>2020-09-12T10:10:47Z</time>
      </trkpt>
      <trkpt lat="45.79137" lon="4.90475">
        <ele>174.4</ele>
        <time>2020-09-12T10:10:48Z</time>
      </trkpt>
      <trkpt lat="45.79137" lon="4.90485">
        <ele>174.4</ele>
        <time>2020-09-12T10:10:49Z</time>
      </trkpt>
      <trkpt lat="45.79136" lon="4.90494">
        <ele>174.4</ele>
        <time>2020-09-12T10:10:50Z</time>
      </trkpt>
      <trkpt lat="45.79135" lon="4.90505">
        <ele>173.9</ele>
        <time>2020-09-12T10:10:51Z</time>
      </trkpt>
      <trkpt lat="45.79134" lon="4.90514">
        <ele>173.9</ele>
        <time>2020-09-12T10:10:52Z</time>
      </trkpt>
      <trkpt lat="45.79133" lon="4.90524">
        <ele>173.9</ele>
        <time>2020-09-12T10:10:53Z</time>
      </trkpt>
      <trkpt lat="45.79132" lon="4.90534">
        <ele>173.9</ele>
        <time>2020-09-12T10:10:54Z</time>
      </trkpt>
      <trkpt lat="45.79132" lon="4.90543">
        <ele>173.8</ele>
        <time>2020-09-12T10:10:55Z</time>
      </trkpt>
      <trkpt lat="45.79131" lon="4.90552">
        <ele>173.7</ele>
        <time>2020-09-12T10:10:56Z</time>
      </trkpt>
      <trkpt lat="45.79129" lon="4.9056">
        <ele>173.6</ele>
        <time>2020-09-12T10:10:57Z</time>
      </trkpt>
      <trkpt lat="45.79128" lon="4.90569">
        <ele>173.6</ele>
        <time>2020-09-12T10:10:58Z</time>
      </trkpt>
      <trkpt lat="45.79127" lon="4.90578">
        <ele>173.6</ele>
        <time>2020-09-12T10:10:59Z</time>
      </trkpt>
      <trkpt lat="45.79126" lon="4.90587">
        <ele>172.6</ele>
        <time>2020-09-12T10:11:00Z</time>
      </trkpt>
      <trkpt lat="45.79125" lon="4.90595">
        <ele>172.7</ele>
        <time>2020-09-12T10:11:01Z</time>
      </trkpt>
      <trkpt lat="45.79124" lon="4.90604">
        <ele>172.6</ele>
        <time>2020-09-12T10:11:02Z</time>
      </trkpt>
      <trkpt lat="45.79123" lon="4.90612">
        <ele>172.6</ele>
        <time>2020-09-12T10:11:03Z</time>
      </trkpt>
      <trkpt lat="45.79122" lon="4.90621">
        <ele>172.6</ele>
        <time>2020-09-12T10:11:04Z</time>
      </trkpt>
      <trkpt lat="45.79121" lon="4.90629">
        <ele>172.6</ele>
        <time>2020-09-12T10:11:05Z</time>
      </trkpt>
      <trkpt lat="45.7912" lon="4.90638">
        <ele>172.5</ele>
        <time>2020-09-12T10:11:06Z</time>
      </trkpt>
      <trkpt lat="45.79119" lon="4.90647">
        <ele>172.6</ele>
        <time>2020-09-12T10:11:07Z</time>
      </trkpt>
      <trkpt lat="45.79118" lon="4.90655">
        <ele>172.6</ele>
        <time>2020-09-12T10:11:08Z</time>
      </trkpt>
      <trkpt lat="45.79117" lon="4.90665">
        <ele>172.6</ele>
        <time>2020-09-12T10:11:09Z</time>
      </trkpt>
      <trkpt lat="45.79116" lon="4.90674">
        <ele>172</ele>
        <time>2020-09-12T10:11:10Z</time>
      </trkpt>
      <trkpt lat="45.79116" lon="4.90683">
        <ele>171.9</ele>
        <time>2020-09-12T10:11:11Z</time>
      </trkpt>
      <trkpt lat="45.79115" lon="4.90692">
        <ele>171.8</ele>
        <time>2020-09-12T10:11:12Z</time>
      </trkpt>
      <trkpt lat="45.79116" lon="4.90701">
        <ele>171.7</ele>
        <time>2020-09-12T10:11:13Z</time>
      </trkpt>
      <trkpt lat="45.79115" lon="4.90709">
        <ele>171.7</ele>
        <time>2020-09-12T10:11:14Z</time>
      </trkpt>
      <trkpt lat="45.79115" lon="4.90717">
        <ele>171.6</ele>
        <time>2020-09-12T10:11:15Z</time>
      </trkpt>
      <trkpt lat="45.79115" lon="4.90725">
        <ele>171.6</ele>
        <time>2020-09-12T10:11:16Z</time>
      </trkpt>
      <trkpt lat="45.79114" lon="4.90733">
        <ele>171.5</ele>
        <time>2020-09-12T10:11:17Z</time>
      </trkpt>
      <trkpt lat="45.79113" lon="4.90742">
        <ele>171.5</ele>
        <time>2020-09-12T10:11:18Z</time>
      </trkpt>
      <trkpt lat="45.79112" lon="4.90752">
        <ele>170.6</ele>
        <time>2020-09-12T10:11:19Z</time>
      </trkpt>
      <trkpt lat="45.79113" lon="4.90761">
        <ele>170.5</ele>
        <time>2020-09-12T10:11:20Z</time>
      </trkpt>
      <trkpt lat="45.79112" lon="4.90769">
        <ele>170.4</ele>
        <time>2020-09-12T10:11:21Z</time>
      </trkpt>
      <trkpt lat="45.79112" lon="4.90778">
        <ele>170.3</ele>
        <time>2020-09-12T10:11:22Z</time>
      </trkpt>
      <trkpt lat="45.79112" lon="4.90787">
        <ele>170.1</ele>
        <time>2020-09-12T10:11:23Z</time>
      </trkpt>
      <trkpt lat="45.79112" lon="4.90796">
        <ele>169.9</ele>
        <time>2020-09-12T10:11:24Z</time>
      </trkpt>
      <trkpt lat="45.79112" lon="4.90805">
        <ele>169.8</ele>
        <time>2020-09-12T10:11:25Z</time>
      </trkpt>
      <trkpt lat="45.79113" lon="4.90814">
        <ele>169.6</ele>
        <time>2020-09-12T10:11:26Z</time>
      </trkpt>
      <trkpt lat="45.79113" lon="4.90824">
        <ele>169.5</ele>
        <time>2020-09-12T10:11:27Z</time>
      </trkpt>
      <trkpt lat="45.79115" lon="4.90833">
        <ele>169.4</ele>
        <time>2020-09-12T10:11:28Z</time>
      </trkpt>
      <trkpt lat="45.79116" lon="4.90842">
        <ele>169.5</ele>
        <time>2020-09-12T10:11:29Z</time>
      </trkpt>
      <trkpt lat="45.79116" lon="4.90851">
        <ele>169.6</ele>
        <time>2020-09-12T10:11:30Z</time>
      </trkpt>
      <trkpt lat="45.79118" lon="4.90859">
        <ele>169.7</ele>
        <time>2020-09-12T10:11:31Z</time>
      </trkpt>
      <trkpt lat="45.7912" lon="4.90869">
        <ele>169.9</ele>
        <time>2020-09-12T10:11:32Z</time>
      </trkpt>
      <trkpt lat="45.7912" lon="4.90877">
        <ele>170</ele>
        <time>2020-09-12T10:11:33Z</time>
      </trkpt>
      <trkpt lat="45.79122" lon="4.90886">
        <ele>170.1</ele>
        <time>2020-09-12T10:11:34Z</time>
      </trkpt>
      <trkpt lat="45.79124" lon="4.90894">
        <ele>170.2</ele>
        <time>2020-09-12T10:11:35Z</time>
      </trkpt>
      <trkpt lat="45.79125" lon="4.90903">
        <ele>170.3</ele>
        <time>2020-09-12T10:11:36Z</time>
      </trkpt>
      <trkpt lat="45.79127" lon="4.90912">
        <ele>170.4</ele>
        <time>2020-09-12T10:11:37Z</time>
      </trkpt>
      <trkpt lat="45.7913" lon="4.90921">
        <ele>171.5</ele>
        <time>2020-09-12T10:11:38Z</time>
      </trkpt>
      <trkpt lat="45.79132" lon="4.9093">
        <ele>171.5</ele>
        <time>2020-09-12T10:11:39Z</time>
      </trkpt>
      <trkpt lat="45.79134" lon="4.90939">
        <ele>171.5</ele>
        <time>2020-09-12T10:11:40Z</time>
      </trkpt>
      <trkpt lat="45.79137" lon="4.90947">
        <ele>171.6</ele>
        <time>2020-09-12T10:11:41Z</time>
      </trkpt>
      <trkpt lat="45.79139" lon="4.90956">
        <ele>171.6</ele>
        <time>2020-09-12T10:11:42Z</time>
      </trkpt>
      <trkpt lat="45.79141" lon="4.90964">
        <ele>171.6</ele>
        <time>2020-09-12T10:11:43Z</time>
      </trkpt>
      <trkpt lat="45.79142" lon="4.90973">
        <ele>171.6</ele>
        <time>2020-09-12T10:11:44Z</time>
      </trkpt>
      <trkpt lat="45.79144" lon="4.90982">
        <ele>171.6</ele>
        <time>2020-09-12T10:11:45Z</time>
      </trkpt>
      <trkpt lat="45.79146" lon="4.90991">
        <ele>171.6</ele>
        <time>2020-09-12T10:11:46Z</time>
      </trkpt>
      <trkpt lat="45.79149" lon="4.91">
        <ele>171.5</ele>
        <time>2020-09-12T10:11:47Z</time>
      </trkpt>
      <trkpt lat="45.7915" lon="4.91009">
        <ele>171.8</ele>
        <time>2020-09-12T10:11:48Z</time>
      </trkpt>
      <trkpt lat="45.79152" lon="4.91016">
        <ele>171.9</ele>
        <time>2020-09-12T10:11:49Z</time>
      </trkpt>
      <trkpt lat="45.79153" lon="4.91025">
        <ele>172</ele>
        <time>2020-09-12T10:11:50Z</time>
      </trkpt>
      <trkpt lat="45.79155" lon="4.91035">
        <ele>172</ele>
        <time>2020-09-12T10:11:51Z</time>
      </trkpt>
      <trkpt lat="45.79157" lon="4.91043">
        <ele>172</ele>
        <time>2020-09-12T10:11:52Z</time>
      </trkpt>
      <trkpt lat="45.79159" lon="4.91051">
        <ele>172</ele>
        <time>2020-09-12T10:11:53Z</time>
      </trkpt>
      <trkpt lat="45.79161" lon="4.91059">
        <ele>171.9</ele>
        <time>2020-09-12T10:11:54Z</time>
      </trkpt>
      <trkpt lat="45.79163" lon="4.91068">
        <ele>171.7</ele>
        <time>2020-09-12T10:11:55Z</time>
      </trkpt>
      <trkpt lat="45.79165" lon="4.91077">
        <ele>171.4</ele>
        <time>2020-09-12T10:11:56Z</time>
      </trkpt>
      <trkpt lat="45.79167" lon="4.91086">
        <ele>170.9</ele>
        <time>2020-09-12T10:11:57Z</time>
      </trkpt>
      <trkpt lat="45.7917" lon="4.91093">
        <ele>170.8</ele>
        <time>2020-09-12T10:11:58Z</time>
      </trkpt>
      <trkpt lat="45.79172" lon="4.91102">
        <ele>170.7</ele>
        <time>2020-09-12T10:11:59Z</time>
      </trkpt>
      <trkpt lat="45.79173" lon="4.9111">
        <ele>170.6</ele>
        <time>2020-09-12T10:12:00Z</time>
      </trkpt>
      <trkpt lat="45.79175" lon="4.91119">
        <ele>170.6</ele>
        <time>2020-09-12T10:12:01Z</time>
      </trkpt>
      <trkpt lat="45.79177" lon="4.91128">
        <ele>170.7</ele>
        <time>2020-09-12T10:12:02Z</time>
      </trkpt>
      <trkpt lat="45.79179" lon="4.91136">
        <ele>170.8</ele>
        <time>2020-09-12T10:12:03Z</time>
      </trkpt>
      <trkpt lat="45.7918" lon="4.91145">
        <ele>170.9</ele>
        <time>2020-09-12T10:12:04Z</time>
      </trkpt>
      <trkpt lat="45.79183" lon="4.91152">
        <ele>170.9</ele>
        <time>2020-09-12T10:12:05Z</time>
      </trkpt>
      <trkpt lat="45.79185" lon="4.91161">
        <ele>171</ele>
        <time>2020-09-12T10:12:06Z</time>
      </trkpt>
      <trkpt lat="45.79186" lon="4.91169">
        <ele>171.2</ele>
        <time>2020-09-12T10:12:07Z</time>
      </trkpt>
      <trkpt lat="45.79188" lon="4.91177">
        <ele>171.1</ele>
        <time>2020-09-12T10:12:08Z</time>
      </trkpt>
      <trkpt lat="45.7919" lon="4.91186">
        <ele>171</ele>
        <time>2020-09-12T10:12:09Z</time>
      </trkpt>
      <trkpt lat="45.79192" lon="4.91194">
        <ele>170.9</ele>
        <time>2020-09-12T10:12:10Z</time>
      </trkpt>
      <trkpt lat="45.79192" lon="4.91201">
        <ele>170.9</ele>
        <time>2020-09-12T10:12:11Z</time>
      </trkpt>
      <trkpt lat="45.79194" lon="4.91209">
        <ele>170.9</ele>
        <time>2020-09-12T10:12:12Z</time>
      </trkpt>
      <trkpt lat="45.79195" lon="4.91217">
        <ele>170.9</ele>
        <time>2020-09-12T10:12:13Z</time>
      </trkpt>
      <trkpt lat="45.79198" lon="4.91225">
        <ele>170.9</ele>
        <time>2020-09-12T10:12:14Z</time>
      </trkpt>
      <trkpt lat="45.792" lon="4.91232">
        <ele>170.9</ele>
        <time>2020-09-12T10:12:15Z</time>
      </trkpt>
      <trkpt lat="45.79202" lon="4.91241">
        <ele>170.9</ele>
        <time>2020-09-12T10:12:16Z</time>
      </trkpt>
      <trkpt lat="45.79204" lon="4.91248">
        <ele>170.9</ele>
        <time>2020-09-12T10:12:17Z</time>
      </trkpt>
      <trkpt lat="45.79206" lon="4.91256">
        <ele>171.5</ele>
        <time>2020-09-12T10:12:18Z</time>
      </trkpt>
      <trkpt lat="45.79208" lon="4.91264">
        <ele>171.5</ele>
        <time>2020-09-12T10:12:19Z</time>
      </trkpt>
      <trkpt lat="45.7921" lon="4.91272">
        <ele>171.6</ele>
        <time>2020-09-12T10:12:20Z</time>
      </trkpt>
      <trkpt lat="45.79211" lon="4.91279">
        <ele>171.6</ele>
        <time>2020-09-12T10:12:21Z</time>
      </trkpt>
      <trkpt lat="45.79213" lon="4.91288">
        <ele>171.7</ele>
        <time>2020-09-12T10:12:22Z</time>
      </trkpt>
      <trkpt lat="45.79216" lon="4.91295">
        <ele>171.8</ele>
        <time>2020-09-12T10:12:23Z</time>
      </trkpt>
      <trkpt lat="45.79217" lon="4.91304">
        <ele>171.8</ele>
        <time>2020-09-12T10:12:24Z</time>
      </trkpt>
      <trkpt lat="45.79218" lon="4.91312">
        <ele>171.9</ele>
        <time>2020-09-12T10:12:25Z</time>
      </trkpt>
      <trkpt lat="45.7922" lon="4.9132">
        <ele>171.9</ele>
        <time>2020-09-12T10:12:26Z</time>
      </trkpt>
      <trkpt lat="45.79222" lon="4.91328">
        <ele>171.9</ele>
        <time>2020-09-12T10:12:27Z</time>
      </trkpt>
      <trkpt lat="45.79224" lon="4.91337">
        <ele>172.1</ele>
        <time>2020-09-12T10:12:28Z</time>
      </trkpt>
      <trkpt lat="45.79226" lon="4.91345">
        <ele>172</ele>
        <time>2020-09-12T10:12:29Z</time>
      </trkpt>
      <trkpt lat="45.79227" lon="4.91354">
        <ele>172</ele>
        <time>2020-09-12T10:12:30Z</time>
      </trkpt>
      <trkpt lat="45.79229" lon="4.91363">
        <ele>172</ele>
        <time>2020-09-12T10:12:31Z</time>
      </trkpt>
      <trkpt lat="45.79231" lon="4.91371">
        <ele>171.9</ele>
        <time>2020-09-12T10:12:32Z</time>
      </trkpt>
      <trkpt lat="45.79233" lon="4.91379">
        <ele>171.8</ele>
        <time>2020-09-12T10:12:33Z</time>
      </trkpt>
      <trkpt lat="45.79235" lon="4.91388">
        <ele>171.7</ele>
        <time>2020-09-12T10:12:34Z</time>
      </trkpt>
      <trkpt lat="45.79237" lon="4.91396">
        <ele>171.6</ele>
        <time>2020-09-12T10:12:35Z</time>
      </trkpt>
      <trkpt lat="45.79239" lon="4.91405">
        <ele>171.5</ele>
        <time>2020-09-12T10:12:36Z</time>
      </trkpt>
      <trkpt lat="45.7924" lon="4.91414">
        <ele>171.3</ele>
        <time>2020-09-12T10:12:37Z</time>
      </trkpt>
      <trkpt lat="45.79242" lon="4.91422">
        <ele>171.3</ele>
        <time>2020-09-12T10:12:38Z</time>
      </trkpt>
      <trkpt lat="45.79245" lon="4.9143">
        <ele>171.3</ele>
        <time>2020-09-12T10:12:39Z</time>
      </trkpt>
      <trkpt lat="45.79246" lon="4.91438">
        <ele>171.5</ele>
        <time>2020-09-12T10:12:40Z</time>
      </trkpt>
      <trkpt lat="45.79248" lon="4.91447">
        <ele>171.5</ele>
        <time>2020-09-12T10:12:41Z</time>
      </trkpt>
      <trkpt lat="45.79251" lon="4.91456">
        <ele>171.2</ele>
        <time>2020-09-12T10:12:42Z</time>
      </trkpt>
      <trkpt lat="45.79252" lon="4.91464">
        <ele>171.2</ele>
        <time>2020-09-12T10:12:43Z</time>
      </trkpt>
      <trkpt lat="45.79255" lon="4.91472">
        <ele>171.3</ele>
        <time>2020-09-12T10:12:44Z</time>
      </trkpt>
      <trkpt lat="45.79258" lon="4.9148">
        <ele>171.4</ele>
        <time>2020-09-12T10:12:45Z</time>
      </trkpt>
      <trkpt lat="45.7926" lon="4.91489">
        <ele>171.5</ele>
        <time>2020-09-12T10:12:46Z</time>
      </trkpt>
      <trkpt lat="45.79263" lon="4.91498">
        <ele>171.6</ele>
        <time>2020-09-12T10:12:47Z</time>
      </trkpt>
      <trkpt lat="45.79265" lon="4.91507">
        <ele>171.6</ele>
        <time>2020-09-12T10:12:48Z</time>
      </trkpt>
      <trkpt lat="45.79267" lon="4.91514">
        <ele>171.6</ele>
        <time>2020-09-12T10:12:49Z</time>
      </trkpt>
      <trkpt lat="45.79269" lon="4.91523">
        <ele>171.5</ele>
        <time>2020-09-12T10:12:50Z</time>
      </trkpt>
      <trkpt lat="45.79271" lon="4.91531">
        <ele>171.5</ele>
        <time>2020-09-12T10:12:51Z</time>
      </trkpt>
      <trkpt lat="45.79274" lon="4.91539">
        <ele>171.5</ele>
        <time>2020-09-12T10:12:52Z</time>
      </trkpt>
      <trkpt lat="45.79276" lon="4.91548">
        <ele>171.5</ele>
        <time>2020-09-12T10:12:53Z</time>
      </trkpt>
      <trkpt lat="45.79278" lon="4.91557">
        <ele>171.5</ele>
        <time>2020-09-12T10:12:54Z</time>
      </trkpt>
      <trkpt lat="45.7928" lon="4.91565">
        <ele>171.6</ele>
        <time>2020-09-12T10:12:55Z</time>
      </trkpt>
      <trkpt lat="45.79282" lon="4.91573">
        <ele>171.6</ele>
        <time>2020-09-12T10:12:56Z</time>
      </trkpt>
      <trkpt lat="45.79284" lon="4.91582">
        <ele>171.6</ele>
        <time>2020-09-12T10:12:57Z</time>
      </trkpt>
      <trkpt lat="45.79285" lon="4.9159">
        <ele>171.5</ele>
        <time>2020-09-12T10:12:58Z</time>
      </trkpt>
      <trkpt lat="45.79287" lon="4.91599">
        <ele>171.4</ele>
        <time>2020-09-12T10:12:59Z</time>
      </trkpt>
      <trkpt lat="45.79289" lon="4.91607">
        <ele>171.3</ele>
        <time>2020-09-12T10:13:00Z</time>
      </trkpt>
      <trkpt lat="45.79291" lon="4.91615">
        <ele>171.3</ele>
        <time>2020-09-12T10:13:01Z</time>
      </trkpt>
      <trkpt lat="45.79293" lon="4.91623">
        <ele>171.2</ele>
        <time>2020-09-12T10:13:02Z</time>
      </trkpt>
      <trkpt lat="45.79295" lon="4.9163">
        <ele>171.2</ele>
        <time>2020-09-12T10:13:03Z</time>
      </trkpt>
      <trkpt lat="45.79297" lon="4.91638">
        <ele>171.2</ele>
        <time>2020-09-12T10:13:04Z</time>
      </trkpt>
      <trkpt lat="45.79298" lon="4.91646">
        <ele>171.2</ele>
        <time>2020-09-12T10:13:05Z</time>
      </trkpt>
      <trkpt lat="45.793" lon="4.91653">
        <ele>171.1</ele>
        <time>2020-09-12T10:13:06Z</time>
      </trkpt>
      <trkpt lat="45.79303" lon="4.91659">
        <ele>171.1</ele>
        <time>2020-09-12T10:13:07Z</time>
      </trkpt>
      <trkpt lat="45.79304" lon="4.91667">
        <ele>170.9</ele>
        <time>2020-09-12T10:13:08Z</time>
      </trkpt>
      <trkpt lat="45.79306" lon="4.91675">
        <ele>170.9</ele>
        <time>2020-09-12T10:13:09Z</time>
      </trkpt>
      <trkpt lat="45.79307" lon="4.91683">
        <ele>170.9</ele>
        <time>2020-09-12T10:13:10Z</time>
      </trkpt>
      <trkpt lat="45.79308" lon="4.91691">
        <ele>170.9</ele>
        <time>2020-09-12T10:13:11Z</time>
      </trkpt>
      <trkpt lat="45.7931" lon="4.91699">
        <ele>170.9</ele>
        <time>2020-09-12T10:13:12Z</time>
      </trkpt>
      <trkpt lat="45.79311" lon="4.91706">
        <ele>170.9</ele>
        <time>2020-09-12T10:13:13Z</time>
      </trkpt>
      <trkpt lat="45.79314" lon="4.91714">
        <ele>171</ele>
        <time>2020-09-12T10:13:14Z</time>
      </trkpt>
      <trkpt lat="45.79315" lon="4.91721">
        <ele>171</ele>
        <time>2020-09-12T10:13:15Z</time>
      </trkpt>
      <trkpt lat="45.79317" lon="4.91729">
        <ele>171.1</ele>
        <time>2020-09-12T10:13:16Z</time>
      </trkpt>
      <trkpt lat="45.79319" lon="4.91737">
        <ele>171.3</ele>
        <time>2020-09-12T10:13:17Z</time>
      </trkpt>
      <trkpt lat="45.79321" lon="4.91744">
        <ele>171.4</ele>
        <time>2020-09-12T10:13:18Z</time>
      </trkpt>
      <trkpt lat="45.79323" lon="4.91752">
        <ele>171.7</ele>
        <time>2020-09-12T10:13:19Z</time>
      </trkpt>
      <trkpt lat="45.79325" lon="4.91761">
        <ele>171.6</ele>
        <time>2020-09-12T10:13:20Z</time>
      </trkpt>
      <trkpt lat="45.79326" lon="4.91768">
        <ele>171.6</ele>
        <time>2020-09-12T10:13:21Z</time>
      </trkpt>
      <trkpt lat="45.79328" lon="4.91776">
        <ele>171.5</ele>
        <time>2020-09-12T10:13:22Z</time>
      </trkpt>
      <trkpt lat="45.7933" lon="4.91784">
        <ele>171.5</ele>
        <time>2020-09-12T10:13:23Z</time>
      </trkpt>
      <trkpt lat="45.79332" lon="4.91792">
        <ele>171.5</ele>
        <time>2020-09-12T10:13:24Z</time>
      </trkpt>
      <trkpt lat="45.79334" lon="4.918">
        <ele>172.1</ele>
        <time>2020-09-12T10:13:25Z</time>
      </trkpt>
      <trkpt lat="45.79336" lon="4.91808">
        <ele>172.1</ele>
        <time>2020-09-12T10:13:26Z</time>
      </trkpt>
      <trkpt lat="45.79338" lon="4.91816">
        <ele>172.1</ele>
        <time>2020-09-12T10:13:27Z</time>
      </trkpt>
      <trkpt lat="45.7934" lon="4.91823">
        <ele>172.1</ele>
        <time>2020-09-12T10:13:28Z</time>
      </trkpt>
      <trkpt lat="45.79342" lon="4.91831">
        <ele>172.1</ele>
        <time>2020-09-12T10:13:29Z</time>
      </trkpt>
      <trkpt lat="45.79343" lon="4.9184">
        <ele>171.8</ele>
        <time>2020-09-12T10:13:30Z</time>
      </trkpt>
      <trkpt lat="45.79345" lon="4.91849">
        <ele>171.7</ele>
        <time>2020-09-12T10:13:31Z</time>
      </trkpt>
      <trkpt lat="45.79345" lon="4.91857">
        <ele>171.6</ele>
        <time>2020-09-12T10:13:32Z</time>
      </trkpt>
      <trkpt lat="45.79348" lon="4.91865">
        <ele>171.5</ele>
        <time>2020-09-12T10:13:33Z</time>
      </trkpt>
      <trkpt lat="45.79349" lon="4.91874">
        <ele>171.5</ele>
        <time>2020-09-12T10:13:34Z</time>
      </trkpt>
      <trkpt lat="45.7935" lon="4.91882">
        <ele>171.4</ele>
        <time>2020-09-12T10:13:35Z</time>
      </trkpt>
      <trkpt lat="45.79353" lon="4.91889">
        <ele>171.4</ele>
        <time>2020-09-12T10:13:36Z</time>
      </trkpt>
      <trkpt lat="45.79355" lon="4.91897">
        <ele>171.4</ele>
        <time>2020-09-12T10:13:37Z</time>
      </trkpt>
      <trkpt lat="45.79356" lon="4.91905">
        <ele>171.4</ele>
        <time>2020-09-12T10:13:38Z</time>
      </trkpt>
      <trkpt lat="45.79358" lon="4.91913">
        <ele>171.4</ele>
        <time>2020-09-12T10:13:39Z</time>
      </trkpt>
      <trkpt lat="45.79359" lon="4.91921">
        <ele>170.9</ele>
        <time>2020-09-12T10:13:40Z</time>
      </trkpt>
      <trkpt lat="45.79361" lon="4.91929">
        <ele>170.9</ele>
        <time>2020-09-12T10:13:41Z</time>
      </trkpt>
      <trkpt lat="45.79363" lon="4.91936">
        <ele>170.8</ele>
        <time>2020-09-12T10:13:42Z</time>
      </trkpt>
      <trkpt lat="45.79365" lon="4.91945">
        <ele>170.7</ele>
        <time>2020-09-12T10:13:43Z</time>
      </trkpt>
      <trkpt lat="45.79366" lon="4.91953">
        <ele>170.7</ele>
        <time>2020-09-12T10:13:44Z</time>
      </trkpt>
      <trkpt lat="45.79368" lon="4.91961">
        <ele>170.6</ele>
        <time>2020-09-12T10:13:45Z</time>
      </trkpt>
      <trkpt lat="45.7937" lon="4.91968">
        <ele>170.6</ele>
        <time>2020-09-12T10:13:46Z</time>
      </trkpt>
      <trkpt lat="45.79371" lon="4.91977">
        <ele>170.6</ele>
        <time>2020-09-12T10:13:47Z</time>
      </trkpt>
      <trkpt lat="45.79373" lon="4.91985">
        <ele>170.6</ele>
        <time>2020-09-12T10:13:48Z</time>
      </trkpt>
      <trkpt lat="45.79375" lon="4.91993">
        <ele>170.5</ele>
        <time>2020-09-12T10:13:49Z</time>
      </trkpt>
      <trkpt lat="45.79377" lon="4.92001">
        <ele>170.7</ele>
        <time>2020-09-12T10:13:50Z</time>
      </trkpt>
      <trkpt lat="45.79379" lon="4.92009">
        <ele>170.7</ele>
        <time>2020-09-12T10:13:51Z</time>
      </trkpt>
      <trkpt lat="45.7938" lon="4.92016">
        <ele>170.7</ele>
        <time>2020-09-12T10:13:52Z</time>
      </trkpt>
      <trkpt lat="45.79382" lon="4.92024">
        <ele>170.8</ele>
        <time>2020-09-12T10:13:53Z</time>
      </trkpt>
      <trkpt lat="45.79384" lon="4.92032">
        <ele>170.8</ele>
        <time>2020-09-12T10:13:54Z</time>
      </trkpt>
      <trkpt lat="45.79386" lon="4.92039">
        <ele>170.9</ele>
        <time>2020-09-12T10:13:55Z</time>
      </trkpt>
      <trkpt lat="45.79387" lon="4.92047">
        <ele>170.9</ele>
        <time>2020-09-12T10:13:56Z</time>
      </trkpt>
      <trkpt lat="45.79389" lon="4.92055">
        <ele>170.9</ele>
        <time>2020-09-12T10:13:57Z</time>
      </trkpt>
      <trkpt lat="45.79391" lon="4.92063">
        <ele>171</ele>
        <time>2020-09-12T10:13:58Z</time>
      </trkpt>
      <trkpt lat="45.79395" lon="4.92071">
        <ele>171</ele>
        <time>2020-09-12T10:13:59Z</time>
      </trkpt>
      <trkpt lat="45.79397" lon="4.92078">
        <ele>171</ele>
        <time>2020-09-12T10:14:00Z</time>
      </trkpt>
      <trkpt lat="45.79398" lon="4.92086">
        <ele>171.5</ele>
        <time>2020-09-12T10:14:01Z</time>
      </trkpt>
      <trkpt lat="45.794" lon="4.92095">
        <ele>171.6</ele>
        <time>2020-09-12T10:14:02Z</time>
      </trkpt>
      <trkpt lat="45.79402" lon="4.92103">
        <ele>171.7</ele>
        <time>2020-09-12T10:14:03Z</time>
      </trkpt>
      <trkpt lat="45.79404" lon="4.9211">
        <ele>171.8</ele>
        <time>2020-09-12T10:14:04Z</time>
      </trkpt>
      <trkpt lat="45.79406" lon="4.92118">
        <ele>171.9</ele>
        <time>2020-09-12T10:14:05Z</time>
      </trkpt>
      <trkpt lat="45.79408" lon="4.92127">
        <ele>172</ele>
        <time>2020-09-12T10:14:06Z</time>
      </trkpt>
      <trkpt lat="45.7941" lon="4.92135">
        <ele>172.2</ele>
        <time>2020-09-12T10:14:07Z</time>
      </trkpt>
      <trkpt lat="45.79412" lon="4.92144">
        <ele>172.3</ele>
        <time>2020-09-12T10:14:08Z</time>
      </trkpt>
      <trkpt lat="45.79414" lon="4.92151">
        <ele>172.5</ele>
        <time>2020-09-12T10:14:09Z</time>
      </trkpt>
      <trkpt lat="45.79416" lon="4.9216">
        <ele>172.7</ele>
        <time>2020-09-12T10:14:10Z</time>
      </trkpt>
      <trkpt lat="45.79417" lon="4.92168">
        <ele>173</ele>
        <time>2020-09-12T10:14:11Z</time>
      </trkpt>
      <trkpt lat="45.7942" lon="4.92176">
        <ele>172.8</ele>
        <time>2020-09-12T10:14:12Z</time>
      </trkpt>
      <trkpt lat="45.79422" lon="4.92184">
        <ele>172.6</ele>
        <time>2020-09-12T10:14:13Z</time>
      </trkpt>
      <trkpt lat="45.79424" lon="4.92192">
        <ele>172.5</ele>
        <time>2020-09-12T10:14:14Z</time>
      </trkpt>
      <trkpt lat="45.79425" lon="4.922">
        <ele>172.4</ele>
        <time>2020-09-12T10:14:15Z</time>
      </trkpt>
      <trkpt lat="45.79427" lon="4.92207">
        <ele>172.3</ele>
        <time>2020-09-12T10:14:16Z</time>
      </trkpt>
      <trkpt lat="45.79429" lon="4.92215">
        <ele>172.3</ele>
        <time>2020-09-12T10:14:17Z</time>
      </trkpt>
      <trkpt lat="45.7943" lon="4.92222">
        <ele>172.2</ele>
        <time>2020-09-12T10:14:18Z</time>
      </trkpt>
      <trkpt lat="45.79432" lon="4.92229">
        <ele>172.2</ele>
        <time>2020-09-12T10:14:19Z</time>
      </trkpt>
      <trkpt lat="45.79435" lon="4.92236">
        <ele>172.1</ele>
        <time>2020-09-12T10:14:20Z</time>
      </trkpt>
      <trkpt lat="45.79437" lon="4.92244">
        <ele>172.1</ele>
        <time>2020-09-12T10:14:21Z</time>
      </trkpt>
      <trkpt lat="45.79438" lon="4.92251">
        <ele>171.6</ele>
        <time>2020-09-12T10:14:22Z</time>
      </trkpt>
      <trkpt lat="45.79438" lon="4.92257">
        <ele>171.5</ele>
        <time>2020-09-12T10:14:23Z</time>
      </trkpt>
      <trkpt lat="45.7944" lon="4.92264">
        <ele>171.5</ele>
        <time>2020-09-12T10:14:24Z</time>
      </trkpt>
      <trkpt lat="45.79441" lon="4.92271">
        <ele>171.4</ele>
        <time>2020-09-12T10:14:25Z</time>
      </trkpt>
      <trkpt lat="45.79443" lon="4.92279">
        <ele>171.4</ele>
        <time>2020-09-12T10:14:26Z</time>
      </trkpt>
      <trkpt lat="45.79445" lon="4.92287">
        <ele>171.3</ele>
        <time>2020-09-12T10:14:27Z</time>
      </trkpt>
      <trkpt lat="45.79446" lon="4.92296">
        <ele>171.3</ele>
        <time>2020-09-12T10:14:28Z</time>
      </trkpt>
      <trkpt lat="45.79448" lon="4.92304">
        <ele>171.2</ele>
        <time>2020-09-12T10:14:29Z</time>
      </trkpt>
      <trkpt lat="45.7945" lon="4.92311">
        <ele>171.2</ele>
        <time>2020-09-12T10:14:30Z</time>
      </trkpt>
      <trkpt lat="45.79451" lon="4.92318">
        <ele>171.2</ele>
        <time>2020-09-12T10:14:31Z</time>
      </trkpt>
      <trkpt lat="45.79453" lon="4.92325">
        <ele>171.2</ele>
        <time>2020-09-12T10:14:32Z</time>
      </trkpt>
      <trkpt lat="45.79454" lon="4.92332">
        <ele>171.2</ele>
        <time>2020-09-12T10:14:33Z</time>
      </trkpt>
      <trkpt lat="45.79456" lon="4.92338">
        <ele>171.6</ele>
        <time>2020-09-12T10:14:34Z</time>
      </trkpt>
      <trkpt lat="45.79459" lon="4.92344">
        <ele>171.7</ele>
        <time>2020-09-12T10:14:35Z</time>
      </trkpt>
      <trkpt lat="45.79463" lon="4.9235">
        <ele>171.7</ele>
        <time>2020-09-12T10:14:36Z</time>
      </trkpt>
      <trkpt lat="45.79467" lon="4.92357">
        <ele>171.8</ele>
        <time>2020-09-12T10:14:37Z</time>
      </trkpt>
      <trkpt lat="45.79468" lon="4.9237">
        <ele>171.9</ele>
        <time>2020-09-12T10:14:39Z</time>
      </trkpt>
      <trkpt lat="45.7947" lon="4.92378">
        <ele>172</ele>
        <time>2020-09-12T10:14:40Z</time>
      </trkpt>
      <trkpt lat="45.79471" lon="4.92384">
        <ele>172.1</ele>
        <time>2020-09-12T10:14:41Z</time>
      </trkpt>
      <trkpt lat="45.79473" lon="4.9239">
        <ele>172.2</ele>
        <time>2020-09-12T10:14:42Z</time>
      </trkpt>
      <trkpt lat="45.79474" lon="4.92402">
        <ele>172.3</ele>
        <time>2020-09-12T10:14:44Z</time>
      </trkpt>
      <trkpt lat="45.79478" lon="4.92415">
        <ele>172.5</ele>
        <time>2020-09-12T10:14:46Z</time>
      </trkpt>
      <trkpt lat="45.79479" lon="4.92421">
        <ele>173.3</ele>
        <time>2020-09-12T10:14:47Z</time>
      </trkpt>
      <trkpt lat="45.79481" lon="4.92428">
        <ele>173.3</ele>
        <time>2020-09-12T10:14:48Z</time>
      </trkpt>
      <trkpt lat="45.79483" lon="4.92434">
        <ele>173.3</ele>
        <time>2020-09-12T10:14:49Z</time>
      </trkpt>
      <trkpt lat="45.79486" lon="4.9244">
        <ele>173.3</ele>
        <time>2020-09-12T10:14:50Z</time>
      </trkpt>
      <trkpt lat="45.79488" lon="4.92446">
        <ele>173.4</ele>
        <time>2020-09-12T10:14:51Z</time>
      </trkpt>
      <trkpt lat="45.79493" lon="4.92457">
        <ele>173.5</ele>
        <time>2020-09-12T10:14:53Z</time>
      </trkpt>
      <trkpt lat="45.79497" lon="4.92462">
        <ele>173.5</ele>
        <time>2020-09-12T10:14:54Z</time>
      </trkpt>
      <trkpt lat="45.795" lon="4.92467">
        <ele>172.7</ele>
        <time>2020-09-12T10:14:55Z</time>
      </trkpt>
      <trkpt lat="45.79504" lon="4.92471">
        <ele>172.7</ele>
        <time>2020-09-12T10:14:56Z</time>
      </trkpt>
      <trkpt lat="45.79508" lon="4.92475">
        <ele>172.8</ele>
        <time>2020-09-12T10:14:57Z</time>
      </trkpt>
      <trkpt lat="45.79513" lon="4.92478">
        <ele>172.8</ele>
        <time>2020-09-12T10:14:58Z</time>
      </trkpt>
      <trkpt lat="45.79517" lon="4.92482">
        <ele>172.7</ele>
        <time>2020-09-12T10:14:59Z</time>
      </trkpt>
      <trkpt lat="45.79522" lon="4.92485">
        <ele>172.7</ele>
        <time>2020-09-12T10:15:00Z</time>
      </trkpt>
      <trkpt lat="45.79527" lon="4.9249">
        <ele>172.6</ele>
        <time>2020-09-12T10:15:01Z</time>
      </trkpt>
      <trkpt lat="45.79532" lon="4.92493">
        <ele>172.4</ele>
        <time>2020-09-12T10:15:02Z</time>
      </trkpt>
      <trkpt lat="45.79537" lon="4.92497">
        <ele>172.3</ele>
        <time>2020-09-12T10:15:03Z</time>
      </trkpt>
      <trkpt lat="45.79543" lon="4.925">
        <ele>172.5</ele>
        <time>2020-09-12T10:15:04Z</time>
      </trkpt>
      <trkpt lat="45.79548" lon="4.92504">
        <ele>172.3</ele>
        <time>2020-09-12T10:15:05Z</time>
      </trkpt>
      <trkpt lat="45.79553" lon="4.92507">
        <ele>172.2</ele>
        <time>2020-09-12T10:15:06Z</time>
      </trkpt>
      <trkpt lat="45.79559" lon="4.9251">
        <ele>172.1</ele>
        <time>2020-09-12T10:15:07Z</time>
      </trkpt>
      <trkpt lat="45.79564" lon="4.92513">
        <ele>172</ele>
        <time>2020-09-12T10:15:08Z</time>
      </trkpt>
      <trkpt lat="45.7957" lon="4.92516">
        <ele>171.9</ele>
        <time>2020-09-12T10:15:09Z</time>
      </trkpt>
      <trkpt lat="45.79575" lon="4.92518">
        <ele>171.8</ele>
        <time>2020-09-12T10:15:10Z</time>
      </trkpt>
      <trkpt lat="45.79581" lon="4.92521">
        <ele>171.8</ele>
        <time>2020-09-12T10:15:11Z</time>
      </trkpt>
      <trkpt lat="45.79587" lon="4.92524">
        <ele>171.2</ele>
        <time>2020-09-12T10:15:12Z</time>
      </trkpt>
      <trkpt lat="45.79593" lon="4.92527">
        <ele>171.2</ele>
        <time>2020-09-12T10:15:13Z</time>
      </trkpt>
      <trkpt lat="45.79598" lon="4.9253">
        <ele>171.2</ele>
        <time>2020-09-12T10:15:14Z</time>
      </trkpt>
      <trkpt lat="45.79604" lon="4.92532">
        <ele>171.2</ele>
        <time>2020-09-12T10:15:15Z</time>
      </trkpt>
      <trkpt lat="45.7961" lon="4.92534">
        <ele>171.2</ele>
        <time>2020-09-12T10:15:16Z</time>
      </trkpt>
      <trkpt lat="45.79615" lon="4.92536">
        <ele>171.2</ele>
        <time>2020-09-12T10:15:17Z</time>
      </trkpt>
      <trkpt lat="45.79621" lon="4.92538">
        <ele>171.2</ele>
        <time>2020-09-12T10:15:18Z</time>
      </trkpt>
      <trkpt lat="45.79627" lon="4.9254">
        <ele>171.2</ele>
        <time>2020-09-12T10:15:20Z</time>
      </trkpt>
      <trkpt lat="45.79635" lon="4.92541">
        <ele>171.2</ele>
        <time>2020-09-12T10:15:22Z</time>
      </trkpt>
      <trkpt lat="45.7964" lon="4.92543">
        <ele>171.2</ele>
        <time>2020-09-12T10:15:23Z</time>
      </trkpt>
      <trkpt lat="45.79648" lon="4.92546">
        <ele>171.2</ele>
        <time>2020-09-12T10:15:25Z</time>
      </trkpt>
      <trkpt lat="45.79653" lon="4.92548">
        <ele>171.3</ele>
        <time>2020-09-12T10:15:26Z</time>
      </trkpt>
      <trkpt lat="45.79659" lon="4.9255">
        <ele>171.3</ele>
        <time>2020-09-12T10:15:27Z</time>
      </trkpt>
      <trkpt lat="45.79663" lon="4.92551">
        <ele>171.3</ele>
        <time>2020-09-12T10:15:28Z</time>
      </trkpt>
      <trkpt lat="45.79668" lon="4.92553">
        <ele>171.2</ele>
        <time>2020-09-12T10:15:29Z</time>
      </trkpt>
      <trkpt lat="45.79673" lon="4.92555">
        <ele>171.2</ele>
        <time>2020-09-12T10:15:30Z</time>
      </trkpt>
      <trkpt lat="45.79678" lon="4.92557">
        <ele>171.3</ele>
        <time>2020-09-12T10:15:31Z</time>
      </trkpt>
      <trkpt lat="45.79683" lon="4.92558">
        <ele>171.3</ele>
        <time>2020-09-12T10:15:32Z</time>
      </trkpt>
      <trkpt lat="45.79688" lon="4.9256">
        <ele>171.3</ele>
        <time>2020-09-12T10:15:33Z</time>
      </trkpt>
      <trkpt lat="45.79694" lon="4.92562">
        <ele>171.3</ele>
        <time>2020-09-12T10:15:34Z</time>
      </trkpt>
      <trkpt lat="45.79699" lon="4.92564">
        <ele>171.3</ele>
        <time>2020-09-12T10:15:35Z</time>
      </trkpt>
      <trkpt lat="45.79704" lon="4.92566">
        <ele>171.3</ele>
        <time>2020-09-12T10:15:36Z</time>
      </trkpt>
      <trkpt lat="45.7971" lon="4.92569">
        <ele>171.3</ele>
        <time>2020-09-12T10:15:37Z</time>
      </trkpt>
      <trkpt lat="45.79715" lon="4.92571">
        <ele>171.3</ele>
        <time>2020-09-12T10:15:38Z</time>
      </trkpt>
      <trkpt lat="45.7972" lon="4.92574">
        <ele>171.4</ele>
        <time>2020-09-12T10:15:39Z</time>
      </trkpt>
      <trkpt lat="45.79725" lon="4.92577">
        <ele>171.4</ele>
        <time>2020-09-12T10:15:40Z</time>
      </trkpt>
      <trkpt lat="45.7973" lon="4.9258">
        <ele>171.5</ele>
        <time>2020-09-12T10:15:41Z</time>
      </trkpt>
      <trkpt lat="45.79735" lon="4.92584">
        <ele>172.3</ele>
        <time>2020-09-12T10:15:42Z</time>
      </trkpt>
      <trkpt lat="45.79741" lon="4.92588">
        <ele>172.3</ele>
        <time>2020-09-12T10:15:43Z</time>
      </trkpt>
      <trkpt lat="45.79746" lon="4.92592">
        <ele>172.3</ele>
        <time>2020-09-12T10:15:44Z</time>
      </trkpt>
      <trkpt lat="45.79751" lon="4.92596">
        <ele>172.4</ele>
        <time>2020-09-12T10:15:45Z</time>
      </trkpt>
      <trkpt lat="45.79757" lon="4.926">
        <ele>172.5</ele>
        <time>2020-09-12T10:15:46Z</time>
      </trkpt>
      <trkpt lat="45.79762" lon="4.92605">
        <ele>172.7</ele>
        <time>2020-09-12T10:15:47Z</time>
      </trkpt>
      <trkpt lat="45.79768" lon="4.9261">
        <ele>172.8</ele>
        <time>2020-09-12T10:15:48Z</time>
      </trkpt>
      <trkpt lat="45.79773" lon="4.92615">
        <ele>172.9</ele>
        <time>2020-09-12T10:15:49Z</time>
      </trkpt>
      <trkpt lat="45.79778" lon="4.9262">
        <ele>172.9</ele>
        <time>2020-09-12T10:15:50Z</time>
      </trkpt>
      <trkpt lat="45.79783" lon="4.92624">
        <ele>173</ele>
        <time>2020-09-12T10:15:51Z</time>
      </trkpt>
      <trkpt lat="45.79786" lon="4.9263">
        <ele>173.1</ele>
        <time>2020-09-12T10:15:52Z</time>
      </trkpt>
      <trkpt lat="45.79791" lon="4.92636">
        <ele>173.1</ele>
        <time>2020-09-12T10:15:53Z</time>
      </trkpt>
      <trkpt lat="45.79796" lon="4.92642">
        <ele>173.2</ele>
        <time>2020-09-12T10:15:54Z</time>
      </trkpt>
      <trkpt lat="45.79801" lon="4.92647">
        <ele>173.3</ele>
        <time>2020-09-12T10:15:55Z</time>
      </trkpt>
      <trkpt lat="45.79806" lon="4.92653">
        <ele>173.3</ele>
        <time>2020-09-12T10:15:56Z</time>
      </trkpt>
      <trkpt lat="45.7981" lon="4.92658">
        <ele>173.4</ele>
        <time>2020-09-12T10:15:57Z</time>
      </trkpt>
      <trkpt lat="45.79815" lon="4.92664">
        <ele>173.5</ele>
        <time>2020-09-12T10:15:58Z</time>
      </trkpt>
      <trkpt lat="45.7982" lon="4.9267">
        <ele>174.5</ele>
        <time>2020-09-12T10:15:59Z</time>
      </trkpt>
      <trkpt lat="45.79826" lon="4.92675">
        <ele>174.5</ele>
        <time>2020-09-12T10:16:00Z</time>
      </trkpt>
      <trkpt lat="45.79831" lon="4.92679">
        <ele>174.5</ele>
        <time>2020-09-12T10:16:01Z</time>
      </trkpt>
      <trkpt lat="45.79836" lon="4.92683">
        <ele>174.5</ele>
        <time>2020-09-12T10:16:02Z</time>
      </trkpt>
      <trkpt lat="45.79842" lon="4.92687">
        <ele>174.6</ele>
        <time>2020-09-12T10:16:03Z</time>
      </trkpt>
      <trkpt lat="45.79847" lon="4.9269">
        <ele>174.6</ele>
        <time>2020-09-12T10:16:04Z</time>
      </trkpt>
      <trkpt lat="45.79853" lon="4.92693">
        <ele>174.7</ele>
        <time>2020-09-12T10:16:05Z</time>
      </trkpt>
      <trkpt lat="45.79859" lon="4.92695">
        <ele>174.7</ele>
        <time>2020-09-12T10:16:06Z</time>
      </trkpt>
      <trkpt lat="45.79866" lon="4.92697">
        <ele>174.7</ele>
        <time>2020-09-12T10:16:07Z</time>
      </trkpt>
      <trkpt lat="45.79871" lon="4.92699">
        <ele>174.7</ele>
        <time>2020-09-12T10:16:08Z</time>
      </trkpt>
      <trkpt lat="45.79877" lon="4.927">
        <ele>174.7</ele>
        <time>2020-09-12T10:16:09Z</time>
      </trkpt>
      <trkpt lat="45.79883" lon="4.92702">
        <ele>174.6</ele>
        <time>2020-09-12T10:16:10Z</time>
      </trkpt>
      <trkpt lat="45.79888" lon="4.92705">
        <ele>174.6</ele>
        <time>2020-09-12T10:16:11Z</time>
      </trkpt>
      <trkpt lat="45.79894" lon="4.92707">
        <ele>174.6</ele>
        <time>2020-09-12T10:16:12Z</time>
      </trkpt>
      <trkpt lat="45.79899" lon="4.92709">
        <ele>174.6</ele>
        <time>2020-09-12T10:16:13Z</time>
      </trkpt>
      <trkpt lat="45.79904" lon="4.9271">
        <ele>174.5</ele>
        <time>2020-09-12T10:16:14Z</time>
      </trkpt>
      <trkpt lat="45.79909" lon="4.92712">
        <ele>174.5</ele>
        <time>2020-09-12T10:16:15Z</time>
      </trkpt>
      <trkpt lat="45.79915" lon="4.92713">
        <ele>174.5</ele>
        <time>2020-09-12T10:16:16Z</time>
      </trkpt>
      <trkpt lat="45.7992" lon="4.92715">
        <ele>174.9</ele>
        <time>2020-09-12T10:16:17Z</time>
      </trkpt>
      <trkpt lat="45.79926" lon="4.92716">
        <ele>175</ele>
        <time>2020-09-12T10:16:18Z</time>
      </trkpt>
      <trkpt lat="45.79931" lon="4.92718">
        <ele>175</ele>
        <time>2020-09-12T10:16:19Z</time>
      </trkpt>
      <trkpt lat="45.79936" lon="4.92719">
        <ele>175.1</ele>
        <time>2020-09-12T10:16:20Z</time>
      </trkpt>
      <trkpt lat="45.79941" lon="4.92721">
        <ele>175.1</ele>
        <time>2020-09-12T10:16:21Z</time>
      </trkpt>
      <trkpt lat="45.79946" lon="4.92721">
        <ele>175.2</ele>
        <time>2020-09-12T10:16:22Z</time>
      </trkpt>
      <trkpt lat="45.79951" lon="4.92722">
        <ele>175.3</ele>
        <time>2020-09-12T10:16:23Z</time>
      </trkpt>
      <trkpt lat="45.79956" lon="4.92722">
        <ele>175.4</ele>
        <time>2020-09-12T10:16:24Z</time>
      </trkpt>
      <trkpt lat="45.79962" lon="4.92722">
        <ele>175.5</ele>
        <time>2020-09-12T10:16:25Z</time>
      </trkpt>
      <trkpt lat="45.79968" lon="4.92723">
        <ele>175.6</ele>
        <time>2020-09-12T10:16:26Z</time>
      </trkpt>
      <trkpt lat="45.79974" lon="4.92722">
        <ele>175.7</ele>
        <time>2020-09-12T10:16:27Z</time>
      </trkpt>
      <trkpt lat="45.79979" lon="4.92722">
        <ele>175.7</ele>
        <time>2020-09-12T10:16:28Z</time>
      </trkpt>
      <trkpt lat="45.79984" lon="4.92721">
        <ele>175.8</ele>
        <time>2020-09-12T10:16:29Z</time>
      </trkpt>
      <trkpt lat="45.79989" lon="4.9272">
        <ele>175.8</ele>
        <time>2020-09-12T10:16:30Z</time>
      </trkpt>
      <trkpt lat="45.79995" lon="4.9272">
        <ele>175.9</ele>
        <time>2020-09-12T10:16:31Z</time>
      </trkpt>
      <trkpt lat="45.80001" lon="4.92719">
        <ele>177.4</ele>
        <time>2020-09-12T10:16:32Z</time>
      </trkpt>
      <trkpt lat="45.80006" lon="4.92718">
        <ele>177.5</ele>
        <time>2020-09-12T10:16:33Z</time>
      </trkpt>
      <trkpt lat="45.80011" lon="4.92718">
        <ele>177.5</ele>
        <time>2020-09-12T10:16:34Z</time>
      </trkpt>
      <trkpt lat="45.80017" lon="4.92717">
        <ele>177.6</ele>
        <time>2020-09-12T10:16:35Z</time>
      </trkpt>
      <trkpt lat="45.80023" lon="4.92716">
        <ele>177.7</ele>
        <time>2020-09-12T10:16:36Z</time>
      </trkpt>
      <trkpt lat="45.80029" lon="4.92715">
        <ele>177.8</ele>
        <time>2020-09-12T10:16:37Z</time>
      </trkpt>
      <trkpt lat="45.80034" lon="4.92713">
        <ele>177.9</ele>
        <time>2020-09-12T10:16:38Z</time>
      </trkpt>
      <trkpt lat="45.8004" lon="4.92711">
        <ele>178</ele>
        <time>2020-09-12T10:16:39Z</time>
      </trkpt>
      <trkpt lat="45.80046" lon="4.92709">
        <ele>178.1</ele>
        <time>2020-09-12T10:16:40Z</time>
      </trkpt>
      <trkpt lat="45.80051" lon="4.92707">
        <ele>178.1</ele>
        <time>2020-09-12T10:16:41Z</time>
      </trkpt>
      <trkpt lat="45.80056" lon="4.92705">
        <ele>178.2</ele>
        <time>2020-09-12T10:16:42Z</time>
      </trkpt>
      <trkpt lat="45.80062" lon="4.92703">
        <ele>178.2</ele>
        <time>2020-09-12T10:16:43Z</time>
      </trkpt>
      <trkpt lat="45.80067" lon="4.92701">
        <ele>178.2</ele>
        <time>2020-09-12T10:16:44Z</time>
      </trkpt>
      <trkpt lat="45.80072" lon="4.927">
        <ele>178.2</ele>
        <time>2020-09-12T10:16:45Z</time>
      </trkpt>
      <trkpt lat="45.80077" lon="4.92698">
        <ele>178.2</ele>
        <time>2020-09-12T10:16:46Z</time>
      </trkpt>
      <trkpt lat="45.80083" lon="4.92696">
        <ele>178.2</ele>
        <time>2020-09-12T10:16:47Z</time>
      </trkpt>
      <trkpt lat="45.80089" lon="4.92694">
        <ele>178</ele>
        <time>2020-09-12T10:16:48Z</time>
      </trkpt>
      <trkpt lat="45.80094" lon="4.92692">
        <ele>178</ele>
        <time>2020-09-12T10:16:49Z</time>
      </trkpt>
      <trkpt lat="45.801" lon="4.9269">
        <ele>177.9</ele>
        <time>2020-09-12T10:16:50Z</time>
      </trkpt>
      <trkpt lat="45.80104" lon="4.92687">
        <ele>177.8</ele>
        <time>2020-09-12T10:16:51Z</time>
      </trkpt>
      <trkpt lat="45.8011" lon="4.92681">
        <ele>177.8</ele>
        <time>2020-09-12T10:16:52Z</time>
      </trkpt>
      <trkpt lat="45.80116" lon="4.92677">
        <ele>177.7</ele>
        <time>2020-09-12T10:16:53Z</time>
      </trkpt>
      <trkpt lat="45.8012" lon="4.92671">
        <ele>177.6</ele>
        <time>2020-09-12T10:16:54Z</time>
      </trkpt>
      <trkpt lat="45.80124" lon="4.92664">
        <ele>176.9</ele>
        <time>2020-09-12T10:16:55Z</time>
      </trkpt>
      <trkpt lat="45.80127" lon="4.92657">
        <ele>176.8</ele>
        <time>2020-09-12T10:16:56Z</time>
      </trkpt>
      <trkpt lat="45.80129" lon="4.92649">
        <ele>176.7</ele>
        <time>2020-09-12T10:16:57Z</time>
      </trkpt>
      <trkpt lat="45.80131" lon="4.92641">
        <ele>176.7</ele>
        <time>2020-09-12T10:16:58Z</time>
      </trkpt>
      <trkpt lat="45.80132" lon="4.92632">
        <ele>176.6</ele>
        <time>2020-09-12T10:16:59Z</time>
      </trkpt>
      <trkpt lat="45.80133" lon="4.92623">
        <ele>176.6</ele>
        <time>2020-09-12T10:17:00Z</time>
      </trkpt>
      <trkpt lat="45.80136" lon="4.92615">
        <ele>176.4</ele>
        <time>2020-09-12T10:17:01Z</time>
      </trkpt>
      <trkpt lat="45.8014" lon="4.92607">
        <ele>176.3</ele>
        <time>2020-09-12T10:17:02Z</time>
      </trkpt>
      <trkpt lat="45.80144" lon="4.92601">
        <ele>176</ele>
        <time>2020-09-12T10:17:03Z</time>
      </trkpt>
      <trkpt lat="45.8015" lon="4.92596">
        <ele>175.7</ele>
        <time>2020-09-12T10:17:04Z</time>
      </trkpt>
      <trkpt lat="45.80154" lon="4.92593">
        <ele>175.3</ele>
        <time>2020-09-12T10:17:05Z</time>
      </trkpt>
      <trkpt lat="45.80161" lon="4.92591">
        <ele>174.9</ele>
        <time>2020-09-12T10:17:06Z</time>
      </trkpt>
      <trkpt lat="45.80167" lon="4.92591">
        <ele>173.8</ele>
        <time>2020-09-12T10:17:07Z</time>
      </trkpt>
      <trkpt lat="45.80173" lon="4.92593">
        <ele>173.8</ele>
        <time>2020-09-12T10:17:08Z</time>
      </trkpt>
      <trkpt lat="45.80179" lon="4.92595">
        <ele>173.7</ele>
        <time>2020-09-12T10:17:09Z</time>
      </trkpt>
      <trkpt lat="45.80183" lon="4.92598">
        <ele>173.6</ele>
        <time>2020-09-12T10:17:10Z</time>
      </trkpt>
      <trkpt lat="45.80187" lon="4.92607">
        <ele>173.5</ele>
        <time>2020-09-12T10:17:11Z</time>
      </trkpt>
      <trkpt lat="45.80189" lon="4.92615">
        <ele>173.5</ele>
        <time>2020-09-12T10:17:12Z</time>
      </trkpt>
      <trkpt lat="45.80193" lon="4.92623">
        <ele>173.5</ele>
        <time>2020-09-12T10:17:13Z</time>
      </trkpt>
      <trkpt lat="45.80196" lon="4.92632">
        <ele>173.6</ele>
        <time>2020-09-12T10:17:14Z</time>
      </trkpt>
      <trkpt lat="45.80199" lon="4.92641">
        <ele>173.6</ele>
        <time>2020-09-12T10:17:15Z</time>
      </trkpt>
      <trkpt lat="45.80203" lon="4.92649">
        <ele>173.6</ele>
        <time>2020-09-12T10:17:16Z</time>
      </trkpt>
      <trkpt lat="45.80205" lon="4.92658">
        <ele>173.6</ele>
        <time>2020-09-12T10:17:17Z</time>
      </trkpt>
      <trkpt lat="45.80206" lon="4.92667">
        <ele>174.2</ele>
        <time>2020-09-12T10:17:18Z</time>
      </trkpt>
      <trkpt lat="45.80209" lon="4.92677">
        <ele>174.2</ele>
        <time>2020-09-12T10:17:19Z</time>
      </trkpt>
      <trkpt lat="45.80211" lon="4.92686">
        <ele>174.1</ele>
        <time>2020-09-12T10:17:20Z</time>
      </trkpt>
      <trkpt lat="45.80213" lon="4.92691">
        <ele>174.1</ele>
        <time>2020-09-12T10:17:21Z</time>
      </trkpt>
      <trkpt lat="45.8022" lon="4.92702">
        <ele>173.9</ele>
        <time>2020-09-12T10:17:22Z</time>
      </trkpt>
      <trkpt lat="45.80222" lon="4.92713">
        <ele>173.9</ele>
        <time>2020-09-12T10:17:23Z</time>
      </trkpt>
      <trkpt lat="45.80223" lon="4.92721">
        <ele>173.9</ele>
        <time>2020-09-12T10:17:24Z</time>
      </trkpt>
      <trkpt lat="45.80223" lon="4.92729">
        <ele>173.8</ele>
        <time>2020-09-12T10:17:25Z</time>
      </trkpt>
      <trkpt lat="45.80224" lon="4.92738">
        <ele>173.7</ele>
        <time>2020-09-12T10:17:26Z</time>
      </trkpt>
      <trkpt lat="45.80224" lon="4.92745">
        <ele>173.6</ele>
        <time>2020-09-12T10:17:27Z</time>
      </trkpt>
      <trkpt lat="45.80224" lon="4.92753">
        <ele>173.3</ele>
        <time>2020-09-12T10:17:28Z</time>
      </trkpt>
      <trkpt lat="45.80224" lon="4.92759">
        <ele>173.3</ele>
        <time>2020-09-12T10:17:29Z</time>
      </trkpt>
      <trkpt lat="45.80224" lon="4.92772">
        <ele>173.3</ele>
        <time>2020-09-12T10:17:31Z</time>
      </trkpt>
      <trkpt lat="45.80224" lon="4.92784">
        <ele>173.3</ele>
        <time>2020-09-12T10:17:33Z</time>
      </trkpt>
      <trkpt lat="45.80224" lon="4.92795">
        <ele>173.2</ele>
        <time>2020-09-12T10:17:35Z</time>
      </trkpt>
      <trkpt lat="45.80225" lon="4.92807">
        <ele>173.1</ele>
        <time>2020-09-12T10:17:37Z</time>
      </trkpt>
      <trkpt lat="45.80225" lon="4.92819">
        <ele>172.9</ele>
        <time>2020-09-12T10:17:39Z</time>
      </trkpt>
      <trkpt lat="45.80226" lon="4.92832">
        <ele>172.8</ele>
        <time>2020-09-12T10:17:41Z</time>
      </trkpt>
      <trkpt lat="45.80227" lon="4.9284">
        <ele>172.1</ele>
        <time>2020-09-12T10:17:42Z</time>
      </trkpt>
      <trkpt lat="45.80229" lon="4.92846">
        <ele>172.1</ele>
        <time>2020-09-12T10:17:43Z</time>
      </trkpt>
      <trkpt lat="45.80231" lon="4.9286">
        <ele>172.1</ele>
        <time>2020-09-12T10:17:45Z</time>
      </trkpt>
      <trkpt lat="45.80232" lon="4.92868">
        <ele>172</ele>
        <time>2020-09-12T10:17:46Z</time>
      </trkpt>
      <trkpt lat="45.80234" lon="4.92876">
        <ele>171.9</ele>
        <time>2020-09-12T10:17:47Z</time>
      </trkpt>
      <trkpt lat="45.80235" lon="4.92884">
        <ele>171.8</ele>
        <time>2020-09-12T10:17:48Z</time>
      </trkpt>
      <trkpt lat="45.80237" lon="4.92891">
        <ele>171.6</ele>
        <time>2020-09-12T10:17:49Z</time>
      </trkpt>
      <trkpt lat="45.80238" lon="4.92899">
        <ele>171.4</ele>
        <time>2020-09-12T10:17:50Z</time>
      </trkpt>
      <trkpt lat="45.8024" lon="4.92906">
        <ele>171.1</ele>
        <time>2020-09-12T10:17:51Z</time>
      </trkpt>
      <trkpt lat="45.80241" lon="4.92913">
        <ele>170.7</ele>
        <time>2020-09-12T10:17:52Z</time>
      </trkpt>
      <trkpt lat="45.80243" lon="4.9292">
        <ele>170.7</ele>
        <time>2020-09-12T10:17:53Z</time>
      </trkpt>
      <trkpt lat="45.80245" lon="4.92928">
        <ele>171</ele>
        <time>2020-09-12T10:17:54Z</time>
      </trkpt>
      <trkpt lat="45.80247" lon="4.92935">
        <ele>171.3</ele>
        <time>2020-09-12T10:17:55Z</time>
      </trkpt>
      <trkpt lat="45.80249" lon="4.92942">
        <ele>171.6</ele>
        <time>2020-09-12T10:17:56Z</time>
      </trkpt>
      <trkpt lat="45.8025" lon="4.92949">
        <ele>170.4</ele>
        <time>2020-09-12T10:17:57Z</time>
      </trkpt>
      <trkpt lat="45.80251" lon="4.92958">
        <ele>170.5</ele>
        <time>2020-09-12T10:17:58Z</time>
      </trkpt>
      <trkpt lat="45.80253" lon="4.92965">
        <ele>170.6</ele>
        <time>2020-09-12T10:17:59Z</time>
      </trkpt>
      <trkpt lat="45.80255" lon="4.92973">
        <ele>170.8</ele>
        <time>2020-09-12T10:18:00Z</time>
      </trkpt>
      <trkpt lat="45.80257" lon="4.92981">
        <ele>171</ele>
        <time>2020-09-12T10:18:01Z</time>
      </trkpt>
      <trkpt lat="45.80258" lon="4.92988">
        <ele>171.2</ele>
        <time>2020-09-12T10:18:02Z</time>
      </trkpt>
      <trkpt lat="45.80259" lon="4.92994">
        <ele>171.3</ele>
        <time>2020-09-12T10:18:03Z</time>
      </trkpt>
      <trkpt lat="45.80259" lon="4.93001">
        <ele>171.6</ele>
        <time>2020-09-12T10:18:04Z</time>
      </trkpt>
      <trkpt lat="45.80261" lon="4.93008">
        <ele>171.5</ele>
        <time>2020-09-12T10:18:05Z</time>
      </trkpt>
      <trkpt lat="45.80263" lon="4.93016">
        <ele>171.4</ele>
        <time>2020-09-12T10:18:06Z</time>
      </trkpt>
      <trkpt lat="45.80264" lon="4.93024">
        <ele>171.3</ele>
        <time>2020-09-12T10:18:07Z</time>
      </trkpt>
      <trkpt lat="45.80264" lon="4.93033">
        <ele>171.3</ele>
        <time>2020-09-12T10:18:08Z</time>
      </trkpt>
      <trkpt lat="45.80265" lon="4.93039">
        <ele>171.4</ele>
        <time>2020-09-12T10:18:09Z</time>
      </trkpt>
      <trkpt lat="45.80265" lon="4.93047">
        <ele>171.5</ele>
        <time>2020-09-12T10:18:10Z</time>
      </trkpt>
      <trkpt lat="45.80267" lon="4.93056">
        <ele>171.6</ele>
        <time>2020-09-12T10:18:11Z</time>
      </trkpt>
      <trkpt lat="45.80269" lon="4.93064">
        <ele>171.8</ele>
        <time>2020-09-12T10:18:12Z</time>
      </trkpt>
      <trkpt lat="45.8027" lon="4.93072">
        <ele>171.9</ele>
        <time>2020-09-12T10:18:13Z</time>
      </trkpt>
      <trkpt lat="45.80272" lon="4.9308">
        <ele>171.9</ele>
        <time>2020-09-12T10:18:14Z</time>
      </trkpt>
      <trkpt lat="45.80273" lon="4.93088">
        <ele>172.3</ele>
        <time>2020-09-12T10:18:15Z</time>
      </trkpt>
      <trkpt lat="45.80275" lon="4.93095">
        <ele>172.2</ele>
        <time>2020-09-12T10:18:16Z</time>
      </trkpt>
      <trkpt lat="45.80277" lon="4.93103">
        <ele>172</ele>
        <time>2020-09-12T10:18:17Z</time>
      </trkpt>
      <trkpt lat="45.80278" lon="4.9311">
        <ele>172</ele>
        <time>2020-09-12T10:18:18Z</time>
      </trkpt>
      <trkpt lat="45.8028" lon="4.93118">
        <ele>171.9</ele>
        <time>2020-09-12T10:18:19Z</time>
      </trkpt>
      <trkpt lat="45.80281" lon="4.93126">
        <ele>171.9</ele>
        <time>2020-09-12T10:18:20Z</time>
      </trkpt>
      <trkpt lat="45.80282" lon="4.93134">
        <ele>171.9</ele>
        <time>2020-09-12T10:18:21Z</time>
      </trkpt>
      <trkpt lat="45.80284" lon="4.93142">
        <ele>171.9</ele>
        <time>2020-09-12T10:18:22Z</time>
      </trkpt>
      <trkpt lat="45.80285" lon="4.9315">
        <ele>171.9</ele>
        <time>2020-09-12T10:18:23Z</time>
      </trkpt>
      <trkpt lat="45.80287" lon="4.93157">
        <ele>171.9</ele>
        <time>2020-09-12T10:18:24Z</time>
      </trkpt>
      <trkpt lat="45.80288" lon="4.93165">
        <ele>171.9</ele>
        <time>2020-09-12T10:18:25Z</time>
      </trkpt>
      <trkpt lat="45.8029" lon="4.93172">
        <ele>172.8</ele>
        <time>2020-09-12T10:18:26Z</time>
      </trkpt>
      <trkpt lat="45.80291" lon="4.9318">
        <ele>172.7</ele>
        <time>2020-09-12T10:18:27Z</time>
      </trkpt>
      <trkpt lat="45.80292" lon="4.93187">
        <ele>172.8</ele>
        <time>2020-09-12T10:18:28Z</time>
      </trkpt>
      <trkpt lat="45.80293" lon="4.93195">
        <ele>172.8</ele>
        <time>2020-09-12T10:18:29Z</time>
      </trkpt>
      <trkpt lat="45.80294" lon="4.93202">
        <ele>172.9</ele>
        <time>2020-09-12T10:18:30Z</time>
      </trkpt>
      <trkpt lat="45.80295" lon="4.93209">
        <ele>172.9</ele>
        <time>2020-09-12T10:18:31Z</time>
      </trkpt>
      <trkpt lat="45.80296" lon="4.93216">
        <ele>173</ele>
        <time>2020-09-12T10:18:32Z</time>
      </trkpt>
      <trkpt lat="45.80297" lon="4.93224">
        <ele>173.1</ele>
        <time>2020-09-12T10:18:33Z</time>
      </trkpt>
      <trkpt lat="45.80298" lon="4.93232">
        <ele>173.1</ele>
        <time>2020-09-12T10:18:34Z</time>
      </trkpt>
      <trkpt lat="45.80298" lon="4.9324">
        <ele>173.2</ele>
        <time>2020-09-12T10:18:35Z</time>
      </trkpt>
      <trkpt lat="45.80299" lon="4.93248">
        <ele>173.2</ele>
        <time>2020-09-12T10:18:36Z</time>
      </trkpt>
      <trkpt lat="45.80299" lon="4.93255">
        <ele>173.1</ele>
        <time>2020-09-12T10:18:37Z</time>
      </trkpt>
      <trkpt lat="45.80301" lon="4.93263">
        <ele>173</ele>
        <time>2020-09-12T10:18:38Z</time>
      </trkpt>
      <trkpt lat="45.80301" lon="4.93272">
        <ele>172.9</ele>
        <time>2020-09-12T10:18:39Z</time>
      </trkpt>
      <trkpt lat="45.80302" lon="4.93279">
        <ele>172.8</ele>
        <time>2020-09-12T10:18:40Z</time>
      </trkpt>
      <trkpt lat="45.80303" lon="4.93287">
        <ele>172.7</ele>
        <time>2020-09-12T10:18:41Z</time>
      </trkpt>
      <trkpt lat="45.80304" lon="4.93296">
        <ele>172.6</ele>
        <time>2020-09-12T10:18:42Z</time>
      </trkpt>
      <trkpt lat="45.80305" lon="4.93303">
        <ele>172.5</ele>
        <time>2020-09-12T10:18:43Z</time>
      </trkpt>
      <trkpt lat="45.80306" lon="4.93311">
        <ele>172.3</ele>
        <time>2020-09-12T10:18:44Z</time>
      </trkpt>
      <trkpt lat="45.80306" lon="4.93319">
        <ele>172.2</ele>
        <time>2020-09-12T10:18:45Z</time>
      </trkpt>
      <trkpt lat="45.80307" lon="4.93327">
        <ele>172.1</ele>
        <time>2020-09-12T10:18:46Z</time>
      </trkpt>
      <trkpt lat="45.80309" lon="4.93335">
        <ele>171.6</ele>
        <time>2020-09-12T10:18:47Z</time>
      </trkpt>
      <trkpt lat="45.80311" lon="4.93341">
        <ele>171.6</ele>
        <time>2020-09-12T10:18:48Z</time>
      </trkpt>
      <trkpt lat="45.80313" lon="4.93348">
        <ele>171.6</ele>
        <time>2020-09-12T10:18:49Z</time>
      </trkpt>
      <trkpt lat="45.80314" lon="4.93355">
        <ele>171.6</ele>
        <time>2020-09-12T10:18:50Z</time>
      </trkpt>
      <trkpt lat="45.80315" lon="4.93366">
        <ele>171.7</ele>
        <time>2020-09-12T10:18:52Z</time>
      </trkpt>
      <trkpt lat="45.80317" lon="4.93376">
        <ele>171.7</ele>
        <time>2020-09-12T10:18:54Z</time>
      </trkpt>
      <trkpt lat="45.80319" lon="4.93385">
        <ele>171.7</ele>
        <time>2020-09-12T10:18:56Z</time>
      </trkpt>
      <trkpt lat="45.80318" lon="4.93395">
        <ele>171.7</ele>
        <time>2020-09-12T10:18:58Z</time>
      </trkpt>
      <trkpt lat="45.80315" lon="4.93402">
        <ele>171.7</ele>
        <time>2020-09-12T10:19:00Z</time>
      </trkpt>
      <trkpt lat="45.80316" lon="4.93409">
        <ele>171.6</ele>
        <time>2020-09-12T10:19:02Z</time>
      </trkpt>
      <trkpt lat="45.80318" lon="4.93416">
        <ele>171.5</ele>
        <time>2020-09-12T10:19:04Z</time>
      </trkpt>
      <trkpt lat="45.8032" lon="4.93423">
        <ele>171.7</ele>
        <time>2020-09-12T10:19:07Z</time>
      </trkpt>
      <trkpt lat="45.80324" lon="4.93419">
        <ele>171.5</ele>
        <time>2020-09-12T10:19:20Z</time>
      </trkpt>
      <trkpt lat="45.80323" lon="4.93419">
        <ele>171.6</ele>
        <time>2020-09-12T10:19:35Z</time>
      </trkpt>
      <trkpt lat="45.80324" lon="4.93418">
        <ele>171.5</ele>
        <time>2020-09-12T10:19:36Z</time>
      </trkpt>
      <trkpt lat="45.80325" lon="4.9342">
        <ele>171.5</ele>
        <time>2020-09-12T10:20:05Z</time>
      </trkpt>
      <trkpt lat="45.80324" lon="4.9342">
        <ele>171.5</ele>
        <time>2020-09-12T10:20:06Z</time>
      </trkpt>
      <trkpt lat="45.80325" lon="4.9342">
        <ele>171.5</ele>
        <time>2020-09-12T10:20:35Z</time>
      </trkpt>
      <trkpt lat="45.80325" lon="4.9342">
        <ele>171.5</ele>
        <time>2020-09-12T10:20:36Z</time>
      </trkpt>
      <trkpt lat="45.80366" lon="4.93392">
        <ele>170.7</ele>
        <time>2020-09-12T10:22:59Z</time>
      </trkpt>
      <trkpt lat="45.80425" lon="4.93368">
        <ele>170.9</ele>
        <time>2020-09-12T10:23:08Z</time>
      </trkpt>
      <trkpt lat="45.8043" lon="4.93366">
        <ele>170.9</ele>
        <time>2020-09-12T10:23:09Z</time>
      </trkpt>
      <trkpt lat="45.80436" lon="4.93363">
        <ele>171</ele>
        <time>2020-09-12T10:23:10Z</time>
      </trkpt>
      <trkpt lat="45.8044" lon="4.93361">
        <ele>171</ele>
        <time>2020-09-12T10:23:11Z</time>
      </trkpt>
      <trkpt lat="45.80445" lon="4.93358">
        <ele>171.1</ele>
        <time>2020-09-12T10:23:12Z</time>
      </trkpt>
      <trkpt lat="45.80452" lon="4.93356">
        <ele>171.2</ele>
        <time>2020-09-12T10:23:14Z</time>
      </trkpt>
      <trkpt lat="45.80457" lon="4.93353">
        <ele>171.2</ele>
        <time>2020-09-12T10:23:16Z</time>
      </trkpt>
      <trkpt lat="45.80463" lon="4.93352">
        <ele>171.3</ele>
        <time>2020-09-12T10:23:18Z</time>
      </trkpt>
      <trkpt lat="45.80469" lon="4.9335">
        <ele>171.4</ele>
        <time>2020-09-12T10:23:20Z</time>
      </trkpt>
      <trkpt lat="45.80473" lon="4.93347">
        <ele>171.6</ele>
        <time>2020-09-12T10:23:22Z</time>
      </trkpt>
      <trkpt lat="45.8048" lon="4.93346">
        <ele>171.7</ele>
        <time>2020-09-12T10:23:25Z</time>
      </trkpt>
      <trkpt lat="45.80486" lon="4.93347">
        <ele>171.9</ele>
        <time>2020-09-12T10:23:28Z</time>
      </trkpt>
      <trkpt lat="45.80493" lon="4.93349">
        <ele>171.9</ele>
        <time>2020-09-12T10:23:31Z</time>
      </trkpt>
      <trkpt lat="45.80498" lon="4.93349">
        <ele>172</ele>
        <time>2020-09-12T10:23:33Z</time>
      </trkpt>
      <trkpt lat="45.80504" lon="4.93348">
        <ele>172.3</ele>
        <time>2020-09-12T10:23:35Z</time>
      </trkpt>
      <trkpt lat="45.80509" lon="4.93347">
        <ele>172.3</ele>
        <time>2020-09-12T10:23:37Z</time>
      </trkpt>
      <trkpt lat="45.80515" lon="4.93345">
        <ele>172.2</ele>
        <time>2020-09-12T10:23:39Z</time>
      </trkpt>
      <trkpt lat="45.80521" lon="4.93345">
        <ele>172.1</ele>
        <time>2020-09-12T10:23:41Z</time>
      </trkpt>
      <trkpt lat="45.80529" lon="4.93347">
        <ele>172</ele>
        <time>2020-09-12T10:23:43Z</time>
      </trkpt>
      <trkpt lat="45.80536" lon="4.9335">
        <ele>171.9</ele>
        <time>2020-09-12T10:23:45Z</time>
      </trkpt>
      <trkpt lat="45.80545" lon="4.93353">
        <ele>171.9</ele>
        <time>2020-09-12T10:23:47Z</time>
      </trkpt>
      <trkpt lat="45.8055" lon="4.93355">
        <ele>171.9</ele>
        <time>2020-09-12T10:23:48Z</time>
      </trkpt>
      <trkpt lat="45.80555" lon="4.93355">
        <ele>171.9</ele>
        <time>2020-09-12T10:23:49Z</time>
      </trkpt>
      <trkpt lat="45.80563" lon="4.9336">
        <ele>171.8</ele>
        <time>2020-09-12T10:23:51Z</time>
      </trkpt>
      <trkpt lat="45.80568" lon="4.93362">
        <ele>171.8</ele>
        <time>2020-09-12T10:23:52Z</time>
      </trkpt>
      <trkpt lat="45.80572" lon="4.93364">
        <ele>171.8</ele>
        <time>2020-09-12T10:23:53Z</time>
      </trkpt>
      <trkpt lat="45.80581" lon="4.93365">
        <ele>171.8</ele>
        <time>2020-09-12T10:23:55Z</time>
      </trkpt>
      <trkpt lat="45.80587" lon="4.93366">
        <ele>173.5</ele>
        <time>2020-09-12T10:23:56Z</time>
      </trkpt>
      <trkpt lat="45.80591" lon="4.93367">
        <ele>173.6</ele>
        <time>2020-09-12T10:23:57Z</time>
      </trkpt>
      <trkpt lat="45.80596" lon="4.93366">
        <ele>173.7</ele>
        <time>2020-09-12T10:23:58Z</time>
      </trkpt>
      <trkpt lat="45.80604" lon="4.93362">
        <ele>173.9</ele>
        <time>2020-09-12T10:24:00Z</time>
      </trkpt>
      <trkpt lat="45.80608" lon="4.93358">
        <ele>174.1</ele>
        <time>2020-09-12T10:24:01Z</time>
      </trkpt>
      <trkpt lat="45.80613" lon="4.93355">
        <ele>174.2</ele>
        <time>2020-09-12T10:24:02Z</time>
      </trkpt>
      <trkpt lat="45.80617" lon="4.9335">
        <ele>174.3</ele>
        <time>2020-09-12T10:24:03Z</time>
      </trkpt>
      <trkpt lat="45.80621" lon="4.93347">
        <ele>174.5</ele>
        <time>2020-09-12T10:24:04Z</time>
      </trkpt>
      <trkpt lat="45.80625" lon="4.93342">
        <ele>174.7</ele>
        <time>2020-09-12T10:24:05Z</time>
      </trkpt>
      <trkpt lat="45.80631" lon="4.93334">
        <ele>174.9</ele>
        <time>2020-09-12T10:24:07Z</time>
      </trkpt>
      <trkpt lat="45.80633" lon="4.93328">
        <ele>174.8</ele>
        <time>2020-09-12T10:24:09Z</time>
      </trkpt>
      <trkpt lat="45.80633" lon="4.9332">
        <ele>174.7</ele>
        <time>2020-09-12T10:24:13Z</time>
      </trkpt>
      <trkpt lat="45.80636" lon="4.93314">
        <ele>174.7</ele>
        <time>2020-09-12T10:24:16Z</time>
      </trkpt>
      <trkpt lat="45.80641" lon="4.93312">
        <ele>174.8</ele>
        <time>2020-09-12T10:24:18Z</time>
      </trkpt>
      <trkpt lat="45.80646" lon="4.93311">
        <ele>175</ele>
        <time>2020-09-12T10:24:20Z</time>
      </trkpt>
      <trkpt lat="45.80653" lon="4.9331">
        <ele>175.1</ele>
        <time>2020-09-12T10:24:22Z</time>
      </trkpt>
      <trkpt lat="45.8066" lon="4.93308">
        <ele>175.2</ele>
        <time>2020-09-12T10:24:24Z</time>
      </trkpt>
      <trkpt lat="45.80666" lon="4.93301">
        <ele>175</ele>
        <time>2020-09-12T10:24:26Z</time>
      </trkpt>
      <trkpt lat="45.80669" lon="4.93289">
        <ele>175.7</ele>
        <time>2020-09-12T10:24:28Z</time>
      </trkpt>
      <trkpt lat="45.80667" lon="4.9328">
        <ele>175.5</ele>
        <time>2020-09-12T10:24:29Z</time>
      </trkpt>
      <trkpt lat="45.80669" lon="4.93273">
        <ele>175.3</ele>
        <time>2020-09-12T10:24:30Z</time>
      </trkpt>
      <trkpt lat="45.80671" lon="4.93267">
        <ele>175.1</ele>
        <time>2020-09-12T10:24:31Z</time>
      </trkpt>
      <trkpt lat="45.80676" lon="4.93261">
        <ele>174.9</ele>
        <time>2020-09-12T10:24:32Z</time>
      </trkpt>
      <trkpt lat="45.80679" lon="4.93257">
        <ele>174.9</ele>
        <time>2020-09-12T10:24:33Z</time>
      </trkpt>
      <trkpt lat="45.80683" lon="4.93253">
        <ele>175</ele>
        <time>2020-09-12T10:24:34Z</time>
      </trkpt>
      <trkpt lat="45.80688" lon="4.93249">
        <ele>174.6</ele>
        <time>2020-09-12T10:24:35Z</time>
      </trkpt>
      <trkpt lat="45.80695" lon="4.93242">
        <ele>174.8</ele>
        <time>2020-09-12T10:24:37Z</time>
      </trkpt>
      <trkpt lat="45.80699" lon="4.93238">
        <ele>174.8</ele>
        <time>2020-09-12T10:24:38Z</time>
      </trkpt>
      <trkpt lat="45.80703" lon="4.93234">
        <ele>174.9</ele>
        <time>2020-09-12T10:24:39Z</time>
      </trkpt>
      <trkpt lat="45.80707" lon="4.93232">
        <ele>175</ele>
        <time>2020-09-12T10:24:40Z</time>
      </trkpt>
      <trkpt lat="45.80711" lon="4.93231">
        <ele>175</ele>
        <time>2020-09-12T10:24:41Z</time>
      </trkpt>
      <trkpt lat="45.80721" lon="4.93232">
        <ele>175.2</ele>
        <time>2020-09-12T10:24:43Z</time>
      </trkpt>
      <trkpt lat="45.80726" lon="4.93233">
        <ele>175.3</ele>
        <time>2020-09-12T10:24:44Z</time>
      </trkpt>
      <trkpt lat="45.80732" lon="4.93234">
        <ele>175.4</ele>
        <time>2020-09-12T10:24:45Z</time>
      </trkpt>
      <trkpt lat="45.80737" lon="4.93233">
        <ele>175.4</ele>
        <time>2020-09-12T10:24:46Z</time>
      </trkpt>
      <trkpt lat="45.8074" lon="4.9323">
        <ele>175.4</ele>
        <time>2020-09-12T10:24:47Z</time>
      </trkpt>
      <trkpt lat="45.80745" lon="4.93219">
        <ele>175.4</ele>
        <time>2020-09-12T10:24:49Z</time>
      </trkpt>
      <trkpt lat="45.80745" lon="4.93211">
        <ele>175.4</ele>
        <time>2020-09-12T10:24:50Z</time>
      </trkpt>
      <trkpt lat="45.80744" lon="4.93204">
        <ele>175.4</ele>
        <time>2020-09-12T10:24:51Z</time>
      </trkpt>
      <trkpt lat="45.80742" lon="4.93199">
        <ele>175.4</ele>
        <time>2020-09-12T10:24:52Z</time>
      </trkpt>
      <trkpt lat="45.80735" lon="4.93193">
        <ele>175.3</ele>
        <time>2020-09-12T10:24:54Z</time>
      </trkpt>
      <trkpt lat="45.80728" lon="4.9319">
        <ele>175.3</ele>
        <time>2020-09-12T10:24:56Z</time>
      </trkpt>
      <trkpt lat="45.80724" lon="4.93187">
        <ele>175.2</ele>
        <time>2020-09-12T10:24:58Z</time>
      </trkpt>
      <trkpt lat="45.80724" lon="4.93181">
        <ele>175.3</ele>
        <time>2020-09-12T10:25:00Z</time>
      </trkpt>
      <trkpt lat="45.80727" lon="4.93173">
        <ele>175.3</ele>
        <time>2020-09-12T10:25:02Z</time>
      </trkpt>
      <trkpt lat="45.80733" lon="4.93165">
        <ele>175.5</ele>
        <time>2020-09-12T10:25:04Z</time>
      </trkpt>
      <trkpt lat="45.80742" lon="4.93158">
        <ele>175.6</ele>
        <time>2020-09-12T10:25:06Z</time>
      </trkpt>
      <trkpt lat="45.80746" lon="4.93155">
        <ele>175.6</ele>
        <time>2020-09-12T10:25:07Z</time>
      </trkpt>
      <trkpt lat="45.80751" lon="4.9315">
        <ele>176.3</ele>
        <time>2020-09-12T10:25:08Z</time>
      </trkpt>
      <trkpt lat="45.80755" lon="4.93146">
        <ele>176.4</ele>
        <time>2020-09-12T10:25:09Z</time>
      </trkpt>
      <trkpt lat="45.8076" lon="4.93142">
        <ele>176.5</ele>
        <time>2020-09-12T10:25:10Z</time>
      </trkpt>
      <trkpt lat="45.80765" lon="4.93137">
        <ele>176.5</ele>
        <time>2020-09-12T10:25:11Z</time>
      </trkpt>
      <trkpt lat="45.80771" lon="4.93133">
        <ele>176.6</ele>
        <time>2020-09-12T10:25:12Z</time>
      </trkpt>
      <trkpt lat="45.80776" lon="4.93128">
        <ele>176.6</ele>
        <time>2020-09-12T10:25:13Z</time>
      </trkpt>
      <trkpt lat="45.80781" lon="4.93123">
        <ele>176.6</ele>
        <time>2020-09-12T10:25:14Z</time>
      </trkpt>
      <trkpt lat="45.80787" lon="4.93118">
        <ele>176.7</ele>
        <time>2020-09-12T10:25:15Z</time>
      </trkpt>
      <trkpt lat="45.80793" lon="4.93114">
        <ele>176.7</ele>
        <time>2020-09-12T10:25:16Z</time>
      </trkpt>
      <trkpt lat="45.80799" lon="4.9311">
        <ele>176.8</ele>
        <time>2020-09-12T10:25:17Z</time>
      </trkpt>
      <trkpt lat="45.80806" lon="4.93107">
        <ele>176.8</ele>
        <time>2020-09-12T10:25:18Z</time>
      </trkpt>
      <trkpt lat="45.80811" lon="4.93103">
        <ele>176.8</ele>
        <time>2020-09-12T10:25:19Z</time>
      </trkpt>
      <trkpt lat="45.80817" lon="4.93099">
        <ele>176.9</ele>
        <time>2020-09-12T10:25:20Z</time>
      </trkpt>
      <trkpt lat="45.80823" lon="4.93095">
        <ele>176.9</ele>
        <time>2020-09-12T10:25:21Z</time>
      </trkpt>
      <trkpt lat="45.80829" lon="4.9309">
        <ele>176.9</ele>
        <time>2020-09-12T10:25:22Z</time>
      </trkpt>
      <trkpt lat="45.80833" lon="4.93087">
        <ele>177</ele>
        <time>2020-09-12T10:25:24Z</time>
      </trkpt>
      <trkpt lat="45.80839" lon="4.93081">
        <ele>176.9</ele>
        <time>2020-09-12T10:25:26Z</time>
      </trkpt>
      <trkpt lat="45.8085" lon="4.93065">
        <ele>176.8</ele>
        <time>2020-09-12T10:25:28Z</time>
      </trkpt>
      <trkpt lat="45.80854" lon="4.9306">
        <ele>176.8</ele>
        <time>2020-09-12T10:25:29Z</time>
      </trkpt>
      <trkpt lat="45.80859" lon="4.93053">
        <ele>176.7</ele>
        <time>2020-09-12T10:25:30Z</time>
      </trkpt>
      <trkpt lat="45.80863" lon="4.93046">
        <ele>176.7</ele>
        <time>2020-09-12T10:25:31Z</time>
      </trkpt>
      <trkpt lat="45.80866" lon="4.9304">
        <ele>176.6</ele>
        <time>2020-09-12T10:25:32Z</time>
      </trkpt>
      <trkpt lat="45.80871" lon="4.93034">
        <ele>176.6</ele>
        <time>2020-09-12T10:25:33Z</time>
      </trkpt>
      <trkpt lat="45.80875" lon="4.93028">
        <ele>176.6</ele>
        <time>2020-09-12T10:25:34Z</time>
      </trkpt>
      <trkpt lat="45.8088" lon="4.93023">
        <ele>176.7</ele>
        <time>2020-09-12T10:25:35Z</time>
      </trkpt>
      <trkpt lat="45.80885" lon="4.93019">
        <ele>176.7</ele>
        <time>2020-09-12T10:25:36Z</time>
      </trkpt>
      <trkpt lat="45.80889" lon="4.93014">
        <ele>176.7</ele>
        <time>2020-09-12T10:25:37Z</time>
      </trkpt>
      <trkpt lat="45.80894" lon="4.9301">
        <ele>176.8</ele>
        <time>2020-09-12T10:25:38Z</time>
      </trkpt>
      <trkpt lat="45.80898" lon="4.93006">
        <ele>176.8</ele>
        <time>2020-09-12T10:25:39Z</time>
      </trkpt>
      <trkpt lat="45.80902" lon="4.93003">
        <ele>176.8</ele>
        <time>2020-09-12T10:25:40Z</time>
      </trkpt>
      <trkpt lat="45.80907" lon="4.92999">
        <ele>176.7</ele>
        <time>2020-09-12T10:25:41Z</time>
      </trkpt>
      <trkpt lat="45.80912" lon="4.92995">
        <ele>176.8</ele>
        <time>2020-09-12T10:25:42Z</time>
      </trkpt>
      <trkpt lat="45.80916" lon="4.92993">
        <ele>176.8</ele>
        <time>2020-09-12T10:25:43Z</time>
      </trkpt>
      <trkpt lat="45.80921" lon="4.9299">
        <ele>177.1</ele>
        <time>2020-09-12T10:25:44Z</time>
      </trkpt>
      <trkpt lat="45.80927" lon="4.92988">
        <ele>177.1</ele>
        <time>2020-09-12T10:25:45Z</time>
      </trkpt>
      <trkpt lat="45.80932" lon="4.92987">
        <ele>177.1</ele>
        <time>2020-09-12T10:25:46Z</time>
      </trkpt>
      <trkpt lat="45.80937" lon="4.92986">
        <ele>177.1</ele>
        <time>2020-09-12T10:25:47Z</time>
      </trkpt>
      <trkpt lat="45.80942" lon="4.92986">
        <ele>177.1</ele>
        <time>2020-09-12T10:25:48Z</time>
      </trkpt>
      <trkpt lat="45.80948" lon="4.92985">
        <ele>177.2</ele>
        <time>2020-09-12T10:25:49Z</time>
      </trkpt>
      <trkpt lat="45.80954" lon="4.92985">
        <ele>177.2</ele>
        <time>2020-09-12T10:25:50Z</time>
      </trkpt>
      <trkpt lat="45.8096" lon="4.92985">
        <ele>177.2</ele>
        <time>2020-09-12T10:25:51Z</time>
      </trkpt>
      <trkpt lat="45.80966" lon="4.92986">
        <ele>177.2</ele>
        <time>2020-09-12T10:25:52Z</time>
      </trkpt>
      <trkpt lat="45.80972" lon="4.92987">
        <ele>177.2</ele>
        <time>2020-09-12T10:25:53Z</time>
      </trkpt>
      <trkpt lat="45.80977" lon="4.92987">
        <ele>177.2</ele>
        <time>2020-09-12T10:25:54Z</time>
      </trkpt>
      <trkpt lat="45.80982" lon="4.92991">
        <ele>177.1</ele>
        <time>2020-09-12T10:25:55Z</time>
      </trkpt>
      <trkpt lat="45.80987" lon="4.92992">
        <ele>177.1</ele>
        <time>2020-09-12T10:25:56Z</time>
      </trkpt>
      <trkpt lat="45.80992" lon="4.92995">
        <ele>177.1</ele>
        <time>2020-09-12T10:25:57Z</time>
      </trkpt>
      <trkpt lat="45.80998" lon="4.92998">
        <ele>177</ele>
        <time>2020-09-12T10:25:58Z</time>
      </trkpt>
      <trkpt lat="45.81004" lon="4.93001">
        <ele>177</ele>
        <time>2020-09-12T10:25:59Z</time>
      </trkpt>
      <trkpt lat="45.81009" lon="4.93003">
        <ele>177</ele>
        <time>2020-09-12T10:26:00Z</time>
      </trkpt>
      <trkpt lat="45.81014" lon="4.93007">
        <ele>177</ele>
        <time>2020-09-12T10:26:01Z</time>
      </trkpt>
      <trkpt lat="45.81019" lon="4.9301">
        <ele>177</ele>
        <time>2020-09-12T10:26:02Z</time>
      </trkpt>
      <trkpt lat="45.81025" lon="4.93012">
        <ele>177</ele>
        <time>2020-09-12T10:26:03Z</time>
      </trkpt>
      <trkpt lat="45.81031" lon="4.93016">
        <ele>176.9</ele>
        <time>2020-09-12T10:26:04Z</time>
      </trkpt>
      <trkpt lat="45.81036" lon="4.9302">
        <ele>176.9</ele>
        <time>2020-09-12T10:26:05Z</time>
      </trkpt>
      <trkpt lat="45.81041" lon="4.93024">
        <ele>176.9</ele>
        <time>2020-09-12T10:26:06Z</time>
      </trkpt>
      <trkpt lat="45.81046" lon="4.93028">
        <ele>176.9</ele>
        <time>2020-09-12T10:26:07Z</time>
      </trkpt>
      <trkpt lat="45.8105" lon="4.93033">
        <ele>176.9</ele>
        <time>2020-09-12T10:26:08Z</time>
      </trkpt>
      <trkpt lat="45.81054" lon="4.93038">
        <ele>176.9</ele>
        <time>2020-09-12T10:26:09Z</time>
      </trkpt>
      <trkpt lat="45.81059" lon="4.93044">
        <ele>176.9</ele>
        <time>2020-09-12T10:26:10Z</time>
      </trkpt>
      <trkpt lat="45.81063" lon="4.9305">
        <ele>176.9</ele>
        <time>2020-09-12T10:26:11Z</time>
      </trkpt>
      <trkpt lat="45.81068" lon="4.93056">
        <ele>177</ele>
        <time>2020-09-12T10:26:12Z</time>
      </trkpt>
      <trkpt lat="45.81072" lon="4.93063">
        <ele>177</ele>
        <time>2020-09-12T10:26:13Z</time>
      </trkpt>
      <trkpt lat="45.81076" lon="4.9307">
        <ele>177</ele>
        <time>2020-09-12T10:26:14Z</time>
      </trkpt>
      <trkpt lat="45.8108" lon="4.93076">
        <ele>177</ele>
        <time>2020-09-12T10:26:15Z</time>
      </trkpt>
      <trkpt lat="45.81084" lon="4.93082">
        <ele>176.9</ele>
        <time>2020-09-12T10:26:16Z</time>
      </trkpt>
      <trkpt lat="45.81088" lon="4.93088">
        <ele>176.6</ele>
        <time>2020-09-12T10:26:17Z</time>
      </trkpt>
      <trkpt lat="45.81092" lon="4.93093">
        <ele>176.4</ele>
        <time>2020-09-12T10:26:18Z</time>
      </trkpt>
      <trkpt lat="45.81097" lon="4.93098">
        <ele>176.1</ele>
        <time>2020-09-12T10:26:19Z</time>
      </trkpt>
      <trkpt lat="45.81102" lon="4.93104">
        <ele>175.9</ele>
        <time>2020-09-12T10:26:20Z</time>
      </trkpt>
      <trkpt lat="45.81107" lon="4.9311">
        <ele>175.8</ele>
        <time>2020-09-12T10:26:21Z</time>
      </trkpt>
      <trkpt lat="45.81112" lon="4.93115">
        <ele>175.7</ele>
        <time>2020-09-12T10:26:22Z</time>
      </trkpt>
      <trkpt lat="45.81116" lon="4.93122">
        <ele>175.7</ele>
        <time>2020-09-12T10:26:23Z</time>
      </trkpt>
      <trkpt lat="45.8112" lon="4.93129">
        <ele>175.6</ele>
        <time>2020-09-12T10:26:24Z</time>
      </trkpt>
      <trkpt lat="45.81123" lon="4.93135">
        <ele>175.6</ele>
        <time>2020-09-12T10:26:25Z</time>
      </trkpt>
      <trkpt lat="45.81128" lon="4.93147">
        <ele>175.6</ele>
        <time>2020-09-12T10:26:27Z</time>
      </trkpt>
      <trkpt lat="45.81131" lon="4.93152">
        <ele>175.5</ele>
        <time>2020-09-12T10:26:28Z</time>
      </trkpt>
      <trkpt lat="45.81136" lon="4.93163">
        <ele>175.5</ele>
        <time>2020-09-12T10:26:30Z</time>
      </trkpt>
      <trkpt lat="45.81139" lon="4.93175">
        <ele>176.3</ele>
        <time>2020-09-12T10:26:32Z</time>
      </trkpt>
      <trkpt lat="45.81142" lon="4.9318">
        <ele>176.3</ele>
        <time>2020-09-12T10:26:33Z</time>
      </trkpt>
      <trkpt lat="45.81145" lon="4.93185">
        <ele>176.3</ele>
        <time>2020-09-12T10:26:34Z</time>
      </trkpt>
      <trkpt lat="45.81151" lon="4.93193">
        <ele>176.4</ele>
        <time>2020-09-12T10:26:36Z</time>
      </trkpt>
      <trkpt lat="45.81155" lon="4.93196">
        <ele>176.5</ele>
        <time>2020-09-12T10:26:37Z</time>
      </trkpt>
      <trkpt lat="45.81163" lon="4.93205">
        <ele>176.7</ele>
        <time>2020-09-12T10:26:39Z</time>
      </trkpt>
      <trkpt lat="45.81165" lon="4.9321">
        <ele>176.9</ele>
        <time>2020-09-12T10:26:40Z</time>
      </trkpt>
      <trkpt lat="45.81183" lon="4.93232">
        <ele>176.8</ele>
        <time>2020-09-12T10:26:45Z</time>
      </trkpt>
      <trkpt lat="45.81187" lon="4.93237">
        <ele>176.8</ele>
        <time>2020-09-12T10:26:46Z</time>
      </trkpt>
      <trkpt lat="45.8119" lon="4.93242">
        <ele>176.8</ele>
        <time>2020-09-12T10:26:47Z</time>
      </trkpt>
      <trkpt lat="45.81194" lon="4.93247">
        <ele>176.7</ele>
        <time>2020-09-12T10:26:48Z</time>
      </trkpt>
      <trkpt lat="45.81197" lon="4.93251">
        <ele>177.6</ele>
        <time>2020-09-12T10:26:49Z</time>
      </trkpt>
      <trkpt lat="45.812" lon="4.93256">
        <ele>177.4</ele>
        <time>2020-09-12T10:26:50Z</time>
      </trkpt>
      <trkpt lat="45.81204" lon="4.93261">
        <ele>177.3</ele>
        <time>2020-09-12T10:26:51Z</time>
      </trkpt>
      <trkpt lat="45.81207" lon="4.93266">
        <ele>177.2</ele>
        <time>2020-09-12T10:26:52Z</time>
      </trkpt>
      <trkpt lat="45.81213" lon="4.93276">
        <ele>177.1</ele>
        <time>2020-09-12T10:26:54Z</time>
      </trkpt>
      <trkpt lat="45.81217" lon="4.93282">
        <ele>177</ele>
        <time>2020-09-12T10:26:55Z</time>
      </trkpt>
      <trkpt lat="45.8122" lon="4.93287">
        <ele>177</ele>
        <time>2020-09-12T10:26:56Z</time>
      </trkpt>
      <trkpt lat="45.81224" lon="4.93292">
        <ele>176.9</ele>
        <time>2020-09-12T10:26:57Z</time>
      </trkpt>
      <trkpt lat="45.81228" lon="4.93297">
        <ele>176.9</ele>
        <time>2020-09-12T10:26:58Z</time>
      </trkpt>
      <trkpt lat="45.81231" lon="4.93302">
        <ele>176.8</ele>
        <time>2020-09-12T10:26:59Z</time>
      </trkpt>
      <trkpt lat="45.81235" lon="4.93308">
        <ele>176.8</ele>
        <time>2020-09-12T10:27:00Z</time>
      </trkpt>
      <trkpt lat="45.81239" lon="4.93314">
        <ele>176.7</ele>
        <time>2020-09-12T10:27:01Z</time>
      </trkpt>
      <trkpt lat="45.81243" lon="4.93319">
        <ele>176.5</ele>
        <time>2020-09-12T10:27:02Z</time>
      </trkpt>
      <trkpt lat="45.81245" lon="4.93325">
        <ele>176.4</ele>
        <time>2020-09-12T10:27:03Z</time>
      </trkpt>
      <trkpt lat="45.81247" lon="4.93331">
        <ele>176.2</ele>
        <time>2020-09-12T10:27:04Z</time>
      </trkpt>
      <trkpt lat="45.81249" lon="4.93337">
        <ele>176.2</ele>
        <time>2020-09-12T10:27:05Z</time>
      </trkpt>
      <trkpt lat="45.81252" lon="4.93343">
        <ele>175.8</ele>
        <time>2020-09-12T10:27:06Z</time>
      </trkpt>
      <trkpt lat="45.81254" lon="4.93349">
        <ele>175.7</ele>
        <time>2020-09-12T10:27:07Z</time>
      </trkpt>
      <trkpt lat="45.81258" lon="4.93358">
        <ele>175.5</ele>
        <time>2020-09-12T10:27:09Z</time>
      </trkpt>
      <trkpt lat="45.81264" lon="4.93368">
        <ele>175.5</ele>
        <time>2020-09-12T10:27:11Z</time>
      </trkpt>
      <trkpt lat="45.81267" lon="4.93375">
        <ele>175.5</ele>
        <time>2020-09-12T10:27:12Z</time>
      </trkpt>
      <trkpt lat="45.8127" lon="4.93382">
        <ele>175.4</ele>
        <time>2020-09-12T10:27:13Z</time>
      </trkpt>
      <trkpt lat="45.81273" lon="4.93388">
        <ele>175.5</ele>
        <time>2020-09-12T10:27:14Z</time>
      </trkpt>
      <trkpt lat="45.81276" lon="4.93394">
        <ele>175.4</ele>
        <time>2020-09-12T10:27:15Z</time>
      </trkpt>
      <trkpt lat="45.81279" lon="4.93401">
        <ele>175.4</ele>
        <time>2020-09-12T10:27:16Z</time>
      </trkpt>
      <trkpt lat="45.81282" lon="4.93407">
        <ele>175.4</ele>
        <time>2020-09-12T10:27:17Z</time>
      </trkpt>
      <trkpt lat="45.81285" lon="4.93413">
        <ele>175.4</ele>
        <time>2020-09-12T10:27:18Z</time>
      </trkpt>
      <trkpt lat="45.81289" lon="4.93419">
        <ele>176</ele>
        <time>2020-09-12T10:27:19Z</time>
      </trkpt>
      <trkpt lat="45.81292" lon="4.93424">
        <ele>176</ele>
        <time>2020-09-12T10:27:20Z</time>
      </trkpt>
      <trkpt lat="45.81295" lon="4.93429">
        <ele>176</ele>
        <time>2020-09-12T10:27:21Z</time>
      </trkpt>
      <trkpt lat="45.81299" lon="4.93435">
        <ele>176</ele>
        <time>2020-09-12T10:27:22Z</time>
      </trkpt>
      <trkpt lat="45.81302" lon="4.93442">
        <ele>176</ele>
        <time>2020-09-12T10:27:23Z</time>
      </trkpt>
      <trkpt lat="45.81306" lon="4.93447">
        <ele>176</ele>
        <time>2020-09-12T10:27:24Z</time>
      </trkpt>
      <trkpt lat="45.81309" lon="4.93453">
        <ele>176.1</ele>
        <time>2020-09-12T10:27:25Z</time>
      </trkpt>
      <trkpt lat="45.81312" lon="4.9346">
        <ele>176.1</ele>
        <time>2020-09-12T10:27:26Z</time>
      </trkpt>
      <trkpt lat="45.81315" lon="4.93465">
        <ele>176.1</ele>
        <time>2020-09-12T10:27:27Z</time>
      </trkpt>
      <trkpt lat="45.81318" lon="4.93472">
        <ele>176.1</ele>
        <time>2020-09-12T10:27:28Z</time>
      </trkpt>
      <trkpt lat="45.81321" lon="4.93477">
        <ele>176.1</ele>
        <time>2020-09-12T10:27:29Z</time>
      </trkpt>
      <trkpt lat="45.81326" lon="4.93488">
        <ele>176.1</ele>
        <time>2020-09-12T10:27:31Z</time>
      </trkpt>
      <trkpt lat="45.81329" lon="4.93494">
        <ele>176.1</ele>
        <time>2020-09-12T10:27:32Z</time>
      </trkpt>
      <trkpt lat="45.81332" lon="4.935">
        <ele>176</ele>
        <time>2020-09-12T10:27:33Z</time>
      </trkpt>
      <trkpt lat="45.81334" lon="4.93506">
        <ele>175.5</ele>
        <time>2020-09-12T10:27:34Z</time>
      </trkpt>
      <trkpt lat="45.81338" lon="4.93512">
        <ele>175.1</ele>
        <time>2020-09-12T10:27:35Z</time>
      </trkpt>
      <trkpt lat="45.81342" lon="4.93519">
        <ele>174.7</ele>
        <time>2020-09-12T10:27:36Z</time>
      </trkpt>
      <trkpt lat="45.81345" lon="4.93525">
        <ele>174.5</ele>
        <time>2020-09-12T10:27:37Z</time>
      </trkpt>
      <trkpt lat="45.81348" lon="4.93531">
        <ele>174.3</ele>
        <time>2020-09-12T10:27:38Z</time>
      </trkpt>
      <trkpt lat="45.81351" lon="4.93537">
        <ele>174.2</ele>
        <time>2020-09-12T10:27:39Z</time>
      </trkpt>
      <trkpt lat="45.81355" lon="4.93543">
        <ele>174.1</ele>
        <time>2020-09-12T10:27:40Z</time>
      </trkpt>
      <trkpt lat="45.81358" lon="4.93548">
        <ele>174</ele>
        <time>2020-09-12T10:27:41Z</time>
      </trkpt>
      <trkpt lat="45.81362" lon="4.93556">
        <ele>173.9</ele>
        <time>2020-09-12T10:27:43Z</time>
      </trkpt>
      <trkpt lat="45.81366" lon="4.93562">
        <ele>173.8</ele>
        <time>2020-09-12T10:27:45Z</time>
      </trkpt>
      <trkpt lat="45.81369" lon="4.93566">
        <ele>173.6</ele>
        <time>2020-09-12T10:27:47Z</time>
      </trkpt>
      <trkpt lat="45.81373" lon="4.93572">
        <ele>173.4</ele>
        <time>2020-09-12T10:27:49Z</time>
      </trkpt>
      <trkpt lat="45.81377" lon="4.93576">
        <ele>173.2</ele>
        <time>2020-09-12T10:27:53Z</time>
      </trkpt>
      <trkpt lat="45.81379" lon="4.93585">
        <ele>173.4</ele>
        <time>2020-09-12T10:27:56Z</time>
      </trkpt>
      <trkpt lat="45.81383" lon="4.93593">
        <ele>173.3</ele>
        <time>2020-09-12T10:27:58Z</time>
      </trkpt>
      <trkpt lat="45.81387" lon="4.93603">
        <ele>173.2</ele>
        <time>2020-09-12T10:28:00Z</time>
      </trkpt>
      <trkpt lat="45.81392" lon="4.93613">
        <ele>173.2</ele>
        <time>2020-09-12T10:28:02Z</time>
      </trkpt>
      <trkpt lat="45.81397" lon="4.93624">
        <ele>173.2</ele>
        <time>2020-09-12T10:28:04Z</time>
      </trkpt>
      <trkpt lat="45.814" lon="4.9363">
        <ele>173.3</ele>
        <time>2020-09-12T10:28:05Z</time>
      </trkpt>
      <trkpt lat="45.81402" lon="4.93635">
        <ele>173.2</ele>
        <time>2020-09-12T10:28:06Z</time>
      </trkpt>
      <trkpt lat="45.81405" lon="4.93642">
        <ele>173.2</ele>
        <time>2020-09-12T10:28:07Z</time>
      </trkpt>
      <trkpt lat="45.81407" lon="4.93648">
        <ele>173</ele>
        <time>2020-09-12T10:28:08Z</time>
      </trkpt>
      <trkpt lat="45.81409" lon="4.93654">
        <ele>172.9</ele>
        <time>2020-09-12T10:28:09Z</time>
      </trkpt>
      <trkpt lat="45.81413" lon="4.93664">
        <ele>172.4</ele>
        <time>2020-09-12T10:28:11Z</time>
      </trkpt>
      <trkpt lat="45.81414" lon="4.93672">
        <ele>172.6</ele>
        <time>2020-09-12T10:28:13Z</time>
      </trkpt>
      <trkpt lat="45.81414" lon="4.93678">
        <ele>173.2</ele>
        <time>2020-09-12T10:28:20Z</time>
      </trkpt>
      <trkpt lat="45.8141" lon="4.93686">
        <ele>173.7</ele>
        <time>2020-09-12T10:28:23Z</time>
      </trkpt>
      <trkpt lat="45.81412" lon="4.93695">
        <ele>174</ele>
        <time>2020-09-12T10:28:25Z</time>
      </trkpt>
      <trkpt lat="45.81418" lon="4.93706">
        <ele>172.3</ele>
        <time>2020-09-12T10:28:27Z</time>
      </trkpt>
      <trkpt lat="45.81422" lon="4.93713">
        <ele>172.4</ele>
        <time>2020-09-12T10:28:28Z</time>
      </trkpt>
      <trkpt lat="45.81425" lon="4.93718">
        <ele>172.5</ele>
        <time>2020-09-12T10:28:29Z</time>
      </trkpt>
      <trkpt lat="45.81427" lon="4.93724">
        <ele>172.6</ele>
        <time>2020-09-12T10:28:30Z</time>
      </trkpt>
      <trkpt lat="45.8143" lon="4.9373">
        <ele>172.8</ele>
        <time>2020-09-12T10:28:31Z</time>
      </trkpt>
      <trkpt lat="45.81433" lon="4.93737">
        <ele>172.9</ele>
        <time>2020-09-12T10:28:32Z</time>
      </trkpt>
      <trkpt lat="45.81436" lon="4.93743">
        <ele>172.9</ele>
        <time>2020-09-12T10:28:33Z</time>
      </trkpt>
      <trkpt lat="45.81439" lon="4.9375">
        <ele>173.5</ele>
        <time>2020-09-12T10:28:34Z</time>
      </trkpt>
      <trkpt lat="45.81442" lon="4.93756">
        <ele>173.8</ele>
        <time>2020-09-12T10:28:35Z</time>
      </trkpt>
      <trkpt lat="45.81445" lon="4.93763">
        <ele>173.7</ele>
        <time>2020-09-12T10:28:36Z</time>
      </trkpt>
      <trkpt lat="45.81448" lon="4.93769">
        <ele>173.7</ele>
        <time>2020-09-12T10:28:37Z</time>
      </trkpt>
      <trkpt lat="45.81451" lon="4.93776">
        <ele>173.7</ele>
        <time>2020-09-12T10:28:38Z</time>
      </trkpt>
      <trkpt lat="45.81454" lon="4.93782">
        <ele>173.7</ele>
        <time>2020-09-12T10:28:39Z</time>
      </trkpt>
      <trkpt lat="45.81456" lon="4.93788">
        <ele>173.7</ele>
        <time>2020-09-12T10:28:40Z</time>
      </trkpt>
      <trkpt lat="45.8146" lon="4.93795">
        <ele>173.8</ele>
        <time>2020-09-12T10:28:41Z</time>
      </trkpt>
      <trkpt lat="45.81463" lon="4.93802">
        <ele>173.8</ele>
        <time>2020-09-12T10:28:42Z</time>
      </trkpt>
      <trkpt lat="45.81466" lon="4.93808">
        <ele>173.8</ele>
        <time>2020-09-12T10:28:43Z</time>
      </trkpt>
      <trkpt lat="45.81469" lon="4.93814">
        <ele>173.7</ele>
        <time>2020-09-12T10:28:44Z</time>
      </trkpt>
      <trkpt lat="45.81472" lon="4.93821">
        <ele>173.7</ele>
        <time>2020-09-12T10:28:45Z</time>
      </trkpt>
      <trkpt lat="45.81475" lon="4.93827">
        <ele>173.6</ele>
        <time>2020-09-12T10:28:46Z</time>
      </trkpt>
      <trkpt lat="45.81478" lon="4.93834">
        <ele>174.1</ele>
        <time>2020-09-12T10:28:47Z</time>
      </trkpt>
      <trkpt lat="45.81481" lon="4.93841">
        <ele>174</ele>
        <time>2020-09-12T10:28:48Z</time>
      </trkpt>
      <trkpt lat="45.81484" lon="4.93848">
        <ele>174</ele>
        <time>2020-09-12T10:28:49Z</time>
      </trkpt>
      <trkpt lat="45.81486" lon="4.93854">
        <ele>174.1</ele>
        <time>2020-09-12T10:28:50Z</time>
      </trkpt>
      <trkpt lat="45.81489" lon="4.93861">
        <ele>174.1</ele>
        <time>2020-09-12T10:28:51Z</time>
      </trkpt>
      <trkpt lat="45.81492" lon="4.93866">
        <ele>174.1</ele>
        <time>2020-09-12T10:28:52Z</time>
      </trkpt>
      <trkpt lat="45.81495" lon="4.93873">
        <ele>174.1</ele>
        <time>2020-09-12T10:28:53Z</time>
      </trkpt>
      <trkpt lat="45.81498" lon="4.93879">
        <ele>174.1</ele>
        <time>2020-09-12T10:28:54Z</time>
      </trkpt>
      <trkpt lat="45.81501" lon="4.93887">
        <ele>172.8</ele>
        <time>2020-09-12T10:28:55Z</time>
      </trkpt>
      <trkpt lat="45.81504" lon="4.93894">
        <ele>172.8</ele>
        <time>2020-09-12T10:28:56Z</time>
      </trkpt>
      <trkpt lat="45.81507" lon="4.93901">
        <ele>172.8</ele>
        <time>2020-09-12T10:28:57Z</time>
      </trkpt>
      <trkpt lat="45.81509" lon="4.93908">
        <ele>172.8</ele>
        <time>2020-09-12T10:28:58Z</time>
      </trkpt>
      <trkpt lat="45.81513" lon="4.93915">
        <ele>172.8</ele>
        <time>2020-09-12T10:28:59Z</time>
      </trkpt>
      <trkpt lat="45.81516" lon="4.93921">
        <ele>173</ele>
        <time>2020-09-12T10:29:00Z</time>
      </trkpt>
      <trkpt lat="45.8152" lon="4.93928">
        <ele>173.1</ele>
        <time>2020-09-12T10:29:01Z</time>
      </trkpt>
      <trkpt lat="45.81522" lon="4.93935">
        <ele>173.1</ele>
        <time>2020-09-12T10:29:02Z</time>
      </trkpt>
      <trkpt lat="45.81525" lon="4.93941">
        <ele>173.2</ele>
        <time>2020-09-12T10:29:03Z</time>
      </trkpt>
      <trkpt lat="45.81528" lon="4.93948">
        <ele>173.2</ele>
        <time>2020-09-12T10:29:04Z</time>
      </trkpt>
      <trkpt lat="45.81532" lon="4.93954">
        <ele>173.3</ele>
        <time>2020-09-12T10:29:05Z</time>
      </trkpt>
      <trkpt lat="45.81535" lon="4.93959">
        <ele>173.3</ele>
        <time>2020-09-12T10:29:06Z</time>
      </trkpt>
      <trkpt lat="45.81538" lon="4.93965">
        <ele>173.4</ele>
        <time>2020-09-12T10:29:07Z</time>
      </trkpt>
      <trkpt lat="45.8154" lon="4.93972">
        <ele>173.5</ele>
        <time>2020-09-12T10:29:08Z</time>
      </trkpt>
      <trkpt lat="45.81542" lon="4.93979">
        <ele>173.5</ele>
        <time>2020-09-12T10:29:09Z</time>
      </trkpt>
      <trkpt lat="45.81544" lon="4.93985">
        <ele>173.6</ele>
        <time>2020-09-12T10:29:10Z</time>
      </trkpt>
      <trkpt lat="45.81546" lon="4.93992">
        <ele>173.6</ele>
        <time>2020-09-12T10:29:11Z</time>
      </trkpt>
      <trkpt lat="45.81548" lon="4.93998">
        <ele>173.7</ele>
        <time>2020-09-12T10:29:12Z</time>
      </trkpt>
      <trkpt lat="45.81554" lon="4.94009">
        <ele>174.9</ele>
        <time>2020-09-12T10:29:14Z</time>
      </trkpt>
      <trkpt lat="45.81557" lon="4.94015">
        <ele>174.9</ele>
        <time>2020-09-12T10:29:15Z</time>
      </trkpt>
      <trkpt lat="45.8156" lon="4.94022">
        <ele>174.9</ele>
        <time>2020-09-12T10:29:16Z</time>
      </trkpt>
      <trkpt lat="45.81563" lon="4.94028">
        <ele>175</ele>
        <time>2020-09-12T10:29:17Z</time>
      </trkpt>
      <trkpt lat="45.81565" lon="4.94035">
        <ele>175.1</ele>
        <time>2020-09-12T10:29:18Z</time>
      </trkpt>
      <trkpt lat="45.81569" lon="4.94042">
        <ele>175.2</ele>
        <time>2020-09-12T10:29:19Z</time>
      </trkpt>
      <trkpt lat="45.81571" lon="4.94049">
        <ele>175.3</ele>
        <time>2020-09-12T10:29:20Z</time>
      </trkpt>
      <trkpt lat="45.81575" lon="4.94056">
        <ele>175.4</ele>
        <time>2020-09-12T10:29:21Z</time>
      </trkpt>
      <trkpt lat="45.81578" lon="4.94063">
        <ele>175.5</ele>
        <time>2020-09-12T10:29:22Z</time>
      </trkpt>
      <trkpt lat="45.81582" lon="4.9407">
        <ele>175.7</ele>
        <time>2020-09-12T10:29:23Z</time>
      </trkpt>
      <trkpt lat="45.81585" lon="4.94077">
        <ele>175.6</ele>
        <time>2020-09-12T10:29:24Z</time>
      </trkpt>
      <trkpt lat="45.81588" lon="4.94085">
        <ele>175.9</ele>
        <time>2020-09-12T10:29:25Z</time>
      </trkpt>
      <trkpt lat="45.81591" lon="4.94091">
        <ele>175.8</ele>
        <time>2020-09-12T10:29:26Z</time>
      </trkpt>
      <trkpt lat="45.81594" lon="4.94098">
        <ele>175.7</ele>
        <time>2020-09-12T10:29:27Z</time>
      </trkpt>
      <trkpt lat="45.81597" lon="4.94105">
        <ele>175.6</ele>
        <time>2020-09-12T10:29:28Z</time>
      </trkpt>
      <trkpt lat="45.81601" lon="4.94112">
        <ele>175.6</ele>
        <time>2020-09-12T10:29:29Z</time>
      </trkpt>
      <trkpt lat="45.81606" lon="4.94125">
        <ele>175.6</ele>
        <time>2020-09-12T10:29:31Z</time>
      </trkpt>
      <trkpt lat="45.81608" lon="4.94131">
        <ele>175.7</ele>
        <time>2020-09-12T10:29:32Z</time>
      </trkpt>
      <trkpt lat="45.81611" lon="4.94138">
        <ele>175.7</ele>
        <time>2020-09-12T10:29:33Z</time>
      </trkpt>
      <trkpt lat="45.81615" lon="4.94146">
        <ele>175.7</ele>
        <time>2020-09-12T10:29:34Z</time>
      </trkpt>
      <trkpt lat="45.81617" lon="4.94153">
        <ele>175.7</ele>
        <time>2020-09-12T10:29:35Z</time>
      </trkpt>
      <trkpt lat="45.8162" lon="4.9416">
        <ele>175.7</ele>
        <time>2020-09-12T10:29:36Z</time>
      </trkpt>
      <trkpt lat="45.81623" lon="4.94167">
        <ele>176.5</ele>
        <time>2020-09-12T10:29:37Z</time>
      </trkpt>
      <trkpt lat="45.81626" lon="4.94175">
        <ele>176.5</ele>
        <time>2020-09-12T10:29:38Z</time>
      </trkpt>
      <trkpt lat="45.8163" lon="4.94182">
        <ele>176.4</ele>
        <time>2020-09-12T10:29:39Z</time>
      </trkpt>
      <trkpt lat="45.81633" lon="4.94189">
        <ele>176.4</ele>
        <time>2020-09-12T10:29:40Z</time>
      </trkpt>
      <trkpt lat="45.81636" lon="4.94197">
        <ele>176.4</ele>
        <time>2020-09-12T10:29:41Z</time>
      </trkpt>
      <trkpt lat="45.8164" lon="4.94204">
        <ele>176.5</ele>
        <time>2020-09-12T10:29:42Z</time>
      </trkpt>
      <trkpt lat="45.81644" lon="4.94211">
        <ele>176.5</ele>
        <time>2020-09-12T10:29:43Z</time>
      </trkpt>
      <trkpt lat="45.81647" lon="4.94218">
        <ele>176.6</ele>
        <time>2020-09-12T10:29:44Z</time>
      </trkpt>
      <trkpt lat="45.8165" lon="4.94226">
        <ele>176.7</ele>
        <time>2020-09-12T10:29:45Z</time>
      </trkpt>
      <trkpt lat="45.81653" lon="4.94233">
        <ele>176.8</ele>
        <time>2020-09-12T10:29:46Z</time>
      </trkpt>
      <trkpt lat="45.81657" lon="4.94241">
        <ele>176.8</ele>
        <time>2020-09-12T10:29:47Z</time>
      </trkpt>
      <trkpt lat="45.8166" lon="4.94247">
        <ele>176.9</ele>
        <time>2020-09-12T10:29:48Z</time>
      </trkpt>
      <trkpt lat="45.81664" lon="4.94254">
        <ele>177.2</ele>
        <time>2020-09-12T10:29:49Z</time>
      </trkpt>
      <trkpt lat="45.81667" lon="4.94261">
        <ele>176.6</ele>
        <time>2020-09-12T10:29:50Z</time>
      </trkpt>
      <trkpt lat="45.8167" lon="4.94268">
        <ele>176.5</ele>
        <time>2020-09-12T10:29:51Z</time>
      </trkpt>
      <trkpt lat="45.81673" lon="4.94274">
        <ele>176.4</ele>
        <time>2020-09-12T10:29:52Z</time>
      </trkpt>
      <trkpt lat="45.81677" lon="4.94281">
        <ele>176.4</ele>
        <time>2020-09-12T10:29:53Z</time>
      </trkpt>
      <trkpt lat="45.8168" lon="4.94288">
        <ele>176.4</ele>
        <time>2020-09-12T10:29:54Z</time>
      </trkpt>
      <trkpt lat="45.81683" lon="4.94295">
        <ele>176.4</ele>
        <time>2020-09-12T10:29:55Z</time>
      </trkpt>
      <trkpt lat="45.81687" lon="4.94302">
        <ele>176.5</ele>
        <time>2020-09-12T10:29:56Z</time>
      </trkpt>
      <trkpt lat="45.8169" lon="4.94309">
        <ele>176.5</ele>
        <time>2020-09-12T10:29:57Z</time>
      </trkpt>
      <trkpt lat="45.81693" lon="4.94316">
        <ele>176.5</ele>
        <time>2020-09-12T10:29:58Z</time>
      </trkpt>
      <trkpt lat="45.81697" lon="4.94324">
        <ele>176.5</ele>
        <time>2020-09-12T10:29:59Z</time>
      </trkpt>
      <trkpt lat="45.817" lon="4.94331">
        <ele>176.4</ele>
        <time>2020-09-12T10:30:00Z</time>
      </trkpt>
      <trkpt lat="45.81703" lon="4.94338">
        <ele>176.4</ele>
        <time>2020-09-12T10:30:01Z</time>
      </trkpt>
      <trkpt lat="45.81706" lon="4.94345">
        <ele>176.2</ele>
        <time>2020-09-12T10:30:02Z</time>
      </trkpt>
      <trkpt lat="45.8171" lon="4.94352">
        <ele>176.1</ele>
        <time>2020-09-12T10:30:03Z</time>
      </trkpt>
      <trkpt lat="45.81713" lon="4.94359">
        <ele>175.9</ele>
        <time>2020-09-12T10:30:04Z</time>
      </trkpt>
      <trkpt lat="45.81717" lon="4.94366">
        <ele>175.8</ele>
        <time>2020-09-12T10:30:05Z</time>
      </trkpt>
      <trkpt lat="45.8172" lon="4.94373">
        <ele>175.7</ele>
        <time>2020-09-12T10:30:06Z</time>
      </trkpt>
      <trkpt lat="45.81723" lon="4.94379">
        <ele>175.6</ele>
        <time>2020-09-12T10:30:07Z</time>
      </trkpt>
      <trkpt lat="45.81727" lon="4.94387">
        <ele>175.5</ele>
        <time>2020-09-12T10:30:09Z</time>
      </trkpt>
      <trkpt lat="45.8173" lon="4.94394">
        <ele>175.4</ele>
        <time>2020-09-12T10:30:11Z</time>
      </trkpt>
      <trkpt lat="45.81735" lon="4.94404">
        <ele>175.1</ele>
        <time>2020-09-12T10:30:13Z</time>
      </trkpt>
      <trkpt lat="45.81739" lon="4.94415">
        <ele>174.7</ele>
        <time>2020-09-12T10:30:15Z</time>
      </trkpt>
      <trkpt lat="45.81741" lon="4.94421">
        <ele>174.6</ele>
        <time>2020-09-12T10:30:16Z</time>
      </trkpt>
      <trkpt lat="45.81744" lon="4.94428">
        <ele>174.7</ele>
        <time>2020-09-12T10:30:17Z</time>
      </trkpt>
      <trkpt lat="45.81747" lon="4.94436">
        <ele>174.9</ele>
        <time>2020-09-12T10:30:18Z</time>
      </trkpt>
      <trkpt lat="45.8175" lon="4.94443">
        <ele>175.1</ele>
        <time>2020-09-12T10:30:19Z</time>
      </trkpt>
      <trkpt lat="45.81753" lon="4.94449">
        <ele>173.5</ele>
        <time>2020-09-12T10:30:20Z</time>
      </trkpt>
      <trkpt lat="45.81756" lon="4.94456">
        <ele>173.5</ele>
        <time>2020-09-12T10:30:21Z</time>
      </trkpt>
      <trkpt lat="45.81759" lon="4.94463">
        <ele>173.5</ele>
        <time>2020-09-12T10:30:22Z</time>
      </trkpt>
      <trkpt lat="45.81762" lon="4.94471">
        <ele>173.6</ele>
        <time>2020-09-12T10:30:23Z</time>
      </trkpt>
      <trkpt lat="45.81768" lon="4.94485">
        <ele>173.8</ele>
        <time>2020-09-12T10:30:25Z</time>
      </trkpt>
      <trkpt lat="45.81773" lon="4.94492">
        <ele>173.7</ele>
        <time>2020-09-12T10:30:26Z</time>
      </trkpt>
      <trkpt lat="45.81776" lon="4.94499">
        <ele>173.6</ele>
        <time>2020-09-12T10:30:27Z</time>
      </trkpt>
      <trkpt lat="45.8178" lon="4.94507">
        <ele>174.2</ele>
        <time>2020-09-12T10:30:28Z</time>
      </trkpt>
      <trkpt lat="45.81783" lon="4.94514">
        <ele>174.2</ele>
        <time>2020-09-12T10:30:29Z</time>
      </trkpt>
      <trkpt lat="45.81786" lon="4.94522">
        <ele>174.2</ele>
        <time>2020-09-12T10:30:30Z</time>
      </trkpt>
      <trkpt lat="45.81788" lon="4.94529">
        <ele>174.2</ele>
        <time>2020-09-12T10:30:31Z</time>
      </trkpt>
      <trkpt lat="45.81791" lon="4.94537">
        <ele>174.2</ele>
        <time>2020-09-12T10:30:32Z</time>
      </trkpt>
      <trkpt lat="45.81795" lon="4.94544">
        <ele>174.3</ele>
        <time>2020-09-12T10:30:33Z</time>
      </trkpt>
      <trkpt lat="45.81798" lon="4.94551">
        <ele>174.3</ele>
        <time>2020-09-12T10:30:34Z</time>
      </trkpt>
      <trkpt lat="45.81801" lon="4.94559">
        <ele>174.5</ele>
        <time>2020-09-12T10:30:35Z</time>
      </trkpt>
      <trkpt lat="45.81804" lon="4.94566">
        <ele>174.6</ele>
        <time>2020-09-12T10:30:36Z</time>
      </trkpt>
      <trkpt lat="45.81807" lon="4.94573">
        <ele>174.7</ele>
        <time>2020-09-12T10:30:37Z</time>
      </trkpt>
      <trkpt lat="45.8181" lon="4.9458">
        <ele>174.9</ele>
        <time>2020-09-12T10:30:38Z</time>
      </trkpt>
      <trkpt lat="45.81814" lon="4.94588">
        <ele>176</ele>
        <time>2020-09-12T10:30:39Z</time>
      </trkpt>
      <trkpt lat="45.81817" lon="4.94595">
        <ele>176.1</ele>
        <time>2020-09-12T10:30:40Z</time>
      </trkpt>
      <trkpt lat="45.81819" lon="4.94603">
        <ele>176.2</ele>
        <time>2020-09-12T10:30:41Z</time>
      </trkpt>
      <trkpt lat="45.81821" lon="4.9461">
        <ele>176.3</ele>
        <time>2020-09-12T10:30:42Z</time>
      </trkpt>
      <trkpt lat="45.81825" lon="4.94617">
        <ele>176.4</ele>
        <time>2020-09-12T10:30:43Z</time>
      </trkpt>
      <trkpt lat="45.81827" lon="4.94623">
        <ele>176.5</ele>
        <time>2020-09-12T10:30:44Z</time>
      </trkpt>
      <trkpt lat="45.81829" lon="4.9463">
        <ele>176.6</ele>
        <time>2020-09-12T10:30:45Z</time>
      </trkpt>
      <trkpt lat="45.81832" lon="4.94638">
        <ele>176.8</ele>
        <time>2020-09-12T10:30:46Z</time>
      </trkpt>
      <trkpt lat="45.81834" lon="4.94645">
        <ele>176.6</ele>
        <time>2020-09-12T10:30:47Z</time>
      </trkpt>
      <trkpt lat="45.81837" lon="4.94652">
        <ele>176.9</ele>
        <time>2020-09-12T10:30:48Z</time>
      </trkpt>
      <trkpt lat="45.8184" lon="4.94659">
        <ele>177.1</ele>
        <time>2020-09-12T10:30:49Z</time>
      </trkpt>
      <trkpt lat="45.81842" lon="4.94666">
        <ele>177.2</ele>
        <time>2020-09-12T10:30:50Z</time>
      </trkpt>
      <trkpt lat="45.81845" lon="4.94675">
        <ele>177.5</ele>
        <time>2020-09-12T10:30:51Z</time>
      </trkpt>
      <trkpt lat="45.81848" lon="4.94682">
        <ele>177.3</ele>
        <time>2020-09-12T10:30:52Z</time>
      </trkpt>
      <trkpt lat="45.8185" lon="4.9469">
        <ele>177.2</ele>
        <time>2020-09-12T10:30:53Z</time>
      </trkpt>
      <trkpt lat="45.81853" lon="4.94697">
        <ele>177.2</ele>
        <time>2020-09-12T10:30:54Z</time>
      </trkpt>
      <trkpt lat="45.81855" lon="4.94704">
        <ele>177.2</ele>
        <time>2020-09-12T10:30:55Z</time>
      </trkpt>
      <trkpt lat="45.81857" lon="4.94712">
        <ele>177.3</ele>
        <time>2020-09-12T10:30:56Z</time>
      </trkpt>
      <trkpt lat="45.81859" lon="4.94719">
        <ele>177.3</ele>
        <time>2020-09-12T10:30:57Z</time>
      </trkpt>
      <trkpt lat="45.81862" lon="4.94727">
        <ele>177.4</ele>
        <time>2020-09-12T10:30:58Z</time>
      </trkpt>
      <trkpt lat="45.81863" lon="4.94734">
        <ele>177.4</ele>
        <time>2020-09-12T10:30:59Z</time>
      </trkpt>
      <trkpt lat="45.81865" lon="4.94741">
        <ele>177.4</ele>
        <time>2020-09-12T10:31:00Z</time>
      </trkpt>
      <trkpt lat="45.81867" lon="4.94747">
        <ele>177.4</ele>
        <time>2020-09-12T10:31:01Z</time>
      </trkpt>
      <trkpt lat="45.81868" lon="4.94754">
        <ele>178.3</ele>
        <time>2020-09-12T10:31:02Z</time>
      </trkpt>
      <trkpt lat="45.8187" lon="4.9476">
        <ele>178.2</ele>
        <time>2020-09-12T10:31:03Z</time>
      </trkpt>
      <trkpt lat="45.81872" lon="4.94766">
        <ele>178.2</ele>
        <time>2020-09-12T10:31:04Z</time>
      </trkpt>
      <trkpt lat="45.81875" lon="4.94776">
        <ele>178.1</ele>
        <time>2020-09-12T10:31:06Z</time>
      </trkpt>
      <trkpt lat="45.81877" lon="4.94786">
        <ele>178.2</ele>
        <time>2020-09-12T10:31:08Z</time>
      </trkpt>
      <trkpt lat="45.81881" lon="4.94795">
        <ele>178.1</ele>
        <time>2020-09-12T10:31:10Z</time>
      </trkpt>
      <trkpt lat="45.81882" lon="4.94801">
        <ele>178.1</ele>
        <time>2020-09-12T10:31:12Z</time>
      </trkpt>
      <trkpt lat="45.81886" lon="4.94803">
        <ele>178.1</ele>
        <time>2020-09-12T10:31:29Z</time>
      </trkpt>
      <trkpt lat="45.81886" lon="4.94803">
        <ele>178.1</ele>
        <time>2020-09-12T10:31:42Z</time>
      </trkpt>
      <trkpt lat="45.81892" lon="4.94807">
        <ele>177.9</ele>
        <time>2020-09-12T10:31:44Z</time>
      </trkpt>
      <trkpt lat="45.81898" lon="4.94806">
        <ele>177.8</ele>
        <time>2020-09-12T10:31:47Z</time>
      </trkpt>
      <trkpt lat="45.81902" lon="4.94804">
        <ele>177.7</ele>
        <time>2020-09-12T10:31:50Z</time>
      </trkpt>
      <trkpt lat="45.81907" lon="4.948">
        <ele>177.6</ele>
        <time>2020-09-12T10:31:58Z</time>
      </trkpt>
      <trkpt lat="45.81913" lon="4.94795">
        <ele>177.5</ele>
        <time>2020-09-12T10:32:01Z</time>
      </trkpt>
      <trkpt lat="45.81918" lon="4.94791">
        <ele>175.7</ele>
        <time>2020-09-12T10:32:03Z</time>
      </trkpt>
      <trkpt lat="45.81925" lon="4.94787">
        <ele>175.6</ele>
        <time>2020-09-12T10:32:05Z</time>
      </trkpt>
      <trkpt lat="45.81933" lon="4.94781">
        <ele>175.5</ele>
        <time>2020-09-12T10:32:07Z</time>
      </trkpt>
      <trkpt lat="45.81937" lon="4.94778">
        <ele>175.5</ele>
        <time>2020-09-12T10:32:08Z</time>
      </trkpt>
      <trkpt lat="45.81941" lon="4.94774">
        <ele>175.4</ele>
        <time>2020-09-12T10:32:09Z</time>
      </trkpt>
      <trkpt lat="45.81949" lon="4.94766">
        <ele>175.4</ele>
        <time>2020-09-12T10:32:11Z</time>
      </trkpt>
      <trkpt lat="45.81953" lon="4.94764">
        <ele>175.4</ele>
        <time>2020-09-12T10:32:12Z</time>
      </trkpt>
      <trkpt lat="45.81958" lon="4.9476">
        <ele>175.3</ele>
        <time>2020-09-12T10:32:13Z</time>
      </trkpt>
      <trkpt lat="45.81966" lon="4.94754">
        <ele>175.3</ele>
        <time>2020-09-12T10:32:15Z</time>
      </trkpt>
      <trkpt lat="45.81975" lon="4.94747">
        <ele>175.2</ele>
        <time>2020-09-12T10:32:17Z</time>
      </trkpt>
      <trkpt lat="45.81982" lon="4.94742">
        <ele>175.2</ele>
        <time>2020-09-12T10:32:19Z</time>
      </trkpt>
      <trkpt lat="45.81989" lon="4.94738">
        <ele>175.2</ele>
        <time>2020-09-12T10:32:21Z</time>
      </trkpt>
      <trkpt lat="45.81997" lon="4.94734">
        <ele>175.2</ele>
        <time>2020-09-12T10:32:23Z</time>
      </trkpt>
      <trkpt lat="45.82002" lon="4.94731">
        <ele>177.5</ele>
        <time>2020-09-12T10:32:25Z</time>
      </trkpt>
      <trkpt lat="45.82008" lon="4.94728">
        <ele>177.9</ele>
        <time>2020-09-12T10:32:27Z</time>
      </trkpt>
      <trkpt lat="45.82015" lon="4.94724">
        <ele>178.4</ele>
        <time>2020-09-12T10:32:29Z</time>
      </trkpt>
      <trkpt lat="45.82021" lon="4.94721">
        <ele>178.8</ele>
        <time>2020-09-12T10:32:31Z</time>
      </trkpt>
      <trkpt lat="45.82028" lon="4.9472">
        <ele>179.2</ele>
        <time>2020-09-12T10:32:33Z</time>
      </trkpt>
      <trkpt lat="45.82034" lon="4.94724">
        <ele>179.5</ele>
        <time>2020-09-12T10:32:35Z</time>
      </trkpt>
      <trkpt lat="45.82038" lon="4.94735">
        <ele>179.6</ele>
        <time>2020-09-12T10:32:37Z</time>
      </trkpt>
      <trkpt lat="45.82041" lon="4.94747">
        <ele>179.7</ele>
        <time>2020-09-12T10:32:39Z</time>
      </trkpt>
      <trkpt lat="45.82042" lon="4.94755">
        <ele>179.3</ele>
        <time>2020-09-12T10:32:40Z</time>
      </trkpt>
      <trkpt lat="45.82044" lon="4.94762">
        <ele>179.5</ele>
        <time>2020-09-12T10:32:41Z</time>
      </trkpt>
      <trkpt lat="45.82045" lon="4.94768">
        <ele>179.5</ele>
        <time>2020-09-12T10:32:42Z</time>
      </trkpt>
      <trkpt lat="45.82047" lon="4.94775">
        <ele>179.6</ele>
        <time>2020-09-12T10:32:43Z</time>
      </trkpt>
      <trkpt lat="45.82049" lon="4.94782">
        <ele>179.7</ele>
        <time>2020-09-12T10:32:44Z</time>
      </trkpt>
      <trkpt lat="45.82051" lon="4.9479">
        <ele>179.7</ele>
        <time>2020-09-12T10:32:45Z</time>
      </trkpt>
      <trkpt lat="45.82053" lon="4.94797">
        <ele>179.8</ele>
        <time>2020-09-12T10:32:46Z</time>
      </trkpt>
      <trkpt lat="45.82055" lon="4.94804">
        <ele>179.9</ele>
        <time>2020-09-12T10:32:47Z</time>
      </trkpt>
      <trkpt lat="45.82058" lon="4.94811">
        <ele>180.1</ele>
        <time>2020-09-12T10:32:48Z</time>
      </trkpt>
      <trkpt lat="45.82061" lon="4.94817">
        <ele>180.4</ele>
        <time>2020-09-12T10:32:49Z</time>
      </trkpt>
      <trkpt lat="45.82065" lon="4.94823">
        <ele>180.8</ele>
        <time>2020-09-12T10:32:50Z</time>
      </trkpt>
      <trkpt lat="45.8207" lon="4.94828">
        <ele>181.3</ele>
        <time>2020-09-12T10:32:51Z</time>
      </trkpt>
      <trkpt lat="45.82074" lon="4.94833">
        <ele>181.8</ele>
        <time>2020-09-12T10:32:52Z</time>
      </trkpt>
      <trkpt lat="45.82077" lon="4.94839">
        <ele>181.5</ele>
        <time>2020-09-12T10:32:53Z</time>
      </trkpt>
      <trkpt lat="45.82083" lon="4.94844">
        <ele>181.1</ele>
        <time>2020-09-12T10:32:54Z</time>
      </trkpt>
      <trkpt lat="45.82086" lon="4.9485">
        <ele>182.8</ele>
        <time>2020-09-12T10:32:55Z</time>
      </trkpt>
      <trkpt lat="45.82089" lon="4.94856">
        <ele>182.7</ele>
        <time>2020-09-12T10:32:56Z</time>
      </trkpt>
      <trkpt lat="45.82092" lon="4.94863">
        <ele>182.5</ele>
        <time>2020-09-12T10:32:57Z</time>
      </trkpt>
      <trkpt lat="45.82096" lon="4.9487">
        <ele>182.4</ele>
        <time>2020-09-12T10:32:58Z</time>
      </trkpt>
      <trkpt lat="45.82099" lon="4.94877">
        <ele>182.2</ele>
        <time>2020-09-12T10:32:59Z</time>
      </trkpt>
      <trkpt lat="45.82102" lon="4.94884">
        <ele>182.1</ele>
        <time>2020-09-12T10:33:00Z</time>
      </trkpt>
      <trkpt lat="45.82105" lon="4.94891">
        <ele>181.9</ele>
        <time>2020-09-12T10:33:01Z</time>
      </trkpt>
      <trkpt lat="45.82109" lon="4.94898">
        <ele>181.8</ele>
        <time>2020-09-12T10:33:02Z</time>
      </trkpt>
      <trkpt lat="45.82112" lon="4.94905">
        <ele>181.8</ele>
        <time>2020-09-12T10:33:03Z</time>
      </trkpt>
      <trkpt lat="45.82115" lon="4.94912">
        <ele>181.9</ele>
        <time>2020-09-12T10:33:04Z</time>
      </trkpt>
      <trkpt lat="45.82118" lon="4.94919">
        <ele>181.2</ele>
        <time>2020-09-12T10:33:05Z</time>
      </trkpt>
      <trkpt lat="45.8212" lon="4.94926">
        <ele>181.3</ele>
        <time>2020-09-12T10:33:06Z</time>
      </trkpt>
      <trkpt lat="45.82123" lon="4.94934">
        <ele>181.5</ele>
        <time>2020-09-12T10:33:07Z</time>
      </trkpt>
      <trkpt lat="45.82127" lon="4.9494">
        <ele>181.7</ele>
        <time>2020-09-12T10:33:08Z</time>
      </trkpt>
      <trkpt lat="45.82129" lon="4.94948">
        <ele>181.8</ele>
        <time>2020-09-12T10:33:09Z</time>
      </trkpt>
      <trkpt lat="45.82132" lon="4.94955">
        <ele>181.9</ele>
        <time>2020-09-12T10:33:10Z</time>
      </trkpt>
      <trkpt lat="45.82135" lon="4.94962">
        <ele>182</ele>
        <time>2020-09-12T10:33:11Z</time>
      </trkpt>
      <trkpt lat="45.82138" lon="4.94968">
        <ele>182.1</ele>
        <time>2020-09-12T10:33:12Z</time>
      </trkpt>
      <trkpt lat="45.82141" lon="4.94975">
        <ele>182.2</ele>
        <time>2020-09-12T10:33:13Z</time>
      </trkpt>
      <trkpt lat="45.82143" lon="4.94982">
        <ele>182.5</ele>
        <time>2020-09-12T10:33:14Z</time>
      </trkpt>
      <trkpt lat="45.82146" lon="4.94989">
        <ele>182.7</ele>
        <time>2020-09-12T10:33:15Z</time>
      </trkpt>
      <trkpt lat="45.82149" lon="4.94997">
        <ele>183.1</ele>
        <time>2020-09-12T10:33:16Z</time>
      </trkpt>
      <trkpt lat="45.82151" lon="4.95004">
        <ele>182.4</ele>
        <time>2020-09-12T10:33:17Z</time>
      </trkpt>
      <trkpt lat="45.82155" lon="4.95012">
        <ele>182.3</ele>
        <time>2020-09-12T10:33:18Z</time>
      </trkpt>
      <trkpt lat="45.82157" lon="4.9502">
        <ele>181.8</ele>
        <time>2020-09-12T10:33:19Z</time>
      </trkpt>
      <trkpt lat="45.82161" lon="4.95026">
        <ele>181.5</ele>
        <time>2020-09-12T10:33:20Z</time>
      </trkpt>
      <trkpt lat="45.82164" lon="4.95033">
        <ele>181.1</ele>
        <time>2020-09-12T10:33:21Z</time>
      </trkpt>
      <trkpt lat="45.82166" lon="4.95041">
        <ele>180.8</ele>
        <time>2020-09-12T10:33:22Z</time>
      </trkpt>
      <trkpt lat="45.82167" lon="4.95048">
        <ele>183.5</ele>
        <time>2020-09-12T10:33:23Z</time>
      </trkpt>
      <trkpt lat="45.8217" lon="4.95056">
        <ele>183.2</ele>
        <time>2020-09-12T10:33:24Z</time>
      </trkpt>
      <trkpt lat="45.82174" lon="4.95072">
        <ele>182.4</ele>
        <time>2020-09-12T10:33:26Z</time>
      </trkpt>
      <trkpt lat="45.82176" lon="4.9508">
        <ele>182.1</ele>
        <time>2020-09-12T10:33:27Z</time>
      </trkpt>
      <trkpt lat="45.82178" lon="4.95088">
        <ele>181.7</ele>
        <time>2020-09-12T10:33:28Z</time>
      </trkpt>
      <trkpt lat="45.82179" lon="4.95096">
        <ele>181.8</ele>
        <time>2020-09-12T10:33:29Z</time>
      </trkpt>
      <trkpt lat="45.82182" lon="4.95105">
        <ele>182</ele>
        <time>2020-09-12T10:33:30Z</time>
      </trkpt>
      <trkpt lat="45.82184" lon="4.95114">
        <ele>182.1</ele>
        <time>2020-09-12T10:33:31Z</time>
      </trkpt>
      <trkpt lat="45.82185" lon="4.95123">
        <ele>182.1</ele>
        <time>2020-09-12T10:33:32Z</time>
      </trkpt>
      <trkpt lat="45.82187" lon="4.95131">
        <ele>182</ele>
        <time>2020-09-12T10:33:33Z</time>
      </trkpt>
      <trkpt lat="45.8219" lon="4.95138">
        <ele>182</ele>
        <time>2020-09-12T10:33:34Z</time>
      </trkpt>
      <trkpt lat="45.82192" lon="4.95146">
        <ele>181.9</ele>
        <time>2020-09-12T10:33:35Z</time>
      </trkpt>
      <trkpt lat="45.82194" lon="4.95154">
        <ele>181.9</ele>
        <time>2020-09-12T10:33:36Z</time>
      </trkpt>
      <trkpt lat="45.82195" lon="4.95162">
        <ele>181.9</ele>
        <time>2020-09-12T10:33:37Z</time>
      </trkpt>
      <trkpt lat="45.82198" lon="4.95169">
        <ele>181.5</ele>
        <time>2020-09-12T10:33:38Z</time>
      </trkpt>
      <trkpt lat="45.822" lon="4.95177">
        <ele>181.7</ele>
        <time>2020-09-12T10:33:39Z</time>
      </trkpt>
      <trkpt lat="45.82202" lon="4.95186">
        <ele>181.8</ele>
        <time>2020-09-12T10:33:40Z</time>
      </trkpt>
      <trkpt lat="45.82204" lon="4.95193">
        <ele>181.9</ele>
        <time>2020-09-12T10:33:41Z</time>
      </trkpt>
      <trkpt lat="45.82206" lon="4.95202">
        <ele>182</ele>
        <time>2020-09-12T10:33:42Z</time>
      </trkpt>
      <trkpt lat="45.82208" lon="4.95209">
        <ele>182</ele>
        <time>2020-09-12T10:33:43Z</time>
      </trkpt>
      <trkpt lat="45.8221" lon="4.95217">
        <ele>182</ele>
        <time>2020-09-12T10:33:44Z</time>
      </trkpt>
      <trkpt lat="45.82211" lon="4.95226">
        <ele>182</ele>
        <time>2020-09-12T10:33:45Z</time>
      </trkpt>
      <trkpt lat="45.82212" lon="4.95233">
        <ele>182.1</ele>
        <time>2020-09-12T10:33:46Z</time>
      </trkpt>
      <trkpt lat="45.82214" lon="4.95241">
        <ele>182.1</ele>
        <time>2020-09-12T10:33:47Z</time>
      </trkpt>
      <trkpt lat="45.82216" lon="4.95249">
        <ele>182.3</ele>
        <time>2020-09-12T10:33:48Z</time>
      </trkpt>
      <trkpt lat="45.82218" lon="4.95256">
        <ele>181.8</ele>
        <time>2020-09-12T10:33:49Z</time>
      </trkpt>
      <trkpt lat="45.8222" lon="4.95264">
        <ele>181.8</ele>
        <time>2020-09-12T10:33:50Z</time>
      </trkpt>
      <trkpt lat="45.82222" lon="4.95272">
        <ele>181.8</ele>
        <time>2020-09-12T10:33:51Z</time>
      </trkpt>
      <trkpt lat="45.82225" lon="4.95279">
        <ele>181.8</ele>
        <time>2020-09-12T10:33:52Z</time>
      </trkpt>
      <trkpt lat="45.82227" lon="4.95287">
        <ele>181.8</ele>
        <time>2020-09-12T10:33:53Z</time>
      </trkpt>
      <trkpt lat="45.82229" lon="4.95294">
        <ele>181.8</ele>
        <time>2020-09-12T10:33:54Z</time>
      </trkpt>
      <trkpt lat="45.82232" lon="4.95301">
        <ele>181.9</ele>
        <time>2020-09-12T10:33:55Z</time>
      </trkpt>
      <trkpt lat="45.82235" lon="4.95308">
        <ele>182.1</ele>
        <time>2020-09-12T10:33:56Z</time>
      </trkpt>
      <trkpt lat="45.82239" lon="4.95318">
        <ele>182.4</ele>
        <time>2020-09-12T10:33:58Z</time>
      </trkpt>
      <trkpt lat="45.82243" lon="4.95327">
        <ele>183</ele>
        <time>2020-09-12T10:34:00Z</time>
      </trkpt>
      <trkpt lat="45.82246" lon="4.95336">
        <ele>183.4</ele>
        <time>2020-09-12T10:34:02Z</time>
      </trkpt>
      <trkpt lat="45.82247" lon="4.95343">
        <ele>183</ele>
        <time>2020-09-12T10:34:03Z</time>
      </trkpt>
      <trkpt lat="45.8225" lon="4.9535">
        <ele>182.5</ele>
        <time>2020-09-12T10:34:04Z</time>
      </trkpt>
      <trkpt lat="45.82252" lon="4.95357">
        <ele>184.5</ele>
        <time>2020-09-12T10:34:05Z</time>
      </trkpt>
      <trkpt lat="45.82254" lon="4.95363">
        <ele>184.6</ele>
        <time>2020-09-12T10:34:06Z</time>
      </trkpt>
      <trkpt lat="45.82257" lon="4.9537">
        <ele>184.5</ele>
        <time>2020-09-12T10:34:07Z</time>
      </trkpt>
      <trkpt lat="45.8226" lon="4.95377">
        <ele>184.5</ele>
        <time>2020-09-12T10:34:08Z</time>
      </trkpt>
      <trkpt lat="45.82262" lon="4.95383">
        <ele>184.4</ele>
        <time>2020-09-12T10:34:09Z</time>
      </trkpt>
      <trkpt lat="45.82267" lon="4.95396">
        <ele>184.2</ele>
        <time>2020-09-12T10:34:11Z</time>
      </trkpt>
      <trkpt lat="45.82269" lon="4.95402">
        <ele>184.1</ele>
        <time>2020-09-12T10:34:12Z</time>
      </trkpt>
      <trkpt lat="45.82272" lon="4.95408">
        <ele>184</ele>
        <time>2020-09-12T10:34:13Z</time>
      </trkpt>
      <trkpt lat="45.82274" lon="4.95415">
        <ele>184.1</ele>
        <time>2020-09-12T10:34:14Z</time>
      </trkpt>
      <trkpt lat="45.82277" lon="4.95422">
        <ele>183.2</ele>
        <time>2020-09-12T10:34:15Z</time>
      </trkpt>
      <trkpt lat="45.82279" lon="4.95428">
        <ele>183.3</ele>
        <time>2020-09-12T10:34:16Z</time>
      </trkpt>
      <trkpt lat="45.82282" lon="4.95435">
        <ele>183.3</ele>
        <time>2020-09-12T10:34:17Z</time>
      </trkpt>
      <trkpt lat="45.82283" lon="4.95442">
        <ele>183.3</ele>
        <time>2020-09-12T10:34:18Z</time>
      </trkpt>
      <trkpt lat="45.82285" lon="4.95449">
        <ele>183.3</ele>
        <time>2020-09-12T10:34:19Z</time>
      </trkpt>
      <trkpt lat="45.82287" lon="4.95456">
        <ele>183.3</ele>
        <time>2020-09-12T10:34:20Z</time>
      </trkpt>
      <trkpt lat="45.82289" lon="4.95463">
        <ele>183.3</ele>
        <time>2020-09-12T10:34:21Z</time>
      </trkpt>
      <trkpt lat="45.8229" lon="4.9547">
        <ele>183.3</ele>
        <time>2020-09-12T10:34:22Z</time>
      </trkpt>
      <trkpt lat="45.82292" lon="4.95477">
        <ele>183.3</ele>
        <time>2020-09-12T10:34:23Z</time>
      </trkpt>
      <trkpt lat="45.82294" lon="4.95484">
        <ele>183.4</ele>
        <time>2020-09-12T10:34:24Z</time>
      </trkpt>
      <trkpt lat="45.82296" lon="4.95492">
        <ele>183.5</ele>
        <time>2020-09-12T10:34:25Z</time>
      </trkpt>
      <trkpt lat="45.82298" lon="4.95499">
        <ele>183.6</ele>
        <time>2020-09-12T10:34:26Z</time>
      </trkpt>
      <trkpt lat="45.82299" lon="4.95507">
        <ele>183</ele>
        <time>2020-09-12T10:34:27Z</time>
      </trkpt>
      <trkpt lat="45.82301" lon="4.95514">
        <ele>183</ele>
        <time>2020-09-12T10:34:28Z</time>
      </trkpt>
      <trkpt lat="45.82301" lon="4.95521">
        <ele>182.9</ele>
        <time>2020-09-12T10:34:29Z</time>
      </trkpt>
      <trkpt lat="45.82302" lon="4.95528">
        <ele>182.9</ele>
        <time>2020-09-12T10:34:30Z</time>
      </trkpt>
      <trkpt lat="45.82304" lon="4.95535">
        <ele>182.9</ele>
        <time>2020-09-12T10:34:31Z</time>
      </trkpt>
      <trkpt lat="45.82306" lon="4.95541">
        <ele>183.1</ele>
        <time>2020-09-12T10:34:32Z</time>
      </trkpt>
      <trkpt lat="45.82308" lon="4.95547">
        <ele>183.2</ele>
        <time>2020-09-12T10:34:33Z</time>
      </trkpt>
      <trkpt lat="45.82311" lon="4.95554">
        <ele>183.3</ele>
        <time>2020-09-12T10:34:34Z</time>
      </trkpt>
      <trkpt lat="45.82312" lon="4.9556">
        <ele>183.6</ele>
        <time>2020-09-12T10:34:35Z</time>
      </trkpt>
      <trkpt lat="45.82314" lon="4.95566">
        <ele>183.9</ele>
        <time>2020-09-12T10:34:36Z</time>
      </trkpt>
      <trkpt lat="45.82316" lon="4.95573">
        <ele>184.3</ele>
        <time>2020-09-12T10:34:37Z</time>
      </trkpt>
      <trkpt lat="45.82317" lon="4.9558">
        <ele>184.6</ele>
        <time>2020-09-12T10:34:38Z</time>
      </trkpt>
      <trkpt lat="45.82319" lon="4.95586">
        <ele>185</ele>
        <time>2020-09-12T10:34:39Z</time>
      </trkpt>
      <trkpt lat="45.82321" lon="4.95593">
        <ele>185</ele>
        <time>2020-09-12T10:34:40Z</time>
      </trkpt>
      <trkpt lat="45.82322" lon="4.956">
        <ele>184.7</ele>
        <time>2020-09-12T10:34:41Z</time>
      </trkpt>
      <trkpt lat="45.82324" lon="4.95607">
        <ele>184.5</ele>
        <time>2020-09-12T10:34:42Z</time>
      </trkpt>
      <trkpt lat="45.82326" lon="4.95614">
        <ele>184.4</ele>
        <time>2020-09-12T10:34:43Z</time>
      </trkpt>
      <trkpt lat="45.82329" lon="4.9562">
        <ele>184.4</ele>
        <time>2020-09-12T10:34:44Z</time>
      </trkpt>
      <trkpt lat="45.82331" lon="4.95627">
        <ele>184.5</ele>
        <time>2020-09-12T10:34:45Z</time>
      </trkpt>
      <trkpt lat="45.82334" lon="4.95634">
        <ele>187.9</ele>
        <time>2020-09-12T10:34:46Z</time>
      </trkpt>
      <trkpt lat="45.82335" lon="4.95642">
        <ele>187.9</ele>
        <time>2020-09-12T10:34:47Z</time>
      </trkpt>
      <trkpt lat="45.82337" lon="4.9565">
        <ele>187.9</ele>
        <time>2020-09-12T10:34:48Z</time>
      </trkpt>
      <trkpt lat="45.82339" lon="4.95658">
        <ele>188</ele>
        <time>2020-09-12T10:34:49Z</time>
      </trkpt>
      <trkpt lat="45.8234" lon="4.95666">
        <ele>188</ele>
        <time>2020-09-12T10:34:50Z</time>
      </trkpt>
      <trkpt lat="45.8234" lon="4.95674">
        <ele>187.5</ele>
        <time>2020-09-12T10:34:51Z</time>
      </trkpt>
      <trkpt lat="45.82341" lon="4.95682">
        <ele>187.3</ele>
        <time>2020-09-12T10:34:52Z</time>
      </trkpt>
      <trkpt lat="45.8234" lon="4.9569">
        <ele>187.1</ele>
        <time>2020-09-12T10:34:53Z</time>
      </trkpt>
      <trkpt lat="45.8234" lon="4.95697">
        <ele>186.9</ele>
        <time>2020-09-12T10:34:54Z</time>
      </trkpt>
      <trkpt lat="45.82339" lon="4.95705">
        <ele>186.6</ele>
        <time>2020-09-12T10:34:55Z</time>
      </trkpt>
      <trkpt lat="45.82339" lon="4.95712">
        <ele>186.4</ele>
        <time>2020-09-12T10:34:56Z</time>
      </trkpt>
      <trkpt lat="45.82339" lon="4.9572">
        <ele>186.1</ele>
        <time>2020-09-12T10:34:57Z</time>
      </trkpt>
      <trkpt lat="45.82338" lon="4.95728">
        <ele>185.7</ele>
        <time>2020-09-12T10:34:58Z</time>
      </trkpt>
      <trkpt lat="45.82337" lon="4.95736">
        <ele>185.2</ele>
        <time>2020-09-12T10:34:59Z</time>
      </trkpt>
      <trkpt lat="45.82338" lon="4.95745">
        <ele>184.7</ele>
        <time>2020-09-12T10:35:00Z</time>
      </trkpt>
      <trkpt lat="45.82338" lon="4.95752">
        <ele>184.3</ele>
        <time>2020-09-12T10:35:01Z</time>
      </trkpt>
      <trkpt lat="45.82339" lon="4.9576">
        <ele>184.5</ele>
        <time>2020-09-12T10:35:02Z</time>
      </trkpt>
      <trkpt lat="45.8234" lon="4.95767">
        <ele>184.6</ele>
        <time>2020-09-12T10:35:03Z</time>
      </trkpt>
      <trkpt lat="45.82341" lon="4.95775">
        <ele>184.7</ele>
        <time>2020-09-12T10:35:04Z</time>
      </trkpt>
      <trkpt lat="45.82342" lon="4.95782">
        <ele>184.7</ele>
        <time>2020-09-12T10:35:05Z</time>
      </trkpt>
      <trkpt lat="45.82343" lon="4.95789">
        <ele>184.7</ele>
        <time>2020-09-12T10:35:06Z</time>
      </trkpt>
      <trkpt lat="45.82344" lon="4.95797">
        <ele>184.6</ele>
        <time>2020-09-12T10:35:07Z</time>
      </trkpt>
      <trkpt lat="45.82345" lon="4.95804">
        <ele>184.5</ele>
        <time>2020-09-12T10:35:08Z</time>
      </trkpt>
      <trkpt lat="45.82346" lon="4.95812">
        <ele>184.2</ele>
        <time>2020-09-12T10:35:09Z</time>
      </trkpt>
      <trkpt lat="45.82346" lon="4.95819">
        <ele>184</ele>
        <time>2020-09-12T10:35:10Z</time>
      </trkpt>
      <trkpt lat="45.82347" lon="4.95825">
        <ele>183.7</ele>
        <time>2020-09-12T10:35:11Z</time>
      </trkpt>
      <trkpt lat="45.82349" lon="4.95833">
        <ele>183.7</ele>
        <time>2020-09-12T10:35:12Z</time>
      </trkpt>
      <trkpt lat="45.8235" lon="4.9584">
        <ele>183.6</ele>
        <time>2020-09-12T10:35:13Z</time>
      </trkpt>
      <trkpt lat="45.82351" lon="4.95848">
        <ele>183.7</ele>
        <time>2020-09-12T10:35:14Z</time>
      </trkpt>
      <trkpt lat="45.82352" lon="4.95855">
        <ele>183.9</ele>
        <time>2020-09-12T10:35:15Z</time>
      </trkpt>
      <trkpt lat="45.82354" lon="4.95864">
        <ele>184</ele>
        <time>2020-09-12T10:35:16Z</time>
      </trkpt>
      <trkpt lat="45.82354" lon="4.95871">
        <ele>184</ele>
        <time>2020-09-12T10:35:17Z</time>
      </trkpt>
      <trkpt lat="45.82356" lon="4.95878">
        <ele>183.9</ele>
        <time>2020-09-12T10:35:18Z</time>
      </trkpt>
      <trkpt lat="45.82356" lon="4.95886">
        <ele>183.8</ele>
        <time>2020-09-12T10:35:19Z</time>
      </trkpt>
      <trkpt lat="45.82357" lon="4.95894">
        <ele>183.6</ele>
        <time>2020-09-12T10:35:20Z</time>
      </trkpt>
      <trkpt lat="45.82358" lon="4.95901">
        <ele>183.4</ele>
        <time>2020-09-12T10:35:21Z</time>
      </trkpt>
      <trkpt lat="45.82359" lon="4.95908">
        <ele>183.3</ele>
        <time>2020-09-12T10:35:22Z</time>
      </trkpt>
      <trkpt lat="45.8236" lon="4.95916">
        <ele>183.3</ele>
        <time>2020-09-12T10:35:23Z</time>
      </trkpt>
      <trkpt lat="45.82361" lon="4.95925">
        <ele>181.9</ele>
        <time>2020-09-12T10:35:24Z</time>
      </trkpt>
      <trkpt lat="45.82363" lon="4.95933">
        <ele>182.1</ele>
        <time>2020-09-12T10:35:25Z</time>
      </trkpt>
      <trkpt lat="45.82366" lon="4.95941">
        <ele>182.3</ele>
        <time>2020-09-12T10:35:26Z</time>
      </trkpt>
      <trkpt lat="45.8237" lon="4.95947">
        <ele>182.4</ele>
        <time>2020-09-12T10:35:27Z</time>
      </trkpt>
      <trkpt lat="45.82374" lon="4.95955">
        <ele>182.5</ele>
        <time>2020-09-12T10:35:28Z</time>
      </trkpt>
      <trkpt lat="45.82378" lon="4.9596">
        <ele>182.7</ele>
        <time>2020-09-12T10:35:29Z</time>
      </trkpt>
      <trkpt lat="45.82383" lon="4.95965">
        <ele>182.8</ele>
        <time>2020-09-12T10:35:30Z</time>
      </trkpt>
      <trkpt lat="45.8239" lon="4.9597">
        <ele>183.1</ele>
        <time>2020-09-12T10:35:31Z</time>
      </trkpt>
      <trkpt lat="45.82394" lon="4.95975">
        <ele>183.3</ele>
        <time>2020-09-12T10:35:32Z</time>
      </trkpt>
      <trkpt lat="45.82399" lon="4.95981">
        <ele>183.5</ele>
        <time>2020-09-12T10:35:33Z</time>
      </trkpt>
      <trkpt lat="45.82404" lon="4.95987">
        <ele>183.8</ele>
        <time>2020-09-12T10:35:34Z</time>
      </trkpt>
      <trkpt lat="45.82409" lon="4.95992">
        <ele>184.2</ele>
        <time>2020-09-12T10:35:35Z</time>
      </trkpt>
      <trkpt lat="45.82414" lon="4.95997">
        <ele>184.6</ele>
        <time>2020-09-12T10:35:36Z</time>
      </trkpt>
      <trkpt lat="45.82418" lon="4.96003">
        <ele>184.9</ele>
        <time>2020-09-12T10:35:37Z</time>
      </trkpt>
      <trkpt lat="45.82423" lon="4.96008">
        <ele>184.8</ele>
        <time>2020-09-12T10:35:38Z</time>
      </trkpt>
      <trkpt lat="45.82428" lon="4.96011">
        <ele>184.8</ele>
        <time>2020-09-12T10:35:39Z</time>
      </trkpt>
      <trkpt lat="45.82432" lon="4.96016">
        <ele>184.7</ele>
        <time>2020-09-12T10:35:40Z</time>
      </trkpt>
      <trkpt lat="45.82436" lon="4.96021">
        <ele>184.7</ele>
        <time>2020-09-12T10:35:41Z</time>
      </trkpt>
      <trkpt lat="45.8244" lon="4.96026">
        <ele>184.6</ele>
        <time>2020-09-12T10:35:42Z</time>
      </trkpt>
      <trkpt lat="45.82444" lon="4.96033">
        <ele>184.5</ele>
        <time>2020-09-12T10:35:43Z</time>
      </trkpt>
      <trkpt lat="45.82447" lon="4.96039">
        <ele>184.4</ele>
        <time>2020-09-12T10:35:44Z</time>
      </trkpt>
      <trkpt lat="45.82451" lon="4.96046">
        <ele>184.2</ele>
        <time>2020-09-12T10:35:45Z</time>
      </trkpt>
      <trkpt lat="45.82454" lon="4.96053">
        <ele>184.2</ele>
        <time>2020-09-12T10:35:46Z</time>
      </trkpt>
      <trkpt lat="45.82457" lon="4.96059">
        <ele>184.1</ele>
        <time>2020-09-12T10:35:47Z</time>
      </trkpt>
      <trkpt lat="45.8246" lon="4.96065">
        <ele>184.2</ele>
        <time>2020-09-12T10:35:48Z</time>
      </trkpt>
      <trkpt lat="45.82463" lon="4.96071">
        <ele>184.3</ele>
        <time>2020-09-12T10:35:49Z</time>
      </trkpt>
      <trkpt lat="45.82467" lon="4.96076">
        <ele>184.4</ele>
        <time>2020-09-12T10:35:50Z</time>
      </trkpt>
      <trkpt lat="45.8247" lon="4.96083">
        <ele>184.7</ele>
        <time>2020-09-12T10:35:51Z</time>
      </trkpt>
      <trkpt lat="45.82473" lon="4.9609">
        <ele>183</ele>
        <time>2020-09-12T10:35:52Z</time>
      </trkpt>
      <trkpt lat="45.82476" lon="4.96096">
        <ele>183.1</ele>
        <time>2020-09-12T10:35:53Z</time>
      </trkpt>
      <trkpt lat="45.82479" lon="4.96102">
        <ele>183.1</ele>
        <time>2020-09-12T10:35:54Z</time>
      </trkpt>
      <trkpt lat="45.82482" lon="4.96108">
        <ele>183.1</ele>
        <time>2020-09-12T10:35:55Z</time>
      </trkpt>
      <trkpt lat="45.82484" lon="4.96114">
        <ele>183</ele>
        <time>2020-09-12T10:35:56Z</time>
      </trkpt>
      <trkpt lat="45.82489" lon="4.96119">
        <ele>183</ele>
        <time>2020-09-12T10:35:57Z</time>
      </trkpt>
      <trkpt lat="45.82492" lon="4.96125">
        <ele>183</ele>
        <time>2020-09-12T10:35:58Z</time>
      </trkpt>
      <trkpt lat="45.82497" lon="4.96135">
        <ele>183.1</ele>
        <time>2020-09-12T10:36:00Z</time>
      </trkpt>
      <trkpt lat="45.82501" lon="4.96141">
        <ele>186.9</ele>
        <time>2020-09-12T10:36:01Z</time>
      </trkpt>
      <trkpt lat="45.82505" lon="4.96148">
        <ele>186.7</ele>
        <time>2020-09-12T10:36:02Z</time>
      </trkpt>
      <trkpt lat="45.82507" lon="4.96155">
        <ele>186.4</ele>
        <time>2020-09-12T10:36:03Z</time>
      </trkpt>
      <trkpt lat="45.82512" lon="4.96166">
        <ele>186.2</ele>
        <time>2020-09-12T10:36:05Z</time>
      </trkpt>
      <trkpt lat="45.82511" lon="4.96177">
        <ele>185.8</ele>
        <time>2020-09-12T10:36:07Z</time>
      </trkpt>
      <trkpt lat="45.82508" lon="4.96187">
        <ele>185.9</ele>
        <time>2020-09-12T10:36:09Z</time>
      </trkpt>
      <trkpt lat="45.82505" lon="4.96192">
        <ele>185.9</ele>
        <time>2020-09-12T10:36:10Z</time>
      </trkpt>
      <trkpt lat="45.82503" lon="4.96199">
        <ele>185.8</ele>
        <time>2020-09-12T10:36:11Z</time>
      </trkpt>
      <trkpt lat="45.82502" lon="4.96207">
        <ele>185.8</ele>
        <time>2020-09-12T10:36:12Z</time>
      </trkpt>
      <trkpt lat="45.82503" lon="4.96216">
        <ele>185.6</ele>
        <time>2020-09-12T10:36:13Z</time>
      </trkpt>
      <trkpt lat="45.82503" lon="4.96225">
        <ele>185.2</ele>
        <time>2020-09-12T10:36:14Z</time>
      </trkpt>
      <trkpt lat="45.82503" lon="4.96233">
        <ele>184.8</ele>
        <time>2020-09-12T10:36:15Z</time>
      </trkpt>
      <trkpt lat="45.82503" lon="4.96242">
        <ele>184.1</ele>
        <time>2020-09-12T10:36:16Z</time>
      </trkpt>
      <trkpt lat="45.82502" lon="4.9625">
        <ele>183.2</ele>
        <time>2020-09-12T10:36:17Z</time>
      </trkpt>
      <trkpt lat="45.82501" lon="4.9626">
        <ele>183.8</ele>
        <time>2020-09-12T10:36:18Z</time>
      </trkpt>
      <trkpt lat="45.82499" lon="4.96272">
        <ele>181</ele>
        <time>2020-09-12T10:36:19Z</time>
      </trkpt>
      <trkpt lat="45.82496" lon="4.96282">
        <ele>180.6</ele>
        <time>2020-09-12T10:36:20Z</time>
      </trkpt>
      <trkpt lat="45.82494" lon="4.96295">
        <ele>180.4</ele>
        <time>2020-09-12T10:36:21Z</time>
      </trkpt>
      <trkpt lat="45.82491" lon="4.96308">
        <ele>180.4</ele>
        <time>2020-09-12T10:36:22Z</time>
      </trkpt>
      <trkpt lat="45.82488" lon="4.96322">
        <ele>180.7</ele>
        <time>2020-09-12T10:36:23Z</time>
      </trkpt>
      <trkpt lat="45.82488" lon="4.96337">
        <ele>180.3</ele>
        <time>2020-09-12T10:36:24Z</time>
      </trkpt>
      <trkpt lat="45.82486" lon="4.96352">
        <ele>179.5</ele>
        <time>2020-09-12T10:36:25Z</time>
      </trkpt>
      <trkpt lat="45.82486" lon="4.96367">
        <ele>178.9</ele>
        <time>2020-09-12T10:36:26Z</time>
      </trkpt>
      <trkpt lat="45.82486" lon="4.96381">
        <ele>178.4</ele>
        <time>2020-09-12T10:36:27Z</time>
      </trkpt>
      <trkpt lat="45.82485" lon="4.96395">
        <ele>178.2</ele>
        <time>2020-09-12T10:36:28Z</time>
      </trkpt>
      <trkpt lat="45.82486" lon="4.96408">
        <ele>178</ele>
        <time>2020-09-12T10:36:29Z</time>
      </trkpt>
      <trkpt lat="45.82486" lon="4.9642">
        <ele>176.9</ele>
        <time>2020-09-12T10:36:30Z</time>
      </trkpt>
      <trkpt lat="45.82486" lon="4.96433">
        <ele>176.5</ele>
        <time>2020-09-12T10:36:31Z</time>
      </trkpt>
      <trkpt lat="45.82486" lon="4.96445">
        <ele>176.1</ele>
        <time>2020-09-12T10:36:32Z</time>
      </trkpt>
      <trkpt lat="45.82486" lon="4.96456">
        <ele>175.7</ele>
        <time>2020-09-12T10:36:33Z</time>
      </trkpt>
      <trkpt lat="45.82487" lon="4.96468">
        <ele>175.4</ele>
        <time>2020-09-12T10:36:34Z</time>
      </trkpt>
      <trkpt lat="45.82488" lon="4.96478">
        <ele>175.1</ele>
        <time>2020-09-12T10:36:35Z</time>
      </trkpt>
      <trkpt lat="45.8249" lon="4.96488">
        <ele>174.7</ele>
        <time>2020-09-12T10:36:36Z</time>
      </trkpt>
      <trkpt lat="45.82492" lon="4.96499">
        <ele>174.4</ele>
        <time>2020-09-12T10:36:37Z</time>
      </trkpt>
      <trkpt lat="45.82495" lon="4.96508">
        <ele>174.1</ele>
        <time>2020-09-12T10:36:38Z</time>
      </trkpt>
      <trkpt lat="45.82497" lon="4.96518">
        <ele>174.2</ele>
        <time>2020-09-12T10:36:39Z</time>
      </trkpt>
      <trkpt lat="45.825" lon="4.96527">
        <ele>174.2</ele>
        <time>2020-09-12T10:36:40Z</time>
      </trkpt>
      <trkpt lat="45.82502" lon="4.96536">
        <ele>175.5</ele>
        <time>2020-09-12T10:36:41Z</time>
      </trkpt>
      <trkpt lat="45.82502" lon="4.96546">
        <ele>175.6</ele>
        <time>2020-09-12T10:36:42Z</time>
      </trkpt>
      <trkpt lat="45.82503" lon="4.96555">
        <ele>175.6</ele>
        <time>2020-09-12T10:36:43Z</time>
      </trkpt>
      <trkpt lat="45.82504" lon="4.96564">
        <ele>175.5</ele>
        <time>2020-09-12T10:36:44Z</time>
      </trkpt>
      <trkpt lat="45.82504" lon="4.96573">
        <ele>175.4</ele>
        <time>2020-09-12T10:36:45Z</time>
      </trkpt>
      <trkpt lat="45.82505" lon="4.96581">
        <ele>175.2</ele>
        <time>2020-09-12T10:36:46Z</time>
      </trkpt>
      <trkpt lat="45.82507" lon="4.96591">
        <ele>175.3</ele>
        <time>2020-09-12T10:36:47Z</time>
      </trkpt>
      <trkpt lat="45.82509" lon="4.96599">
        <ele>175.4</ele>
        <time>2020-09-12T10:36:48Z</time>
      </trkpt>
      <trkpt lat="45.8251" lon="4.96607">
        <ele>175.5</ele>
        <time>2020-09-12T10:36:49Z</time>
      </trkpt>
      <trkpt lat="45.82512" lon="4.96615">
        <ele>175.5</ele>
        <time>2020-09-12T10:36:50Z</time>
      </trkpt>
      <trkpt lat="45.82514" lon="4.96623">
        <ele>175.5</ele>
        <time>2020-09-12T10:36:51Z</time>
      </trkpt>
      <trkpt lat="45.82517" lon="4.96631">
        <ele>175.5</ele>
        <time>2020-09-12T10:36:52Z</time>
      </trkpt>
      <trkpt lat="45.82519" lon="4.9664">
        <ele>175.5</ele>
        <time>2020-09-12T10:36:53Z</time>
      </trkpt>
      <trkpt lat="45.8252" lon="4.96648">
        <ele>175.5</ele>
        <time>2020-09-12T10:36:54Z</time>
      </trkpt>
      <trkpt lat="45.82522" lon="4.96656">
        <ele>175.5</ele>
        <time>2020-09-12T10:36:55Z</time>
      </trkpt>
      <trkpt lat="45.82523" lon="4.96664">
        <ele>175.4</ele>
        <time>2020-09-12T10:36:56Z</time>
      </trkpt>
      <trkpt lat="45.82525" lon="4.96673">
        <ele>175.7</ele>
        <time>2020-09-12T10:36:57Z</time>
      </trkpt>
      <trkpt lat="45.82527" lon="4.9668">
        <ele>175.7</ele>
        <time>2020-09-12T10:36:58Z</time>
      </trkpt>
      <trkpt lat="45.82529" lon="4.96695">
        <ele>175.9</ele>
        <time>2020-09-12T10:37:00Z</time>
      </trkpt>
      <trkpt lat="45.8253" lon="4.96702">
        <ele>175.9</ele>
        <time>2020-09-12T10:37:01Z</time>
      </trkpt>
      <trkpt lat="45.82531" lon="4.9671">
        <ele>176</ele>
        <time>2020-09-12T10:37:02Z</time>
      </trkpt>
      <trkpt lat="45.82533" lon="4.96718">
        <ele>176.1</ele>
        <time>2020-09-12T10:37:03Z</time>
      </trkpt>
      <trkpt lat="45.82534" lon="4.96727">
        <ele>176.1</ele>
        <time>2020-09-12T10:37:04Z</time>
      </trkpt>
      <trkpt lat="45.82536" lon="4.96734">
        <ele>176.2</ele>
        <time>2020-09-12T10:37:05Z</time>
      </trkpt>
      <trkpt lat="45.82538" lon="4.96742">
        <ele>176.2</ele>
        <time>2020-09-12T10:37:06Z</time>
      </trkpt>
      <trkpt lat="45.82539" lon="4.96749">
        <ele>176.2</ele>
        <time>2020-09-12T10:37:07Z</time>
      </trkpt>
      <trkpt lat="45.82541" lon="4.96755">
        <ele>176.8</ele>
        <time>2020-09-12T10:37:08Z</time>
      </trkpt>
      <trkpt lat="45.82547" lon="4.96767">
        <ele>176.8</ele>
        <time>2020-09-12T10:37:10Z</time>
      </trkpt>
      <trkpt lat="45.8255" lon="4.96771">
        <ele>176.8</ele>
        <time>2020-09-12T10:37:11Z</time>
      </trkpt>
      <trkpt lat="45.82555" lon="4.96773">
        <ele>176.8</ele>
        <time>2020-09-12T10:37:12Z</time>
      </trkpt>
      <trkpt lat="45.8256" lon="4.96775">
        <ele>176.8</ele>
        <time>2020-09-12T10:37:13Z</time>
      </trkpt>
      <trkpt lat="45.82566" lon="4.96774">
        <ele>176.7</ele>
        <time>2020-09-12T10:37:14Z</time>
      </trkpt>
      <trkpt lat="45.82571" lon="4.96773">
        <ele>176.6</ele>
        <time>2020-09-12T10:37:15Z</time>
      </trkpt>
      <trkpt lat="45.82581" lon="4.96774">
        <ele>176.6</ele>
        <time>2020-09-12T10:37:17Z</time>
      </trkpt>
      <trkpt lat="45.82586" lon="4.96776">
        <ele>176.5</ele>
        <time>2020-09-12T10:37:18Z</time>
      </trkpt>
      <trkpt lat="45.82592" lon="4.96779">
        <ele>176.6</ele>
        <time>2020-09-12T10:37:19Z</time>
      </trkpt>
      <trkpt lat="45.82597" lon="4.96781">
        <ele>176.6</ele>
        <time>2020-09-12T10:37:20Z</time>
      </trkpt>
      <trkpt lat="45.82603" lon="4.96783">
        <ele>176.7</ele>
        <time>2020-09-12T10:37:21Z</time>
      </trkpt>
      <trkpt lat="45.82607" lon="4.96785">
        <ele>176.7</ele>
        <time>2020-09-12T10:37:22Z</time>
      </trkpt>
      <trkpt lat="45.82613" lon="4.96788">
        <ele>176.7</ele>
        <time>2020-09-12T10:37:23Z</time>
      </trkpt>
      <trkpt lat="45.82617" lon="4.9679">
        <ele>176.7</ele>
        <time>2020-09-12T10:37:24Z</time>
      </trkpt>
      <trkpt lat="45.82623" lon="4.96792">
        <ele>176.7</ele>
        <time>2020-09-12T10:37:25Z</time>
      </trkpt>
      <trkpt lat="45.82628" lon="4.96796">
        <ele>176.7</ele>
        <time>2020-09-12T10:37:26Z</time>
      </trkpt>
      <trkpt lat="45.82632" lon="4.96798">
        <ele>176.7</ele>
        <time>2020-09-12T10:37:27Z</time>
      </trkpt>
      <trkpt lat="45.82638" lon="4.96801">
        <ele>176.7</ele>
        <time>2020-09-12T10:37:28Z</time>
      </trkpt>
      <trkpt lat="45.82642" lon="4.96806">
        <ele>176.7</ele>
        <time>2020-09-12T10:37:29Z</time>
      </trkpt>
      <trkpt lat="45.82645" lon="4.9681">
        <ele>176.6</ele>
        <time>2020-09-12T10:37:30Z</time>
      </trkpt>
      <trkpt lat="45.82649" lon="4.9682">
        <ele>176.5</ele>
        <time>2020-09-12T10:37:32Z</time>
      </trkpt>
      <trkpt lat="45.8265" lon="4.96828">
        <ele>176.4</ele>
        <time>2020-09-12T10:37:34Z</time>
      </trkpt>
      <trkpt lat="45.82653" lon="4.96834">
        <ele>176.5</ele>
        <time>2020-09-12T10:37:37Z</time>
      </trkpt>
      <trkpt lat="45.82659" lon="4.96835">
        <ele>176.3</ele>
        <time>2020-09-12T10:37:39Z</time>
      </trkpt>
      <trkpt lat="45.82665" lon="4.96833">
        <ele>176.1</ele>
        <time>2020-09-12T10:37:41Z</time>
      </trkpt>
      <trkpt lat="45.82671" lon="4.96831">
        <ele>176.3</ele>
        <time>2020-09-12T10:37:43Z</time>
      </trkpt>
      <trkpt lat="45.82679" lon="4.96829">
        <ele>176.7</ele>
        <time>2020-09-12T10:37:45Z</time>
      </trkpt>
      <trkpt lat="45.82688" lon="4.96827">
        <ele>177</ele>
        <time>2020-09-12T10:37:47Z</time>
      </trkpt>
      <trkpt lat="45.82693" lon="4.96824">
        <ele>177.2</ele>
        <time>2020-09-12T10:37:48Z</time>
      </trkpt>
      <trkpt lat="45.82701" lon="4.96819">
        <ele>177.4</ele>
        <time>2020-09-12T10:37:50Z</time>
      </trkpt>
      <trkpt lat="45.8271" lon="4.96817">
        <ele>177.6</ele>
        <time>2020-09-12T10:37:52Z</time>
      </trkpt>
      <trkpt lat="45.82716" lon="4.96816">
        <ele>177.6</ele>
        <time>2020-09-12T10:37:53Z</time>
      </trkpt>
      <trkpt lat="45.8272" lon="4.96815">
        <ele>177.7</ele>
        <time>2020-09-12T10:37:54Z</time>
      </trkpt>
      <trkpt lat="45.82729" lon="4.96813">
        <ele>177.8</ele>
        <time>2020-09-12T10:37:56Z</time>
      </trkpt>
      <trkpt lat="45.82734" lon="4.96813">
        <ele>177.8</ele>
        <time>2020-09-12T10:37:57Z</time>
      </trkpt>
      <trkpt lat="45.82739" lon="4.96814">
        <ele>177.9</ele>
        <time>2020-09-12T10:37:58Z</time>
      </trkpt>
      <trkpt lat="45.82743" lon="4.96817">
        <ele>177.9</ele>
        <time>2020-09-12T10:37:59Z</time>
      </trkpt>
      <trkpt lat="45.82747" lon="4.96821">
        <ele>177.9</ele>
        <time>2020-09-12T10:38:00Z</time>
      </trkpt>
      <trkpt lat="45.8275" lon="4.96832">
        <ele>178</ele>
        <time>2020-09-12T10:38:02Z</time>
      </trkpt>
      <trkpt lat="45.82752" lon="4.96839">
        <ele>178.1</ele>
        <time>2020-09-12T10:38:03Z</time>
      </trkpt>
      <trkpt lat="45.82753" lon="4.96845">
        <ele>178.2</ele>
        <time>2020-09-12T10:38:04Z</time>
      </trkpt>
      <trkpt lat="45.82754" lon="4.96853">
        <ele>178.3</ele>
        <time>2020-09-12T10:38:05Z</time>
      </trkpt>
      <trkpt lat="45.82755" lon="4.96862">
        <ele>178.3</ele>
        <time>2020-09-12T10:38:06Z</time>
      </trkpt>
      <trkpt lat="45.82756" lon="4.96869">
        <ele>178.3</ele>
        <time>2020-09-12T10:38:07Z</time>
      </trkpt>
      <trkpt lat="45.82757" lon="4.96876">
        <ele>178.3</ele>
        <time>2020-09-12T10:38:08Z</time>
      </trkpt>
      <trkpt lat="45.82758" lon="4.96883">
        <ele>178.3</ele>
        <time>2020-09-12T10:38:09Z</time>
      </trkpt>
      <trkpt lat="45.82761" lon="4.9689">
        <ele>178.3</ele>
        <time>2020-09-12T10:38:10Z</time>
      </trkpt>
      <trkpt lat="45.82762" lon="4.96897">
        <ele>178.3</ele>
        <time>2020-09-12T10:38:11Z</time>
      </trkpt>
      <trkpt lat="45.82764" lon="4.96905">
        <ele>178.2</ele>
        <time>2020-09-12T10:38:12Z</time>
      </trkpt>
      <trkpt lat="45.82765" lon="4.96912">
        <ele>178.2</ele>
        <time>2020-09-12T10:38:13Z</time>
      </trkpt>
      <trkpt lat="45.82767" lon="4.96919">
        <ele>178.2</ele>
        <time>2020-09-12T10:38:14Z</time>
      </trkpt>
      <trkpt lat="45.82769" lon="4.96926">
        <ele>178.2</ele>
        <time>2020-09-12T10:38:15Z</time>
      </trkpt>
      <trkpt lat="45.82771" lon="4.96933">
        <ele>178.3</ele>
        <time>2020-09-12T10:38:16Z</time>
      </trkpt>
      <trkpt lat="45.82772" lon="4.96941">
        <ele>178.3</ele>
        <time>2020-09-12T10:38:17Z</time>
      </trkpt>
      <trkpt lat="45.82775" lon="4.96948">
        <ele>178.4</ele>
        <time>2020-09-12T10:38:18Z</time>
      </trkpt>
      <trkpt lat="45.82777" lon="4.96955">
        <ele>178.4</ele>
        <time>2020-09-12T10:38:19Z</time>
      </trkpt>
      <trkpt lat="45.82779" lon="4.96961">
        <ele>178.4</ele>
        <time>2020-09-12T10:38:20Z</time>
      </trkpt>
      <trkpt lat="45.82781" lon="4.96968">
        <ele>178.5</ele>
        <time>2020-09-12T10:38:21Z</time>
      </trkpt>
      <trkpt lat="45.82784" lon="4.96981">
        <ele>178.5</ele>
        <time>2020-09-12T10:38:23Z</time>
      </trkpt>
      <trkpt lat="45.82785" lon="4.96988">
        <ele>178.6</ele>
        <time>2020-09-12T10:38:24Z</time>
      </trkpt>
      <trkpt lat="45.82786" lon="4.96995">
        <ele>178.6</ele>
        <time>2020-09-12T10:38:25Z</time>
      </trkpt>
      <trkpt lat="45.82788" lon="4.97003">
        <ele>178.6</ele>
        <time>2020-09-12T10:38:26Z</time>
      </trkpt>
      <trkpt lat="45.8279" lon="4.97009">
        <ele>178.6</ele>
        <time>2020-09-12T10:38:27Z</time>
      </trkpt>
      <trkpt lat="45.82791" lon="4.97016">
        <ele>178.6</ele>
        <time>2020-09-12T10:38:28Z</time>
      </trkpt>
      <trkpt lat="45.82793" lon="4.97023">
        <ele>178.6</ele>
        <time>2020-09-12T10:38:29Z</time>
      </trkpt>
      <trkpt lat="45.82795" lon="4.97032">
        <ele>178.6</ele>
        <time>2020-09-12T10:38:30Z</time>
      </trkpt>
      <trkpt lat="45.82797" lon="4.97039">
        <ele>178.6</ele>
        <time>2020-09-12T10:38:31Z</time>
      </trkpt>
      <trkpt lat="45.82798" lon="4.97046">
        <ele>178.5</ele>
        <time>2020-09-12T10:38:32Z</time>
      </trkpt>
      <trkpt lat="45.828" lon="4.97054">
        <ele>178.5</ele>
        <time>2020-09-12T10:38:33Z</time>
      </trkpt>
      <trkpt lat="45.82801" lon="4.97061">
        <ele>178.4</ele>
        <time>2020-09-12T10:38:34Z</time>
      </trkpt>
      <trkpt lat="45.82803" lon="4.97069">
        <ele>178.4</ele>
        <time>2020-09-12T10:38:35Z</time>
      </trkpt>
      <trkpt lat="45.82805" lon="4.97076">
        <ele>178.3</ele>
        <time>2020-09-12T10:38:36Z</time>
      </trkpt>
      <trkpt lat="45.82806" lon="4.97084">
        <ele>178.3</ele>
        <time>2020-09-12T10:38:37Z</time>
      </trkpt>
      <trkpt lat="45.82809" lon="4.97093">
        <ele>178.3</ele>
        <time>2020-09-12T10:38:38Z</time>
      </trkpt>
      <trkpt lat="45.8281" lon="4.971">
        <ele>178.3</ele>
        <time>2020-09-12T10:38:39Z</time>
      </trkpt>
      <trkpt lat="45.82812" lon="4.97108">
        <ele>178.4</ele>
        <time>2020-09-12T10:38:40Z</time>
      </trkpt>
      <trkpt lat="45.82815" lon="4.97115">
        <ele>178.4</ele>
        <time>2020-09-12T10:38:41Z</time>
      </trkpt>
      <trkpt lat="45.82816" lon="4.97122">
        <ele>178.5</ele>
        <time>2020-09-12T10:38:42Z</time>
      </trkpt>
      <trkpt lat="45.82818" lon="4.97129">
        <ele>178.5</ele>
        <time>2020-09-12T10:38:43Z</time>
      </trkpt>
      <trkpt lat="45.8282" lon="4.97137">
        <ele>178.6</ele>
        <time>2020-09-12T10:38:44Z</time>
      </trkpt>
      <trkpt lat="45.82821" lon="4.97144">
        <ele>178.7</ele>
        <time>2020-09-12T10:38:45Z</time>
      </trkpt>
      <trkpt lat="45.82825" lon="4.97155">
        <ele>178.8</ele>
        <time>2020-09-12T10:38:47Z</time>
      </trkpt>
      <trkpt lat="45.82827" lon="4.97162">
        <ele>178.9</ele>
        <time>2020-09-12T10:38:48Z</time>
      </trkpt>
      <trkpt lat="45.82829" lon="4.97169">
        <ele>179</ele>
        <time>2020-09-12T10:38:49Z</time>
      </trkpt>
      <trkpt lat="45.8283" lon="4.97177">
        <ele>179</ele>
        <time>2020-09-12T10:38:50Z</time>
      </trkpt>
      <trkpt lat="45.82832" lon="4.97184">
        <ele>179.1</ele>
        <time>2020-09-12T10:38:51Z</time>
      </trkpt>
      <trkpt lat="45.82833" lon="4.97191">
        <ele>179.1</ele>
        <time>2020-09-12T10:38:52Z</time>
      </trkpt>
      <trkpt lat="45.82835" lon="4.97199">
        <ele>179.3</ele>
        <time>2020-09-12T10:38:53Z</time>
      </trkpt>
      <trkpt lat="45.82838" lon="4.97207">
        <ele>179.3</ele>
        <time>2020-09-12T10:38:54Z</time>
      </trkpt>
      <trkpt lat="45.8284" lon="4.97214">
        <ele>179.4</ele>
        <time>2020-09-12T10:38:55Z</time>
      </trkpt>
      <trkpt lat="45.82845" lon="4.97226">
        <ele>179.5</ele>
        <time>2020-09-12T10:38:57Z</time>
      </trkpt>
      <trkpt lat="45.82848" lon="4.97232">
        <ele>179.6</ele>
        <time>2020-09-12T10:38:58Z</time>
      </trkpt>
      <trkpt lat="45.82853" lon="4.97237">
        <ele>179.6</ele>
        <time>2020-09-12T10:38:59Z</time>
      </trkpt>
      <trkpt lat="45.82858" lon="4.97241">
        <ele>179.6</ele>
        <time>2020-09-12T10:39:00Z</time>
      </trkpt>
      <trkpt lat="45.82863" lon="4.97247">
        <ele>179.6</ele>
        <time>2020-09-12T10:39:01Z</time>
      </trkpt>
      <trkpt lat="45.82868" lon="4.97252">
        <ele>179.4</ele>
        <time>2020-09-12T10:39:02Z</time>
      </trkpt>
      <trkpt lat="45.82873" lon="4.97257">
        <ele>179.3</ele>
        <time>2020-09-12T10:39:03Z</time>
      </trkpt>
      <trkpt lat="45.82877" lon="4.97262">
        <ele>179.3</ele>
        <time>2020-09-12T10:39:04Z</time>
      </trkpt>
      <trkpt lat="45.82883" lon="4.97266">
        <ele>179.3</ele>
        <time>2020-09-12T10:39:05Z</time>
      </trkpt>
      <trkpt lat="45.82887" lon="4.97271">
        <ele>179.3</ele>
        <time>2020-09-12T10:39:06Z</time>
      </trkpt>
      <trkpt lat="45.82893" lon="4.97277">
        <ele>179.2</ele>
        <time>2020-09-12T10:39:07Z</time>
      </trkpt>
      <trkpt lat="45.82896" lon="4.97282">
        <ele>179.1</ele>
        <time>2020-09-12T10:39:08Z</time>
      </trkpt>
      <trkpt lat="45.82903" lon="4.97287">
        <ele>179.1</ele>
        <time>2020-09-12T10:39:09Z</time>
      </trkpt>
      <trkpt lat="45.82908" lon="4.97291">
        <ele>179</ele>
        <time>2020-09-12T10:39:10Z</time>
      </trkpt>
      <trkpt lat="45.82913" lon="4.97296">
        <ele>178.9</ele>
        <time>2020-09-12T10:39:11Z</time>
      </trkpt>
      <trkpt lat="45.82918" lon="4.97301">
        <ele>179.8</ele>
        <time>2020-09-12T10:39:12Z</time>
      </trkpt>
      <trkpt lat="45.82922" lon="4.97306">
        <ele>179.7</ele>
        <time>2020-09-12T10:39:13Z</time>
      </trkpt>
      <trkpt lat="45.82926" lon="4.97311">
        <ele>179.6</ele>
        <time>2020-09-12T10:39:14Z</time>
      </trkpt>
      <trkpt lat="45.8293" lon="4.97317">
        <ele>179.5</ele>
        <time>2020-09-12T10:39:15Z</time>
      </trkpt>
      <trkpt lat="45.82935" lon="4.97325">
        <ele>179.5</ele>
        <time>2020-09-12T10:39:16Z</time>
      </trkpt>
      <trkpt lat="45.82937" lon="4.97332">
        <ele>179.5</ele>
        <time>2020-09-12T10:39:17Z</time>
      </trkpt>
      <trkpt lat="45.8294" lon="4.9734">
        <ele>179.8</ele>
        <time>2020-09-12T10:39:18Z</time>
      </trkpt>
      <trkpt lat="45.82943" lon="4.97347">
        <ele>180.1</ele>
        <time>2020-09-12T10:39:19Z</time>
      </trkpt>
      <trkpt lat="45.82946" lon="4.97354">
        <ele>180.3</ele>
        <time>2020-09-12T10:39:20Z</time>
      </trkpt>
      <trkpt lat="45.82948" lon="4.97362">
        <ele>180.4</ele>
        <time>2020-09-12T10:39:21Z</time>
      </trkpt>
      <trkpt lat="45.82951" lon="4.97369">
        <ele>180.5</ele>
        <time>2020-09-12T10:39:22Z</time>
      </trkpt>
      <trkpt lat="45.82953" lon="4.97377">
        <ele>180.6</ele>
        <time>2020-09-12T10:39:23Z</time>
      </trkpt>
      <trkpt lat="45.82956" lon="4.97386">
        <ele>180.7</ele>
        <time>2020-09-12T10:39:24Z</time>
      </trkpt>
      <trkpt lat="45.82959" lon="4.97393">
        <ele>180.8</ele>
        <time>2020-09-12T10:39:25Z</time>
      </trkpt>
      <trkpt lat="45.8296" lon="4.974">
        <ele>180.9</ele>
        <time>2020-09-12T10:39:26Z</time>
      </trkpt>
      <trkpt lat="45.82962" lon="4.97407">
        <ele>181</ele>
        <time>2020-09-12T10:39:27Z</time>
      </trkpt>
      <trkpt lat="45.82964" lon="4.97415">
        <ele>181.1</ele>
        <time>2020-09-12T10:39:28Z</time>
      </trkpt>
      <trkpt lat="45.82967" lon="4.97422">
        <ele>181.5</ele>
        <time>2020-09-12T10:39:29Z</time>
      </trkpt>
      <trkpt lat="45.82968" lon="4.97429">
        <ele>181.5</ele>
        <time>2020-09-12T10:39:30Z</time>
      </trkpt>
      <trkpt lat="45.8297" lon="4.97437">
        <ele>181.6</ele>
        <time>2020-09-12T10:39:31Z</time>
      </trkpt>
      <trkpt lat="45.82973" lon="4.97444">
        <ele>181.6</ele>
        <time>2020-09-12T10:39:32Z</time>
      </trkpt>
      <trkpt lat="45.82974" lon="4.9745">
        <ele>181.6</ele>
        <time>2020-09-12T10:39:33Z</time>
      </trkpt>
      <trkpt lat="45.82976" lon="4.97456">
        <ele>181.7</ele>
        <time>2020-09-12T10:39:34Z</time>
      </trkpt>
      <trkpt lat="45.82981" lon="4.97466">
        <ele>181.9</ele>
        <time>2020-09-12T10:39:36Z</time>
      </trkpt>
      <trkpt lat="45.82985" lon="4.97476">
        <ele>182.2</ele>
        <time>2020-09-12T10:39:38Z</time>
      </trkpt>
      <trkpt lat="45.82987" lon="4.97486">
        <ele>182.5</ele>
        <time>2020-09-12T10:39:40Z</time>
      </trkpt>
      <trkpt lat="45.82991" lon="4.97497">
        <ele>183.1</ele>
        <time>2020-09-12T10:39:42Z</time>
      </trkpt>
      <trkpt lat="45.82997" lon="4.97506">
        <ele>183.3</ele>
        <time>2020-09-12T10:39:44Z</time>
      </trkpt>
      <trkpt lat="45.83001" lon="4.97516">
        <ele>184.3</ele>
        <time>2020-09-12T10:39:46Z</time>
      </trkpt>
      <trkpt lat="45.83007" lon="4.97526">
        <ele>184.3</ele>
        <time>2020-09-12T10:39:48Z</time>
      </trkpt>
      <trkpt lat="45.83014" lon="4.97535">
        <ele>184.3</ele>
        <time>2020-09-12T10:39:50Z</time>
      </trkpt>
      <trkpt lat="45.83016" lon="4.97541">
        <ele>184.3</ele>
        <time>2020-09-12T10:39:51Z</time>
      </trkpt>
      <trkpt lat="45.83022" lon="4.97551">
        <ele>184.2</ele>
        <time>2020-09-12T10:39:53Z</time>
      </trkpt>
      <trkpt lat="45.83024" lon="4.97557">
        <ele>184.2</ele>
        <time>2020-09-12T10:39:54Z</time>
      </trkpt>
      <trkpt lat="45.83027" lon="4.97562">
        <ele>184.2</ele>
        <time>2020-09-12T10:39:55Z</time>
      </trkpt>
      <trkpt lat="45.8303" lon="4.97568">
        <ele>184.2</ele>
        <time>2020-09-12T10:39:56Z</time>
      </trkpt>
      <trkpt lat="45.83033" lon="4.97573">
        <ele>184.2</ele>
        <time>2020-09-12T10:39:57Z</time>
      </trkpt>
      <trkpt lat="45.83038" lon="4.97582">
        <ele>184.3</ele>
        <time>2020-09-12T10:39:59Z</time>
      </trkpt>
      <trkpt lat="45.83043" lon="4.97591">
        <ele>183.7</ele>
        <time>2020-09-12T10:40:01Z</time>
      </trkpt>
      <trkpt lat="45.83049" lon="4.97601">
        <ele>183.9</ele>
        <time>2020-09-12T10:40:03Z</time>
      </trkpt>
      <trkpt lat="45.83053" lon="4.97613">
        <ele>183.9</ele>
        <time>2020-09-12T10:40:05Z</time>
      </trkpt>
      <trkpt lat="45.83056" lon="4.97619">
        <ele>183.9</ele>
        <time>2020-09-12T10:40:06Z</time>
      </trkpt>
      <trkpt lat="45.83058" lon="4.97628">
        <ele>183.9</ele>
        <time>2020-09-12T10:40:08Z</time>
      </trkpt>
      <trkpt lat="45.83063" lon="4.97636">
        <ele>183.9</ele>
        <time>2020-09-12T10:40:11Z</time>
      </trkpt>
      <trkpt lat="45.83069" lon="4.97638">
        <ele>184</ele>
        <time>2020-09-12T10:40:13Z</time>
      </trkpt>
      <trkpt lat="45.83074" lon="4.97635">
        <ele>184.1</ele>
        <time>2020-09-12T10:40:15Z</time>
      </trkpt>
      <trkpt lat="45.8308" lon="4.9763">
        <ele>184.2</ele>
        <time>2020-09-12T10:40:17Z</time>
      </trkpt>
      <trkpt lat="45.83086" lon="4.97626">
        <ele>186.1</ele>
        <time>2020-09-12T10:40:19Z</time>
      </trkpt>
      <trkpt lat="45.83091" lon="4.97619">
        <ele>186.2</ele>
        <time>2020-09-12T10:40:21Z</time>
      </trkpt>
      <trkpt lat="45.83096" lon="4.97611">
        <ele>186.2</ele>
        <time>2020-09-12T10:40:23Z</time>
      </trkpt>
      <trkpt lat="45.831" lon="4.97603">
        <ele>186.3</ele>
        <time>2020-09-12T10:40:25Z</time>
      </trkpt>
      <trkpt lat="45.83105" lon="4.97594">
        <ele>186.3</ele>
        <time>2020-09-12T10:40:27Z</time>
      </trkpt>
      <trkpt lat="45.83109" lon="4.97586">
        <ele>186.3</ele>
        <time>2020-09-12T10:40:29Z</time>
      </trkpt>
      <trkpt lat="45.83114" lon="4.97578">
        <ele>186.7</ele>
        <time>2020-09-12T10:40:31Z</time>
      </trkpt>
      <trkpt lat="45.83119" lon="4.9757">
        <ele>186.8</ele>
        <time>2020-09-12T10:40:33Z</time>
      </trkpt>
      <trkpt lat="45.83123" lon="4.97563">
        <ele>186.9</ele>
        <time>2020-09-12T10:40:35Z</time>
      </trkpt>
      <trkpt lat="45.83127" lon="4.97554">
        <ele>186.9</ele>
        <time>2020-09-12T10:40:37Z</time>
      </trkpt>
      <trkpt lat="45.83133" lon="4.97545">
        <ele>187</ele>
        <time>2020-09-12T10:40:39Z</time>
      </trkpt>
      <trkpt lat="45.83139" lon="4.97538">
        <ele>187.1</ele>
        <time>2020-09-12T10:40:41Z</time>
      </trkpt>
      <trkpt lat="45.83146" lon="4.97532">
        <ele>187.2</ele>
        <time>2020-09-12T10:40:43Z</time>
      </trkpt>
      <trkpt lat="45.83155" lon="4.97528">
        <ele>187.3</ele>
        <time>2020-09-12T10:40:45Z</time>
      </trkpt>
      <trkpt lat="45.83162" lon="4.97524">
        <ele>187.4</ele>
        <time>2020-09-12T10:40:47Z</time>
      </trkpt>
      <trkpt lat="45.8317" lon="4.97521">
        <ele>188</ele>
        <time>2020-09-12T10:40:49Z</time>
      </trkpt>
      <trkpt lat="45.83179" lon="4.97517">
        <ele>188</ele>
        <time>2020-09-12T10:40:51Z</time>
      </trkpt>
      <trkpt lat="45.83189" lon="4.97514">
        <ele>188</ele>
        <time>2020-09-12T10:40:53Z</time>
      </trkpt>
      <trkpt lat="45.83193" lon="4.97512">
        <ele>188.1</ele>
        <time>2020-09-12T10:40:54Z</time>
      </trkpt>
      <trkpt lat="45.83198" lon="4.9751">
        <ele>188.1</ele>
        <time>2020-09-12T10:40:55Z</time>
      </trkpt>
      <trkpt lat="45.83206" lon="4.97507">
        <ele>188.2</ele>
        <time>2020-09-12T10:40:57Z</time>
      </trkpt>
      <trkpt lat="45.8321" lon="4.97504">
        <ele>188.2</ele>
        <time>2020-09-12T10:40:58Z</time>
      </trkpt>
      <trkpt lat="45.83215" lon="4.97502">
        <ele>188.2</ele>
        <time>2020-09-12T10:40:59Z</time>
      </trkpt>
      <trkpt lat="45.83222" lon="4.97497">
        <ele>188.9</ele>
        <time>2020-09-12T10:41:01Z</time>
      </trkpt>
      <trkpt lat="45.83229" lon="4.97492">
        <ele>189</ele>
        <time>2020-09-12T10:41:03Z</time>
      </trkpt>
      <trkpt lat="45.83238" lon="4.97486">
        <ele>189</ele>
        <time>2020-09-12T10:41:05Z</time>
      </trkpt>
      <trkpt lat="45.83242" lon="4.97483">
        <ele>189</ele>
        <time>2020-09-12T10:41:06Z</time>
      </trkpt>
      <trkpt lat="45.83251" lon="4.97478">
        <ele>190.2</ele>
        <time>2020-09-12T10:41:08Z</time>
      </trkpt>
      <trkpt lat="45.8326" lon="4.97472">
        <ele>190.5</ele>
        <time>2020-09-12T10:41:10Z</time>
      </trkpt>
      <trkpt lat="45.83268" lon="4.97467">
        <ele>190.7</ele>
        <time>2020-09-12T10:41:12Z</time>
      </trkpt>
      <trkpt lat="45.83273" lon="4.97465">
        <ele>190.8</ele>
        <time>2020-09-12T10:41:13Z</time>
      </trkpt>
      <trkpt lat="45.83277" lon="4.97464">
        <ele>190.9</ele>
        <time>2020-09-12T10:41:14Z</time>
      </trkpt>
      <trkpt lat="45.83282" lon="4.97466">
        <ele>191</ele>
        <time>2020-09-12T10:41:15Z</time>
      </trkpt>
      <trkpt lat="45.83287" lon="4.9747">
        <ele>191</ele>
        <time>2020-09-12T10:41:16Z</time>
      </trkpt>
      <trkpt lat="45.8329" lon="4.97474">
        <ele>191.1</ele>
        <time>2020-09-12T10:41:17Z</time>
      </trkpt>
      <trkpt lat="45.83293" lon="4.97479">
        <ele>191.1</ele>
        <time>2020-09-12T10:41:18Z</time>
      </trkpt>
      <trkpt lat="45.833" lon="4.97489">
        <ele>191.2</ele>
        <time>2020-09-12T10:41:20Z</time>
      </trkpt>
      <trkpt lat="45.83305" lon="4.97501">
        <ele>190.7</ele>
        <time>2020-09-12T10:41:22Z</time>
      </trkpt>
      <trkpt lat="45.83311" lon="4.9751">
        <ele>190.9</ele>
        <time>2020-09-12T10:41:24Z</time>
      </trkpt>
      <trkpt lat="45.83314" lon="4.97515">
        <ele>190.9</ele>
        <time>2020-09-12T10:41:25Z</time>
      </trkpt>
      <trkpt lat="45.83319" lon="4.97525">
        <ele>190.9</ele>
        <time>2020-09-12T10:41:27Z</time>
      </trkpt>
      <trkpt lat="45.83324" lon="4.97536">
        <ele>190.8</ele>
        <time>2020-09-12T10:41:29Z</time>
      </trkpt>
      <trkpt lat="45.83328" lon="4.97547">
        <ele>190.9</ele>
        <time>2020-09-12T10:41:31Z</time>
      </trkpt>
      <trkpt lat="45.83331" lon="4.97558">
        <ele>191</ele>
        <time>2020-09-12T10:41:33Z</time>
      </trkpt>
      <trkpt lat="45.83334" lon="4.97565">
        <ele>193.6</ele>
        <time>2020-09-12T10:41:34Z</time>
      </trkpt>
      <trkpt lat="45.83337" lon="4.97575">
        <ele>193</ele>
        <time>2020-09-12T10:41:36Z</time>
      </trkpt>
      <trkpt lat="45.8334" lon="4.97587">
        <ele>192.8</ele>
        <time>2020-09-12T10:41:38Z</time>
      </trkpt>
      <trkpt lat="45.83342" lon="4.97593">
        <ele>193.2</ele>
        <time>2020-09-12T10:41:39Z</time>
      </trkpt>
      <trkpt lat="45.83345" lon="4.97599">
        <ele>193.6</ele>
        <time>2020-09-12T10:41:40Z</time>
      </trkpt>
      <trkpt lat="45.83345" lon="4.97611">
        <ele>194</ele>
        <time>2020-09-12T10:41:42Z</time>
      </trkpt>
      <trkpt lat="45.83346" lon="4.97621">
        <ele>194.2</ele>
        <time>2020-09-12T10:41:43Z</time>
      </trkpt>
      <trkpt lat="45.83347" lon="4.97627">
        <ele>194.3</ele>
        <time>2020-09-12T10:41:44Z</time>
      </trkpt>
      <trkpt lat="45.83352" lon="4.97638">
        <ele>194.4</ele>
        <time>2020-09-12T10:41:46Z</time>
      </trkpt>
      <trkpt lat="45.83354" lon="4.97649">
        <ele>194.4</ele>
        <time>2020-09-12T10:41:48Z</time>
      </trkpt>
      <trkpt lat="45.83358" lon="4.97658">
        <ele>194.4</ele>
        <time>2020-09-12T10:41:50Z</time>
      </trkpt>
      <trkpt lat="45.8336" lon="4.97669">
        <ele>195.6</ele>
        <time>2020-09-12T10:41:52Z</time>
      </trkpt>
      <trkpt lat="45.83364" lon="4.9768">
        <ele>195.9</ele>
        <time>2020-09-12T10:41:54Z</time>
      </trkpt>
      <trkpt lat="45.83367" lon="4.9769">
        <ele>196.2</ele>
        <time>2020-09-12T10:41:56Z</time>
      </trkpt>
      <trkpt lat="45.8337" lon="4.977">
        <ele>196.5</ele>
        <time>2020-09-12T10:41:58Z</time>
      </trkpt>
      <trkpt lat="45.83372" lon="4.97708">
        <ele>196.7</ele>
        <time>2020-09-12T10:42:00Z</time>
      </trkpt>
      <trkpt lat="45.83374" lon="4.97714">
        <ele>196.8</ele>
        <time>2020-09-12T10:42:02Z</time>
      </trkpt>
      <trkpt lat="45.83381" lon="4.97715">
        <ele>197</ele>
        <time>2020-09-12T10:42:04Z</time>
      </trkpt>
      <trkpt lat="45.83387" lon="4.97711">
        <ele>197</ele>
        <time>2020-09-12T10:42:06Z</time>
      </trkpt>
      <trkpt lat="45.83392" lon="4.97706">
        <ele>197.1</ele>
        <time>2020-09-12T10:42:08Z</time>
      </trkpt>
      <trkpt lat="45.83396" lon="4.97703">
        <ele>197.1</ele>
        <time>2020-09-12T10:42:10Z</time>
      </trkpt>
      <trkpt lat="45.834" lon="4.977">
        <ele>197.2</ele>
        <time>2020-09-12T10:42:12Z</time>
      </trkpt>
      <trkpt lat="45.83405" lon="4.97698">
        <ele>197.2</ele>
        <time>2020-09-12T10:42:14Z</time>
      </trkpt>
      <trkpt lat="45.83409" lon="4.97694">
        <ele>197.3</ele>
        <time>2020-09-12T10:42:16Z</time>
      </trkpt>
      <trkpt lat="45.83414" lon="4.97691">
        <ele>197.3</ele>
        <time>2020-09-12T10:42:18Z</time>
      </trkpt>
      <trkpt lat="45.83419" lon="4.97687">
        <ele>200.1</ele>
        <time>2020-09-12T10:42:20Z</time>
      </trkpt>
      <trkpt lat="45.83425" lon="4.97684">
        <ele>200.1</ele>
        <time>2020-09-12T10:42:22Z</time>
      </trkpt>
      <trkpt lat="45.8343" lon="4.97682">
        <ele>200.3</ele>
        <time>2020-09-12T10:42:24Z</time>
      </trkpt>
      <trkpt lat="45.83435" lon="4.97679">
        <ele>200.5</ele>
        <time>2020-09-12T10:42:26Z</time>
      </trkpt>
      <trkpt lat="45.8344" lon="4.97677">
        <ele>200.8</ele>
        <time>2020-09-12T10:42:28Z</time>
      </trkpt>
      <trkpt lat="45.83445" lon="4.97675">
        <ele>201.1</ele>
        <time>2020-09-12T10:42:30Z</time>
      </trkpt>
      <trkpt lat="45.8345" lon="4.97672">
        <ele>201.4</ele>
        <time>2020-09-12T10:42:32Z</time>
      </trkpt>
      <trkpt lat="45.83455" lon="4.9767">
        <ele>201.7</ele>
        <time>2020-09-12T10:42:34Z</time>
      </trkpt>
      <trkpt lat="45.8346" lon="4.97668">
        <ele>202.1</ele>
        <time>2020-09-12T10:42:36Z</time>
      </trkpt>
      <trkpt lat="45.83466" lon="4.97664">
        <ele>202.9</ele>
        <time>2020-09-12T10:42:38Z</time>
      </trkpt>
      <trkpt lat="45.83471" lon="4.97661">
        <ele>203.3</ele>
        <time>2020-09-12T10:42:40Z</time>
      </trkpt>
      <trkpt lat="45.83477" lon="4.97657">
        <ele>203.7</ele>
        <time>2020-09-12T10:42:42Z</time>
      </trkpt>
      <trkpt lat="45.83483" lon="4.97654">
        <ele>204</ele>
        <time>2020-09-12T10:42:44Z</time>
      </trkpt>
      <trkpt lat="45.83491" lon="4.97651">
        <ele>204.4</ele>
        <time>2020-09-12T10:42:47Z</time>
      </trkpt>
      <trkpt lat="45.83496" lon="4.97649">
        <ele>204.5</ele>
        <time>2020-09-12T10:42:49Z</time>
      </trkpt>
      <trkpt lat="45.83503" lon="4.9765">
        <ele>208.8</ele>
        <time>2020-09-12T10:42:52Z</time>
      </trkpt>
      <trkpt lat="45.83507" lon="4.97654">
        <ele>208.6</ele>
        <time>2020-09-12T10:42:54Z</time>
      </trkpt>
      <trkpt lat="45.83512" lon="4.97659">
        <ele>208.6</ele>
        <time>2020-09-12T10:42:57Z</time>
      </trkpt>
      <trkpt lat="45.83517" lon="4.97662">
        <ele>209.1</ele>
        <time>2020-09-12T10:42:59Z</time>
      </trkpt>
      <trkpt lat="45.83522" lon="4.97664">
        <ele>209.6</ele>
        <time>2020-09-12T10:43:01Z</time>
      </trkpt>
      <trkpt lat="45.83527" lon="4.97663">
        <ele>210.2</ele>
        <time>2020-09-12T10:43:03Z</time>
      </trkpt>
      <trkpt lat="45.83532" lon="4.9766">
        <ele>210.7</ele>
        <time>2020-09-12T10:43:05Z</time>
      </trkpt>
      <trkpt lat="45.83537" lon="4.97657">
        <ele>211.1</ele>
        <time>2020-09-12T10:43:07Z</time>
      </trkpt>
      <trkpt lat="45.83542" lon="4.97655">
        <ele>211.5</ele>
        <time>2020-09-12T10:43:09Z</time>
      </trkpt>
      <trkpt lat="45.83546" lon="4.97653">
        <ele>211.9</ele>
        <time>2020-09-12T10:43:11Z</time>
      </trkpt>
      <trkpt lat="45.83551" lon="4.97652">
        <ele>212.2</ele>
        <time>2020-09-12T10:43:13Z</time>
      </trkpt>
      <trkpt lat="45.83556" lon="4.97651">
        <ele>212.6</ele>
        <time>2020-09-12T10:43:15Z</time>
      </trkpt>
      <trkpt lat="45.83561" lon="4.97649">
        <ele>212.9</ele>
        <time>2020-09-12T10:43:17Z</time>
      </trkpt>
      <trkpt lat="45.83566" lon="4.97648">
        <ele>213.1</ele>
        <time>2020-09-12T10:43:19Z</time>
      </trkpt>
      <trkpt lat="45.83571" lon="4.97645">
        <ele>213.3</ele>
        <time>2020-09-12T10:43:21Z</time>
      </trkpt>
      <trkpt lat="45.83575" lon="4.97641">
        <ele>213.4</ele>
        <time>2020-09-12T10:43:23Z</time>
      </trkpt>
      <trkpt lat="45.83579" lon="4.97636">
        <ele>213.5</ele>
        <time>2020-09-12T10:43:25Z</time>
      </trkpt>
      <trkpt lat="45.83582" lon="4.97629">
        <ele>213.6</ele>
        <time>2020-09-12T10:43:28Z</time>
      </trkpt>
      <trkpt lat="45.83585" lon="4.97623">
        <ele>219.7</ele>
        <time>2020-09-12T10:43:31Z</time>
      </trkpt>
      <trkpt lat="45.83588" lon="4.97616">
        <ele>219.8</ele>
        <time>2020-09-12T10:43:34Z</time>
      </trkpt>
      <trkpt lat="45.83591" lon="4.97609">
        <ele>219.9</ele>
        <time>2020-09-12T10:43:37Z</time>
      </trkpt>
      <trkpt lat="45.83594" lon="4.97602">
        <ele>219.8</ele>
        <time>2020-09-12T10:43:40Z</time>
      </trkpt>
      <trkpt lat="45.83598" lon="4.97597">
        <ele>219.9</ele>
        <time>2020-09-12T10:43:43Z</time>
      </trkpt>
      <trkpt lat="45.83603" lon="4.97592">
        <ele>220.1</ele>
        <time>2020-09-12T10:43:46Z</time>
      </trkpt>
      <trkpt lat="45.83609" lon="4.97588">
        <ele>220.6</ele>
        <time>2020-09-12T10:43:49Z</time>
      </trkpt>
      <trkpt lat="45.83615" lon="4.97587">
        <ele>221.1</ele>
        <time>2020-09-12T10:43:52Z</time>
      </trkpt>
      <trkpt lat="45.8362" lon="4.97589">
        <ele>221.4</ele>
        <time>2020-09-12T10:43:54Z</time>
      </trkpt>
      <trkpt lat="45.83624" lon="4.97592">
        <ele>221.8</ele>
        <time>2020-09-12T10:43:56Z</time>
      </trkpt>
      <trkpt lat="45.83628" lon="4.97597">
        <ele>222</ele>
        <time>2020-09-12T10:43:58Z</time>
      </trkpt>
      <trkpt lat="45.83632" lon="4.97604">
        <ele>222.3</ele>
        <time>2020-09-12T10:44:01Z</time>
      </trkpt>
      <trkpt lat="45.8363" lon="4.97607">
        <ele>222</ele>
        <time>2020-09-12T10:44:33Z</time>
      </trkpt>
      <trkpt lat="45.83629" lon="4.97607">
        <ele>222</ele>
        <time>2020-09-12T10:44:34Z</time>
      </trkpt>
      <trkpt lat="45.83629" lon="4.97607">
        <ele>222</ele>
        <time>2020-09-12T10:45:03Z</time>
      </trkpt>
      <trkpt lat="45.83629" lon="4.97607">
        <ele>222</ele>
        <time>2020-09-12T10:45:04Z</time>
      </trkpt>
      <trkpt lat="45.83629" lon="4.97607">
        <ele>222</ele>
        <time>2020-09-12T10:45:34Z</time>
      </trkpt>
      <trkpt lat="45.83629" lon="4.97607">
        <ele>222</ele>
        <time>2020-09-12T10:46:08Z</time>
      </trkpt>
      <trkpt lat="45.83629" lon="4.97607">
        <ele>222</ele>
        <time>2020-09-12T10:46:18Z</time>
      </trkpt>
      <trkpt lat="45.83631" lon="4.97604">
        <ele>222.1</ele>
        <time>2020-09-12T10:46:42Z</time>
      </trkpt>
      <trkpt lat="45.83685" lon="4.97587">
        <ele>229.2</ele>
        <time>2020-09-12T10:47:38Z</time>
      </trkpt>
      <trkpt lat="45.83691" lon="4.97584">
        <ele>229.8</ele>
        <time>2020-09-12T10:47:41Z</time>
      </trkpt>
      <trkpt lat="45.83696" lon="4.97581">
        <ele>233.5</ele>
        <time>2020-09-12T10:47:43Z</time>
      </trkpt>
      <trkpt lat="45.83701" lon="4.97579">
        <ele>234.1</ele>
        <time>2020-09-12T10:47:45Z</time>
      </trkpt>
      <trkpt lat="45.83706" lon="4.97577">
        <ele>234.7</ele>
        <time>2020-09-12T10:47:47Z</time>
      </trkpt>
      <trkpt lat="45.83711" lon="4.97577">
        <ele>235.1</ele>
        <time>2020-09-12T10:47:49Z</time>
      </trkpt>
      <trkpt lat="45.83716" lon="4.97578">
        <ele>235.4</ele>
        <time>2020-09-12T10:47:51Z</time>
      </trkpt>
      <trkpt lat="45.83721" lon="4.9758">
        <ele>235.7</ele>
        <time>2020-09-12T10:47:53Z</time>
      </trkpt>
      <trkpt lat="45.83725" lon="4.97582">
        <ele>235.8</ele>
        <time>2020-09-12T10:47:55Z</time>
      </trkpt>
      <trkpt lat="45.8373" lon="4.97585">
        <ele>233.2</ele>
        <time>2020-09-12T10:47:57Z</time>
      </trkpt>
      <trkpt lat="45.83735" lon="4.97588">
        <ele>233.6</ele>
        <time>2020-09-12T10:47:59Z</time>
      </trkpt>
      <trkpt lat="45.83739" lon="4.9759">
        <ele>234</ele>
        <time>2020-09-12T10:48:01Z</time>
      </trkpt>
      <trkpt lat="45.83743" lon="4.97593">
        <ele>234.2</ele>
        <time>2020-09-12T10:48:03Z</time>
      </trkpt>
      <trkpt lat="45.83748" lon="4.97595">
        <ele>234.2</ele>
        <time>2020-09-12T10:48:05Z</time>
      </trkpt>
      <trkpt lat="45.83754" lon="4.97597">
        <ele>238.5</ele>
        <time>2020-09-12T10:48:08Z</time>
      </trkpt>
      <trkpt lat="45.83761" lon="4.97598">
        <ele>239.1</ele>
        <time>2020-09-12T10:48:11Z</time>
      </trkpt>
      <trkpt lat="45.83767" lon="4.97599">
        <ele>239.7</ele>
        <time>2020-09-12T10:48:13Z</time>
      </trkpt>
      <trkpt lat="45.83772" lon="4.976">
        <ele>240.2</ele>
        <time>2020-09-12T10:48:15Z</time>
      </trkpt>
      <trkpt lat="45.83777" lon="4.97602">
        <ele>240.8</ele>
        <time>2020-09-12T10:48:17Z</time>
      </trkpt>
      <trkpt lat="45.83783" lon="4.97604">
        <ele>241.4</ele>
        <time>2020-09-12T10:48:20Z</time>
      </trkpt>
      <trkpt lat="45.83788" lon="4.97604">
        <ele>241.9</ele>
        <time>2020-09-12T10:48:22Z</time>
      </trkpt>
      <trkpt lat="45.83793" lon="4.97605">
        <ele>242.3</ele>
        <time>2020-09-12T10:48:24Z</time>
      </trkpt>
      <trkpt lat="45.83798" lon="4.97606">
        <ele>242.7</ele>
        <time>2020-09-12T10:48:26Z</time>
      </trkpt>
      <trkpt lat="45.83803" lon="4.97606">
        <ele>243.1</ele>
        <time>2020-09-12T10:48:28Z</time>
      </trkpt>
      <trkpt lat="45.83809" lon="4.97607">
        <ele>243.5</ele>
        <time>2020-09-12T10:48:30Z</time>
      </trkpt>
      <trkpt lat="45.83814" lon="4.97607">
        <ele>243.8</ele>
        <time>2020-09-12T10:48:32Z</time>
      </trkpt>
      <trkpt lat="45.83819" lon="4.97607">
        <ele>244.1</ele>
        <time>2020-09-12T10:48:34Z</time>
      </trkpt>
      <trkpt lat="45.83824" lon="4.97607">
        <ele>244.4</ele>
        <time>2020-09-12T10:48:36Z</time>
      </trkpt>
      <trkpt lat="45.83829" lon="4.97606">
        <ele>244.6</ele>
        <time>2020-09-12T10:48:38Z</time>
      </trkpt>
      <trkpt lat="45.83835" lon="4.97606">
        <ele>251.9</ele>
        <time>2020-09-12T10:48:41Z</time>
      </trkpt>
      <trkpt lat="45.83841" lon="4.97604">
        <ele>251.9</ele>
        <time>2020-09-12T10:48:44Z</time>
      </trkpt>
      <trkpt lat="45.83845" lon="4.97602">
        <ele>252</ele>
        <time>2020-09-12T10:48:46Z</time>
      </trkpt>
      <trkpt lat="45.8385" lon="4.976">
        <ele>252.4</ele>
        <time>2020-09-12T10:48:48Z</time>
      </trkpt>
      <trkpt lat="45.83856" lon="4.97598">
        <ele>253</ele>
        <time>2020-09-12T10:48:51Z</time>
      </trkpt>
      <trkpt lat="45.83862" lon="4.97596">
        <ele>253.6</ele>
        <time>2020-09-12T10:48:54Z</time>
      </trkpt>
      <trkpt lat="45.83867" lon="4.97595">
        <ele>254.1</ele>
        <time>2020-09-12T10:48:56Z</time>
      </trkpt>
      <trkpt lat="45.83872" lon="4.97593">
        <ele>254.5</ele>
        <time>2020-09-12T10:48:58Z</time>
      </trkpt>
      <trkpt lat="45.83877" lon="4.97591">
        <ele>255</ele>
        <time>2020-09-12T10:49:00Z</time>
      </trkpt>
      <trkpt lat="45.83882" lon="4.9759">
        <ele>255.3</ele>
        <time>2020-09-12T10:49:02Z</time>
      </trkpt>
      <trkpt lat="45.83887" lon="4.97588">
        <ele>255.6</ele>
        <time>2020-09-12T10:49:04Z</time>
      </trkpt>
      <trkpt lat="45.83892" lon="4.97586">
        <ele>255.8</ele>
        <time>2020-09-12T10:49:06Z</time>
      </trkpt>
      <trkpt lat="45.83896" lon="4.97584">
        <ele>256</ele>
        <time>2020-09-12T10:49:08Z</time>
      </trkpt>
      <trkpt lat="45.83902" lon="4.97583">
        <ele>256.8</ele>
        <time>2020-09-12T10:49:11Z</time>
      </trkpt>
      <trkpt lat="45.83909" lon="4.97582">
        <ele>256.6</ele>
        <time>2020-09-12T10:49:14Z</time>
      </trkpt>
      <trkpt lat="45.83914" lon="4.97582">
        <ele>256.3</ele>
        <time>2020-09-12T10:49:16Z</time>
      </trkpt>
      <trkpt lat="45.83918" lon="4.97581">
        <ele>257.2</ele>
        <time>2020-09-12T10:49:18Z</time>
      </trkpt>
      <trkpt lat="45.83923" lon="4.97579">
        <ele>258.5</ele>
        <time>2020-09-12T10:49:20Z</time>
      </trkpt>
      <trkpt lat="45.83928" lon="4.97578">
        <ele>259.6</ele>
        <time>2020-09-12T10:49:22Z</time>
      </trkpt>
      <trkpt lat="45.83933" lon="4.97577">
        <ele>260.4</ele>
        <time>2020-09-12T10:49:24Z</time>
      </trkpt>
      <trkpt lat="45.83937" lon="4.97576">
        <ele>261.1</ele>
        <time>2020-09-12T10:49:26Z</time>
      </trkpt>
      <trkpt lat="45.83942" lon="4.97575">
        <ele>261.8</ele>
        <time>2020-09-12T10:49:28Z</time>
      </trkpt>
      <trkpt lat="45.83947" lon="4.97574">
        <ele>262.3</ele>
        <time>2020-09-12T10:49:30Z</time>
      </trkpt>
      <trkpt lat="45.83952" lon="4.97573">
        <ele>262.7</ele>
        <time>2020-09-12T10:49:32Z</time>
      </trkpt>
      <trkpt lat="45.83956" lon="4.97571">
        <ele>263</ele>
        <time>2020-09-12T10:49:34Z</time>
      </trkpt>
      <trkpt lat="45.83961" lon="4.9757">
        <ele>263.3</ele>
        <time>2020-09-12T10:49:36Z</time>
      </trkpt>
      <trkpt lat="45.83967" lon="4.97569">
        <ele>263.5</ele>
        <time>2020-09-12T10:49:39Z</time>
      </trkpt>
      <trkpt lat="45.83972" lon="4.97564">
        <ele>263.8</ele>
        <time>2020-09-12T10:49:42Z</time>
      </trkpt>
      <trkpt lat="45.83975" lon="4.97555">
        <ele>264.4</ele>
        <time>2020-09-12T10:49:45Z</time>
      </trkpt>
      <trkpt lat="45.83974" lon="4.97549">
        <ele>264.8</ele>
        <time>2020-09-12T10:49:47Z</time>
      </trkpt>
      <trkpt lat="45.8397" lon="4.97545">
        <ele>265</ele>
        <time>2020-09-12T10:49:49Z</time>
      </trkpt>
      <trkpt lat="45.83965" lon="4.97543">
        <ele>265.1</ele>
        <time>2020-09-12T10:49:51Z</time>
      </trkpt>
      <trkpt lat="45.8396" lon="4.97542">
        <ele>265</ele>
        <time>2020-09-12T10:49:53Z</time>
      </trkpt>
      <trkpt lat="45.83955" lon="4.97541">
        <ele>265</ele>
        <time>2020-09-12T10:49:55Z</time>
      </trkpt>
      <trkpt lat="45.8395" lon="4.9754">
        <ele>265</ele>
        <time>2020-09-12T10:49:57Z</time>
      </trkpt>
      <trkpt lat="45.83945" lon="4.97539">
        <ele>265</ele>
        <time>2020-09-12T10:49:59Z</time>
      </trkpt>
      <trkpt lat="45.8394" lon="4.97537">
        <ele>265.1</ele>
        <time>2020-09-12T10:50:01Z</time>
      </trkpt>
      <trkpt lat="45.83935" lon="4.97536">
        <ele>265.2</ele>
        <time>2020-09-12T10:50:03Z</time>
      </trkpt>
      <trkpt lat="45.8393" lon="4.97535">
        <ele>265.3</ele>
        <time>2020-09-12T10:50:05Z</time>
      </trkpt>
      <trkpt lat="45.83926" lon="4.97533">
        <ele>265.6</ele>
        <time>2020-09-12T10:50:07Z</time>
      </trkpt>
      <trkpt lat="45.83921" lon="4.97531">
        <ele>265.9</ele>
        <time>2020-09-12T10:50:09Z</time>
      </trkpt>
      <trkpt lat="45.83917" lon="4.97529">
        <ele>262.6</ele>
        <time>2020-09-12T10:50:11Z</time>
      </trkpt>
      <trkpt lat="45.83912" lon="4.97526">
        <ele>262.9</ele>
        <time>2020-09-12T10:50:13Z</time>
      </trkpt>
      <trkpt lat="45.83907" lon="4.97522">
        <ele>263.4</ele>
        <time>2020-09-12T10:50:15Z</time>
      </trkpt>
      <trkpt lat="45.83909" lon="4.97514">
        <ele>265.2</ele>
        <time>2020-09-12T10:50:18Z</time>
      </trkpt>
      <trkpt lat="45.83914" lon="4.97512">
        <ele>266.3</ele>
        <time>2020-09-12T10:50:20Z</time>
      </trkpt>
      <trkpt lat="45.83919" lon="4.97512">
        <ele>268.5</ele>
        <time>2020-09-12T10:50:22Z</time>
      </trkpt>
      <trkpt lat="45.83924" lon="4.97513">
        <ele>268.2</ele>
        <time>2020-09-12T10:50:24Z</time>
      </trkpt>
      <trkpt lat="45.83929" lon="4.97513">
        <ele>267.8</ele>
        <time>2020-09-12T10:50:26Z</time>
      </trkpt>
      <trkpt lat="45.83935" lon="4.97513">
        <ele>267.4</ele>
        <time>2020-09-12T10:50:28Z</time>
      </trkpt>
      <trkpt lat="45.8394" lon="4.97515">
        <ele>267</ele>
        <time>2020-09-12T10:50:30Z</time>
      </trkpt>
      <trkpt lat="45.83944" lon="4.97516">
        <ele>266.8</ele>
        <time>2020-09-12T10:50:32Z</time>
      </trkpt>
      <trkpt lat="45.83949" lon="4.97517">
        <ele>266.6</ele>
        <time>2020-09-12T10:50:34Z</time>
      </trkpt>
      <trkpt lat="45.83954" lon="4.97518">
        <ele>266.6</ele>
        <time>2020-09-12T10:50:36Z</time>
      </trkpt>
      <trkpt lat="45.8396" lon="4.97519">
        <ele>266.5</ele>
        <time>2020-09-12T10:50:39Z</time>
      </trkpt>
      <trkpt lat="45.83965" lon="4.9752">
        <ele>266.6</ele>
        <time>2020-09-12T10:50:41Z</time>
      </trkpt>
      <trkpt lat="45.8397" lon="4.97521">
        <ele>266.6</ele>
        <time>2020-09-12T10:50:43Z</time>
      </trkpt>
      <trkpt lat="45.83975" lon="4.97521">
        <ele>266.8</ele>
        <time>2020-09-12T10:50:45Z</time>
      </trkpt>
      <trkpt lat="45.8398" lon="4.97521">
        <ele>266.9</ele>
        <time>2020-09-12T10:50:47Z</time>
      </trkpt>
      <trkpt lat="45.83986" lon="4.97521">
        <ele>267.2</ele>
        <time>2020-09-12T10:50:49Z</time>
      </trkpt>
      <trkpt lat="45.83991" lon="4.97519">
        <ele>267.6</ele>
        <time>2020-09-12T10:50:51Z</time>
      </trkpt>
      <trkpt lat="45.83996" lon="4.97518">
        <ele>267.9</ele>
        <time>2020-09-12T10:50:53Z</time>
      </trkpt>
      <trkpt lat="45.84002" lon="4.97518">
        <ele>270.7</ele>
        <time>2020-09-12T10:50:55Z</time>
      </trkpt>
      <trkpt lat="45.84006" lon="4.97516">
        <ele>270.8</ele>
        <time>2020-09-12T10:50:57Z</time>
      </trkpt>
      <trkpt lat="45.84013" lon="4.97514">
        <ele>270.9</ele>
        <time>2020-09-12T10:51:00Z</time>
      </trkpt>
      <trkpt lat="45.84018" lon="4.97512">
        <ele>271</ele>
        <time>2020-09-12T10:51:02Z</time>
      </trkpt>
      <trkpt lat="45.84023" lon="4.9751">
        <ele>271.1</ele>
        <time>2020-09-12T10:51:04Z</time>
      </trkpt>
      <trkpt lat="45.84033" lon="4.97507">
        <ele>271.4</ele>
        <time>2020-09-12T10:51:09Z</time>
      </trkpt>
      <trkpt lat="45.84038" lon="4.97504">
        <ele>271.6</ele>
        <time>2020-09-12T10:51:11Z</time>
      </trkpt>
      <trkpt lat="45.84042" lon="4.97501">
        <ele>271.7</ele>
        <time>2020-09-12T10:51:13Z</time>
      </trkpt>
      <trkpt lat="45.84047" lon="4.97497">
        <ele>276.3</ele>
        <time>2020-09-12T10:51:15Z</time>
      </trkpt>
      <trkpt lat="45.84052" lon="4.97492">
        <ele>276.4</ele>
        <time>2020-09-12T10:51:18Z</time>
      </trkpt>
      <trkpt lat="45.84057" lon="4.97486">
        <ele>276.6</ele>
        <time>2020-09-12T10:51:21Z</time>
      </trkpt>
      <trkpt lat="45.8406" lon="4.9748">
        <ele>276.9</ele>
        <time>2020-09-12T10:51:24Z</time>
      </trkpt>
      <trkpt lat="45.84062" lon="4.97472">
        <ele>277.4</ele>
        <time>2020-09-12T10:51:27Z</time>
      </trkpt>
      <trkpt lat="45.84063" lon="4.97462">
        <ele>278.2</ele>
        <time>2020-09-12T10:51:30Z</time>
      </trkpt>
      <trkpt lat="45.84062" lon="4.97456">
        <ele>278.8</ele>
        <time>2020-09-12T10:51:32Z</time>
      </trkpt>
      <trkpt lat="45.84061" lon="4.97447">
        <ele>279.5</ele>
        <time>2020-09-12T10:51:35Z</time>
      </trkpt>
      <trkpt lat="45.84058" lon="4.97438">
        <ele>280.1</ele>
        <time>2020-09-12T10:51:38Z</time>
      </trkpt>
      <trkpt lat="45.84056" lon="4.97431">
        <ele>280.6</ele>
        <time>2020-09-12T10:51:41Z</time>
      </trkpt>
      <trkpt lat="45.84055" lon="4.97422">
        <ele>280.9</ele>
        <time>2020-09-12T10:51:44Z</time>
      </trkpt>
      <trkpt lat="45.84056" lon="4.97412">
        <ele>287.8</ele>
        <time>2020-09-12T10:51:47Z</time>
      </trkpt>
      <trkpt lat="45.84058" lon="4.97407">
        <ele>287.9</ele>
        <time>2020-09-12T10:51:49Z</time>
      </trkpt>
      <trkpt lat="45.84063" lon="4.97404">
        <ele>287.6</ele>
        <time>2020-09-12T10:51:51Z</time>
      </trkpt>
      <trkpt lat="45.84068" lon="4.97407">
        <ele>287</ele>
        <time>2020-09-12T10:51:53Z</time>
      </trkpt>
      <trkpt lat="45.84071" lon="4.97412">
        <ele>286</ele>
        <time>2020-09-12T10:51:56Z</time>
      </trkpt>
      <trkpt lat="45.84074" lon="4.97418">
        <ele>281.8</ele>
        <time>2020-09-12T10:52:01Z</time>
      </trkpt>
      <trkpt lat="45.84076" lon="4.97424">
        <ele>281.7</ele>
        <time>2020-09-12T10:52:05Z</time>
      </trkpt>
      <trkpt lat="45.84079" lon="4.9743">
        <ele>281.2</ele>
        <time>2020-09-12T10:52:09Z</time>
      </trkpt>
      <trkpt lat="45.84082" lon="4.97435">
        <ele>280.7</ele>
        <time>2020-09-12T10:52:13Z</time>
      </trkpt>
      <trkpt lat="45.84087" lon="4.97439">
        <ele>281.5</ele>
        <time>2020-09-12T10:52:17Z</time>
      </trkpt>
      <trkpt lat="45.84092" lon="4.97443">
        <ele>281.3</ele>
        <time>2020-09-12T10:52:21Z</time>
      </trkpt>
      <trkpt lat="45.84097" lon="4.97445">
        <ele>281.3</ele>
        <time>2020-09-12T10:52:25Z</time>
      </trkpt>
      <trkpt lat="45.84102" lon="4.97446">
        <ele>281.3</ele>
        <time>2020-09-12T10:52:28Z</time>
      </trkpt>
      <trkpt lat="45.84106" lon="4.97446">
        <ele>281.4</ele>
        <time>2020-09-12T10:52:31Z</time>
      </trkpt>
      <trkpt lat="45.84112" lon="4.97446">
        <ele>281.5</ele>
        <time>2020-09-12T10:52:35Z</time>
      </trkpt>
      <trkpt lat="45.84116" lon="4.97446">
        <ele>281.6</ele>
        <time>2020-09-12T10:52:38Z</time>
      </trkpt>
      <trkpt lat="45.84121" lon="4.97446">
        <ele>281.8</ele>
        <time>2020-09-12T10:52:41Z</time>
      </trkpt>
      <trkpt lat="45.84127" lon="4.97445">
        <ele>282.1</ele>
        <time>2020-09-12T10:52:45Z</time>
      </trkpt>
      <trkpt lat="45.84132" lon="4.97444">
        <ele>282.5</ele>
        <time>2020-09-12T10:52:49Z</time>
      </trkpt>
      <trkpt lat="45.84137" lon="4.97442">
        <ele>282.9</ele>
        <time>2020-09-12T10:52:53Z</time>
      </trkpt>
      <trkpt lat="45.84143" lon="4.97441">
        <ele>283.4</ele>
        <time>2020-09-12T10:52:57Z</time>
      </trkpt>
      <trkpt lat="45.84148" lon="4.97439">
        <ele>283.9</ele>
        <time>2020-09-12T10:53:01Z</time>
      </trkpt>
      <trkpt lat="45.84154" lon="4.97437">
        <ele>284.5</ele>
        <time>2020-09-12T10:53:05Z</time>
      </trkpt>
      <trkpt lat="45.8416" lon="4.97436">
        <ele>285</ele>
        <time>2020-09-12T10:53:09Z</time>
      </trkpt>
      <trkpt lat="45.84165" lon="4.97437">
        <ele>285.1</ele>
        <time>2020-09-12T10:53:13Z</time>
      </trkpt>
      <trkpt lat="45.84169" lon="4.9744">
        <ele>288.5</ele>
        <time>2020-09-12T10:53:17Z</time>
      </trkpt>
      <trkpt lat="45.84172" lon="4.97447">
        <ele>288.1</ele>
        <time>2020-09-12T10:53:22Z</time>
      </trkpt>
      <trkpt lat="45.84176" lon="4.97449">
        <ele>288</ele>
        <time>2020-09-12T10:53:49Z</time>
      </trkpt>
      <trkpt lat="45.8418" lon="4.97453">
        <ele>287.7</ele>
        <time>2020-09-12T10:53:53Z</time>
      </trkpt>
      <trkpt lat="45.84184" lon="4.9746">
        <ele>287.3</ele>
        <time>2020-09-12T10:53:56Z</time>
      </trkpt>
      <trkpt lat="45.84189" lon="4.97466">
        <ele>287</ele>
        <time>2020-09-12T10:53:59Z</time>
      </trkpt>
      <trkpt lat="45.84192" lon="4.97471">
        <ele>286.9</ele>
        <time>2020-09-12T10:54:01Z</time>
      </trkpt>
      <trkpt lat="45.84196" lon="4.97474">
        <ele>286.8</ele>
        <time>2020-09-12T10:54:03Z</time>
      </trkpt>
      <trkpt lat="45.84201" lon="4.9748">
        <ele>286.9</ele>
        <time>2020-09-12T10:54:06Z</time>
      </trkpt>
      <trkpt lat="45.84207" lon="4.97485">
        <ele>287.1</ele>
        <time>2020-09-12T10:54:09Z</time>
      </trkpt>
      <trkpt lat="45.84211" lon="4.97488">
        <ele>287.3</ele>
        <time>2020-09-12T10:54:11Z</time>
      </trkpt>
      <trkpt lat="45.84216" lon="4.97491">
        <ele>287.5</ele>
        <time>2020-09-12T10:54:13Z</time>
      </trkpt>
      <trkpt lat="45.84221" lon="4.97493">
        <ele>287.8</ele>
        <time>2020-09-12T10:54:15Z</time>
      </trkpt>
      <trkpt lat="45.84225" lon="4.97494">
        <ele>288.1</ele>
        <time>2020-09-12T10:54:17Z</time>
      </trkpt>
      <trkpt lat="45.8423" lon="4.97495">
        <ele>288.3</ele>
        <time>2020-09-12T10:54:19Z</time>
      </trkpt>
      <trkpt lat="45.84237" lon="4.97495">
        <ele>288.6</ele>
        <time>2020-09-12T10:54:21Z</time>
      </trkpt>
      <trkpt lat="45.84242" lon="4.97495">
        <ele>288.7</ele>
        <time>2020-09-12T10:54:23Z</time>
      </trkpt>
      <trkpt lat="45.84247" lon="4.97493">
        <ele>288.9</ele>
        <time>2020-09-12T10:54:25Z</time>
      </trkpt>
      <trkpt lat="45.84253" lon="4.9749">
        <ele>291</ele>
        <time>2020-09-12T10:54:27Z</time>
      </trkpt>
      <trkpt lat="45.84257" lon="4.97486">
        <ele>291.7</ele>
        <time>2020-09-12T10:54:29Z</time>
      </trkpt>
      <trkpt lat="45.84261" lon="4.97481">
        <ele>292.4</ele>
        <time>2020-09-12T10:54:31Z</time>
      </trkpt>
      <trkpt lat="45.84264" lon="4.97477">
        <ele>292.9</ele>
        <time>2020-09-12T10:54:33Z</time>
      </trkpt>
      <trkpt lat="45.8427" lon="4.97471">
        <ele>293.5</ele>
        <time>2020-09-12T10:54:36Z</time>
      </trkpt>
      <trkpt lat="45.84274" lon="4.97467">
        <ele>293.9</ele>
        <time>2020-09-12T10:54:38Z</time>
      </trkpt>
      <trkpt lat="45.84277" lon="4.97462">
        <ele>294.2</ele>
        <time>2020-09-12T10:54:40Z</time>
      </trkpt>
      <trkpt lat="45.8428" lon="4.97456">
        <ele>294.5</ele>
        <time>2020-09-12T10:54:42Z</time>
      </trkpt>
      <trkpt lat="45.84283" lon="4.97452">
        <ele>294.7</ele>
        <time>2020-09-12T10:54:44Z</time>
      </trkpt>
      <trkpt lat="45.84287" lon="4.97447">
        <ele>294.9</ele>
        <time>2020-09-12T10:54:46Z</time>
      </trkpt>
      <trkpt lat="45.84289" lon="4.9744">
        <ele>295.2</ele>
        <time>2020-09-12T10:54:48Z</time>
      </trkpt>
      <trkpt lat="45.8429" lon="4.97434">
        <ele>295.3</ele>
        <time>2020-09-12T10:54:50Z</time>
      </trkpt>
      <trkpt lat="45.84291" lon="4.97426">
        <ele>295.5</ele>
        <time>2020-09-12T10:54:52Z</time>
      </trkpt>
      <trkpt lat="45.8429" lon="4.97419">
        <ele>295.6</ele>
        <time>2020-09-12T10:54:54Z</time>
      </trkpt>
      <trkpt lat="45.8429" lon="4.97411">
        <ele>297.3</ele>
        <time>2020-09-12T10:54:56Z</time>
      </trkpt>
      <trkpt lat="45.84291" lon="4.97404">
        <ele>297.3</ele>
        <time>2020-09-12T10:54:58Z</time>
      </trkpt>
      <trkpt lat="45.84293" lon="4.97396">
        <ele>297.4</ele>
        <time>2020-09-12T10:55:00Z</time>
      </trkpt>
      <trkpt lat="45.84297" lon="4.97391">
        <ele>297.5</ele>
        <time>2020-09-12T10:55:02Z</time>
      </trkpt>
      <trkpt lat="45.84301" lon="4.97389">
        <ele>297.5</ele>
        <time>2020-09-12T10:55:04Z</time>
      </trkpt>
      <trkpt lat="45.84306" lon="4.97391">
        <ele>297.5</ele>
        <time>2020-09-12T10:55:06Z</time>
      </trkpt>
      <trkpt lat="45.84312" lon="4.97394">
        <ele>297.6</ele>
        <time>2020-09-12T10:55:09Z</time>
      </trkpt>
      <trkpt lat="45.84318" lon="4.97398">
        <ele>297.6</ele>
        <time>2020-09-12T10:55:12Z</time>
      </trkpt>
      <trkpt lat="45.84322" lon="4.97401">
        <ele>297.7</ele>
        <time>2020-09-12T10:55:14Z</time>
      </trkpt>
      <trkpt lat="45.84328" lon="4.97405">
        <ele>297.8</ele>
        <time>2020-09-12T10:55:17Z</time>
      </trkpt>
      <trkpt lat="45.84332" lon="4.97409">
        <ele>297.8</ele>
        <time>2020-09-12T10:55:19Z</time>
      </trkpt>
      <trkpt lat="45.84337" lon="4.97412">
        <ele>298.3</ele>
        <time>2020-09-12T10:55:21Z</time>
      </trkpt>
      <trkpt lat="45.84341" lon="4.97416">
        <ele>298.4</ele>
        <time>2020-09-12T10:55:23Z</time>
      </trkpt>
      <trkpt lat="45.84346" lon="4.97419">
        <ele>298.6</ele>
        <time>2020-09-12T10:55:25Z</time>
      </trkpt>
      <trkpt lat="45.8435" lon="4.97423">
        <ele>298.7</ele>
        <time>2020-09-12T10:55:27Z</time>
      </trkpt>
      <trkpt lat="45.84356" lon="4.97427">
        <ele>298.9</ele>
        <time>2020-09-12T10:55:30Z</time>
      </trkpt>
      <trkpt lat="45.84361" lon="4.9743">
        <ele>299.1</ele>
        <time>2020-09-12T10:55:32Z</time>
      </trkpt>
      <trkpt lat="45.84366" lon="4.97434">
        <ele>299.2</ele>
        <time>2020-09-12T10:55:34Z</time>
      </trkpt>
      <trkpt lat="45.84371" lon="4.97438">
        <ele>299.4</ele>
        <time>2020-09-12T10:55:36Z</time>
      </trkpt>
      <trkpt lat="45.84375" lon="4.97442">
        <ele>299.5</ele>
        <time>2020-09-12T10:55:38Z</time>
      </trkpt>
      <trkpt lat="45.84381" lon="4.97444">
        <ele>299.7</ele>
        <time>2020-09-12T10:55:40Z</time>
      </trkpt>
      <trkpt lat="45.84386" lon="4.97448">
        <ele>299.8</ele>
        <time>2020-09-12T10:55:42Z</time>
      </trkpt>
      <trkpt lat="45.84392" lon="4.97451">
        <ele>299.9</ele>
        <time>2020-09-12T10:55:44Z</time>
      </trkpt>
      <trkpt lat="45.84398" lon="4.97454">
        <ele>300.1</ele>
        <time>2020-09-12T10:55:46Z</time>
      </trkpt>
      <trkpt lat="45.84403" lon="4.97457">
        <ele>300.2</ele>
        <time>2020-09-12T10:55:48Z</time>
      </trkpt>
      <trkpt lat="45.84408" lon="4.97461">
        <ele>300.4</ele>
        <time>2020-09-12T10:55:50Z</time>
      </trkpt>
      <trkpt lat="45.84413" lon="4.97466">
        <ele>300.6</ele>
        <time>2020-09-12T10:55:52Z</time>
      </trkpt>
      <trkpt lat="45.84418" lon="4.97468">
        <ele>302.6</ele>
        <time>2020-09-12T10:55:54Z</time>
      </trkpt>
      <trkpt lat="45.84423" lon="4.97471">
        <ele>302.7</ele>
        <time>2020-09-12T10:55:56Z</time>
      </trkpt>
      <trkpt lat="45.84428" lon="4.97477">
        <ele>302.7</ele>
        <time>2020-09-12T10:55:58Z</time>
      </trkpt>
      <trkpt lat="45.84433" lon="4.97481">
        <ele>302.8</ele>
        <time>2020-09-12T10:56:00Z</time>
      </trkpt>
      <trkpt lat="45.84439" lon="4.97485">
        <ele>302.8</ele>
        <time>2020-09-12T10:56:02Z</time>
      </trkpt>
      <trkpt lat="45.84444" lon="4.97489">
        <ele>302.8</ele>
        <time>2020-09-12T10:56:04Z</time>
      </trkpt>
      <trkpt lat="45.84449" lon="4.97493">
        <ele>302.8</ele>
        <time>2020-09-12T10:56:06Z</time>
      </trkpt>
      <trkpt lat="45.84454" lon="4.97498">
        <ele>302.8</ele>
        <time>2020-09-12T10:56:08Z</time>
      </trkpt>
      <trkpt lat="45.84459" lon="4.97502">
        <ele>303</ele>
        <time>2020-09-12T10:56:10Z</time>
      </trkpt>
      <trkpt lat="45.84464" lon="4.97506">
        <ele>303</ele>
        <time>2020-09-12T10:56:12Z</time>
      </trkpt>
      <trkpt lat="45.8447" lon="4.97511">
        <ele>303</ele>
        <time>2020-09-12T10:56:14Z</time>
      </trkpt>
      <trkpt lat="45.84475" lon="4.97515">
        <ele>303.1</ele>
        <time>2020-09-12T10:56:16Z</time>
      </trkpt>
      <trkpt lat="45.8448" lon="4.9752">
        <ele>303.1</ele>
        <time>2020-09-12T10:56:18Z</time>
      </trkpt>
      <trkpt lat="45.84485" lon="4.97526">
        <ele>303.1</ele>
        <time>2020-09-12T10:56:20Z</time>
      </trkpt>
      <trkpt lat="45.84489" lon="4.97531">
        <ele>303.2</ele>
        <time>2020-09-12T10:56:22Z</time>
      </trkpt>
      <trkpt lat="45.84495" lon="4.97535">
        <ele>303.3</ele>
        <time>2020-09-12T10:56:24Z</time>
      </trkpt>
      <trkpt lat="45.845" lon="4.97539">
        <ele>303.3</ele>
        <time>2020-09-12T10:56:26Z</time>
      </trkpt>
      <trkpt lat="45.84505" lon="4.97537">
        <ele>304.6</ele>
        <time>2020-09-12T10:56:28Z</time>
      </trkpt>
      <trkpt lat="45.84509" lon="4.97531">
        <ele>304.5</ele>
        <time>2020-09-12T10:56:30Z</time>
      </trkpt>
      <trkpt lat="45.84509" lon="4.97522">
        <ele>304.2</ele>
        <time>2020-09-12T10:56:32Z</time>
      </trkpt>
      <trkpt lat="45.84506" lon="4.97511">
        <ele>303.8</ele>
        <time>2020-09-12T10:56:34Z</time>
      </trkpt>
      <trkpt lat="45.84504" lon="4.97502">
        <ele>303.3</ele>
        <time>2020-09-12T10:56:36Z</time>
      </trkpt>
      <trkpt lat="45.84501" lon="4.97493">
        <ele>303.5</ele>
        <time>2020-09-12T10:56:38Z</time>
      </trkpt>
      <trkpt lat="45.84497" lon="4.97483">
        <ele>303</ele>
        <time>2020-09-12T10:56:40Z</time>
      </trkpt>
      <trkpt lat="45.84493" lon="4.97473">
        <ele>303</ele>
        <time>2020-09-12T10:56:42Z</time>
      </trkpt>
      <trkpt lat="45.8449" lon="4.97463">
        <ele>303</ele>
        <time>2020-09-12T10:56:44Z</time>
      </trkpt>
      <trkpt lat="45.84487" lon="4.97453">
        <ele>303</ele>
        <time>2020-09-12T10:56:46Z</time>
      </trkpt>
      <trkpt lat="45.84484" lon="4.97442">
        <ele>303.1</ele>
        <time>2020-09-12T10:56:48Z</time>
      </trkpt>
      <trkpt lat="45.84481" lon="4.97431">
        <ele>303.1</ele>
        <time>2020-09-12T10:56:50Z</time>
      </trkpt>
      <trkpt lat="45.84478" lon="4.97423">
        <ele>303.1</ele>
        <time>2020-09-12T10:56:51Z</time>
      </trkpt>
      <trkpt lat="45.84475" lon="4.97411">
        <ele>303.1</ele>
        <time>2020-09-12T10:56:53Z</time>
      </trkpt>
      <trkpt lat="45.84472" lon="4.974">
        <ele>303</ele>
        <time>2020-09-12T10:56:55Z</time>
      </trkpt>
      <trkpt lat="45.8447" lon="4.97388">
        <ele>303</ele>
        <time>2020-09-12T10:56:57Z</time>
      </trkpt>
      <trkpt lat="45.84468" lon="4.97376">
        <ele>302.9</ele>
        <time>2020-09-12T10:56:59Z</time>
      </trkpt>
      <trkpt lat="45.84467" lon="4.97368">
        <ele>303</ele>
        <time>2020-09-12T10:57:01Z</time>
      </trkpt>
      <trkpt lat="45.84468" lon="4.97361">
        <ele>303</ele>
        <time>2020-09-12T10:57:03Z</time>
      </trkpt>
      <trkpt lat="45.84472" lon="4.97359">
        <ele>303.1</ele>
        <time>2020-09-12T10:57:12Z</time>
      </trkpt>
      <trkpt lat="45.84477" lon="4.97361">
        <ele>303.2</ele>
        <time>2020-09-12T10:57:17Z</time>
      </trkpt>
      <trkpt lat="45.84475" lon="4.97362">
        <ele>303.2</ele>
        <time>2020-09-12T10:57:47Z</time>
      </trkpt>
      <trkpt lat="45.84475" lon="4.97362">
        <ele>303.2</ele>
        <time>2020-09-12T10:57:48Z</time>
      </trkpt>
      <trkpt lat="45.84475" lon="4.97362">
        <ele>303.2</ele>
        <time>2020-09-12T10:58:17Z</time>
      </trkpt>
      <trkpt lat="45.84475" lon="4.97362">
        <ele>303.2</ele>
        <time>2020-09-12T10:58:18Z</time>
      </trkpt>
      <trkpt lat="45.84475" lon="4.97365">
        <ele>303.2</ele>
        <time>2020-09-12T10:58:47Z</time>
      </trkpt>
      <trkpt lat="45.84475" lon="4.97365">
        <ele>303.2</ele>
        <time>2020-09-12T10:58:48Z</time>
      </trkpt>
      <trkpt lat="45.84598" lon="4.97249">
        <ele>309.9</ele>
        <time>2020-09-12T11:00:06Z</time>
      </trkpt>
      <trkpt lat="45.84604" lon="4.9725">
        <ele>309.9</ele>
        <time>2020-09-12T11:00:08Z</time>
      </trkpt>
      <trkpt lat="45.84611" lon="4.9725">
        <ele>310.1</ele>
        <time>2020-09-12T11:00:10Z</time>
      </trkpt>
      <trkpt lat="45.84618" lon="4.97251">
        <ele>310.1</ele>
        <time>2020-09-12T11:00:12Z</time>
      </trkpt>
      <trkpt lat="45.84626" lon="4.97252">
        <ele>310.2</ele>
        <time>2020-09-12T11:00:14Z</time>
      </trkpt>
      <trkpt lat="45.84635" lon="4.97253">
        <ele>310.3</ele>
        <time>2020-09-12T11:00:16Z</time>
      </trkpt>
      <trkpt lat="45.84639" lon="4.97253">
        <ele>310.3</ele>
        <time>2020-09-12T11:00:17Z</time>
      </trkpt>
      <trkpt lat="45.84644" lon="4.97257">
        <ele>310.4</ele>
        <time>2020-09-12T11:00:18Z</time>
      </trkpt>
      <trkpt lat="45.84649" lon="4.97257">
        <ele>310.5</ele>
        <time>2020-09-12T11:00:19Z</time>
      </trkpt>
      <trkpt lat="45.84654" lon="4.97257">
        <ele>310.6</ele>
        <time>2020-09-12T11:00:20Z</time>
      </trkpt>
      <trkpt lat="45.84659" lon="4.97258">
        <ele>310.6</ele>
        <time>2020-09-12T11:00:21Z</time>
      </trkpt>
      <trkpt lat="45.84669" lon="4.97259">
        <ele>310.4</ele>
        <time>2020-09-12T11:00:23Z</time>
      </trkpt>
      <trkpt lat="45.84675" lon="4.9726">
        <ele>310.2</ele>
        <time>2020-09-12T11:00:24Z</time>
      </trkpt>
      <trkpt lat="45.8468" lon="4.9726">
        <ele>310</ele>
        <time>2020-09-12T11:00:25Z</time>
      </trkpt>
      <trkpt lat="45.84685" lon="4.97261">
        <ele>309.8</ele>
        <time>2020-09-12T11:00:26Z</time>
      </trkpt>
      <trkpt lat="45.84691" lon="4.97262">
        <ele>309.6</ele>
        <time>2020-09-12T11:00:27Z</time>
      </trkpt>
      <trkpt lat="45.84696" lon="4.97262">
        <ele>309.5</ele>
        <time>2020-09-12T11:00:28Z</time>
      </trkpt>
      <trkpt lat="45.84702" lon="4.97263">
        <ele>309.3</ele>
        <time>2020-09-12T11:00:29Z</time>
      </trkpt>
      <trkpt lat="45.84708" lon="4.97264">
        <ele>309.2</ele>
        <time>2020-09-12T11:00:30Z</time>
      </trkpt>
      <trkpt lat="45.84714" lon="4.97264">
        <ele>309</ele>
        <time>2020-09-12T11:00:31Z</time>
      </trkpt>
      <trkpt lat="45.8472" lon="4.97265">
        <ele>308.9</ele>
        <time>2020-09-12T11:00:32Z</time>
      </trkpt>
      <trkpt lat="45.84726" lon="4.97266">
        <ele>308.7</ele>
        <time>2020-09-12T11:00:33Z</time>
      </trkpt>
      <trkpt lat="45.84737" lon="4.97281">
        <ele>308.6</ele>
        <time>2020-09-12T11:00:34Z</time>
      </trkpt>
      <trkpt lat="45.84743" lon="4.97283">
        <ele>308.5</ele>
        <time>2020-09-12T11:00:35Z</time>
      </trkpt>
      <trkpt lat="45.8475" lon="4.97284">
        <ele>308.5</ele>
        <time>2020-09-12T11:00:36Z</time>
      </trkpt>
      <trkpt lat="45.84756" lon="4.97284">
        <ele>307.1</ele>
        <time>2020-09-12T11:00:37Z</time>
      </trkpt>
      <trkpt lat="45.84763" lon="4.97284">
        <ele>307</ele>
        <time>2020-09-12T11:00:38Z</time>
      </trkpt>
      <trkpt lat="45.84769" lon="4.97284">
        <ele>307</ele>
        <time>2020-09-12T11:00:39Z</time>
      </trkpt>
      <trkpt lat="45.84775" lon="4.97284">
        <ele>306.9</ele>
        <time>2020-09-12T11:00:40Z</time>
      </trkpt>
      <trkpt lat="45.84782" lon="4.97283">
        <ele>306.9</ele>
        <time>2020-09-12T11:00:41Z</time>
      </trkpt>
      <trkpt lat="45.84788" lon="4.97283">
        <ele>306.8</ele>
        <time>2020-09-12T11:00:42Z</time>
      </trkpt>
      <trkpt lat="45.84794" lon="4.97286">
        <ele>306.7</ele>
        <time>2020-09-12T11:00:43Z</time>
      </trkpt>
      <trkpt lat="45.84801" lon="4.97286">
        <ele>306.7</ele>
        <time>2020-09-12T11:00:44Z</time>
      </trkpt>
      <trkpt lat="45.84809" lon="4.97292">
        <ele>306.6</ele>
        <time>2020-09-12T11:00:45Z</time>
      </trkpt>
      <trkpt lat="45.84816" lon="4.97292">
        <ele>306.6</ele>
        <time>2020-09-12T11:00:46Z</time>
      </trkpt>
      <trkpt lat="45.84822" lon="4.97292">
        <ele>306.5</ele>
        <time>2020-09-12T11:00:47Z</time>
      </trkpt>
      <trkpt lat="45.84828" lon="4.97293">
        <ele>306.5</ele>
        <time>2020-09-12T11:00:48Z</time>
      </trkpt>
      <trkpt lat="45.84835" lon="4.97294">
        <ele>305.8</ele>
        <time>2020-09-12T11:00:49Z</time>
      </trkpt>
      <trkpt lat="45.84841" lon="4.97294">
        <ele>305.8</ele>
        <time>2020-09-12T11:00:50Z</time>
      </trkpt>
      <trkpt lat="45.84848" lon="4.97295">
        <ele>305.8</ele>
        <time>2020-09-12T11:00:51Z</time>
      </trkpt>
      <trkpt lat="45.84855" lon="4.97297">
        <ele>305.8</ele>
        <time>2020-09-12T11:00:52Z</time>
      </trkpt>
      <trkpt lat="45.84861" lon="4.97297">
        <ele>305.8</ele>
        <time>2020-09-12T11:00:53Z</time>
      </trkpt>
      <trkpt lat="45.84868" lon="4.97297">
        <ele>305.8</ele>
        <time>2020-09-12T11:00:54Z</time>
      </trkpt>
      <trkpt lat="45.84874" lon="4.97298">
        <ele>305.8</ele>
        <time>2020-09-12T11:00:55Z</time>
      </trkpt>
      <trkpt lat="45.8488" lon="4.97298">
        <ele>305.8</ele>
        <time>2020-09-12T11:00:56Z</time>
      </trkpt>
      <trkpt lat="45.84887" lon="4.97299">
        <ele>305.7</ele>
        <time>2020-09-12T11:00:57Z</time>
      </trkpt>
      <trkpt lat="45.84893" lon="4.97299">
        <ele>305.7</ele>
        <time>2020-09-12T11:00:58Z</time>
      </trkpt>
      <trkpt lat="45.849" lon="4.97299">
        <ele>305.7</ele>
        <time>2020-09-12T11:00:59Z</time>
      </trkpt>
      <trkpt lat="45.84906" lon="4.973">
        <ele>305.7</ele>
        <time>2020-09-12T11:01:00Z</time>
      </trkpt>
      <trkpt lat="45.84913" lon="4.973">
        <ele>305.7</ele>
        <time>2020-09-12T11:01:01Z</time>
      </trkpt>
      <trkpt lat="45.8492" lon="4.97301">
        <ele>305.4</ele>
        <time>2020-09-12T11:01:02Z</time>
      </trkpt>
      <trkpt lat="45.84926" lon="4.97301">
        <ele>305.4</ele>
        <time>2020-09-12T11:01:03Z</time>
      </trkpt>
      <trkpt lat="45.84934" lon="4.973">
        <ele>305.4</ele>
        <time>2020-09-12T11:01:04Z</time>
      </trkpt>
      <trkpt lat="45.8494" lon="4.973">
        <ele>305.4</ele>
        <time>2020-09-12T11:01:05Z</time>
      </trkpt>
      <trkpt lat="45.84947" lon="4.973">
        <ele>305.4</ele>
        <time>2020-09-12T11:01:06Z</time>
      </trkpt>
      <trkpt lat="45.84954" lon="4.973">
        <ele>305.3</ele>
        <time>2020-09-12T11:01:07Z</time>
      </trkpt>
      <trkpt lat="45.84961" lon="4.97301">
        <ele>305.3</ele>
        <time>2020-09-12T11:01:08Z</time>
      </trkpt>
      <trkpt lat="45.84967" lon="4.97301">
        <ele>305.3</ele>
        <time>2020-09-12T11:01:09Z</time>
      </trkpt>
      <trkpt lat="45.84981" lon="4.97303">
        <ele>305.3</ele>
        <time>2020-09-12T11:01:11Z</time>
      </trkpt>
      <trkpt lat="45.84987" lon="4.97305">
        <ele>305.4</ele>
        <time>2020-09-12T11:01:12Z</time>
      </trkpt>
      <trkpt lat="45.84993" lon="4.97308">
        <ele>305.4</ele>
        <time>2020-09-12T11:01:13Z</time>
      </trkpt>
      <trkpt lat="45.85" lon="4.97311">
        <ele>305.5</ele>
        <time>2020-09-12T11:01:14Z</time>
      </trkpt>
      <trkpt lat="45.85006" lon="4.97315">
        <ele>304.4</ele>
        <time>2020-09-12T11:01:15Z</time>
      </trkpt>
      <trkpt lat="45.85012" lon="4.9732">
        <ele>304.4</ele>
        <time>2020-09-12T11:01:16Z</time>
      </trkpt>
      <trkpt lat="45.85024" lon="4.97328">
        <ele>304</ele>
        <time>2020-09-12T11:01:18Z</time>
      </trkpt>
      <trkpt lat="45.8503" lon="4.97333">
        <ele>303.7</ele>
        <time>2020-09-12T11:01:19Z</time>
      </trkpt>
      <trkpt lat="45.85037" lon="4.97336">
        <ele>302.9</ele>
        <time>2020-09-12T11:01:20Z</time>
      </trkpt>
      <trkpt lat="45.85043" lon="4.9734">
        <ele>302.6</ele>
        <time>2020-09-12T11:01:21Z</time>
      </trkpt>
      <trkpt lat="45.8505" lon="4.97344">
        <ele>302.3</ele>
        <time>2020-09-12T11:01:22Z</time>
      </trkpt>
      <trkpt lat="45.85057" lon="4.97348">
        <ele>302.1</ele>
        <time>2020-09-12T11:01:23Z</time>
      </trkpt>
      <trkpt lat="45.85064" lon="4.97352">
        <ele>301.9</ele>
        <time>2020-09-12T11:01:24Z</time>
      </trkpt>
      <trkpt lat="45.85072" lon="4.97354">
        <ele>301.7</ele>
        <time>2020-09-12T11:01:25Z</time>
      </trkpt>
      <trkpt lat="45.85081" lon="4.97357">
        <ele>301.6</ele>
        <time>2020-09-12T11:01:26Z</time>
      </trkpt>
      <trkpt lat="45.8509" lon="4.97361">
        <ele>298.7</ele>
        <time>2020-09-12T11:01:27Z</time>
      </trkpt>
      <trkpt lat="45.85098" lon="4.97365">
        <ele>298.4</ele>
        <time>2020-09-12T11:01:28Z</time>
      </trkpt>
      <trkpt lat="45.85106" lon="4.97369">
        <ele>298.1</ele>
        <time>2020-09-12T11:01:29Z</time>
      </trkpt>
      <trkpt lat="45.85115" lon="4.97373">
        <ele>297.8</ele>
        <time>2020-09-12T11:01:30Z</time>
      </trkpt>
      <trkpt lat="45.85123" lon="4.97376">
        <ele>297.6</ele>
        <time>2020-09-12T11:01:31Z</time>
      </trkpt>
      <trkpt lat="45.85133" lon="4.9738">
        <ele>297.3</ele>
        <time>2020-09-12T11:01:32Z</time>
      </trkpt>
      <trkpt lat="45.85143" lon="4.97382">
        <ele>297</ele>
        <time>2020-09-12T11:01:33Z</time>
      </trkpt>
      <trkpt lat="45.85152" lon="4.97385">
        <ele>296.8</ele>
        <time>2020-09-12T11:01:34Z</time>
      </trkpt>
      <trkpt lat="45.8516" lon="4.97389">
        <ele>296.7</ele>
        <time>2020-09-12T11:01:35Z</time>
      </trkpt>
      <trkpt lat="45.8517" lon="4.97392">
        <ele>293.8</ele>
        <time>2020-09-12T11:01:36Z</time>
      </trkpt>
      <trkpt lat="45.85181" lon="4.97395">
        <ele>293.6</ele>
        <time>2020-09-12T11:01:37Z</time>
      </trkpt>
      <trkpt lat="45.85198" lon="4.974">
        <ele>293</ele>
        <time>2020-09-12T11:01:39Z</time>
      </trkpt>
      <trkpt lat="45.85209" lon="4.97402">
        <ele>292.6</ele>
        <time>2020-09-12T11:01:40Z</time>
      </trkpt>
      <trkpt lat="45.8522" lon="4.97407">
        <ele>292.2</ele>
        <time>2020-09-12T11:01:41Z</time>
      </trkpt>
      <trkpt lat="45.8523" lon="4.9741">
        <ele>291.8</ele>
        <time>2020-09-12T11:01:42Z</time>
      </trkpt>
      <trkpt lat="45.8524" lon="4.97414">
        <ele>291.4</ele>
        <time>2020-09-12T11:01:43Z</time>
      </trkpt>
      <trkpt lat="45.8525" lon="4.97417">
        <ele>291</ele>
        <time>2020-09-12T11:01:44Z</time>
      </trkpt>
      <trkpt lat="45.85261" lon="4.97417">
        <ele>290.2</ele>
        <time>2020-09-12T11:01:45Z</time>
      </trkpt>
      <trkpt lat="45.85273" lon="4.97419">
        <ele>289.5</ele>
        <time>2020-09-12T11:01:46Z</time>
      </trkpt>
      <trkpt lat="45.85283" lon="4.97421">
        <ele>289.1</ele>
        <time>2020-09-12T11:01:47Z</time>
      </trkpt>
      <trkpt lat="45.85293" lon="4.97422">
        <ele>288.6</ele>
        <time>2020-09-12T11:01:48Z</time>
      </trkpt>
      <trkpt lat="45.85304" lon="4.97421">
        <ele>288.1</ele>
        <time>2020-09-12T11:01:49Z</time>
      </trkpt>
      <trkpt lat="45.85315" lon="4.9742">
        <ele>287.5</ele>
        <time>2020-09-12T11:01:50Z</time>
      </trkpt>
      <trkpt lat="45.85325" lon="4.97419">
        <ele>286.9</ele>
        <time>2020-09-12T11:01:51Z</time>
      </trkpt>
      <trkpt lat="45.85346" lon="4.97418">
        <ele>285.1</ele>
        <time>2020-09-12T11:01:53Z</time>
      </trkpt>
      <trkpt lat="45.85355" lon="4.97419">
        <ele>284.6</ele>
        <time>2020-09-12T11:01:54Z</time>
      </trkpt>
      <trkpt lat="45.85365" lon="4.97423">
        <ele>284.1</ele>
        <time>2020-09-12T11:01:55Z</time>
      </trkpt>
      <trkpt lat="45.85375" lon="4.97428">
        <ele>283.7</ele>
        <time>2020-09-12T11:01:56Z</time>
      </trkpt>
      <trkpt lat="45.85383" lon="4.97434">
        <ele>283.3</ele>
        <time>2020-09-12T11:01:57Z</time>
      </trkpt>
      <trkpt lat="45.85393" lon="4.9744">
        <ele>283</ele>
        <time>2020-09-12T11:01:58Z</time>
      </trkpt>
      <trkpt lat="45.85403" lon="4.97445">
        <ele>282.8</ele>
        <time>2020-09-12T11:01:59Z</time>
      </trkpt>
      <trkpt lat="45.85412" lon="4.9745">
        <ele>282.7</ele>
        <time>2020-09-12T11:02:00Z</time>
      </trkpt>
      <trkpt lat="45.85422" lon="4.97454">
        <ele>279.7</ele>
        <time>2020-09-12T11:02:01Z</time>
      </trkpt>
      <trkpt lat="45.85432" lon="4.97457">
        <ele>279.6</ele>
        <time>2020-09-12T11:02:02Z</time>
      </trkpt>
      <trkpt lat="45.85442" lon="4.97462">
        <ele>279.4</ele>
        <time>2020-09-12T11:02:03Z</time>
      </trkpt>
      <trkpt lat="45.85452" lon="4.97465">
        <ele>279.2</ele>
        <time>2020-09-12T11:02:04Z</time>
      </trkpt>
      <trkpt lat="45.85461" lon="4.97468">
        <ele>279</ele>
        <time>2020-09-12T11:02:05Z</time>
      </trkpt>
      <trkpt lat="45.85469" lon="4.97471">
        <ele>278.8</ele>
        <time>2020-09-12T11:02:06Z</time>
      </trkpt>
      <trkpt lat="45.8548" lon="4.97472">
        <ele>278.6</ele>
        <time>2020-09-12T11:02:07Z</time>
      </trkpt>
      <trkpt lat="45.8549" lon="4.97473">
        <ele>278.5</ele>
        <time>2020-09-12T11:02:08Z</time>
      </trkpt>
      <trkpt lat="45.855" lon="4.97472">
        <ele>278.4</ele>
        <time>2020-09-12T11:02:09Z</time>
      </trkpt>
      <trkpt lat="45.85509" lon="4.9747">
        <ele>276.3</ele>
        <time>2020-09-12T11:02:10Z</time>
      </trkpt>
      <trkpt lat="45.85518" lon="4.97467">
        <ele>276.1</ele>
        <time>2020-09-12T11:02:11Z</time>
      </trkpt>
      <trkpt lat="45.85526" lon="4.97463">
        <ele>275.8</ele>
        <time>2020-09-12T11:02:12Z</time>
      </trkpt>
      <trkpt lat="45.85533" lon="4.97459">
        <ele>275.7</ele>
        <time>2020-09-12T11:02:13Z</time>
      </trkpt>
      <trkpt lat="45.85541" lon="4.97455">
        <ele>275.5</ele>
        <time>2020-09-12T11:02:14Z</time>
      </trkpt>
      <trkpt lat="45.85547" lon="4.9745">
        <ele>275.3</ele>
        <time>2020-09-12T11:02:15Z</time>
      </trkpt>
      <trkpt lat="45.85553" lon="4.97447">
        <ele>275.1</ele>
        <time>2020-09-12T11:02:16Z</time>
      </trkpt>
      <trkpt lat="45.85561" lon="4.97443">
        <ele>274.9</ele>
        <time>2020-09-12T11:02:17Z</time>
      </trkpt>
      <trkpt lat="45.85568" lon="4.9744">
        <ele>274.7</ele>
        <time>2020-09-12T11:02:18Z</time>
      </trkpt>
      <trkpt lat="45.85574" lon="4.97437">
        <ele>274.4</ele>
        <time>2020-09-12T11:02:19Z</time>
      </trkpt>
      <trkpt lat="45.8558" lon="4.97433">
        <ele>274.2</ele>
        <time>2020-09-12T11:02:20Z</time>
      </trkpt>
      <trkpt lat="45.85588" lon="4.97429">
        <ele>273.4</ele>
        <time>2020-09-12T11:02:21Z</time>
      </trkpt>
      <trkpt lat="45.85595" lon="4.97426">
        <ele>273.5</ele>
        <time>2020-09-12T11:02:22Z</time>
      </trkpt>
      <trkpt lat="45.856" lon="4.97422">
        <ele>273.5</ele>
        <time>2020-09-12T11:02:23Z</time>
      </trkpt>
      <trkpt lat="45.85608" lon="4.97418">
        <ele>273.6</ele>
        <time>2020-09-12T11:02:24Z</time>
      </trkpt>
      <trkpt lat="45.85614" lon="4.97415">
        <ele>273.1</ele>
        <time>2020-09-12T11:02:25Z</time>
      </trkpt>
      <trkpt lat="45.85621" lon="4.97411">
        <ele>273.1</ele>
        <time>2020-09-12T11:02:26Z</time>
      </trkpt>
      <trkpt lat="45.85627" lon="4.97408">
        <ele>273.2</ele>
        <time>2020-09-12T11:02:27Z</time>
      </trkpt>
      <trkpt lat="45.85633" lon="4.97404">
        <ele>273.2</ele>
        <time>2020-09-12T11:02:28Z</time>
      </trkpt>
      <trkpt lat="45.85639" lon="4.97401">
        <ele>273.3</ele>
        <time>2020-09-12T11:02:29Z</time>
      </trkpt>
      <trkpt lat="45.85645" lon="4.97398">
        <ele>273.3</ele>
        <time>2020-09-12T11:02:30Z</time>
      </trkpt>
      <trkpt lat="45.85651" lon="4.97395">
        <ele>273.3</ele>
        <time>2020-09-12T11:02:31Z</time>
      </trkpt>
      <trkpt lat="45.85658" lon="4.97391">
        <ele>273.3</ele>
        <time>2020-09-12T11:02:32Z</time>
      </trkpt>
      <trkpt lat="45.85664" lon="4.97388">
        <ele>273.3</ele>
        <time>2020-09-12T11:02:33Z</time>
      </trkpt>
      <trkpt lat="45.8567" lon="4.97384">
        <ele>273.6</ele>
        <time>2020-09-12T11:02:34Z</time>
      </trkpt>
      <trkpt lat="45.85676" lon="4.97382">
        <ele>273.6</ele>
        <time>2020-09-12T11:02:35Z</time>
      </trkpt>
      <trkpt lat="45.85682" lon="4.97379">
        <ele>273.5</ele>
        <time>2020-09-12T11:02:36Z</time>
      </trkpt>
      <trkpt lat="45.85687" lon="4.97377">
        <ele>273.5</ele>
        <time>2020-09-12T11:02:37Z</time>
      </trkpt>
      <trkpt lat="45.85693" lon="4.97374">
        <ele>273.5</ele>
        <time>2020-09-12T11:02:38Z</time>
      </trkpt>
      <trkpt lat="45.85703" lon="4.97368">
        <ele>273.5</ele>
        <time>2020-09-12T11:02:40Z</time>
      </trkpt>
      <trkpt lat="45.85708" lon="4.97365">
        <ele>273.4</ele>
        <time>2020-09-12T11:02:41Z</time>
      </trkpt>
      <trkpt lat="45.85713" lon="4.97363">
        <ele>273.4</ele>
        <time>2020-09-12T11:02:42Z</time>
      </trkpt>
      <trkpt lat="45.85717" lon="4.9736">
        <ele>273.4</ele>
        <time>2020-09-12T11:02:43Z</time>
      </trkpt>
      <trkpt lat="45.85722" lon="4.97358">
        <ele>273.4</ele>
        <time>2020-09-12T11:02:44Z</time>
      </trkpt>
      <trkpt lat="45.85727" lon="4.97356">
        <ele>273.4</ele>
        <time>2020-09-12T11:02:45Z</time>
      </trkpt>
      <trkpt lat="45.85733" lon="4.97352">
        <ele>273.3</ele>
        <time>2020-09-12T11:02:46Z</time>
      </trkpt>
      <trkpt lat="45.85742" lon="4.97346">
        <ele>273.2</ele>
        <time>2020-09-12T11:02:48Z</time>
      </trkpt>
      <trkpt lat="45.8575" lon="4.97341">
        <ele>273.1</ele>
        <time>2020-09-12T11:02:50Z</time>
      </trkpt>
      <trkpt lat="45.85757" lon="4.97335">
        <ele>273.1</ele>
        <time>2020-09-12T11:02:52Z</time>
      </trkpt>
      <trkpt lat="45.85762" lon="4.97332">
        <ele>273.1</ele>
        <time>2020-09-12T11:02:53Z</time>
      </trkpt>
      <trkpt lat="45.85769" lon="4.97326">
        <ele>273.1</ele>
        <time>2020-09-12T11:02:55Z</time>
      </trkpt>
      <trkpt lat="45.85776" lon="4.97321">
        <ele>273.1</ele>
        <time>2020-09-12T11:02:57Z</time>
      </trkpt>
      <trkpt lat="45.85783" lon="4.97315">
        <ele>273.2</ele>
        <time>2020-09-12T11:02:59Z</time>
      </trkpt>
      <trkpt lat="45.85789" lon="4.97308">
        <ele>273.2</ele>
        <time>2020-09-12T11:03:01Z</time>
      </trkpt>
      <trkpt lat="45.85796" lon="4.97302">
        <ele>273.2</ele>
        <time>2020-09-12T11:03:03Z</time>
      </trkpt>
      <trkpt lat="45.85803" lon="4.97296">
        <ele>273.3</ele>
        <time>2020-09-12T11:03:05Z</time>
      </trkpt>
      <trkpt lat="45.8581" lon="4.97291">
        <ele>273.3</ele>
        <time>2020-09-12T11:03:07Z</time>
      </trkpt>
      <trkpt lat="45.85817" lon="4.97285">
        <ele>273.4</ele>
        <time>2020-09-12T11:03:09Z</time>
      </trkpt>
      <trkpt lat="45.85824" lon="4.9728">
        <ele>273.4</ele>
        <time>2020-09-12T11:03:11Z</time>
      </trkpt>
      <trkpt lat="45.85832" lon="4.97276">
        <ele>273.5</ele>
        <time>2020-09-12T11:03:13Z</time>
      </trkpt>
      <trkpt lat="45.85838" lon="4.97271">
        <ele>274.1</ele>
        <time>2020-09-12T11:03:15Z</time>
      </trkpt>
      <trkpt lat="45.85845" lon="4.97267">
        <ele>274.1</ele>
        <time>2020-09-12T11:03:17Z</time>
      </trkpt>
      <trkpt lat="45.85851" lon="4.97264">
        <ele>274.1</ele>
        <time>2020-09-12T11:03:19Z</time>
      </trkpt>
      <trkpt lat="45.85858" lon="4.97262">
        <ele>274.2</ele>
        <time>2020-09-12T11:03:21Z</time>
      </trkpt>
      <trkpt lat="45.85865" lon="4.97259">
        <ele>274.2</ele>
        <time>2020-09-12T11:03:23Z</time>
      </trkpt>
      <trkpt lat="45.85873" lon="4.97257">
        <ele>274.3</ele>
        <time>2020-09-12T11:03:25Z</time>
      </trkpt>
      <trkpt lat="45.8588" lon="4.97256">
        <ele>274.4</ele>
        <time>2020-09-12T11:03:27Z</time>
      </trkpt>
      <trkpt lat="45.85886" lon="4.97255">
        <ele>274.5</ele>
        <time>2020-09-12T11:03:29Z</time>
      </trkpt>
      <trkpt lat="45.85893" lon="4.97254">
        <ele>274.5</ele>
        <time>2020-09-12T11:03:31Z</time>
      </trkpt>
      <trkpt lat="45.859" lon="4.97255">
        <ele>274.6</ele>
        <time>2020-09-12T11:03:33Z</time>
      </trkpt>
      <trkpt lat="45.85908" lon="4.97255">
        <ele>274.8</ele>
        <time>2020-09-12T11:03:35Z</time>
      </trkpt>
      <trkpt lat="45.85915" lon="4.97255">
        <ele>274.9</ele>
        <time>2020-09-12T11:03:37Z</time>
      </trkpt>
      <trkpt lat="45.85923" lon="4.97255">
        <ele>275</ele>
        <time>2020-09-12T11:03:39Z</time>
      </trkpt>
      <trkpt lat="45.85931" lon="4.97256">
        <ele>275</ele>
        <time>2020-09-12T11:03:41Z</time>
      </trkpt>
      <trkpt lat="45.85938" lon="4.97256">
        <ele>275.1</ele>
        <time>2020-09-12T11:03:43Z</time>
      </trkpt>
      <trkpt lat="45.85946" lon="4.97257">
        <ele>275.1</ele>
        <time>2020-09-12T11:03:45Z</time>
      </trkpt>
      <trkpt lat="45.85955" lon="4.97257">
        <ele>275.1</ele>
        <time>2020-09-12T11:03:47Z</time>
      </trkpt>
      <trkpt lat="45.85963" lon="4.97257">
        <ele>275.2</ele>
        <time>2020-09-12T11:03:49Z</time>
      </trkpt>
      <trkpt lat="45.85972" lon="4.97258">
        <ele>275.3</ele>
        <time>2020-09-12T11:03:51Z</time>
      </trkpt>
      <trkpt lat="45.85977" lon="4.97258">
        <ele>275.3</ele>
        <time>2020-09-12T11:03:52Z</time>
      </trkpt>
      <trkpt lat="45.85986" lon="4.97258">
        <ele>275.5</ele>
        <time>2020-09-12T11:03:54Z</time>
      </trkpt>
      <trkpt lat="45.85991" lon="4.97259">
        <ele>275.6</ele>
        <time>2020-09-12T11:03:55Z</time>
      </trkpt>
      <trkpt lat="45.85996" lon="4.97259">
        <ele>275.6</ele>
        <time>2020-09-12T11:03:56Z</time>
      </trkpt>
      <trkpt lat="45.86005" lon="4.9726">
        <ele>275.6</ele>
        <time>2020-09-12T11:03:58Z</time>
      </trkpt>
      <trkpt lat="45.8601" lon="4.97262">
        <ele>275.5</ele>
        <time>2020-09-12T11:03:59Z</time>
      </trkpt>
      <trkpt lat="45.86015" lon="4.97263">
        <ele>275.5</ele>
        <time>2020-09-12T11:04:00Z</time>
      </trkpt>
      <trkpt lat="45.86021" lon="4.97264">
        <ele>275.4</ele>
        <time>2020-09-12T11:04:01Z</time>
      </trkpt>
      <trkpt lat="45.86025" lon="4.97266">
        <ele>275.3</ele>
        <time>2020-09-12T11:04:02Z</time>
      </trkpt>
      <trkpt lat="45.86031" lon="4.97267">
        <ele>275.3</ele>
        <time>2020-09-12T11:04:03Z</time>
      </trkpt>
      <trkpt lat="45.86036" lon="4.97269">
        <ele>275.3</ele>
        <time>2020-09-12T11:04:04Z</time>
      </trkpt>
      <trkpt lat="45.86041" lon="4.97271">
        <ele>275.2</ele>
        <time>2020-09-12T11:04:05Z</time>
      </trkpt>
      <trkpt lat="45.86049" lon="4.97272">
        <ele>275.2</ele>
        <time>2020-09-12T11:04:06Z</time>
      </trkpt>
      <trkpt lat="45.86055" lon="4.97274">
        <ele>275.2</ele>
        <time>2020-09-12T11:04:07Z</time>
      </trkpt>
      <trkpt lat="45.86061" lon="4.97275">
        <ele>275.2</ele>
        <time>2020-09-12T11:04:08Z</time>
      </trkpt>
      <trkpt lat="45.86067" lon="4.97277">
        <ele>275.2</ele>
        <time>2020-09-12T11:04:09Z</time>
      </trkpt>
      <trkpt lat="45.86073" lon="4.97278">
        <ele>275.2</ele>
        <time>2020-09-12T11:04:10Z</time>
      </trkpt>
      <trkpt lat="45.86078" lon="4.97279">
        <ele>275.2</ele>
        <time>2020-09-12T11:04:11Z</time>
      </trkpt>
      <trkpt lat="45.86085" lon="4.97281">
        <ele>275.3</ele>
        <time>2020-09-12T11:04:12Z</time>
      </trkpt>
      <trkpt lat="45.8609" lon="4.97283">
        <ele>275.3</ele>
        <time>2020-09-12T11:04:13Z</time>
      </trkpt>
      <trkpt lat="45.86097" lon="4.97285">
        <ele>275.3</ele>
        <time>2020-09-12T11:04:14Z</time>
      </trkpt>
      <trkpt lat="45.86104" lon="4.97288">
        <ele>275.2</ele>
        <time>2020-09-12T11:04:15Z</time>
      </trkpt>
      <trkpt lat="45.8611" lon="4.9729">
        <ele>275.2</ele>
        <time>2020-09-12T11:04:16Z</time>
      </trkpt>
      <trkpt lat="45.86117" lon="4.97292">
        <ele>275.2</ele>
        <time>2020-09-12T11:04:17Z</time>
      </trkpt>
      <trkpt lat="45.86124" lon="4.97294">
        <ele>275.2</ele>
        <time>2020-09-12T11:04:18Z</time>
      </trkpt>
      <trkpt lat="45.8613" lon="4.97296">
        <ele>275.3</ele>
        <time>2020-09-12T11:04:19Z</time>
      </trkpt>
      <trkpt lat="45.86136" lon="4.97298">
        <ele>275.3</ele>
        <time>2020-09-12T11:04:20Z</time>
      </trkpt>
      <trkpt lat="45.86143" lon="4.97301">
        <ele>275.3</ele>
        <time>2020-09-12T11:04:21Z</time>
      </trkpt>
      <trkpt lat="45.86149" lon="4.97304">
        <ele>275.4</ele>
        <time>2020-09-12T11:04:22Z</time>
      </trkpt>
      <trkpt lat="45.86155" lon="4.97305">
        <ele>275.4</ele>
        <time>2020-09-12T11:04:23Z</time>
      </trkpt>
      <trkpt lat="45.8616" lon="4.97307">
        <ele>275.5</ele>
        <time>2020-09-12T11:04:24Z</time>
      </trkpt>
      <trkpt lat="45.86169" lon="4.97311">
        <ele>276.9</ele>
        <time>2020-09-12T11:04:26Z</time>
      </trkpt>
      <trkpt lat="45.86174" lon="4.97314">
        <ele>276.9</ele>
        <time>2020-09-12T11:04:27Z</time>
      </trkpt>
      <trkpt lat="45.86182" lon="4.97319">
        <ele>277.1</ele>
        <time>2020-09-12T11:04:29Z</time>
      </trkpt>
      <trkpt lat="45.86191" lon="4.97325">
        <ele>277.4</ele>
        <time>2020-09-12T11:04:31Z</time>
      </trkpt>
      <trkpt lat="45.86197" lon="4.97326">
        <ele>277.6</ele>
        <time>2020-09-12T11:04:33Z</time>
      </trkpt>
      <trkpt lat="45.86201" lon="4.97323">
        <ele>277.8</ele>
        <time>2020-09-12T11:04:35Z</time>
      </trkpt>
      <trkpt lat="45.86198" lon="4.97319">
        <ele>277.7</ele>
        <time>2020-09-12T11:04:48Z</time>
      </trkpt>
      <trkpt lat="45.86194" lon="4.97312">
        <ele>277.5</ele>
        <time>2020-09-12T11:04:50Z</time>
      </trkpt>
      <trkpt lat="45.86187" lon="4.97304">
        <ele>277.3</ele>
        <time>2020-09-12T11:04:52Z</time>
      </trkpt>
      <trkpt lat="45.86183" lon="4.97301">
        <ele>277.2</ele>
        <time>2020-09-12T11:04:53Z</time>
      </trkpt>
      <trkpt lat="45.86178" lon="4.97296">
        <ele>277.1</ele>
        <time>2020-09-12T11:04:54Z</time>
      </trkpt>
      <trkpt lat="45.86173" lon="4.97292">
        <ele>277</ele>
        <time>2020-09-12T11:04:55Z</time>
      </trkpt>
      <trkpt lat="45.86168" lon="4.97287">
        <ele>276.8</ele>
        <time>2020-09-12T11:04:56Z</time>
      </trkpt>
      <trkpt lat="45.86162" lon="4.97283">
        <ele>275.3</ele>
        <time>2020-09-12T11:04:57Z</time>
      </trkpt>
      <trkpt lat="45.86157" lon="4.9728">
        <ele>275.3</ele>
        <time>2020-09-12T11:04:58Z</time>
      </trkpt>
      <trkpt lat="45.86152" lon="4.97277">
        <ele>275.3</ele>
        <time>2020-09-12T11:04:59Z</time>
      </trkpt>
      <trkpt lat="45.86145" lon="4.97274">
        <ele>275.3</ele>
        <time>2020-09-12T11:05:00Z</time>
      </trkpt>
      <trkpt lat="45.8614" lon="4.97271">
        <ele>275.3</ele>
        <time>2020-09-12T11:05:01Z</time>
      </trkpt>
      <trkpt lat="45.86133" lon="4.9727">
        <ele>275.3</ele>
        <time>2020-09-12T11:05:02Z</time>
      </trkpt>
      <trkpt lat="45.86128" lon="4.97267">
        <ele>275.3</ele>
        <time>2020-09-12T11:05:03Z</time>
      </trkpt>
      <trkpt lat="45.86123" lon="4.97264">
        <ele>275.3</ele>
        <time>2020-09-12T11:05:04Z</time>
      </trkpt>
      <trkpt lat="45.86118" lon="4.9726">
        <ele>275.4</ele>
        <time>2020-09-12T11:05:05Z</time>
      </trkpt>
      <trkpt lat="45.86113" lon="4.97256">
        <ele>275.4</ele>
        <time>2020-09-12T11:05:06Z</time>
      </trkpt>
      <trkpt lat="45.86108" lon="4.97251">
        <ele>275.5</ele>
        <time>2020-09-12T11:05:07Z</time>
      </trkpt>
      <trkpt lat="45.86105" lon="4.97245">
        <ele>275.7</ele>
        <time>2020-09-12T11:05:08Z</time>
      </trkpt>
      <trkpt lat="45.86102" lon="4.97239">
        <ele>275.7</ele>
        <time>2020-09-12T11:05:09Z</time>
      </trkpt>
      <trkpt lat="45.861" lon="4.97232">
        <ele>275.7</ele>
        <time>2020-09-12T11:05:10Z</time>
      </trkpt>
      <trkpt lat="45.86099" lon="4.97226">
        <ele>275.7</ele>
        <time>2020-09-12T11:05:11Z</time>
      </trkpt>
      <trkpt lat="45.86097" lon="4.97219">
        <ele>275.7</ele>
        <time>2020-09-12T11:05:12Z</time>
      </trkpt>
      <trkpt lat="45.86097" lon="4.97211">
        <ele>275.6</ele>
        <time>2020-09-12T11:05:13Z</time>
      </trkpt>
      <trkpt lat="45.86097" lon="4.97204">
        <ele>275.7</ele>
        <time>2020-09-12T11:05:14Z</time>
      </trkpt>
      <trkpt lat="45.86097" lon="4.97197">
        <ele>275.7</ele>
        <time>2020-09-12T11:05:15Z</time>
      </trkpt>
      <trkpt lat="45.86098" lon="4.9719">
        <ele>275.7</ele>
        <time>2020-09-12T11:05:16Z</time>
      </trkpt>
      <trkpt lat="45.86098" lon="4.97182">
        <ele>275.7</ele>
        <time>2020-09-12T11:05:17Z</time>
      </trkpt>
      <trkpt lat="45.86098" lon="4.97174">
        <ele>275.8</ele>
        <time>2020-09-12T11:05:18Z</time>
      </trkpt>
      <trkpt lat="45.86097" lon="4.97167">
        <ele>275.8</ele>
        <time>2020-09-12T11:05:19Z</time>
      </trkpt>
      <trkpt lat="45.86097" lon="4.9716">
        <ele>275.9</ele>
        <time>2020-09-12T11:05:20Z</time>
      </trkpt>
      <trkpt lat="45.86097" lon="4.97151">
        <ele>275.8</ele>
        <time>2020-09-12T11:05:21Z</time>
      </trkpt>
      <trkpt lat="45.86098" lon="4.97145">
        <ele>275.8</ele>
        <time>2020-09-12T11:05:22Z</time>
      </trkpt>
      <trkpt lat="45.86096" lon="4.97137">
        <ele>275.8</ele>
        <time>2020-09-12T11:05:23Z</time>
      </trkpt>
      <trkpt lat="45.86097" lon="4.9713">
        <ele>275.8</ele>
        <time>2020-09-12T11:05:24Z</time>
      </trkpt>
      <trkpt lat="45.86097" lon="4.97123">
        <ele>275.8</ele>
        <time>2020-09-12T11:05:25Z</time>
      </trkpt>
      <trkpt lat="45.86097" lon="4.97117">
        <ele>275.8</ele>
        <time>2020-09-12T11:05:26Z</time>
      </trkpt>
      <trkpt lat="45.86097" lon="4.9711">
        <ele>275.9</ele>
        <time>2020-09-12T11:05:27Z</time>
      </trkpt>
      <trkpt lat="45.86096" lon="4.97102">
        <ele>275.9</ele>
        <time>2020-09-12T11:05:28Z</time>
      </trkpt>
      <trkpt lat="45.86096" lon="4.97096">
        <ele>275.9</ele>
        <time>2020-09-12T11:05:29Z</time>
      </trkpt>
      <trkpt lat="45.86096" lon="4.97088">
        <ele>275.9</ele>
        <time>2020-09-12T11:05:30Z</time>
      </trkpt>
      <trkpt lat="45.86096" lon="4.9708">
        <ele>275.3</ele>
        <time>2020-09-12T11:05:31Z</time>
      </trkpt>
      <trkpt lat="45.86096" lon="4.97074">
        <ele>275.2</ele>
        <time>2020-09-12T11:05:32Z</time>
      </trkpt>
      <trkpt lat="45.86095" lon="4.97066">
        <ele>275</ele>
        <time>2020-09-12T11:05:33Z</time>
      </trkpt>
      <trkpt lat="45.86094" lon="4.97059">
        <ele>274.7</ele>
        <time>2020-09-12T11:05:34Z</time>
      </trkpt>
      <trkpt lat="45.86094" lon="4.97051">
        <ele>274.5</ele>
        <time>2020-09-12T11:05:35Z</time>
      </trkpt>
      <trkpt lat="45.86094" lon="4.97043">
        <ele>274.2</ele>
        <time>2020-09-12T11:05:36Z</time>
      </trkpt>
      <trkpt lat="45.86094" lon="4.97036">
        <ele>274</ele>
        <time>2020-09-12T11:05:37Z</time>
      </trkpt>
      <trkpt lat="45.86095" lon="4.97028">
        <ele>273.7</ele>
        <time>2020-09-12T11:05:38Z</time>
      </trkpt>
      <trkpt lat="45.86095" lon="4.9702">
        <ele>273.4</ele>
        <time>2020-09-12T11:05:39Z</time>
      </trkpt>
      <trkpt lat="45.86095" lon="4.97013">
        <ele>273.2</ele>
        <time>2020-09-12T11:05:40Z</time>
      </trkpt>
      <trkpt lat="45.86096" lon="4.97006">
        <ele>273</ele>
        <time>2020-09-12T11:05:41Z</time>
      </trkpt>
      <trkpt lat="45.86095" lon="4.96999">
        <ele>272.3</ele>
        <time>2020-09-12T11:05:42Z</time>
      </trkpt>
      <trkpt lat="45.86095" lon="4.96992">
        <ele>272.3</ele>
        <time>2020-09-12T11:05:43Z</time>
      </trkpt>
      <trkpt lat="45.86096" lon="4.96983">
        <ele>272.4</ele>
        <time>2020-09-12T11:05:44Z</time>
      </trkpt>
      <trkpt lat="45.86096" lon="4.96976">
        <ele>272.5</ele>
        <time>2020-09-12T11:05:45Z</time>
      </trkpt>
      <trkpt lat="45.86096" lon="4.96968">
        <ele>272.6</ele>
        <time>2020-09-12T11:05:46Z</time>
      </trkpt>
      <trkpt lat="45.86095" lon="4.96961">
        <ele>272.7</ele>
        <time>2020-09-12T11:05:47Z</time>
      </trkpt>
      <trkpt lat="45.86095" lon="4.96953">
        <ele>272.7</ele>
        <time>2020-09-12T11:05:48Z</time>
      </trkpt>
      <trkpt lat="45.86096" lon="4.96946">
        <ele>272.8</ele>
        <time>2020-09-12T11:05:49Z</time>
      </trkpt>
      <trkpt lat="45.86096" lon="4.96938">
        <ele>272.8</ele>
        <time>2020-09-12T11:05:50Z</time>
      </trkpt>
      <trkpt lat="45.86095" lon="4.9693">
        <ele>272.8</ele>
        <time>2020-09-12T11:05:51Z</time>
      </trkpt>
      <trkpt lat="45.86095" lon="4.96924">
        <ele>272.9</ele>
        <time>2020-09-12T11:05:52Z</time>
      </trkpt>
      <trkpt lat="45.86094" lon="4.96917">
        <ele>272.8</ele>
        <time>2020-09-12T11:05:53Z</time>
      </trkpt>
      <trkpt lat="45.86094" lon="4.9691">
        <ele>272.8</ele>
        <time>2020-09-12T11:05:54Z</time>
      </trkpt>
      <trkpt lat="45.86094" lon="4.96903">
        <ele>272.7</ele>
        <time>2020-09-12T11:05:55Z</time>
      </trkpt>
      <trkpt lat="45.86094" lon="4.96895">
        <ele>272.7</ele>
        <time>2020-09-12T11:05:56Z</time>
      </trkpt>
      <trkpt lat="45.86093" lon="4.96883">
        <ele>272.6</ele>
        <time>2020-09-12T11:05:58Z</time>
      </trkpt>
      <trkpt lat="45.86093" lon="4.96875">
        <ele>272.5</ele>
        <time>2020-09-12T11:05:59Z</time>
      </trkpt>
      <trkpt lat="45.86092" lon="4.96868">
        <ele>272.4</ele>
        <time>2020-09-12T11:06:00Z</time>
      </trkpt>
      <trkpt lat="45.86092" lon="4.96861">
        <ele>272.4</ele>
        <time>2020-09-12T11:06:01Z</time>
      </trkpt>
      <trkpt lat="45.86091" lon="4.96848">
        <ele>272.3</ele>
        <time>2020-09-12T11:06:03Z</time>
      </trkpt>
      <trkpt lat="45.86092" lon="4.96841">
        <ele>272.2</ele>
        <time>2020-09-12T11:06:04Z</time>
      </trkpt>
      <trkpt lat="45.86092" lon="4.96834">
        <ele>272.1</ele>
        <time>2020-09-12T11:06:05Z</time>
      </trkpt>
      <trkpt lat="45.86093" lon="4.96826">
        <ele>272.1</ele>
        <time>2020-09-12T11:06:06Z</time>
      </trkpt>
      <trkpt lat="45.86091" lon="4.96817">
        <ele>272.1</ele>
        <time>2020-09-12T11:06:07Z</time>
      </trkpt>
      <trkpt lat="45.86091" lon="4.96809">
        <ele>272.1</ele>
        <time>2020-09-12T11:06:08Z</time>
      </trkpt>
      <trkpt lat="45.8609" lon="4.96801">
        <ele>272.1</ele>
        <time>2020-09-12T11:06:09Z</time>
      </trkpt>
      <trkpt lat="45.8609" lon="4.96794">
        <ele>272.2</ele>
        <time>2020-09-12T11:06:10Z</time>
      </trkpt>
      <trkpt lat="45.8609" lon="4.96787">
        <ele>272.2</ele>
        <time>2020-09-12T11:06:11Z</time>
      </trkpt>
      <trkpt lat="45.8609" lon="4.96779">
        <ele>272.2</ele>
        <time>2020-09-12T11:06:12Z</time>
      </trkpt>
      <trkpt lat="45.8609" lon="4.96771">
        <ele>272.1</ele>
        <time>2020-09-12T11:06:13Z</time>
      </trkpt>
      <trkpt lat="45.86089" lon="4.96764">
        <ele>272.1</ele>
        <time>2020-09-12T11:06:14Z</time>
      </trkpt>
      <trkpt lat="45.86089" lon="4.96756">
        <ele>272.1</ele>
        <time>2020-09-12T11:06:15Z</time>
      </trkpt>
      <trkpt lat="45.8609" lon="4.96748">
        <ele>272</ele>
        <time>2020-09-12T11:06:16Z</time>
      </trkpt>
      <trkpt lat="45.86089" lon="4.96739">
        <ele>272</ele>
        <time>2020-09-12T11:06:17Z</time>
      </trkpt>
      <trkpt lat="45.8609" lon="4.96732">
        <ele>272</ele>
        <time>2020-09-12T11:06:18Z</time>
      </trkpt>
      <trkpt lat="45.8609" lon="4.96725">
        <ele>271.9</ele>
        <time>2020-09-12T11:06:19Z</time>
      </trkpt>
      <trkpt lat="45.86091" lon="4.96717">
        <ele>271.9</ele>
        <time>2020-09-12T11:06:20Z</time>
      </trkpt>
      <trkpt lat="45.86091" lon="4.9671">
        <ele>271.8</ele>
        <time>2020-09-12T11:06:21Z</time>
      </trkpt>
      <trkpt lat="45.86092" lon="4.96703">
        <ele>271.8</ele>
        <time>2020-09-12T11:06:22Z</time>
      </trkpt>
      <trkpt lat="45.86091" lon="4.96695">
        <ele>271.7</ele>
        <time>2020-09-12T11:06:23Z</time>
      </trkpt>
      <trkpt lat="45.86091" lon="4.96688">
        <ele>271.6</ele>
        <time>2020-09-12T11:06:24Z</time>
      </trkpt>
      <trkpt lat="45.86091" lon="4.9668">
        <ele>271.5</ele>
        <time>2020-09-12T11:06:25Z</time>
      </trkpt>
      <trkpt lat="45.86091" lon="4.96673">
        <ele>271.3</ele>
        <time>2020-09-12T11:06:26Z</time>
      </trkpt>
      <trkpt lat="45.86091" lon="4.96666">
        <ele>270.9</ele>
        <time>2020-09-12T11:06:27Z</time>
      </trkpt>
      <trkpt lat="45.86091" lon="4.96659">
        <ele>270.9</ele>
        <time>2020-09-12T11:06:28Z</time>
      </trkpt>
      <trkpt lat="45.86091" lon="4.96652">
        <ele>270.8</ele>
        <time>2020-09-12T11:06:29Z</time>
      </trkpt>
      <trkpt lat="45.86092" lon="4.96638">
        <ele>270.6</ele>
        <time>2020-09-12T11:06:31Z</time>
      </trkpt>
      <trkpt lat="45.86093" lon="4.9663">
        <ele>270.4</ele>
        <time>2020-09-12T11:06:32Z</time>
      </trkpt>
      <trkpt lat="45.86094" lon="4.96623">
        <ele>270.3</ele>
        <time>2020-09-12T11:06:33Z</time>
      </trkpt>
      <trkpt lat="45.86093" lon="4.96617">
        <ele>270.1</ele>
        <time>2020-09-12T11:06:34Z</time>
      </trkpt>
      <trkpt lat="45.86093" lon="4.96609">
        <ele>269.9</ele>
        <time>2020-09-12T11:06:35Z</time>
      </trkpt>
      <trkpt lat="45.86093" lon="4.96602">
        <ele>269.6</ele>
        <time>2020-09-12T11:06:36Z</time>
      </trkpt>
      <trkpt lat="45.86092" lon="4.96595">
        <ele>269.2</ele>
        <time>2020-09-12T11:06:37Z</time>
      </trkpt>
      <trkpt lat="45.86092" lon="4.96587">
        <ele>268.9</ele>
        <time>2020-09-12T11:06:38Z</time>
      </trkpt>
      <trkpt lat="45.86092" lon="4.96581">
        <ele>268.8</ele>
        <time>2020-09-12T11:06:39Z</time>
      </trkpt>
      <trkpt lat="45.86092" lon="4.96573">
        <ele>269.2</ele>
        <time>2020-09-12T11:06:40Z</time>
      </trkpt>
      <trkpt lat="45.86092" lon="4.96566">
        <ele>269.5</ele>
        <time>2020-09-12T11:06:41Z</time>
      </trkpt>
      <trkpt lat="45.86092" lon="4.96558">
        <ele>269.8</ele>
        <time>2020-09-12T11:06:42Z</time>
      </trkpt>
      <trkpt lat="45.86092" lon="4.9655">
        <ele>270.1</ele>
        <time>2020-09-12T11:06:43Z</time>
      </trkpt>
      <trkpt lat="45.86092" lon="4.96543">
        <ele>270.3</ele>
        <time>2020-09-12T11:06:44Z</time>
      </trkpt>
      <trkpt lat="45.86092" lon="4.96534">
        <ele>270.5</ele>
        <time>2020-09-12T11:06:45Z</time>
      </trkpt>
      <trkpt lat="45.86092" lon="4.96527">
        <ele>270.6</ele>
        <time>2020-09-12T11:06:46Z</time>
      </trkpt>
      <trkpt lat="45.86092" lon="4.96519">
        <ele>270.7</ele>
        <time>2020-09-12T11:06:47Z</time>
      </trkpt>
      <trkpt lat="45.86093" lon="4.96512">
        <ele>270.8</ele>
        <time>2020-09-12T11:06:48Z</time>
      </trkpt>
      <trkpt lat="45.86092" lon="4.96505">
        <ele>270.9</ele>
        <time>2020-09-12T11:06:49Z</time>
      </trkpt>
      <trkpt lat="45.86092" lon="4.96498">
        <ele>271.1</ele>
        <time>2020-09-12T11:06:50Z</time>
      </trkpt>
      <trkpt lat="45.86091" lon="4.9649">
        <ele>271.1</ele>
        <time>2020-09-12T11:06:51Z</time>
      </trkpt>
      <trkpt lat="45.86092" lon="4.96483">
        <ele>271.1</ele>
        <time>2020-09-12T11:06:52Z</time>
      </trkpt>
      <trkpt lat="45.86092" lon="4.96476">
        <ele>271.2</ele>
        <time>2020-09-12T11:06:53Z</time>
      </trkpt>
      <trkpt lat="45.86092" lon="4.96468">
        <ele>271.2</ele>
        <time>2020-09-12T11:06:54Z</time>
      </trkpt>
      <trkpt lat="45.86092" lon="4.96461">
        <ele>271.2</ele>
        <time>2020-09-12T11:06:55Z</time>
      </trkpt>
      <trkpt lat="45.86092" lon="4.96455">
        <ele>271.2</ele>
        <time>2020-09-12T11:06:56Z</time>
      </trkpt>
      <trkpt lat="45.86092" lon="4.96448">
        <ele>271.2</ele>
        <time>2020-09-12T11:06:57Z</time>
      </trkpt>
      <trkpt lat="45.86092" lon="4.96441">
        <ele>271.1</ele>
        <time>2020-09-12T11:06:58Z</time>
      </trkpt>
      <trkpt lat="45.86093" lon="4.96433">
        <ele>271.1</ele>
        <time>2020-09-12T11:06:59Z</time>
      </trkpt>
      <trkpt lat="45.86093" lon="4.96425">
        <ele>271.1</ele>
        <time>2020-09-12T11:07:00Z</time>
      </trkpt>
      <trkpt lat="45.86093" lon="4.96417">
        <ele>271.1</ele>
        <time>2020-09-12T11:07:01Z</time>
      </trkpt>
      <trkpt lat="45.86093" lon="4.96409">
        <ele>270.8</ele>
        <time>2020-09-12T11:07:02Z</time>
      </trkpt>
      <trkpt lat="45.86093" lon="4.96401">
        <ele>270.7</ele>
        <time>2020-09-12T11:07:03Z</time>
      </trkpt>
      <trkpt lat="45.86093" lon="4.96393">
        <ele>270.7</ele>
        <time>2020-09-12T11:07:04Z</time>
      </trkpt>
      <trkpt lat="45.86093" lon="4.96386">
        <ele>270.6</ele>
        <time>2020-09-12T11:07:05Z</time>
      </trkpt>
      <trkpt lat="45.86093" lon="4.96378">
        <ele>270.5</ele>
        <time>2020-09-12T11:07:06Z</time>
      </trkpt>
      <trkpt lat="45.86093" lon="4.96371">
        <ele>270.5</ele>
        <time>2020-09-12T11:07:07Z</time>
      </trkpt>
      <trkpt lat="45.86093" lon="4.96364">
        <ele>270.4</ele>
        <time>2020-09-12T11:07:08Z</time>
      </trkpt>
      <trkpt lat="45.86092" lon="4.96356">
        <ele>270.3</ele>
        <time>2020-09-12T11:07:09Z</time>
      </trkpt>
      <trkpt lat="45.86093" lon="4.96348">
        <ele>270.3</ele>
        <time>2020-09-12T11:07:10Z</time>
      </trkpt>
      <trkpt lat="45.86093" lon="4.9634">
        <ele>270.2</ele>
        <time>2020-09-12T11:07:11Z</time>
      </trkpt>
      <trkpt lat="45.86092" lon="4.96334">
        <ele>270.1</ele>
        <time>2020-09-12T11:07:12Z</time>
      </trkpt>
      <trkpt lat="45.86093" lon="4.96326">
        <ele>270</ele>
        <time>2020-09-12T11:07:13Z</time>
      </trkpt>
      <trkpt lat="45.86093" lon="4.96318">
        <ele>269.9</ele>
        <time>2020-09-12T11:07:14Z</time>
      </trkpt>
      <trkpt lat="45.86093" lon="4.9631">
        <ele>269.9</ele>
        <time>2020-09-12T11:07:15Z</time>
      </trkpt>
      <trkpt lat="45.86093" lon="4.96303">
        <ele>270</ele>
        <time>2020-09-12T11:07:16Z</time>
      </trkpt>
      <trkpt lat="45.86094" lon="4.96295">
        <ele>270</ele>
        <time>2020-09-12T11:07:17Z</time>
      </trkpt>
      <trkpt lat="45.86094" lon="4.96288">
        <ele>270</ele>
        <time>2020-09-12T11:07:18Z</time>
      </trkpt>
      <trkpt lat="45.86094" lon="4.96281">
        <ele>270.1</ele>
        <time>2020-09-12T11:07:19Z</time>
      </trkpt>
      <trkpt lat="45.86094" lon="4.96273">
        <ele>270.2</ele>
        <time>2020-09-12T11:07:20Z</time>
      </trkpt>
      <trkpt lat="45.86094" lon="4.96265">
        <ele>270.3</ele>
        <time>2020-09-12T11:07:21Z</time>
      </trkpt>
      <trkpt lat="45.86094" lon="4.96257">
        <ele>270.4</ele>
        <time>2020-09-12T11:07:22Z</time>
      </trkpt>
      <trkpt lat="45.86094" lon="4.9625">
        <ele>270.5</ele>
        <time>2020-09-12T11:07:23Z</time>
      </trkpt>
      <trkpt lat="45.86094" lon="4.96243">
        <ele>270.5</ele>
        <time>2020-09-12T11:07:24Z</time>
      </trkpt>
      <trkpt lat="45.86093" lon="4.96234">
        <ele>270.3</ele>
        <time>2020-09-12T11:07:25Z</time>
      </trkpt>
      <trkpt lat="45.86093" lon="4.96226">
        <ele>270.2</ele>
        <time>2020-09-12T11:07:26Z</time>
      </trkpt>
      <trkpt lat="45.86094" lon="4.96218">
        <ele>270.1</ele>
        <time>2020-09-12T11:07:27Z</time>
      </trkpt>
      <trkpt lat="45.86094" lon="4.9621">
        <ele>270</ele>
        <time>2020-09-12T11:07:28Z</time>
      </trkpt>
      <trkpt lat="45.86093" lon="4.96203">
        <ele>270</ele>
        <time>2020-09-12T11:07:29Z</time>
      </trkpt>
      <trkpt lat="45.86092" lon="4.96196">
        <ele>270</ele>
        <time>2020-09-12T11:07:30Z</time>
      </trkpt>
      <trkpt lat="45.86093" lon="4.96188">
        <ele>269.9</ele>
        <time>2020-09-12T11:07:31Z</time>
      </trkpt>
      <trkpt lat="45.86093" lon="4.96181">
        <ele>269.9</ele>
        <time>2020-09-12T11:07:32Z</time>
      </trkpt>
      <trkpt lat="45.86093" lon="4.96174">
        <ele>270</ele>
        <time>2020-09-12T11:07:33Z</time>
      </trkpt>
      <trkpt lat="45.86092" lon="4.96166">
        <ele>270</ele>
        <time>2020-09-12T11:07:34Z</time>
      </trkpt>
      <trkpt lat="45.86092" lon="4.96158">
        <ele>270</ele>
        <time>2020-09-12T11:07:35Z</time>
      </trkpt>
      <trkpt lat="45.86092" lon="4.96151">
        <ele>270</ele>
        <time>2020-09-12T11:07:36Z</time>
      </trkpt>
      <trkpt lat="45.86092" lon="4.96144">
        <ele>270</ele>
        <time>2020-09-12T11:07:37Z</time>
      </trkpt>
      <trkpt lat="45.86093" lon="4.96137">
        <ele>270</ele>
        <time>2020-09-12T11:07:38Z</time>
      </trkpt>
      <trkpt lat="45.86094" lon="4.96122">
        <ele>270</ele>
        <time>2020-09-12T11:07:40Z</time>
      </trkpt>
      <trkpt lat="45.86093" lon="4.96114">
        <ele>270</ele>
        <time>2020-09-12T11:07:41Z</time>
      </trkpt>
      <trkpt lat="45.86094" lon="4.96101">
        <ele>270</ele>
        <time>2020-09-12T11:07:43Z</time>
      </trkpt>
      <trkpt lat="45.86094" lon="4.96094">
        <ele>270</ele>
        <time>2020-09-12T11:07:44Z</time>
      </trkpt>
      <trkpt lat="45.86094" lon="4.96072">
        <ele>270.1</ele>
        <time>2020-09-12T11:07:47Z</time>
      </trkpt>
      <trkpt lat="45.86093" lon="4.96064">
        <ele>270.2</ele>
        <time>2020-09-12T11:07:48Z</time>
      </trkpt>
      <trkpt lat="45.86094" lon="4.96057">
        <ele>270.2</ele>
        <time>2020-09-12T11:07:49Z</time>
      </trkpt>
      <trkpt lat="45.86094" lon="4.9605">
        <ele>270.3</ele>
        <time>2020-09-12T11:07:50Z</time>
      </trkpt>
      <trkpt lat="45.86094" lon="4.96043">
        <ele>270.3</ele>
        <time>2020-09-12T11:07:51Z</time>
      </trkpt>
      <trkpt lat="45.86094" lon="4.96036">
        <ele>270.4</ele>
        <time>2020-09-12T11:07:52Z</time>
      </trkpt>
      <trkpt lat="45.86095" lon="4.96028">
        <ele>270.4</ele>
        <time>2020-09-12T11:07:53Z</time>
      </trkpt>
      <trkpt lat="45.86095" lon="4.96022">
        <ele>270.5</ele>
        <time>2020-09-12T11:07:54Z</time>
      </trkpt>
      <trkpt lat="45.86096" lon="4.96014">
        <ele>270.6</ele>
        <time>2020-09-12T11:07:55Z</time>
      </trkpt>
      <trkpt lat="45.86098" lon="4.96002">
        <ele>270.7</ele>
        <time>2020-09-12T11:07:57Z</time>
      </trkpt>
      <trkpt lat="45.86101" lon="4.9599">
        <ele>270.7</ele>
        <time>2020-09-12T11:07:59Z</time>
      </trkpt>
      <trkpt lat="45.86103" lon="4.95983">
        <ele>270.7</ele>
        <time>2020-09-12T11:08:00Z</time>
      </trkpt>
      <trkpt lat="45.86104" lon="4.95976">
        <ele>270.6</ele>
        <time>2020-09-12T11:08:01Z</time>
      </trkpt>
      <trkpt lat="45.86105" lon="4.9597">
        <ele>270.6</ele>
        <time>2020-09-12T11:08:02Z</time>
      </trkpt>
      <trkpt lat="45.86109" lon="4.95959">
        <ele>270.6</ele>
        <time>2020-09-12T11:08:04Z</time>
      </trkpt>
      <trkpt lat="45.86111" lon="4.95951">
        <ele>270.6</ele>
        <time>2020-09-12T11:08:06Z</time>
      </trkpt>
      <trkpt lat="45.86113" lon="4.95944">
        <ele>270.6</ele>
        <time>2020-09-12T11:08:08Z</time>
      </trkpt>
      <trkpt lat="45.86107" lon="4.95944">
        <ele>270.6</ele>
        <time>2020-09-12T11:08:19Z</time>
      </trkpt>
      <trkpt lat="45.86102" lon="4.95945">
        <ele>270.6</ele>
        <time>2020-09-12T11:08:24Z</time>
      </trkpt>
      <trkpt lat="45.86097" lon="4.95946">
        <ele>270.7</ele>
        <time>2020-09-12T11:08:30Z</time>
      </trkpt>
      <trkpt lat="45.86092" lon="4.95947">
        <ele>270.7</ele>
        <time>2020-09-12T11:08:34Z</time>
      </trkpt>
      <trkpt lat="45.86086" lon="4.95947">
        <ele>270.7</ele>
        <time>2020-09-12T11:08:38Z</time>
      </trkpt>
      <trkpt lat="45.86081" lon="4.95948">
        <ele>271.5</ele>
        <time>2020-09-12T11:08:42Z</time>
      </trkpt>
      <trkpt lat="45.86075" lon="4.95949">
        <ele>271.5</ele>
        <time>2020-09-12T11:08:51Z</time>
      </trkpt>
      <trkpt lat="45.86071" lon="4.95951">
        <ele>271.5</ele>
        <time>2020-09-12T11:08:56Z</time>
      </trkpt>
      <trkpt lat="45.86066" lon="4.95951">
        <ele>271.6</ele>
        <time>2020-09-12T11:09:03Z</time>
      </trkpt>
      <trkpt lat="45.86063" lon="4.95952">
        <ele>271.6</ele>
        <time>2020-09-12T11:09:30Z</time>
      </trkpt>
      <trkpt lat="45.86063" lon="4.95952">
        <ele>271.6</ele>
        <time>2020-09-12T11:09:31Z</time>
      </trkpt>
      <trkpt lat="45.86063" lon="4.95955">
        <ele>271.6</ele>
        <time>2020-09-12T11:10:00Z</time>
      </trkpt>
      <trkpt lat="45.86063" lon="4.95954">
        <ele>271.6</ele>
        <time>2020-09-12T11:10:01Z</time>
      </trkpt>
      <trkpt lat="45.8582" lon="4.95944">
        <ele>272.9</ele>
        <time>2020-09-12T11:12:33Z</time>
      </trkpt>
      <trkpt lat="45.8581" lon="4.95944">
        <ele>272.8</ele>
        <time>2020-09-12T11:12:35Z</time>
      </trkpt>
      <trkpt lat="45.85803" lon="4.95945">
        <ele>272.7</ele>
        <time>2020-09-12T11:12:36Z</time>
      </trkpt>
      <trkpt lat="45.85796" lon="4.95944">
        <ele>272.7</ele>
        <time>2020-09-12T11:12:37Z</time>
      </trkpt>
      <trkpt lat="45.8579" lon="4.95943">
        <ele>272.6</ele>
        <time>2020-09-12T11:12:38Z</time>
      </trkpt>
      <trkpt lat="45.85783" lon="4.95942">
        <ele>272.5</ele>
        <time>2020-09-12T11:12:39Z</time>
      </trkpt>
      <trkpt lat="45.85776" lon="4.95941">
        <ele>272.4</ele>
        <time>2020-09-12T11:12:40Z</time>
      </trkpt>
      <trkpt lat="45.85769" lon="4.95941">
        <ele>272.3</ele>
        <time>2020-09-12T11:12:41Z</time>
      </trkpt>
      <trkpt lat="45.85762" lon="4.9594">
        <ele>272.2</ele>
        <time>2020-09-12T11:12:42Z</time>
      </trkpt>
      <trkpt lat="45.85754" lon="4.95938">
        <ele>272</ele>
        <time>2020-09-12T11:12:43Z</time>
      </trkpt>
      <trkpt lat="45.85747" lon="4.95936">
        <ele>271.6</ele>
        <time>2020-09-12T11:12:44Z</time>
      </trkpt>
      <trkpt lat="45.8574" lon="4.95935">
        <ele>271.5</ele>
        <time>2020-09-12T11:12:45Z</time>
      </trkpt>
      <trkpt lat="45.85732" lon="4.95932">
        <ele>271.6</ele>
        <time>2020-09-12T11:12:46Z</time>
      </trkpt>
      <trkpt lat="45.85724" lon="4.9593">
        <ele>271.6</ele>
        <time>2020-09-12T11:12:47Z</time>
      </trkpt>
      <trkpt lat="45.85717" lon="4.95925">
        <ele>271.5</ele>
        <time>2020-09-12T11:12:48Z</time>
      </trkpt>
      <trkpt lat="45.85709" lon="4.95921">
        <ele>271.5</ele>
        <time>2020-09-12T11:12:49Z</time>
      </trkpt>
      <trkpt lat="45.857" lon="4.95917">
        <ele>271.3</ele>
        <time>2020-09-12T11:12:50Z</time>
      </trkpt>
      <trkpt lat="45.85691" lon="4.95914">
        <ele>269.8</ele>
        <time>2020-09-12T11:12:51Z</time>
      </trkpt>
      <trkpt lat="45.85682" lon="4.95911">
        <ele>269.8</ele>
        <time>2020-09-12T11:12:52Z</time>
      </trkpt>
      <trkpt lat="45.85673" lon="4.95909">
        <ele>269.8</ele>
        <time>2020-09-12T11:12:53Z</time>
      </trkpt>
      <trkpt lat="45.85664" lon="4.95907">
        <ele>269.8</ele>
        <time>2020-09-12T11:12:54Z</time>
      </trkpt>
      <trkpt lat="45.85654" lon="4.95904">
        <ele>269.7</ele>
        <time>2020-09-12T11:12:55Z</time>
      </trkpt>
      <trkpt lat="45.85644" lon="4.95902">
        <ele>269.6</ele>
        <time>2020-09-12T11:12:56Z</time>
      </trkpt>
      <trkpt lat="45.85635" lon="4.959">
        <ele>269.6</ele>
        <time>2020-09-12T11:12:57Z</time>
      </trkpt>
      <trkpt lat="45.85625" lon="4.95898">
        <ele>269.6</ele>
        <time>2020-09-12T11:12:58Z</time>
      </trkpt>
      <trkpt lat="45.85597" lon="4.95894">
        <ele>269.7</ele>
        <time>2020-09-12T11:13:01Z</time>
      </trkpt>
      <trkpt lat="45.85588" lon="4.95893">
        <ele>269.8</ele>
        <time>2020-09-12T11:13:02Z</time>
      </trkpt>
      <trkpt lat="45.85579" lon="4.95893">
        <ele>270</ele>
        <time>2020-09-12T11:13:03Z</time>
      </trkpt>
      <trkpt lat="45.85571" lon="4.95892">
        <ele>270</ele>
        <time>2020-09-12T11:13:04Z</time>
      </trkpt>
      <trkpt lat="45.85563" lon="4.95892">
        <ele>270</ele>
        <time>2020-09-12T11:13:05Z</time>
      </trkpt>
      <trkpt lat="45.85555" lon="4.95892">
        <ele>270.1</ele>
        <time>2020-09-12T11:13:06Z</time>
      </trkpt>
      <trkpt lat="45.85547" lon="4.95891">
        <ele>270.1</ele>
        <time>2020-09-12T11:13:07Z</time>
      </trkpt>
      <trkpt lat="45.85539" lon="4.9589">
        <ele>270.1</ele>
        <time>2020-09-12T11:13:08Z</time>
      </trkpt>
      <trkpt lat="45.85531" lon="4.9589">
        <ele>270.1</ele>
        <time>2020-09-12T11:13:09Z</time>
      </trkpt>
      <trkpt lat="45.85523" lon="4.95889">
        <ele>270.2</ele>
        <time>2020-09-12T11:13:10Z</time>
      </trkpt>
      <trkpt lat="45.85517" lon="4.95889">
        <ele>270.2</ele>
        <time>2020-09-12T11:13:11Z</time>
      </trkpt>
      <trkpt lat="45.8551" lon="4.95887">
        <ele>270.2</ele>
        <time>2020-09-12T11:13:12Z</time>
      </trkpt>
      <trkpt lat="45.85502" lon="4.95886">
        <ele>270.2</ele>
        <time>2020-09-12T11:13:13Z</time>
      </trkpt>
      <trkpt lat="45.85496" lon="4.95886">
        <ele>270</ele>
        <time>2020-09-12T11:13:14Z</time>
      </trkpt>
      <trkpt lat="45.85489" lon="4.95885">
        <ele>270</ele>
        <time>2020-09-12T11:13:15Z</time>
      </trkpt>
      <trkpt lat="45.85482" lon="4.95885">
        <ele>270</ele>
        <time>2020-09-12T11:13:16Z</time>
      </trkpt>
      <trkpt lat="45.85475" lon="4.95885">
        <ele>269.9</ele>
        <time>2020-09-12T11:13:17Z</time>
      </trkpt>
      <trkpt lat="45.85469" lon="4.95885">
        <ele>269.9</ele>
        <time>2020-09-12T11:13:18Z</time>
      </trkpt>
      <trkpt lat="45.85461" lon="4.95885">
        <ele>269.8</ele>
        <time>2020-09-12T11:13:19Z</time>
      </trkpt>
      <trkpt lat="45.85453" lon="4.95884">
        <ele>269.8</ele>
        <time>2020-09-12T11:13:20Z</time>
      </trkpt>
      <trkpt lat="45.85447" lon="4.95884">
        <ele>269.8</ele>
        <time>2020-09-12T11:13:21Z</time>
      </trkpt>
      <trkpt lat="45.8544" lon="4.95883">
        <ele>269.8</ele>
        <time>2020-09-12T11:13:22Z</time>
      </trkpt>
      <trkpt lat="45.85434" lon="4.95884">
        <ele>269.8</ele>
        <time>2020-09-12T11:13:23Z</time>
      </trkpt>
      <trkpt lat="45.85426" lon="4.95885">
        <ele>269.8</ele>
        <time>2020-09-12T11:13:24Z</time>
      </trkpt>
      <trkpt lat="45.85414" lon="4.95884">
        <ele>269.9</ele>
        <time>2020-09-12T11:13:26Z</time>
      </trkpt>
      <trkpt lat="45.85407" lon="4.95884">
        <ele>269.9</ele>
        <time>2020-09-12T11:13:27Z</time>
      </trkpt>
      <trkpt lat="45.854" lon="4.95883">
        <ele>269.9</ele>
        <time>2020-09-12T11:13:28Z</time>
      </trkpt>
      <trkpt lat="45.85393" lon="4.95883">
        <ele>270</ele>
        <time>2020-09-12T11:13:29Z</time>
      </trkpt>
      <trkpt lat="45.85387" lon="4.95882">
        <ele>270</ele>
        <time>2020-09-12T11:13:30Z</time>
      </trkpt>
      <trkpt lat="45.85379" lon="4.95881">
        <ele>270</ele>
        <time>2020-09-12T11:13:31Z</time>
      </trkpt>
      <trkpt lat="45.85373" lon="4.9588">
        <ele>270</ele>
        <time>2020-09-12T11:13:32Z</time>
      </trkpt>
      <trkpt lat="45.85366" lon="4.9588">
        <ele>270.1</ele>
        <time>2020-09-12T11:13:33Z</time>
      </trkpt>
      <trkpt lat="45.8536" lon="4.95881">
        <ele>270.1</ele>
        <time>2020-09-12T11:13:34Z</time>
      </trkpt>
      <trkpt lat="45.85354" lon="4.9588">
        <ele>270.2</ele>
        <time>2020-09-12T11:13:35Z</time>
      </trkpt>
      <trkpt lat="45.85348" lon="4.9588">
        <ele>270.2</ele>
        <time>2020-09-12T11:13:36Z</time>
      </trkpt>
      <trkpt lat="45.85342" lon="4.9588">
        <ele>270.2</ele>
        <time>2020-09-12T11:13:37Z</time>
      </trkpt>
      <trkpt lat="45.85335" lon="4.95879">
        <ele>270.2</ele>
        <time>2020-09-12T11:13:38Z</time>
      </trkpt>
      <trkpt lat="45.85329" lon="4.95877">
        <ele>270.8</ele>
        <time>2020-09-12T11:13:39Z</time>
      </trkpt>
      <trkpt lat="45.85322" lon="4.95877">
        <ele>270.9</ele>
        <time>2020-09-12T11:13:40Z</time>
      </trkpt>
      <trkpt lat="45.85315" lon="4.95877">
        <ele>270.9</ele>
        <time>2020-09-12T11:13:41Z</time>
      </trkpt>
      <trkpt lat="45.85309" lon="4.95877">
        <ele>270.9</ele>
        <time>2020-09-12T11:13:42Z</time>
      </trkpt>
      <trkpt lat="45.85302" lon="4.95877">
        <ele>270.9</ele>
        <time>2020-09-12T11:13:43Z</time>
      </trkpt>
      <trkpt lat="45.85296" lon="4.95877">
        <ele>271</ele>
        <time>2020-09-12T11:13:44Z</time>
      </trkpt>
      <trkpt lat="45.85289" lon="4.95877">
        <ele>271</ele>
        <time>2020-09-12T11:13:45Z</time>
      </trkpt>
      <trkpt lat="45.85283" lon="4.95876">
        <ele>271.1</ele>
        <time>2020-09-12T11:13:46Z</time>
      </trkpt>
      <trkpt lat="45.85276" lon="4.95875">
        <ele>271.1</ele>
        <time>2020-09-12T11:13:47Z</time>
      </trkpt>
      <trkpt lat="45.85269" lon="4.95875">
        <ele>271.1</ele>
        <time>2020-09-12T11:13:48Z</time>
      </trkpt>
      <trkpt lat="45.85263" lon="4.95874">
        <ele>271.1</ele>
        <time>2020-09-12T11:13:49Z</time>
      </trkpt>
      <trkpt lat="45.85257" lon="4.95873">
        <ele>271.2</ele>
        <time>2020-09-12T11:13:50Z</time>
      </trkpt>
      <trkpt lat="45.85251" lon="4.95872">
        <ele>271.2</ele>
        <time>2020-09-12T11:13:51Z</time>
      </trkpt>
      <trkpt lat="45.85246" lon="4.9587">
        <ele>272.2</ele>
        <time>2020-09-12T11:13:52Z</time>
      </trkpt>
      <trkpt lat="45.85239" lon="4.95868">
        <ele>272.3</ele>
        <time>2020-09-12T11:13:53Z</time>
      </trkpt>
      <trkpt lat="45.85235" lon="4.95866">
        <ele>272.3</ele>
        <time>2020-09-12T11:13:54Z</time>
      </trkpt>
      <trkpt lat="45.8523" lon="4.95864">
        <ele>272.3</ele>
        <time>2020-09-12T11:13:55Z</time>
      </trkpt>
      <trkpt lat="45.85223" lon="4.95861">
        <ele>272.4</ele>
        <time>2020-09-12T11:13:56Z</time>
      </trkpt>
      <trkpt lat="45.85216" lon="4.95859">
        <ele>272.5</ele>
        <time>2020-09-12T11:13:57Z</time>
      </trkpt>
      <trkpt lat="45.85211" lon="4.95856">
        <ele>272.5</ele>
        <time>2020-09-12T11:13:58Z</time>
      </trkpt>
      <trkpt lat="45.85205" lon="4.95855">
        <ele>272.6</ele>
        <time>2020-09-12T11:13:59Z</time>
      </trkpt>
      <trkpt lat="45.85198" lon="4.95854">
        <ele>272.7</ele>
        <time>2020-09-12T11:14:00Z</time>
      </trkpt>
      <trkpt lat="45.85192" lon="4.95852">
        <ele>272.8</ele>
        <time>2020-09-12T11:14:01Z</time>
      </trkpt>
      <trkpt lat="45.85186" lon="4.95851">
        <ele>272.9</ele>
        <time>2020-09-12T11:14:02Z</time>
      </trkpt>
      <trkpt lat="45.8518" lon="4.95851">
        <ele>272.9</ele>
        <time>2020-09-12T11:14:03Z</time>
      </trkpt>
      <trkpt lat="45.85173" lon="4.9585">
        <ele>272.9</ele>
        <time>2020-09-12T11:14:04Z</time>
      </trkpt>
      <trkpt lat="45.85167" lon="4.95849">
        <ele>273</ele>
        <time>2020-09-12T11:14:05Z</time>
      </trkpt>
      <trkpt lat="45.85161" lon="4.95849">
        <ele>274</ele>
        <time>2020-09-12T11:14:06Z</time>
      </trkpt>
      <trkpt lat="45.85156" lon="4.95847">
        <ele>274.1</ele>
        <time>2020-09-12T11:14:07Z</time>
      </trkpt>
      <trkpt lat="45.8515" lon="4.95844">
        <ele>274.2</ele>
        <time>2020-09-12T11:14:08Z</time>
      </trkpt>
      <trkpt lat="45.85144" lon="4.95843">
        <ele>274.4</ele>
        <time>2020-09-12T11:14:09Z</time>
      </trkpt>
      <trkpt lat="45.85139" lon="4.95842">
        <ele>274.5</ele>
        <time>2020-09-12T11:14:10Z</time>
      </trkpt>
      <trkpt lat="45.85133" lon="4.9584">
        <ele>274.7</ele>
        <time>2020-09-12T11:14:11Z</time>
      </trkpt>
      <trkpt lat="45.85127" lon="4.95839">
        <ele>274.8</ele>
        <time>2020-09-12T11:14:12Z</time>
      </trkpt>
      <trkpt lat="45.8512" lon="4.95838">
        <ele>274.9</ele>
        <time>2020-09-12T11:14:13Z</time>
      </trkpt>
      <trkpt lat="45.85115" lon="4.95837">
        <ele>275</ele>
        <time>2020-09-12T11:14:14Z</time>
      </trkpt>
      <trkpt lat="45.85109" lon="4.95836">
        <ele>275</ele>
        <time>2020-09-12T11:14:15Z</time>
      </trkpt>
      <trkpt lat="45.85103" lon="4.95835">
        <ele>275</ele>
        <time>2020-09-12T11:14:16Z</time>
      </trkpt>
      <trkpt lat="45.85098" lon="4.95834">
        <ele>275.1</ele>
        <time>2020-09-12T11:14:17Z</time>
      </trkpt>
      <trkpt lat="45.85091" lon="4.95833">
        <ele>274.6</ele>
        <time>2020-09-12T11:14:18Z</time>
      </trkpt>
      <trkpt lat="45.85086" lon="4.95831">
        <ele>274.8</ele>
        <time>2020-09-12T11:14:19Z</time>
      </trkpt>
      <trkpt lat="45.85081" lon="4.95828">
        <ele>275.7</ele>
        <time>2020-09-12T11:14:20Z</time>
      </trkpt>
      <trkpt lat="45.85075" lon="4.95827">
        <ele>276.1</ele>
        <time>2020-09-12T11:14:21Z</time>
      </trkpt>
      <trkpt lat="45.8507" lon="4.95825">
        <ele>276.6</ele>
        <time>2020-09-12T11:14:22Z</time>
      </trkpt>
      <trkpt lat="45.85064" lon="4.95825">
        <ele>277</ele>
        <time>2020-09-12T11:14:23Z</time>
      </trkpt>
      <trkpt lat="45.85058" lon="4.95824">
        <ele>277.4</ele>
        <time>2020-09-12T11:14:24Z</time>
      </trkpt>
      <trkpt lat="45.85052" lon="4.95824">
        <ele>277.8</ele>
        <time>2020-09-12T11:14:25Z</time>
      </trkpt>
      <trkpt lat="45.85046" lon="4.95823">
        <ele>278.2</ele>
        <time>2020-09-12T11:14:26Z</time>
      </trkpt>
      <trkpt lat="45.85042" lon="4.95823">
        <ele>278.5</ele>
        <time>2020-09-12T11:14:27Z</time>
      </trkpt>
      <trkpt lat="45.85037" lon="4.95823">
        <ele>278.8</ele>
        <time>2020-09-12T11:14:28Z</time>
      </trkpt>
      <trkpt lat="45.85031" lon="4.95822">
        <ele>279.2</ele>
        <time>2020-09-12T11:14:29Z</time>
      </trkpt>
      <trkpt lat="45.85025" lon="4.95823">
        <ele>279.7</ele>
        <time>2020-09-12T11:14:30Z</time>
      </trkpt>
      <trkpt lat="45.8502" lon="4.95823">
        <ele>280</ele>
        <time>2020-09-12T11:14:31Z</time>
      </trkpt>
      <trkpt lat="45.85012" lon="4.95826">
        <ele>280.9</ele>
        <time>2020-09-12T11:14:33Z</time>
      </trkpt>
      <trkpt lat="45.85004" lon="4.95828">
        <ele>281.9</ele>
        <time>2020-09-12T11:14:35Z</time>
      </trkpt>
      <trkpt lat="45.84996" lon="4.95832">
        <ele>283.2</ele>
        <time>2020-09-12T11:14:37Z</time>
      </trkpt>
      <trkpt lat="45.84988" lon="4.95835">
        <ele>284.1</ele>
        <time>2020-09-12T11:14:39Z</time>
      </trkpt>
      <trkpt lat="45.84985" lon="4.95838">
        <ele>284.4</ele>
        <time>2020-09-12T11:14:40Z</time>
      </trkpt>
      <trkpt lat="45.84977" lon="4.95841">
        <ele>284.9</ele>
        <time>2020-09-12T11:14:42Z</time>
      </trkpt>
      <trkpt lat="45.84972" lon="4.95842">
        <ele>285.2</ele>
        <time>2020-09-12T11:14:43Z</time>
      </trkpt>
      <trkpt lat="45.84966" lon="4.95848">
        <ele>285.5</ele>
        <time>2020-09-12T11:14:45Z</time>
      </trkpt>
      <trkpt lat="45.84959" lon="4.95852">
        <ele>285.7</ele>
        <time>2020-09-12T11:14:47Z</time>
      </trkpt>
      <trkpt lat="45.84953" lon="4.95854">
        <ele>285.9</ele>
        <time>2020-09-12T11:14:49Z</time>
      </trkpt>
      <trkpt lat="45.84946" lon="4.95856">
        <ele>286.1</ele>
        <time>2020-09-12T11:14:51Z</time>
      </trkpt>
      <trkpt lat="45.84939" lon="4.95858">
        <ele>286.2</ele>
        <time>2020-09-12T11:14:53Z</time>
      </trkpt>
      <trkpt lat="45.84932" lon="4.9586">
        <ele>286.3</ele>
        <time>2020-09-12T11:14:55Z</time>
      </trkpt>
      <trkpt lat="45.84925" lon="4.95862">
        <ele>286.4</ele>
        <time>2020-09-12T11:14:57Z</time>
      </trkpt>
      <trkpt lat="45.84919" lon="4.95863">
        <ele>286.5</ele>
        <time>2020-09-12T11:14:59Z</time>
      </trkpt>
      <trkpt lat="45.84913" lon="4.95865">
        <ele>287.1</ele>
        <time>2020-09-12T11:15:01Z</time>
      </trkpt>
      <trkpt lat="45.84906" lon="4.95867">
        <ele>287.1</ele>
        <time>2020-09-12T11:15:03Z</time>
      </trkpt>
      <trkpt lat="45.849" lon="4.95868">
        <ele>287.1</ele>
        <time>2020-09-12T11:15:05Z</time>
      </trkpt>
      <trkpt lat="45.84895" lon="4.95869">
        <ele>287.1</ele>
        <time>2020-09-12T11:15:07Z</time>
      </trkpt>
      <trkpt lat="45.84889" lon="4.95869">
        <ele>287</ele>
        <time>2020-09-12T11:15:09Z</time>
      </trkpt>
      <trkpt lat="45.84883" lon="4.95868">
        <ele>287</ele>
        <time>2020-09-12T11:15:11Z</time>
      </trkpt>
      <trkpt lat="45.84877" lon="4.95868">
        <ele>287</ele>
        <time>2020-09-12T11:15:13Z</time>
      </trkpt>
      <trkpt lat="45.8487" lon="4.95868">
        <ele>286.9</ele>
        <time>2020-09-12T11:15:15Z</time>
      </trkpt>
      <trkpt lat="45.84864" lon="4.95868">
        <ele>286.9</ele>
        <time>2020-09-12T11:15:17Z</time>
      </trkpt>
      <trkpt lat="45.84857" lon="4.95868">
        <ele>286.8</ele>
        <time>2020-09-12T11:15:19Z</time>
      </trkpt>
      <trkpt lat="45.84851" lon="4.95868">
        <ele>286.8</ele>
        <time>2020-09-12T11:15:21Z</time>
      </trkpt>
      <trkpt lat="45.84844" lon="4.95869">
        <ele>286.8</ele>
        <time>2020-09-12T11:15:23Z</time>
      </trkpt>
      <trkpt lat="45.84837" lon="4.95868">
        <ele>286.8</ele>
        <time>2020-09-12T11:15:25Z</time>
      </trkpt>
      <trkpt lat="45.8483" lon="4.95868">
        <ele>286.3</ele>
        <time>2020-09-12T11:15:27Z</time>
      </trkpt>
      <trkpt lat="45.84823" lon="4.95868">
        <ele>286.3</ele>
        <time>2020-09-12T11:15:29Z</time>
      </trkpt>
      <trkpt lat="45.84815" lon="4.95868">
        <ele>286.3</ele>
        <time>2020-09-12T11:15:31Z</time>
      </trkpt>
      <trkpt lat="45.84806" lon="4.95868">
        <ele>286.3</ele>
        <time>2020-09-12T11:15:33Z</time>
      </trkpt>
      <trkpt lat="45.84798" lon="4.95868">
        <ele>286.2</ele>
        <time>2020-09-12T11:15:35Z</time>
      </trkpt>
      <trkpt lat="45.84793" lon="4.95868">
        <ele>286.2</ele>
        <time>2020-09-12T11:15:36Z</time>
      </trkpt>
      <trkpt lat="45.84789" lon="4.95867">
        <ele>286.2</ele>
        <time>2020-09-12T11:15:37Z</time>
      </trkpt>
      <trkpt lat="45.84784" lon="4.95866">
        <ele>286.2</ele>
        <time>2020-09-12T11:15:38Z</time>
      </trkpt>
      <trkpt lat="45.84775" lon="4.95863">
        <ele>286.2</ele>
        <time>2020-09-12T11:15:40Z</time>
      </trkpt>
      <trkpt lat="45.84766" lon="4.95861">
        <ele>286.2</ele>
        <time>2020-09-12T11:15:42Z</time>
      </trkpt>
      <trkpt lat="45.84756" lon="4.95858">
        <ele>286.1</ele>
        <time>2020-09-12T11:15:44Z</time>
      </trkpt>
      <trkpt lat="45.84751" lon="4.95857">
        <ele>286.1</ele>
        <time>2020-09-12T11:15:45Z</time>
      </trkpt>
      <trkpt lat="45.84745" lon="4.95856">
        <ele>285.6</ele>
        <time>2020-09-12T11:15:46Z</time>
      </trkpt>
      <trkpt lat="45.84739" lon="4.95854">
        <ele>285.6</ele>
        <time>2020-09-12T11:15:47Z</time>
      </trkpt>
      <trkpt lat="45.84734" lon="4.95852">
        <ele>285.5</ele>
        <time>2020-09-12T11:15:48Z</time>
      </trkpt>
      <trkpt lat="45.84728" lon="4.95852">
        <ele>285.4</ele>
        <time>2020-09-12T11:15:49Z</time>
      </trkpt>
      <trkpt lat="45.84723" lon="4.95851">
        <ele>285.4</ele>
        <time>2020-09-12T11:15:50Z</time>
      </trkpt>
      <trkpt lat="45.84717" lon="4.95849">
        <ele>285.3</ele>
        <time>2020-09-12T11:15:51Z</time>
      </trkpt>
      <trkpt lat="45.84712" lon="4.95849">
        <ele>285.2</ele>
        <time>2020-09-12T11:15:52Z</time>
      </trkpt>
      <trkpt lat="45.84707" lon="4.95847">
        <ele>285.1</ele>
        <time>2020-09-12T11:15:53Z</time>
      </trkpt>
      <trkpt lat="45.84701" lon="4.95844">
        <ele>285.1</ele>
        <time>2020-09-12T11:15:54Z</time>
      </trkpt>
      <trkpt lat="45.84695" lon="4.95842">
        <ele>284.9</ele>
        <time>2020-09-12T11:15:55Z</time>
      </trkpt>
      <trkpt lat="45.8469" lon="4.95839">
        <ele>284.8</ele>
        <time>2020-09-12T11:15:56Z</time>
      </trkpt>
      <trkpt lat="45.84686" lon="4.95835">
        <ele>284.7</ele>
        <time>2020-09-12T11:15:57Z</time>
      </trkpt>
      <trkpt lat="45.84681" lon="4.95831">
        <ele>284.4</ele>
        <time>2020-09-12T11:15:58Z</time>
      </trkpt>
      <trkpt lat="45.84676" lon="4.95828">
        <ele>284.4</ele>
        <time>2020-09-12T11:15:59Z</time>
      </trkpt>
      <trkpt lat="45.8467" lon="4.95824">
        <ele>284.3</ele>
        <time>2020-09-12T11:16:00Z</time>
      </trkpt>
      <trkpt lat="45.84665" lon="4.9582">
        <ele>283.8</ele>
        <time>2020-09-12T11:16:01Z</time>
      </trkpt>
      <trkpt lat="45.8466" lon="4.95816">
        <ele>283.8</ele>
        <time>2020-09-12T11:16:02Z</time>
      </trkpt>
      <trkpt lat="45.84654" lon="4.95811">
        <ele>283.7</ele>
        <time>2020-09-12T11:16:03Z</time>
      </trkpt>
      <trkpt lat="45.84649" lon="4.95806">
        <ele>283.7</ele>
        <time>2020-09-12T11:16:04Z</time>
      </trkpt>
      <trkpt lat="45.84644" lon="4.95802">
        <ele>283.6</ele>
        <time>2020-09-12T11:16:05Z</time>
      </trkpt>
      <trkpt lat="45.8464" lon="4.95796">
        <ele>283.6</ele>
        <time>2020-09-12T11:16:06Z</time>
      </trkpt>
      <trkpt lat="45.84635" lon="4.95792">
        <ele>283.6</ele>
        <time>2020-09-12T11:16:07Z</time>
      </trkpt>
      <trkpt lat="45.84631" lon="4.95785">
        <ele>283.5</ele>
        <time>2020-09-12T11:16:08Z</time>
      </trkpt>
      <trkpt lat="45.84627" lon="4.9578">
        <ele>283.4</ele>
        <time>2020-09-12T11:16:09Z</time>
      </trkpt>
      <trkpt lat="45.84623" lon="4.95774">
        <ele>283.4</ele>
        <time>2020-09-12T11:16:10Z</time>
      </trkpt>
      <trkpt lat="45.84618" lon="4.95767">
        <ele>283.3</ele>
        <time>2020-09-12T11:16:11Z</time>
      </trkpt>
      <trkpt lat="45.84613" lon="4.95762">
        <ele>283.2</ele>
        <time>2020-09-12T11:16:12Z</time>
      </trkpt>
      <trkpt lat="45.84609" lon="4.95756">
        <ele>283</ele>
        <time>2020-09-12T11:16:13Z</time>
      </trkpt>
      <trkpt lat="45.84604" lon="4.95751">
        <ele>282.9</ele>
        <time>2020-09-12T11:16:14Z</time>
      </trkpt>
      <trkpt lat="45.84599" lon="4.95745">
        <ele>282.9</ele>
        <time>2020-09-12T11:16:15Z</time>
      </trkpt>
      <trkpt lat="45.84595" lon="4.95738">
        <ele>282.9</ele>
        <time>2020-09-12T11:16:16Z</time>
      </trkpt>
      <trkpt lat="45.8459" lon="4.95732">
        <ele>283</ele>
        <time>2020-09-12T11:16:17Z</time>
      </trkpt>
      <trkpt lat="45.84586" lon="4.95725">
        <ele>283.2</ele>
        <time>2020-09-12T11:16:18Z</time>
      </trkpt>
      <trkpt lat="45.84582" lon="4.9572">
        <ele>283.1</ele>
        <time>2020-09-12T11:16:19Z</time>
      </trkpt>
      <trkpt lat="45.84577" lon="4.95714">
        <ele>283.3</ele>
        <time>2020-09-12T11:16:20Z</time>
      </trkpt>
      <trkpt lat="45.84572" lon="4.95709">
        <ele>283.4</ele>
        <time>2020-09-12T11:16:21Z</time>
      </trkpt>
      <trkpt lat="45.84567" lon="4.95704">
        <ele>283.4</ele>
        <time>2020-09-12T11:16:22Z</time>
      </trkpt>
      <trkpt lat="45.84562" lon="4.95698">
        <ele>283.5</ele>
        <time>2020-09-12T11:16:23Z</time>
      </trkpt>
      <trkpt lat="45.84557" lon="4.95692">
        <ele>283.6</ele>
        <time>2020-09-12T11:16:24Z</time>
      </trkpt>
      <trkpt lat="45.84552" lon="4.95685">
        <ele>283.7</ele>
        <time>2020-09-12T11:16:25Z</time>
      </trkpt>
      <trkpt lat="45.84547" lon="4.95678">
        <ele>283.7</ele>
        <time>2020-09-12T11:16:26Z</time>
      </trkpt>
      <trkpt lat="45.84543" lon="4.95671">
        <ele>283.8</ele>
        <time>2020-09-12T11:16:27Z</time>
      </trkpt>
      <trkpt lat="45.84538" lon="4.95664">
        <ele>284.1</ele>
        <time>2020-09-12T11:16:28Z</time>
      </trkpt>
      <trkpt lat="45.84533" lon="4.95657">
        <ele>284.1</ele>
        <time>2020-09-12T11:16:29Z</time>
      </trkpt>
      <trkpt lat="45.84528" lon="4.95652">
        <ele>284.2</ele>
        <time>2020-09-12T11:16:30Z</time>
      </trkpt>
      <trkpt lat="45.84523" lon="4.95646">
        <ele>284.2</ele>
        <time>2020-09-12T11:16:31Z</time>
      </trkpt>
      <trkpt lat="45.84518" lon="4.95639">
        <ele>284.2</ele>
        <time>2020-09-12T11:16:32Z</time>
      </trkpt>
      <trkpt lat="45.84513" lon="4.95633">
        <ele>284.2</ele>
        <time>2020-09-12T11:16:33Z</time>
      </trkpt>
      <trkpt lat="45.84508" lon="4.95627">
        <ele>284.2</ele>
        <time>2020-09-12T11:16:34Z</time>
      </trkpt>
      <trkpt lat="45.84503" lon="4.95621">
        <ele>284.2</ele>
        <time>2020-09-12T11:16:35Z</time>
      </trkpt>
      <trkpt lat="45.84498" lon="4.95615">
        <ele>284.1</ele>
        <time>2020-09-12T11:16:36Z</time>
      </trkpt>
      <trkpt lat="45.84493" lon="4.95609">
        <ele>284.1</ele>
        <time>2020-09-12T11:16:37Z</time>
      </trkpt>
      <trkpt lat="45.84487" lon="4.95603">
        <ele>284</ele>
        <time>2020-09-12T11:16:38Z</time>
      </trkpt>
      <trkpt lat="45.84482" lon="4.95597">
        <ele>284</ele>
        <time>2020-09-12T11:16:39Z</time>
      </trkpt>
      <trkpt lat="45.84477" lon="4.95592">
        <ele>284</ele>
        <time>2020-09-12T11:16:40Z</time>
      </trkpt>
      <trkpt lat="45.84471" lon="4.95585">
        <ele>283.9</ele>
        <time>2020-09-12T11:16:41Z</time>
      </trkpt>
      <trkpt lat="45.84465" lon="4.95579">
        <ele>283.6</ele>
        <time>2020-09-12T11:16:42Z</time>
      </trkpt>
      <trkpt lat="45.84461" lon="4.95573">
        <ele>283.5</ele>
        <time>2020-09-12T11:16:43Z</time>
      </trkpt>
      <trkpt lat="45.84456" lon="4.95568">
        <ele>283.5</ele>
        <time>2020-09-12T11:16:44Z</time>
      </trkpt>
      <trkpt lat="45.8445" lon="4.95564">
        <ele>283.4</ele>
        <time>2020-09-12T11:16:45Z</time>
      </trkpt>
      <trkpt lat="45.84444" lon="4.95559">
        <ele>283.4</ele>
        <time>2020-09-12T11:16:46Z</time>
      </trkpt>
      <trkpt lat="45.84439" lon="4.95554">
        <ele>283.4</ele>
        <time>2020-09-12T11:16:47Z</time>
      </trkpt>
      <trkpt lat="45.84433" lon="4.95548">
        <ele>283.4</ele>
        <time>2020-09-12T11:16:48Z</time>
      </trkpt>
      <trkpt lat="45.84427" lon="4.95543">
        <ele>283.3</ele>
        <time>2020-09-12T11:16:49Z</time>
      </trkpt>
      <trkpt lat="45.84422" lon="4.95538">
        <ele>283.3</ele>
        <time>2020-09-12T11:16:50Z</time>
      </trkpt>
      <trkpt lat="45.84416" lon="4.95531">
        <ele>283</ele>
        <time>2020-09-12T11:16:51Z</time>
      </trkpt>
      <trkpt lat="45.84411" lon="4.95527">
        <ele>283</ele>
        <time>2020-09-12T11:16:52Z</time>
      </trkpt>
      <trkpt lat="45.84405" lon="4.95522">
        <ele>283</ele>
        <time>2020-09-12T11:16:53Z</time>
      </trkpt>
      <trkpt lat="45.84399" lon="4.95517">
        <ele>283</ele>
        <time>2020-09-12T11:16:54Z</time>
      </trkpt>
      <trkpt lat="45.84394" lon="4.95511">
        <ele>283</ele>
        <time>2020-09-12T11:16:55Z</time>
      </trkpt>
      <trkpt lat="45.84388" lon="4.95506">
        <ele>283</ele>
        <time>2020-09-12T11:16:56Z</time>
      </trkpt>
      <trkpt lat="45.84382" lon="4.95501">
        <ele>283</ele>
        <time>2020-09-12T11:16:57Z</time>
      </trkpt>
      <trkpt lat="45.84375" lon="4.95496">
        <ele>283</ele>
        <time>2020-09-12T11:16:58Z</time>
      </trkpt>
      <trkpt lat="45.8437" lon="4.95491">
        <ele>283</ele>
        <time>2020-09-12T11:16:59Z</time>
      </trkpt>
      <trkpt lat="45.84364" lon="4.95485">
        <ele>283</ele>
        <time>2020-09-12T11:17:00Z</time>
      </trkpt>
      <trkpt lat="45.84359" lon="4.9548">
        <ele>283</ele>
        <time>2020-09-12T11:17:01Z</time>
      </trkpt>
      <trkpt lat="45.84354" lon="4.95474">
        <ele>283.1</ele>
        <time>2020-09-12T11:17:02Z</time>
      </trkpt>
      <trkpt lat="45.84348" lon="4.95469">
        <ele>283.1</ele>
        <time>2020-09-12T11:17:03Z</time>
      </trkpt>
      <trkpt lat="45.84342" lon="4.95463">
        <ele>283.1</ele>
        <time>2020-09-12T11:17:04Z</time>
      </trkpt>
      <trkpt lat="45.84336" lon="4.95458">
        <ele>283.2</ele>
        <time>2020-09-12T11:17:05Z</time>
      </trkpt>
      <trkpt lat="45.8433" lon="4.95453">
        <ele>283.7</ele>
        <time>2020-09-12T11:17:06Z</time>
      </trkpt>
      <trkpt lat="45.84324" lon="4.95448">
        <ele>283.7</ele>
        <time>2020-09-12T11:17:07Z</time>
      </trkpt>
      <trkpt lat="45.84319" lon="4.95444">
        <ele>283.8</ele>
        <time>2020-09-12T11:17:08Z</time>
      </trkpt>
      <trkpt lat="45.84312" lon="4.95439">
        <ele>283.8</ele>
        <time>2020-09-12T11:17:09Z</time>
      </trkpt>
      <trkpt lat="45.84307" lon="4.95435">
        <ele>283.8</ele>
        <time>2020-09-12T11:17:10Z</time>
      </trkpt>
      <trkpt lat="45.84302" lon="4.95432">
        <ele>283.8</ele>
        <time>2020-09-12T11:17:11Z</time>
      </trkpt>
      <trkpt lat="45.84296" lon="4.95429">
        <ele>283.8</ele>
        <time>2020-09-12T11:17:12Z</time>
      </trkpt>
      <trkpt lat="45.84291" lon="4.95425">
        <ele>283.8</ele>
        <time>2020-09-12T11:17:13Z</time>
      </trkpt>
      <trkpt lat="45.84285" lon="4.95422">
        <ele>283.8</ele>
        <time>2020-09-12T11:17:14Z</time>
      </trkpt>
      <trkpt lat="45.8428" lon="4.95418">
        <ele>283.9</ele>
        <time>2020-09-12T11:17:15Z</time>
      </trkpt>
      <trkpt lat="45.84274" lon="4.95415">
        <ele>283.6</ele>
        <time>2020-09-12T11:17:16Z</time>
      </trkpt>
      <trkpt lat="45.84269" lon="4.95412">
        <ele>283.6</ele>
        <time>2020-09-12T11:17:17Z</time>
      </trkpt>
      <trkpt lat="45.84263" lon="4.95408">
        <ele>283.7</ele>
        <time>2020-09-12T11:17:18Z</time>
      </trkpt>
      <trkpt lat="45.84258" lon="4.95405">
        <ele>283.7</ele>
        <time>2020-09-12T11:17:19Z</time>
      </trkpt>
      <trkpt lat="45.84253" lon="4.95402">
        <ele>283.7</ele>
        <time>2020-09-12T11:17:20Z</time>
      </trkpt>
      <trkpt lat="45.84247" lon="4.95399">
        <ele>284.4</ele>
        <time>2020-09-12T11:17:21Z</time>
      </trkpt>
      <trkpt lat="45.8424" lon="4.95396">
        <ele>284.5</ele>
        <time>2020-09-12T11:17:22Z</time>
      </trkpt>
      <trkpt lat="45.84235" lon="4.95394">
        <ele>284.6</ele>
        <time>2020-09-12T11:17:23Z</time>
      </trkpt>
      <trkpt lat="45.84229" lon="4.9539">
        <ele>284.7</ele>
        <time>2020-09-12T11:17:24Z</time>
      </trkpt>
      <trkpt lat="45.84224" lon="4.95387">
        <ele>284.8</ele>
        <time>2020-09-12T11:17:25Z</time>
      </trkpt>
      <trkpt lat="45.84218" lon="4.95385">
        <ele>284.9</ele>
        <time>2020-09-12T11:17:26Z</time>
      </trkpt>
      <trkpt lat="45.84213" lon="4.95383">
        <ele>285</ele>
        <time>2020-09-12T11:17:27Z</time>
      </trkpt>
      <trkpt lat="45.84207" lon="4.95381">
        <ele>285.1</ele>
        <time>2020-09-12T11:17:28Z</time>
      </trkpt>
      <trkpt lat="45.84201" lon="4.95378">
        <ele>285.1</ele>
        <time>2020-09-12T11:17:29Z</time>
      </trkpt>
      <trkpt lat="45.84196" lon="4.95376">
        <ele>285.2</ele>
        <time>2020-09-12T11:17:30Z</time>
      </trkpt>
      <trkpt lat="45.8419" lon="4.95373">
        <ele>285.3</ele>
        <time>2020-09-12T11:17:31Z</time>
      </trkpt>
      <trkpt lat="45.84185" lon="4.95371">
        <ele>285.4</ele>
        <time>2020-09-12T11:17:32Z</time>
      </trkpt>
      <trkpt lat="45.8418" lon="4.95368">
        <ele>285.4</ele>
        <time>2020-09-12T11:17:33Z</time>
      </trkpt>
      <trkpt lat="45.84174" lon="4.95366">
        <ele>285.5</ele>
        <time>2020-09-12T11:17:34Z</time>
      </trkpt>
      <trkpt lat="45.84169" lon="4.95364">
        <ele>285.5</ele>
        <time>2020-09-12T11:17:35Z</time>
      </trkpt>
      <trkpt lat="45.84164" lon="4.95361">
        <ele>287.7</ele>
        <time>2020-09-12T11:17:36Z</time>
      </trkpt>
      <trkpt lat="45.84159" lon="4.95357">
        <ele>287.7</ele>
        <time>2020-09-12T11:17:37Z</time>
      </trkpt>
      <trkpt lat="45.84155" lon="4.95353">
        <ele>287.6</ele>
        <time>2020-09-12T11:17:38Z</time>
      </trkpt>
      <trkpt lat="45.8415" lon="4.9535">
        <ele>287.7</ele>
        <time>2020-09-12T11:17:39Z</time>
      </trkpt>
      <trkpt lat="45.84146" lon="4.95348">
        <ele>287.8</ele>
        <time>2020-09-12T11:17:40Z</time>
      </trkpt>
      <trkpt lat="45.84142" lon="4.95343">
        <ele>287.9</ele>
        <time>2020-09-12T11:17:41Z</time>
      </trkpt>
      <trkpt lat="45.84134" lon="4.95337">
        <ele>288.2</ele>
        <time>2020-09-12T11:17:43Z</time>
      </trkpt>
      <trkpt lat="45.8413" lon="4.95334">
        <ele>288.4</ele>
        <time>2020-09-12T11:17:44Z</time>
      </trkpt>
      <trkpt lat="45.84126" lon="4.95332">
        <ele>288.8</ele>
        <time>2020-09-12T11:17:45Z</time>
      </trkpt>
      <trkpt lat="45.84119" lon="4.95327">
        <ele>289.1</ele>
        <time>2020-09-12T11:17:47Z</time>
      </trkpt>
      <trkpt lat="45.84115" lon="4.95324">
        <ele>289.3</ele>
        <time>2020-09-12T11:17:48Z</time>
      </trkpt>
      <trkpt lat="45.84108" lon="4.95317">
        <ele>289.5</ele>
        <time>2020-09-12T11:17:50Z</time>
      </trkpt>
      <trkpt lat="45.84104" lon="4.95313">
        <ele>289.6</ele>
        <time>2020-09-12T11:17:51Z</time>
      </trkpt>
      <trkpt lat="45.841" lon="4.95309">
        <ele>289.6</ele>
        <time>2020-09-12T11:17:52Z</time>
      </trkpt>
      <trkpt lat="45.84096" lon="4.95306">
        <ele>289.7</ele>
        <time>2020-09-12T11:17:53Z</time>
      </trkpt>
      <trkpt lat="45.84092" lon="4.95302">
        <ele>289.7</ele>
        <time>2020-09-12T11:17:54Z</time>
      </trkpt>
      <trkpt lat="45.84085" lon="4.95294">
        <ele>289.7</ele>
        <time>2020-09-12T11:17:56Z</time>
      </trkpt>
      <trkpt lat="45.84078" lon="4.95287">
        <ele>292.6</ele>
        <time>2020-09-12T11:17:58Z</time>
      </trkpt>
      <trkpt lat="45.84074" lon="4.95282">
        <ele>292.6</ele>
        <time>2020-09-12T11:17:59Z</time>
      </trkpt>
      <trkpt lat="45.84067" lon="4.95275">
        <ele>292.7</ele>
        <time>2020-09-12T11:18:01Z</time>
      </trkpt>
      <trkpt lat="45.84061" lon="4.95267">
        <ele>292.7</ele>
        <time>2020-09-12T11:18:03Z</time>
      </trkpt>
      <trkpt lat="45.84055" lon="4.95259">
        <ele>292.9</ele>
        <time>2020-09-12T11:18:05Z</time>
      </trkpt>
      <trkpt lat="45.8405" lon="4.95251">
        <ele>293.1</ele>
        <time>2020-09-12T11:18:07Z</time>
      </trkpt>
      <trkpt lat="45.84045" lon="4.95243">
        <ele>294.2</ele>
        <time>2020-09-12T11:18:09Z</time>
      </trkpt>
      <trkpt lat="45.8404" lon="4.95236">
        <ele>294.5</ele>
        <time>2020-09-12T11:18:11Z</time>
      </trkpt>
      <trkpt lat="45.84034" lon="4.95228">
        <ele>294.7</ele>
        <time>2020-09-12T11:18:13Z</time>
      </trkpt>
      <trkpt lat="45.84029" lon="4.9522">
        <ele>294.9</ele>
        <time>2020-09-12T11:18:15Z</time>
      </trkpt>
      <trkpt lat="45.84024" lon="4.95213">
        <ele>295.1</ele>
        <time>2020-09-12T11:18:17Z</time>
      </trkpt>
      <trkpt lat="45.8402" lon="4.95204">
        <ele>295.4</ele>
        <time>2020-09-12T11:18:19Z</time>
      </trkpt>
      <trkpt lat="45.84015" lon="4.95196">
        <ele>295.7</ele>
        <time>2020-09-12T11:18:21Z</time>
      </trkpt>
      <trkpt lat="45.8401" lon="4.95187">
        <ele>296.1</ele>
        <time>2020-09-12T11:18:23Z</time>
      </trkpt>
      <trkpt lat="45.84007" lon="4.9518">
        <ele>296.6</ele>
        <time>2020-09-12T11:18:25Z</time>
      </trkpt>
      <trkpt lat="45.84003" lon="4.95172">
        <ele>297.3</ele>
        <time>2020-09-12T11:18:27Z</time>
      </trkpt>
      <trkpt lat="45.83999" lon="4.95164">
        <ele>298.5</ele>
        <time>2020-09-12T11:18:29Z</time>
      </trkpt>
      <trkpt lat="45.83995" lon="4.95156">
        <ele>299.4</ele>
        <time>2020-09-12T11:18:31Z</time>
      </trkpt>
      <trkpt lat="45.83991" lon="4.95149">
        <ele>300</ele>
        <time>2020-09-12T11:18:33Z</time>
      </trkpt>
      <trkpt lat="45.83987" lon="4.95142">
        <ele>300.5</ele>
        <time>2020-09-12T11:18:35Z</time>
      </trkpt>
      <trkpt lat="45.83983" lon="4.95135">
        <ele>300.9</ele>
        <time>2020-09-12T11:18:37Z</time>
      </trkpt>
      <trkpt lat="45.83979" lon="4.95128">
        <ele>301.3</ele>
        <time>2020-09-12T11:18:39Z</time>
      </trkpt>
      <trkpt lat="45.83975" lon="4.95122">
        <ele>301.5</ele>
        <time>2020-09-12T11:18:41Z</time>
      </trkpt>
      <trkpt lat="45.83971" lon="4.95115">
        <ele>301.7</ele>
        <time>2020-09-12T11:18:43Z</time>
      </trkpt>
      <trkpt lat="45.83967" lon="4.95109">
        <ele>301.9</ele>
        <time>2020-09-12T11:18:45Z</time>
      </trkpt>
      <trkpt lat="45.83962" lon="4.95104">
        <ele>302</ele>
        <time>2020-09-12T11:18:47Z</time>
      </trkpt>
      <trkpt lat="45.83957" lon="4.95098">
        <ele>302.1</ele>
        <time>2020-09-12T11:18:49Z</time>
      </trkpt>
      <trkpt lat="45.83952" lon="4.95093">
        <ele>302.1</ele>
        <time>2020-09-12T11:18:51Z</time>
      </trkpt>
      <trkpt lat="45.83947" lon="4.95088">
        <ele>302.2</ele>
        <time>2020-09-12T11:18:53Z</time>
      </trkpt>
      <trkpt lat="45.83942" lon="4.95083">
        <ele>304.3</ele>
        <time>2020-09-12T11:18:55Z</time>
      </trkpt>
      <trkpt lat="45.83936" lon="4.9508">
        <ele>304.1</ele>
        <time>2020-09-12T11:18:57Z</time>
      </trkpt>
      <trkpt lat="45.8393" lon="4.95076">
        <ele>304</ele>
        <time>2020-09-12T11:18:59Z</time>
      </trkpt>
      <trkpt lat="45.83925" lon="4.95072">
        <ele>304</ele>
        <time>2020-09-12T11:19:01Z</time>
      </trkpt>
      <trkpt lat="45.8392" lon="4.95068">
        <ele>304.1</ele>
        <time>2020-09-12T11:19:03Z</time>
      </trkpt>
      <trkpt lat="45.83915" lon="4.95062">
        <ele>303</ele>
        <time>2020-09-12T11:19:05Z</time>
      </trkpt>
      <trkpt lat="45.83909" lon="4.95057">
        <ele>303</ele>
        <time>2020-09-12T11:19:07Z</time>
      </trkpt>
      <trkpt lat="45.83902" lon="4.9505">
        <ele>303</ele>
        <time>2020-09-12T11:19:09Z</time>
      </trkpt>
      <trkpt lat="45.83895" lon="4.95042">
        <ele>303.1</ele>
        <time>2020-09-12T11:19:11Z</time>
      </trkpt>
      <trkpt lat="45.83886" lon="4.95036">
        <ele>303</ele>
        <time>2020-09-12T11:19:13Z</time>
      </trkpt>
      <trkpt lat="45.83882" lon="4.95032">
        <ele>302.9</ele>
        <time>2020-09-12T11:19:14Z</time>
      </trkpt>
      <trkpt lat="45.83878" lon="4.95029">
        <ele>302.8</ele>
        <time>2020-09-12T11:19:15Z</time>
      </trkpt>
      <trkpt lat="45.83873" lon="4.95024">
        <ele>302.7</ele>
        <time>2020-09-12T11:19:16Z</time>
      </trkpt>
      <trkpt lat="45.83868" lon="4.95021">
        <ele>302.6</ele>
        <time>2020-09-12T11:19:17Z</time>
      </trkpt>
      <trkpt lat="45.83864" lon="4.95017">
        <ele>302.5</ele>
        <time>2020-09-12T11:19:18Z</time>
      </trkpt>
      <trkpt lat="45.83854" lon="4.9501">
        <ele>302.1</ele>
        <time>2020-09-12T11:19:20Z</time>
      </trkpt>
      <trkpt lat="45.8385" lon="4.95007">
        <ele>301.9</ele>
        <time>2020-09-12T11:19:21Z</time>
      </trkpt>
      <trkpt lat="45.83845" lon="4.95003">
        <ele>301.7</ele>
        <time>2020-09-12T11:19:22Z</time>
      </trkpt>
      <trkpt lat="45.8384" lon="4.95">
        <ele>302.3</ele>
        <time>2020-09-12T11:19:23Z</time>
      </trkpt>
      <trkpt lat="45.83836" lon="4.94997">
        <ele>301.8</ele>
        <time>2020-09-12T11:19:24Z</time>
      </trkpt>
      <trkpt lat="45.83832" lon="4.94993">
        <ele>301.7</ele>
        <time>2020-09-12T11:19:25Z</time>
      </trkpt>
      <trkpt lat="45.83826" lon="4.9499">
        <ele>302</ele>
        <time>2020-09-12T11:19:26Z</time>
      </trkpt>
      <trkpt lat="45.83821" lon="4.94988">
        <ele>302.3</ele>
        <time>2020-09-12T11:19:27Z</time>
      </trkpt>
      <trkpt lat="45.83816" lon="4.94986">
        <ele>302.5</ele>
        <time>2020-09-12T11:19:28Z</time>
      </trkpt>
      <trkpt lat="45.83811" lon="4.94984">
        <ele>302.7</ele>
        <time>2020-09-12T11:19:29Z</time>
      </trkpt>
      <trkpt lat="45.83805" lon="4.9498">
        <ele>302.8</ele>
        <time>2020-09-12T11:19:30Z</time>
      </trkpt>
      <trkpt lat="45.838" lon="4.94977">
        <ele>302.9</ele>
        <time>2020-09-12T11:19:31Z</time>
      </trkpt>
      <trkpt lat="45.83794" lon="4.94975">
        <ele>303</ele>
        <time>2020-09-12T11:19:32Z</time>
      </trkpt>
      <trkpt lat="45.83788" lon="4.94972">
        <ele>303</ele>
        <time>2020-09-12T11:19:33Z</time>
      </trkpt>
      <trkpt lat="45.83783" lon="4.9497">
        <ele>303</ele>
        <time>2020-09-12T11:19:34Z</time>
      </trkpt>
      <trkpt lat="45.83777" lon="4.94968">
        <ele>303</ele>
        <time>2020-09-12T11:19:35Z</time>
      </trkpt>
      <trkpt lat="45.83772" lon="4.94967">
        <ele>303</ele>
        <time>2020-09-12T11:19:36Z</time>
      </trkpt>
      <trkpt lat="45.83767" lon="4.94965">
        <ele>302.9</ele>
        <time>2020-09-12T11:19:37Z</time>
      </trkpt>
      <trkpt lat="45.83761" lon="4.94963">
        <ele>303</ele>
        <time>2020-09-12T11:19:38Z</time>
      </trkpt>
      <trkpt lat="45.83755" lon="4.94961">
        <ele>303</ele>
        <time>2020-09-12T11:19:39Z</time>
      </trkpt>
      <trkpt lat="45.83749" lon="4.94959">
        <ele>300.7</ele>
        <time>2020-09-12T11:19:40Z</time>
      </trkpt>
      <trkpt lat="45.83743" lon="4.94957">
        <ele>300.8</ele>
        <time>2020-09-12T11:19:41Z</time>
      </trkpt>
      <trkpt lat="45.83738" lon="4.94955">
        <ele>300.7</ele>
        <time>2020-09-12T11:19:42Z</time>
      </trkpt>
      <trkpt lat="45.83732" lon="4.94952">
        <ele>300.7</ele>
        <time>2020-09-12T11:19:43Z</time>
      </trkpt>
      <trkpt lat="45.83725" lon="4.94949">
        <ele>300.6</ele>
        <time>2020-09-12T11:19:44Z</time>
      </trkpt>
      <trkpt lat="45.83719" lon="4.94946">
        <ele>300.4</ele>
        <time>2020-09-12T11:19:45Z</time>
      </trkpt>
      <trkpt lat="45.83712" lon="4.94943">
        <ele>300.1</ele>
        <time>2020-09-12T11:19:46Z</time>
      </trkpt>
      <trkpt lat="45.83705" lon="4.94939">
        <ele>299.9</ele>
        <time>2020-09-12T11:19:47Z</time>
      </trkpt>
      <trkpt lat="45.83697" lon="4.94935">
        <ele>299.5</ele>
        <time>2020-09-12T11:19:48Z</time>
      </trkpt>
      <trkpt lat="45.83689" lon="4.94931">
        <ele>299</ele>
        <time>2020-09-12T11:19:49Z</time>
      </trkpt>
      <trkpt lat="45.83681" lon="4.94926">
        <ele>298.5</ele>
        <time>2020-09-12T11:19:50Z</time>
      </trkpt>
      <trkpt lat="45.83674" lon="4.94922">
        <ele>297.9</ele>
        <time>2020-09-12T11:19:51Z</time>
      </trkpt>
      <trkpt lat="45.83666" lon="4.94917">
        <ele>296.9</ele>
        <time>2020-09-12T11:19:52Z</time>
      </trkpt>
      <trkpt lat="45.83657" lon="4.94913">
        <ele>297</ele>
        <time>2020-09-12T11:19:53Z</time>
      </trkpt>
      <trkpt lat="45.83649" lon="4.94907">
        <ele>297</ele>
        <time>2020-09-12T11:19:54Z</time>
      </trkpt>
      <trkpt lat="45.83642" lon="4.94901">
        <ele>297</ele>
        <time>2020-09-12T11:19:55Z</time>
      </trkpt>
      <trkpt lat="45.83634" lon="4.94897">
        <ele>296.9</ele>
        <time>2020-09-12T11:19:56Z</time>
      </trkpt>
      <trkpt lat="45.83626" lon="4.94893">
        <ele>296.8</ele>
        <time>2020-09-12T11:19:57Z</time>
      </trkpt>
      <trkpt lat="45.83617" lon="4.94888">
        <ele>296.7</ele>
        <time>2020-09-12T11:19:58Z</time>
      </trkpt>
      <trkpt lat="45.8361" lon="4.94883">
        <ele>296.6</ele>
        <time>2020-09-12T11:19:59Z</time>
      </trkpt>
      <trkpt lat="45.83602" lon="4.94879">
        <ele>296.6</ele>
        <time>2020-09-12T11:20:00Z</time>
      </trkpt>
      <trkpt lat="45.83595" lon="4.94875">
        <ele>296.5</ele>
        <time>2020-09-12T11:20:01Z</time>
      </trkpt>
      <trkpt lat="45.83586" lon="4.94871">
        <ele>296.5</ele>
        <time>2020-09-12T11:20:02Z</time>
      </trkpt>
      <trkpt lat="45.83577" lon="4.94866">
        <ele>295.4</ele>
        <time>2020-09-12T11:20:03Z</time>
      </trkpt>
      <trkpt lat="45.83569" lon="4.94862">
        <ele>295.4</ele>
        <time>2020-09-12T11:20:04Z</time>
      </trkpt>
      <trkpt lat="45.83561" lon="4.94857">
        <ele>295.4</ele>
        <time>2020-09-12T11:20:05Z</time>
      </trkpt>
      <trkpt lat="45.83553" lon="4.94854">
        <ele>295.4</ele>
        <time>2020-09-12T11:20:06Z</time>
      </trkpt>
      <trkpt lat="45.83537" lon="4.94845">
        <ele>295.3</ele>
        <time>2020-09-12T11:20:08Z</time>
      </trkpt>
      <trkpt lat="45.83529" lon="4.94841">
        <ele>295.2</ele>
        <time>2020-09-12T11:20:09Z</time>
      </trkpt>
      <trkpt lat="45.83521" lon="4.94837">
        <ele>295.2</ele>
        <time>2020-09-12T11:20:10Z</time>
      </trkpt>
      <trkpt lat="45.83513" lon="4.94833">
        <ele>295.6</ele>
        <time>2020-09-12T11:20:11Z</time>
      </trkpt>
      <trkpt lat="45.83506" lon="4.94828">
        <ele>295.4</ele>
        <time>2020-09-12T11:20:12Z</time>
      </trkpt>
      <trkpt lat="45.83498" lon="4.94824">
        <ele>295.3</ele>
        <time>2020-09-12T11:20:13Z</time>
      </trkpt>
      <trkpt lat="45.83491" lon="4.9482">
        <ele>295.4</ele>
        <time>2020-09-12T11:20:14Z</time>
      </trkpt>
      <trkpt lat="45.83478" lon="4.94814">
        <ele>295.5</ele>
        <time>2020-09-12T11:20:16Z</time>
      </trkpt>
      <trkpt lat="45.83471" lon="4.94809">
        <ele>295.6</ele>
        <time>2020-09-12T11:20:17Z</time>
      </trkpt>
      <trkpt lat="45.83464" lon="4.94806">
        <ele>295.6</ele>
        <time>2020-09-12T11:20:18Z</time>
      </trkpt>
      <trkpt lat="45.83457" lon="4.94801">
        <ele>295.7</ele>
        <time>2020-09-12T11:20:19Z</time>
      </trkpt>
      <trkpt lat="45.8345" lon="4.94797">
        <ele>295.7</ele>
        <time>2020-09-12T11:20:20Z</time>
      </trkpt>
      <trkpt lat="45.83443" lon="4.94792">
        <ele>295.7</ele>
        <time>2020-09-12T11:20:21Z</time>
      </trkpt>
      <trkpt lat="45.83436" lon="4.94787">
        <ele>295.7</ele>
        <time>2020-09-12T11:20:22Z</time>
      </trkpt>
      <trkpt lat="45.83429" lon="4.94783">
        <ele>295.7</ele>
        <time>2020-09-12T11:20:23Z</time>
      </trkpt>
      <trkpt lat="45.83422" lon="4.94778">
        <ele>295.8</ele>
        <time>2020-09-12T11:20:24Z</time>
      </trkpt>
      <trkpt lat="45.83416" lon="4.94775">
        <ele>295.8</ele>
        <time>2020-09-12T11:20:25Z</time>
      </trkpt>
      <trkpt lat="45.8341" lon="4.94772">
        <ele>295.8</ele>
        <time>2020-09-12T11:20:26Z</time>
      </trkpt>
      <trkpt lat="45.83403" lon="4.94768">
        <ele>295.9</ele>
        <time>2020-09-12T11:20:27Z</time>
      </trkpt>
      <trkpt lat="45.83396" lon="4.94764">
        <ele>295.9</ele>
        <time>2020-09-12T11:20:28Z</time>
      </trkpt>
      <trkpt lat="45.8339" lon="4.94761">
        <ele>295.9</ele>
        <time>2020-09-12T11:20:29Z</time>
      </trkpt>
      <trkpt lat="45.83384" lon="4.94757">
        <ele>296</ele>
        <time>2020-09-12T11:20:30Z</time>
      </trkpt>
      <trkpt lat="45.83378" lon="4.94754">
        <ele>296</ele>
        <time>2020-09-12T11:20:31Z</time>
      </trkpt>
      <trkpt lat="45.83371" lon="4.94751">
        <ele>296.1</ele>
        <time>2020-09-12T11:20:32Z</time>
      </trkpt>
      <trkpt lat="45.83365" lon="4.94748">
        <ele>296.4</ele>
        <time>2020-09-12T11:20:33Z</time>
      </trkpt>
      <trkpt lat="45.8336" lon="4.94743">
        <ele>296.5</ele>
        <time>2020-09-12T11:20:34Z</time>
      </trkpt>
      <trkpt lat="45.83353" lon="4.94739">
        <ele>296.5</ele>
        <time>2020-09-12T11:20:35Z</time>
      </trkpt>
      <trkpt lat="45.83347" lon="4.94736">
        <ele>296.6</ele>
        <time>2020-09-12T11:20:36Z</time>
      </trkpt>
      <trkpt lat="45.8334" lon="4.94733">
        <ele>296.6</ele>
        <time>2020-09-12T11:20:37Z</time>
      </trkpt>
      <trkpt lat="45.83334" lon="4.94729">
        <ele>296.6</ele>
        <time>2020-09-12T11:20:38Z</time>
      </trkpt>
      <trkpt lat="45.83328" lon="4.94726">
        <ele>297.6</ele>
        <time>2020-09-12T11:20:39Z</time>
      </trkpt>
      <trkpt lat="45.83321" lon="4.94723">
        <ele>297.7</ele>
        <time>2020-09-12T11:20:40Z</time>
      </trkpt>
      <trkpt lat="45.83315" lon="4.94721">
        <ele>297.8</ele>
        <time>2020-09-12T11:20:41Z</time>
      </trkpt>
      <trkpt lat="45.8331" lon="4.94718">
        <ele>297.9</ele>
        <time>2020-09-12T11:20:42Z</time>
      </trkpt>
      <trkpt lat="45.83304" lon="4.94715">
        <ele>298</ele>
        <time>2020-09-12T11:20:43Z</time>
      </trkpt>
      <trkpt lat="45.83299" lon="4.94712">
        <ele>298.1</ele>
        <time>2020-09-12T11:20:44Z</time>
      </trkpt>
      <trkpt lat="45.83293" lon="4.94709">
        <ele>298.2</ele>
        <time>2020-09-12T11:20:45Z</time>
      </trkpt>
      <trkpt lat="45.83288" lon="4.94705">
        <ele>298.3</ele>
        <time>2020-09-12T11:20:46Z</time>
      </trkpt>
      <trkpt lat="45.83285" lon="4.94699">
        <ele>298.4</ele>
        <time>2020-09-12T11:20:47Z</time>
      </trkpt>
      <trkpt lat="45.83284" lon="4.94688">
        <ele>298.6</ele>
        <time>2020-09-12T11:20:49Z</time>
      </trkpt>
      <trkpt lat="45.83282" lon="4.94679">
        <ele>298.7</ele>
        <time>2020-09-12T11:20:57Z</time>
      </trkpt>
      <trkpt lat="45.83278" lon="4.94678">
        <ele>298.9</ele>
        <time>2020-09-12T11:21:01Z</time>
      </trkpt>
      <trkpt lat="45.83273" lon="4.94679">
        <ele>299.1</ele>
        <time>2020-09-12T11:21:03Z</time>
      </trkpt>
      <trkpt lat="45.83268" lon="4.94682">
        <ele>299.2</ele>
        <time>2020-09-12T11:21:05Z</time>
      </trkpt>
      <trkpt lat="45.83262" lon="4.94685">
        <ele>299.3</ele>
        <time>2020-09-12T11:21:07Z</time>
      </trkpt>
      <trkpt lat="45.83255" lon="4.94688">
        <ele>299.4</ele>
        <time>2020-09-12T11:21:09Z</time>
      </trkpt>
      <trkpt lat="45.83247" lon="4.94691">
        <ele>300.6</ele>
        <time>2020-09-12T11:21:11Z</time>
      </trkpt>
      <trkpt lat="45.8324" lon="4.94693">
        <ele>300.6</ele>
        <time>2020-09-12T11:21:13Z</time>
      </trkpt>
      <trkpt lat="45.83231" lon="4.94694">
        <ele>300.6</ele>
        <time>2020-09-12T11:21:15Z</time>
      </trkpt>
      <trkpt lat="45.83226" lon="4.94695">
        <ele>300.6</ele>
        <time>2020-09-12T11:21:16Z</time>
      </trkpt>
      <trkpt lat="45.83221" lon="4.94696">
        <ele>300.6</ele>
        <time>2020-09-12T11:21:17Z</time>
      </trkpt>
      <trkpt lat="45.83212" lon="4.94698">
        <ele>300.6</ele>
        <time>2020-09-12T11:21:19Z</time>
      </trkpt>
      <trkpt lat="45.83207" lon="4.947">
        <ele>300.6</ele>
        <time>2020-09-12T11:21:20Z</time>
      </trkpt>
      <trkpt lat="45.832" lon="4.94703">
        <ele>300.6</ele>
        <time>2020-09-12T11:21:22Z</time>
      </trkpt>
      <trkpt lat="45.83195" lon="4.94703">
        <ele>300.6</ele>
        <time>2020-09-12T11:21:23Z</time>
      </trkpt>
      <trkpt lat="45.83186" lon="4.94704">
        <ele>300.7</ele>
        <time>2020-09-12T11:21:25Z</time>
      </trkpt>
      <trkpt lat="45.83181" lon="4.94705">
        <ele>300.7</ele>
        <time>2020-09-12T11:21:26Z</time>
      </trkpt>
      <trkpt lat="45.83176" lon="4.94706">
        <ele>300.7</ele>
        <time>2020-09-12T11:21:27Z</time>
      </trkpt>
      <trkpt lat="45.83168" lon="4.94707">
        <ele>300.7</ele>
        <time>2020-09-12T11:21:29Z</time>
      </trkpt>
      <trkpt lat="45.83159" lon="4.9471">
        <ele>301</ele>
        <time>2020-09-12T11:21:31Z</time>
      </trkpt>
      <trkpt lat="45.8315" lon="4.94711">
        <ele>301</ele>
        <time>2020-09-12T11:21:33Z</time>
      </trkpt>
      <trkpt lat="45.83141" lon="4.94712">
        <ele>300.9</ele>
        <time>2020-09-12T11:21:35Z</time>
      </trkpt>
      <trkpt lat="45.83135" lon="4.94713">
        <ele>300.9</ele>
        <time>2020-09-12T11:21:36Z</time>
      </trkpt>
      <trkpt lat="45.83129" lon="4.94713">
        <ele>300.9</ele>
        <time>2020-09-12T11:21:37Z</time>
      </trkpt>
      <trkpt lat="45.83124" lon="4.94714">
        <ele>300.9</ele>
        <time>2020-09-12T11:21:38Z</time>
      </trkpt>
      <trkpt lat="45.83118" lon="4.94713">
        <ele>300.9</ele>
        <time>2020-09-12T11:21:39Z</time>
      </trkpt>
      <trkpt lat="45.83112" lon="4.94711">
        <ele>300.9</ele>
        <time>2020-09-12T11:21:40Z</time>
      </trkpt>
      <trkpt lat="45.83106" lon="4.9471">
        <ele>301</ele>
        <time>2020-09-12T11:21:41Z</time>
      </trkpt>
      <trkpt lat="45.83102" lon="4.94709">
        <ele>301</ele>
        <time>2020-09-12T11:21:42Z</time>
      </trkpt>
      <trkpt lat="45.83095" lon="4.94707">
        <ele>301</ele>
        <time>2020-09-12T11:21:43Z</time>
      </trkpt>
      <trkpt lat="45.83089" lon="4.94705">
        <ele>301.1</ele>
        <time>2020-09-12T11:21:44Z</time>
      </trkpt>
      <trkpt lat="45.83084" lon="4.94704">
        <ele>301.2</ele>
        <time>2020-09-12T11:21:45Z</time>
      </trkpt>
      <trkpt lat="45.83078" lon="4.94702">
        <ele>300.1</ele>
        <time>2020-09-12T11:21:46Z</time>
      </trkpt>
      <trkpt lat="45.83072" lon="4.94701">
        <ele>300.1</ele>
        <time>2020-09-12T11:21:47Z</time>
      </trkpt>
      <trkpt lat="45.83066" lon="4.947">
        <ele>300</ele>
        <time>2020-09-12T11:21:48Z</time>
      </trkpt>
      <trkpt lat="45.8306" lon="4.94698">
        <ele>299.9</ele>
        <time>2020-09-12T11:21:49Z</time>
      </trkpt>
      <trkpt lat="45.83054" lon="4.94697">
        <ele>299.8</ele>
        <time>2020-09-12T11:21:50Z</time>
      </trkpt>
      <trkpt lat="45.83048" lon="4.94694">
        <ele>299.7</ele>
        <time>2020-09-12T11:21:51Z</time>
      </trkpt>
      <trkpt lat="45.83041" lon="4.94694">
        <ele>299.5</ele>
        <time>2020-09-12T11:21:52Z</time>
      </trkpt>
      <trkpt lat="45.83035" lon="4.94693">
        <ele>299.4</ele>
        <time>2020-09-12T11:21:53Z</time>
      </trkpt>
      <trkpt lat="45.83029" lon="4.9469">
        <ele>299.3</ele>
        <time>2020-09-12T11:21:54Z</time>
      </trkpt>
      <trkpt lat="45.83023" lon="4.94686">
        <ele>299.2</ele>
        <time>2020-09-12T11:21:55Z</time>
      </trkpt>
      <trkpt lat="45.83018" lon="4.94684">
        <ele>299.2</ele>
        <time>2020-09-12T11:21:56Z</time>
      </trkpt>
      <trkpt lat="45.83013" lon="4.94679">
        <ele>299.2</ele>
        <time>2020-09-12T11:21:57Z</time>
      </trkpt>
      <trkpt lat="45.83009" lon="4.94674">
        <ele>299.1</ele>
        <time>2020-09-12T11:21:58Z</time>
      </trkpt>
      <trkpt lat="45.83005" lon="4.94667">
        <ele>299.1</ele>
        <time>2020-09-12T11:21:59Z</time>
      </trkpt>
      <trkpt lat="45.83001" lon="4.94663">
        <ele>299.4</ele>
        <time>2020-09-12T11:22:00Z</time>
      </trkpt>
      <trkpt lat="45.82997" lon="4.94659">
        <ele>299</ele>
        <time>2020-09-12T11:22:01Z</time>
      </trkpt>
      <trkpt lat="45.8299" lon="4.94652">
        <ele>298.9</ele>
        <time>2020-09-12T11:22:03Z</time>
      </trkpt>
      <trkpt lat="45.82983" lon="4.94645">
        <ele>298.9</ele>
        <time>2020-09-12T11:22:05Z</time>
      </trkpt>
      <trkpt lat="45.8298" lon="4.94642">
        <ele>298.9</ele>
        <time>2020-09-12T11:22:06Z</time>
      </trkpt>
      <trkpt lat="45.82973" lon="4.94636">
        <ele>298.9</ele>
        <time>2020-09-12T11:22:08Z</time>
      </trkpt>
      <trkpt lat="45.82967" lon="4.94631">
        <ele>298.8</ele>
        <time>2020-09-12T11:22:10Z</time>
      </trkpt>
      <trkpt lat="45.82962" lon="4.94626">
        <ele>298.8</ele>
        <time>2020-09-12T11:22:11Z</time>
      </trkpt>
      <trkpt lat="45.82958" lon="4.94622">
        <ele>298.8</ele>
        <time>2020-09-12T11:22:12Z</time>
      </trkpt>
      <trkpt lat="45.82954" lon="4.94618">
        <ele>298.8</ele>
        <time>2020-09-12T11:22:13Z</time>
      </trkpt>
      <trkpt lat="45.82949" lon="4.94611">
        <ele>298.7</ele>
        <time>2020-09-12T11:22:15Z</time>
      </trkpt>
      <trkpt lat="45.82944" lon="4.94607">
        <ele>298.6</ele>
        <time>2020-09-12T11:22:17Z</time>
      </trkpt>
      <trkpt lat="45.82945" lon="4.946">
        <ele>298.7</ele>
        <time>2020-09-12T11:22:26Z</time>
      </trkpt>
      <trkpt lat="45.82945" lon="4.94602">
        <ele>298.7</ele>
        <time>2020-09-12T11:22:43Z</time>
      </trkpt>
      <trkpt lat="45.82945" lon="4.94602">
        <ele>298.7</ele>
        <time>2020-09-12T11:22:45Z</time>
      </trkpt>
      <trkpt lat="45.82948" lon="4.94605">
        <ele>298.7</ele>
        <time>2020-09-12T11:23:13Z</time>
      </trkpt>
      <trkpt lat="45.82948" lon="4.94606">
        <ele>298.7</ele>
        <time>2020-09-12T11:23:15Z</time>
      </trkpt>
      <trkpt lat="45.82949" lon="4.94606">
        <ele>298.7</ele>
        <time>2020-09-12T11:23:44Z</time>
      </trkpt>
      <trkpt lat="45.82948" lon="4.94606">
        <ele>298.7</ele>
        <time>2020-09-12T11:23:45Z</time>
      </trkpt>
      <trkpt lat="45.83024" lon="4.94506">
        <ele>303.2</ele>
        <time>2020-09-12T11:26:18Z</time>
      </trkpt>
      <trkpt lat="45.83022" lon="4.94498">
        <ele>304</ele>
        <time>2020-09-12T11:26:19Z</time>
      </trkpt>
      <trkpt lat="45.83021" lon="4.94491">
        <ele>304.1</ele>
        <time>2020-09-12T11:26:20Z</time>
      </trkpt>
      <trkpt lat="45.8302" lon="4.94484">
        <ele>304.1</ele>
        <time>2020-09-12T11:26:21Z</time>
      </trkpt>
      <trkpt lat="45.83019" lon="4.94478">
        <ele>304.2</ele>
        <time>2020-09-12T11:26:22Z</time>
      </trkpt>
      <trkpt lat="45.83017" lon="4.94466">
        <ele>304.4</ele>
        <time>2020-09-12T11:26:24Z</time>
      </trkpt>
      <trkpt lat="45.83015" lon="4.94454">
        <ele>304.6</ele>
        <time>2020-09-12T11:26:26Z</time>
      </trkpt>
      <trkpt lat="45.83014" lon="4.94442">
        <ele>304.7</ele>
        <time>2020-09-12T11:26:28Z</time>
      </trkpt>
      <trkpt lat="45.83014" lon="4.9443">
        <ele>304.8</ele>
        <time>2020-09-12T11:26:30Z</time>
      </trkpt>
      <trkpt lat="45.83013" lon="4.94419">
        <ele>304.9</ele>
        <time>2020-09-12T11:26:32Z</time>
      </trkpt>
      <trkpt lat="45.83012" lon="4.94409">
        <ele>305.5</ele>
        <time>2020-09-12T11:26:34Z</time>
      </trkpt>
      <trkpt lat="45.83011" lon="4.94403">
        <ele>305.6</ele>
        <time>2020-09-12T11:26:35Z</time>
      </trkpt>
      <trkpt lat="45.83011" lon="4.94391">
        <ele>305.9</ele>
        <time>2020-09-12T11:26:37Z</time>
      </trkpt>
      <trkpt lat="45.8301" lon="4.94382">
        <ele>306.1</ele>
        <time>2020-09-12T11:26:38Z</time>
      </trkpt>
      <trkpt lat="45.83007" lon="4.94371">
        <ele>306.2</ele>
        <time>2020-09-12T11:26:40Z</time>
      </trkpt>
      <trkpt lat="45.83006" lon="4.94362">
        <ele>306.4</ele>
        <time>2020-09-12T11:26:42Z</time>
      </trkpt>
      <trkpt lat="45.83004" lon="4.94352">
        <ele>306.5</ele>
        <time>2020-09-12T11:26:44Z</time>
      </trkpt>
      <trkpt lat="45.83004" lon="4.94343">
        <ele>306.7</ele>
        <time>2020-09-12T11:26:46Z</time>
      </trkpt>
      <trkpt lat="45.83003" lon="4.94334">
        <ele>306.9</ele>
        <time>2020-09-12T11:26:48Z</time>
      </trkpt>
      <trkpt lat="45.83002" lon="4.94324">
        <ele>307.2</ele>
        <time>2020-09-12T11:26:50Z</time>
      </trkpt>
      <trkpt lat="45.83001" lon="4.94314">
        <ele>307.3</ele>
        <time>2020-09-12T11:26:52Z</time>
      </trkpt>
      <trkpt lat="45.83" lon="4.94303">
        <ele>306.4</ele>
        <time>2020-09-12T11:26:54Z</time>
      </trkpt>
      <trkpt lat="45.82998" lon="4.94292">
        <ele>306.4</ele>
        <time>2020-09-12T11:26:56Z</time>
      </trkpt>
      <trkpt lat="45.82996" lon="4.94282">
        <ele>306.5</ele>
        <time>2020-09-12T11:26:58Z</time>
      </trkpt>
      <trkpt lat="45.82994" lon="4.94273">
        <ele>306.7</ele>
        <time>2020-09-12T11:27:00Z</time>
      </trkpt>
      <trkpt lat="45.82991" lon="4.94263">
        <ele>307</ele>
        <time>2020-09-12T11:27:02Z</time>
      </trkpt>
      <trkpt lat="45.8299" lon="4.94252">
        <ele>307.2</ele>
        <time>2020-09-12T11:27:04Z</time>
      </trkpt>
      <trkpt lat="45.82987" lon="4.9424">
        <ele>307.4</ele>
        <time>2020-09-12T11:27:06Z</time>
      </trkpt>
      <trkpt lat="45.82984" lon="4.94229">
        <ele>307.2</ele>
        <time>2020-09-12T11:27:08Z</time>
      </trkpt>
      <trkpt lat="45.82981" lon="4.94216">
        <ele>307.1</ele>
        <time>2020-09-12T11:27:10Z</time>
      </trkpt>
      <trkpt lat="45.82979" lon="4.9421">
        <ele>307</ele>
        <time>2020-09-12T11:27:11Z</time>
      </trkpt>
      <trkpt lat="45.82977" lon="4.94203">
        <ele>307</ele>
        <time>2020-09-12T11:27:12Z</time>
      </trkpt>
      <trkpt lat="45.82977" lon="4.94196">
        <ele>307.1</ele>
        <time>2020-09-12T11:27:13Z</time>
      </trkpt>
      <trkpt lat="45.82977" lon="4.94189">
        <ele>307.1</ele>
        <time>2020-09-12T11:27:14Z</time>
      </trkpt>
      <trkpt lat="45.82976" lon="4.94182">
        <ele>307.1</ele>
        <time>2020-09-12T11:27:15Z</time>
      </trkpt>
      <trkpt lat="45.82974" lon="4.94176">
        <ele>307.1</ele>
        <time>2020-09-12T11:27:16Z</time>
      </trkpt>
      <trkpt lat="45.82972" lon="4.9417">
        <ele>307.1</ele>
        <time>2020-09-12T11:27:17Z</time>
      </trkpt>
      <trkpt lat="45.82969" lon="4.94157">
        <ele>307.2</ele>
        <time>2020-09-12T11:27:19Z</time>
      </trkpt>
      <trkpt lat="45.82967" lon="4.94151">
        <ele>307.1</ele>
        <time>2020-09-12T11:27:20Z</time>
      </trkpt>
      <trkpt lat="45.82964" lon="4.94144">
        <ele>307.1</ele>
        <time>2020-09-12T11:27:21Z</time>
      </trkpt>
      <trkpt lat="45.82963" lon="4.94137">
        <ele>307</ele>
        <time>2020-09-12T11:27:22Z</time>
      </trkpt>
      <trkpt lat="45.82961" lon="4.94131">
        <ele>307</ele>
        <time>2020-09-12T11:27:23Z</time>
      </trkpt>
      <trkpt lat="45.82957" lon="4.94117">
        <ele>307</ele>
        <time>2020-09-12T11:27:25Z</time>
      </trkpt>
      <trkpt lat="45.82956" lon="4.94111">
        <ele>307</ele>
        <time>2020-09-12T11:27:26Z</time>
      </trkpt>
      <trkpt lat="45.82954" lon="4.94103">
        <ele>307</ele>
        <time>2020-09-12T11:27:27Z</time>
      </trkpt>
      <trkpt lat="45.82953" lon="4.94096">
        <ele>307</ele>
        <time>2020-09-12T11:27:28Z</time>
      </trkpt>
      <trkpt lat="45.82951" lon="4.94087">
        <ele>307</ele>
        <time>2020-09-12T11:27:29Z</time>
      </trkpt>
      <trkpt lat="45.8295" lon="4.94079">
        <ele>306.8</ele>
        <time>2020-09-12T11:27:30Z</time>
      </trkpt>
      <trkpt lat="45.82948" lon="4.94071">
        <ele>306.8</ele>
        <time>2020-09-12T11:27:31Z</time>
      </trkpt>
      <trkpt lat="45.82945" lon="4.94063">
        <ele>306.8</ele>
        <time>2020-09-12T11:27:32Z</time>
      </trkpt>
      <trkpt lat="45.82943" lon="4.94054">
        <ele>306.8</ele>
        <time>2020-09-12T11:27:33Z</time>
      </trkpt>
      <trkpt lat="45.8294" lon="4.94045">
        <ele>306.7</ele>
        <time>2020-09-12T11:27:34Z</time>
      </trkpt>
      <trkpt lat="45.82938" lon="4.94037">
        <ele>306.7</ele>
        <time>2020-09-12T11:27:35Z</time>
      </trkpt>
      <trkpt lat="45.82937" lon="4.94027">
        <ele>306.6</ele>
        <time>2020-09-12T11:27:36Z</time>
      </trkpt>
      <trkpt lat="45.82935" lon="4.94019">
        <ele>306.5</ele>
        <time>2020-09-12T11:27:37Z</time>
      </trkpt>
      <trkpt lat="45.82933" lon="4.9401">
        <ele>306.4</ele>
        <time>2020-09-12T11:27:38Z</time>
      </trkpt>
      <trkpt lat="45.82932" lon="4.94001">
        <ele>306.3</ele>
        <time>2020-09-12T11:27:39Z</time>
      </trkpt>
      <trkpt lat="45.8293" lon="4.93992">
        <ele>306.3</ele>
        <time>2020-09-12T11:27:40Z</time>
      </trkpt>
      <trkpt lat="45.82929" lon="4.93982">
        <ele>306.4</ele>
        <time>2020-09-12T11:27:41Z</time>
      </trkpt>
      <trkpt lat="45.82927" lon="4.93973">
        <ele>306.5</ele>
        <time>2020-09-12T11:27:42Z</time>
      </trkpt>
      <trkpt lat="45.82925" lon="4.93965">
        <ele>306.5</ele>
        <time>2020-09-12T11:27:43Z</time>
      </trkpt>
      <trkpt lat="45.82922" lon="4.93955">
        <ele>306.5</ele>
        <time>2020-09-12T11:27:44Z</time>
      </trkpt>
      <trkpt lat="45.82921" lon="4.93947">
        <ele>306.5</ele>
        <time>2020-09-12T11:27:45Z</time>
      </trkpt>
      <trkpt lat="45.82919" lon="4.93937">
        <ele>306.4</ele>
        <time>2020-09-12T11:27:46Z</time>
      </trkpt>
      <trkpt lat="45.82916" lon="4.93927">
        <ele>305.7</ele>
        <time>2020-09-12T11:27:47Z</time>
      </trkpt>
      <trkpt lat="45.82914" lon="4.93918">
        <ele>305.9</ele>
        <time>2020-09-12T11:27:48Z</time>
      </trkpt>
      <trkpt lat="45.82911" lon="4.9391">
        <ele>305.7</ele>
        <time>2020-09-12T11:27:49Z</time>
      </trkpt>
      <trkpt lat="45.82909" lon="4.939">
        <ele>305.5</ele>
        <time>2020-09-12T11:27:50Z</time>
      </trkpt>
      <trkpt lat="45.82907" lon="4.93892">
        <ele>305.3</ele>
        <time>2020-09-12T11:27:51Z</time>
      </trkpt>
      <trkpt lat="45.82904" lon="4.93882">
        <ele>305.3</ele>
        <time>2020-09-12T11:27:52Z</time>
      </trkpt>
      <trkpt lat="45.82903" lon="4.93872">
        <ele>305.3</ele>
        <time>2020-09-12T11:27:53Z</time>
      </trkpt>
      <trkpt lat="45.82901" lon="4.93863">
        <ele>305.4</ele>
        <time>2020-09-12T11:27:54Z</time>
      </trkpt>
      <trkpt lat="45.829" lon="4.93853">
        <ele>305.5</ele>
        <time>2020-09-12T11:27:55Z</time>
      </trkpt>
      <trkpt lat="45.82898" lon="4.93843">
        <ele>305.6</ele>
        <time>2020-09-12T11:27:56Z</time>
      </trkpt>
      <trkpt lat="45.82895" lon="4.93834">
        <ele>305.6</ele>
        <time>2020-09-12T11:27:57Z</time>
      </trkpt>
      <trkpt lat="45.82893" lon="4.93825">
        <ele>305</ele>
        <time>2020-09-12T11:27:58Z</time>
      </trkpt>
      <trkpt lat="45.82891" lon="4.93816">
        <ele>304.8</ele>
        <time>2020-09-12T11:27:59Z</time>
      </trkpt>
      <trkpt lat="45.82887" lon="4.93806">
        <ele>304.5</ele>
        <time>2020-09-12T11:28:00Z</time>
      </trkpt>
      <trkpt lat="45.82886" lon="4.93796">
        <ele>304.3</ele>
        <time>2020-09-12T11:28:01Z</time>
      </trkpt>
      <trkpt lat="45.82885" lon="4.93787">
        <ele>304.3</ele>
        <time>2020-09-12T11:28:02Z</time>
      </trkpt>
      <trkpt lat="45.82882" lon="4.93777">
        <ele>304.2</ele>
        <time>2020-09-12T11:28:03Z</time>
      </trkpt>
      <trkpt lat="45.8288" lon="4.93767">
        <ele>304.1</ele>
        <time>2020-09-12T11:28:04Z</time>
      </trkpt>
      <trkpt lat="45.82877" lon="4.93757">
        <ele>303.9</ele>
        <time>2020-09-12T11:28:05Z</time>
      </trkpt>
      <trkpt lat="45.82874" lon="4.93746">
        <ele>303.1</ele>
        <time>2020-09-12T11:28:06Z</time>
      </trkpt>
      <trkpt lat="45.82872" lon="4.93738">
        <ele>303</ele>
        <time>2020-09-12T11:28:07Z</time>
      </trkpt>
      <trkpt lat="45.82869" lon="4.93727">
        <ele>302.9</ele>
        <time>2020-09-12T11:28:08Z</time>
      </trkpt>
      <trkpt lat="45.82867" lon="4.93717">
        <ele>302.8</ele>
        <time>2020-09-12T11:28:09Z</time>
      </trkpt>
      <trkpt lat="45.82864" lon="4.93706">
        <ele>302.7</ele>
        <time>2020-09-12T11:28:10Z</time>
      </trkpt>
      <trkpt lat="45.82861" lon="4.93696">
        <ele>302.6</ele>
        <time>2020-09-12T11:28:11Z</time>
      </trkpt>
      <trkpt lat="45.82859" lon="4.93687">
        <ele>302.5</ele>
        <time>2020-09-12T11:28:12Z</time>
      </trkpt>
      <trkpt lat="45.82857" lon="4.93677">
        <ele>302.3</ele>
        <time>2020-09-12T11:28:13Z</time>
      </trkpt>
      <trkpt lat="45.82855" lon="4.93668">
        <ele>302.2</ele>
        <time>2020-09-12T11:28:14Z</time>
      </trkpt>
      <trkpt lat="45.82853" lon="4.9366">
        <ele>301.8</ele>
        <time>2020-09-12T11:28:15Z</time>
      </trkpt>
      <trkpt lat="45.8285" lon="4.93652">
        <ele>301.8</ele>
        <time>2020-09-12T11:28:16Z</time>
      </trkpt>
      <trkpt lat="45.82847" lon="4.93642">
        <ele>301.9</ele>
        <time>2020-09-12T11:28:17Z</time>
      </trkpt>
      <trkpt lat="45.82844" lon="4.93634">
        <ele>301.9</ele>
        <time>2020-09-12T11:28:18Z</time>
      </trkpt>
      <trkpt lat="45.8284" lon="4.93626">
        <ele>302</ele>
        <time>2020-09-12T11:28:19Z</time>
      </trkpt>
      <trkpt lat="45.82837" lon="4.93616">
        <ele>302</ele>
        <time>2020-09-12T11:28:20Z</time>
      </trkpt>
      <trkpt lat="45.82833" lon="4.93608">
        <ele>301.1</ele>
        <time>2020-09-12T11:28:21Z</time>
      </trkpt>
      <trkpt lat="45.82829" lon="4.93599">
        <ele>301.3</ele>
        <time>2020-09-12T11:28:22Z</time>
      </trkpt>
      <trkpt lat="45.82825" lon="4.9359">
        <ele>301.5</ele>
        <time>2020-09-12T11:28:23Z</time>
      </trkpt>
      <trkpt lat="45.8282" lon="4.93582">
        <ele>301.7</ele>
        <time>2020-09-12T11:28:24Z</time>
      </trkpt>
      <trkpt lat="45.82815" lon="4.93576">
        <ele>301.6</ele>
        <time>2020-09-12T11:28:25Z</time>
      </trkpt>
      <trkpt lat="45.8281" lon="4.93569">
        <ele>301.5</ele>
        <time>2020-09-12T11:28:26Z</time>
      </trkpt>
      <trkpt lat="45.82805" lon="4.93562">
        <ele>301.5</ele>
        <time>2020-09-12T11:28:27Z</time>
      </trkpt>
      <trkpt lat="45.828" lon="4.93555">
        <ele>301.5</ele>
        <time>2020-09-12T11:28:28Z</time>
      </trkpt>
      <trkpt lat="45.82794" lon="4.93547">
        <ele>301.5</ele>
        <time>2020-09-12T11:28:29Z</time>
      </trkpt>
      <trkpt lat="45.82789" lon="4.9354">
        <ele>301.5</ele>
        <time>2020-09-12T11:28:30Z</time>
      </trkpt>
      <trkpt lat="45.82784" lon="4.93532">
        <ele>301.6</ele>
        <time>2020-09-12T11:28:31Z</time>
      </trkpt>
      <trkpt lat="45.8278" lon="4.93525">
        <ele>301.7</ele>
        <time>2020-09-12T11:28:32Z</time>
      </trkpt>
      <trkpt lat="45.82774" lon="4.93517">
        <ele>301.9</ele>
        <time>2020-09-12T11:28:33Z</time>
      </trkpt>
      <trkpt lat="45.82769" lon="4.9351">
        <ele>302.1</ele>
        <time>2020-09-12T11:28:34Z</time>
      </trkpt>
      <trkpt lat="45.82764" lon="4.93504">
        <ele>302.3</ele>
        <time>2020-09-12T11:28:35Z</time>
      </trkpt>
      <trkpt lat="45.82758" lon="4.93498">
        <ele>302.7</ele>
        <time>2020-09-12T11:28:36Z</time>
      </trkpt>
      <trkpt lat="45.82754" lon="4.93492">
        <ele>302.7</ele>
        <time>2020-09-12T11:28:37Z</time>
      </trkpt>
      <trkpt lat="45.82749" lon="4.93485">
        <ele>303.4</ele>
        <time>2020-09-12T11:28:38Z</time>
      </trkpt>
      <trkpt lat="45.82744" lon="4.93478">
        <ele>303.5</ele>
        <time>2020-09-12T11:28:39Z</time>
      </trkpt>
      <trkpt lat="45.82739" lon="4.93473">
        <ele>303.6</ele>
        <time>2020-09-12T11:28:40Z</time>
      </trkpt>
      <trkpt lat="45.82734" lon="4.93466">
        <ele>303.7</ele>
        <time>2020-09-12T11:28:41Z</time>
      </trkpt>
      <trkpt lat="45.82728" lon="4.9346">
        <ele>303.8</ele>
        <time>2020-09-12T11:28:42Z</time>
      </trkpt>
      <trkpt lat="45.82723" lon="4.93453">
        <ele>303.8</ele>
        <time>2020-09-12T11:28:43Z</time>
      </trkpt>
      <trkpt lat="45.82718" lon="4.93447">
        <ele>303.9</ele>
        <time>2020-09-12T11:28:44Z</time>
      </trkpt>
      <trkpt lat="45.82713" lon="4.93441">
        <ele>303.9</ele>
        <time>2020-09-12T11:28:45Z</time>
      </trkpt>
      <trkpt lat="45.82708" lon="4.93435">
        <ele>304</ele>
        <time>2020-09-12T11:28:46Z</time>
      </trkpt>
      <trkpt lat="45.82703" lon="4.93427">
        <ele>304.1</ele>
        <time>2020-09-12T11:28:47Z</time>
      </trkpt>
      <trkpt lat="45.82699" lon="4.93421">
        <ele>304.2</ele>
        <time>2020-09-12T11:28:48Z</time>
      </trkpt>
      <trkpt lat="45.82695" lon="4.93415">
        <ele>304.5</ele>
        <time>2020-09-12T11:28:49Z</time>
      </trkpt>
      <trkpt lat="45.8269" lon="4.93409">
        <ele>304.6</ele>
        <time>2020-09-12T11:28:50Z</time>
      </trkpt>
      <trkpt lat="45.82686" lon="4.93403">
        <ele>304.7</ele>
        <time>2020-09-12T11:28:51Z</time>
      </trkpt>
      <trkpt lat="45.8268" lon="4.93397">
        <ele>304.7</ele>
        <time>2020-09-12T11:28:52Z</time>
      </trkpt>
      <trkpt lat="45.82676" lon="4.9339">
        <ele>304.8</ele>
        <time>2020-09-12T11:28:53Z</time>
      </trkpt>
      <trkpt lat="45.82671" lon="4.93384">
        <ele>304.8</ele>
        <time>2020-09-12T11:28:54Z</time>
      </trkpt>
      <trkpt lat="45.82666" lon="4.93378">
        <ele>305.6</ele>
        <time>2020-09-12T11:28:55Z</time>
      </trkpt>
      <trkpt lat="45.82661" lon="4.93373">
        <ele>305.7</ele>
        <time>2020-09-12T11:28:56Z</time>
      </trkpt>
      <trkpt lat="45.82656" lon="4.93366">
        <ele>305.7</ele>
        <time>2020-09-12T11:28:57Z</time>
      </trkpt>
      <trkpt lat="45.82652" lon="4.9336">
        <ele>305.8</ele>
        <time>2020-09-12T11:28:58Z</time>
      </trkpt>
      <trkpt lat="45.82646" lon="4.93353">
        <ele>305.9</ele>
        <time>2020-09-12T11:28:59Z</time>
      </trkpt>
      <trkpt lat="45.82642" lon="4.93347">
        <ele>305.9</ele>
        <time>2020-09-12T11:29:00Z</time>
      </trkpt>
      <trkpt lat="45.82637" lon="4.93341">
        <ele>305.9</ele>
        <time>2020-09-12T11:29:01Z</time>
      </trkpt>
      <trkpt lat="45.82633" lon="4.93334">
        <ele>306</ele>
        <time>2020-09-12T11:29:02Z</time>
      </trkpt>
      <trkpt lat="45.82622" lon="4.93321">
        <ele>306.4</ele>
        <time>2020-09-12T11:29:04Z</time>
      </trkpt>
      <trkpt lat="45.82618" lon="4.93315">
        <ele>306.4</ele>
        <time>2020-09-12T11:29:05Z</time>
      </trkpt>
      <trkpt lat="45.82614" lon="4.93308">
        <ele>306.4</ele>
        <time>2020-09-12T11:29:06Z</time>
      </trkpt>
      <trkpt lat="45.8261" lon="4.93302">
        <ele>306.4</ele>
        <time>2020-09-12T11:29:07Z</time>
      </trkpt>
      <trkpt lat="45.82608" lon="4.93296">
        <ele>306.4</ele>
        <time>2020-09-12T11:29:08Z</time>
      </trkpt>
      <trkpt lat="45.82605" lon="4.93289">
        <ele>306.4</ele>
        <time>2020-09-12T11:29:09Z</time>
      </trkpt>
      <trkpt lat="45.826" lon="4.93282">
        <ele>306.5</ele>
        <time>2020-09-12T11:29:10Z</time>
      </trkpt>
      <trkpt lat="45.82597" lon="4.93275">
        <ele>306.5</ele>
        <time>2020-09-12T11:29:11Z</time>
      </trkpt>
      <trkpt lat="45.82594" lon="4.93266">
        <ele>306.6</ele>
        <time>2020-09-12T11:29:12Z</time>
      </trkpt>
      <trkpt lat="45.8259" lon="4.9326">
        <ele>306.7</ele>
        <time>2020-09-12T11:29:13Z</time>
      </trkpt>
      <trkpt lat="45.82587" lon="4.93252">
        <ele>306.9</ele>
        <time>2020-09-12T11:29:14Z</time>
      </trkpt>
      <trkpt lat="45.82585" lon="4.93243">
        <ele>306.8</ele>
        <time>2020-09-12T11:29:15Z</time>
      </trkpt>
      <trkpt lat="45.82581" lon="4.93235">
        <ele>307.4</ele>
        <time>2020-09-12T11:29:16Z</time>
      </trkpt>
      <trkpt lat="45.82578" lon="4.93226">
        <ele>307.5</ele>
        <time>2020-09-12T11:29:17Z</time>
      </trkpt>
      <trkpt lat="45.82576" lon="4.93217">
        <ele>307.6</ele>
        <time>2020-09-12T11:29:18Z</time>
      </trkpt>
      <trkpt lat="45.82573" lon="4.93209">
        <ele>307.7</ele>
        <time>2020-09-12T11:29:19Z</time>
      </trkpt>
      <trkpt lat="45.8257" lon="4.932">
        <ele>307.7</ele>
        <time>2020-09-12T11:29:20Z</time>
      </trkpt>
      <trkpt lat="45.82569" lon="4.93191">
        <ele>307.8</ele>
        <time>2020-09-12T11:29:21Z</time>
      </trkpt>
      <trkpt lat="45.82567" lon="4.93181">
        <ele>307.8</ele>
        <time>2020-09-12T11:29:22Z</time>
      </trkpt>
      <trkpt lat="45.82565" lon="4.93173">
        <ele>307.9</ele>
        <time>2020-09-12T11:29:23Z</time>
      </trkpt>
      <trkpt lat="45.82563" lon="4.93164">
        <ele>307.7</ele>
        <time>2020-09-12T11:29:24Z</time>
      </trkpt>
      <trkpt lat="45.82561" lon="4.93155">
        <ele>307.7</ele>
        <time>2020-09-12T11:29:25Z</time>
      </trkpt>
      <trkpt lat="45.8256" lon="4.93146">
        <ele>307.6</ele>
        <time>2020-09-12T11:29:26Z</time>
      </trkpt>
      <trkpt lat="45.82557" lon="4.93137">
        <ele>307.6</ele>
        <time>2020-09-12T11:29:27Z</time>
      </trkpt>
      <trkpt lat="45.82555" lon="4.93127">
        <ele>307.5</ele>
        <time>2020-09-12T11:29:28Z</time>
      </trkpt>
      <trkpt lat="45.82554" lon="4.93118">
        <ele>307.5</ele>
        <time>2020-09-12T11:29:29Z</time>
      </trkpt>
      <trkpt lat="45.82551" lon="4.93107">
        <ele>307.4</ele>
        <time>2020-09-12T11:29:30Z</time>
      </trkpt>
      <trkpt lat="45.82549" lon="4.93098">
        <ele>307.3</ele>
        <time>2020-09-12T11:29:31Z</time>
      </trkpt>
      <trkpt lat="45.82547" lon="4.93089">
        <ele>307.3</ele>
        <time>2020-09-12T11:29:32Z</time>
      </trkpt>
      <trkpt lat="45.82546" lon="4.9308">
        <ele>306.4</ele>
        <time>2020-09-12T11:29:33Z</time>
      </trkpt>
      <trkpt lat="45.82544" lon="4.9307">
        <ele>306.3</ele>
        <time>2020-09-12T11:29:34Z</time>
      </trkpt>
      <trkpt lat="45.82544" lon="4.93062">
        <ele>306.2</ele>
        <time>2020-09-12T11:29:35Z</time>
      </trkpt>
      <trkpt lat="45.82541" lon="4.93053">
        <ele>306.1</ele>
        <time>2020-09-12T11:29:36Z</time>
      </trkpt>
      <trkpt lat="45.82539" lon="4.93043">
        <ele>306</ele>
        <time>2020-09-12T11:29:37Z</time>
      </trkpt>
      <trkpt lat="45.82537" lon="4.93034">
        <ele>305.9</ele>
        <time>2020-09-12T11:29:38Z</time>
      </trkpt>
      <trkpt lat="45.82534" lon="4.93024">
        <ele>305.8</ele>
        <time>2020-09-12T11:29:39Z</time>
      </trkpt>
      <trkpt lat="45.82532" lon="4.93014">
        <ele>305.7</ele>
        <time>2020-09-12T11:29:40Z</time>
      </trkpt>
      <trkpt lat="45.82529" lon="4.93004">
        <ele>305.6</ele>
        <time>2020-09-12T11:29:41Z</time>
      </trkpt>
      <trkpt lat="45.82526" lon="4.92995">
        <ele>305</ele>
        <time>2020-09-12T11:29:42Z</time>
      </trkpt>
      <trkpt lat="45.82523" lon="4.92985">
        <ele>305</ele>
        <time>2020-09-12T11:29:43Z</time>
      </trkpt>
      <trkpt lat="45.82522" lon="4.92975">
        <ele>305</ele>
        <time>2020-09-12T11:29:44Z</time>
      </trkpt>
      <trkpt lat="45.8252" lon="4.92966">
        <ele>305</ele>
        <time>2020-09-12T11:29:45Z</time>
      </trkpt>
      <trkpt lat="45.82518" lon="4.92957">
        <ele>305</ele>
        <time>2020-09-12T11:29:46Z</time>
      </trkpt>
      <trkpt lat="45.82516" lon="4.92948">
        <ele>305</ele>
        <time>2020-09-12T11:29:47Z</time>
      </trkpt>
      <trkpt lat="45.82514" lon="4.92939">
        <ele>305</ele>
        <time>2020-09-12T11:29:48Z</time>
      </trkpt>
      <trkpt lat="45.82512" lon="4.92929">
        <ele>305</ele>
        <time>2020-09-12T11:29:49Z</time>
      </trkpt>
      <trkpt lat="45.82509" lon="4.9292">
        <ele>305</ele>
        <time>2020-09-12T11:29:50Z</time>
      </trkpt>
      <trkpt lat="45.82507" lon="4.92913">
        <ele>305</ele>
        <time>2020-09-12T11:29:51Z</time>
      </trkpt>
      <trkpt lat="45.82504" lon="4.92904">
        <ele>305</ele>
        <time>2020-09-12T11:29:52Z</time>
      </trkpt>
      <trkpt lat="45.82502" lon="4.92895">
        <ele>305.1</ele>
        <time>2020-09-12T11:29:53Z</time>
      </trkpt>
      <trkpt lat="45.825" lon="4.92887">
        <ele>305.1</ele>
        <time>2020-09-12T11:29:54Z</time>
      </trkpt>
      <trkpt lat="45.82499" lon="4.92878">
        <ele>305.8</ele>
        <time>2020-09-12T11:29:55Z</time>
      </trkpt>
      <trkpt lat="45.82496" lon="4.92871">
        <ele>305.8</ele>
        <time>2020-09-12T11:29:56Z</time>
      </trkpt>
      <trkpt lat="45.82494" lon="4.92862">
        <ele>305.9</ele>
        <time>2020-09-12T11:29:57Z</time>
      </trkpt>
      <trkpt lat="45.82493" lon="4.92855">
        <ele>305.9</ele>
        <time>2020-09-12T11:29:58Z</time>
      </trkpt>
      <trkpt lat="45.82491" lon="4.92846">
        <ele>306</ele>
        <time>2020-09-12T11:29:59Z</time>
      </trkpt>
      <trkpt lat="45.82489" lon="4.92838">
        <ele>306</ele>
        <time>2020-09-12T11:30:00Z</time>
      </trkpt>
      <trkpt lat="45.82487" lon="4.92831">
        <ele>306.1</ele>
        <time>2020-09-12T11:30:01Z</time>
      </trkpt>
      <trkpt lat="45.82485" lon="4.92823">
        <ele>306.1</ele>
        <time>2020-09-12T11:30:02Z</time>
      </trkpt>
      <trkpt lat="45.82484" lon="4.92816">
        <ele>306.1</ele>
        <time>2020-09-12T11:30:03Z</time>
      </trkpt>
      <trkpt lat="45.82483" lon="4.92809">
        <ele>306.1</ele>
        <time>2020-09-12T11:30:04Z</time>
      </trkpt>
      <trkpt lat="45.8248" lon="4.92801">
        <ele>306.2</ele>
        <time>2020-09-12T11:30:05Z</time>
      </trkpt>
      <trkpt lat="45.82479" lon="4.92793">
        <ele>306.2</ele>
        <time>2020-09-12T11:30:06Z</time>
      </trkpt>
      <trkpt lat="45.82477" lon="4.92785">
        <ele>306.2</ele>
        <time>2020-09-12T11:30:07Z</time>
      </trkpt>
      <trkpt lat="45.82475" lon="4.92778">
        <ele>306.2</ele>
        <time>2020-09-12T11:30:08Z</time>
      </trkpt>
      <trkpt lat="45.82474" lon="4.9277">
        <ele>306.2</ele>
        <time>2020-09-12T11:30:09Z</time>
      </trkpt>
      <trkpt lat="45.82473" lon="4.92762">
        <ele>306.2</ele>
        <time>2020-09-12T11:30:10Z</time>
      </trkpt>
      <trkpt lat="45.82471" lon="4.92755">
        <ele>306.2</ele>
        <time>2020-09-12T11:30:11Z</time>
      </trkpt>
      <trkpt lat="45.82469" lon="4.92746">
        <ele>306</ele>
        <time>2020-09-12T11:30:12Z</time>
      </trkpt>
      <trkpt lat="45.82467" lon="4.92738">
        <ele>305.9</ele>
        <time>2020-09-12T11:30:13Z</time>
      </trkpt>
      <trkpt lat="45.82465" lon="4.9273">
        <ele>305.9</ele>
        <time>2020-09-12T11:30:14Z</time>
      </trkpt>
      <trkpt lat="45.82463" lon="4.92723">
        <ele>305.9</ele>
        <time>2020-09-12T11:30:15Z</time>
      </trkpt>
      <trkpt lat="45.82463" lon="4.92716">
        <ele>305.8</ele>
        <time>2020-09-12T11:30:16Z</time>
      </trkpt>
      <trkpt lat="45.82461" lon="4.92708">
        <ele>305.7</ele>
        <time>2020-09-12T11:30:17Z</time>
      </trkpt>
      <trkpt lat="45.8246" lon="4.927">
        <ele>305.7</ele>
        <time>2020-09-12T11:30:18Z</time>
      </trkpt>
      <trkpt lat="45.82457" lon="4.92691">
        <ele>305.6</ele>
        <time>2020-09-12T11:30:19Z</time>
      </trkpt>
      <trkpt lat="45.82456" lon="4.92685">
        <ele>305.6</ele>
        <time>2020-09-12T11:30:20Z</time>
      </trkpt>
      <trkpt lat="45.82454" lon="4.92676">
        <ele>305.5</ele>
        <time>2020-09-12T11:30:21Z</time>
      </trkpt>
      <trkpt lat="45.82452" lon="4.92667">
        <ele>305.5</ele>
        <time>2020-09-12T11:30:22Z</time>
      </trkpt>
      <trkpt lat="45.82451" lon="4.92658">
        <ele>304.8</ele>
        <time>2020-09-12T11:30:23Z</time>
      </trkpt>
      <trkpt lat="45.82448" lon="4.92648">
        <ele>304.8</ele>
        <time>2020-09-12T11:30:24Z</time>
      </trkpt>
      <trkpt lat="45.82446" lon="4.92639">
        <ele>304.7</ele>
        <time>2020-09-12T11:30:25Z</time>
      </trkpt>
      <trkpt lat="45.82445" lon="4.92629">
        <ele>304.7</ele>
        <time>2020-09-12T11:30:26Z</time>
      </trkpt>
      <trkpt lat="45.82444" lon="4.9262">
        <ele>304.6</ele>
        <time>2020-09-12T11:30:27Z</time>
      </trkpt>
      <trkpt lat="45.82442" lon="4.9261">
        <ele>304.5</ele>
        <time>2020-09-12T11:30:28Z</time>
      </trkpt>
      <trkpt lat="45.8244" lon="4.926">
        <ele>304.3</ele>
        <time>2020-09-12T11:30:29Z</time>
      </trkpt>
      <trkpt lat="45.82438" lon="4.92591">
        <ele>304.1</ele>
        <time>2020-09-12T11:30:30Z</time>
      </trkpt>
      <trkpt lat="45.82435" lon="4.9258">
        <ele>303.6</ele>
        <time>2020-09-12T11:30:31Z</time>
      </trkpt>
      <trkpt lat="45.82433" lon="4.9257">
        <ele>303.6</ele>
        <time>2020-09-12T11:30:32Z</time>
      </trkpt>
      <trkpt lat="45.82431" lon="4.92552">
        <ele>303.6</ele>
        <time>2020-09-12T11:30:34Z</time>
      </trkpt>
      <trkpt lat="45.8243" lon="4.92542">
        <ele>303.5</ele>
        <time>2020-09-12T11:30:35Z</time>
      </trkpt>
      <trkpt lat="45.8243" lon="4.92533">
        <ele>303.5</ele>
        <time>2020-09-12T11:30:36Z</time>
      </trkpt>
      <trkpt lat="45.82428" lon="4.92525">
        <ele>303.3</ele>
        <time>2020-09-12T11:30:37Z</time>
      </trkpt>
      <trkpt lat="45.82427" lon="4.92514">
        <ele>303</ele>
        <time>2020-09-12T11:30:38Z</time>
      </trkpt>
      <trkpt lat="45.82425" lon="4.92505">
        <ele>302.7</ele>
        <time>2020-09-12T11:30:39Z</time>
      </trkpt>
      <trkpt lat="45.82424" lon="4.92495">
        <ele>302.6</ele>
        <time>2020-09-12T11:30:40Z</time>
      </trkpt>
      <trkpt lat="45.82422" lon="4.92485">
        <ele>302.9</ele>
        <time>2020-09-12T11:30:41Z</time>
      </trkpt>
      <trkpt lat="45.82422" lon="4.92475">
        <ele>303.2</ele>
        <time>2020-09-12T11:30:42Z</time>
      </trkpt>
      <trkpt lat="45.8242" lon="4.92465">
        <ele>303.4</ele>
        <time>2020-09-12T11:30:43Z</time>
      </trkpt>
      <trkpt lat="45.82419" lon="4.92454">
        <ele>303.5</ele>
        <time>2020-09-12T11:30:44Z</time>
      </trkpt>
      <trkpt lat="45.82418" lon="4.92444">
        <ele>303.5</ele>
        <time>2020-09-12T11:30:45Z</time>
      </trkpt>
      <trkpt lat="45.82416" lon="4.92435">
        <ele>301.9</ele>
        <time>2020-09-12T11:30:46Z</time>
      </trkpt>
      <trkpt lat="45.82415" lon="4.92425">
        <ele>302.4</ele>
        <time>2020-09-12T11:30:47Z</time>
      </trkpt>
      <trkpt lat="45.82415" lon="4.92414">
        <ele>302.7</ele>
        <time>2020-09-12T11:30:48Z</time>
      </trkpt>
      <trkpt lat="45.82414" lon="4.92403">
        <ele>302.2</ele>
        <time>2020-09-12T11:30:49Z</time>
      </trkpt>
      <trkpt lat="45.82413" lon="4.92393">
        <ele>301.8</ele>
        <time>2020-09-12T11:30:50Z</time>
      </trkpt>
      <trkpt lat="45.82411" lon="4.92382">
        <ele>301.6</ele>
        <time>2020-09-12T11:30:51Z</time>
      </trkpt>
      <trkpt lat="45.82411" lon="4.92372">
        <ele>301.5</ele>
        <time>2020-09-12T11:30:52Z</time>
      </trkpt>
      <trkpt lat="45.8241" lon="4.92362">
        <ele>301.5</ele>
        <time>2020-09-12T11:30:53Z</time>
      </trkpt>
      <trkpt lat="45.82409" lon="4.9235">
        <ele>301.6</ele>
        <time>2020-09-12T11:30:54Z</time>
      </trkpt>
      <trkpt lat="45.82409" lon="4.92339">
        <ele>301.7</ele>
        <time>2020-09-12T11:30:55Z</time>
      </trkpt>
      <trkpt lat="45.82409" lon="4.92329">
        <ele>301.6</ele>
        <time>2020-09-12T11:30:56Z</time>
      </trkpt>
      <trkpt lat="45.82408" lon="4.92318">
        <ele>301.5</ele>
        <time>2020-09-12T11:30:57Z</time>
      </trkpt>
      <trkpt lat="45.82408" lon="4.92306">
        <ele>301.3</ele>
        <time>2020-09-12T11:30:58Z</time>
      </trkpt>
      <trkpt lat="45.82408" lon="4.92294">
        <ele>301.3</ele>
        <time>2020-09-12T11:30:59Z</time>
      </trkpt>
      <trkpt lat="45.82409" lon="4.92284">
        <ele>301.4</ele>
        <time>2020-09-12T11:31:00Z</time>
      </trkpt>
      <trkpt lat="45.82412" lon="4.92274">
        <ele>301.6</ele>
        <time>2020-09-12T11:31:01Z</time>
      </trkpt>
      <trkpt lat="45.82414" lon="4.92264">
        <ele>302</ele>
        <time>2020-09-12T11:31:02Z</time>
      </trkpt>
      <trkpt lat="45.82417" lon="4.92253">
        <ele>302.7</ele>
        <time>2020-09-12T11:31:03Z</time>
      </trkpt>
      <trkpt lat="45.82419" lon="4.92244">
        <ele>302.6</ele>
        <time>2020-09-12T11:31:04Z</time>
      </trkpt>
      <trkpt lat="45.82422" lon="4.92234">
        <ele>302.2</ele>
        <time>2020-09-12T11:31:05Z</time>
      </trkpt>
      <trkpt lat="45.82424" lon="4.92224">
        <ele>301.9</ele>
        <time>2020-09-12T11:31:06Z</time>
      </trkpt>
      <trkpt lat="45.82427" lon="4.92214">
        <ele>301.6</ele>
        <time>2020-09-12T11:31:07Z</time>
      </trkpt>
      <trkpt lat="45.8243" lon="4.92204">
        <ele>301.4</ele>
        <time>2020-09-12T11:31:08Z</time>
      </trkpt>
      <trkpt lat="45.82433" lon="4.92195">
        <ele>301.2</ele>
        <time>2020-09-12T11:31:09Z</time>
      </trkpt>
      <trkpt lat="45.82436" lon="4.92185">
        <ele>301</ele>
        <time>2020-09-12T11:31:10Z</time>
      </trkpt>
      <trkpt lat="45.82441" lon="4.92175">
        <ele>300.9</ele>
        <time>2020-09-12T11:31:11Z</time>
      </trkpt>
      <trkpt lat="45.82443" lon="4.92166">
        <ele>299.3</ele>
        <time>2020-09-12T11:31:12Z</time>
      </trkpt>
      <trkpt lat="45.82446" lon="4.92157">
        <ele>299.2</ele>
        <time>2020-09-12T11:31:13Z</time>
      </trkpt>
      <trkpt lat="45.82449" lon="4.92147">
        <ele>299.1</ele>
        <time>2020-09-12T11:31:14Z</time>
      </trkpt>
      <trkpt lat="45.82452" lon="4.92137">
        <ele>298.9</ele>
        <time>2020-09-12T11:31:15Z</time>
      </trkpt>
      <trkpt lat="45.82454" lon="4.92127">
        <ele>298.8</ele>
        <time>2020-09-12T11:31:16Z</time>
      </trkpt>
      <trkpt lat="45.82457" lon="4.92117">
        <ele>298.6</ele>
        <time>2020-09-12T11:31:17Z</time>
      </trkpt>
      <trkpt lat="45.82459" lon="4.92107">
        <ele>298.5</ele>
        <time>2020-09-12T11:31:18Z</time>
      </trkpt>
      <trkpt lat="45.82461" lon="4.92097">
        <ele>298.4</ele>
        <time>2020-09-12T11:31:19Z</time>
      </trkpt>
      <trkpt lat="45.82463" lon="4.92086">
        <ele>298.3</ele>
        <time>2020-09-12T11:31:20Z</time>
      </trkpt>
      <trkpt lat="45.82464" lon="4.92075">
        <ele>297.5</ele>
        <time>2020-09-12T11:31:21Z</time>
      </trkpt>
      <trkpt lat="45.82464" lon="4.92065">
        <ele>297.5</ele>
        <time>2020-09-12T11:31:22Z</time>
      </trkpt>
      <trkpt lat="45.82464" lon="4.92054">
        <ele>297.5</ele>
        <time>2020-09-12T11:31:23Z</time>
      </trkpt>
      <trkpt lat="45.82463" lon="4.92045">
        <ele>297.5</ele>
        <time>2020-09-12T11:31:24Z</time>
      </trkpt>
      <trkpt lat="45.82461" lon="4.92035">
        <ele>297.5</ele>
        <time>2020-09-12T11:31:25Z</time>
      </trkpt>
      <trkpt lat="45.8246" lon="4.92025">
        <ele>297.5</ele>
        <time>2020-09-12T11:31:26Z</time>
      </trkpt>
      <trkpt lat="45.82458" lon="4.92016">
        <ele>297.5</ele>
        <time>2020-09-12T11:31:27Z</time>
      </trkpt>
      <trkpt lat="45.82455" lon="4.92005">
        <ele>297.5</ele>
        <time>2020-09-12T11:31:28Z</time>
      </trkpt>
      <trkpt lat="45.82453" lon="4.91996">
        <ele>297.8</ele>
        <time>2020-09-12T11:31:29Z</time>
      </trkpt>
      <trkpt lat="45.82449" lon="4.91987">
        <ele>297.8</ele>
        <time>2020-09-12T11:31:30Z</time>
      </trkpt>
      <trkpt lat="45.82447" lon="4.91979">
        <ele>297.8</ele>
        <time>2020-09-12T11:31:31Z</time>
      </trkpt>
      <trkpt lat="45.82443" lon="4.9197">
        <ele>297.8</ele>
        <time>2020-09-12T11:31:32Z</time>
      </trkpt>
      <trkpt lat="45.82439" lon="4.91963">
        <ele>297.9</ele>
        <time>2020-09-12T11:31:33Z</time>
      </trkpt>
      <trkpt lat="45.82433" lon="4.91956">
        <ele>297.9</ele>
        <time>2020-09-12T11:31:34Z</time>
      </trkpt>
      <trkpt lat="45.82429" lon="4.9195">
        <ele>297.9</ele>
        <time>2020-09-12T11:31:35Z</time>
      </trkpt>
      <trkpt lat="45.82424" lon="4.91943">
        <ele>297.9</ele>
        <time>2020-09-12T11:31:36Z</time>
      </trkpt>
      <trkpt lat="45.8242" lon="4.91937">
        <ele>298</ele>
        <time>2020-09-12T11:31:37Z</time>
      </trkpt>
      <trkpt lat="45.82414" lon="4.91931">
        <ele>297.5</ele>
        <time>2020-09-12T11:31:38Z</time>
      </trkpt>
      <trkpt lat="45.8241" lon="4.91926">
        <ele>297.6</ele>
        <time>2020-09-12T11:31:39Z</time>
      </trkpt>
      <trkpt lat="45.82406" lon="4.91919">
        <ele>297.6</ele>
        <time>2020-09-12T11:31:40Z</time>
      </trkpt>
      <trkpt lat="45.82403" lon="4.91913">
        <ele>297.8</ele>
        <time>2020-09-12T11:31:41Z</time>
      </trkpt>
      <trkpt lat="45.82401" lon="4.91907">
        <ele>297.7</ele>
        <time>2020-09-12T11:31:42Z</time>
      </trkpt>
      <trkpt lat="45.82399" lon="4.919">
        <ele>297.7</ele>
        <time>2020-09-12T11:31:43Z</time>
      </trkpt>
      <trkpt lat="45.82396" lon="4.91893">
        <ele>297.6</ele>
        <time>2020-09-12T11:31:44Z</time>
      </trkpt>
      <trkpt lat="45.82395" lon="4.91886">
        <ele>297.6</ele>
        <time>2020-09-12T11:31:45Z</time>
      </trkpt>
      <trkpt lat="45.82392" lon="4.9188">
        <ele>297.6</ele>
        <time>2020-09-12T11:31:46Z</time>
      </trkpt>
      <trkpt lat="45.82387" lon="4.91869">
        <ele>297.6</ele>
        <time>2020-09-12T11:31:48Z</time>
      </trkpt>
      <trkpt lat="45.82384" lon="4.91864">
        <ele>297.6</ele>
        <time>2020-09-12T11:31:49Z</time>
      </trkpt>
      <trkpt lat="45.8238" lon="4.91859">
        <ele>297.5</ele>
        <time>2020-09-12T11:31:50Z</time>
      </trkpt>
      <trkpt lat="45.82377" lon="4.91848">
        <ele>297.5</ele>
        <time>2020-09-12T11:31:52Z</time>
      </trkpt>
      <trkpt lat="45.8238" lon="4.91838">
        <ele>297.5</ele>
        <time>2020-09-12T11:31:54Z</time>
      </trkpt>
      <trkpt lat="45.82385" lon="4.91829">
        <ele>297.6</ele>
        <time>2020-09-12T11:31:56Z</time>
      </trkpt>
      <trkpt lat="45.82388" lon="4.91819">
        <ele>297.6</ele>
        <time>2020-09-12T11:31:58Z</time>
      </trkpt>
      <trkpt lat="45.82391" lon="4.91812">
        <ele>297.6</ele>
        <time>2020-09-12T11:32:00Z</time>
      </trkpt>
      <trkpt lat="45.82394" lon="4.91804">
        <ele>297.6</ele>
        <time>2020-09-12T11:32:02Z</time>
      </trkpt>
      <trkpt lat="45.82397" lon="4.918">
        <ele>297.6</ele>
        <time>2020-09-12T11:32:10Z</time>
      </trkpt>
      <trkpt lat="45.82399" lon="4.9179">
        <ele>297.6</ele>
        <time>2020-09-12T11:32:13Z</time>
      </trkpt>
      <trkpt lat="45.824" lon="4.91769">
        <ele>297.7</ele>
        <time>2020-09-12T11:32:17Z</time>
      </trkpt>
      <trkpt lat="45.82398" lon="4.91761">
        <ele>297.7</ele>
        <time>2020-09-12T11:32:18Z</time>
      </trkpt>
      <trkpt lat="45.82399" lon="4.91755">
        <ele>297.7</ele>
        <time>2020-09-12T11:32:19Z</time>
      </trkpt>
      <trkpt lat="45.82399" lon="4.91747">
        <ele>297.4</ele>
        <time>2020-09-12T11:32:20Z</time>
      </trkpt>
      <trkpt lat="45.82399" lon="4.91739">
        <ele>297.3</ele>
        <time>2020-09-12T11:32:21Z</time>
      </trkpt>
      <trkpt lat="45.82398" lon="4.91731">
        <ele>297.2</ele>
        <time>2020-09-12T11:32:22Z</time>
      </trkpt>
      <trkpt lat="45.82396" lon="4.91723">
        <ele>297.1</ele>
        <time>2020-09-12T11:32:23Z</time>
      </trkpt>
      <trkpt lat="45.82394" lon="4.91715">
        <ele>297.1</ele>
        <time>2020-09-12T11:32:24Z</time>
      </trkpt>
      <trkpt lat="45.82392" lon="4.91706">
        <ele>297</ele>
        <time>2020-09-12T11:32:25Z</time>
      </trkpt>
      <trkpt lat="45.8239" lon="4.91698">
        <ele>296.9</ele>
        <time>2020-09-12T11:32:26Z</time>
      </trkpt>
      <trkpt lat="45.82386" lon="4.91688">
        <ele>296.8</ele>
        <time>2020-09-12T11:32:27Z</time>
      </trkpt>
      <trkpt lat="45.82383" lon="4.91677">
        <ele>296.7</ele>
        <time>2020-09-12T11:32:28Z</time>
      </trkpt>
      <trkpt lat="45.82381" lon="4.91668">
        <ele>296.7</ele>
        <time>2020-09-12T11:32:29Z</time>
      </trkpt>
      <trkpt lat="45.82378" lon="4.9166">
        <ele>295.6</ele>
        <time>2020-09-12T11:32:30Z</time>
      </trkpt>
      <trkpt lat="45.82375" lon="4.91652">
        <ele>295.5</ele>
        <time>2020-09-12T11:32:31Z</time>
      </trkpt>
      <trkpt lat="45.82372" lon="4.91643">
        <ele>295.3</ele>
        <time>2020-09-12T11:32:32Z</time>
      </trkpt>
      <trkpt lat="45.82371" lon="4.91632">
        <ele>295.2</ele>
        <time>2020-09-12T11:32:33Z</time>
      </trkpt>
      <trkpt lat="45.82371" lon="4.91622">
        <ele>295.1</ele>
        <time>2020-09-12T11:32:34Z</time>
      </trkpt>
      <trkpt lat="45.82371" lon="4.91613">
        <ele>295</ele>
        <time>2020-09-12T11:32:35Z</time>
      </trkpt>
      <trkpt lat="45.8237" lon="4.91604">
        <ele>294.9</ele>
        <time>2020-09-12T11:32:36Z</time>
      </trkpt>
      <trkpt lat="45.82367" lon="4.91595">
        <ele>294.7</ele>
        <time>2020-09-12T11:32:37Z</time>
      </trkpt>
      <trkpt lat="45.82365" lon="4.91586">
        <ele>294.5</ele>
        <time>2020-09-12T11:32:38Z</time>
      </trkpt>
      <trkpt lat="45.82363" lon="4.91577">
        <ele>294.1</ele>
        <time>2020-09-12T11:32:39Z</time>
      </trkpt>
      <trkpt lat="45.8236" lon="4.91568">
        <ele>294.1</ele>
        <time>2020-09-12T11:32:40Z</time>
      </trkpt>
      <trkpt lat="45.82357" lon="4.91558">
        <ele>294.2</ele>
        <time>2020-09-12T11:32:41Z</time>
      </trkpt>
      <trkpt lat="45.82354" lon="4.9155">
        <ele>294.2</ele>
        <time>2020-09-12T11:32:42Z</time>
      </trkpt>
      <trkpt lat="45.82351" lon="4.91542">
        <ele>294.3</ele>
        <time>2020-09-12T11:32:43Z</time>
      </trkpt>
      <trkpt lat="45.82348" lon="4.91533">
        <ele>294.3</ele>
        <time>2020-09-12T11:32:44Z</time>
      </trkpt>
      <trkpt lat="45.82346" lon="4.91524">
        <ele>294.3</ele>
        <time>2020-09-12T11:32:45Z</time>
      </trkpt>
      <trkpt lat="45.82346" lon="4.91515">
        <ele>294.3</ele>
        <time>2020-09-12T11:32:46Z</time>
      </trkpt>
      <trkpt lat="45.82346" lon="4.91508">
        <ele>294.3</ele>
        <time>2020-09-12T11:32:47Z</time>
      </trkpt>
      <trkpt lat="45.82346" lon="4.91498">
        <ele>294.7</ele>
        <time>2020-09-12T11:32:48Z</time>
      </trkpt>
      <trkpt lat="45.82346" lon="4.91488">
        <ele>294.8</ele>
        <time>2020-09-12T11:32:49Z</time>
      </trkpt>
      <trkpt lat="45.82346" lon="4.91479">
        <ele>295</ele>
        <time>2020-09-12T11:32:50Z</time>
      </trkpt>
      <trkpt lat="45.82345" lon="4.91471">
        <ele>295.2</ele>
        <time>2020-09-12T11:32:51Z</time>
      </trkpt>
      <trkpt lat="45.82344" lon="4.91464">
        <ele>295.3</ele>
        <time>2020-09-12T11:32:52Z</time>
      </trkpt>
      <trkpt lat="45.82343" lon="4.91456">
        <ele>295.4</ele>
        <time>2020-09-12T11:32:53Z</time>
      </trkpt>
      <trkpt lat="45.82343" lon="4.91448">
        <ele>295.4</ele>
        <time>2020-09-12T11:32:54Z</time>
      </trkpt>
      <trkpt lat="45.82342" lon="4.91441">
        <ele>295.4</ele>
        <time>2020-09-12T11:32:55Z</time>
      </trkpt>
      <trkpt lat="45.82343" lon="4.91434">
        <ele>295.4</ele>
        <time>2020-09-12T11:32:56Z</time>
      </trkpt>
      <trkpt lat="45.82342" lon="4.91426">
        <ele>295.3</ele>
        <time>2020-09-12T11:32:57Z</time>
      </trkpt>
      <trkpt lat="45.82341" lon="4.91413">
        <ele>295.6</ele>
        <time>2020-09-12T11:32:59Z</time>
      </trkpt>
      <trkpt lat="45.8234" lon="4.914">
        <ele>296</ele>
        <time>2020-09-12T11:33:01Z</time>
      </trkpt>
      <trkpt lat="45.82338" lon="4.91393">
        <ele>296.3</ele>
        <time>2020-09-12T11:33:02Z</time>
      </trkpt>
      <trkpt lat="45.82336" lon="4.91386">
        <ele>296.4</ele>
        <time>2020-09-12T11:33:03Z</time>
      </trkpt>
      <trkpt lat="45.82335" lon="4.91374">
        <ele>296.6</ele>
        <time>2020-09-12T11:33:05Z</time>
      </trkpt>
      <trkpt lat="45.82333" lon="4.91362">
        <ele>296.8</ele>
        <time>2020-09-12T11:33:07Z</time>
      </trkpt>
      <trkpt lat="45.82331" lon="4.91355">
        <ele>296.8</ele>
        <time>2020-09-12T11:33:08Z</time>
      </trkpt>
      <trkpt lat="45.8233" lon="4.91349">
        <ele>296.9</ele>
        <time>2020-09-12T11:33:09Z</time>
      </trkpt>
      <trkpt lat="45.82327" lon="4.91336">
        <ele>297</ele>
        <time>2020-09-12T11:33:11Z</time>
      </trkpt>
      <trkpt lat="45.82325" lon="4.91323">
        <ele>298</ele>
        <time>2020-09-12T11:33:13Z</time>
      </trkpt>
      <trkpt lat="45.82324" lon="4.91316">
        <ele>298.4</ele>
        <time>2020-09-12T11:33:14Z</time>
      </trkpt>
      <trkpt lat="45.82323" lon="4.91309">
        <ele>298.6</ele>
        <time>2020-09-12T11:33:15Z</time>
      </trkpt>
      <trkpt lat="45.82322" lon="4.91303">
        <ele>298.9</ele>
        <time>2020-09-12T11:33:16Z</time>
      </trkpt>
      <trkpt lat="45.8232" lon="4.91291">
        <ele>299.2</ele>
        <time>2020-09-12T11:33:18Z</time>
      </trkpt>
      <trkpt lat="45.82319" lon="4.91285">
        <ele>299.4</ele>
        <time>2020-09-12T11:33:19Z</time>
      </trkpt>
      <trkpt lat="45.82318" lon="4.91279">
        <ele>299.5</ele>
        <time>2020-09-12T11:33:20Z</time>
      </trkpt>
      <trkpt lat="45.82317" lon="4.91272">
        <ele>299.6</ele>
        <time>2020-09-12T11:33:21Z</time>
      </trkpt>
      <trkpt lat="45.82314" lon="4.91259">
        <ele>299.8</ele>
        <time>2020-09-12T11:33:23Z</time>
      </trkpt>
      <trkpt lat="45.82313" lon="4.91252">
        <ele>299.8</ele>
        <time>2020-09-12T11:33:24Z</time>
      </trkpt>
      <trkpt lat="45.82311" lon="4.91238">
        <ele>301.3</ele>
        <time>2020-09-12T11:33:26Z</time>
      </trkpt>
      <trkpt lat="45.82309" lon="4.91231">
        <ele>301.4</ele>
        <time>2020-09-12T11:33:27Z</time>
      </trkpt>
      <trkpt lat="45.82309" lon="4.91219">
        <ele>301.6</ele>
        <time>2020-09-12T11:33:29Z</time>
      </trkpt>
      <trkpt lat="45.82308" lon="4.91212">
        <ele>301.8</ele>
        <time>2020-09-12T11:33:30Z</time>
      </trkpt>
      <trkpt lat="45.82306" lon="4.91205">
        <ele>301.9</ele>
        <time>2020-09-12T11:33:31Z</time>
      </trkpt>
      <trkpt lat="45.82305" lon="4.91199">
        <ele>302</ele>
        <time>2020-09-12T11:33:32Z</time>
      </trkpt>
      <trkpt lat="45.82304" lon="4.91192">
        <ele>302</ele>
        <time>2020-09-12T11:33:33Z</time>
      </trkpt>
      <trkpt lat="45.82303" lon="4.91186">
        <ele>302.1</ele>
        <time>2020-09-12T11:33:34Z</time>
      </trkpt>
      <trkpt lat="45.82302" lon="4.91173">
        <ele>302.2</ele>
        <time>2020-09-12T11:33:36Z</time>
      </trkpt>
      <trkpt lat="45.82301" lon="4.91167">
        <ele>302.2</ele>
        <time>2020-09-12T11:33:37Z</time>
      </trkpt>
      <trkpt lat="45.82299" lon="4.91154">
        <ele>303.5</ele>
        <time>2020-09-12T11:33:39Z</time>
      </trkpt>
      <trkpt lat="45.82299" lon="4.91148">
        <ele>303.6</ele>
        <time>2020-09-12T11:33:40Z</time>
      </trkpt>
      <trkpt lat="45.82298" lon="4.91141">
        <ele>303.7</ele>
        <time>2020-09-12T11:33:41Z</time>
      </trkpt>
      <trkpt lat="45.82297" lon="4.91129">
        <ele>303.9</ele>
        <time>2020-09-12T11:33:43Z</time>
      </trkpt>
      <trkpt lat="45.82296" lon="4.91122">
        <ele>304</ele>
        <time>2020-09-12T11:33:44Z</time>
      </trkpt>
      <trkpt lat="45.82296" lon="4.91116">
        <ele>304.1</ele>
        <time>2020-09-12T11:33:45Z</time>
      </trkpt>
      <trkpt lat="45.82295" lon="4.91109">
        <ele>304.1</ele>
        <time>2020-09-12T11:33:46Z</time>
      </trkpt>
      <trkpt lat="45.82295" lon="4.91103">
        <ele>304.2</ele>
        <time>2020-09-12T11:33:47Z</time>
      </trkpt>
      <trkpt lat="45.82296" lon="4.91091">
        <ele>304.3</ele>
        <time>2020-09-12T11:33:49Z</time>
      </trkpt>
      <trkpt lat="45.82295" lon="4.91079">
        <ele>305.3</ele>
        <time>2020-09-12T11:33:51Z</time>
      </trkpt>
      <trkpt lat="45.82295" lon="4.91072">
        <ele>305.3</ele>
        <time>2020-09-12T11:33:52Z</time>
      </trkpt>
      <trkpt lat="45.82296" lon="4.91065">
        <ele>305.3</ele>
        <time>2020-09-12T11:33:53Z</time>
      </trkpt>
      <trkpt lat="45.82296" lon="4.91052">
        <ele>305.4</ele>
        <time>2020-09-12T11:33:55Z</time>
      </trkpt>
      <trkpt lat="45.82295" lon="4.91044">
        <ele>305.5</ele>
        <time>2020-09-12T11:33:56Z</time>
      </trkpt>
      <trkpt lat="45.82295" lon="4.91032">
        <ele>305.5</ele>
        <time>2020-09-12T11:33:58Z</time>
      </trkpt>
      <trkpt lat="45.82294" lon="4.91019">
        <ele>305.6</ele>
        <time>2020-09-12T11:34:00Z</time>
      </trkpt>
      <trkpt lat="45.82294" lon="4.91007">
        <ele>305.7</ele>
        <time>2020-09-12T11:34:02Z</time>
      </trkpt>
      <trkpt lat="45.82295" lon="4.90996">
        <ele>306</ele>
        <time>2020-09-12T11:34:04Z</time>
      </trkpt>
      <trkpt lat="45.82297" lon="4.90985">
        <ele>306</ele>
        <time>2020-09-12T11:34:06Z</time>
      </trkpt>
      <trkpt lat="45.82297" lon="4.90978">
        <ele>306</ele>
        <time>2020-09-12T11:34:07Z</time>
      </trkpt>
      <trkpt lat="45.82298" lon="4.90966">
        <ele>306.1</ele>
        <time>2020-09-12T11:34:09Z</time>
      </trkpt>
      <trkpt lat="45.82299" lon="4.90954">
        <ele>306.1</ele>
        <time>2020-09-12T11:34:11Z</time>
      </trkpt>
      <trkpt lat="45.823" lon="4.90943">
        <ele>306.2</ele>
        <time>2020-09-12T11:34:13Z</time>
      </trkpt>
      <trkpt lat="45.82302" lon="4.90932">
        <ele>306.3</ele>
        <time>2020-09-12T11:34:15Z</time>
      </trkpt>
      <trkpt lat="45.82303" lon="4.9092">
        <ele>306.4</ele>
        <time>2020-09-12T11:34:17Z</time>
      </trkpt>
      <trkpt lat="45.82304" lon="4.90909">
        <ele>306.7</ele>
        <time>2020-09-12T11:34:19Z</time>
      </trkpt>
      <trkpt lat="45.82306" lon="4.90898">
        <ele>306.8</ele>
        <time>2020-09-12T11:34:21Z</time>
      </trkpt>
      <trkpt lat="45.82309" lon="4.90887">
        <ele>306.8</ele>
        <time>2020-09-12T11:34:23Z</time>
      </trkpt>
      <trkpt lat="45.82312" lon="4.90876">
        <ele>306.9</ele>
        <time>2020-09-12T11:34:25Z</time>
      </trkpt>
      <trkpt lat="45.82315" lon="4.90865">
        <ele>307.1</ele>
        <time>2020-09-12T11:34:27Z</time>
      </trkpt>
      <trkpt lat="45.82319" lon="4.90853">
        <ele>307.4</ele>
        <time>2020-09-12T11:34:29Z</time>
      </trkpt>
      <trkpt lat="45.8232" lon="4.90847">
        <ele>307.7</ele>
        <time>2020-09-12T11:34:30Z</time>
      </trkpt>
      <trkpt lat="45.82322" lon="4.90841">
        <ele>308</ele>
        <time>2020-09-12T11:34:31Z</time>
      </trkpt>
      <trkpt lat="45.82323" lon="4.90832">
        <ele>308.2</ele>
        <time>2020-09-12T11:34:32Z</time>
      </trkpt>
      <trkpt lat="45.82325" lon="4.90826">
        <ele>308.2</ele>
        <time>2020-09-12T11:34:33Z</time>
      </trkpt>
      <trkpt lat="45.82326" lon="4.9082">
        <ele>308</ele>
        <time>2020-09-12T11:34:34Z</time>
      </trkpt>
      <trkpt lat="45.82328" lon="4.90809">
        <ele>307.6</ele>
        <time>2020-09-12T11:34:36Z</time>
      </trkpt>
      <trkpt lat="45.82331" lon="4.90802">
        <ele>307.5</ele>
        <time>2020-09-12T11:34:37Z</time>
      </trkpt>
      <trkpt lat="45.82332" lon="4.90795">
        <ele>307.4</ele>
        <time>2020-09-12T11:34:38Z</time>
      </trkpt>
      <trkpt lat="45.82335" lon="4.90784">
        <ele>308.6</ele>
        <time>2020-09-12T11:34:40Z</time>
      </trkpt>
      <trkpt lat="45.8234" lon="4.90773">
        <ele>308.5</ele>
        <time>2020-09-12T11:34:42Z</time>
      </trkpt>
      <trkpt lat="45.82342" lon="4.90766">
        <ele>308.4</ele>
        <time>2020-09-12T11:34:43Z</time>
      </trkpt>
      <trkpt lat="45.82345" lon="4.90756">
        <ele>308.3</ele>
        <time>2020-09-12T11:34:45Z</time>
      </trkpt>
      <trkpt lat="45.82348" lon="4.90746">
        <ele>308.1</ele>
        <time>2020-09-12T11:34:47Z</time>
      </trkpt>
      <trkpt lat="45.82352" lon="4.90737">
        <ele>308.2</ele>
        <time>2020-09-12T11:34:49Z</time>
      </trkpt>
      <trkpt lat="45.82355" lon="4.90728">
        <ele>308.2</ele>
        <time>2020-09-12T11:34:51Z</time>
      </trkpt>
      <trkpt lat="45.82357" lon="4.9072">
        <ele>308.2</ele>
        <time>2020-09-12T11:34:53Z</time>
      </trkpt>
      <trkpt lat="45.82358" lon="4.9071">
        <ele>308.2</ele>
        <time>2020-09-12T11:34:55Z</time>
      </trkpt>
      <trkpt lat="45.8236" lon="4.907">
        <ele>308.2</ele>
        <time>2020-09-12T11:34:57Z</time>
      </trkpt>
      <trkpt lat="45.82361" lon="4.9069">
        <ele>308.2</ele>
        <time>2020-09-12T11:34:59Z</time>
      </trkpt>
      <trkpt lat="45.82362" lon="4.90679">
        <ele>308.2</ele>
        <time>2020-09-12T11:35:01Z</time>
      </trkpt>
      <trkpt lat="45.82362" lon="4.90665">
        <ele>307.4</ele>
        <time>2020-09-12T11:35:03Z</time>
      </trkpt>
      <trkpt lat="45.82362" lon="4.90659">
        <ele>307.4</ele>
        <time>2020-09-12T11:35:04Z</time>
      </trkpt>
      <trkpt lat="45.82361" lon="4.9065">
        <ele>307.3</ele>
        <time>2020-09-12T11:35:05Z</time>
      </trkpt>
      <trkpt lat="45.82361" lon="4.90642">
        <ele>307.2</ele>
        <time>2020-09-12T11:35:06Z</time>
      </trkpt>
      <trkpt lat="45.8236" lon="4.90634">
        <ele>307.1</ele>
        <time>2020-09-12T11:35:07Z</time>
      </trkpt>
      <trkpt lat="45.82359" lon="4.90626">
        <ele>307</ele>
        <time>2020-09-12T11:35:08Z</time>
      </trkpt>
      <trkpt lat="45.82359" lon="4.90618">
        <ele>306.9</ele>
        <time>2020-09-12T11:35:09Z</time>
      </trkpt>
      <trkpt lat="45.82358" lon="4.9061">
        <ele>306.8</ele>
        <time>2020-09-12T11:35:10Z</time>
      </trkpt>
      <trkpt lat="45.82357" lon="4.90602">
        <ele>306.7</ele>
        <time>2020-09-12T11:35:11Z</time>
      </trkpt>
      <trkpt lat="45.82356" lon="4.90592">
        <ele>306.6</ele>
        <time>2020-09-12T11:35:12Z</time>
      </trkpt>
      <trkpt lat="45.82354" lon="4.90583">
        <ele>306.5</ele>
        <time>2020-09-12T11:35:13Z</time>
      </trkpt>
      <trkpt lat="45.82352" lon="4.90573">
        <ele>305.5</ele>
        <time>2020-09-12T11:35:14Z</time>
      </trkpt>
      <trkpt lat="45.82351" lon="4.90563">
        <ele>305.4</ele>
        <time>2020-09-12T11:35:15Z</time>
      </trkpt>
      <trkpt lat="45.82349" lon="4.90553">
        <ele>305.2</ele>
        <time>2020-09-12T11:35:16Z</time>
      </trkpt>
      <trkpt lat="45.82348" lon="4.90543">
        <ele>305.1</ele>
        <time>2020-09-12T11:35:17Z</time>
      </trkpt>
      <trkpt lat="45.82348" lon="4.90534">
        <ele>304.9</ele>
        <time>2020-09-12T11:35:18Z</time>
      </trkpt>
      <trkpt lat="45.82346" lon="4.90523">
        <ele>304.6</ele>
        <time>2020-09-12T11:35:19Z</time>
      </trkpt>
      <trkpt lat="45.82344" lon="4.90511">
        <ele>304.1</ele>
        <time>2020-09-12T11:35:20Z</time>
      </trkpt>
      <trkpt lat="45.82343" lon="4.90502">
        <ele>303.8</ele>
        <time>2020-09-12T11:35:21Z</time>
      </trkpt>
      <trkpt lat="45.82341" lon="4.90491">
        <ele>303.4</ele>
        <time>2020-09-12T11:35:22Z</time>
      </trkpt>
      <trkpt lat="45.8234" lon="4.90482">
        <ele>303.5</ele>
        <time>2020-09-12T11:35:23Z</time>
      </trkpt>
      <trkpt lat="45.82338" lon="4.90473">
        <ele>303.5</ele>
        <time>2020-09-12T11:35:24Z</time>
      </trkpt>
      <trkpt lat="45.82337" lon="4.90463">
        <ele>303.5</ele>
        <time>2020-09-12T11:35:25Z</time>
      </trkpt>
      <trkpt lat="45.82336" lon="4.90452">
        <ele>303.4</ele>
        <time>2020-09-12T11:35:26Z</time>
      </trkpt>
      <trkpt lat="45.82334" lon="4.90442">
        <ele>303.2</ele>
        <time>2020-09-12T11:35:27Z</time>
      </trkpt>
      <trkpt lat="45.82333" lon="4.90432">
        <ele>302.4</ele>
        <time>2020-09-12T11:35:28Z</time>
      </trkpt>
      <trkpt lat="45.82331" lon="4.90422">
        <ele>302.2</ele>
        <time>2020-09-12T11:35:29Z</time>
      </trkpt>
      <trkpt lat="45.82329" lon="4.90412">
        <ele>301.9</ele>
        <time>2020-09-12T11:35:30Z</time>
      </trkpt>
      <trkpt lat="45.82327" lon="4.90402">
        <ele>301.8</ele>
        <time>2020-09-12T11:35:31Z</time>
      </trkpt>
      <trkpt lat="45.82324" lon="4.90392">
        <ele>301.6</ele>
        <time>2020-09-12T11:35:32Z</time>
      </trkpt>
      <trkpt lat="45.8232" lon="4.90381">
        <ele>301.5</ele>
        <time>2020-09-12T11:35:33Z</time>
      </trkpt>
      <trkpt lat="45.82317" lon="4.90371">
        <ele>301.3</ele>
        <time>2020-09-12T11:35:34Z</time>
      </trkpt>
      <trkpt lat="45.82314" lon="4.9036">
        <ele>301.1</ele>
        <time>2020-09-12T11:35:35Z</time>
      </trkpt>
      <trkpt lat="45.82311" lon="4.9035">
        <ele>301</ele>
        <time>2020-09-12T11:35:36Z</time>
      </trkpt>
      <trkpt lat="45.82308" lon="4.9034">
        <ele>300.9</ele>
        <time>2020-09-12T11:35:37Z</time>
      </trkpt>
      <trkpt lat="45.82304" lon="4.90329">
        <ele>299.5</ele>
        <time>2020-09-12T11:35:38Z</time>
      </trkpt>
      <trkpt lat="45.82302" lon="4.90318">
        <ele>299.5</ele>
        <time>2020-09-12T11:35:39Z</time>
      </trkpt>
      <trkpt lat="45.823" lon="4.90307">
        <ele>299.4</ele>
        <time>2020-09-12T11:35:40Z</time>
      </trkpt>
      <trkpt lat="45.82297" lon="4.90296">
        <ele>299.3</ele>
        <time>2020-09-12T11:35:41Z</time>
      </trkpt>
      <trkpt lat="45.82295" lon="4.90285">
        <ele>299.1</ele>
        <time>2020-09-12T11:35:42Z</time>
      </trkpt>
      <trkpt lat="45.82291" lon="4.90273">
        <ele>298.9</ele>
        <time>2020-09-12T11:35:43Z</time>
      </trkpt>
      <trkpt lat="45.82288" lon="4.90262">
        <ele>298.7</ele>
        <time>2020-09-12T11:35:44Z</time>
      </trkpt>
      <trkpt lat="45.82287" lon="4.90251">
        <ele>298.6</ele>
        <time>2020-09-12T11:35:45Z</time>
      </trkpt>
      <trkpt lat="45.82285" lon="4.90242">
        <ele>297.2</ele>
        <time>2020-09-12T11:35:46Z</time>
      </trkpt>
      <trkpt lat="45.82282" lon="4.90232">
        <ele>297.2</ele>
        <time>2020-09-12T11:35:47Z</time>
      </trkpt>
      <trkpt lat="45.82281" lon="4.90226">
        <ele>297.2</ele>
        <time>2020-09-12T11:35:48Z</time>
      </trkpt>
      <trkpt lat="45.82281" lon="4.90217">
        <ele>297.1</ele>
        <time>2020-09-12T11:35:50Z</time>
      </trkpt>
      <trkpt lat="45.82283" lon="4.90209">
        <ele>297.1</ele>
        <time>2020-09-12T11:35:53Z</time>
      </trkpt>
      <trkpt lat="45.82286" lon="4.90202">
        <ele>297</ele>
        <time>2020-09-12T11:35:55Z</time>
      </trkpt>
      <trkpt lat="45.82285" lon="4.90191">
        <ele>296.9</ele>
        <time>2020-09-12T11:35:57Z</time>
      </trkpt>
      <trkpt lat="45.8228" lon="4.90184">
        <ele>296.9</ele>
        <time>2020-09-12T11:35:59Z</time>
      </trkpt>
      <trkpt lat="45.82274" lon="4.9018">
        <ele>297</ele>
        <time>2020-09-12T11:36:00Z</time>
      </trkpt>
      <trkpt lat="45.8227" lon="4.90177">
        <ele>297</ele>
        <time>2020-09-12T11:36:01Z</time>
      </trkpt>
      <trkpt lat="45.82266" lon="4.90173">
        <ele>297</ele>
        <time>2020-09-12T11:36:02Z</time>
      </trkpt>
      <trkpt lat="45.82262" lon="4.90167">
        <ele>297</ele>
        <time>2020-09-12T11:36:03Z</time>
      </trkpt>
      <trkpt lat="45.82258" lon="4.90161">
        <ele>296.6</ele>
        <time>2020-09-12T11:36:04Z</time>
      </trkpt>
      <trkpt lat="45.82254" lon="4.90155">
        <ele>296.5</ele>
        <time>2020-09-12T11:36:05Z</time>
      </trkpt>
      <trkpt lat="45.8225" lon="4.90149">
        <ele>296.4</ele>
        <time>2020-09-12T11:36:06Z</time>
      </trkpt>
      <trkpt lat="45.82245" lon="4.90143">
        <ele>296.5</ele>
        <time>2020-09-12T11:36:07Z</time>
      </trkpt>
      <trkpt lat="45.82241" lon="4.90138">
        <ele>296.5</ele>
        <time>2020-09-12T11:36:08Z</time>
      </trkpt>
      <trkpt lat="45.82238" lon="4.90132">
        <ele>296.4</ele>
        <time>2020-09-12T11:36:09Z</time>
      </trkpt>
      <trkpt lat="45.82234" lon="4.90125">
        <ele>296.3</ele>
        <time>2020-09-12T11:36:10Z</time>
      </trkpt>
      <trkpt lat="45.8223" lon="4.90119">
        <ele>296.3</ele>
        <time>2020-09-12T11:36:11Z</time>
      </trkpt>
      <trkpt lat="45.82226" lon="4.90112">
        <ele>296.2</ele>
        <time>2020-09-12T11:36:12Z</time>
      </trkpt>
      <trkpt lat="45.82221" lon="4.90105">
        <ele>296.1</ele>
        <time>2020-09-12T11:36:13Z</time>
      </trkpt>
      <trkpt lat="45.82219" lon="4.90097">
        <ele>296.1</ele>
        <time>2020-09-12T11:36:14Z</time>
      </trkpt>
      <trkpt lat="45.82215" lon="4.90088">
        <ele>296</ele>
        <time>2020-09-12T11:36:15Z</time>
      </trkpt>
      <trkpt lat="45.82212" lon="4.90082">
        <ele>295.4</ele>
        <time>2020-09-12T11:36:16Z</time>
      </trkpt>
      <trkpt lat="45.82211" lon="4.90073">
        <ele>295.4</ele>
        <time>2020-09-12T11:36:17Z</time>
      </trkpt>
      <trkpt lat="45.82208" lon="4.90064">
        <ele>295.3</ele>
        <time>2020-09-12T11:36:18Z</time>
      </trkpt>
      <trkpt lat="45.82204" lon="4.90057">
        <ele>295.3</ele>
        <time>2020-09-12T11:36:19Z</time>
      </trkpt>
      <trkpt lat="45.82201" lon="4.90048">
        <ele>295.2</ele>
        <time>2020-09-12T11:36:20Z</time>
      </trkpt>
      <trkpt lat="45.82198" lon="4.9004">
        <ele>295.2</ele>
        <time>2020-09-12T11:36:21Z</time>
      </trkpt>
      <trkpt lat="45.82195" lon="4.90032">
        <ele>295.2</ele>
        <time>2020-09-12T11:36:22Z</time>
      </trkpt>
      <trkpt lat="45.82192" lon="4.90025">
        <ele>295.2</ele>
        <time>2020-09-12T11:36:23Z</time>
      </trkpt>
      <trkpt lat="45.82188" lon="4.90016">
        <ele>295.1</ele>
        <time>2020-09-12T11:36:24Z</time>
      </trkpt>
      <trkpt lat="45.82185" lon="4.90009">
        <ele>295.1</ele>
        <time>2020-09-12T11:36:25Z</time>
      </trkpt>
      <trkpt lat="45.82181" lon="4.9">
        <ele>295.1</ele>
        <time>2020-09-12T11:36:26Z</time>
      </trkpt>
      <trkpt lat="45.82178" lon="4.89992">
        <ele>295.2</ele>
        <time>2020-09-12T11:36:27Z</time>
      </trkpt>
      <trkpt lat="45.82174" lon="4.89984">
        <ele>295.2</ele>
        <time>2020-09-12T11:36:28Z</time>
      </trkpt>
      <trkpt lat="45.82171" lon="4.89975">
        <ele>295.3</ele>
        <time>2020-09-12T11:36:29Z</time>
      </trkpt>
      <trkpt lat="45.82168" lon="4.89967">
        <ele>295.4</ele>
        <time>2020-09-12T11:36:30Z</time>
      </trkpt>
      <trkpt lat="45.82165" lon="4.89959">
        <ele>296</ele>
        <time>2020-09-12T11:36:31Z</time>
      </trkpt>
      <trkpt lat="45.82162" lon="4.89952">
        <ele>296.1</ele>
        <time>2020-09-12T11:36:32Z</time>
      </trkpt>
      <trkpt lat="45.82159" lon="4.89943">
        <ele>296.2</ele>
        <time>2020-09-12T11:36:33Z</time>
      </trkpt>
      <trkpt lat="45.82155" lon="4.89936">
        <ele>296.3</ele>
        <time>2020-09-12T11:36:34Z</time>
      </trkpt>
      <trkpt lat="45.82151" lon="4.89927">
        <ele>296.4</ele>
        <time>2020-09-12T11:36:35Z</time>
      </trkpt>
      <trkpt lat="45.82149" lon="4.89921">
        <ele>296.5</ele>
        <time>2020-09-12T11:36:36Z</time>
      </trkpt>
      <trkpt lat="45.82146" lon="4.89913">
        <ele>296.6</ele>
        <time>2020-09-12T11:36:37Z</time>
      </trkpt>
      <trkpt lat="45.82143" lon="4.89905">
        <ele>296.5</ele>
        <time>2020-09-12T11:36:38Z</time>
      </trkpt>
      <trkpt lat="45.82138" lon="4.89899">
        <ele>296.4</ele>
        <time>2020-09-12T11:36:39Z</time>
      </trkpt>
      <trkpt lat="45.82135" lon="4.89891">
        <ele>296.3</ele>
        <time>2020-09-12T11:36:40Z</time>
      </trkpt>
      <trkpt lat="45.82133" lon="4.89882">
        <ele>296.3</ele>
        <time>2020-09-12T11:36:41Z</time>
      </trkpt>
      <trkpt lat="45.82131" lon="4.89875">
        <ele>296.3</ele>
        <time>2020-09-12T11:36:42Z</time>
      </trkpt>
      <trkpt lat="45.82128" lon="4.89867">
        <ele>296.2</ele>
        <time>2020-09-12T11:36:43Z</time>
      </trkpt>
      <trkpt lat="45.82125" lon="4.89858">
        <ele>296.2</ele>
        <time>2020-09-12T11:36:44Z</time>
      </trkpt>
      <trkpt lat="45.82122" lon="4.8985">
        <ele>296.2</ele>
        <time>2020-09-12T11:36:45Z</time>
      </trkpt>
      <trkpt lat="45.82119" lon="4.89843">
        <ele>296.2</ele>
        <time>2020-09-12T11:36:46Z</time>
      </trkpt>
      <trkpt lat="45.82116" lon="4.89835">
        <ele>296.1</ele>
        <time>2020-09-12T11:36:47Z</time>
      </trkpt>
      <trkpt lat="45.82114" lon="4.89827">
        <ele>295.8</ele>
        <time>2020-09-12T11:36:48Z</time>
      </trkpt>
      <trkpt lat="45.82112" lon="4.89819">
        <ele>295.8</ele>
        <time>2020-09-12T11:36:49Z</time>
      </trkpt>
      <trkpt lat="45.82109" lon="4.8981">
        <ele>295.8</ele>
        <time>2020-09-12T11:36:50Z</time>
      </trkpt>
      <trkpt lat="45.82107" lon="4.89802">
        <ele>295.8</ele>
        <time>2020-09-12T11:36:51Z</time>
      </trkpt>
      <trkpt lat="45.82105" lon="4.89795">
        <ele>295.7</ele>
        <time>2020-09-12T11:36:52Z</time>
      </trkpt>
      <trkpt lat="45.82102" lon="4.89787">
        <ele>295.7</ele>
        <time>2020-09-12T11:36:53Z</time>
      </trkpt>
      <trkpt lat="45.821" lon="4.8978">
        <ele>295.6</ele>
        <time>2020-09-12T11:36:54Z</time>
      </trkpt>
      <trkpt lat="45.82097" lon="4.89773">
        <ele>295.5</ele>
        <time>2020-09-12T11:36:55Z</time>
      </trkpt>
      <trkpt lat="45.82093" lon="4.89765">
        <ele>295.4</ele>
        <time>2020-09-12T11:36:56Z</time>
      </trkpt>
      <trkpt lat="45.82091" lon="4.89758">
        <ele>295.3</ele>
        <time>2020-09-12T11:36:57Z</time>
      </trkpt>
      <trkpt lat="45.82089" lon="4.8975">
        <ele>295.1</ele>
        <time>2020-09-12T11:36:58Z</time>
      </trkpt>
      <trkpt lat="45.82087" lon="4.89741">
        <ele>295.2</ele>
        <time>2020-09-12T11:36:59Z</time>
      </trkpt>
      <trkpt lat="45.82085" lon="4.89734">
        <ele>295.2</ele>
        <time>2020-09-12T11:37:00Z</time>
      </trkpt>
      <trkpt lat="45.82084" lon="4.89726">
        <ele>295.3</ele>
        <time>2020-09-12T11:37:01Z</time>
      </trkpt>
      <trkpt lat="45.82082" lon="4.89714">
        <ele>294.7</ele>
        <time>2020-09-12T11:37:03Z</time>
      </trkpt>
      <trkpt lat="45.82079" lon="4.89703">
        <ele>294.7</ele>
        <time>2020-09-12T11:37:05Z</time>
      </trkpt>
      <trkpt lat="45.82076" lon="4.89691">
        <ele>294.7</ele>
        <time>2020-09-12T11:37:07Z</time>
      </trkpt>
      <trkpt lat="45.82075" lon="4.89685">
        <ele>294.8</ele>
        <time>2020-09-12T11:37:08Z</time>
      </trkpt>
      <trkpt lat="45.82071" lon="4.89673">
        <ele>294.8</ele>
        <time>2020-09-12T11:37:10Z</time>
      </trkpt>
      <trkpt lat="45.82069" lon="4.89665">
        <ele>294.4</ele>
        <time>2020-09-12T11:37:12Z</time>
      </trkpt>
      <trkpt lat="45.82066" lon="4.89659">
        <ele>294.3</ele>
        <time>2020-09-12T11:37:15Z</time>
      </trkpt>
      <trkpt lat="45.82063" lon="4.89651">
        <ele>294.1</ele>
        <time>2020-09-12T11:37:19Z</time>
      </trkpt>
      <trkpt lat="45.82061" lon="4.89645">
        <ele>294</ele>
        <time>2020-09-12T11:37:21Z</time>
      </trkpt>
      <trkpt lat="45.82058" lon="4.89637">
        <ele>293.8</ele>
        <time>2020-09-12T11:37:23Z</time>
      </trkpt>
      <trkpt lat="45.82054" lon="4.89627">
        <ele>293.6</ele>
        <time>2020-09-12T11:37:25Z</time>
      </trkpt>
      <trkpt lat="45.82053" lon="4.8962">
        <ele>293.5</ele>
        <time>2020-09-12T11:37:26Z</time>
      </trkpt>
      <trkpt lat="45.82052" lon="4.89611">
        <ele>293.3</ele>
        <time>2020-09-12T11:37:27Z</time>
      </trkpt>
      <trkpt lat="45.8205" lon="4.89605">
        <ele>293.2</ele>
        <time>2020-09-12T11:37:28Z</time>
      </trkpt>
      <trkpt lat="45.82048" lon="4.89597">
        <ele>293.1</ele>
        <time>2020-09-12T11:37:29Z</time>
      </trkpt>
      <trkpt lat="45.82045" lon="4.89588">
        <ele>293.2</ele>
        <time>2020-09-12T11:37:30Z</time>
      </trkpt>
      <trkpt lat="45.82044" lon="4.8958">
        <ele>291</ele>
        <time>2020-09-12T11:37:31Z</time>
      </trkpt>
      <trkpt lat="45.82041" lon="4.89573">
        <ele>291</ele>
        <time>2020-09-12T11:37:32Z</time>
      </trkpt>
      <trkpt lat="45.82039" lon="4.89565">
        <ele>290.9</ele>
        <time>2020-09-12T11:37:33Z</time>
      </trkpt>
      <trkpt lat="45.82035" lon="4.89559">
        <ele>290.9</ele>
        <time>2020-09-12T11:37:34Z</time>
      </trkpt>
      <trkpt lat="45.82032" lon="4.89549">
        <ele>290.7</ele>
        <time>2020-09-12T11:37:35Z</time>
      </trkpt>
      <trkpt lat="45.82028" lon="4.8954">
        <ele>290.5</ele>
        <time>2020-09-12T11:37:36Z</time>
      </trkpt>
      <trkpt lat="45.82025" lon="4.8953">
        <ele>290.2</ele>
        <time>2020-09-12T11:37:37Z</time>
      </trkpt>
      <trkpt lat="45.82019" lon="4.8952">
        <ele>289.9</ele>
        <time>2020-09-12T11:37:38Z</time>
      </trkpt>
      <trkpt lat="45.82013" lon="4.89512">
        <ele>289.7</ele>
        <time>2020-09-12T11:37:39Z</time>
      </trkpt>
      <trkpt lat="45.82008" lon="4.89504">
        <ele>289.4</ele>
        <time>2020-09-12T11:37:40Z</time>
      </trkpt>
      <trkpt lat="45.82002" lon="4.89497">
        <ele>288.4</ele>
        <time>2020-09-12T11:37:41Z</time>
      </trkpt>
      <trkpt lat="45.81995" lon="4.89488">
        <ele>288</ele>
        <time>2020-09-12T11:37:42Z</time>
      </trkpt>
      <trkpt lat="45.81989" lon="4.8948">
        <ele>287.5</ele>
        <time>2020-09-12T11:37:43Z</time>
      </trkpt>
      <trkpt lat="45.81982" lon="4.89473">
        <ele>287.1</ele>
        <time>2020-09-12T11:37:44Z</time>
      </trkpt>
      <trkpt lat="45.81975" lon="4.89465">
        <ele>286.8</ele>
        <time>2020-09-12T11:37:45Z</time>
      </trkpt>
      <trkpt lat="45.81969" lon="4.89458">
        <ele>286.6</ele>
        <time>2020-09-12T11:37:46Z</time>
      </trkpt>
      <trkpt lat="45.81962" lon="4.89452">
        <ele>286.4</ele>
        <time>2020-09-12T11:37:47Z</time>
      </trkpt>
      <trkpt lat="45.81956" lon="4.89444">
        <ele>286.3</ele>
        <time>2020-09-12T11:37:48Z</time>
      </trkpt>
      <trkpt lat="45.81949" lon="4.89436">
        <ele>286.1</ele>
        <time>2020-09-12T11:37:49Z</time>
      </trkpt>
      <trkpt lat="45.81942" lon="4.89428">
        <ele>285.9</ele>
        <time>2020-09-12T11:37:50Z</time>
      </trkpt>
      <trkpt lat="45.81935" lon="4.89419">
        <ele>285.7</ele>
        <time>2020-09-12T11:37:51Z</time>
      </trkpt>
      <trkpt lat="45.81929" lon="4.89411">
        <ele>283.3</ele>
        <time>2020-09-12T11:37:52Z</time>
      </trkpt>
      <trkpt lat="45.81924" lon="4.89404">
        <ele>283.1</ele>
        <time>2020-09-12T11:37:53Z</time>
      </trkpt>
      <trkpt lat="45.81918" lon="4.89395">
        <ele>282.6</ele>
        <time>2020-09-12T11:37:54Z</time>
      </trkpt>
      <trkpt lat="45.8191" lon="4.89387">
        <ele>283.2</ele>
        <time>2020-09-12T11:37:55Z</time>
      </trkpt>
      <trkpt lat="45.81904" lon="4.89378">
        <ele>282.8</ele>
        <time>2020-09-12T11:37:56Z</time>
      </trkpt>
      <trkpt lat="45.81899" lon="4.89367">
        <ele>282.4</ele>
        <time>2020-09-12T11:37:57Z</time>
      </trkpt>
      <trkpt lat="45.81892" lon="4.89359">
        <ele>282.2</ele>
        <time>2020-09-12T11:37:58Z</time>
      </trkpt>
      <trkpt lat="45.81886" lon="4.89352">
        <ele>282.1</ele>
        <time>2020-09-12T11:37:59Z</time>
      </trkpt>
      <trkpt lat="45.81879" lon="4.89342">
        <ele>282</ele>
        <time>2020-09-12T11:38:00Z</time>
      </trkpt>
      <trkpt lat="45.81873" lon="4.89335">
        <ele>281.9</ele>
        <time>2020-09-12T11:38:01Z</time>
      </trkpt>
      <trkpt lat="45.81865" lon="4.89325">
        <ele>279</ele>
        <time>2020-09-12T11:38:02Z</time>
      </trkpt>
      <trkpt lat="45.81859" lon="4.89316">
        <ele>278.9</ele>
        <time>2020-09-12T11:38:03Z</time>
      </trkpt>
      <trkpt lat="45.81852" lon="4.89307">
        <ele>278.6</ele>
        <time>2020-09-12T11:38:04Z</time>
      </trkpt>
      <trkpt lat="45.81847" lon="4.89299">
        <ele>278.3</ele>
        <time>2020-09-12T11:38:05Z</time>
      </trkpt>
      <trkpt lat="45.81841" lon="4.89291">
        <ele>277.9</ele>
        <time>2020-09-12T11:38:06Z</time>
      </trkpt>
      <trkpt lat="45.81834" lon="4.89282">
        <ele>277.5</ele>
        <time>2020-09-12T11:38:07Z</time>
      </trkpt>
      <trkpt lat="45.81827" lon="4.89273">
        <ele>276.6</ele>
        <time>2020-09-12T11:38:08Z</time>
      </trkpt>
      <trkpt lat="45.8182" lon="4.89266">
        <ele>276.4</ele>
        <time>2020-09-12T11:38:09Z</time>
      </trkpt>
      <trkpt lat="45.81813" lon="4.89258">
        <ele>276.3</ele>
        <time>2020-09-12T11:38:10Z</time>
      </trkpt>
      <trkpt lat="45.81807" lon="4.8925">
        <ele>276.3</ele>
        <time>2020-09-12T11:38:11Z</time>
      </trkpt>
      <trkpt lat="45.81802" lon="4.89242">
        <ele>275</ele>
        <time>2020-09-12T11:38:12Z</time>
      </trkpt>
      <trkpt lat="45.81796" lon="4.89233">
        <ele>275</ele>
        <time>2020-09-12T11:38:13Z</time>
      </trkpt>
      <trkpt lat="45.81791" lon="4.89224">
        <ele>275</ele>
        <time>2020-09-12T11:38:14Z</time>
      </trkpt>
      <trkpt lat="45.81784" lon="4.89215">
        <ele>275</ele>
        <time>2020-09-12T11:38:15Z</time>
      </trkpt>
      <trkpt lat="45.81779" lon="4.89205">
        <ele>275.1</ele>
        <time>2020-09-12T11:38:16Z</time>
      </trkpt>
      <trkpt lat="45.81775" lon="4.89197">
        <ele>275.1</ele>
        <time>2020-09-12T11:38:17Z</time>
      </trkpt>
      <trkpt lat="45.8177" lon="4.89189">
        <ele>275.2</ele>
        <time>2020-09-12T11:38:18Z</time>
      </trkpt>
      <trkpt lat="45.81767" lon="4.89179">
        <ele>275.4</ele>
        <time>2020-09-12T11:38:19Z</time>
      </trkpt>
      <trkpt lat="45.81764" lon="4.8917">
        <ele>275.5</ele>
        <time>2020-09-12T11:38:20Z</time>
      </trkpt>
      <trkpt lat="45.8176" lon="4.89163">
        <ele>275.7</ele>
        <time>2020-09-12T11:38:21Z</time>
      </trkpt>
      <trkpt lat="45.81757" lon="4.89154">
        <ele>275.7</ele>
        <time>2020-09-12T11:38:22Z</time>
      </trkpt>
      <trkpt lat="45.81754" lon="4.89148">
        <ele>275.6</ele>
        <time>2020-09-12T11:38:23Z</time>
      </trkpt>
      <trkpt lat="45.81749" lon="4.89141">
        <ele>276.6</ele>
        <time>2020-09-12T11:38:24Z</time>
      </trkpt>
      <trkpt lat="45.81746" lon="4.89134">
        <ele>276.6</ele>
        <time>2020-09-12T11:38:25Z</time>
      </trkpt>
      <trkpt lat="45.81741" lon="4.89128">
        <ele>276.7</ele>
        <time>2020-09-12T11:38:26Z</time>
      </trkpt>
      <trkpt lat="45.81736" lon="4.89123">
        <ele>276.7</ele>
        <time>2020-09-12T11:38:27Z</time>
      </trkpt>
      <trkpt lat="45.81733" lon="4.89116">
        <ele>276.7</ele>
        <time>2020-09-12T11:38:28Z</time>
      </trkpt>
      <trkpt lat="45.81729" lon="4.8911">
        <ele>276.7</ele>
        <time>2020-09-12T11:38:29Z</time>
      </trkpt>
      <trkpt lat="45.81727" lon="4.89104">
        <ele>276.7</ele>
        <time>2020-09-12T11:38:30Z</time>
      </trkpt>
      <trkpt lat="45.81722" lon="4.89092">
        <ele>276.7</ele>
        <time>2020-09-12T11:38:32Z</time>
      </trkpt>
      <trkpt lat="45.81721" lon="4.89086">
        <ele>276.7</ele>
        <time>2020-09-12T11:38:33Z</time>
      </trkpt>
      <trkpt lat="45.81718" lon="4.89076">
        <ele>276.7</ele>
        <time>2020-09-12T11:38:35Z</time>
      </trkpt>
      <trkpt lat="45.81715" lon="4.89067">
        <ele>276.8</ele>
        <time>2020-09-12T11:38:37Z</time>
      </trkpt>
      <trkpt lat="45.81709" lon="4.89059">
        <ele>276.9</ele>
        <time>2020-09-12T11:38:39Z</time>
      </trkpt>
      <trkpt lat="45.81702" lon="4.89056">
        <ele>276.9</ele>
        <time>2020-09-12T11:38:41Z</time>
      </trkpt>
      <trkpt lat="45.81694" lon="4.89054">
        <ele>277</ele>
        <time>2020-09-12T11:38:43Z</time>
      </trkpt>
      <trkpt lat="45.81686" lon="4.89055">
        <ele>277</ele>
        <time>2020-09-12T11:38:45Z</time>
      </trkpt>
      <trkpt lat="45.81677" lon="4.89059">
        <ele>277</ele>
        <time>2020-09-12T11:38:47Z</time>
      </trkpt>
      <trkpt lat="45.81672" lon="4.89062">
        <ele>277</ele>
        <time>2020-09-12T11:38:48Z</time>
      </trkpt>
      <trkpt lat="45.81667" lon="4.89063">
        <ele>277</ele>
        <time>2020-09-12T11:38:49Z</time>
      </trkpt>
      <trkpt lat="45.81662" lon="4.89062">
        <ele>277.7</ele>
        <time>2020-09-12T11:38:50Z</time>
      </trkpt>
      <trkpt lat="45.81656" lon="4.89059">
        <ele>277.8</ele>
        <time>2020-09-12T11:38:51Z</time>
      </trkpt>
      <trkpt lat="45.8165" lon="4.89055">
        <ele>277.9</ele>
        <time>2020-09-12T11:38:52Z</time>
      </trkpt>
      <trkpt lat="45.81644" lon="4.89051">
        <ele>278</ele>
        <time>2020-09-12T11:38:53Z</time>
      </trkpt>
      <trkpt lat="45.81639" lon="4.89048">
        <ele>278.1</ele>
        <time>2020-09-12T11:38:54Z</time>
      </trkpt>
      <trkpt lat="45.81633" lon="4.89044">
        <ele>278.1</ele>
        <time>2020-09-12T11:38:55Z</time>
      </trkpt>
      <trkpt lat="45.81628" lon="4.8904">
        <ele>278.2</ele>
        <time>2020-09-12T11:38:56Z</time>
      </trkpt>
      <trkpt lat="45.81623" lon="4.89036">
        <ele>278.3</ele>
        <time>2020-09-12T11:38:57Z</time>
      </trkpt>
      <trkpt lat="45.81618" lon="4.89033">
        <ele>278.3</ele>
        <time>2020-09-12T11:38:58Z</time>
      </trkpt>
      <trkpt lat="45.81612" lon="4.89029">
        <ele>278.4</ele>
        <time>2020-09-12T11:38:59Z</time>
      </trkpt>
      <trkpt lat="45.81607" lon="4.89026">
        <ele>278.5</ele>
        <time>2020-09-12T11:39:00Z</time>
      </trkpt>
      <trkpt lat="45.81602" lon="4.89021">
        <ele>278.5</ele>
        <time>2020-09-12T11:39:01Z</time>
      </trkpt>
      <trkpt lat="45.81597" lon="4.89017">
        <ele>278.6</ele>
        <time>2020-09-12T11:39:02Z</time>
      </trkpt>
      <trkpt lat="45.81591" lon="4.89012">
        <ele>278.7</ele>
        <time>2020-09-12T11:39:03Z</time>
      </trkpt>
      <trkpt lat="45.81587" lon="4.89008">
        <ele>278.8</ele>
        <time>2020-09-12T11:39:04Z</time>
      </trkpt>
      <trkpt lat="45.81582" lon="4.89003">
        <ele>279</ele>
        <time>2020-09-12T11:39:05Z</time>
      </trkpt>
      <trkpt lat="45.81577" lon="4.88999">
        <ele>278.8</ele>
        <time>2020-09-12T11:39:06Z</time>
      </trkpt>
      <trkpt lat="45.81572" lon="4.88994">
        <ele>278.7</ele>
        <time>2020-09-12T11:39:07Z</time>
      </trkpt>
      <trkpt lat="45.81567" lon="4.8899">
        <ele>278.6</ele>
        <time>2020-09-12T11:39:08Z</time>
      </trkpt>
      <trkpt lat="45.81562" lon="4.88985">
        <ele>278.5</ele>
        <time>2020-09-12T11:39:09Z</time>
      </trkpt>
      <trkpt lat="45.81558" lon="4.88979">
        <ele>278.4</ele>
        <time>2020-09-12T11:39:10Z</time>
      </trkpt>
      <trkpt lat="45.81553" lon="4.88973">
        <ele>278.4</ele>
        <time>2020-09-12T11:39:11Z</time>
      </trkpt>
      <trkpt lat="45.81547" lon="4.88968">
        <ele>278.3</ele>
        <time>2020-09-12T11:39:12Z</time>
      </trkpt>
      <trkpt lat="45.81541" lon="4.88964">
        <ele>278.3</ele>
        <time>2020-09-12T11:39:13Z</time>
      </trkpt>
      <trkpt lat="45.81537" lon="4.88959">
        <ele>278.3</ele>
        <time>2020-09-12T11:39:14Z</time>
      </trkpt>
      <trkpt lat="45.81532" lon="4.88956">
        <ele>278.3</ele>
        <time>2020-09-12T11:39:15Z</time>
      </trkpt>
      <trkpt lat="45.81527" lon="4.88951">
        <ele>278.2</ele>
        <time>2020-09-12T11:39:16Z</time>
      </trkpt>
      <trkpt lat="45.81523" lon="4.88946">
        <ele>278.2</ele>
        <time>2020-09-12T11:39:17Z</time>
      </trkpt>
      <trkpt lat="45.81518" lon="4.88941">
        <ele>278.2</ele>
        <time>2020-09-12T11:39:18Z</time>
      </trkpt>
      <trkpt lat="45.81513" lon="4.88935">
        <ele>278.1</ele>
        <time>2020-09-12T11:39:19Z</time>
      </trkpt>
      <trkpt lat="45.81508" lon="4.8893">
        <ele>278.1</ele>
        <time>2020-09-12T11:39:20Z</time>
      </trkpt>
      <trkpt lat="45.81503" lon="4.88925">
        <ele>278.1</ele>
        <time>2020-09-12T11:39:21Z</time>
      </trkpt>
      <trkpt lat="45.81498" lon="4.8892">
        <ele>278.1</ele>
        <time>2020-09-12T11:39:22Z</time>
      </trkpt>
      <trkpt lat="45.81493" lon="4.88915">
        <ele>278.3</ele>
        <time>2020-09-12T11:39:23Z</time>
      </trkpt>
      <trkpt lat="45.81487" lon="4.88911">
        <ele>278.5</ele>
        <time>2020-09-12T11:39:24Z</time>
      </trkpt>
      <trkpt lat="45.81477" lon="4.88902">
        <ele>278.7</ele>
        <time>2020-09-12T11:39:26Z</time>
      </trkpt>
      <trkpt lat="45.81471" lon="4.88896">
        <ele>278.8</ele>
        <time>2020-09-12T11:39:27Z</time>
      </trkpt>
      <trkpt lat="45.81467" lon="4.88891">
        <ele>278.9</ele>
        <time>2020-09-12T11:39:28Z</time>
      </trkpt>
      <trkpt lat="45.81462" lon="4.88887">
        <ele>279</ele>
        <time>2020-09-12T11:39:29Z</time>
      </trkpt>
      <trkpt lat="45.81457" lon="4.88882">
        <ele>279</ele>
        <time>2020-09-12T11:39:30Z</time>
      </trkpt>
      <trkpt lat="45.81453" lon="4.88878">
        <ele>279</ele>
        <time>2020-09-12T11:39:31Z</time>
      </trkpt>
      <trkpt lat="45.81446" lon="4.88871">
        <ele>279.1</ele>
        <time>2020-09-12T11:39:32Z</time>
      </trkpt>
      <trkpt lat="45.81434" lon="4.88859">
        <ele>279.1</ele>
        <time>2020-09-12T11:39:34Z</time>
      </trkpt>
      <trkpt lat="45.81427" lon="4.88853">
        <ele>279.1</ele>
        <time>2020-09-12T11:39:35Z</time>
      </trkpt>
      <trkpt lat="45.81422" lon="4.88849">
        <ele>279.1</ele>
        <time>2020-09-12T11:39:36Z</time>
      </trkpt>
      <trkpt lat="45.81417" lon="4.88844">
        <ele>279</ele>
        <time>2020-09-12T11:39:37Z</time>
      </trkpt>
      <trkpt lat="45.81413" lon="4.88838">
        <ele>278.9</ele>
        <time>2020-09-12T11:39:38Z</time>
      </trkpt>
      <trkpt lat="45.81406" lon="4.88832">
        <ele>278.5</ele>
        <time>2020-09-12T11:39:40Z</time>
      </trkpt>
      <trkpt lat="45.81403" lon="4.88825">
        <ele>278.4</ele>
        <time>2020-09-12T11:39:43Z</time>
      </trkpt>
      <trkpt lat="45.81399" lon="4.8882">
        <ele>278.2</ele>
        <time>2020-09-12T11:39:51Z</time>
      </trkpt>
      <trkpt lat="45.81395" lon="4.88816">
        <ele>278.1</ele>
        <time>2020-09-12T11:39:53Z</time>
      </trkpt>
      <trkpt lat="45.8139" lon="4.88812">
        <ele>278</ele>
        <time>2020-09-12T11:39:55Z</time>
      </trkpt>
      <trkpt lat="45.81383" lon="4.88807">
        <ele>277.9</ele>
        <time>2020-09-12T11:39:57Z</time>
      </trkpt>
      <trkpt lat="45.81377" lon="4.888">
        <ele>277.8</ele>
        <time>2020-09-12T11:39:59Z</time>
      </trkpt>
      <trkpt lat="45.8137" lon="4.88792">
        <ele>277.8</ele>
        <time>2020-09-12T11:40:01Z</time>
      </trkpt>
      <trkpt lat="45.81366" lon="4.88788">
        <ele>277.8</ele>
        <time>2020-09-12T11:40:02Z</time>
      </trkpt>
      <trkpt lat="45.81361" lon="4.88785">
        <ele>277.8</ele>
        <time>2020-09-12T11:40:03Z</time>
      </trkpt>
      <trkpt lat="45.81353" lon="4.88778">
        <ele>277.8</ele>
        <time>2020-09-12T11:40:05Z</time>
      </trkpt>
      <trkpt lat="45.8135" lon="4.88774">
        <ele>277.8</ele>
        <time>2020-09-12T11:40:06Z</time>
      </trkpt>
      <trkpt lat="45.81345" lon="4.8877">
        <ele>277.8</ele>
        <time>2020-09-12T11:40:07Z</time>
      </trkpt>
      <trkpt lat="45.8134" lon="4.88766">
        <ele>277.8</ele>
        <time>2020-09-12T11:40:08Z</time>
      </trkpt>
      <trkpt lat="45.81336" lon="4.88761">
        <ele>277.9</ele>
        <time>2020-09-12T11:40:09Z</time>
      </trkpt>
      <trkpt lat="45.81332" lon="4.88757">
        <ele>278.4</ele>
        <time>2020-09-12T11:40:10Z</time>
      </trkpt>
      <trkpt lat="45.81327" lon="4.88753">
        <ele>278.4</ele>
        <time>2020-09-12T11:40:11Z</time>
      </trkpt>
      <trkpt lat="45.81323" lon="4.88749">
        <ele>278.8</ele>
        <time>2020-09-12T11:40:12Z</time>
      </trkpt>
      <trkpt lat="45.81318" lon="4.88744">
        <ele>279.1</ele>
        <time>2020-09-12T11:40:13Z</time>
      </trkpt>
      <trkpt lat="45.81315" lon="4.8874">
        <ele>279.3</ele>
        <time>2020-09-12T11:40:14Z</time>
      </trkpt>
      <trkpt lat="45.8131" lon="4.88734">
        <ele>279.6</ele>
        <time>2020-09-12T11:40:15Z</time>
      </trkpt>
      <trkpt lat="45.81305" lon="4.88729">
        <ele>279.8</ele>
        <time>2020-09-12T11:40:16Z</time>
      </trkpt>
      <trkpt lat="45.81302" lon="4.88725">
        <ele>279.9</ele>
        <time>2020-09-12T11:40:17Z</time>
      </trkpt>
      <trkpt lat="45.81298" lon="4.88721">
        <ele>280.1</ele>
        <time>2020-09-12T11:40:18Z</time>
      </trkpt>
      <trkpt lat="45.81295" lon="4.88716">
        <ele>280.2</ele>
        <time>2020-09-12T11:40:19Z</time>
      </trkpt>
      <trkpt lat="45.8129" lon="4.88712">
        <ele>280.3</ele>
        <time>2020-09-12T11:40:20Z</time>
      </trkpt>
      <trkpt lat="45.81286" lon="4.88708">
        <ele>280.4</ele>
        <time>2020-09-12T11:40:21Z</time>
      </trkpt>
      <trkpt lat="45.81281" lon="4.88704">
        <ele>280.5</ele>
        <time>2020-09-12T11:40:22Z</time>
      </trkpt>
      <trkpt lat="45.81278" lon="4.88698">
        <ele>280.6</ele>
        <time>2020-09-12T11:40:23Z</time>
      </trkpt>
      <trkpt lat="45.81273" lon="4.88693">
        <ele>280.7</ele>
        <time>2020-09-12T11:40:24Z</time>
      </trkpt>
      <trkpt lat="45.81267" lon="4.88688">
        <ele>280.9</ele>
        <time>2020-09-12T11:40:25Z</time>
      </trkpt>
      <trkpt lat="45.81263" lon="4.88684">
        <ele>281</ele>
        <time>2020-09-12T11:40:26Z</time>
      </trkpt>
      <trkpt lat="45.81259" lon="4.88679">
        <ele>281.2</ele>
        <time>2020-09-12T11:40:27Z</time>
      </trkpt>
      <trkpt lat="45.81255" lon="4.88674">
        <ele>281.5</ele>
        <time>2020-09-12T11:40:28Z</time>
      </trkpt>
      <trkpt lat="45.8125" lon="4.88669">
        <ele>281.8</ele>
        <time>2020-09-12T11:40:29Z</time>
      </trkpt>
      <trkpt lat="45.81246" lon="4.88664">
        <ele>281.7</ele>
        <time>2020-09-12T11:40:30Z</time>
      </trkpt>
      <trkpt lat="45.81242" lon="4.88658">
        <ele>281.3</ele>
        <time>2020-09-12T11:40:31Z</time>
      </trkpt>
      <trkpt lat="45.81236" lon="4.88654">
        <ele>281.1</ele>
        <time>2020-09-12T11:40:32Z</time>
      </trkpt>
      <trkpt lat="45.81232" lon="4.88648">
        <ele>280.8</ele>
        <time>2020-09-12T11:40:33Z</time>
      </trkpt>
      <trkpt lat="45.81228" lon="4.88643">
        <ele>280.7</ele>
        <time>2020-09-12T11:40:34Z</time>
      </trkpt>
      <trkpt lat="45.81223" lon="4.88638">
        <ele>280.5</ele>
        <time>2020-09-12T11:40:35Z</time>
      </trkpt>
      <trkpt lat="45.81219" lon="4.88633">
        <ele>280.4</ele>
        <time>2020-09-12T11:40:36Z</time>
      </trkpt>
      <trkpt lat="45.81213" lon="4.88627">
        <ele>280.3</ele>
        <time>2020-09-12T11:40:37Z</time>
      </trkpt>
      <trkpt lat="45.81208" lon="4.88623">
        <ele>280.2</ele>
        <time>2020-09-12T11:40:38Z</time>
      </trkpt>
      <trkpt lat="45.81203" lon="4.88621">
        <ele>280.2</ele>
        <time>2020-09-12T11:40:39Z</time>
      </trkpt>
      <trkpt lat="45.81197" lon="4.88616">
        <ele>280.1</ele>
        <time>2020-09-12T11:40:40Z</time>
      </trkpt>
      <trkpt lat="45.81192" lon="4.88612">
        <ele>280</ele>
        <time>2020-09-12T11:40:41Z</time>
      </trkpt>
      <trkpt lat="45.81188" lon="4.88608">
        <ele>279.9</ele>
        <time>2020-09-12T11:40:42Z</time>
      </trkpt>
      <trkpt lat="45.81183" lon="4.88602">
        <ele>279.8</ele>
        <time>2020-09-12T11:40:43Z</time>
      </trkpt>
      <trkpt lat="45.81177" lon="4.88597">
        <ele>279.6</ele>
        <time>2020-09-12T11:40:44Z</time>
      </trkpt>
      <trkpt lat="45.81172" lon="4.88592">
        <ele>279.4</ele>
        <time>2020-09-12T11:40:45Z</time>
      </trkpt>
      <trkpt lat="45.81167" lon="4.88589">
        <ele>279.2</ele>
        <time>2020-09-12T11:40:46Z</time>
      </trkpt>
      <trkpt lat="45.81161" lon="4.88584">
        <ele>279.2</ele>
        <time>2020-09-12T11:40:47Z</time>
      </trkpt>
      <trkpt lat="45.81155" lon="4.88579">
        <ele>278.9</ele>
        <time>2020-09-12T11:40:48Z</time>
      </trkpt>
      <trkpt lat="45.81149" lon="4.88575">
        <ele>278.9</ele>
        <time>2020-09-12T11:40:49Z</time>
      </trkpt>
      <trkpt lat="45.81143" lon="4.88569">
        <ele>278.9</ele>
        <time>2020-09-12T11:40:50Z</time>
      </trkpt>
      <trkpt lat="45.81138" lon="4.88565">
        <ele>278.9</ele>
        <time>2020-09-12T11:40:51Z</time>
      </trkpt>
      <trkpt lat="45.81133" lon="4.88559">
        <ele>278.8</ele>
        <time>2020-09-12T11:40:52Z</time>
      </trkpt>
      <trkpt lat="45.81128" lon="4.88553">
        <ele>278.8</ele>
        <time>2020-09-12T11:40:53Z</time>
      </trkpt>
      <trkpt lat="45.81123" lon="4.88547">
        <ele>278.7</ele>
        <time>2020-09-12T11:40:54Z</time>
      </trkpt>
      <trkpt lat="45.81117" lon="4.88542">
        <ele>278.7</ele>
        <time>2020-09-12T11:40:55Z</time>
      </trkpt>
      <trkpt lat="45.81111" lon="4.88536">
        <ele>278.6</ele>
        <time>2020-09-12T11:40:56Z</time>
      </trkpt>
      <trkpt lat="45.81105" lon="4.88531">
        <ele>278.5</ele>
        <time>2020-09-12T11:40:57Z</time>
      </trkpt>
      <trkpt lat="45.81099" lon="4.88524">
        <ele>278.3</ele>
        <time>2020-09-12T11:40:58Z</time>
      </trkpt>
      <trkpt lat="45.81092" lon="4.88519">
        <ele>278</ele>
        <time>2020-09-12T11:40:59Z</time>
      </trkpt>
      <trkpt lat="45.81085" lon="4.88512">
        <ele>277.7</ele>
        <time>2020-09-12T11:41:00Z</time>
      </trkpt>
      <trkpt lat="45.81078" lon="4.88506">
        <ele>277.2</ele>
        <time>2020-09-12T11:41:01Z</time>
      </trkpt>
      <trkpt lat="45.81071" lon="4.88502">
        <ele>277.2</ele>
        <time>2020-09-12T11:41:02Z</time>
      </trkpt>
      <trkpt lat="45.81064" lon="4.88497">
        <ele>276.3</ele>
        <time>2020-09-12T11:41:03Z</time>
      </trkpt>
      <trkpt lat="45.81056" lon="4.88491">
        <ele>276.1</ele>
        <time>2020-09-12T11:41:04Z</time>
      </trkpt>
      <trkpt lat="45.81048" lon="4.88487">
        <ele>275.9</ele>
        <time>2020-09-12T11:41:05Z</time>
      </trkpt>
      <trkpt lat="45.81041" lon="4.88483">
        <ele>275.8</ele>
        <time>2020-09-12T11:41:06Z</time>
      </trkpt>
      <trkpt lat="45.81033" lon="4.88478">
        <ele>275.7</ele>
        <time>2020-09-12T11:41:07Z</time>
      </trkpt>
      <trkpt lat="45.81023" lon="4.88471">
        <ele>275.5</ele>
        <time>2020-09-12T11:41:08Z</time>
      </trkpt>
      <trkpt lat="45.81015" lon="4.88465">
        <ele>275.4</ele>
        <time>2020-09-12T11:41:09Z</time>
      </trkpt>
      <trkpt lat="45.81006" lon="4.8846">
        <ele>275.3</ele>
        <time>2020-09-12T11:41:10Z</time>
      </trkpt>
      <trkpt lat="45.80997" lon="4.88453">
        <ele>271.1</ele>
        <time>2020-09-12T11:41:11Z</time>
      </trkpt>
      <trkpt lat="45.80989" lon="4.88444">
        <ele>270.9</ele>
        <time>2020-09-12T11:41:12Z</time>
      </trkpt>
      <trkpt lat="45.80981" lon="4.88434">
        <ele>270.7</ele>
        <time>2020-09-12T11:41:13Z</time>
      </trkpt>
      <trkpt lat="45.80975" lon="4.88422">
        <ele>270.2</ele>
        <time>2020-09-12T11:41:14Z</time>
      </trkpt>
      <trkpt lat="45.8097" lon="4.88409">
        <ele>268</ele>
        <time>2020-09-12T11:41:15Z</time>
      </trkpt>
      <trkpt lat="45.80967" lon="4.88394">
        <ele>267.3</ele>
        <time>2020-09-12T11:41:16Z</time>
      </trkpt>
      <trkpt lat="45.80965" lon="4.8838">
        <ele>267</ele>
        <time>2020-09-12T11:41:17Z</time>
      </trkpt>
      <trkpt lat="45.80964" lon="4.88365">
        <ele>266.9</ele>
        <time>2020-09-12T11:41:18Z</time>
      </trkpt>
      <trkpt lat="45.80962" lon="4.88349">
        <ele>266.8</ele>
        <time>2020-09-12T11:41:19Z</time>
      </trkpt>
      <trkpt lat="45.80961" lon="4.88333">
        <ele>266.7</ele>
        <time>2020-09-12T11:41:20Z</time>
      </trkpt>
      <trkpt lat="45.80959" lon="4.88315">
        <ele>266.4</ele>
        <time>2020-09-12T11:41:21Z</time>
      </trkpt>
      <trkpt lat="45.80957" lon="4.883">
        <ele>266.3</ele>
        <time>2020-09-12T11:41:22Z</time>
      </trkpt>
      <trkpt lat="45.80955" lon="4.88283">
        <ele>266.1</ele>
        <time>2020-09-12T11:41:23Z</time>
      </trkpt>
      <trkpt lat="45.80952" lon="4.88267">
        <ele>265.7</ele>
        <time>2020-09-12T11:41:24Z</time>
      </trkpt>
      <trkpt lat="45.80949" lon="4.88252">
        <ele>264.9</ele>
        <time>2020-09-12T11:41:25Z</time>
      </trkpt>
      <trkpt lat="45.80944" lon="4.88237">
        <ele>265.6</ele>
        <time>2020-09-12T11:41:26Z</time>
      </trkpt>
      <trkpt lat="45.80939" lon="4.88222">
        <ele>265.7</ele>
        <time>2020-09-12T11:41:27Z</time>
      </trkpt>
      <trkpt lat="45.80935" lon="4.88208">
        <ele>266</ele>
        <time>2020-09-12T11:41:28Z</time>
      </trkpt>
      <trkpt lat="45.80928" lon="4.88194">
        <ele>265.6</ele>
        <time>2020-09-12T11:41:29Z</time>
      </trkpt>
      <trkpt lat="45.80922" lon="4.88181">
        <ele>264.6</ele>
        <time>2020-09-12T11:41:30Z</time>
      </trkpt>
      <trkpt lat="45.80915" lon="4.88169">
        <ele>261</ele>
        <time>2020-09-12T11:41:31Z</time>
      </trkpt>
      <trkpt lat="45.80909" lon="4.88156">
        <ele>262.1</ele>
        <time>2020-09-12T11:41:32Z</time>
      </trkpt>
      <trkpt lat="45.809" lon="4.88145">
        <ele>262.3</ele>
        <time>2020-09-12T11:41:33Z</time>
      </trkpt>
      <trkpt lat="45.80891" lon="4.88136">
        <ele>262.4</ele>
        <time>2020-09-12T11:41:34Z</time>
      </trkpt>
      <trkpt lat="45.80882" lon="4.88127">
        <ele>262.5</ele>
        <time>2020-09-12T11:41:35Z</time>
      </trkpt>
      <trkpt lat="45.80872" lon="4.88121">
        <ele>262.4</ele>
        <time>2020-09-12T11:41:36Z</time>
      </trkpt>
      <trkpt lat="45.80862" lon="4.88114">
        <ele>262.3</ele>
        <time>2020-09-12T11:41:37Z</time>
      </trkpt>
      <trkpt lat="45.80851" lon="4.8811">
        <ele>262.2</ele>
        <time>2020-09-12T11:41:38Z</time>
      </trkpt>
      <trkpt lat="45.80839" lon="4.88107">
        <ele>262.2</ele>
        <time>2020-09-12T11:41:39Z</time>
      </trkpt>
      <trkpt lat="45.80827" lon="4.88104">
        <ele>259.6</ele>
        <time>2020-09-12T11:41:40Z</time>
      </trkpt>
      <trkpt lat="45.80815" lon="4.88105">
        <ele>259.1</ele>
        <time>2020-09-12T11:41:41Z</time>
      </trkpt>
      <trkpt lat="45.80804" lon="4.88109">
        <ele>258.3</ele>
        <time>2020-09-12T11:41:42Z</time>
      </trkpt>
      <trkpt lat="45.80792" lon="4.88113">
        <ele>257.8</ele>
        <time>2020-09-12T11:41:43Z</time>
      </trkpt>
      <trkpt lat="45.80782" lon="4.88119">
        <ele>257.3</ele>
        <time>2020-09-12T11:41:44Z</time>
      </trkpt>
      <trkpt lat="45.80771" lon="4.88125">
        <ele>256.7</ele>
        <time>2020-09-12T11:41:45Z</time>
      </trkpt>
      <trkpt lat="45.80761" lon="4.88131">
        <ele>255.8</ele>
        <time>2020-09-12T11:41:46Z</time>
      </trkpt>
      <trkpt lat="45.80749" lon="4.88139">
        <ele>254.5</ele>
        <time>2020-09-12T11:41:47Z</time>
      </trkpt>
      <trkpt lat="45.80738" lon="4.88146">
        <ele>253.8</ele>
        <time>2020-09-12T11:41:48Z</time>
      </trkpt>
      <trkpt lat="45.80727" lon="4.88153">
        <ele>253.7</ele>
        <time>2020-09-12T11:41:49Z</time>
      </trkpt>
      <trkpt lat="45.80716" lon="4.88159">
        <ele>254.1</ele>
        <time>2020-09-12T11:41:50Z</time>
      </trkpt>
      <trkpt lat="45.80705" lon="4.88168">
        <ele>245.8</ele>
        <time>2020-09-12T11:41:51Z</time>
      </trkpt>
      <trkpt lat="45.80695" lon="4.88175">
        <ele>246.1</ele>
        <time>2020-09-12T11:41:52Z</time>
      </trkpt>
      <trkpt lat="45.80685" lon="4.88184">
        <ele>246.2</ele>
        <time>2020-09-12T11:41:53Z</time>
      </trkpt>
      <trkpt lat="45.80676" lon="4.88195">
        <ele>245.3</ele>
        <time>2020-09-12T11:41:54Z</time>
      </trkpt>
      <trkpt lat="45.80666" lon="4.88207">
        <ele>245.5</ele>
        <time>2020-09-12T11:41:55Z</time>
      </trkpt>
      <trkpt lat="45.80656" lon="4.88218">
        <ele>244.2</ele>
        <time>2020-09-12T11:41:56Z</time>
      </trkpt>
      <trkpt lat="45.80646" lon="4.88227">
        <ele>243.4</ele>
        <time>2020-09-12T11:41:57Z</time>
      </trkpt>
      <trkpt lat="45.80636" lon="4.88235">
        <ele>243.3</ele>
        <time>2020-09-12T11:41:58Z</time>
      </trkpt>
      <trkpt lat="45.80625" lon="4.88243">
        <ele>243.4</ele>
        <time>2020-09-12T11:41:59Z</time>
      </trkpt>
      <trkpt lat="45.80613" lon="4.88247">
        <ele>243.4</ele>
        <time>2020-09-12T11:42:00Z</time>
      </trkpt>
      <trkpt lat="45.80601" lon="4.88251">
        <ele>237.7</ele>
        <time>2020-09-12T11:42:01Z</time>
      </trkpt>
      <trkpt lat="45.80589" lon="4.88257">
        <ele>239</ele>
        <time>2020-09-12T11:42:02Z</time>
      </trkpt>
      <trkpt lat="45.80576" lon="4.8826">
        <ele>237.7</ele>
        <time>2020-09-12T11:42:03Z</time>
      </trkpt>
      <trkpt lat="45.80563" lon="4.8826">
        <ele>236.2</ele>
        <time>2020-09-12T11:42:04Z</time>
      </trkpt>
      <trkpt lat="45.8055" lon="4.88257">
        <ele>235.1</ele>
        <time>2020-09-12T11:42:05Z</time>
      </trkpt>
      <trkpt lat="45.80537" lon="4.88256">
        <ele>234.4</ele>
        <time>2020-09-12T11:42:06Z</time>
      </trkpt>
      <trkpt lat="45.80523" lon="4.88254">
        <ele>234.2</ele>
        <time>2020-09-12T11:42:07Z</time>
      </trkpt>
      <trkpt lat="45.8051" lon="4.8825">
        <ele>234.4</ele>
        <time>2020-09-12T11:42:08Z</time>
      </trkpt>
      <trkpt lat="45.80497" lon="4.88245">
        <ele>235.6</ele>
        <time>2020-09-12T11:42:09Z</time>
      </trkpt>
      <trkpt lat="45.80487" lon="4.88239">
        <ele>236.4</ele>
        <time>2020-09-12T11:42:10Z</time>
      </trkpt>
      <trkpt lat="45.80474" lon="4.88232">
        <ele>236.7</ele>
        <time>2020-09-12T11:42:11Z</time>
      </trkpt>
      <trkpt lat="45.80463" lon="4.88226">
        <ele>236.6</ele>
        <time>2020-09-12T11:42:12Z</time>
      </trkpt>
      <trkpt lat="45.80451" lon="4.88218">
        <ele>236.6</ele>
        <time>2020-09-12T11:42:13Z</time>
      </trkpt>
      <trkpt lat="45.80431" lon="4.88203">
        <ele>236.9</ele>
        <time>2020-09-12T11:42:15Z</time>
      </trkpt>
      <trkpt lat="45.8042" lon="4.88196">
        <ele>237.2</ele>
        <time>2020-09-12T11:42:16Z</time>
      </trkpt>
      <trkpt lat="45.80412" lon="4.88188">
        <ele>234.5</ele>
        <time>2020-09-12T11:42:17Z</time>
      </trkpt>
      <trkpt lat="45.80402" lon="4.8818">
        <ele>235</ele>
        <time>2020-09-12T11:42:18Z</time>
      </trkpt>
      <trkpt lat="45.80391" lon="4.88172">
        <ele>234.4</ele>
        <time>2020-09-12T11:42:19Z</time>
      </trkpt>
      <trkpt lat="45.80381" lon="4.88166">
        <ele>238.8</ele>
        <time>2020-09-12T11:42:20Z</time>
      </trkpt>
      <trkpt lat="45.80363" lon="4.88151">
        <ele>238</ele>
        <time>2020-09-12T11:42:22Z</time>
      </trkpt>
      <trkpt lat="45.80354" lon="4.88143">
        <ele>237.8</ele>
        <time>2020-09-12T11:42:23Z</time>
      </trkpt>
      <trkpt lat="45.80346" lon="4.88135">
        <ele>238</ele>
        <time>2020-09-12T11:42:24Z</time>
      </trkpt>
      <trkpt lat="45.8034" lon="4.88126">
        <ele>238.6</ele>
        <time>2020-09-12T11:42:25Z</time>
      </trkpt>
      <trkpt lat="45.80333" lon="4.88117">
        <ele>233.9</ele>
        <time>2020-09-12T11:42:26Z</time>
      </trkpt>
      <trkpt lat="45.80327" lon="4.88107">
        <ele>234.7</ele>
        <time>2020-09-12T11:42:27Z</time>
      </trkpt>
      <trkpt lat="45.80322" lon="4.88099">
        <ele>235.2</ele>
        <time>2020-09-12T11:42:28Z</time>
      </trkpt>
      <trkpt lat="45.80319" lon="4.8809">
        <ele>235.7</ele>
        <time>2020-09-12T11:42:29Z</time>
      </trkpt>
      <trkpt lat="45.80316" lon="4.88083">
        <ele>238.5</ele>
        <time>2020-09-12T11:42:30Z</time>
      </trkpt>
      <trkpt lat="45.80313" lon="4.88077">
        <ele>238.4</ele>
        <time>2020-09-12T11:42:31Z</time>
      </trkpt>
      <trkpt lat="45.8031" lon="4.88072">
        <ele>238.4</ele>
        <time>2020-09-12T11:42:32Z</time>
      </trkpt>
      <trkpt lat="45.80303" lon="4.88066">
        <ele>238.1</ele>
        <time>2020-09-12T11:42:34Z</time>
      </trkpt>
      <trkpt lat="45.80298" lon="4.88059">
        <ele>238</ele>
        <time>2020-09-12T11:42:36Z</time>
      </trkpt>
      <trkpt lat="45.80291" lon="4.88053">
        <ele>237.8</ele>
        <time>2020-09-12T11:42:38Z</time>
      </trkpt>
      <trkpt lat="45.80283" lon="4.88048">
        <ele>237.4</ele>
        <time>2020-09-12T11:42:40Z</time>
      </trkpt>
      <trkpt lat="45.80276" lon="4.88041">
        <ele>237.1</ele>
        <time>2020-09-12T11:42:42Z</time>
      </trkpt>
      <trkpt lat="45.80269" lon="4.88031">
        <ele>236.9</ele>
        <time>2020-09-12T11:42:44Z</time>
      </trkpt>
      <trkpt lat="45.80262" lon="4.88025">
        <ele>236.4</ele>
        <time>2020-09-12T11:42:46Z</time>
      </trkpt>
      <trkpt lat="45.80258" lon="4.8802">
        <ele>235.9</ele>
        <time>2020-09-12T11:42:47Z</time>
      </trkpt>
      <trkpt lat="45.80254" lon="4.88015">
        <ele>235.4</ele>
        <time>2020-09-12T11:42:48Z</time>
      </trkpt>
      <trkpt lat="45.80249" lon="4.88009">
        <ele>231.9</ele>
        <time>2020-09-12T11:42:49Z</time>
      </trkpt>
      <trkpt lat="45.80246" lon="4.88004">
        <ele>232.2</ele>
        <time>2020-09-12T11:42:50Z</time>
      </trkpt>
      <trkpt lat="45.80241" lon="4.87999">
        <ele>233.2</ele>
        <time>2020-09-12T11:42:51Z</time>
      </trkpt>
      <trkpt lat="45.80238" lon="4.87994">
        <ele>233.4</ele>
        <time>2020-09-12T11:42:52Z</time>
      </trkpt>
      <trkpt lat="45.80233" lon="4.87988">
        <ele>233.5</ele>
        <time>2020-09-12T11:42:53Z</time>
      </trkpt>
      <trkpt lat="45.80229" lon="4.87982">
        <ele>233.6</ele>
        <time>2020-09-12T11:42:54Z</time>
      </trkpt>
      <trkpt lat="45.80225" lon="4.87974">
        <ele>233.7</ele>
        <time>2020-09-12T11:42:55Z</time>
      </trkpt>
      <trkpt lat="45.80221" lon="4.87965">
        <ele>233.9</ele>
        <time>2020-09-12T11:42:56Z</time>
      </trkpt>
      <trkpt lat="45.80218" lon="4.87959">
        <ele>234</ele>
        <time>2020-09-12T11:42:57Z</time>
      </trkpt>
      <trkpt lat="45.8021" lon="4.87955">
        <ele>233.9</ele>
        <time>2020-09-12T11:42:59Z</time>
      </trkpt>
      <trkpt lat="45.80204" lon="4.87954">
        <ele>233.7</ele>
        <time>2020-09-12T11:43:00Z</time>
      </trkpt>
      <trkpt lat="45.802" lon="4.87952">
        <ele>233.6</ele>
        <time>2020-09-12T11:43:01Z</time>
      </trkpt>
      <trkpt lat="45.80195" lon="4.87949">
        <ele>233.5</ele>
        <time>2020-09-12T11:43:02Z</time>
      </trkpt>
      <trkpt lat="45.80191" lon="4.87942">
        <ele>233.4</ele>
        <time>2020-09-12T11:43:03Z</time>
      </trkpt>
      <trkpt lat="45.80187" lon="4.87937">
        <ele>233.3</ele>
        <time>2020-09-12T11:43:04Z</time>
      </trkpt>
      <trkpt lat="45.80182" lon="4.87932">
        <ele>233.1</ele>
        <time>2020-09-12T11:43:05Z</time>
      </trkpt>
      <trkpt lat="45.80178" lon="4.87925">
        <ele>232.9</ele>
        <time>2020-09-12T11:43:06Z</time>
      </trkpt>
      <trkpt lat="45.80174" lon="4.87919">
        <ele>232.5</ele>
        <time>2020-09-12T11:43:07Z</time>
      </trkpt>
      <trkpt lat="45.80169" lon="4.87913">
        <ele>233.4</ele>
        <time>2020-09-12T11:43:08Z</time>
      </trkpt>
      <trkpt lat="45.80165" lon="4.87907">
        <ele>232.1</ele>
        <time>2020-09-12T11:43:09Z</time>
      </trkpt>
      <trkpt lat="45.8016" lon="4.87901">
        <ele>232.2</ele>
        <time>2020-09-12T11:43:10Z</time>
      </trkpt>
      <trkpt lat="45.80155" lon="4.87896">
        <ele>232.3</ele>
        <time>2020-09-12T11:43:11Z</time>
      </trkpt>
      <trkpt lat="45.8015" lon="4.87889">
        <ele>232.4</ele>
        <time>2020-09-12T11:43:12Z</time>
      </trkpt>
      <trkpt lat="45.80144" lon="4.87884">
        <ele>232.4</ele>
        <time>2020-09-12T11:43:13Z</time>
      </trkpt>
      <trkpt lat="45.80139" lon="4.87876">
        <ele>232.5</ele>
        <time>2020-09-12T11:43:14Z</time>
      </trkpt>
      <trkpt lat="45.80124" lon="4.87856">
        <ele>232.5</ele>
        <time>2020-09-12T11:43:17Z</time>
      </trkpt>
      <trkpt lat="45.8012" lon="4.8785">
        <ele>232.4</ele>
        <time>2020-09-12T11:43:18Z</time>
      </trkpt>
      <trkpt lat="45.80116" lon="4.87843">
        <ele>232.2</ele>
        <time>2020-09-12T11:43:19Z</time>
      </trkpt>
      <trkpt lat="45.8011" lon="4.87835">
        <ele>231.9</ele>
        <time>2020-09-12T11:43:20Z</time>
      </trkpt>
      <trkpt lat="45.80106" lon="4.87827">
        <ele>234.4</ele>
        <time>2020-09-12T11:43:21Z</time>
      </trkpt>
      <trkpt lat="45.80101" lon="4.87819">
        <ele>234.3</ele>
        <time>2020-09-12T11:43:22Z</time>
      </trkpt>
      <trkpt lat="45.80095" lon="4.87814">
        <ele>234.2</ele>
        <time>2020-09-12T11:43:23Z</time>
      </trkpt>
      <trkpt lat="45.80089" lon="4.87805">
        <ele>234.6</ele>
        <time>2020-09-12T11:43:24Z</time>
      </trkpt>
      <trkpt lat="45.80079" lon="4.87786">
        <ele>228.7</ele>
        <time>2020-09-12T11:43:26Z</time>
      </trkpt>
      <trkpt lat="45.80073" lon="4.87778">
        <ele>228.9</ele>
        <time>2020-09-12T11:43:27Z</time>
      </trkpt>
      <trkpt lat="45.80067" lon="4.87772">
        <ele>228.9</ele>
        <time>2020-09-12T11:43:28Z</time>
      </trkpt>
      <trkpt lat="45.80061" lon="4.87765">
        <ele>228.8</ele>
        <time>2020-09-12T11:43:29Z</time>
      </trkpt>
      <trkpt lat="45.80056" lon="4.87757">
        <ele>228.6</ele>
        <time>2020-09-12T11:43:30Z</time>
      </trkpt>
      <trkpt lat="45.8005" lon="4.87748">
        <ele>230.3</ele>
        <time>2020-09-12T11:43:31Z</time>
      </trkpt>
      <trkpt lat="45.80044" lon="4.87742">
        <ele>230</ele>
        <time>2020-09-12T11:43:32Z</time>
      </trkpt>
      <trkpt lat="45.80039" lon="4.87735">
        <ele>229.8</ele>
        <time>2020-09-12T11:43:33Z</time>
      </trkpt>
      <trkpt lat="45.80034" lon="4.87728">
        <ele>229.6</ele>
        <time>2020-09-12T11:43:34Z</time>
      </trkpt>
      <trkpt lat="45.80027" lon="4.87719">
        <ele>229.5</ele>
        <time>2020-09-12T11:43:35Z</time>
      </trkpt>
      <trkpt lat="45.80021" lon="4.87711">
        <ele>229.5</ele>
        <time>2020-09-12T11:43:36Z</time>
      </trkpt>
      <trkpt lat="45.80014" lon="4.87704">
        <ele>229.4</ele>
        <time>2020-09-12T11:43:37Z</time>
      </trkpt>
      <trkpt lat="45.80008" lon="4.87698">
        <ele>229.3</ele>
        <time>2020-09-12T11:43:38Z</time>
      </trkpt>
      <trkpt lat="45.80001" lon="4.87692">
        <ele>229.2</ele>
        <time>2020-09-12T11:43:39Z</time>
      </trkpt>
      <trkpt lat="45.79993" lon="4.87688">
        <ele>225.2</ele>
        <time>2020-09-12T11:43:40Z</time>
      </trkpt>
      <trkpt lat="45.79984" lon="4.87681">
        <ele>225.2</ele>
        <time>2020-09-12T11:43:41Z</time>
      </trkpt>
      <trkpt lat="45.79977" lon="4.87677">
        <ele>224.8</ele>
        <time>2020-09-12T11:43:42Z</time>
      </trkpt>
      <trkpt lat="45.79969" lon="4.87674">
        <ele>224.2</ele>
        <time>2020-09-12T11:43:43Z</time>
      </trkpt>
      <trkpt lat="45.79961" lon="4.87669">
        <ele>223.7</ele>
        <time>2020-09-12T11:43:44Z</time>
      </trkpt>
      <trkpt lat="45.79953" lon="4.87666">
        <ele>226.1</ele>
        <time>2020-09-12T11:43:45Z</time>
      </trkpt>
      <trkpt lat="45.79944" lon="4.8766">
        <ele>225.3</ele>
        <time>2020-09-12T11:43:46Z</time>
      </trkpt>
      <trkpt lat="45.79936" lon="4.87656">
        <ele>224.6</ele>
        <time>2020-09-12T11:43:47Z</time>
      </trkpt>
      <trkpt lat="45.79927" lon="4.87652">
        <ele>224.2</ele>
        <time>2020-09-12T11:43:48Z</time>
      </trkpt>
      <trkpt lat="45.79919" lon="4.87648">
        <ele>224.2</ele>
        <time>2020-09-12T11:43:49Z</time>
      </trkpt>
      <trkpt lat="45.79911" lon="4.87644">
        <ele>221.5</ele>
        <time>2020-09-12T11:43:50Z</time>
      </trkpt>
      <trkpt lat="45.79903" lon="4.8764">
        <ele>221.8</ele>
        <time>2020-09-12T11:43:51Z</time>
      </trkpt>
      <trkpt lat="45.79895" lon="4.87638">
        <ele>221.8</ele>
        <time>2020-09-12T11:43:52Z</time>
      </trkpt>
      <trkpt lat="45.79887" lon="4.87634">
        <ele>221.9</ele>
        <time>2020-09-12T11:43:53Z</time>
      </trkpt>
      <trkpt lat="45.79878" lon="4.87631">
        <ele>221.8</ele>
        <time>2020-09-12T11:43:54Z</time>
      </trkpt>
      <trkpt lat="45.7987" lon="4.87628">
        <ele>221.8</ele>
        <time>2020-09-12T11:43:55Z</time>
      </trkpt>
      <trkpt lat="45.79862" lon="4.87625">
        <ele>221.7</ele>
        <time>2020-09-12T11:43:56Z</time>
      </trkpt>
      <trkpt lat="45.79852" lon="4.87621">
        <ele>221.7</ele>
        <time>2020-09-12T11:43:57Z</time>
      </trkpt>
      <trkpt lat="45.79844" lon="4.87619">
        <ele>221.6</ele>
        <time>2020-09-12T11:43:58Z</time>
      </trkpt>
      <trkpt lat="45.79836" lon="4.87616">
        <ele>221.7</ele>
        <time>2020-09-12T11:43:59Z</time>
      </trkpt>
      <trkpt lat="45.79828" lon="4.87613">
        <ele>219.9</ele>
        <time>2020-09-12T11:44:00Z</time>
      </trkpt>
      <trkpt lat="45.79821" lon="4.8761">
        <ele>220</ele>
        <time>2020-09-12T11:44:01Z</time>
      </trkpt>
      <trkpt lat="45.79814" lon="4.87606">
        <ele>220</ele>
        <time>2020-09-12T11:44:02Z</time>
      </trkpt>
      <trkpt lat="45.79807" lon="4.87603">
        <ele>219.9</ele>
        <time>2020-09-12T11:44:03Z</time>
      </trkpt>
      <trkpt lat="45.798" lon="4.876">
        <ele>219.8</ele>
        <time>2020-09-12T11:44:04Z</time>
      </trkpt>
      <trkpt lat="45.79793" lon="4.87598">
        <ele>219.7</ele>
        <time>2020-09-12T11:44:05Z</time>
      </trkpt>
      <trkpt lat="45.79785" lon="4.87596">
        <ele>219.7</ele>
        <time>2020-09-12T11:44:06Z</time>
      </trkpt>
      <trkpt lat="45.79777" lon="4.87589">
        <ele>219.8</ele>
        <time>2020-09-12T11:44:07Z</time>
      </trkpt>
      <trkpt lat="45.79771" lon="4.87587">
        <ele>219.9</ele>
        <time>2020-09-12T11:44:08Z</time>
      </trkpt>
      <trkpt lat="45.79763" lon="4.87584">
        <ele>220.2</ele>
        <time>2020-09-12T11:44:09Z</time>
      </trkpt>
      <trkpt lat="45.79756" lon="4.87582">
        <ele>221.8</ele>
        <time>2020-09-12T11:44:10Z</time>
      </trkpt>
      <trkpt lat="45.79748" lon="4.87579">
        <ele>220.8</ele>
        <time>2020-09-12T11:44:11Z</time>
      </trkpt>
      <trkpt lat="45.7974" lon="4.87576">
        <ele>220.5</ele>
        <time>2020-09-12T11:44:12Z</time>
      </trkpt>
      <trkpt lat="45.79735" lon="4.87574">
        <ele>220.3</ele>
        <time>2020-09-12T11:44:13Z</time>
      </trkpt>
      <trkpt lat="45.7973" lon="4.87572">
        <ele>220.1</ele>
        <time>2020-09-12T11:44:14Z</time>
      </trkpt>
      <trkpt lat="45.79724" lon="4.87571">
        <ele>219.9</ele>
        <time>2020-09-12T11:44:15Z</time>
      </trkpt>
      <trkpt lat="45.7972" lon="4.8757">
        <ele>219.7</ele>
        <time>2020-09-12T11:44:16Z</time>
      </trkpt>
      <trkpt lat="45.79712" lon="4.87568">
        <ele>219.4</ele>
        <time>2020-09-12T11:44:18Z</time>
      </trkpt>
      <trkpt lat="45.79702" lon="4.87566">
        <ele>218.8</ele>
        <time>2020-09-12T11:44:20Z</time>
      </trkpt>
      <trkpt lat="45.79696" lon="4.87566">
        <ele>218.4</ele>
        <time>2020-09-12T11:44:21Z</time>
      </trkpt>
      <trkpt lat="45.7969" lon="4.87567">
        <ele>217.9</ele>
        <time>2020-09-12T11:44:22Z</time>
      </trkpt>
      <trkpt lat="45.79684" lon="4.87569">
        <ele>217.3</ele>
        <time>2020-09-12T11:44:23Z</time>
      </trkpt>
      <trkpt lat="45.79676" lon="4.8757">
        <ele>216.4</ele>
        <time>2020-09-12T11:44:24Z</time>
      </trkpt>
      <trkpt lat="45.7967" lon="4.87571">
        <ele>215.9</ele>
        <time>2020-09-12T11:44:25Z</time>
      </trkpt>
      <trkpt lat="45.79663" lon="4.87573">
        <ele>212.2</ele>
        <time>2020-09-12T11:44:26Z</time>
      </trkpt>
      <trkpt lat="45.79656" lon="4.87574">
        <ele>211.9</ele>
        <time>2020-09-12T11:44:27Z</time>
      </trkpt>
      <trkpt lat="45.79647" lon="4.87575">
        <ele>211.2</ele>
        <time>2020-09-12T11:44:28Z</time>
      </trkpt>
      <trkpt lat="45.79639" lon="4.87576">
        <ele>210.5</ele>
        <time>2020-09-12T11:44:29Z</time>
      </trkpt>
      <trkpt lat="45.79631" lon="4.87574">
        <ele>209.7</ele>
        <time>2020-09-12T11:44:30Z</time>
      </trkpt>
      <trkpt lat="45.79623" lon="4.87571">
        <ele>208.9</ele>
        <time>2020-09-12T11:44:31Z</time>
      </trkpt>
      <trkpt lat="45.79615" lon="4.87569">
        <ele>208.1</ele>
        <time>2020-09-12T11:44:32Z</time>
      </trkpt>
      <trkpt lat="45.79607" lon="4.87562">
        <ele>207.5</ele>
        <time>2020-09-12T11:44:33Z</time>
      </trkpt>
      <trkpt lat="45.79598" lon="4.87553">
        <ele>207.6</ele>
        <time>2020-09-12T11:44:34Z</time>
      </trkpt>
      <trkpt lat="45.79592" lon="4.87544">
        <ele>208.1</ele>
        <time>2020-09-12T11:44:35Z</time>
      </trkpt>
      <trkpt lat="45.79585" lon="4.87536">
        <ele>208.5</ele>
        <time>2020-09-12T11:44:36Z</time>
      </trkpt>
      <trkpt lat="45.79578" lon="4.87528">
        <ele>198.3</ele>
        <time>2020-09-12T11:44:37Z</time>
      </trkpt>
      <trkpt lat="45.7957" lon="4.87518">
        <ele>199.1</ele>
        <time>2020-09-12T11:44:38Z</time>
      </trkpt>
      <trkpt lat="45.79562" lon="4.87508">
        <ele>198.7</ele>
        <time>2020-09-12T11:44:39Z</time>
      </trkpt>
      <trkpt lat="45.79555" lon="4.87498">
        <ele>203.6</ele>
        <time>2020-09-12T11:44:40Z</time>
      </trkpt>
      <trkpt lat="45.79548" lon="4.87488">
        <ele>202.5</ele>
        <time>2020-09-12T11:44:41Z</time>
      </trkpt>
      <trkpt lat="45.79539" lon="4.87478">
        <ele>201.6</ele>
        <time>2020-09-12T11:44:42Z</time>
      </trkpt>
      <trkpt lat="45.79532" lon="4.87467">
        <ele>201.3</ele>
        <time>2020-09-12T11:44:43Z</time>
      </trkpt>
      <trkpt lat="45.79524" lon="4.87457">
        <ele>201.2</ele>
        <time>2020-09-12T11:44:44Z</time>
      </trkpt>
      <trkpt lat="45.79517" lon="4.87445">
        <ele>201.3</ele>
        <time>2020-09-12T11:44:45Z</time>
      </trkpt>
      <trkpt lat="45.7951" lon="4.87433">
        <ele>200.9</ele>
        <time>2020-09-12T11:44:46Z</time>
      </trkpt>
      <trkpt lat="45.79504" lon="4.87421">
        <ele>199.8</ele>
        <time>2020-09-12T11:44:47Z</time>
      </trkpt>
      <trkpt lat="45.79499" lon="4.87408">
        <ele>197.2</ele>
        <time>2020-09-12T11:44:48Z</time>
      </trkpt>
      <trkpt lat="45.79494" lon="4.87395">
        <ele>195.9</ele>
        <time>2020-09-12T11:44:49Z</time>
      </trkpt>
      <trkpt lat="45.79489" lon="4.87381">
        <ele>195.6</ele>
        <time>2020-09-12T11:44:50Z</time>
      </trkpt>
      <trkpt lat="45.79484" lon="4.87366">
        <ele>196.3</ele>
        <time>2020-09-12T11:44:51Z</time>
      </trkpt>
      <trkpt lat="45.79479" lon="4.87354">
        <ele>197.1</ele>
        <time>2020-09-12T11:44:52Z</time>
      </trkpt>
      <trkpt lat="45.79475" lon="4.8734">
        <ele>197.5</ele>
        <time>2020-09-12T11:44:53Z</time>
      </trkpt>
      <trkpt lat="45.79469" lon="4.87326">
        <ele>199.3</ele>
        <time>2020-09-12T11:44:54Z</time>
      </trkpt>
      <trkpt lat="45.79465" lon="4.87311">
        <ele>198.3</ele>
        <time>2020-09-12T11:44:55Z</time>
      </trkpt>
      <trkpt lat="45.79461" lon="4.87296">
        <ele>197.7</ele>
        <time>2020-09-12T11:44:56Z</time>
      </trkpt>
      <trkpt lat="45.79457" lon="4.8728">
        <ele>197.5</ele>
        <time>2020-09-12T11:44:57Z</time>
      </trkpt>
      <trkpt lat="45.79454" lon="4.87264">
        <ele>197.2</ele>
        <time>2020-09-12T11:44:58Z</time>
      </trkpt>
      <trkpt lat="45.7945" lon="4.87247">
        <ele>197</ele>
        <time>2020-09-12T11:44:59Z</time>
      </trkpt>
      <trkpt lat="45.79447" lon="4.87231">
        <ele>196.8</ele>
        <time>2020-09-12T11:45:00Z</time>
      </trkpt>
      <trkpt lat="45.79438" lon="4.872">
        <ele>196.9</ele>
        <time>2020-09-12T11:45:02Z</time>
      </trkpt>
      <trkpt lat="45.79433" lon="4.87187">
        <ele>196.8</ele>
        <time>2020-09-12T11:45:03Z</time>
      </trkpt>
      <trkpt lat="45.79425" lon="4.87174">
        <ele>196.4</ele>
        <time>2020-09-12T11:45:04Z</time>
      </trkpt>
      <trkpt lat="45.79419" lon="4.87164">
        <ele>196.8</ele>
        <time>2020-09-12T11:45:05Z</time>
      </trkpt>
      <trkpt lat="45.79411" lon="4.87155">
        <ele>195.8</ele>
        <time>2020-09-12T11:45:06Z</time>
      </trkpt>
      <trkpt lat="45.79404" lon="4.87149">
        <ele>195.7</ele>
        <time>2020-09-12T11:45:07Z</time>
      </trkpt>
      <trkpt lat="45.79397" lon="4.87143">
        <ele>195.6</ele>
        <time>2020-09-12T11:45:08Z</time>
      </trkpt>
      <trkpt lat="45.79391" lon="4.87136">
        <ele>195.6</ele>
        <time>2020-09-12T11:45:09Z</time>
      </trkpt>
      <trkpt lat="45.79386" lon="4.87131">
        <ele>195.6</ele>
        <time>2020-09-12T11:45:10Z</time>
      </trkpt>
      <trkpt lat="45.7938" lon="4.87126">
        <ele>195.5</ele>
        <time>2020-09-12T11:45:11Z</time>
      </trkpt>
      <trkpt lat="45.79374" lon="4.87122">
        <ele>195.4</ele>
        <time>2020-09-12T11:45:12Z</time>
      </trkpt>
      <trkpt lat="45.79369" lon="4.87116">
        <ele>195.4</ele>
        <time>2020-09-12T11:45:13Z</time>
      </trkpt>
      <trkpt lat="45.79364" lon="4.87111">
        <ele>195.3</ele>
        <time>2020-09-12T11:45:14Z</time>
      </trkpt>
      <trkpt lat="45.79358" lon="4.87107">
        <ele>195.2</ele>
        <time>2020-09-12T11:45:15Z</time>
      </trkpt>
      <trkpt lat="45.79353" lon="4.87103">
        <ele>195.1</ele>
        <time>2020-09-12T11:45:16Z</time>
      </trkpt>
      <trkpt lat="45.79348" lon="4.87099">
        <ele>195.1</ele>
        <time>2020-09-12T11:45:17Z</time>
      </trkpt>
      <trkpt lat="45.79343" lon="4.87095">
        <ele>195.1</ele>
        <time>2020-09-12T11:45:18Z</time>
      </trkpt>
      <trkpt lat="45.79338" lon="4.8709">
        <ele>195</ele>
        <time>2020-09-12T11:45:19Z</time>
      </trkpt>
      <trkpt lat="45.79333" lon="4.87086">
        <ele>194</ele>
        <time>2020-09-12T11:45:20Z</time>
      </trkpt>
      <trkpt lat="45.79328" lon="4.87082">
        <ele>194.2</ele>
        <time>2020-09-12T11:45:21Z</time>
      </trkpt>
      <trkpt lat="45.79323" lon="4.87077">
        <ele>193.5</ele>
        <time>2020-09-12T11:45:22Z</time>
      </trkpt>
      <trkpt lat="45.79317" lon="4.87072">
        <ele>192.7</ele>
        <time>2020-09-12T11:45:23Z</time>
      </trkpt>
      <trkpt lat="45.79312" lon="4.87065">
        <ele>192.2</ele>
        <time>2020-09-12T11:45:24Z</time>
      </trkpt>
      <trkpt lat="45.79307" lon="4.8706">
        <ele>191.8</ele>
        <time>2020-09-12T11:45:25Z</time>
      </trkpt>
      <trkpt lat="45.79302" lon="4.87053">
        <ele>191.5</ele>
        <time>2020-09-12T11:45:26Z</time>
      </trkpt>
      <trkpt lat="45.79297" lon="4.87047">
        <ele>191.4</ele>
        <time>2020-09-12T11:45:27Z</time>
      </trkpt>
      <trkpt lat="45.79293" lon="4.87039">
        <ele>191.3</ele>
        <time>2020-09-12T11:45:28Z</time>
      </trkpt>
      <trkpt lat="45.79289" lon="4.8703">
        <ele>191.2</ele>
        <time>2020-09-12T11:45:29Z</time>
      </trkpt>
      <trkpt lat="45.79285" lon="4.8702">
        <ele>191</ele>
        <time>2020-09-12T11:45:30Z</time>
      </trkpt>
      <trkpt lat="45.79282" lon="4.87009">
        <ele>190.7</ele>
        <time>2020-09-12T11:45:31Z</time>
      </trkpt>
      <trkpt lat="45.79278" lon="4.86998">
        <ele>194</ele>
        <time>2020-09-12T11:45:32Z</time>
      </trkpt>
      <trkpt lat="45.79276" lon="4.86987">
        <ele>194</ele>
        <time>2020-09-12T11:45:33Z</time>
      </trkpt>
      <trkpt lat="45.79272" lon="4.86976">
        <ele>194.3</ele>
        <time>2020-09-12T11:45:34Z</time>
      </trkpt>
      <trkpt lat="45.79269" lon="4.86962">
        <ele>194.8</ele>
        <time>2020-09-12T11:45:35Z</time>
      </trkpt>
      <trkpt lat="45.79266" lon="4.8695">
        <ele>194.7</ele>
        <time>2020-09-12T11:45:36Z</time>
      </trkpt>
      <trkpt lat="45.79264" lon="4.86938">
        <ele>194</ele>
        <time>2020-09-12T11:45:37Z</time>
      </trkpt>
      <trkpt lat="45.7926" lon="4.86925">
        <ele>192.1</ele>
        <time>2020-09-12T11:45:38Z</time>
      </trkpt>
      <trkpt lat="45.79257" lon="4.86911">
        <ele>191.8</ele>
        <time>2020-09-12T11:45:39Z</time>
      </trkpt>
      <trkpt lat="45.79253" lon="4.86897">
        <ele>194.3</ele>
        <time>2020-09-12T11:45:40Z</time>
      </trkpt>
      <trkpt lat="45.7925" lon="4.86884">
        <ele>184.3</ele>
        <time>2020-09-12T11:45:41Z</time>
      </trkpt>
      <trkpt lat="45.79247" lon="4.8687">
        <ele>184.1</ele>
        <time>2020-09-12T11:45:42Z</time>
      </trkpt>
      <trkpt lat="45.79243" lon="4.86856">
        <ele>184.5</ele>
        <time>2020-09-12T11:45:43Z</time>
      </trkpt>
      <trkpt lat="45.79238" lon="4.86842">
        <ele>185.2</ele>
        <time>2020-09-12T11:45:44Z</time>
      </trkpt>
      <trkpt lat="45.79234" lon="4.86827">
        <ele>186.6</ele>
        <time>2020-09-12T11:45:45Z</time>
      </trkpt>
      <trkpt lat="45.79231" lon="4.86813">
        <ele>186.5</ele>
        <time>2020-09-12T11:45:46Z</time>
      </trkpt>
      <trkpt lat="45.79228" lon="4.868">
        <ele>186.8</ele>
        <time>2020-09-12T11:45:47Z</time>
      </trkpt>
      <trkpt lat="45.79224" lon="4.86786">
        <ele>187.4</ele>
        <time>2020-09-12T11:45:48Z</time>
      </trkpt>
      <trkpt lat="45.79221" lon="4.86773">
        <ele>188</ele>
        <time>2020-09-12T11:45:49Z</time>
      </trkpt>
      <trkpt lat="45.79218" lon="4.86761">
        <ele>188.3</ele>
        <time>2020-09-12T11:45:50Z</time>
      </trkpt>
      <trkpt lat="45.79214" lon="4.8675">
        <ele>191.7</ele>
        <time>2020-09-12T11:45:51Z</time>
      </trkpt>
      <trkpt lat="45.79211" lon="4.86738">
        <ele>191.4</ele>
        <time>2020-09-12T11:45:52Z</time>
      </trkpt>
      <trkpt lat="45.79208" lon="4.86726">
        <ele>191.1</ele>
        <time>2020-09-12T11:45:53Z</time>
      </trkpt>
      <trkpt lat="45.79206" lon="4.86716">
        <ele>191</ele>
        <time>2020-09-12T11:45:54Z</time>
      </trkpt>
      <trkpt lat="45.79203" lon="4.86705">
        <ele>191</ele>
        <time>2020-09-12T11:45:55Z</time>
      </trkpt>
      <trkpt lat="45.792" lon="4.86694">
        <ele>190.8</ele>
        <time>2020-09-12T11:45:56Z</time>
      </trkpt>
      <trkpt lat="45.79197" lon="4.86684">
        <ele>190.5</ele>
        <time>2020-09-12T11:45:57Z</time>
      </trkpt>
      <trkpt lat="45.79196" lon="4.86674">
        <ele>190.2</ele>
        <time>2020-09-12T11:45:58Z</time>
      </trkpt>
      <trkpt lat="45.79194" lon="4.86664">
        <ele>190.8</ele>
        <time>2020-09-12T11:45:59Z</time>
      </trkpt>
      <trkpt lat="45.79191" lon="4.86653">
        <ele>190.7</ele>
        <time>2020-09-12T11:46:00Z</time>
      </trkpt>
      <trkpt lat="45.79189" lon="4.86642">
        <ele>191</ele>
        <time>2020-09-12T11:46:01Z</time>
      </trkpt>
      <trkpt lat="45.79187" lon="4.8663">
        <ele>191.1</ele>
        <time>2020-09-12T11:46:02Z</time>
      </trkpt>
      <trkpt lat="45.79185" lon="4.86619">
        <ele>191</ele>
        <time>2020-09-12T11:46:03Z</time>
      </trkpt>
      <trkpt lat="45.79184" lon="4.86607">
        <ele>190.5</ele>
        <time>2020-09-12T11:46:04Z</time>
      </trkpt>
      <trkpt lat="45.79181" lon="4.86596">
        <ele>189.4</ele>
        <time>2020-09-12T11:46:05Z</time>
      </trkpt>
      <trkpt lat="45.7918" lon="4.86587">
        <ele>188.5</ele>
        <time>2020-09-12T11:46:06Z</time>
      </trkpt>
      <trkpt lat="45.79179" lon="4.86576">
        <ele>188.2</ele>
        <time>2020-09-12T11:46:07Z</time>
      </trkpt>
      <trkpt lat="45.79178" lon="4.86565">
        <ele>188.8</ele>
        <time>2020-09-12T11:46:08Z</time>
      </trkpt>
      <trkpt lat="45.79177" lon="4.86554">
        <ele>189.4</ele>
        <time>2020-09-12T11:46:09Z</time>
      </trkpt>
      <trkpt lat="45.79176" lon="4.86544">
        <ele>189.5</ele>
        <time>2020-09-12T11:46:10Z</time>
      </trkpt>
      <trkpt lat="45.79174" lon="4.86533">
        <ele>189.3</ele>
        <time>2020-09-12T11:46:11Z</time>
      </trkpt>
      <trkpt lat="45.79175" lon="4.86523">
        <ele>188.8</ele>
        <time>2020-09-12T11:46:12Z</time>
      </trkpt>
      <trkpt lat="45.79174" lon="4.86512">
        <ele>187.7</ele>
        <time>2020-09-12T11:46:13Z</time>
      </trkpt>
      <trkpt lat="45.79173" lon="4.86502">
        <ele>186.6</ele>
        <time>2020-09-12T11:46:14Z</time>
      </trkpt>
      <trkpt lat="45.79173" lon="4.8649">
        <ele>187.7</ele>
        <time>2020-09-12T11:46:15Z</time>
      </trkpt>
      <trkpt lat="45.79172" lon="4.8648">
        <ele>189</ele>
        <time>2020-09-12T11:46:16Z</time>
      </trkpt>
      <trkpt lat="45.7917" lon="4.86469">
        <ele>189.8</ele>
        <time>2020-09-12T11:46:17Z</time>
      </trkpt>
      <trkpt lat="45.7917" lon="4.86458">
        <ele>190</ele>
        <time>2020-09-12T11:46:18Z</time>
      </trkpt>
      <trkpt lat="45.79167" lon="4.86447">
        <ele>189.8</ele>
        <time>2020-09-12T11:46:19Z</time>
      </trkpt>
      <trkpt lat="45.79166" lon="4.86438">
        <ele>182.4</ele>
        <time>2020-09-12T11:46:20Z</time>
      </trkpt>
      <trkpt lat="45.79165" lon="4.86427">
        <ele>183.4</ele>
        <time>2020-09-12T11:46:21Z</time>
      </trkpt>
      <trkpt lat="45.79163" lon="4.86416">
        <ele>184.3</ele>
        <time>2020-09-12T11:46:22Z</time>
      </trkpt>
      <trkpt lat="45.79162" lon="4.86405">
        <ele>183.1</ele>
        <time>2020-09-12T11:46:23Z</time>
      </trkpt>
      <trkpt lat="45.79161" lon="4.86395">
        <ele>182.4</ele>
        <time>2020-09-12T11:46:24Z</time>
      </trkpt>
      <trkpt lat="45.7916" lon="4.86385">
        <ele>181.9</ele>
        <time>2020-09-12T11:46:25Z</time>
      </trkpt>
      <trkpt lat="45.79157" lon="4.86374">
        <ele>181.6</ele>
        <time>2020-09-12T11:46:26Z</time>
      </trkpt>
      <trkpt lat="45.79155" lon="4.86364">
        <ele>181.6</ele>
        <time>2020-09-12T11:46:27Z</time>
      </trkpt>
      <trkpt lat="45.79154" lon="4.86353">
        <ele>181.9</ele>
        <time>2020-09-12T11:46:28Z</time>
      </trkpt>
      <trkpt lat="45.79153" lon="4.86344">
        <ele>182.1</ele>
        <time>2020-09-12T11:46:29Z</time>
      </trkpt>
      <trkpt lat="45.79151" lon="4.86334">
        <ele>182.2</ele>
        <time>2020-09-12T11:46:30Z</time>
      </trkpt>
      <trkpt lat="45.7915" lon="4.86327">
        <ele>182.3</ele>
        <time>2020-09-12T11:46:31Z</time>
      </trkpt>
      <trkpt lat="45.79149" lon="4.8632">
        <ele>182.1</ele>
        <time>2020-09-12T11:46:32Z</time>
      </trkpt>
      <trkpt lat="45.79148" lon="4.86313">
        <ele>181.9</ele>
        <time>2020-09-12T11:46:33Z</time>
      </trkpt>
      <trkpt lat="45.79144" lon="4.86304">
        <ele>181.7</ele>
        <time>2020-09-12T11:46:35Z</time>
      </trkpt>
      <trkpt lat="45.79144" lon="4.86293">
        <ele>181.6</ele>
        <time>2020-09-12T11:46:37Z</time>
      </trkpt>
      <trkpt lat="45.79142" lon="4.86286">
        <ele>181.6</ele>
        <time>2020-09-12T11:46:38Z</time>
      </trkpt>
      <trkpt lat="45.79142" lon="4.86277">
        <ele>181.7</ele>
        <time>2020-09-12T11:46:40Z</time>
      </trkpt>
      <trkpt lat="45.79141" lon="4.86271">
        <ele>181.8</ele>
        <time>2020-09-12T11:46:41Z</time>
      </trkpt>
      <trkpt lat="45.79141" lon="4.86259">
        <ele>181.9</ele>
        <time>2020-09-12T11:46:43Z</time>
      </trkpt>
      <trkpt lat="45.7914" lon="4.86248">
        <ele>181.9</ele>
        <time>2020-09-12T11:46:45Z</time>
      </trkpt>
      <trkpt lat="45.79139" lon="4.86236">
        <ele>181.7</ele>
        <time>2020-09-12T11:46:47Z</time>
      </trkpt>
      <trkpt lat="45.79137" lon="4.86224">
        <ele>181.5</ele>
        <time>2020-09-12T11:46:49Z</time>
      </trkpt>
      <trkpt lat="45.79136" lon="4.86212">
        <ele>181.4</ele>
        <time>2020-09-12T11:46:51Z</time>
      </trkpt>
      <trkpt lat="45.79135" lon="4.862">
        <ele>181.2</ele>
        <time>2020-09-12T11:46:53Z</time>
      </trkpt>
      <trkpt lat="45.79133" lon="4.86188">
        <ele>181.2</ele>
        <time>2020-09-12T11:46:55Z</time>
      </trkpt>
      <trkpt lat="45.79132" lon="4.86176">
        <ele>181.1</ele>
        <time>2020-09-12T11:46:57Z</time>
      </trkpt>
      <trkpt lat="45.7913" lon="4.86165">
        <ele>181.5</ele>
        <time>2020-09-12T11:46:59Z</time>
      </trkpt>
      <trkpt lat="45.79129" lon="4.86157">
        <ele>181.5</ele>
        <time>2020-09-12T11:47:01Z</time>
      </trkpt>
      <trkpt lat="45.79128" lon="4.86147">
        <ele>181.6</ele>
        <time>2020-09-12T11:47:03Z</time>
      </trkpt>
      <trkpt lat="45.79128" lon="4.86135">
        <ele>181.7</ele>
        <time>2020-09-12T11:47:05Z</time>
      </trkpt>
      <trkpt lat="45.79126" lon="4.86129">
        <ele>181.7</ele>
        <time>2020-09-12T11:47:06Z</time>
      </trkpt>
      <trkpt lat="45.79125" lon="4.86116">
        <ele>181.9</ele>
        <time>2020-09-12T11:47:08Z</time>
      </trkpt>
      <trkpt lat="45.79125" lon="4.86105">
        <ele>182</ele>
        <time>2020-09-12T11:47:10Z</time>
      </trkpt>
      <trkpt lat="45.79125" lon="4.86097">
        <ele>182.1</ele>
        <time>2020-09-12T11:47:12Z</time>
      </trkpt>
      <trkpt lat="45.79125" lon="4.8609">
        <ele>182.2</ele>
        <time>2020-09-12T11:47:15Z</time>
      </trkpt>
      <trkpt lat="45.79125" lon="4.86076">
        <ele>183.5</ele>
        <time>2020-09-12T11:47:25Z</time>
      </trkpt>
      <trkpt lat="45.79125" lon="4.86067">
        <ele>183.5</ele>
        <time>2020-09-12T11:47:27Z</time>
      </trkpt>
      <trkpt lat="45.79125" lon="4.8606">
        <ele>183.6</ele>
        <time>2020-09-12T11:47:29Z</time>
      </trkpt>
      <trkpt lat="45.7912" lon="4.86056">
        <ele>183.5</ele>
        <time>2020-09-12T11:47:36Z</time>
      </trkpt>
      <trkpt lat="45.79117" lon="4.86046">
        <ele>183.5</ele>
        <time>2020-09-12T11:47:40Z</time>
      </trkpt>
      <trkpt lat="45.79115" lon="4.86036">
        <ele>183.6</ele>
        <time>2020-09-12T11:47:42Z</time>
      </trkpt>
      <trkpt lat="45.79113" lon="4.8603">
        <ele>183.6</ele>
        <time>2020-09-12T11:47:43Z</time>
      </trkpt>
      <trkpt lat="45.79111" lon="4.86022">
        <ele>183.6</ele>
        <time>2020-09-12T11:47:44Z</time>
      </trkpt>
      <trkpt lat="45.79109" lon="4.86015">
        <ele>183.6</ele>
        <time>2020-09-12T11:47:45Z</time>
      </trkpt>
      <trkpt lat="45.79107" lon="4.86006">
        <ele>183.6</ele>
        <time>2020-09-12T11:47:46Z</time>
      </trkpt>
      <trkpt lat="45.79104" lon="4.85998">
        <ele>185.8</ele>
        <time>2020-09-12T11:47:47Z</time>
      </trkpt>
      <trkpt lat="45.79102" lon="4.85989">
        <ele>185.9</ele>
        <time>2020-09-12T11:47:48Z</time>
      </trkpt>
      <trkpt lat="45.791" lon="4.85981">
        <ele>186.3</ele>
        <time>2020-09-12T11:47:49Z</time>
      </trkpt>
      <trkpt lat="45.79097" lon="4.85971">
        <ele>186.8</ele>
        <time>2020-09-12T11:47:50Z</time>
      </trkpt>
      <trkpt lat="45.79093" lon="4.85962">
        <ele>187.2</ele>
        <time>2020-09-12T11:47:51Z</time>
      </trkpt>
      <trkpt lat="45.79088" lon="4.85951">
        <ele>187.6</ele>
        <time>2020-09-12T11:47:52Z</time>
      </trkpt>
      <trkpt lat="45.79084" lon="4.85943">
        <ele>187.8</ele>
        <time>2020-09-12T11:47:53Z</time>
      </trkpt>
      <trkpt lat="45.79081" lon="4.85934">
        <ele>185.9</ele>
        <time>2020-09-12T11:47:54Z</time>
      </trkpt>
      <trkpt lat="45.79078" lon="4.85926">
        <ele>186.6</ele>
        <time>2020-09-12T11:47:55Z</time>
      </trkpt>
      <trkpt lat="45.79075" lon="4.85917">
        <ele>186.8</ele>
        <time>2020-09-12T11:47:56Z</time>
      </trkpt>
      <trkpt lat="45.79073" lon="4.85908">
        <ele>186.9</ele>
        <time>2020-09-12T11:47:57Z</time>
      </trkpt>
      <trkpt lat="45.7907" lon="4.85901">
        <ele>186.6</ele>
        <time>2020-09-12T11:47:58Z</time>
      </trkpt>
      <trkpt lat="45.79068" lon="4.85893">
        <ele>186.4</ele>
        <time>2020-09-12T11:47:59Z</time>
      </trkpt>
      <trkpt lat="45.79067" lon="4.85886">
        <ele>186.4</ele>
        <time>2020-09-12T11:48:00Z</time>
      </trkpt>
      <trkpt lat="45.79063" lon="4.85877">
        <ele>186.3</ele>
        <time>2020-09-12T11:48:01Z</time>
      </trkpt>
      <trkpt lat="45.79061" lon="4.85869">
        <ele>186.3</ele>
        <time>2020-09-12T11:48:02Z</time>
      </trkpt>
      <trkpt lat="45.79059" lon="4.85861">
        <ele>186.3</ele>
        <time>2020-09-12T11:48:03Z</time>
      </trkpt>
      <trkpt lat="45.79055" lon="4.85851">
        <ele>186.3</ele>
        <time>2020-09-12T11:48:04Z</time>
      </trkpt>
      <trkpt lat="45.79053" lon="4.85845">
        <ele>186.2</ele>
        <time>2020-09-12T11:48:05Z</time>
      </trkpt>
      <trkpt lat="45.79049" lon="4.85834">
        <ele>185.9</ele>
        <time>2020-09-12T11:48:07Z</time>
      </trkpt>
      <trkpt lat="45.79045" lon="4.85823">
        <ele>187</ele>
        <time>2020-09-12T11:48:09Z</time>
      </trkpt>
      <trkpt lat="45.79041" lon="4.85814">
        <ele>186.8</ele>
        <time>2020-09-12T11:48:11Z</time>
      </trkpt>
      <trkpt lat="45.79037" lon="4.85803">
        <ele>186.8</ele>
        <time>2020-09-12T11:48:13Z</time>
      </trkpt>
      <trkpt lat="45.79033" lon="4.85797">
        <ele>186.7</ele>
        <time>2020-09-12T11:48:14Z</time>
      </trkpt>
      <trkpt lat="45.7903" lon="4.8579">
        <ele>186.7</ele>
        <time>2020-09-12T11:48:15Z</time>
      </trkpt>
      <trkpt lat="45.79027" lon="4.85785">
        <ele>186.6</ele>
        <time>2020-09-12T11:48:16Z</time>
      </trkpt>
      <trkpt lat="45.79025" lon="4.85779">
        <ele>186.5</ele>
        <time>2020-09-12T11:48:17Z</time>
      </trkpt>
      <trkpt lat="45.79022" lon="4.85774">
        <ele>186.3</ele>
        <time>2020-09-12T11:48:18Z</time>
      </trkpt>
      <trkpt lat="45.7902" lon="4.85766">
        <ele>186</ele>
        <time>2020-09-12T11:48:19Z</time>
      </trkpt>
      <trkpt lat="45.79019" lon="4.85758">
        <ele>185.8</ele>
        <time>2020-09-12T11:48:20Z</time>
      </trkpt>
      <trkpt lat="45.79017" lon="4.85751">
        <ele>185.5</ele>
        <time>2020-09-12T11:48:21Z</time>
      </trkpt>
      <trkpt lat="45.79012" lon="4.8574">
        <ele>187.7</ele>
        <time>2020-09-12T11:48:23Z</time>
      </trkpt>
      <trkpt lat="45.7901" lon="4.85732">
        <ele>188.4</ele>
        <time>2020-09-12T11:48:24Z</time>
      </trkpt>
      <trkpt lat="45.79007" lon="4.85721">
        <ele>189.5</ele>
        <time>2020-09-12T11:48:26Z</time>
      </trkpt>
      <trkpt lat="45.79009" lon="4.85713">
        <ele>190.1</ele>
        <time>2020-09-12T11:48:30Z</time>
      </trkpt>
      <trkpt lat="45.79007" lon="4.85707">
        <ele>190.3</ele>
        <time>2020-09-12T11:48:33Z</time>
      </trkpt>
      <trkpt lat="45.79005" lon="4.85699">
        <ele>190.3</ele>
        <time>2020-09-12T11:48:36Z</time>
      </trkpt>
      <trkpt lat="45.79005" lon="4.85693">
        <ele>190.1</ele>
        <time>2020-09-12T11:48:38Z</time>
      </trkpt>
      <trkpt lat="45.79003" lon="4.85686">
        <ele>189.5</ele>
        <time>2020-09-12T11:48:40Z</time>
      </trkpt>
      <trkpt lat="45.79001" lon="4.85679">
        <ele>188.6</ele>
        <time>2020-09-12T11:48:43Z</time>
      </trkpt>
      <trkpt lat="45.78997" lon="4.8567">
        <ele>184.8</ele>
        <time>2020-09-12T11:48:46Z</time>
      </trkpt>
      <trkpt lat="45.78992" lon="4.8566">
        <ele>185.2</ele>
        <time>2020-09-12T11:48:48Z</time>
      </trkpt>
      <trkpt lat="45.78989" lon="4.85654">
        <ele>184.9</ele>
        <time>2020-09-12T11:48:49Z</time>
      </trkpt>
      <trkpt lat="45.78985" lon="4.85647">
        <ele>184.6</ele>
        <time>2020-09-12T11:48:50Z</time>
      </trkpt>
      <trkpt lat="45.78983" lon="4.8564">
        <ele>184.6</ele>
        <time>2020-09-12T11:48:51Z</time>
      </trkpt>
      <trkpt lat="45.7898" lon="4.85633">
        <ele>184.6</ele>
        <time>2020-09-12T11:48:52Z</time>
      </trkpt>
      <trkpt lat="45.78975" lon="4.85619">
        <ele>184.9</ele>
        <time>2020-09-12T11:48:54Z</time>
      </trkpt>
      <trkpt lat="45.78972" lon="4.85612">
        <ele>185.1</ele>
        <time>2020-09-12T11:48:55Z</time>
      </trkpt>
      <trkpt lat="45.78969" lon="4.85603">
        <ele>185.3</ele>
        <time>2020-09-12T11:48:56Z</time>
      </trkpt>
      <trkpt lat="45.78966" lon="4.85595">
        <ele>185.3</ele>
        <time>2020-09-12T11:48:57Z</time>
      </trkpt>
      <trkpt lat="45.78962" lon="4.85586">
        <ele>185</ele>
        <time>2020-09-12T11:48:58Z</time>
      </trkpt>
      <trkpt lat="45.78958" lon="4.85577">
        <ele>189.7</ele>
        <time>2020-09-12T11:48:59Z</time>
      </trkpt>
      <trkpt lat="45.78956" lon="4.85567">
        <ele>189.8</ele>
        <time>2020-09-12T11:49:00Z</time>
      </trkpt>
      <trkpt lat="45.78951" lon="4.85558">
        <ele>189.8</ele>
        <time>2020-09-12T11:49:01Z</time>
      </trkpt>
      <trkpt lat="45.78948" lon="4.8555">
        <ele>190</ele>
        <time>2020-09-12T11:49:02Z</time>
      </trkpt>
      <trkpt lat="45.78945" lon="4.85539">
        <ele>190.3</ele>
        <time>2020-09-12T11:49:03Z</time>
      </trkpt>
      <trkpt lat="45.7894" lon="4.85531">
        <ele>190.2</ele>
        <time>2020-09-12T11:49:04Z</time>
      </trkpt>
      <trkpt lat="45.78938" lon="4.85521">
        <ele>190.1</ele>
        <time>2020-09-12T11:49:05Z</time>
      </trkpt>
      <trkpt lat="45.78933" lon="4.85513">
        <ele>189.4</ele>
        <time>2020-09-12T11:49:06Z</time>
      </trkpt>
      <trkpt lat="45.7893" lon="4.85503">
        <ele>188.6</ele>
        <time>2020-09-12T11:49:07Z</time>
      </trkpt>
      <trkpt lat="45.78927" lon="4.85495">
        <ele>190.9</ele>
        <time>2020-09-12T11:49:08Z</time>
      </trkpt>
      <trkpt lat="45.78923" lon="4.85487">
        <ele>192.1</ele>
        <time>2020-09-12T11:49:09Z</time>
      </trkpt>
      <trkpt lat="45.78921" lon="4.85477">
        <ele>193.8</ele>
        <time>2020-09-12T11:49:10Z</time>
      </trkpt>
      <trkpt lat="45.78917" lon="4.8547">
        <ele>194.6</ele>
        <time>2020-09-12T11:49:11Z</time>
      </trkpt>
      <trkpt lat="45.78914" lon="4.8546">
        <ele>185</ele>
        <time>2020-09-12T11:49:12Z</time>
      </trkpt>
      <trkpt lat="45.7891" lon="4.85451">
        <ele>185.4</ele>
        <time>2020-09-12T11:49:13Z</time>
      </trkpt>
      <trkpt lat="45.78907" lon="4.85442">
        <ele>186</ele>
        <time>2020-09-12T11:49:14Z</time>
      </trkpt>
      <trkpt lat="45.78905" lon="4.85433">
        <ele>186.8</ele>
        <time>2020-09-12T11:49:15Z</time>
      </trkpt>
      <trkpt lat="45.78902" lon="4.85425">
        <ele>187.3</ele>
        <time>2020-09-12T11:49:16Z</time>
      </trkpt>
      <trkpt lat="45.78899" lon="4.85415">
        <ele>188.7</ele>
        <time>2020-09-12T11:49:17Z</time>
      </trkpt>
      <trkpt lat="45.78892" lon="4.85407">
        <ele>187.5</ele>
        <time>2020-09-12T11:49:18Z</time>
      </trkpt>
      <trkpt lat="45.78885" lon="4.85388">
        <ele>186.6</ele>
        <time>2020-09-12T11:49:20Z</time>
      </trkpt>
      <trkpt lat="45.78882" lon="4.8538">
        <ele>186.4</ele>
        <time>2020-09-12T11:49:21Z</time>
      </trkpt>
      <trkpt lat="45.78877" lon="4.85371">
        <ele>186.1</ele>
        <time>2020-09-12T11:49:22Z</time>
      </trkpt>
      <trkpt lat="45.78869" lon="4.8536">
        <ele>185.2</ele>
        <time>2020-09-12T11:49:23Z</time>
      </trkpt>
      <trkpt lat="45.78869" lon="4.85352">
        <ele>185.1</ele>
        <time>2020-09-12T11:49:24Z</time>
      </trkpt>
      <trkpt lat="45.78865" lon="4.85342">
        <ele>184.5</ele>
        <time>2020-09-12T11:49:25Z</time>
      </trkpt>
      <trkpt lat="45.78864" lon="4.85333">
        <ele>186</ele>
        <time>2020-09-12T11:49:26Z</time>
      </trkpt>
      <trkpt lat="45.78861" lon="4.85328">
        <ele>185.4</ele>
        <time>2020-09-12T11:49:27Z</time>
      </trkpt>
      <trkpt lat="45.78857" lon="4.85322">
        <ele>185.1</ele>
        <time>2020-09-12T11:49:28Z</time>
      </trkpt>
      <trkpt lat="45.78856" lon="4.85315">
        <ele>185.3</ele>
        <time>2020-09-12T11:49:29Z</time>
      </trkpt>
      <trkpt lat="45.78854" lon="4.85308">
        <ele>185.6</ele>
        <time>2020-09-12T11:49:30Z</time>
      </trkpt>
      <trkpt lat="45.78851" lon="4.85301">
        <ele>185.9</ele>
        <time>2020-09-12T11:49:31Z</time>
      </trkpt>
      <trkpt lat="45.78848" lon="4.85294">
        <ele>186</ele>
        <time>2020-09-12T11:49:32Z</time>
      </trkpt>
      <trkpt lat="45.78846" lon="4.85284">
        <ele>186.1</ele>
        <time>2020-09-12T11:49:33Z</time>
      </trkpt>
      <trkpt lat="45.78844" lon="4.85276">
        <ele>185.9</ele>
        <time>2020-09-12T11:49:34Z</time>
      </trkpt>
      <trkpt lat="45.78838" lon="4.85273">
        <ele>185.4</ele>
        <time>2020-09-12T11:49:35Z</time>
      </trkpt>
      <trkpt lat="45.7883" lon="4.85264">
        <ele>178.8</ele>
        <time>2020-09-12T11:49:37Z</time>
      </trkpt>
      <trkpt lat="45.78827" lon="4.85258">
        <ele>179.5</ele>
        <time>2020-09-12T11:49:38Z</time>
      </trkpt>
      <trkpt lat="45.78821" lon="4.85247">
        <ele>181.4</ele>
        <time>2020-09-12T11:49:40Z</time>
      </trkpt>
      <trkpt lat="45.78817" lon="4.85241">
        <ele>181.2</ele>
        <time>2020-09-12T11:49:41Z</time>
      </trkpt>
      <trkpt lat="45.78811" lon="4.85234">
        <ele>181</ele>
        <time>2020-09-12T11:49:42Z</time>
      </trkpt>
      <trkpt lat="45.78807" lon="4.85226">
        <ele>180.9</ele>
        <time>2020-09-12T11:49:43Z</time>
      </trkpt>
      <trkpt lat="45.78803" lon="4.85218">
        <ele>181</ele>
        <time>2020-09-12T11:49:44Z</time>
      </trkpt>
      <trkpt lat="45.788" lon="4.85211">
        <ele>181.1</ele>
        <time>2020-09-12T11:49:45Z</time>
      </trkpt>
      <trkpt lat="45.78796" lon="4.85204">
        <ele>181.1</ele>
        <time>2020-09-12T11:49:46Z</time>
      </trkpt>
      <trkpt lat="45.78792" lon="4.85197">
        <ele>181.1</ele>
        <time>2020-09-12T11:49:47Z</time>
      </trkpt>
      <trkpt lat="45.78787" lon="4.85188">
        <ele>180.8</ele>
        <time>2020-09-12T11:49:48Z</time>
      </trkpt>
      <trkpt lat="45.78783" lon="4.85182">
        <ele>180.3</ele>
        <time>2020-09-12T11:49:49Z</time>
      </trkpt>
      <trkpt lat="45.78779" lon="4.85175">
        <ele>179.8</ele>
        <time>2020-09-12T11:49:50Z</time>
      </trkpt>
      <trkpt lat="45.78775" lon="4.85168">
        <ele>179.1</ele>
        <time>2020-09-12T11:49:51Z</time>
      </trkpt>
      <trkpt lat="45.7877" lon="4.85162">
        <ele>183.8</ele>
        <time>2020-09-12T11:49:52Z</time>
      </trkpt>
      <trkpt lat="45.78768" lon="4.85152">
        <ele>184.6</ele>
        <time>2020-09-12T11:49:53Z</time>
      </trkpt>
      <trkpt lat="45.78762" lon="4.85145">
        <ele>185</ele>
        <time>2020-09-12T11:49:54Z</time>
      </trkpt>
      <trkpt lat="45.78758" lon="4.85137">
        <ele>186.2</ele>
        <time>2020-09-12T11:49:55Z</time>
      </trkpt>
      <trkpt lat="45.78753" lon="4.85131">
        <ele>187</ele>
        <time>2020-09-12T11:49:56Z</time>
      </trkpt>
      <trkpt lat="45.78748" lon="4.85122">
        <ele>178.1</ele>
        <time>2020-09-12T11:49:57Z</time>
      </trkpt>
      <trkpt lat="45.78743" lon="4.85114">
        <ele>179.2</ele>
        <time>2020-09-12T11:49:58Z</time>
      </trkpt>
      <trkpt lat="45.7874" lon="4.85106">
        <ele>180.2</ele>
        <time>2020-09-12T11:49:59Z</time>
      </trkpt>
      <trkpt lat="45.78734" lon="4.85098">
        <ele>180.9</ele>
        <time>2020-09-12T11:50:00Z</time>
      </trkpt>
      <trkpt lat="45.78729" lon="4.85091">
        <ele>180.9</ele>
        <time>2020-09-12T11:50:01Z</time>
      </trkpt>
      <trkpt lat="45.78724" lon="4.85083">
        <ele>187.6</ele>
        <time>2020-09-12T11:50:02Z</time>
      </trkpt>
      <trkpt lat="45.78719" lon="4.85075">
        <ele>187.4</ele>
        <time>2020-09-12T11:50:03Z</time>
      </trkpt>
      <trkpt lat="45.78715" lon="4.85067">
        <ele>187.3</ele>
        <time>2020-09-12T11:50:04Z</time>
      </trkpt>
      <trkpt lat="45.7871" lon="4.85061">
        <ele>187.1</ele>
        <time>2020-09-12T11:50:05Z</time>
      </trkpt>
      <trkpt lat="45.78705" lon="4.85053">
        <ele>187.1</ele>
        <time>2020-09-12T11:50:06Z</time>
      </trkpt>
      <trkpt lat="45.78701" lon="4.85046">
        <ele>187.1</ele>
        <time>2020-09-12T11:50:07Z</time>
      </trkpt>
      <trkpt lat="45.78696" lon="4.85038">
        <ele>187.1</ele>
        <time>2020-09-12T11:50:08Z</time>
      </trkpt>
      <trkpt lat="45.78691" lon="4.8503">
        <ele>187.1</ele>
        <time>2020-09-12T11:50:09Z</time>
      </trkpt>
      <trkpt lat="45.78685" lon="4.85021">
        <ele>186.5</ele>
        <time>2020-09-12T11:50:10Z</time>
      </trkpt>
      <trkpt lat="45.7868" lon="4.85013">
        <ele>185.7</ele>
        <time>2020-09-12T11:50:11Z</time>
      </trkpt>
      <trkpt lat="45.78675" lon="4.85005">
        <ele>184.3</ele>
        <time>2020-09-12T11:50:12Z</time>
      </trkpt>
      <trkpt lat="45.7867" lon="4.84998">
        <ele>184.7</ele>
        <time>2020-09-12T11:50:13Z</time>
      </trkpt>
      <trkpt lat="45.78667" lon="4.8499">
        <ele>187.6</ele>
        <time>2020-09-12T11:50:14Z</time>
      </trkpt>
      <trkpt lat="45.78663" lon="4.84983">
        <ele>179.7</ele>
        <time>2020-09-12T11:50:15Z</time>
      </trkpt>
      <trkpt lat="45.78659" lon="4.84976">
        <ele>179.2</ele>
        <time>2020-09-12T11:50:16Z</time>
      </trkpt>
      <trkpt lat="45.78655" lon="4.84968">
        <ele>178.9</ele>
        <time>2020-09-12T11:50:17Z</time>
      </trkpt>
      <trkpt lat="45.78651" lon="4.84961">
        <ele>178.9</ele>
        <time>2020-09-12T11:50:18Z</time>
      </trkpt>
      <trkpt lat="45.78648" lon="4.84952">
        <ele>179</ele>
        <time>2020-09-12T11:50:19Z</time>
      </trkpt>
      <trkpt lat="45.78642" lon="4.84945">
        <ele>178.9</ele>
        <time>2020-09-12T11:50:20Z</time>
      </trkpt>
      <trkpt lat="45.78637" lon="4.84936">
        <ele>178.9</ele>
        <time>2020-09-12T11:50:21Z</time>
      </trkpt>
      <trkpt lat="45.78632" lon="4.84928">
        <ele>178.6</ele>
        <time>2020-09-12T11:50:22Z</time>
      </trkpt>
      <trkpt lat="45.78628" lon="4.84919">
        <ele>178.2</ele>
        <time>2020-09-12T11:50:23Z</time>
      </trkpt>
      <trkpt lat="45.78623" lon="4.8491">
        <ele>182.7</ele>
        <time>2020-09-12T11:50:24Z</time>
      </trkpt>
      <trkpt lat="45.78618" lon="4.84902">
        <ele>182.3</ele>
        <time>2020-09-12T11:50:25Z</time>
      </trkpt>
      <trkpt lat="45.78613" lon="4.84894">
        <ele>182.3</ele>
        <time>2020-09-12T11:50:26Z</time>
      </trkpt>
      <trkpt lat="45.7861" lon="4.84885">
        <ele>182.6</ele>
        <time>2020-09-12T11:50:27Z</time>
      </trkpt>
      <trkpt lat="45.78606" lon="4.84874">
        <ele>183</ele>
        <time>2020-09-12T11:50:28Z</time>
      </trkpt>
      <trkpt lat="45.78603" lon="4.84865">
        <ele>183.3</ele>
        <time>2020-09-12T11:50:29Z</time>
      </trkpt>
      <trkpt lat="45.786" lon="4.84854">
        <ele>183.4</ele>
        <time>2020-09-12T11:50:30Z</time>
      </trkpt>
      <trkpt lat="45.78597" lon="4.84844">
        <ele>183.1</ele>
        <time>2020-09-12T11:50:31Z</time>
      </trkpt>
      <trkpt lat="45.78593" lon="4.84836">
        <ele>182.4</ele>
        <time>2020-09-12T11:50:32Z</time>
      </trkpt>
      <trkpt lat="45.78589" lon="4.84828">
        <ele>185</ele>
        <time>2020-09-12T11:50:33Z</time>
      </trkpt>
      <trkpt lat="45.78585" lon="4.8482">
        <ele>187</ele>
        <time>2020-09-12T11:50:34Z</time>
      </trkpt>
      <trkpt lat="45.78582" lon="4.84813">
        <ele>178.2</ele>
        <time>2020-09-12T11:50:35Z</time>
      </trkpt>
      <trkpt lat="45.78579" lon="4.84806">
        <ele>177.8</ele>
        <time>2020-09-12T11:50:36Z</time>
      </trkpt>
      <trkpt lat="45.78576" lon="4.84798">
        <ele>177.6</ele>
        <time>2020-09-12T11:50:37Z</time>
      </trkpt>
      <trkpt lat="45.78572" lon="4.84792">
        <ele>177.5</ele>
        <time>2020-09-12T11:50:38Z</time>
      </trkpt>
      <trkpt lat="45.78569" lon="4.84785">
        <ele>177.6</ele>
        <time>2020-09-12T11:50:39Z</time>
      </trkpt>
      <trkpt lat="45.78565" lon="4.8478">
        <ele>177.5</ele>
        <time>2020-09-12T11:50:40Z</time>
      </trkpt>
      <trkpt lat="45.78561" lon="4.84772">
        <ele>177.7</ele>
        <time>2020-09-12T11:50:41Z</time>
      </trkpt>
      <trkpt lat="45.78558" lon="4.84767">
        <ele>177.6</ele>
        <time>2020-09-12T11:50:42Z</time>
      </trkpt>
      <trkpt lat="45.78553" lon="4.84759">
        <ele>177</ele>
        <time>2020-09-12T11:50:43Z</time>
      </trkpt>
      <trkpt lat="45.78548" lon="4.84751">
        <ele>176.4</ele>
        <time>2020-09-12T11:50:44Z</time>
      </trkpt>
      <trkpt lat="45.78545" lon="4.84744">
        <ele>179.2</ele>
        <time>2020-09-12T11:50:45Z</time>
      </trkpt>
      <trkpt lat="45.7854" lon="4.84738">
        <ele>178.7</ele>
        <time>2020-09-12T11:50:46Z</time>
      </trkpt>
      <trkpt lat="45.78536" lon="4.84729">
        <ele>178.5</ele>
        <time>2020-09-12T11:50:47Z</time>
      </trkpt>
      <trkpt lat="45.78531" lon="4.84722">
        <ele>178.3</ele>
        <time>2020-09-12T11:50:48Z</time>
      </trkpt>
      <trkpt lat="45.78526" lon="4.84716">
        <ele>178.1</ele>
        <time>2020-09-12T11:50:49Z</time>
      </trkpt>
      <trkpt lat="45.78523" lon="4.84708">
        <ele>178.3</ele>
        <time>2020-09-12T11:50:50Z</time>
      </trkpt>
      <trkpt lat="45.78518" lon="4.84702">
        <ele>178.2</ele>
        <time>2020-09-12T11:50:51Z</time>
      </trkpt>
      <trkpt lat="45.78514" lon="4.84695">
        <ele>178.2</ele>
        <time>2020-09-12T11:50:52Z</time>
      </trkpt>
      <trkpt lat="45.7851" lon="4.84687">
        <ele>178.1</ele>
        <time>2020-09-12T11:50:53Z</time>
      </trkpt>
      <trkpt lat="45.78506" lon="4.84679">
        <ele>177.6</ele>
        <time>2020-09-12T11:50:54Z</time>
      </trkpt>
      <trkpt lat="45.78501" lon="4.84671">
        <ele>176.6</ele>
        <time>2020-09-12T11:50:55Z</time>
      </trkpt>
      <trkpt lat="45.78497" lon="4.84662">
        <ele>176</ele>
        <time>2020-09-12T11:50:56Z</time>
      </trkpt>
      <trkpt lat="45.78491" lon="4.84654">
        <ele>176.1</ele>
        <time>2020-09-12T11:50:57Z</time>
      </trkpt>
      <trkpt lat="45.78485" lon="4.8465">
        <ele>176.1</ele>
        <time>2020-09-12T11:50:58Z</time>
      </trkpt>
      <trkpt lat="45.78481" lon="4.84642">
        <ele>176.3</ele>
        <time>2020-09-12T11:50:59Z</time>
      </trkpt>
      <trkpt lat="45.78475" lon="4.84635">
        <ele>176.4</ele>
        <time>2020-09-12T11:51:00Z</time>
      </trkpt>
      <trkpt lat="45.7847" lon="4.84628">
        <ele>176.6</ele>
        <time>2020-09-12T11:51:01Z</time>
      </trkpt>
      <trkpt lat="45.78466" lon="4.84622">
        <ele>176.7</ele>
        <time>2020-09-12T11:51:02Z</time>
      </trkpt>
      <trkpt lat="45.78462" lon="4.84615">
        <ele>176.9</ele>
        <time>2020-09-12T11:51:03Z</time>
      </trkpt>
      <trkpt lat="45.78457" lon="4.84607">
        <ele>176.9</ele>
        <time>2020-09-12T11:51:04Z</time>
      </trkpt>
      <trkpt lat="45.78452" lon="4.84601">
        <ele>176.8</ele>
        <time>2020-09-12T11:51:05Z</time>
      </trkpt>
      <trkpt lat="45.78447" lon="4.84594">
        <ele>176.7</ele>
        <time>2020-09-12T11:51:06Z</time>
      </trkpt>
      <trkpt lat="45.78444" lon="4.84587">
        <ele>176.5</ele>
        <time>2020-09-12T11:51:07Z</time>
      </trkpt>
      <trkpt lat="45.78439" lon="4.84581">
        <ele>180.4</ele>
        <time>2020-09-12T11:51:08Z</time>
      </trkpt>
      <trkpt lat="45.78435" lon="4.84576">
        <ele>180</ele>
        <time>2020-09-12T11:51:09Z</time>
      </trkpt>
      <trkpt lat="45.78431" lon="4.8457">
        <ele>179.9</ele>
        <time>2020-09-12T11:51:10Z</time>
      </trkpt>
      <trkpt lat="45.78426" lon="4.84564">
        <ele>180.1</ele>
        <time>2020-09-12T11:51:11Z</time>
      </trkpt>
      <trkpt lat="45.7842" lon="4.84557">
        <ele>180.6</ele>
        <time>2020-09-12T11:51:12Z</time>
      </trkpt>
      <trkpt lat="45.78415" lon="4.84551">
        <ele>173.9</ele>
        <time>2020-09-12T11:51:13Z</time>
      </trkpt>
      <trkpt lat="45.78411" lon="4.84546">
        <ele>174</ele>
        <time>2020-09-12T11:51:14Z</time>
      </trkpt>
      <trkpt lat="45.78407" lon="4.8454">
        <ele>174.1</ele>
        <time>2020-09-12T11:51:15Z</time>
      </trkpt>
      <trkpt lat="45.78402" lon="4.84534">
        <ele>174.2</ele>
        <time>2020-09-12T11:51:16Z</time>
      </trkpt>
      <trkpt lat="45.78399" lon="4.84528">
        <ele>174.3</ele>
        <time>2020-09-12T11:51:17Z</time>
      </trkpt>
      <trkpt lat="45.78394" lon="4.84522">
        <ele>174.3</ele>
        <time>2020-09-12T11:51:18Z</time>
      </trkpt>
      <trkpt lat="45.7839" lon="4.84516">
        <ele>174.2</ele>
        <time>2020-09-12T11:51:19Z</time>
      </trkpt>
      <trkpt lat="45.78386" lon="4.84511">
        <ele>173.8</ele>
        <time>2020-09-12T11:51:20Z</time>
      </trkpt>
      <trkpt lat="45.78381" lon="4.84506">
        <ele>173.4</ele>
        <time>2020-09-12T11:51:21Z</time>
      </trkpt>
      <trkpt lat="45.78376" lon="4.84501">
        <ele>172.7</ele>
        <time>2020-09-12T11:51:22Z</time>
      </trkpt>
      <trkpt lat="45.78371" lon="4.84497">
        <ele>179.4</ele>
        <time>2020-09-12T11:51:23Z</time>
      </trkpt>
      <trkpt lat="45.78367" lon="4.84495">
        <ele>178.8</ele>
        <time>2020-09-12T11:51:24Z</time>
      </trkpt>
      <trkpt lat="45.7836" lon="4.84489">
        <ele>178</ele>
        <time>2020-09-12T11:51:26Z</time>
      </trkpt>
      <trkpt lat="45.78353" lon="4.84486">
        <ele>177</ele>
        <time>2020-09-12T11:51:28Z</time>
      </trkpt>
      <trkpt lat="45.7835" lon="4.8448">
        <ele>177.7</ele>
        <time>2020-09-12T11:51:32Z</time>
      </trkpt>
      <trkpt lat="45.78346" lon="4.84475">
        <ele>178.4</ele>
        <time>2020-09-12T11:51:34Z</time>
      </trkpt>
      <trkpt lat="45.78342" lon="4.84468">
        <ele>179.7</ele>
        <time>2020-09-12T11:51:36Z</time>
      </trkpt>
      <trkpt lat="45.78337" lon="4.84461">
        <ele>181.2</ele>
        <time>2020-09-12T11:51:38Z</time>
      </trkpt>
      <trkpt lat="45.7833" lon="4.84453">
        <ele>175.7</ele>
        <time>2020-09-12T11:51:40Z</time>
      </trkpt>
      <trkpt lat="45.78324" lon="4.84451">
        <ele>175.9</ele>
        <time>2020-09-12T11:51:41Z</time>
      </trkpt>
      <trkpt lat="45.78317" lon="4.8444">
        <ele>177.6</ele>
        <time>2020-09-12T11:51:43Z</time>
      </trkpt>
      <trkpt lat="45.78312" lon="4.84431">
        <ele>178.2</ele>
        <time>2020-09-12T11:51:45Z</time>
      </trkpt>
      <trkpt lat="45.78305" lon="4.84424">
        <ele>177.4</ele>
        <time>2020-09-12T11:51:47Z</time>
      </trkpt>
      <trkpt lat="45.783" lon="4.84419">
        <ele>176.4</ele>
        <time>2020-09-12T11:51:48Z</time>
      </trkpt>
      <trkpt lat="45.78296" lon="4.84414">
        <ele>188.1</ele>
        <time>2020-09-12T11:51:49Z</time>
      </trkpt>
      <trkpt lat="45.78291" lon="4.84409">
        <ele>187.5</ele>
        <time>2020-09-12T11:51:50Z</time>
      </trkpt>
      <trkpt lat="45.78286" lon="4.84405">
        <ele>186.8</ele>
        <time>2020-09-12T11:51:51Z</time>
      </trkpt>
      <trkpt lat="45.78282" lon="4.84402">
        <ele>186.1</ele>
        <time>2020-09-12T11:51:52Z</time>
      </trkpt>
      <trkpt lat="45.78278" lon="4.84396">
        <ele>186.2</ele>
        <time>2020-09-12T11:51:53Z</time>
      </trkpt>
      <trkpt lat="45.78274" lon="4.84392">
        <ele>186.1</ele>
        <time>2020-09-12T11:51:54Z</time>
      </trkpt>
      <trkpt lat="45.78269" lon="4.84389">
        <ele>186.1</ele>
        <time>2020-09-12T11:51:55Z</time>
      </trkpt>
      <trkpt lat="45.78264" lon="4.84384">
        <ele>186.5</ele>
        <time>2020-09-12T11:51:56Z</time>
      </trkpt>
      <trkpt lat="45.78259" lon="4.8438">
        <ele>187.2</ele>
        <time>2020-09-12T11:51:57Z</time>
      </trkpt>
      <trkpt lat="45.78251" lon="4.84373">
        <ele>188.5</ele>
        <time>2020-09-12T11:51:59Z</time>
      </trkpt>
      <trkpt lat="45.78245" lon="4.84369">
        <ele>179.6</ele>
        <time>2020-09-12T11:52:00Z</time>
      </trkpt>
      <trkpt lat="45.78241" lon="4.84364">
        <ele>180.6</ele>
        <time>2020-09-12T11:52:01Z</time>
      </trkpt>
      <trkpt lat="45.78238" lon="4.84359">
        <ele>181.7</ele>
        <time>2020-09-12T11:52:02Z</time>
      </trkpt>
      <trkpt lat="45.78232" lon="4.84356">
        <ele>181.7</ele>
        <time>2020-09-12T11:52:03Z</time>
      </trkpt>
      <trkpt lat="45.78228" lon="4.84353">
        <ele>181.7</ele>
        <time>2020-09-12T11:52:04Z</time>
      </trkpt>
      <trkpt lat="45.78224" lon="4.84351">
        <ele>181.4</ele>
        <time>2020-09-12T11:52:05Z</time>
      </trkpt>
      <trkpt lat="45.7822" lon="4.84346">
        <ele>181.2</ele>
        <time>2020-09-12T11:52:06Z</time>
      </trkpt>
      <trkpt lat="45.78214" lon="4.84341">
        <ele>180.8</ele>
        <time>2020-09-12T11:52:07Z</time>
      </trkpt>
      <trkpt lat="45.7821" lon="4.84335">
        <ele>180.4</ele>
        <time>2020-09-12T11:52:08Z</time>
      </trkpt>
      <trkpt lat="45.78206" lon="4.84332">
        <ele>193.1</ele>
        <time>2020-09-12T11:52:09Z</time>
      </trkpt>
      <trkpt lat="45.78201" lon="4.84328">
        <ele>192.4</ele>
        <time>2020-09-12T11:52:10Z</time>
      </trkpt>
      <trkpt lat="45.78197" lon="4.84325">
        <ele>191.6</ele>
        <time>2020-09-12T11:52:11Z</time>
      </trkpt>
      <trkpt lat="45.78192" lon="4.8432">
        <ele>191</ele>
        <time>2020-09-12T11:52:12Z</time>
      </trkpt>
      <trkpt lat="45.78188" lon="4.84317">
        <ele>190.5</ele>
        <time>2020-09-12T11:52:13Z</time>
      </trkpt>
      <trkpt lat="45.78182" lon="4.84312">
        <ele>190.5</ele>
        <time>2020-09-12T11:52:14Z</time>
      </trkpt>
      <trkpt lat="45.78178" lon="4.84308">
        <ele>190.7</ele>
        <time>2020-09-12T11:52:15Z</time>
      </trkpt>
      <trkpt lat="45.78172" lon="4.84303">
        <ele>191.6</ele>
        <time>2020-09-12T11:52:16Z</time>
      </trkpt>
      <trkpt lat="45.78168" lon="4.84299">
        <ele>192.2</ele>
        <time>2020-09-12T11:52:17Z</time>
      </trkpt>
      <trkpt lat="45.78158" lon="4.84291">
        <ele>181.7</ele>
        <time>2020-09-12T11:52:19Z</time>
      </trkpt>
      <trkpt lat="45.78153" lon="4.84286">
        <ele>182.2</ele>
        <time>2020-09-12T11:52:20Z</time>
      </trkpt>
      <trkpt lat="45.78149" lon="4.84281">
        <ele>182.5</ele>
        <time>2020-09-12T11:52:21Z</time>
      </trkpt>
      <trkpt lat="45.78145" lon="4.84276">
        <ele>182.8</ele>
        <time>2020-09-12T11:52:22Z</time>
      </trkpt>
      <trkpt lat="45.7814" lon="4.84272">
        <ele>182.7</ele>
        <time>2020-09-12T11:52:23Z</time>
      </trkpt>
      <trkpt lat="45.78134" lon="4.84269">
        <ele>182</ele>
        <time>2020-09-12T11:52:24Z</time>
      </trkpt>
      <trkpt lat="45.78126" lon="4.84267">
        <ele>180.9</ele>
        <time>2020-09-12T11:52:26Z</time>
      </trkpt>
      <trkpt lat="45.78122" lon="4.84263">
        <ele>180.5</ele>
        <time>2020-09-12T11:52:27Z</time>
      </trkpt>
      <trkpt lat="45.78117" lon="4.84258">
        <ele>179.9</ele>
        <time>2020-09-12T11:52:28Z</time>
      </trkpt>
      <trkpt lat="45.78113" lon="4.84256">
        <ele>179.3</ele>
        <time>2020-09-12T11:52:29Z</time>
      </trkpt>
      <trkpt lat="45.78108" lon="4.84251">
        <ele>178.7</ele>
        <time>2020-09-12T11:52:30Z</time>
      </trkpt>
      <trkpt lat="45.78099" lon="4.84246">
        <ele>185.2</ele>
        <time>2020-09-12T11:52:32Z</time>
      </trkpt>
      <trkpt lat="45.78094" lon="4.84242">
        <ele>183.6</ele>
        <time>2020-09-12T11:52:33Z</time>
      </trkpt>
      <trkpt lat="45.78088" lon="4.84238">
        <ele>183.5</ele>
        <time>2020-09-12T11:52:34Z</time>
      </trkpt>
      <trkpt lat="45.78083" lon="4.84234">
        <ele>185</ele>
        <time>2020-09-12T11:52:35Z</time>
      </trkpt>
      <trkpt lat="45.78078" lon="4.84228">
        <ele>178.9</ele>
        <time>2020-09-12T11:52:36Z</time>
      </trkpt>
      <trkpt lat="45.78074" lon="4.84225">
        <ele>179.3</ele>
        <time>2020-09-12T11:52:37Z</time>
      </trkpt>
      <trkpt lat="45.78067" lon="4.84224">
        <ele>179.3</ele>
        <time>2020-09-12T11:52:38Z</time>
      </trkpt>
      <trkpt lat="45.78062" lon="4.84222">
        <ele>179.5</ele>
        <time>2020-09-12T11:52:39Z</time>
      </trkpt>
      <trkpt lat="45.78058" lon="4.84217">
        <ele>180</ele>
        <time>2020-09-12T11:52:40Z</time>
      </trkpt>
      <trkpt lat="45.78053" lon="4.84212">
        <ele>180.3</ele>
        <time>2020-09-12T11:52:41Z</time>
      </trkpt>
      <trkpt lat="45.78049" lon="4.84208">
        <ele>180.5</ele>
        <time>2020-09-12T11:52:42Z</time>
      </trkpt>
      <trkpt lat="45.78044" lon="4.84205">
        <ele>180.5</ele>
        <time>2020-09-12T11:52:43Z</time>
      </trkpt>
      <trkpt lat="45.78038" lon="4.84202">
        <ele>180.5</ele>
        <time>2020-09-12T11:52:44Z</time>
      </trkpt>
      <trkpt lat="45.78032" lon="4.84199">
        <ele>180.3</ele>
        <time>2020-09-12T11:52:45Z</time>
      </trkpt>
      <trkpt lat="45.78027" lon="4.84196">
        <ele>180.3</ele>
        <time>2020-09-12T11:52:46Z</time>
      </trkpt>
      <trkpt lat="45.78022" lon="4.84192">
        <ele>180.4</ele>
        <time>2020-09-12T11:52:47Z</time>
      </trkpt>
      <trkpt lat="45.78017" lon="4.84189">
        <ele>180.5</ele>
        <time>2020-09-12T11:52:48Z</time>
      </trkpt>
      <trkpt lat="45.78012" lon="4.84185">
        <ele>180.7</ele>
        <time>2020-09-12T11:52:49Z</time>
      </trkpt>
      <trkpt lat="45.78007" lon="4.84181">
        <ele>180.9</ele>
        <time>2020-09-12T11:52:50Z</time>
      </trkpt>
      <trkpt lat="45.78003" lon="4.84176">
        <ele>181.3</ele>
        <time>2020-09-12T11:52:51Z</time>
      </trkpt>
      <trkpt lat="45.77998" lon="4.84172">
        <ele>179.8</ele>
        <time>2020-09-12T11:52:52Z</time>
      </trkpt>
      <trkpt lat="45.77993" lon="4.8417">
        <ele>179.2</ele>
        <time>2020-09-12T11:52:53Z</time>
      </trkpt>
      <trkpt lat="45.77988" lon="4.84167">
        <ele>178</ele>
        <time>2020-09-12T11:52:54Z</time>
      </trkpt>
      <trkpt lat="45.77983" lon="4.84163">
        <ele>180.8</ele>
        <time>2020-09-12T11:52:55Z</time>
      </trkpt>
      <trkpt lat="45.77977" lon="4.84159">
        <ele>180.4</ele>
        <time>2020-09-12T11:52:56Z</time>
      </trkpt>
      <trkpt lat="45.77974" lon="4.84155">
        <ele>180.2</ele>
        <time>2020-09-12T11:52:57Z</time>
      </trkpt>
      <trkpt lat="45.77969" lon="4.84151">
        <ele>179.9</ele>
        <time>2020-09-12T11:52:58Z</time>
      </trkpt>
      <trkpt lat="45.77964" lon="4.84148">
        <ele>179.6</ele>
        <time>2020-09-12T11:52:59Z</time>
      </trkpt>
      <trkpt lat="45.77959" lon="4.84145">
        <ele>179.3</ele>
        <time>2020-09-12T11:53:00Z</time>
      </trkpt>
      <trkpt lat="45.77954" lon="4.84141">
        <ele>179.2</ele>
        <time>2020-09-12T11:53:01Z</time>
      </trkpt>
      <trkpt lat="45.7795" lon="4.84137">
        <ele>179</ele>
        <time>2020-09-12T11:53:02Z</time>
      </trkpt>
      <trkpt lat="45.77945" lon="4.84135">
        <ele>178.8</ele>
        <time>2020-09-12T11:53:03Z</time>
      </trkpt>
      <trkpt lat="45.77938" lon="4.84135">
        <ele>178.4</ele>
        <time>2020-09-12T11:53:05Z</time>
      </trkpt>
      <trkpt lat="45.77933" lon="4.84136">
        <ele>178</ele>
        <time>2020-09-12T11:53:07Z</time>
      </trkpt>
      <trkpt lat="45.77928" lon="4.84139">
        <ele>177.5</ele>
        <time>2020-09-12T11:53:10Z</time>
      </trkpt>
      <trkpt lat="45.77923" lon="4.84139">
        <ele>177.4</ele>
        <time>2020-09-12T11:53:12Z</time>
      </trkpt>
      <trkpt lat="45.77917" lon="4.8414">
        <ele>177</ele>
        <time>2020-09-12T11:53:14Z</time>
      </trkpt>
      <trkpt lat="45.7791" lon="4.84141">
        <ele>173.8</ele>
        <time>2020-09-12T11:53:16Z</time>
      </trkpt>
      <trkpt lat="45.77904" lon="4.8414">
        <ele>173.8</ele>
        <time>2020-09-12T11:53:18Z</time>
      </trkpt>
      <trkpt lat="45.77899" lon="4.84141">
        <ele>173.8</ele>
        <time>2020-09-12T11:53:20Z</time>
      </trkpt>
      <trkpt lat="45.77895" lon="4.84143">
        <ele>173.7</ele>
        <time>2020-09-12T11:53:22Z</time>
      </trkpt>
      <trkpt lat="45.77892" lon="4.84151">
        <ele>173.3</ele>
        <time>2020-09-12T11:53:24Z</time>
      </trkpt>
      <trkpt lat="45.7789" lon="4.84162">
        <ele>172.9</ele>
        <time>2020-09-12T11:53:26Z</time>
      </trkpt>
      <trkpt lat="45.77886" lon="4.84173">
        <ele>168.6</ele>
        <time>2020-09-12T11:53:28Z</time>
      </trkpt>
      <trkpt lat="45.77881" lon="4.84184">
        <ele>168.2</ele>
        <time>2020-09-12T11:53:30Z</time>
      </trkpt>
      <trkpt lat="45.77877" lon="4.84194">
        <ele>167.8</ele>
        <time>2020-09-12T11:53:32Z</time>
      </trkpt>
      <trkpt lat="45.77873" lon="4.84206">
        <ele>167.5</ele>
        <time>2020-09-12T11:53:34Z</time>
      </trkpt>
      <trkpt lat="45.7787" lon="4.84211">
        <ele>167.4</ele>
        <time>2020-09-12T11:53:35Z</time>
      </trkpt>
      <trkpt lat="45.77866" lon="4.84222">
        <ele>167.1</ele>
        <time>2020-09-12T11:53:37Z</time>
      </trkpt>
      <trkpt lat="45.77862" lon="4.84234">
        <ele>166.9</ele>
        <time>2020-09-12T11:53:39Z</time>
      </trkpt>
      <trkpt lat="45.77859" lon="4.84241">
        <ele>166.8</ele>
        <time>2020-09-12T11:53:40Z</time>
      </trkpt>
      <trkpt lat="45.77857" lon="4.84246">
        <ele>166.8</ele>
        <time>2020-09-12T11:53:41Z</time>
      </trkpt>
      <trkpt lat="45.77856" lon="4.84253">
        <ele>166.1</ele>
        <time>2020-09-12T11:53:42Z</time>
      </trkpt>
      <trkpt lat="45.77853" lon="4.84259">
        <ele>166.2</ele>
        <time>2020-09-12T11:53:43Z</time>
      </trkpt>
      <trkpt lat="45.77851" lon="4.84266">
        <ele>166.2</ele>
        <time>2020-09-12T11:53:44Z</time>
      </trkpt>
      <trkpt lat="45.77848" lon="4.84272">
        <ele>166.2</ele>
        <time>2020-09-12T11:53:45Z</time>
      </trkpt>
      <trkpt lat="45.77846" lon="4.84278">
        <ele>166.2</ele>
        <time>2020-09-12T11:53:46Z</time>
      </trkpt>
      <trkpt lat="45.7784" lon="4.84292">
        <ele>166.3</ele>
        <time>2020-09-12T11:53:48Z</time>
      </trkpt>
      <trkpt lat="45.77836" lon="4.84305">
        <ele>166.5</ele>
        <time>2020-09-12T11:53:50Z</time>
      </trkpt>
      <trkpt lat="45.77834" lon="4.84312">
        <ele>166.6</ele>
        <time>2020-09-12T11:53:51Z</time>
      </trkpt>
      <trkpt lat="45.77832" lon="4.84319">
        <ele>166.7</ele>
        <time>2020-09-12T11:53:52Z</time>
      </trkpt>
      <trkpt lat="45.7783" lon="4.84325">
        <ele>166.8</ele>
        <time>2020-09-12T11:53:53Z</time>
      </trkpt>
      <trkpt lat="45.77828" lon="4.84331">
        <ele>166.8</ele>
        <time>2020-09-12T11:53:54Z</time>
      </trkpt>
      <trkpt lat="45.77825" lon="4.84338">
        <ele>167</ele>
        <time>2020-09-12T11:53:55Z</time>
      </trkpt>
      <trkpt lat="45.77823" lon="4.84345">
        <ele>167.1</ele>
        <time>2020-09-12T11:53:56Z</time>
      </trkpt>
      <trkpt lat="45.77821" lon="4.84352">
        <ele>167.1</ele>
        <time>2020-09-12T11:53:57Z</time>
      </trkpt>
      <trkpt lat="45.77818" lon="4.84359">
        <ele>167.1</ele>
        <time>2020-09-12T11:53:58Z</time>
      </trkpt>
      <trkpt lat="45.77816" lon="4.84366">
        <ele>167.1</ele>
        <time>2020-09-12T11:53:59Z</time>
      </trkpt>
      <trkpt lat="45.77811" lon="4.8438">
        <ele>167.2</ele>
        <time>2020-09-12T11:54:01Z</time>
      </trkpt>
      <trkpt lat="45.77808" lon="4.84388">
        <ele>167.3</ele>
        <time>2020-09-12T11:54:02Z</time>
      </trkpt>
      <trkpt lat="45.77806" lon="4.84396">
        <ele>167.3</ele>
        <time>2020-09-12T11:54:03Z</time>
      </trkpt>
      <trkpt lat="45.77803" lon="4.84404">
        <ele>167.4</ele>
        <time>2020-09-12T11:54:04Z</time>
      </trkpt>
      <trkpt lat="45.778" lon="4.84411">
        <ele>167.4</ele>
        <time>2020-09-12T11:54:05Z</time>
      </trkpt>
      <trkpt lat="45.77797" lon="4.84417">
        <ele>170.2</ele>
        <time>2020-09-12T11:54:06Z</time>
      </trkpt>
      <trkpt lat="45.77793" lon="4.84423">
        <ele>170.4</ele>
        <time>2020-09-12T11:54:07Z</time>
      </trkpt>
      <trkpt lat="45.7779" lon="4.84429">
        <ele>170.6</ele>
        <time>2020-09-12T11:54:08Z</time>
      </trkpt>
      <trkpt lat="45.77781" lon="4.84436">
        <ele>170.9</ele>
        <time>2020-09-12T11:54:10Z</time>
      </trkpt>
      <trkpt lat="45.77776" lon="4.84437">
        <ele>170.9</ele>
        <time>2020-09-12T11:54:11Z</time>
      </trkpt>
      <trkpt lat="45.77767" lon="4.84432">
        <ele>170.6</ele>
        <time>2020-09-12T11:54:13Z</time>
      </trkpt>
      <trkpt lat="45.77762" lon="4.8443">
        <ele>170.4</ele>
        <time>2020-09-12T11:54:14Z</time>
      </trkpt>
      <trkpt lat="45.77757" lon="4.84428">
        <ele>170.1</ele>
        <time>2020-09-12T11:54:15Z</time>
      </trkpt>
      <trkpt lat="45.77752" lon="4.84425">
        <ele>169.8</ele>
        <time>2020-09-12T11:54:16Z</time>
      </trkpt>
      <trkpt lat="45.77748" lon="4.84422">
        <ele>169.8</ele>
        <time>2020-09-12T11:54:17Z</time>
      </trkpt>
      <trkpt lat="45.77743" lon="4.84418">
        <ele>170</ele>
        <time>2020-09-12T11:54:18Z</time>
      </trkpt>
      <trkpt lat="45.77736" lon="4.84415">
        <ele>168.8</ele>
        <time>2020-09-12T11:54:19Z</time>
      </trkpt>
      <trkpt lat="45.7773" lon="4.84413">
        <ele>168.8</ele>
        <time>2020-09-12T11:54:20Z</time>
      </trkpt>
      <trkpt lat="45.77725" lon="4.84409">
        <ele>168.8</ele>
        <time>2020-09-12T11:54:21Z</time>
      </trkpt>
      <trkpt lat="45.7772" lon="4.84406">
        <ele>168.8</ele>
        <time>2020-09-12T11:54:22Z</time>
      </trkpt>
      <trkpt lat="45.77712" lon="4.84403">
        <ele>168.9</ele>
        <time>2020-09-12T11:54:24Z</time>
      </trkpt>
      <trkpt lat="45.77707" lon="4.84401">
        <ele>168.9</ele>
        <time>2020-09-12T11:54:25Z</time>
      </trkpt>
      <trkpt lat="45.77702" lon="4.84398">
        <ele>169</ele>
        <time>2020-09-12T11:54:27Z</time>
      </trkpt>
      <trkpt lat="45.77696" lon="4.84393">
        <ele>169</ele>
        <time>2020-09-12T11:54:29Z</time>
      </trkpt>
      <trkpt lat="45.77691" lon="4.84392">
        <ele>169.1</ele>
        <time>2020-09-12T11:54:31Z</time>
      </trkpt>
      <trkpt lat="45.77686" lon="4.84391">
        <ele>169.2</ele>
        <time>2020-09-12T11:54:51Z</time>
      </trkpt>
      <trkpt lat="45.77681" lon="4.8439">
        <ele>169.2</ele>
        <time>2020-09-12T11:54:53Z</time>
      </trkpt>
      <trkpt lat="45.77675" lon="4.84387">
        <ele>169.2</ele>
        <time>2020-09-12T11:54:56Z</time>
      </trkpt>
      <trkpt lat="45.77674" lon="4.8438">
        <ele>169</ele>
        <time>2020-09-12T11:55:10Z</time>
      </trkpt>
      <trkpt lat="45.77675" lon="4.84373">
        <ele>168.8</ele>
        <time>2020-09-12T11:55:18Z</time>
      </trkpt>
      <trkpt lat="45.77673" lon="4.84367">
        <ele>168.6</ele>
        <time>2020-09-12T11:55:20Z</time>
      </trkpt>
      <trkpt lat="45.77671" lon="4.8436">
        <ele>168.5</ele>
        <time>2020-09-12T11:55:24Z</time>
      </trkpt>
      <trkpt lat="45.77666" lon="4.84363">
        <ele>172.2</ele>
        <time>2020-09-12T11:55:37Z</time>
      </trkpt>
      <trkpt lat="45.77658" lon="4.84359">
        <ele>172.1</ele>
        <time>2020-09-12T11:55:42Z</time>
      </trkpt>
      <trkpt lat="45.77658" lon="4.84351">
        <ele>171.5</ele>
        <time>2020-09-12T11:55:48Z</time>
      </trkpt>
      <trkpt lat="45.77659" lon="4.84344">
        <ele>170.6</ele>
        <time>2020-09-12T11:55:54Z</time>
      </trkpt>
      <trkpt lat="45.7766" lon="4.84342">
        <ele>170.3</ele>
        <time>2020-09-12T11:56:20Z</time>
      </trkpt>
      <trkpt lat="45.7766" lon="4.84342">
        <ele>170.3</ele>
        <time>2020-09-12T11:56:24Z</time>
      </trkpt>
      <trkpt lat="45.7766" lon="4.84345">
        <ele>170.7</ele>
        <time>2020-09-12T11:57:38Z</time>
      </trkpt>
      <trkpt lat="45.77665" lon="4.84347">
        <ele>170.7</ele>
        <time>2020-09-12T11:57:54Z</time>
      </trkpt>
      <trkpt lat="45.7767" lon="4.84352">
        <ele>168.4</ele>
        <time>2020-09-12T11:58:03Z</time>
      </trkpt>
      <trkpt lat="45.7767" lon="4.84353">
        <ele>168.4</ele>
        <time>2020-09-12T11:58:21Z</time>
      </trkpt>
      <trkpt lat="45.77095" lon="4.84084">
        <ele>172.8</ele>
        <time>2020-09-12T12:00:27Z</time>
      </trkpt>
      <trkpt lat="45.77107" lon="4.84071">
        <ele>168.9</ele>
        <time>2020-09-12T12:00:28Z</time>
      </trkpt>
      <trkpt lat="45.77097" lon="4.84071">
        <ele>169.5</ele>
        <time>2020-09-12T12:00:30Z</time>
      </trkpt>
      <trkpt lat="45.77091" lon="4.8407">
        <ele>169.8</ele>
        <time>2020-09-12T12:00:31Z</time>
      </trkpt>
      <trkpt lat="45.77085" lon="4.8407">
        <ele>170</ele>
        <time>2020-09-12T12:00:32Z</time>
      </trkpt>
      <trkpt lat="45.77078" lon="4.8407">
        <ele>170.6</ele>
        <time>2020-09-12T12:00:33Z</time>
      </trkpt>
      <trkpt lat="45.77071" lon="4.84069">
        <ele>170.3</ele>
        <time>2020-09-12T12:00:34Z</time>
      </trkpt>
      <trkpt lat="45.77059" lon="4.84069">
        <ele>170</ele>
        <time>2020-09-12T12:00:36Z</time>
      </trkpt>
      <trkpt lat="45.77053" lon="4.84069">
        <ele>169.9</ele>
        <time>2020-09-12T12:00:37Z</time>
      </trkpt>
      <trkpt lat="45.77046" lon="4.84068">
        <ele>169.8</ele>
        <time>2020-09-12T12:00:38Z</time>
      </trkpt>
      <trkpt lat="45.7704" lon="4.84067">
        <ele>169.8</ele>
        <time>2020-09-12T12:00:39Z</time>
      </trkpt>
      <trkpt lat="45.77033" lon="4.84067">
        <ele>169.9</ele>
        <time>2020-09-12T12:00:40Z</time>
      </trkpt>
      <trkpt lat="45.77026" lon="4.84066">
        <ele>170</ele>
        <time>2020-09-12T12:00:41Z</time>
      </trkpt>
      <trkpt lat="45.7702" lon="4.84066">
        <ele>170.2</ele>
        <time>2020-09-12T12:00:42Z</time>
      </trkpt>
      <trkpt lat="45.77014" lon="4.84068">
        <ele>170.5</ele>
        <time>2020-09-12T12:00:43Z</time>
      </trkpt>
      <trkpt lat="45.77008" lon="4.84068">
        <ele>170.8</ele>
        <time>2020-09-12T12:00:44Z</time>
      </trkpt>
      <trkpt lat="45.77002" lon="4.84067">
        <ele>170.8</ele>
        <time>2020-09-12T12:00:45Z</time>
      </trkpt>
      <trkpt lat="45.76996" lon="4.84066">
        <ele>170.4</ele>
        <time>2020-09-12T12:00:46Z</time>
      </trkpt>
      <trkpt lat="45.7699" lon="4.84064">
        <ele>170.1</ele>
        <time>2020-09-12T12:00:47Z</time>
      </trkpt>
      <trkpt lat="45.76978" lon="4.84065">
        <ele>169.7</ele>
        <time>2020-09-12T12:00:49Z</time>
      </trkpt>
      <trkpt lat="45.76971" lon="4.84064">
        <ele>169.4</ele>
        <time>2020-09-12T12:00:50Z</time>
      </trkpt>
      <trkpt lat="45.76965" lon="4.84065">
        <ele>169.3</ele>
        <time>2020-09-12T12:00:51Z</time>
      </trkpt>
      <trkpt lat="45.76958" lon="4.84064">
        <ele>169.2</ele>
        <time>2020-09-12T12:00:52Z</time>
      </trkpt>
      <trkpt lat="45.76953" lon="4.84065">
        <ele>169.2</ele>
        <time>2020-09-12T12:00:53Z</time>
      </trkpt>
      <trkpt lat="45.76945" lon="4.84063">
        <ele>169.1</ele>
        <time>2020-09-12T12:00:54Z</time>
      </trkpt>
      <trkpt lat="45.76939" lon="4.84062">
        <ele>169.1</ele>
        <time>2020-09-12T12:00:55Z</time>
      </trkpt>
      <trkpt lat="45.76933" lon="4.84063">
        <ele>169.2</ele>
        <time>2020-09-12T12:00:56Z</time>
      </trkpt>
      <trkpt lat="45.76928" lon="4.84064">
        <ele>169.3</ele>
        <time>2020-09-12T12:00:57Z</time>
      </trkpt>
      <trkpt lat="45.76922" lon="4.84064">
        <ele>169.5</ele>
        <time>2020-09-12T12:00:58Z</time>
      </trkpt>
      <trkpt lat="45.76915" lon="4.84064">
        <ele>168.8</ele>
        <time>2020-09-12T12:00:59Z</time>
      </trkpt>
      <trkpt lat="45.76909" lon="4.84066">
        <ele>168.7</ele>
        <time>2020-09-12T12:01:00Z</time>
      </trkpt>
      <trkpt lat="45.76903" lon="4.84066">
        <ele>168.5</ele>
        <time>2020-09-12T12:01:01Z</time>
      </trkpt>
      <trkpt lat="45.76898" lon="4.84068">
        <ele>168.4</ele>
        <time>2020-09-12T12:01:02Z</time>
      </trkpt>
      <trkpt lat="45.76892" lon="4.84068">
        <ele>168.1</ele>
        <time>2020-09-12T12:01:03Z</time>
      </trkpt>
      <trkpt lat="45.76885" lon="4.84069">
        <ele>167.8</ele>
        <time>2020-09-12T12:01:04Z</time>
      </trkpt>
      <trkpt lat="45.76878" lon="4.84068">
        <ele>167.5</ele>
        <time>2020-09-12T12:01:05Z</time>
      </trkpt>
      <trkpt lat="45.76872" lon="4.84069">
        <ele>167.3</ele>
        <time>2020-09-12T12:01:06Z</time>
      </trkpt>
      <trkpt lat="45.76865" lon="4.8407">
        <ele>167.1</ele>
        <time>2020-09-12T12:01:07Z</time>
      </trkpt>
      <trkpt lat="45.76858" lon="4.84071">
        <ele>166.9</ele>
        <time>2020-09-12T12:01:08Z</time>
      </trkpt>
      <trkpt lat="45.76851" lon="4.84071">
        <ele>166.8</ele>
        <time>2020-09-12T12:01:09Z</time>
      </trkpt>
      <trkpt lat="45.76846" lon="4.84073">
        <ele>166.6</ele>
        <time>2020-09-12T12:01:10Z</time>
      </trkpt>
      <trkpt lat="45.76839" lon="4.84073">
        <ele>166.4</ele>
        <time>2020-09-12T12:01:11Z</time>
      </trkpt>
      <trkpt lat="45.76832" lon="4.84074">
        <ele>166.2</ele>
        <time>2020-09-12T12:01:12Z</time>
      </trkpt>
      <trkpt lat="45.76827" lon="4.84075">
        <ele>166.2</ele>
        <time>2020-09-12T12:01:13Z</time>
      </trkpt>
      <trkpt lat="45.7682" lon="4.84075">
        <ele>166.3</ele>
        <time>2020-09-12T12:01:14Z</time>
      </trkpt>
      <trkpt lat="45.76813" lon="4.84075">
        <ele>166.4</ele>
        <time>2020-09-12T12:01:15Z</time>
      </trkpt>
      <trkpt lat="45.76807" lon="4.84076">
        <ele>166.5</ele>
        <time>2020-09-12T12:01:16Z</time>
      </trkpt>
      <trkpt lat="45.76801" lon="4.84077">
        <ele>166.5</ele>
        <time>2020-09-12T12:01:17Z</time>
      </trkpt>
      <trkpt lat="45.76794" lon="4.84076">
        <ele>166.6</ele>
        <time>2020-09-12T12:01:18Z</time>
      </trkpt>
      <trkpt lat="45.76789" lon="4.84077">
        <ele>166.7</ele>
        <time>2020-09-12T12:01:19Z</time>
      </trkpt>
      <trkpt lat="45.76783" lon="4.84077">
        <ele>166.8</ele>
        <time>2020-09-12T12:01:20Z</time>
      </trkpt>
      <trkpt lat="45.76775" lon="4.84073">
        <ele>166.9</ele>
        <time>2020-09-12T12:01:21Z</time>
      </trkpt>
      <trkpt lat="45.76769" lon="4.84075">
        <ele>167.1</ele>
        <time>2020-09-12T12:01:22Z</time>
      </trkpt>
      <trkpt lat="45.76763" lon="4.84074">
        <ele>167.3</ele>
        <time>2020-09-12T12:01:23Z</time>
      </trkpt>
      <trkpt lat="45.76756" lon="4.84076">
        <ele>167.5</ele>
        <time>2020-09-12T12:01:24Z</time>
      </trkpt>
      <trkpt lat="45.76751" lon="4.84076">
        <ele>167.6</ele>
        <time>2020-09-12T12:01:25Z</time>
      </trkpt>
      <trkpt lat="45.76745" lon="4.84077">
        <ele>167.7</ele>
        <time>2020-09-12T12:01:26Z</time>
      </trkpt>
      <trkpt lat="45.7674" lon="4.84077">
        <ele>167.6</ele>
        <time>2020-09-12T12:01:27Z</time>
      </trkpt>
      <trkpt lat="45.76733" lon="4.84077">
        <ele>167.5</ele>
        <time>2020-09-12T12:01:28Z</time>
      </trkpt>
      <trkpt lat="45.76727" lon="4.84077">
        <ele>167.4</ele>
        <time>2020-09-12T12:01:29Z</time>
      </trkpt>
      <trkpt lat="45.7672" lon="4.84079">
        <ele>167.4</ele>
        <time>2020-09-12T12:01:30Z</time>
      </trkpt>
      <trkpt lat="45.76709" lon="4.84078">
        <ele>167.4</ele>
        <time>2020-09-12T12:01:32Z</time>
      </trkpt>
      <trkpt lat="45.76703" lon="4.84079">
        <ele>167.4</ele>
        <time>2020-09-12T12:01:33Z</time>
      </trkpt>
      <trkpt lat="45.76696" lon="4.84081">
        <ele>167.4</ele>
        <time>2020-09-12T12:01:34Z</time>
      </trkpt>
      <trkpt lat="45.76691" lon="4.84081">
        <ele>167.5</ele>
        <time>2020-09-12T12:01:35Z</time>
      </trkpt>
      <trkpt lat="45.76685" lon="4.84083">
        <ele>167.5</ele>
        <time>2020-09-12T12:01:36Z</time>
      </trkpt>
      <trkpt lat="45.7668" lon="4.84083">
        <ele>167.6</ele>
        <time>2020-09-12T12:01:37Z</time>
      </trkpt>
      <trkpt lat="45.76674" lon="4.84085">
        <ele>169.5</ele>
        <time>2020-09-12T12:01:38Z</time>
      </trkpt>
      <trkpt lat="45.76667" lon="4.84086">
        <ele>168.6</ele>
        <time>2020-09-12T12:01:39Z</time>
      </trkpt>
      <trkpt lat="45.76661" lon="4.84087">
        <ele>169.1</ele>
        <time>2020-09-12T12:01:40Z</time>
      </trkpt>
      <trkpt lat="45.76656" lon="4.84089">
        <ele>169.7</ele>
        <time>2020-09-12T12:01:41Z</time>
      </trkpt>
      <trkpt lat="45.7665" lon="4.84091">
        <ele>170.2</ele>
        <time>2020-09-12T12:01:42Z</time>
      </trkpt>
      <trkpt lat="45.76643" lon="4.84091">
        <ele>170.6</ele>
        <time>2020-09-12T12:01:43Z</time>
      </trkpt>
      <trkpt lat="45.76636" lon="4.84091">
        <ele>170.9</ele>
        <time>2020-09-12T12:01:44Z</time>
      </trkpt>
      <trkpt lat="45.7663" lon="4.84093">
        <ele>171</ele>
        <time>2020-09-12T12:01:45Z</time>
      </trkpt>
      <trkpt lat="45.76624" lon="4.84094">
        <ele>171</ele>
        <time>2020-09-12T12:01:46Z</time>
      </trkpt>
      <trkpt lat="45.76614" lon="4.84097">
        <ele>171</ele>
        <time>2020-09-12T12:01:48Z</time>
      </trkpt>
      <trkpt lat="45.76608" lon="4.84098">
        <ele>170.9</ele>
        <time>2020-09-12T12:01:49Z</time>
      </trkpt>
      <trkpt lat="45.76601" lon="4.84098">
        <ele>170.6</ele>
        <time>2020-09-12T12:01:50Z</time>
      </trkpt>
      <trkpt lat="45.76595" lon="4.84099">
        <ele>170.4</ele>
        <time>2020-09-12T12:01:51Z</time>
      </trkpt>
      <trkpt lat="45.76589" lon="4.84101">
        <ele>170.4</ele>
        <time>2020-09-12T12:01:52Z</time>
      </trkpt>
      <trkpt lat="45.76582" lon="4.84102">
        <ele>170.2</ele>
        <time>2020-09-12T12:01:53Z</time>
      </trkpt>
      <trkpt lat="45.76576" lon="4.84103">
        <ele>170.3</ele>
        <time>2020-09-12T12:01:54Z</time>
      </trkpt>
      <trkpt lat="45.76569" lon="4.84103">
        <ele>170.5</ele>
        <time>2020-09-12T12:01:55Z</time>
      </trkpt>
      <trkpt lat="45.76562" lon="4.84104">
        <ele>170.7</ele>
        <time>2020-09-12T12:01:56Z</time>
      </trkpt>
      <trkpt lat="45.76555" lon="4.84104">
        <ele>170.9</ele>
        <time>2020-09-12T12:01:57Z</time>
      </trkpt>
      <trkpt lat="45.76549" lon="4.84104">
        <ele>170.9</ele>
        <time>2020-09-12T12:01:58Z</time>
      </trkpt>
      <trkpt lat="45.76542" lon="4.84104">
        <ele>171</ele>
        <time>2020-09-12T12:01:59Z</time>
      </trkpt>
      <trkpt lat="45.76535" lon="4.84103">
        <ele>170.9</ele>
        <time>2020-09-12T12:02:00Z</time>
      </trkpt>
      <trkpt lat="45.76529" lon="4.84103">
        <ele>170.9</ele>
        <time>2020-09-12T12:02:01Z</time>
      </trkpt>
      <trkpt lat="45.76523" lon="4.84102">
        <ele>170.8</ele>
        <time>2020-09-12T12:02:02Z</time>
      </trkpt>
      <trkpt lat="45.76516" lon="4.84102">
        <ele>170.7</ele>
        <time>2020-09-12T12:02:03Z</time>
      </trkpt>
      <trkpt lat="45.7651" lon="4.84102">
        <ele>170.5</ele>
        <time>2020-09-12T12:02:04Z</time>
      </trkpt>
      <trkpt lat="45.76503" lon="4.84102">
        <ele>170.5</ele>
        <time>2020-09-12T12:02:05Z</time>
      </trkpt>
      <trkpt lat="45.76496" lon="4.84101">
        <ele>170.1</ele>
        <time>2020-09-12T12:02:06Z</time>
      </trkpt>
      <trkpt lat="45.7649" lon="4.84102">
        <ele>170.2</ele>
        <time>2020-09-12T12:02:07Z</time>
      </trkpt>
      <trkpt lat="45.76484" lon="4.84102">
        <ele>170.2</ele>
        <time>2020-09-12T12:02:08Z</time>
      </trkpt>
      <trkpt lat="45.76477" lon="4.84101">
        <ele>170.3</ele>
        <time>2020-09-12T12:02:09Z</time>
      </trkpt>
      <trkpt lat="45.76471" lon="4.841">
        <ele>170.2</ele>
        <time>2020-09-12T12:02:10Z</time>
      </trkpt>
      <trkpt lat="45.76464" lon="4.84097">
        <ele>170.2</ele>
        <time>2020-09-12T12:02:11Z</time>
      </trkpt>
      <trkpt lat="45.76459" lon="4.84097">
        <ele>170.1</ele>
        <time>2020-09-12T12:02:12Z</time>
      </trkpt>
      <trkpt lat="45.76452" lon="4.84096">
        <ele>170</ele>
        <time>2020-09-12T12:02:13Z</time>
      </trkpt>
      <trkpt lat="45.76446" lon="4.84095">
        <ele>169.8</ele>
        <time>2020-09-12T12:02:14Z</time>
      </trkpt>
      <trkpt lat="45.7644" lon="4.84095">
        <ele>169.5</ele>
        <time>2020-09-12T12:02:15Z</time>
      </trkpt>
      <trkpt lat="45.76433" lon="4.84094">
        <ele>169.2</ele>
        <time>2020-09-12T12:02:16Z</time>
      </trkpt>
      <trkpt lat="45.76426" lon="4.84093">
        <ele>168.7</ele>
        <time>2020-09-12T12:02:17Z</time>
      </trkpt>
      <trkpt lat="45.76421" lon="4.84093">
        <ele>168.4</ele>
        <time>2020-09-12T12:02:18Z</time>
      </trkpt>
      <trkpt lat="45.76415" lon="4.84092">
        <ele>167.9</ele>
        <time>2020-09-12T12:02:19Z</time>
      </trkpt>
      <trkpt lat="45.76409" lon="4.84092">
        <ele>168.1</ele>
        <time>2020-09-12T12:02:20Z</time>
      </trkpt>
      <trkpt lat="45.76403" lon="4.84093">
        <ele>168.4</ele>
        <time>2020-09-12T12:02:21Z</time>
      </trkpt>
      <trkpt lat="45.76395" lon="4.84093">
        <ele>168.7</ele>
        <time>2020-09-12T12:02:22Z</time>
      </trkpt>
      <trkpt lat="45.76389" lon="4.84092">
        <ele>168.8</ele>
        <time>2020-09-12T12:02:23Z</time>
      </trkpt>
      <trkpt lat="45.76384" lon="4.84093">
        <ele>168.9</ele>
        <time>2020-09-12T12:02:24Z</time>
      </trkpt>
      <trkpt lat="45.76378" lon="4.84094">
        <ele>168.9</ele>
        <time>2020-09-12T12:02:25Z</time>
      </trkpt>
      <trkpt lat="45.76371" lon="4.84094">
        <ele>168.8</ele>
        <time>2020-09-12T12:02:26Z</time>
      </trkpt>
      <trkpt lat="45.76365" lon="4.84095">
        <ele>168.7</ele>
        <time>2020-09-12T12:02:27Z</time>
      </trkpt>
      <trkpt lat="45.7636" lon="4.84096">
        <ele>168.6</ele>
        <time>2020-09-12T12:02:28Z</time>
      </trkpt>
      <trkpt lat="45.76354" lon="4.84093">
        <ele>168.3</ele>
        <time>2020-09-12T12:02:29Z</time>
      </trkpt>
      <trkpt lat="45.76348" lon="4.84097">
        <ele>168.2</ele>
        <time>2020-09-12T12:02:30Z</time>
      </trkpt>
      <trkpt lat="45.76342" lon="4.841">
        <ele>168.2</ele>
        <time>2020-09-12T12:02:31Z</time>
      </trkpt>
      <trkpt lat="45.76336" lon="4.84098">
        <ele>167.9</ele>
        <time>2020-09-12T12:02:32Z</time>
      </trkpt>
      <trkpt lat="45.76326" lon="4.84101">
        <ele>168.5</ele>
        <time>2020-09-12T12:02:34Z</time>
      </trkpt>
      <trkpt lat="45.76321" lon="4.84101">
        <ele>168.7</ele>
        <time>2020-09-12T12:02:35Z</time>
      </trkpt>
      <trkpt lat="45.76313" lon="4.84098">
        <ele>168.9</ele>
        <time>2020-09-12T12:02:36Z</time>
      </trkpt>
      <trkpt lat="45.76307" lon="4.84098">
        <ele>169.1</ele>
        <time>2020-09-12T12:02:37Z</time>
      </trkpt>
      <trkpt lat="45.76302" lon="4.84097">
        <ele>169.2</ele>
        <time>2020-09-12T12:02:38Z</time>
      </trkpt>
      <trkpt lat="45.7629" lon="4.84093">
        <ele>169.2</ele>
        <time>2020-09-12T12:02:40Z</time>
      </trkpt>
      <trkpt lat="45.76285" lon="4.84093">
        <ele>169.2</ele>
        <time>2020-09-12T12:02:41Z</time>
      </trkpt>
      <trkpt lat="45.76279" lon="4.84092">
        <ele>169</ele>
        <time>2020-09-12T12:02:42Z</time>
      </trkpt>
      <trkpt lat="45.76274" lon="4.8409">
        <ele>168.8</ele>
        <time>2020-09-12T12:02:43Z</time>
      </trkpt>
      <trkpt lat="45.76268" lon="4.84088">
        <ele>168.4</ele>
        <time>2020-09-12T12:02:44Z</time>
      </trkpt>
      <trkpt lat="45.76262" lon="4.84088">
        <ele>168</ele>
        <time>2020-09-12T12:02:45Z</time>
      </trkpt>
      <trkpt lat="45.76257" lon="4.84088">
        <ele>167.3</ele>
        <time>2020-09-12T12:02:46Z</time>
      </trkpt>
      <trkpt lat="45.76251" lon="4.84087">
        <ele>166.7</ele>
        <time>2020-09-12T12:02:47Z</time>
      </trkpt>
      <trkpt lat="45.76246" lon="4.84087">
        <ele>167.4</ele>
        <time>2020-09-12T12:02:48Z</time>
      </trkpt>
      <trkpt lat="45.76234" lon="4.84085">
        <ele>168.9</ele>
        <time>2020-09-12T12:02:50Z</time>
      </trkpt>
      <trkpt lat="45.76228" lon="4.84085">
        <ele>169.5</ele>
        <time>2020-09-12T12:02:51Z</time>
      </trkpt>
      <trkpt lat="45.76222" lon="4.84084">
        <ele>169.9</ele>
        <time>2020-09-12T12:02:52Z</time>
      </trkpt>
      <trkpt lat="45.76217" lon="4.84083">
        <ele>166.4</ele>
        <time>2020-09-12T12:02:53Z</time>
      </trkpt>
      <trkpt lat="45.76212" lon="4.84083">
        <ele>166.5</ele>
        <time>2020-09-12T12:02:54Z</time>
      </trkpt>
      <trkpt lat="45.76206" lon="4.84083">
        <ele>166.6</ele>
        <time>2020-09-12T12:02:55Z</time>
      </trkpt>
      <trkpt lat="45.76201" lon="4.84082">
        <ele>166.7</ele>
        <time>2020-09-12T12:02:56Z</time>
      </trkpt>
      <trkpt lat="45.76195" lon="4.8408">
        <ele>166.8</ele>
        <time>2020-09-12T12:02:57Z</time>
      </trkpt>
      <trkpt lat="45.76189" lon="4.84079">
        <ele>166.9</ele>
        <time>2020-09-12T12:02:58Z</time>
      </trkpt>
      <trkpt lat="45.7618" lon="4.84079">
        <ele>167.2</ele>
        <time>2020-09-12T12:03:00Z</time>
      </trkpt>
      <trkpt lat="45.76175" lon="4.84078">
        <ele>167.4</ele>
        <time>2020-09-12T12:03:01Z</time>
      </trkpt>
      <trkpt lat="45.76169" lon="4.84078">
        <ele>167.6</ele>
        <time>2020-09-12T12:03:02Z</time>
      </trkpt>
      <trkpt lat="45.76163" lon="4.84076">
        <ele>167.7</ele>
        <time>2020-09-12T12:03:03Z</time>
      </trkpt>
      <trkpt lat="45.76157" lon="4.84075">
        <ele>167.5</ele>
        <time>2020-09-12T12:03:04Z</time>
      </trkpt>
      <trkpt lat="45.76151" lon="4.84076">
        <ele>167.4</ele>
        <time>2020-09-12T12:03:05Z</time>
      </trkpt>
      <trkpt lat="45.76145" lon="4.84074">
        <ele>167.3</ele>
        <time>2020-09-12T12:03:06Z</time>
      </trkpt>
      <trkpt lat="45.7614" lon="4.84075">
        <ele>167.3</ele>
        <time>2020-09-12T12:03:07Z</time>
      </trkpt>
      <trkpt lat="45.76133" lon="4.84076">
        <ele>167.3</ele>
        <time>2020-09-12T12:03:08Z</time>
      </trkpt>
      <trkpt lat="45.76127" lon="4.84074">
        <ele>167.3</ele>
        <time>2020-09-12T12:03:09Z</time>
      </trkpt>
      <trkpt lat="45.76121" lon="4.84074">
        <ele>167.4</ele>
        <time>2020-09-12T12:03:10Z</time>
      </trkpt>
      <trkpt lat="45.76111" lon="4.84074">
        <ele>167.5</ele>
        <time>2020-09-12T12:03:12Z</time>
      </trkpt>
      <trkpt lat="45.76105" lon="4.84073">
        <ele>167.6</ele>
        <time>2020-09-12T12:03:13Z</time>
      </trkpt>
      <trkpt lat="45.76099" lon="4.84072">
        <ele>167.8</ele>
        <time>2020-09-12T12:03:14Z</time>
      </trkpt>
      <trkpt lat="45.76093" lon="4.84072">
        <ele>167.9</ele>
        <time>2020-09-12T12:03:15Z</time>
      </trkpt>
      <trkpt lat="45.76088" lon="4.84072">
        <ele>168.1</ele>
        <time>2020-09-12T12:03:16Z</time>
      </trkpt>
      <trkpt lat="45.76083" lon="4.84072">
        <ele>168.2</ele>
        <time>2020-09-12T12:03:17Z</time>
      </trkpt>
      <trkpt lat="45.76077" lon="4.84072">
        <ele>168.1</ele>
        <time>2020-09-12T12:03:18Z</time>
      </trkpt>
      <trkpt lat="45.76072" lon="4.84071">
        <ele>167.9</ele>
        <time>2020-09-12T12:03:19Z</time>
      </trkpt>
      <trkpt lat="45.76066" lon="4.8407">
        <ele>167.8</ele>
        <time>2020-09-12T12:03:20Z</time>
      </trkpt>
      <trkpt lat="45.76061" lon="4.8407">
        <ele>167.7</ele>
        <time>2020-09-12T12:03:21Z</time>
      </trkpt>
      <trkpt lat="45.76054" lon="4.84069">
        <ele>167.6</ele>
        <time>2020-09-12T12:03:22Z</time>
      </trkpt>
      <trkpt lat="45.76049" lon="4.84069">
        <ele>167.5</ele>
        <time>2020-09-12T12:03:23Z</time>
      </trkpt>
      <trkpt lat="45.76043" lon="4.84069">
        <ele>167.5</ele>
        <time>2020-09-12T12:03:24Z</time>
      </trkpt>
      <trkpt lat="45.76032" lon="4.84068">
        <ele>167.6</ele>
        <time>2020-09-12T12:03:26Z</time>
      </trkpt>
      <trkpt lat="45.76026" lon="4.84068">
        <ele>167.7</ele>
        <time>2020-09-12T12:03:27Z</time>
      </trkpt>
      <trkpt lat="45.7602" lon="4.84068">
        <ele>167.9</ele>
        <time>2020-09-12T12:03:28Z</time>
      </trkpt>
      <trkpt lat="45.76008" lon="4.8407">
        <ele>168.4</ele>
        <time>2020-09-12T12:03:30Z</time>
      </trkpt>
      <trkpt lat="45.76002" lon="4.84072">
        <ele>168.7</ele>
        <time>2020-09-12T12:03:31Z</time>
      </trkpt>
      <trkpt lat="45.75997" lon="4.84072">
        <ele>169</ele>
        <time>2020-09-12T12:03:32Z</time>
      </trkpt>
      <trkpt lat="45.7599" lon="4.84071">
        <ele>168.8</ele>
        <time>2020-09-12T12:03:33Z</time>
      </trkpt>
      <trkpt lat="45.75984" lon="4.84069">
        <ele>168.6</ele>
        <time>2020-09-12T12:03:34Z</time>
      </trkpt>
      <trkpt lat="45.75975" lon="4.84064">
        <ele>168.3</ele>
        <time>2020-09-12T12:03:36Z</time>
      </trkpt>
      <trkpt lat="45.75968" lon="4.84064">
        <ele>168.4</ele>
        <time>2020-09-12T12:03:37Z</time>
      </trkpt>
      <trkpt lat="45.75963" lon="4.84062">
        <ele>168.4</ele>
        <time>2020-09-12T12:03:38Z</time>
      </trkpt>
      <trkpt lat="45.75955" lon="4.8406">
        <ele>168.4</ele>
        <time>2020-09-12T12:03:40Z</time>
      </trkpt>
      <trkpt lat="45.75948" lon="4.84059">
        <ele>168.5</ele>
        <time>2020-09-12T12:03:42Z</time>
      </trkpt>
      <trkpt lat="45.75942" lon="4.84058">
        <ele>168.6</ele>
        <time>2020-09-12T12:03:43Z</time>
      </trkpt>
      <trkpt lat="45.75937" lon="4.84057">
        <ele>168.7</ele>
        <time>2020-09-12T12:03:44Z</time>
      </trkpt>
      <trkpt lat="45.75931" lon="4.84055">
        <ele>168.8</ele>
        <time>2020-09-12T12:03:45Z</time>
      </trkpt>
      <trkpt lat="45.75926" lon="4.84055">
        <ele>168.9</ele>
        <time>2020-09-12T12:03:46Z</time>
      </trkpt>
      <trkpt lat="45.7592" lon="4.84054">
        <ele>168.9</ele>
        <time>2020-09-12T12:03:47Z</time>
      </trkpt>
      <trkpt lat="45.75914" lon="4.84051">
        <ele>169</ele>
        <time>2020-09-12T12:03:48Z</time>
      </trkpt>
      <trkpt lat="45.75908" lon="4.84049">
        <ele>168.7</ele>
        <time>2020-09-12T12:03:49Z</time>
      </trkpt>
      <trkpt lat="45.75903" lon="4.84048">
        <ele>168.6</ele>
        <time>2020-09-12T12:03:50Z</time>
      </trkpt>
      <trkpt lat="45.75897" lon="4.84047">
        <ele>168.5</ele>
        <time>2020-09-12T12:03:51Z</time>
      </trkpt>
      <trkpt lat="45.75891" lon="4.84046">
        <ele>168.3</ele>
        <time>2020-09-12T12:03:52Z</time>
      </trkpt>
      <trkpt lat="45.75886" lon="4.84044">
        <ele>168.2</ele>
        <time>2020-09-12T12:03:53Z</time>
      </trkpt>
      <trkpt lat="45.7588" lon="4.84043">
        <ele>168.1</ele>
        <time>2020-09-12T12:03:54Z</time>
      </trkpt>
      <trkpt lat="45.75875" lon="4.84042">
        <ele>168</ele>
        <time>2020-09-12T12:03:55Z</time>
      </trkpt>
      <trkpt lat="45.75868" lon="4.8404">
        <ele>167.9</ele>
        <time>2020-09-12T12:03:56Z</time>
      </trkpt>
      <trkpt lat="45.75862" lon="4.8404">
        <ele>167.8</ele>
        <time>2020-09-12T12:03:57Z</time>
      </trkpt>
      <trkpt lat="45.75856" lon="4.84037">
        <ele>167.6</ele>
        <time>2020-09-12T12:03:58Z</time>
      </trkpt>
      <trkpt lat="45.75851" lon="4.84034">
        <ele>167.5</ele>
        <time>2020-09-12T12:03:59Z</time>
      </trkpt>
      <trkpt lat="45.75845" lon="4.84032">
        <ele>167.3</ele>
        <time>2020-09-12T12:04:00Z</time>
      </trkpt>
      <trkpt lat="45.7584" lon="4.8403">
        <ele>167</ele>
        <time>2020-09-12T12:04:01Z</time>
      </trkpt>
      <trkpt lat="45.75834" lon="4.84029">
        <ele>166.9</ele>
        <time>2020-09-12T12:04:02Z</time>
      </trkpt>
      <trkpt lat="45.75828" lon="4.84027">
        <ele>167.6</ele>
        <time>2020-09-12T12:04:03Z</time>
      </trkpt>
      <trkpt lat="45.75821" lon="4.84025">
        <ele>167.5</ele>
        <time>2020-09-12T12:04:04Z</time>
      </trkpt>
      <trkpt lat="45.75816" lon="4.84023">
        <ele>167.6</ele>
        <time>2020-09-12T12:04:05Z</time>
      </trkpt>
      <trkpt lat="45.7581" lon="4.8402">
        <ele>167.7</ele>
        <time>2020-09-12T12:04:06Z</time>
      </trkpt>
      <trkpt lat="45.75803" lon="4.84017">
        <ele>167.8</ele>
        <time>2020-09-12T12:04:07Z</time>
      </trkpt>
      <trkpt lat="45.75798" lon="4.84014">
        <ele>167.8</ele>
        <time>2020-09-12T12:04:08Z</time>
      </trkpt>
      <trkpt lat="45.75792" lon="4.84012">
        <ele>167.9</ele>
        <time>2020-09-12T12:04:09Z</time>
      </trkpt>
      <trkpt lat="45.75785" lon="4.8401">
        <ele>167.9</ele>
        <time>2020-09-12T12:04:10Z</time>
      </trkpt>
      <trkpt lat="45.75779" lon="4.84008">
        <ele>167.9</ele>
        <time>2020-09-12T12:04:11Z</time>
      </trkpt>
      <trkpt lat="45.75773" lon="4.84008">
        <ele>167.8</ele>
        <time>2020-09-12T12:04:12Z</time>
      </trkpt>
      <trkpt lat="45.75766" lon="4.84005">
        <ele>167.5</ele>
        <time>2020-09-12T12:04:13Z</time>
      </trkpt>
      <trkpt lat="45.7576" lon="4.84003">
        <ele>167.1</ele>
        <time>2020-09-12T12:04:14Z</time>
      </trkpt>
      <trkpt lat="45.75754" lon="4.84">
        <ele>166.5</ele>
        <time>2020-09-12T12:04:15Z</time>
      </trkpt>
      <trkpt lat="45.75747" lon="4.83997">
        <ele>165.9</ele>
        <time>2020-09-12T12:04:16Z</time>
      </trkpt>
      <trkpt lat="45.75741" lon="4.83994">
        <ele>165.7</ele>
        <time>2020-09-12T12:04:17Z</time>
      </trkpt>
      <trkpt lat="45.75735" lon="4.83992">
        <ele>165.6</ele>
        <time>2020-09-12T12:04:18Z</time>
      </trkpt>
      <trkpt lat="45.75729" lon="4.83988">
        <ele>165.5</ele>
        <time>2020-09-12T12:04:19Z</time>
      </trkpt>
      <trkpt lat="45.75722" lon="4.83984">
        <ele>165.4</ele>
        <time>2020-09-12T12:04:20Z</time>
      </trkpt>
      <trkpt lat="45.75716" lon="4.83981">
        <ele>165.4</ele>
        <time>2020-09-12T12:04:21Z</time>
      </trkpt>
      <trkpt lat="45.7571" lon="4.83978">
        <ele>165.4</ele>
        <time>2020-09-12T12:04:22Z</time>
      </trkpt>
      <trkpt lat="45.75704" lon="4.83974">
        <ele>165.3</ele>
        <time>2020-09-12T12:04:23Z</time>
      </trkpt>
      <trkpt lat="45.75698" lon="4.83971">
        <ele>165.2</ele>
        <time>2020-09-12T12:04:24Z</time>
      </trkpt>
      <trkpt lat="45.75692" lon="4.83967">
        <ele>165.1</ele>
        <time>2020-09-12T12:04:25Z</time>
      </trkpt>
      <trkpt lat="45.75686" lon="4.83964">
        <ele>164.9</ele>
        <time>2020-09-12T12:04:26Z</time>
      </trkpt>
      <trkpt lat="45.75681" lon="4.8396">
        <ele>164.6</ele>
        <time>2020-09-12T12:04:27Z</time>
      </trkpt>
      <trkpt lat="45.75675" lon="4.83957">
        <ele>164.4</ele>
        <time>2020-09-12T12:04:28Z</time>
      </trkpt>
      <trkpt lat="45.75669" lon="4.83953">
        <ele>164</ele>
        <time>2020-09-12T12:04:29Z</time>
      </trkpt>
      <trkpt lat="45.75661" lon="4.83949">
        <ele>164.6</ele>
        <time>2020-09-12T12:04:30Z</time>
      </trkpt>
      <trkpt lat="45.75656" lon="4.83947">
        <ele>164.5</ele>
        <time>2020-09-12T12:04:31Z</time>
      </trkpt>
      <trkpt lat="45.7565" lon="4.83944">
        <ele>164.5</ele>
        <time>2020-09-12T12:04:32Z</time>
      </trkpt>
      <trkpt lat="45.75644" lon="4.83941">
        <ele>164.5</ele>
        <time>2020-09-12T12:04:33Z</time>
      </trkpt>
      <trkpt lat="45.75638" lon="4.83938">
        <ele>164.6</ele>
        <time>2020-09-12T12:04:34Z</time>
      </trkpt>
      <trkpt lat="45.75632" lon="4.83935">
        <ele>164.8</ele>
        <time>2020-09-12T12:04:35Z</time>
      </trkpt>
      <trkpt lat="45.75626" lon="4.83926">
        <ele>164.8</ele>
        <time>2020-09-12T12:04:37Z</time>
      </trkpt>
      <trkpt lat="45.75618" lon="4.83924">
        <ele>165.1</ele>
        <time>2020-09-12T12:04:38Z</time>
      </trkpt>
      <trkpt lat="45.75612" lon="4.83921">
        <ele>165.2</ele>
        <time>2020-09-12T12:04:39Z</time>
      </trkpt>
      <trkpt lat="45.75605" lon="4.83918">
        <ele>165.3</ele>
        <time>2020-09-12T12:04:40Z</time>
      </trkpt>
      <trkpt lat="45.75599" lon="4.83916">
        <ele>164.1</ele>
        <time>2020-09-12T12:04:41Z</time>
      </trkpt>
      <trkpt lat="45.75591" lon="4.83913">
        <ele>164.5</ele>
        <time>2020-09-12T12:04:42Z</time>
      </trkpt>
      <trkpt lat="45.75585" lon="4.8391">
        <ele>164.6</ele>
        <time>2020-09-12T12:04:43Z</time>
      </trkpt>
      <trkpt lat="45.7558" lon="4.83906">
        <ele>165.3</ele>
        <time>2020-09-12T12:04:44Z</time>
      </trkpt>
      <trkpt lat="45.75573" lon="4.83903">
        <ele>165.4</ele>
        <time>2020-09-12T12:04:45Z</time>
      </trkpt>
      <trkpt lat="45.75567" lon="4.839">
        <ele>165.5</ele>
        <time>2020-09-12T12:04:46Z</time>
      </trkpt>
      <trkpt lat="45.75562" lon="4.83897">
        <ele>165.6</ele>
        <time>2020-09-12T12:04:47Z</time>
      </trkpt>
      <trkpt lat="45.75557" lon="4.83893">
        <ele>165.7</ele>
        <time>2020-09-12T12:04:48Z</time>
      </trkpt>
      <trkpt lat="45.75552" lon="4.83887">
        <ele>165.7</ele>
        <time>2020-09-12T12:04:49Z</time>
      </trkpt>
      <trkpt lat="45.75547" lon="4.83882">
        <ele>165.7</ele>
        <time>2020-09-12T12:04:50Z</time>
      </trkpt>
      <trkpt lat="45.75542" lon="4.83877">
        <ele>165.8</ele>
        <time>2020-09-12T12:04:51Z</time>
      </trkpt>
      <trkpt lat="45.75538" lon="4.83871">
        <ele>165.7</ele>
        <time>2020-09-12T12:04:52Z</time>
      </trkpt>
      <trkpt lat="45.75533" lon="4.83867">
        <ele>165.7</ele>
        <time>2020-09-12T12:04:53Z</time>
      </trkpt>
      <trkpt lat="45.75527" lon="4.83864">
        <ele>165.7</ele>
        <time>2020-09-12T12:04:54Z</time>
      </trkpt>
      <trkpt lat="45.75522" lon="4.8386">
        <ele>165.7</ele>
        <time>2020-09-12T12:04:55Z</time>
      </trkpt>
      <trkpt lat="45.75517" lon="4.83858">
        <ele>165.6</ele>
        <time>2020-09-12T12:04:56Z</time>
      </trkpt>
      <trkpt lat="45.75511" lon="4.83854">
        <ele>165.6</ele>
        <time>2020-09-12T12:04:57Z</time>
      </trkpt>
      <trkpt lat="45.75505" lon="4.83851">
        <ele>165.5</ele>
        <time>2020-09-12T12:04:58Z</time>
      </trkpt>
      <trkpt lat="45.75499" lon="4.83847">
        <ele>166.2</ele>
        <time>2020-09-12T12:04:59Z</time>
      </trkpt>
      <trkpt lat="45.75493" lon="4.83843">
        <ele>166.1</ele>
        <time>2020-09-12T12:05:00Z</time>
      </trkpt>
      <trkpt lat="45.75488" lon="4.8384">
        <ele>166.2</ele>
        <time>2020-09-12T12:05:01Z</time>
      </trkpt>
      <trkpt lat="45.75483" lon="4.83836">
        <ele>166.3</ele>
        <time>2020-09-12T12:05:02Z</time>
      </trkpt>
      <trkpt lat="45.75477" lon="4.83832">
        <ele>165</ele>
        <time>2020-09-12T12:05:03Z</time>
      </trkpt>
      <trkpt lat="45.75472" lon="4.83828">
        <ele>165</ele>
        <time>2020-09-12T12:05:04Z</time>
      </trkpt>
      <trkpt lat="45.75466" lon="4.83824">
        <ele>165</ele>
        <time>2020-09-12T12:05:05Z</time>
      </trkpt>
      <trkpt lat="45.75461" lon="4.8382">
        <ele>165</ele>
        <time>2020-09-12T12:05:06Z</time>
      </trkpt>
      <trkpt lat="45.75456" lon="4.83816">
        <ele>165</ele>
        <time>2020-09-12T12:05:07Z</time>
      </trkpt>
      <trkpt lat="45.7545" lon="4.83812">
        <ele>165</ele>
        <time>2020-09-12T12:05:08Z</time>
      </trkpt>
      <trkpt lat="45.75444" lon="4.83808">
        <ele>165</ele>
        <time>2020-09-12T12:05:09Z</time>
      </trkpt>
      <trkpt lat="45.75439" lon="4.83805">
        <ele>165</ele>
        <time>2020-09-12T12:05:10Z</time>
      </trkpt>
      <trkpt lat="45.75434" lon="4.83802">
        <ele>165</ele>
        <time>2020-09-12T12:05:11Z</time>
      </trkpt>
      <trkpt lat="45.75429" lon="4.83799">
        <ele>165</ele>
        <time>2020-09-12T12:05:12Z</time>
      </trkpt>
      <trkpt lat="45.75423" lon="4.83795">
        <ele>165</ele>
        <time>2020-09-12T12:05:13Z</time>
      </trkpt>
      <trkpt lat="45.75418" lon="4.8379">
        <ele>165</ele>
        <time>2020-09-12T12:05:14Z</time>
      </trkpt>
      <trkpt lat="45.75412" lon="4.83785">
        <ele>166.5</ele>
        <time>2020-09-12T12:05:15Z</time>
      </trkpt>
      <trkpt lat="45.75407" lon="4.83783">
        <ele>166.6</ele>
        <time>2020-09-12T12:05:16Z</time>
      </trkpt>
      <trkpt lat="45.75401" lon="4.83779">
        <ele>166.6</ele>
        <time>2020-09-12T12:05:17Z</time>
      </trkpt>
      <trkpt lat="45.75396" lon="4.83775">
        <ele>166.7</ele>
        <time>2020-09-12T12:05:18Z</time>
      </trkpt>
      <trkpt lat="45.7539" lon="4.83771">
        <ele>166.8</ele>
        <time>2020-09-12T12:05:19Z</time>
      </trkpt>
      <trkpt lat="45.75384" lon="4.83765">
        <ele>166.8</ele>
        <time>2020-09-12T12:05:20Z</time>
      </trkpt>
      <trkpt lat="45.75378" lon="4.8376">
        <ele>166.9</ele>
        <time>2020-09-12T12:05:21Z</time>
      </trkpt>
      <trkpt lat="45.75372" lon="4.83756">
        <ele>167</ele>
        <time>2020-09-12T12:05:22Z</time>
      </trkpt>
      <trkpt lat="45.75367" lon="4.83751">
        <ele>167.1</ele>
        <time>2020-09-12T12:05:23Z</time>
      </trkpt>
      <trkpt lat="45.75361" lon="4.83747">
        <ele>166</ele>
        <time>2020-09-12T12:05:24Z</time>
      </trkpt>
      <trkpt lat="45.75356" lon="4.83744">
        <ele>166</ele>
        <time>2020-09-12T12:05:25Z</time>
      </trkpt>
      <trkpt lat="45.75351" lon="4.8374">
        <ele>166.1</ele>
        <time>2020-09-12T12:05:26Z</time>
      </trkpt>
      <trkpt lat="45.75346" lon="4.83736">
        <ele>166.2</ele>
        <time>2020-09-12T12:05:27Z</time>
      </trkpt>
      <trkpt lat="45.7534" lon="4.83732">
        <ele>166.2</ele>
        <time>2020-09-12T12:05:28Z</time>
      </trkpt>
      <trkpt lat="45.75335" lon="4.83727">
        <ele>166.1</ele>
        <time>2020-09-12T12:05:29Z</time>
      </trkpt>
      <trkpt lat="45.75329" lon="4.83723">
        <ele>166.6</ele>
        <time>2020-09-12T12:05:30Z</time>
      </trkpt>
      <trkpt lat="45.75324" lon="4.83719">
        <ele>166.5</ele>
        <time>2020-09-12T12:05:31Z</time>
      </trkpt>
      <trkpt lat="45.75318" lon="4.83715">
        <ele>166.5</ele>
        <time>2020-09-12T12:05:32Z</time>
      </trkpt>
      <trkpt lat="45.75314" lon="4.8371">
        <ele>166.4</ele>
        <time>2020-09-12T12:05:33Z</time>
      </trkpt>
      <trkpt lat="45.75309" lon="4.83705">
        <ele>166.3</ele>
        <time>2020-09-12T12:05:34Z</time>
      </trkpt>
      <trkpt lat="45.75304" lon="4.83701">
        <ele>166.3</ele>
        <time>2020-09-12T12:05:35Z</time>
      </trkpt>
      <trkpt lat="45.75298" lon="4.83697">
        <ele>166.3</ele>
        <time>2020-09-12T12:05:36Z</time>
      </trkpt>
      <trkpt lat="45.75293" lon="4.83693">
        <ele>166.2</ele>
        <time>2020-09-12T12:05:37Z</time>
      </trkpt>
      <trkpt lat="45.75287" lon="4.83689">
        <ele>166.2</ele>
        <time>2020-09-12T12:05:38Z</time>
      </trkpt>
      <trkpt lat="45.75281" lon="4.83683">
        <ele>166.1</ele>
        <time>2020-09-12T12:05:39Z</time>
      </trkpt>
      <trkpt lat="45.75277" lon="4.83679">
        <ele>166</ele>
        <time>2020-09-12T12:05:40Z</time>
      </trkpt>
      <trkpt lat="45.75271" lon="4.83675">
        <ele>165.9</ele>
        <time>2020-09-12T12:05:41Z</time>
      </trkpt>
      <trkpt lat="45.75265" lon="4.83672">
        <ele>165.7</ele>
        <time>2020-09-12T12:05:42Z</time>
      </trkpt>
      <trkpt lat="45.7526" lon="4.8367">
        <ele>165.5</ele>
        <time>2020-09-12T12:05:43Z</time>
      </trkpt>
      <trkpt lat="45.75254" lon="4.83667">
        <ele>165.2</ele>
        <time>2020-09-12T12:05:44Z</time>
      </trkpt>
      <trkpt lat="45.75249" lon="4.83667">
        <ele>165.2</ele>
        <time>2020-09-12T12:05:45Z</time>
      </trkpt>
      <trkpt lat="45.75242" lon="4.83667">
        <ele>165.9</ele>
        <time>2020-09-12T12:05:46Z</time>
      </trkpt>
      <trkpt lat="45.75237" lon="4.83668">
        <ele>166.4</ele>
        <time>2020-09-12T12:05:47Z</time>
      </trkpt>
      <trkpt lat="45.75225" lon="4.83673">
        <ele>167.2</ele>
        <time>2020-09-12T12:05:49Z</time>
      </trkpt>
      <trkpt lat="45.7522" lon="4.83675">
        <ele>167.5</ele>
        <time>2020-09-12T12:05:50Z</time>
      </trkpt>
      <trkpt lat="45.75214" lon="4.83675">
        <ele>167.7</ele>
        <time>2020-09-12T12:05:51Z</time>
      </trkpt>
      <trkpt lat="45.75208" lon="4.83673">
        <ele>167.8</ele>
        <time>2020-09-12T12:05:52Z</time>
      </trkpt>
      <trkpt lat="45.75203" lon="4.8367">
        <ele>167.9</ele>
        <time>2020-09-12T12:05:53Z</time>
      </trkpt>
      <trkpt lat="45.75191" lon="4.83655">
        <ele>166.4</ele>
        <time>2020-09-12T12:05:56Z</time>
      </trkpt>
      <trkpt lat="45.75185" lon="4.83652">
        <ele>166.5</ele>
        <time>2020-09-12T12:05:57Z</time>
      </trkpt>
      <trkpt lat="45.7518" lon="4.83644">
        <ele>166.4</ele>
        <time>2020-09-12T12:05:58Z</time>
      </trkpt>
      <trkpt lat="45.75175" lon="4.83638">
        <ele>166.3</ele>
        <time>2020-09-12T12:05:59Z</time>
      </trkpt>
      <trkpt lat="45.75169" lon="4.83631">
        <ele>166.2</ele>
        <time>2020-09-12T12:06:00Z</time>
      </trkpt>
      <trkpt lat="45.75165" lon="4.83625">
        <ele>166.8</ele>
        <time>2020-09-12T12:06:01Z</time>
      </trkpt>
      <trkpt lat="45.75161" lon="4.83619">
        <ele>166.6</ele>
        <time>2020-09-12T12:06:02Z</time>
      </trkpt>
      <trkpt lat="45.75157" lon="4.83614">
        <ele>166.5</ele>
        <time>2020-09-12T12:06:03Z</time>
      </trkpt>
      <trkpt lat="45.75153" lon="4.8361">
        <ele>166.4</ele>
        <time>2020-09-12T12:06:04Z</time>
      </trkpt>
      <trkpt lat="45.75148" lon="4.83607">
        <ele>166.4</ele>
        <time>2020-09-12T12:06:05Z</time>
      </trkpt>
      <trkpt lat="45.75143" lon="4.83603">
        <ele>166.4</ele>
        <time>2020-09-12T12:06:06Z</time>
      </trkpt>
      <trkpt lat="45.75138" lon="4.83599">
        <ele>166.3</ele>
        <time>2020-09-12T12:06:07Z</time>
      </trkpt>
      <trkpt lat="45.75132" lon="4.83596">
        <ele>166.3</ele>
        <time>2020-09-12T12:06:08Z</time>
      </trkpt>
      <trkpt lat="45.75127" lon="4.83592">
        <ele>166.3</ele>
        <time>2020-09-12T12:06:09Z</time>
      </trkpt>
      <trkpt lat="45.75122" lon="4.83589">
        <ele>166.3</ele>
        <time>2020-09-12T12:06:10Z</time>
      </trkpt>
      <trkpt lat="45.75117" lon="4.83585">
        <ele>166.2</ele>
        <time>2020-09-12T12:06:11Z</time>
      </trkpt>
      <trkpt lat="45.75112" lon="4.83581">
        <ele>165</ele>
        <time>2020-09-12T12:06:12Z</time>
      </trkpt>
      <trkpt lat="45.75106" lon="4.83576">
        <ele>165</ele>
        <time>2020-09-12T12:06:13Z</time>
      </trkpt>
      <trkpt lat="45.75101" lon="4.83573">
        <ele>165</ele>
        <time>2020-09-12T12:06:14Z</time>
      </trkpt>
      <trkpt lat="45.75095" lon="4.83569">
        <ele>165</ele>
        <time>2020-09-12T12:06:15Z</time>
      </trkpt>
      <trkpt lat="45.7509" lon="4.83565">
        <ele>165</ele>
        <time>2020-09-12T12:06:16Z</time>
      </trkpt>
      <trkpt lat="45.75085" lon="4.8356">
        <ele>165</ele>
        <time>2020-09-12T12:06:17Z</time>
      </trkpt>
      <trkpt lat="45.7508" lon="4.83556">
        <ele>164.7</ele>
        <time>2020-09-12T12:06:18Z</time>
      </trkpt>
      <trkpt lat="45.75075" lon="4.83552">
        <ele>164.7</ele>
        <time>2020-09-12T12:06:19Z</time>
      </trkpt>
      <trkpt lat="45.75069" lon="4.83548">
        <ele>164.7</ele>
        <time>2020-09-12T12:06:20Z</time>
      </trkpt>
      <trkpt lat="45.75065" lon="4.83544">
        <ele>164.6</ele>
        <time>2020-09-12T12:06:21Z</time>
      </trkpt>
      <trkpt lat="45.75059" lon="4.83539">
        <ele>164.6</ele>
        <time>2020-09-12T12:06:22Z</time>
      </trkpt>
      <trkpt lat="45.75054" lon="4.83533">
        <ele>164.5</ele>
        <time>2020-09-12T12:06:23Z</time>
      </trkpt>
      <trkpt lat="45.75048" lon="4.83527">
        <ele>164.5</ele>
        <time>2020-09-12T12:06:24Z</time>
      </trkpt>
      <trkpt lat="45.75043" lon="4.83522">
        <ele>164.4</ele>
        <time>2020-09-12T12:06:25Z</time>
      </trkpt>
      <trkpt lat="45.75039" lon="4.83516">
        <ele>164.3</ele>
        <time>2020-09-12T12:06:26Z</time>
      </trkpt>
      <trkpt lat="45.75033" lon="4.8351">
        <ele>164.2</ele>
        <time>2020-09-12T12:06:27Z</time>
      </trkpt>
      <trkpt lat="45.75028" lon="4.83505">
        <ele>164.1</ele>
        <time>2020-09-12T12:06:28Z</time>
      </trkpt>
      <trkpt lat="45.75022" lon="4.83499">
        <ele>163.9</ele>
        <time>2020-09-12T12:06:29Z</time>
      </trkpt>
      <trkpt lat="45.75017" lon="4.83493">
        <ele>163.8</ele>
        <time>2020-09-12T12:06:30Z</time>
      </trkpt>
      <trkpt lat="45.75012" lon="4.83488">
        <ele>163.8</ele>
        <time>2020-09-12T12:06:31Z</time>
      </trkpt>
      <trkpt lat="45.75006" lon="4.83484">
        <ele>163.8</ele>
        <time>2020-09-12T12:06:32Z</time>
      </trkpt>
      <trkpt lat="45.74994" lon="4.83475">
        <ele>164.5</ele>
        <time>2020-09-12T12:06:34Z</time>
      </trkpt>
      <trkpt lat="45.74989" lon="4.83471">
        <ele>164.7</ele>
        <time>2020-09-12T12:06:35Z</time>
      </trkpt>
      <trkpt lat="45.74983" lon="4.83468">
        <ele>164.8</ele>
        <time>2020-09-12T12:06:36Z</time>
      </trkpt>
      <trkpt lat="45.74978" lon="4.83461">
        <ele>165</ele>
        <time>2020-09-12T12:06:37Z</time>
      </trkpt>
      <trkpt lat="45.74972" lon="4.83458">
        <ele>165.1</ele>
        <time>2020-09-12T12:06:38Z</time>
      </trkpt>
      <trkpt lat="45.74966" lon="4.83453">
        <ele>165.1</ele>
        <time>2020-09-12T12:06:39Z</time>
      </trkpt>
      <trkpt lat="45.7496" lon="4.83449">
        <ele>165.1</ele>
        <time>2020-09-12T12:06:40Z</time>
      </trkpt>
      <trkpt lat="45.74954" lon="4.83444">
        <ele>165.2</ele>
        <time>2020-09-12T12:06:41Z</time>
      </trkpt>
      <trkpt lat="45.74949" lon="4.8344">
        <ele>165.1</ele>
        <time>2020-09-12T12:06:42Z</time>
      </trkpt>
      <trkpt lat="45.74943" lon="4.83436">
        <ele>165</ele>
        <time>2020-09-12T12:06:43Z</time>
      </trkpt>
      <trkpt lat="45.74937" lon="4.83431">
        <ele>164.9</ele>
        <time>2020-09-12T12:06:44Z</time>
      </trkpt>
      <trkpt lat="45.74932" lon="4.83427">
        <ele>164.8</ele>
        <time>2020-09-12T12:06:45Z</time>
      </trkpt>
      <trkpt lat="45.74927" lon="4.83422">
        <ele>164.6</ele>
        <time>2020-09-12T12:06:46Z</time>
      </trkpt>
      <trkpt lat="45.74921" lon="4.83416">
        <ele>164.1</ele>
        <time>2020-09-12T12:06:47Z</time>
      </trkpt>
      <trkpt lat="45.74915" lon="4.83413">
        <ele>164.4</ele>
        <time>2020-09-12T12:06:48Z</time>
      </trkpt>
      <trkpt lat="45.7491" lon="4.83408">
        <ele>164.8</ele>
        <time>2020-09-12T12:06:49Z</time>
      </trkpt>
      <trkpt lat="45.74904" lon="4.83404">
        <ele>165.2</ele>
        <time>2020-09-12T12:06:50Z</time>
      </trkpt>
      <trkpt lat="45.74898" lon="4.834">
        <ele>165.4</ele>
        <time>2020-09-12T12:06:51Z</time>
      </trkpt>
      <trkpt lat="45.74893" lon="4.83396">
        <ele>165.6</ele>
        <time>2020-09-12T12:06:52Z</time>
      </trkpt>
      <trkpt lat="45.74888" lon="4.83392">
        <ele>165.8</ele>
        <time>2020-09-12T12:06:53Z</time>
      </trkpt>
      <trkpt lat="45.74883" lon="4.83389">
        <ele>165.9</ele>
        <time>2020-09-12T12:06:54Z</time>
      </trkpt>
      <trkpt lat="45.74877" lon="4.83385">
        <ele>166.1</ele>
        <time>2020-09-12T12:06:55Z</time>
      </trkpt>
      <trkpt lat="45.74872" lon="4.8338">
        <ele>166.1</ele>
        <time>2020-09-12T12:06:56Z</time>
      </trkpt>
      <trkpt lat="45.74868" lon="4.83375">
        <ele>166.1</ele>
        <time>2020-09-12T12:06:57Z</time>
      </trkpt>
      <trkpt lat="45.74863" lon="4.83371">
        <ele>166.1</ele>
        <time>2020-09-12T12:06:58Z</time>
      </trkpt>
      <trkpt lat="45.74857" lon="4.83366">
        <ele>166.1</ele>
        <time>2020-09-12T12:06:59Z</time>
      </trkpt>
      <trkpt lat="45.74852" lon="4.83362">
        <ele>166</ele>
        <time>2020-09-12T12:07:00Z</time>
      </trkpt>
      <trkpt lat="45.74847" lon="4.83357">
        <ele>165.9</ele>
        <time>2020-09-12T12:07:01Z</time>
      </trkpt>
      <trkpt lat="45.74842" lon="4.83355">
        <ele>165.9</ele>
        <time>2020-09-12T12:07:02Z</time>
      </trkpt>
      <trkpt lat="45.74833" lon="4.83356">
        <ele>168.8</ele>
        <time>2020-09-12T12:07:04Z</time>
      </trkpt>
      <trkpt lat="45.74827" lon="4.83357">
        <ele>169.1</ele>
        <time>2020-09-12T12:07:06Z</time>
      </trkpt>
      <trkpt lat="45.74821" lon="4.83356">
        <ele>169.3</ele>
        <time>2020-09-12T12:07:13Z</time>
      </trkpt>
      <trkpt lat="45.74817" lon="4.83355">
        <ele>169.5</ele>
        <time>2020-09-12T12:07:31Z</time>
      </trkpt>
      <trkpt lat="45.74811" lon="4.83358">
        <ele>170</ele>
        <time>2020-09-12T12:07:38Z</time>
      </trkpt>
      <trkpt lat="45.74809" lon="4.83363">
        <ele>170.4</ele>
        <time>2020-09-12T12:07:41Z</time>
      </trkpt>
      <trkpt lat="45.74809" lon="4.8337">
        <ele>170.7</ele>
        <time>2020-09-12T12:07:43Z</time>
      </trkpt>
      <trkpt lat="45.74807" lon="4.83379">
        <ele>171.1</ele>
        <time>2020-09-12T12:07:45Z</time>
      </trkpt>
      <trkpt lat="45.74804" lon="4.83385">
        <ele>171.4</ele>
        <time>2020-09-12T12:07:47Z</time>
      </trkpt>
      <trkpt lat="45.748" lon="4.8339">
        <ele>171.8</ele>
        <time>2020-09-12T12:07:49Z</time>
      </trkpt>
      <trkpt lat="45.74795" lon="4.83393">
        <ele>172.1</ele>
        <time>2020-09-12T12:07:51Z</time>
      </trkpt>
      <trkpt lat="45.74789" lon="4.83395">
        <ele>172.6</ele>
        <time>2020-09-12T12:07:53Z</time>
      </trkpt>
      <trkpt lat="45.74783" lon="4.83399">
        <ele>173.1</ele>
        <time>2020-09-12T12:07:56Z</time>
      </trkpt>
      <trkpt lat="45.7478" lon="4.83408">
        <ele>173.6</ele>
        <time>2020-09-12T12:07:59Z</time>
      </trkpt>
      <trkpt lat="45.74779" lon="4.83416">
        <ele>173.9</ele>
        <time>2020-09-12T12:08:02Z</time>
      </trkpt>
      <trkpt lat="45.74777" lon="4.83422">
        <ele>176.2</ele>
        <time>2020-09-12T12:08:05Z</time>
      </trkpt>
      <trkpt lat="45.74775" lon="4.8343">
        <ele>176.2</ele>
        <time>2020-09-12T12:08:08Z</time>
      </trkpt>
      <trkpt lat="45.74772" lon="4.83435">
        <ele>176.3</ele>
        <time>2020-09-12T12:08:10Z</time>
      </trkpt>
      <trkpt lat="45.74767" lon="4.83439">
        <ele>176.4</ele>
        <time>2020-09-12T12:08:12Z</time>
      </trkpt>
      <trkpt lat="45.74762" lon="4.83444">
        <ele>176.4</ele>
        <time>2020-09-12T12:08:14Z</time>
      </trkpt>
      <trkpt lat="45.74758" lon="4.83453">
        <ele>176.3</ele>
        <time>2020-09-12T12:08:16Z</time>
      </trkpt>
      <trkpt lat="45.74756" lon="4.83464">
        <ele>176.1</ele>
        <time>2020-09-12T12:08:18Z</time>
      </trkpt>
      <trkpt lat="45.74754" lon="4.83473">
        <ele>176</ele>
        <time>2020-09-12T12:08:19Z</time>
      </trkpt>
      <trkpt lat="45.74749" lon="4.83484">
        <ele>176.2</ele>
        <time>2020-09-12T12:08:21Z</time>
      </trkpt>
      <trkpt lat="45.74748" lon="4.83494">
        <ele>176.1</ele>
        <time>2020-09-12T12:08:22Z</time>
      </trkpt>
      <trkpt lat="45.74742" lon="4.83509">
        <ele>175.6</ele>
        <time>2020-09-12T12:08:24Z</time>
      </trkpt>
      <trkpt lat="45.7474" lon="4.83516">
        <ele>175.5</ele>
        <time>2020-09-12T12:08:25Z</time>
      </trkpt>
      <trkpt lat="45.74739" lon="4.83525">
        <ele>175.4</ele>
        <time>2020-09-12T12:08:26Z</time>
      </trkpt>
      <trkpt lat="45.74737" lon="4.83532">
        <ele>175.3</ele>
        <time>2020-09-12T12:08:27Z</time>
      </trkpt>
      <trkpt lat="45.74735" lon="4.83539">
        <ele>175.3</ele>
        <time>2020-09-12T12:08:28Z</time>
      </trkpt>
      <trkpt lat="45.74733" lon="4.83546">
        <ele>175.3</ele>
        <time>2020-09-12T12:08:29Z</time>
      </trkpt>
      <trkpt lat="45.7473" lon="4.83554">
        <ele>175.3</ele>
        <time>2020-09-12T12:08:30Z</time>
      </trkpt>
      <trkpt lat="45.74727" lon="4.83562">
        <ele>175.3</ele>
        <time>2020-09-12T12:08:31Z</time>
      </trkpt>
      <trkpt lat="45.74724" lon="4.83569">
        <ele>175.3</ele>
        <time>2020-09-12T12:08:32Z</time>
      </trkpt>
      <trkpt lat="45.74721" lon="4.83574">
        <ele>175.2</ele>
        <time>2020-09-12T12:08:33Z</time>
      </trkpt>
      <trkpt lat="45.74719" lon="4.83583">
        <ele>175.2</ele>
        <time>2020-09-12T12:08:34Z</time>
      </trkpt>
      <trkpt lat="45.74718" lon="4.83589">
        <ele>174.5</ele>
        <time>2020-09-12T12:08:35Z</time>
      </trkpt>
      <trkpt lat="45.74715" lon="4.83597">
        <ele>174.4</ele>
        <time>2020-09-12T12:08:37Z</time>
      </trkpt>
      <trkpt lat="45.74712" lon="4.83608">
        <ele>174.2</ele>
        <time>2020-09-12T12:08:39Z</time>
      </trkpt>
      <trkpt lat="45.74711" lon="4.83616">
        <ele>174.1</ele>
        <time>2020-09-12T12:08:40Z</time>
      </trkpt>
      <trkpt lat="45.74709" lon="4.83622">
        <ele>174</ele>
        <time>2020-09-12T12:08:41Z</time>
      </trkpt>
      <trkpt lat="45.74705" lon="4.83634">
        <ele>173.9</ele>
        <time>2020-09-12T12:08:43Z</time>
      </trkpt>
      <trkpt lat="45.74704" lon="4.83641">
        <ele>173.8</ele>
        <time>2020-09-12T12:08:44Z</time>
      </trkpt>
      <trkpt lat="45.74702" lon="4.83649">
        <ele>173.7</ele>
        <time>2020-09-12T12:08:45Z</time>
      </trkpt>
      <trkpt lat="45.74699" lon="4.83656">
        <ele>173.6</ele>
        <time>2020-09-12T12:08:46Z</time>
      </trkpt>
      <trkpt lat="45.74696" lon="4.83663">
        <ele>173.6</ele>
        <time>2020-09-12T12:08:47Z</time>
      </trkpt>
      <trkpt lat="45.74694" lon="4.8367">
        <ele>173.4</ele>
        <time>2020-09-12T12:08:48Z</time>
      </trkpt>
      <trkpt lat="45.74691" lon="4.83677">
        <ele>173.5</ele>
        <time>2020-09-12T12:08:49Z</time>
      </trkpt>
      <trkpt lat="45.74689" lon="4.83684">
        <ele>173.5</ele>
        <time>2020-09-12T12:08:50Z</time>
      </trkpt>
      <trkpt lat="45.74686" lon="4.83691">
        <ele>173.6</ele>
        <time>2020-09-12T12:08:51Z</time>
      </trkpt>
      <trkpt lat="45.74683" lon="4.83698">
        <ele>173.7</ele>
        <time>2020-09-12T12:08:52Z</time>
      </trkpt>
      <trkpt lat="45.7468" lon="4.83706">
        <ele>173.8</ele>
        <time>2020-09-12T12:08:53Z</time>
      </trkpt>
      <trkpt lat="45.74678" lon="4.83713">
        <ele>173.9</ele>
        <time>2020-09-12T12:08:54Z</time>
      </trkpt>
      <trkpt lat="45.74675" lon="4.83721">
        <ele>174</ele>
        <time>2020-09-12T12:08:55Z</time>
      </trkpt>
      <trkpt lat="45.74673" lon="4.83728">
        <ele>174.2</ele>
        <time>2020-09-12T12:08:56Z</time>
      </trkpt>
      <trkpt lat="45.7467" lon="4.83737">
        <ele>174.5</ele>
        <time>2020-09-12T12:08:58Z</time>
      </trkpt>
      <trkpt lat="45.74666" lon="4.83744">
        <ele>174.4</ele>
        <time>2020-09-12T12:09:00Z</time>
      </trkpt>
      <trkpt lat="45.7466" lon="4.8375">
        <ele>174.2</ele>
        <time>2020-09-12T12:09:02Z</time>
      </trkpt>
      <trkpt lat="45.74654" lon="4.83761">
        <ele>174</ele>
        <time>2020-09-12T12:09:04Z</time>
      </trkpt>
      <trkpt lat="45.7465" lon="4.83772">
        <ele>173.6</ele>
        <time>2020-09-12T12:09:06Z</time>
      </trkpt>
      <trkpt lat="45.74648" lon="4.83779">
        <ele>173.5</ele>
        <time>2020-09-12T12:09:07Z</time>
      </trkpt>
      <trkpt lat="45.74644" lon="4.83784">
        <ele>173.4</ele>
        <time>2020-09-12T12:09:08Z</time>
      </trkpt>
      <trkpt lat="45.74642" lon="4.83791">
        <ele>173.4</ele>
        <time>2020-09-12T12:09:09Z</time>
      </trkpt>
      <trkpt lat="45.7464" lon="4.83798">
        <ele>173.4</ele>
        <time>2020-09-12T12:09:10Z</time>
      </trkpt>
      <trkpt lat="45.74637" lon="4.83804">
        <ele>173.3</ele>
        <time>2020-09-12T12:09:11Z</time>
      </trkpt>
      <trkpt lat="45.74632" lon="4.83812">
        <ele>173.3</ele>
        <time>2020-09-12T12:09:12Z</time>
      </trkpt>
      <trkpt lat="45.74631" lon="4.83819">
        <ele>173.3</ele>
        <time>2020-09-12T12:09:13Z</time>
      </trkpt>
      <trkpt lat="45.7463" lon="4.83828">
        <ele>173.3</ele>
        <time>2020-09-12T12:09:14Z</time>
      </trkpt>
      <trkpt lat="45.74626" lon="4.83843">
        <ele>173</ele>
        <time>2020-09-12T12:09:16Z</time>
      </trkpt>
      <trkpt lat="45.74625" lon="4.83851">
        <ele>172.9</ele>
        <time>2020-09-12T12:09:17Z</time>
      </trkpt>
      <trkpt lat="45.74623" lon="4.83858">
        <ele>172.9</ele>
        <time>2020-09-12T12:09:18Z</time>
      </trkpt>
      <trkpt lat="45.7462" lon="4.83865">
        <ele>172.8</ele>
        <time>2020-09-12T12:09:19Z</time>
      </trkpt>
      <trkpt lat="45.74617" lon="4.83873">
        <ele>172.6</ele>
        <time>2020-09-12T12:09:20Z</time>
      </trkpt>
      <trkpt lat="45.74616" lon="4.83882">
        <ele>172.6</ele>
        <time>2020-09-12T12:09:21Z</time>
      </trkpt>
      <trkpt lat="45.74614" lon="4.8389">
        <ele>172.4</ele>
        <time>2020-09-12T12:09:22Z</time>
      </trkpt>
      <trkpt lat="45.74612" lon="4.83898">
        <ele>172.3</ele>
        <time>2020-09-12T12:09:23Z</time>
      </trkpt>
      <trkpt lat="45.74609" lon="4.83906">
        <ele>172.2</ele>
        <time>2020-09-12T12:09:24Z</time>
      </trkpt>
      <trkpt lat="45.74608" lon="4.83915">
        <ele>172.1</ele>
        <time>2020-09-12T12:09:25Z</time>
      </trkpt>
      <trkpt lat="45.74607" lon="4.83924">
        <ele>171.5</ele>
        <time>2020-09-12T12:09:26Z</time>
      </trkpt>
      <trkpt lat="45.74604" lon="4.83931">
        <ele>171.5</ele>
        <time>2020-09-12T12:09:27Z</time>
      </trkpt>
      <trkpt lat="45.74603" lon="4.83939">
        <ele>171.5</ele>
        <time>2020-09-12T12:09:28Z</time>
      </trkpt>
      <trkpt lat="45.74601" lon="4.83946">
        <ele>171.5</ele>
        <time>2020-09-12T12:09:29Z</time>
      </trkpt>
      <trkpt lat="45.746" lon="4.83952">
        <ele>171.5</ele>
        <time>2020-09-12T12:09:30Z</time>
      </trkpt>
      <trkpt lat="45.74598" lon="4.83959">
        <ele>171.5</ele>
        <time>2020-09-12T12:09:31Z</time>
      </trkpt>
      <trkpt lat="45.74595" lon="4.83965">
        <ele>171.5</ele>
        <time>2020-09-12T12:09:32Z</time>
      </trkpt>
      <trkpt lat="45.74593" lon="4.83971">
        <ele>171.5</ele>
        <time>2020-09-12T12:09:33Z</time>
      </trkpt>
      <trkpt lat="45.74592" lon="4.8398">
        <ele>171.4</ele>
        <time>2020-09-12T12:09:34Z</time>
      </trkpt>
      <trkpt lat="45.7459" lon="4.83986">
        <ele>171.3</ele>
        <time>2020-09-12T12:09:35Z</time>
      </trkpt>
      <trkpt lat="45.74587" lon="4.83993">
        <ele>171.2</ele>
        <time>2020-09-12T12:09:36Z</time>
      </trkpt>
      <trkpt lat="45.74584" lon="4.83999">
        <ele>171</ele>
        <time>2020-09-12T12:09:37Z</time>
      </trkpt>
      <trkpt lat="45.74582" lon="4.84005">
        <ele>171</ele>
        <time>2020-09-12T12:09:38Z</time>
      </trkpt>
      <trkpt lat="45.74579" lon="4.84013">
        <ele>171.1</ele>
        <time>2020-09-12T12:09:39Z</time>
      </trkpt>
      <trkpt lat="45.74577" lon="4.8402">
        <ele>171.1</ele>
        <time>2020-09-12T12:09:40Z</time>
      </trkpt>
      <trkpt lat="45.74574" lon="4.84028">
        <ele>171.2</ele>
        <time>2020-09-12T12:09:41Z</time>
      </trkpt>
      <trkpt lat="45.74571" lon="4.84036">
        <ele>171.2</ele>
        <time>2020-09-12T12:09:42Z</time>
      </trkpt>
      <trkpt lat="45.74569" lon="4.84043">
        <ele>171.3</ele>
        <time>2020-09-12T12:09:43Z</time>
      </trkpt>
      <trkpt lat="45.74567" lon="4.8405">
        <ele>171.4</ele>
        <time>2020-09-12T12:09:44Z</time>
      </trkpt>
      <trkpt lat="45.74564" lon="4.84058">
        <ele>171.5</ele>
        <time>2020-09-12T12:09:45Z</time>
      </trkpt>
      <trkpt lat="45.74561" lon="4.84066">
        <ele>171.5</ele>
        <time>2020-09-12T12:09:46Z</time>
      </trkpt>
      <trkpt lat="45.74559" lon="4.84075">
        <ele>171.6</ele>
        <time>2020-09-12T12:09:47Z</time>
      </trkpt>
      <trkpt lat="45.74556" lon="4.84082">
        <ele>171.5</ele>
        <time>2020-09-12T12:09:48Z</time>
      </trkpt>
      <trkpt lat="45.74555" lon="4.8409">
        <ele>171.6</ele>
        <time>2020-09-12T12:09:49Z</time>
      </trkpt>
      <trkpt lat="45.74552" lon="4.84099">
        <ele>171.5</ele>
        <time>2020-09-12T12:09:50Z</time>
      </trkpt>
      <trkpt lat="45.7455" lon="4.84107">
        <ele>171.4</ele>
        <time>2020-09-12T12:09:51Z</time>
      </trkpt>
      <trkpt lat="45.74547" lon="4.84115">
        <ele>171.3</ele>
        <time>2020-09-12T12:09:52Z</time>
      </trkpt>
      <trkpt lat="45.74544" lon="4.84123">
        <ele>171.3</ele>
        <time>2020-09-12T12:09:53Z</time>
      </trkpt>
      <trkpt lat="45.74542" lon="4.84133">
        <ele>171.3</ele>
        <time>2020-09-12T12:09:54Z</time>
      </trkpt>
      <trkpt lat="45.7454" lon="4.84139">
        <ele>171.2</ele>
        <time>2020-09-12T12:09:55Z</time>
      </trkpt>
      <trkpt lat="45.74536" lon="4.8415">
        <ele>171.2</ele>
        <time>2020-09-12T12:09:57Z</time>
      </trkpt>
      <trkpt lat="45.74531" lon="4.84158">
        <ele>171.1</ele>
        <time>2020-09-12T12:09:59Z</time>
      </trkpt>
      <trkpt lat="45.74528" lon="4.84167">
        <ele>171.5</ele>
        <time>2020-09-12T12:10:01Z</time>
      </trkpt>
      <trkpt lat="45.74527" lon="4.84174">
        <ele>171.5</ele>
        <time>2020-09-12T12:10:10Z</time>
      </trkpt>
      <trkpt lat="45.74526" lon="4.84182">
        <ele>171.6</ele>
        <time>2020-09-12T12:10:13Z</time>
      </trkpt>
      <trkpt lat="45.74523" lon="4.8419">
        <ele>171.7</ele>
        <time>2020-09-12T12:10:15Z</time>
      </trkpt>
      <trkpt lat="45.74521" lon="4.842">
        <ele>171.9</ele>
        <time>2020-09-12T12:10:17Z</time>
      </trkpt>
      <trkpt lat="45.74517" lon="4.84211">
        <ele>172.2</ele>
        <time>2020-09-12T12:10:19Z</time>
      </trkpt>
      <trkpt lat="45.74514" lon="4.84222">
        <ele>172.6</ele>
        <time>2020-09-12T12:10:21Z</time>
      </trkpt>
      <trkpt lat="45.74509" lon="4.84233">
        <ele>173.2</ele>
        <time>2020-09-12T12:10:23Z</time>
      </trkpt>
      <trkpt lat="45.74508" lon="4.84241">
        <ele>173.8</ele>
        <time>2020-09-12T12:10:24Z</time>
      </trkpt>
      <trkpt lat="45.74505" lon="4.84247">
        <ele>174.4</ele>
        <time>2020-09-12T12:10:25Z</time>
      </trkpt>
      <trkpt lat="45.74502" lon="4.84254">
        <ele>174.6</ele>
        <time>2020-09-12T12:10:26Z</time>
      </trkpt>
      <trkpt lat="45.745" lon="4.84261">
        <ele>174.6</ele>
        <time>2020-09-12T12:10:27Z</time>
      </trkpt>
      <trkpt lat="45.74497" lon="4.84268">
        <ele>174.5</ele>
        <time>2020-09-12T12:10:28Z</time>
      </trkpt>
      <trkpt lat="45.74494" lon="4.84276">
        <ele>174.3</ele>
        <time>2020-09-12T12:10:29Z</time>
      </trkpt>
      <trkpt lat="45.74492" lon="4.84282">
        <ele>174.2</ele>
        <time>2020-09-12T12:10:30Z</time>
      </trkpt>
      <trkpt lat="45.7449" lon="4.8429">
        <ele>174.2</ele>
        <time>2020-09-12T12:10:31Z</time>
      </trkpt>
      <trkpt lat="45.74488" lon="4.84298">
        <ele>174.1</ele>
        <time>2020-09-12T12:10:32Z</time>
      </trkpt>
      <trkpt lat="45.74486" lon="4.84306">
        <ele>174.1</ele>
        <time>2020-09-12T12:10:33Z</time>
      </trkpt>
      <trkpt lat="45.74484" lon="4.84312">
        <ele>174.1</ele>
        <time>2020-09-12T12:10:34Z</time>
      </trkpt>
      <trkpt lat="45.74482" lon="4.84319">
        <ele>174</ele>
        <time>2020-09-12T12:10:35Z</time>
      </trkpt>
      <trkpt lat="45.74479" lon="4.84327">
        <ele>174</ele>
        <time>2020-09-12T12:10:36Z</time>
      </trkpt>
      <trkpt lat="45.74477" lon="4.84334">
        <ele>173.9</ele>
        <time>2020-09-12T12:10:37Z</time>
      </trkpt>
      <trkpt lat="45.74474" lon="4.84342">
        <ele>173.9</ele>
        <time>2020-09-12T12:10:38Z</time>
      </trkpt>
      <trkpt lat="45.74472" lon="4.84351">
        <ele>173.9</ele>
        <time>2020-09-12T12:10:39Z</time>
      </trkpt>
      <trkpt lat="45.7447" lon="4.84361">
        <ele>173.9</ele>
        <time>2020-09-12T12:10:40Z</time>
      </trkpt>
      <trkpt lat="45.74469" lon="4.84368">
        <ele>173.8</ele>
        <time>2020-09-12T12:10:41Z</time>
      </trkpt>
      <trkpt lat="45.74466" lon="4.84377">
        <ele>173.8</ele>
        <time>2020-09-12T12:10:42Z</time>
      </trkpt>
      <trkpt lat="45.74465" lon="4.84386">
        <ele>173.8</ele>
        <time>2020-09-12T12:10:43Z</time>
      </trkpt>
      <trkpt lat="45.74462" lon="4.84394">
        <ele>173.8</ele>
        <time>2020-09-12T12:10:44Z</time>
      </trkpt>
      <trkpt lat="45.7446" lon="4.84401">
        <ele>173.7</ele>
        <time>2020-09-12T12:10:45Z</time>
      </trkpt>
      <trkpt lat="45.74457" lon="4.84408">
        <ele>173.6</ele>
        <time>2020-09-12T12:10:46Z</time>
      </trkpt>
      <trkpt lat="45.74455" lon="4.84414">
        <ele>173.6</ele>
        <time>2020-09-12T12:10:47Z</time>
      </trkpt>
      <trkpt lat="45.74453" lon="4.84421">
        <ele>173.3</ele>
        <time>2020-09-12T12:10:48Z</time>
      </trkpt>
      <trkpt lat="45.7445" lon="4.8443">
        <ele>173.3</ele>
        <time>2020-09-12T12:10:49Z</time>
      </trkpt>
      <trkpt lat="45.74448" lon="4.84438">
        <ele>173.3</ele>
        <time>2020-09-12T12:10:50Z</time>
      </trkpt>
      <trkpt lat="45.74445" lon="4.84446">
        <ele>173.2</ele>
        <time>2020-09-12T12:10:51Z</time>
      </trkpt>
      <trkpt lat="45.74442" lon="4.84452">
        <ele>173.2</ele>
        <time>2020-09-12T12:10:52Z</time>
      </trkpt>
      <trkpt lat="45.7444" lon="4.84458">
        <ele>173.2</ele>
        <time>2020-09-12T12:10:53Z</time>
      </trkpt>
      <trkpt lat="45.74437" lon="4.84465">
        <ele>173.1</ele>
        <time>2020-09-12T12:10:54Z</time>
      </trkpt>
      <trkpt lat="45.74434" lon="4.84474">
        <ele>173</ele>
        <time>2020-09-12T12:10:55Z</time>
      </trkpt>
      <trkpt lat="45.74431" lon="4.84481">
        <ele>172.9</ele>
        <time>2020-09-12T12:10:56Z</time>
      </trkpt>
      <trkpt lat="45.74428" lon="4.8449">
        <ele>172.7</ele>
        <time>2020-09-12T12:10:57Z</time>
      </trkpt>
      <trkpt lat="45.74425" lon="4.84498">
        <ele>172.4</ele>
        <time>2020-09-12T12:10:58Z</time>
      </trkpt>
      <trkpt lat="45.74422" lon="4.84508">
        <ele>172.3</ele>
        <time>2020-09-12T12:10:59Z</time>
      </trkpt>
      <trkpt lat="45.7442" lon="4.84516">
        <ele>172.4</ele>
        <time>2020-09-12T12:11:00Z</time>
      </trkpt>
      <trkpt lat="45.74418" lon="4.84524">
        <ele>172.4</ele>
        <time>2020-09-12T12:11:01Z</time>
      </trkpt>
      <trkpt lat="45.74415" lon="4.84532">
        <ele>171.3</ele>
        <time>2020-09-12T12:11:02Z</time>
      </trkpt>
      <trkpt lat="45.74413" lon="4.84541">
        <ele>171.2</ele>
        <time>2020-09-12T12:11:03Z</time>
      </trkpt>
      <trkpt lat="45.7441" lon="4.84549">
        <ele>171</ele>
        <time>2020-09-12T12:11:04Z</time>
      </trkpt>
      <trkpt lat="45.74408" lon="4.84557">
        <ele>170.9</ele>
        <time>2020-09-12T12:11:05Z</time>
      </trkpt>
      <trkpt lat="45.74406" lon="4.84565">
        <ele>170.8</ele>
        <time>2020-09-12T12:11:06Z</time>
      </trkpt>
      <trkpt lat="45.74403" lon="4.84573">
        <ele>170.7</ele>
        <time>2020-09-12T12:11:07Z</time>
      </trkpt>
      <trkpt lat="45.744" lon="4.84582">
        <ele>170.7</ele>
        <time>2020-09-12T12:11:08Z</time>
      </trkpt>
      <trkpt lat="45.74398" lon="4.8459">
        <ele>170.5</ele>
        <time>2020-09-12T12:11:09Z</time>
      </trkpt>
      <trkpt lat="45.74395" lon="4.84598">
        <ele>170.6</ele>
        <time>2020-09-12T12:11:10Z</time>
      </trkpt>
      <trkpt lat="45.74393" lon="4.84606">
        <ele>170.7</ele>
        <time>2020-09-12T12:11:11Z</time>
      </trkpt>
      <trkpt lat="45.74391" lon="4.84614">
        <ele>170.7</ele>
        <time>2020-09-12T12:11:12Z</time>
      </trkpt>
      <trkpt lat="45.74389" lon="4.84622">
        <ele>170.8</ele>
        <time>2020-09-12T12:11:13Z</time>
      </trkpt>
      <trkpt lat="45.74386" lon="4.8463">
        <ele>170.8</ele>
        <time>2020-09-12T12:11:14Z</time>
      </trkpt>
      <trkpt lat="45.74384" lon="4.84638">
        <ele>170.8</ele>
        <time>2020-09-12T12:11:15Z</time>
      </trkpt>
      <trkpt lat="45.74381" lon="4.84644">
        <ele>170.8</ele>
        <time>2020-09-12T12:11:16Z</time>
      </trkpt>
      <trkpt lat="45.7438" lon="4.84653">
        <ele>170.9</ele>
        <time>2020-09-12T12:11:17Z</time>
      </trkpt>
      <trkpt lat="45.74376" lon="4.8466">
        <ele>171</ele>
        <time>2020-09-12T12:11:18Z</time>
      </trkpt>
      <trkpt lat="45.74374" lon="4.84668">
        <ele>171</ele>
        <time>2020-09-12T12:11:19Z</time>
      </trkpt>
      <trkpt lat="45.74372" lon="4.84677">
        <ele>171.1</ele>
        <time>2020-09-12T12:11:20Z</time>
      </trkpt>
      <trkpt lat="45.74369" lon="4.84683">
        <ele>171.2</ele>
        <time>2020-09-12T12:11:21Z</time>
      </trkpt>
      <trkpt lat="45.74367" lon="4.84692">
        <ele>171.2</ele>
        <time>2020-09-12T12:11:22Z</time>
      </trkpt>
      <trkpt lat="45.74365" lon="4.84699">
        <ele>171.3</ele>
        <time>2020-09-12T12:11:23Z</time>
      </trkpt>
      <trkpt lat="45.74362" lon="4.84707">
        <ele>171.3</ele>
        <time>2020-09-12T12:11:24Z</time>
      </trkpt>
      <trkpt lat="45.74358" lon="4.84719">
        <ele>171.4</ele>
        <time>2020-09-12T12:11:26Z</time>
      </trkpt>
      <trkpt lat="45.74356" lon="4.84726">
        <ele>171.5</ele>
        <time>2020-09-12T12:11:27Z</time>
      </trkpt>
      <trkpt lat="45.74353" lon="4.84732">
        <ele>171.7</ele>
        <time>2020-09-12T12:11:28Z</time>
      </trkpt>
      <trkpt lat="45.74351" lon="4.84739">
        <ele>171.8</ele>
        <time>2020-09-12T12:11:29Z</time>
      </trkpt>
      <trkpt lat="45.74348" lon="4.84745">
        <ele>172.1</ele>
        <time>2020-09-12T12:11:30Z</time>
      </trkpt>
      <trkpt lat="45.74344" lon="4.8475">
        <ele>172.3</ele>
        <time>2020-09-12T12:11:31Z</time>
      </trkpt>
      <trkpt lat="45.74342" lon="4.84757">
        <ele>172.1</ele>
        <time>2020-09-12T12:11:32Z</time>
      </trkpt>
      <trkpt lat="45.74339" lon="4.84763">
        <ele>172</ele>
        <time>2020-09-12T12:11:33Z</time>
      </trkpt>
      <trkpt lat="45.74337" lon="4.84771">
        <ele>171.7</ele>
        <time>2020-09-12T12:11:34Z</time>
      </trkpt>
      <trkpt lat="45.74334" lon="4.84779">
        <ele>171.5</ele>
        <time>2020-09-12T12:11:35Z</time>
      </trkpt>
      <trkpt lat="45.74331" lon="4.84786">
        <ele>171.6</ele>
        <time>2020-09-12T12:11:36Z</time>
      </trkpt>
      <trkpt lat="45.74328" lon="4.84794">
        <ele>171.5</ele>
        <time>2020-09-12T12:11:37Z</time>
      </trkpt>
      <trkpt lat="45.74326" lon="4.84802">
        <ele>171.4</ele>
        <time>2020-09-12T12:11:38Z</time>
      </trkpt>
      <trkpt lat="45.74324" lon="4.84809">
        <ele>171.3</ele>
        <time>2020-09-12T12:11:39Z</time>
      </trkpt>
      <trkpt lat="45.74321" lon="4.84817">
        <ele>171.2</ele>
        <time>2020-09-12T12:11:40Z</time>
      </trkpt>
      <trkpt lat="45.74318" lon="4.84824">
        <ele>171.2</ele>
        <time>2020-09-12T12:11:41Z</time>
      </trkpt>
      <trkpt lat="45.74316" lon="4.84831">
        <ele>171.2</ele>
        <time>2020-09-12T12:11:42Z</time>
      </trkpt>
      <trkpt lat="45.74312" lon="4.84844">
        <ele>170.9</ele>
        <time>2020-09-12T12:11:44Z</time>
      </trkpt>
      <trkpt lat="45.7431" lon="4.8485">
        <ele>170.9</ele>
        <time>2020-09-12T12:11:45Z</time>
      </trkpt>
      <trkpt lat="45.74307" lon="4.84857">
        <ele>170.9</ele>
        <time>2020-09-12T12:11:46Z</time>
      </trkpt>
      <trkpt lat="45.74305" lon="4.84865">
        <ele>170.9</ele>
        <time>2020-09-12T12:11:47Z</time>
      </trkpt>
      <trkpt lat="45.74303" lon="4.84872">
        <ele>170.9</ele>
        <time>2020-09-12T12:11:48Z</time>
      </trkpt>
      <trkpt lat="45.74302" lon="4.84881">
        <ele>170.9</ele>
        <time>2020-09-12T12:11:49Z</time>
      </trkpt>
      <trkpt lat="45.74299" lon="4.84888">
        <ele>170.9</ele>
        <time>2020-09-12T12:11:50Z</time>
      </trkpt>
      <trkpt lat="45.74297" lon="4.84894">
        <ele>170.9</ele>
        <time>2020-09-12T12:11:51Z</time>
      </trkpt>
      <trkpt lat="45.74293" lon="4.84899">
        <ele>171</ele>
        <time>2020-09-12T12:11:52Z</time>
      </trkpt>
      <trkpt lat="45.74291" lon="4.84906">
        <ele>171</ele>
        <time>2020-09-12T12:11:53Z</time>
      </trkpt>
      <trkpt lat="45.74288" lon="4.84914">
        <ele>171.1</ele>
        <time>2020-09-12T12:11:54Z</time>
      </trkpt>
      <trkpt lat="45.74286" lon="4.84922">
        <ele>172.1</ele>
        <time>2020-09-12T12:11:55Z</time>
      </trkpt>
      <trkpt lat="45.74285" lon="4.8493">
        <ele>172.2</ele>
        <time>2020-09-12T12:11:56Z</time>
      </trkpt>
      <trkpt lat="45.74282" lon="4.84936">
        <ele>172.4</ele>
        <time>2020-09-12T12:11:57Z</time>
      </trkpt>
      <trkpt lat="45.74279" lon="4.84942">
        <ele>172.5</ele>
        <time>2020-09-12T12:11:58Z</time>
      </trkpt>
      <trkpt lat="45.74276" lon="4.84949">
        <ele>172.6</ele>
        <time>2020-09-12T12:11:59Z</time>
      </trkpt>
      <trkpt lat="45.74274" lon="4.84955">
        <ele>172.7</ele>
        <time>2020-09-12T12:12:00Z</time>
      </trkpt>
      <trkpt lat="45.74271" lon="4.84967">
        <ele>173</ele>
        <time>2020-09-12T12:12:02Z</time>
      </trkpt>
      <trkpt lat="45.74268" lon="4.84979">
        <ele>173.4</ele>
        <time>2020-09-12T12:12:04Z</time>
      </trkpt>
      <trkpt lat="45.74266" lon="4.84986">
        <ele>173.6</ele>
        <time>2020-09-12T12:12:05Z</time>
      </trkpt>
      <trkpt lat="45.74262" lon="4.84993">
        <ele>174</ele>
        <time>2020-09-12T12:12:06Z</time>
      </trkpt>
      <trkpt lat="45.74261" lon="4.85">
        <ele>174.2</ele>
        <time>2020-09-12T12:12:07Z</time>
      </trkpt>
      <trkpt lat="45.74255" lon="4.85009">
        <ele>175.2</ele>
        <time>2020-09-12T12:12:09Z</time>
      </trkpt>
      <trkpt lat="45.74255" lon="4.85015">
        <ele>175.4</ele>
        <time>2020-09-12T12:12:10Z</time>
      </trkpt>
      <trkpt lat="45.74251" lon="4.85027">
        <ele>175.7</ele>
        <time>2020-09-12T12:12:12Z</time>
      </trkpt>
      <trkpt lat="45.74247" lon="4.8504">
        <ele>175.7</ele>
        <time>2020-09-12T12:12:14Z</time>
      </trkpt>
      <trkpt lat="45.74245" lon="4.85046">
        <ele>175.8</ele>
        <time>2020-09-12T12:12:15Z</time>
      </trkpt>
      <trkpt lat="45.74242" lon="4.85052">
        <ele>176</ele>
        <time>2020-09-12T12:12:16Z</time>
      </trkpt>
      <trkpt lat="45.74241" lon="4.85058">
        <ele>176.1</ele>
        <time>2020-09-12T12:12:17Z</time>
      </trkpt>
      <trkpt lat="45.74238" lon="4.85068">
        <ele>176.4</ele>
        <time>2020-09-12T12:12:19Z</time>
      </trkpt>
      <trkpt lat="45.74237" lon="4.85076">
        <ele>176.7</ele>
        <time>2020-09-12T12:12:20Z</time>
      </trkpt>
      <trkpt lat="45.74236" lon="4.85083">
        <ele>176.7</ele>
        <time>2020-09-12T12:12:21Z</time>
      </trkpt>
      <trkpt lat="45.74233" lon="4.85095">
        <ele>177.1</ele>
        <time>2020-09-12T12:12:23Z</time>
      </trkpt>
      <trkpt lat="45.74231" lon="4.85101">
        <ele>177</ele>
        <time>2020-09-12T12:12:24Z</time>
      </trkpt>
      <trkpt lat="45.74229" lon="4.85107">
        <ele>176.9</ele>
        <time>2020-09-12T12:12:25Z</time>
      </trkpt>
      <trkpt lat="45.74227" lon="4.85114">
        <ele>176.9</ele>
        <time>2020-09-12T12:12:26Z</time>
      </trkpt>
      <trkpt lat="45.74225" lon="4.8512">
        <ele>176.9</ele>
        <time>2020-09-12T12:12:27Z</time>
      </trkpt>
      <trkpt lat="45.74223" lon="4.85127">
        <ele>176.9</ele>
        <time>2020-09-12T12:12:28Z</time>
      </trkpt>
      <trkpt lat="45.74222" lon="4.85134">
        <ele>176.9</ele>
        <time>2020-09-12T12:12:29Z</time>
      </trkpt>
      <trkpt lat="45.74219" lon="4.8514">
        <ele>176.9</ele>
        <time>2020-09-12T12:12:30Z</time>
      </trkpt>
      <trkpt lat="45.74217" lon="4.85147">
        <ele>176.9</ele>
        <time>2020-09-12T12:12:31Z</time>
      </trkpt>
      <trkpt lat="45.74214" lon="4.85157">
        <ele>176.9</ele>
        <time>2020-09-12T12:12:32Z</time>
      </trkpt>
      <trkpt lat="45.74212" lon="4.85165">
        <ele>176.8</ele>
        <time>2020-09-12T12:12:33Z</time>
      </trkpt>
      <trkpt lat="45.7421" lon="4.85172">
        <ele>175.8</ele>
        <time>2020-09-12T12:12:34Z</time>
      </trkpt>
      <trkpt lat="45.74207" lon="4.85178">
        <ele>175.6</ele>
        <time>2020-09-12T12:12:35Z</time>
      </trkpt>
      <trkpt lat="45.74206" lon="4.85184">
        <ele>175.5</ele>
        <time>2020-09-12T12:12:36Z</time>
      </trkpt>
      <trkpt lat="45.74202" lon="4.85197">
        <ele>175.2</ele>
        <time>2020-09-12T12:12:38Z</time>
      </trkpt>
      <trkpt lat="45.74198" lon="4.85207">
        <ele>174.9</ele>
        <time>2020-09-12T12:12:40Z</time>
      </trkpt>
      <trkpt lat="45.74197" lon="4.85213">
        <ele>174.8</ele>
        <time>2020-09-12T12:12:41Z</time>
      </trkpt>
      <trkpt lat="45.74195" lon="4.8522">
        <ele>174.6</ele>
        <time>2020-09-12T12:12:42Z</time>
      </trkpt>
      <trkpt lat="45.74193" lon="4.85226">
        <ele>174.5</ele>
        <time>2020-09-12T12:12:43Z</time>
      </trkpt>
      <trkpt lat="45.74191" lon="4.85232">
        <ele>174.3</ele>
        <time>2020-09-12T12:12:44Z</time>
      </trkpt>
      <trkpt lat="45.74189" lon="4.85239">
        <ele>174.1</ele>
        <time>2020-09-12T12:12:45Z</time>
      </trkpt>
      <trkpt lat="45.74187" lon="4.85246">
        <ele>174</ele>
        <time>2020-09-12T12:12:46Z</time>
      </trkpt>
      <trkpt lat="45.74182" lon="4.85257">
        <ele>173</ele>
        <time>2020-09-12T12:12:48Z</time>
      </trkpt>
      <trkpt lat="45.7418" lon="4.85263">
        <ele>173</ele>
        <time>2020-09-12T12:12:49Z</time>
      </trkpt>
      <trkpt lat="45.74177" lon="4.85271">
        <ele>173.1</ele>
        <time>2020-09-12T12:12:50Z</time>
      </trkpt>
      <trkpt lat="45.74174" lon="4.85278">
        <ele>173.1</ele>
        <time>2020-09-12T12:12:51Z</time>
      </trkpt>
      <trkpt lat="45.74172" lon="4.85285">
        <ele>173.1</ele>
        <time>2020-09-12T12:12:52Z</time>
      </trkpt>
      <trkpt lat="45.7417" lon="4.85291">
        <ele>173.2</ele>
        <time>2020-09-12T12:12:53Z</time>
      </trkpt>
      <trkpt lat="45.74169" lon="4.85298">
        <ele>173.2</ele>
        <time>2020-09-12T12:12:54Z</time>
      </trkpt>
      <trkpt lat="45.74167" lon="4.85305">
        <ele>173.5</ele>
        <time>2020-09-12T12:12:55Z</time>
      </trkpt>
      <trkpt lat="45.74163" lon="4.85311">
        <ele>173.5</ele>
        <time>2020-09-12T12:12:56Z</time>
      </trkpt>
      <trkpt lat="45.74162" lon="4.85318">
        <ele>173.6</ele>
        <time>2020-09-12T12:12:57Z</time>
      </trkpt>
      <trkpt lat="45.7416" lon="4.85326">
        <ele>173.7</ele>
        <time>2020-09-12T12:12:58Z</time>
      </trkpt>
      <trkpt lat="45.74157" lon="4.85333">
        <ele>173.8</ele>
        <time>2020-09-12T12:12:59Z</time>
      </trkpt>
      <trkpt lat="45.74156" lon="4.85341">
        <ele>173.7</ele>
        <time>2020-09-12T12:13:00Z</time>
      </trkpt>
      <trkpt lat="45.74154" lon="4.85349">
        <ele>173.6</ele>
        <time>2020-09-12T12:13:01Z</time>
      </trkpt>
      <trkpt lat="45.74153" lon="4.85359">
        <ele>173.5</ele>
        <time>2020-09-12T12:13:02Z</time>
      </trkpt>
      <trkpt lat="45.74149" lon="4.85365">
        <ele>173.4</ele>
        <time>2020-09-12T12:13:03Z</time>
      </trkpt>
      <trkpt lat="45.74146" lon="4.85373">
        <ele>173.3</ele>
        <time>2020-09-12T12:13:04Z</time>
      </trkpt>
      <trkpt lat="45.74143" lon="4.85382">
        <ele>173.3</ele>
        <time>2020-09-12T12:13:05Z</time>
      </trkpt>
      <trkpt lat="45.74141" lon="4.85388">
        <ele>173.2</ele>
        <time>2020-09-12T12:13:06Z</time>
      </trkpt>
      <trkpt lat="45.74139" lon="4.85395">
        <ele>173.2</ele>
        <time>2020-09-12T12:13:07Z</time>
      </trkpt>
      <trkpt lat="45.74136" lon="4.85403">
        <ele>173.2</ele>
        <time>2020-09-12T12:13:08Z</time>
      </trkpt>
      <trkpt lat="45.74134" lon="4.85412">
        <ele>173.2</ele>
        <time>2020-09-12T12:13:09Z</time>
      </trkpt>
      <trkpt lat="45.74131" lon="4.85419">
        <ele>173.2</ele>
        <time>2020-09-12T12:13:10Z</time>
      </trkpt>
      <trkpt lat="45.74129" lon="4.85427">
        <ele>173.2</ele>
        <time>2020-09-12T12:13:11Z</time>
      </trkpt>
      <trkpt lat="45.74127" lon="4.85434">
        <ele>173.2</ele>
        <time>2020-09-12T12:13:12Z</time>
      </trkpt>
      <trkpt lat="45.74124" lon="4.85441">
        <ele>173.2</ele>
        <time>2020-09-12T12:13:13Z</time>
      </trkpt>
      <trkpt lat="45.74121" lon="4.85449">
        <ele>173.2</ele>
        <time>2020-09-12T12:13:14Z</time>
      </trkpt>
      <trkpt lat="45.74119" lon="4.85456">
        <ele>173.3</ele>
        <time>2020-09-12T12:13:15Z</time>
      </trkpt>
      <trkpt lat="45.74117" lon="4.85463">
        <ele>173.3</ele>
        <time>2020-09-12T12:13:16Z</time>
      </trkpt>
      <trkpt lat="45.74114" lon="4.8547">
        <ele>173.3</ele>
        <time>2020-09-12T12:13:17Z</time>
      </trkpt>
      <trkpt lat="45.74111" lon="4.85477">
        <ele>173.4</ele>
        <time>2020-09-12T12:13:18Z</time>
      </trkpt>
      <trkpt lat="45.74109" lon="4.85485">
        <ele>173.4</ele>
        <time>2020-09-12T12:13:19Z</time>
      </trkpt>
      <trkpt lat="45.74107" lon="4.85493">
        <ele>173.5</ele>
        <time>2020-09-12T12:13:20Z</time>
      </trkpt>
      <trkpt lat="45.74105" lon="4.855">
        <ele>173.6</ele>
        <time>2020-09-12T12:13:21Z</time>
      </trkpt>
      <trkpt lat="45.74102" lon="4.85506">
        <ele>173.3</ele>
        <time>2020-09-12T12:13:22Z</time>
      </trkpt>
      <trkpt lat="45.74099" lon="4.85518">
        <ele>173.3</ele>
        <time>2020-09-12T12:13:24Z</time>
      </trkpt>
      <trkpt lat="45.74095" lon="4.85534">
        <ele>173.1</ele>
        <time>2020-09-12T12:13:26Z</time>
      </trkpt>
      <trkpt lat="45.74093" lon="4.8554">
        <ele>173</ele>
        <time>2020-09-12T12:13:27Z</time>
      </trkpt>
      <trkpt lat="45.74091" lon="4.85548">
        <ele>173</ele>
        <time>2020-09-12T12:13:28Z</time>
      </trkpt>
      <trkpt lat="45.74089" lon="4.85556">
        <ele>172.9</ele>
        <time>2020-09-12T12:13:29Z</time>
      </trkpt>
      <trkpt lat="45.74087" lon="4.85562">
        <ele>172.9</ele>
        <time>2020-09-12T12:13:30Z</time>
      </trkpt>
      <trkpt lat="45.74083" lon="4.85572">
        <ele>172.8</ele>
        <time>2020-09-12T12:13:32Z</time>
      </trkpt>
      <trkpt lat="45.74083" lon="4.85583">
        <ele>172.9</ele>
        <time>2020-09-12T12:13:34Z</time>
      </trkpt>
      <trkpt lat="45.74082" lon="4.85591">
        <ele>172.4</ele>
        <time>2020-09-12T12:13:37Z</time>
      </trkpt>
      <trkpt lat="45.74084" lon="4.85599">
        <ele>172.1</ele>
        <time>2020-09-12T12:13:50Z</time>
      </trkpt>
      <trkpt lat="45.74082" lon="4.85605">
        <ele>171.6</ele>
        <time>2020-09-12T12:13:59Z</time>
      </trkpt>
      <trkpt lat="45.74079" lon="4.85612">
        <ele>171.3</ele>
        <time>2020-09-12T12:14:03Z</time>
      </trkpt>
      <trkpt lat="45.74077" lon="4.85619">
        <ele>171</ele>
        <time>2020-09-12T12:14:05Z</time>
      </trkpt>
      <trkpt lat="45.74074" lon="4.85626">
        <ele>170.8</ele>
        <time>2020-09-12T12:14:07Z</time>
      </trkpt>
      <trkpt lat="45.74071" lon="4.85633">
        <ele>170.6</ele>
        <time>2020-09-12T12:14:09Z</time>
      </trkpt>
      <trkpt lat="45.74069" lon="4.85641">
        <ele>170.3</ele>
        <time>2020-09-12T12:14:11Z</time>
      </trkpt>
      <trkpt lat="45.74066" lon="4.85647">
        <ele>170.2</ele>
        <time>2020-09-12T12:14:13Z</time>
      </trkpt>
      <trkpt lat="45.74064" lon="4.85655">
        <ele>170</ele>
        <time>2020-09-12T12:14:15Z</time>
      </trkpt>
      <trkpt lat="45.74062" lon="4.85663">
        <ele>169.9</ele>
        <time>2020-09-12T12:14:17Z</time>
      </trkpt>
      <trkpt lat="45.74059" lon="4.85672">
        <ele>169.8</ele>
        <time>2020-09-12T12:14:19Z</time>
      </trkpt>
      <trkpt lat="45.74055" lon="4.85683">
        <ele>170</ele>
        <time>2020-09-12T12:14:21Z</time>
      </trkpt>
      <trkpt lat="45.74052" lon="4.85689">
        <ele>170.2</ele>
        <time>2020-09-12T12:14:22Z</time>
      </trkpt>
      <trkpt lat="45.74051" lon="4.85696">
        <ele>170.3</ele>
        <time>2020-09-12T12:14:23Z</time>
      </trkpt>
      <trkpt lat="45.74048" lon="4.85703">
        <ele>170.4</ele>
        <time>2020-09-12T12:14:24Z</time>
      </trkpt>
      <trkpt lat="45.74046" lon="4.8571">
        <ele>170.5</ele>
        <time>2020-09-12T12:14:25Z</time>
      </trkpt>
      <trkpt lat="45.74043" lon="4.85715">
        <ele>170.6</ele>
        <time>2020-09-12T12:14:26Z</time>
      </trkpt>
      <trkpt lat="45.7404" lon="4.85721">
        <ele>170.7</ele>
        <time>2020-09-12T12:14:27Z</time>
      </trkpt>
      <trkpt lat="45.74037" lon="4.85733">
        <ele>170.9</ele>
        <time>2020-09-12T12:14:29Z</time>
      </trkpt>
      <trkpt lat="45.74036" lon="4.8574">
        <ele>171</ele>
        <time>2020-09-12T12:14:30Z</time>
      </trkpt>
      <trkpt lat="45.74032" lon="4.85749">
        <ele>171.1</ele>
        <time>2020-09-12T12:14:32Z</time>
      </trkpt>
      <trkpt lat="45.7403" lon="4.8576">
        <ele>172.6</ele>
        <time>2020-09-12T12:14:34Z</time>
      </trkpt>
      <trkpt lat="45.74026" lon="4.85769">
        <ele>172.7</ele>
        <time>2020-09-12T12:14:36Z</time>
      </trkpt>
      <trkpt lat="45.74023" lon="4.8578">
        <ele>172.8</ele>
        <time>2020-09-12T12:14:38Z</time>
      </trkpt>
      <trkpt lat="45.74021" lon="4.85789">
        <ele>173</ele>
        <time>2020-09-12T12:14:40Z</time>
      </trkpt>
      <trkpt lat="45.74017" lon="4.85797">
        <ele>173.1</ele>
        <time>2020-09-12T12:14:42Z</time>
      </trkpt>
      <trkpt lat="45.74015" lon="4.85802">
        <ele>173.2</ele>
        <time>2020-09-12T12:14:44Z</time>
      </trkpt>
      <trkpt lat="45.74009" lon="4.85807">
        <ele>173.3</ele>
        <time>2020-09-12T12:14:47Z</time>
      </trkpt>
      <trkpt lat="45.74006" lon="4.85812">
        <ele>173.4</ele>
        <time>2020-09-12T12:14:49Z</time>
      </trkpt>
      <trkpt lat="45.74003" lon="4.85821">
        <ele>173.6</ele>
        <time>2020-09-12T12:14:51Z</time>
      </trkpt>
      <trkpt lat="45.74" lon="4.85831">
        <ele>173.9</ele>
        <time>2020-09-12T12:14:53Z</time>
      </trkpt>
      <trkpt lat="45.73997" lon="4.85841">
        <ele>174.2</ele>
        <time>2020-09-12T12:14:55Z</time>
      </trkpt>
      <trkpt lat="45.73995" lon="4.85847">
        <ele>174.4</ele>
        <time>2020-09-12T12:14:56Z</time>
      </trkpt>
      <trkpt lat="45.73993" lon="4.85854">
        <ele>174.5</ele>
        <time>2020-09-12T12:14:57Z</time>
      </trkpt>
      <trkpt lat="45.7399" lon="4.85866">
        <ele>174.7</ele>
        <time>2020-09-12T12:14:59Z</time>
      </trkpt>
      <trkpt lat="45.73988" lon="4.85872">
        <ele>174.8</ele>
        <time>2020-09-12T12:15:00Z</time>
      </trkpt>
      <trkpt lat="45.73987" lon="4.85879">
        <ele>174.9</ele>
        <time>2020-09-12T12:15:01Z</time>
      </trkpt>
      <trkpt lat="45.73985" lon="4.85885">
        <ele>175</ele>
        <time>2020-09-12T12:15:02Z</time>
      </trkpt>
      <trkpt lat="45.73984" lon="4.85892">
        <ele>175.1</ele>
        <time>2020-09-12T12:15:03Z</time>
      </trkpt>
      <trkpt lat="45.73981" lon="4.85899">
        <ele>175.2</ele>
        <time>2020-09-12T12:15:04Z</time>
      </trkpt>
      <trkpt lat="45.73978" lon="4.85904">
        <ele>175.2</ele>
        <time>2020-09-12T12:15:05Z</time>
      </trkpt>
      <trkpt lat="45.73975" lon="4.85914">
        <ele>175.2</ele>
        <time>2020-09-12T12:15:07Z</time>
      </trkpt>
      <trkpt lat="45.73973" lon="4.85921">
        <ele>175.9</ele>
        <time>2020-09-12T12:15:08Z</time>
      </trkpt>
      <trkpt lat="45.73969" lon="4.8593">
        <ele>175.9</ele>
        <time>2020-09-12T12:15:10Z</time>
      </trkpt>
      <trkpt lat="45.73966" lon="4.85941">
        <ele>175.9</ele>
        <time>2020-09-12T12:15:12Z</time>
      </trkpt>
      <trkpt lat="45.73962" lon="4.8595">
        <ele>176</ele>
        <time>2020-09-12T12:15:14Z</time>
      </trkpt>
      <trkpt lat="45.73959" lon="4.85959">
        <ele>176</ele>
        <time>2020-09-12T12:15:16Z</time>
      </trkpt>
      <trkpt lat="45.73962" lon="4.85965">
        <ele>176.1</ele>
        <time>2020-09-12T12:15:26Z</time>
      </trkpt>
      <trkpt lat="45.73959" lon="4.85973">
        <ele>176.1</ele>
        <time>2020-09-12T12:15:29Z</time>
      </trkpt>
      <trkpt lat="45.73956" lon="4.85982">
        <ele>176.1</ele>
        <time>2020-09-12T12:15:31Z</time>
      </trkpt>
      <trkpt lat="45.73952" lon="4.85992">
        <ele>176.1</ele>
        <time>2020-09-12T12:15:33Z</time>
      </trkpt>
      <trkpt lat="45.73949" lon="4.85999">
        <ele>176.1</ele>
        <time>2020-09-12T12:15:34Z</time>
      </trkpt>
      <trkpt lat="45.73947" lon="4.86005">
        <ele>176.3</ele>
        <time>2020-09-12T12:15:35Z</time>
      </trkpt>
      <trkpt lat="45.73944" lon="4.86012">
        <ele>176.3</ele>
        <time>2020-09-12T12:15:36Z</time>
      </trkpt>
      <trkpt lat="45.73942" lon="4.8602">
        <ele>176.3</ele>
        <time>2020-09-12T12:15:37Z</time>
      </trkpt>
      <trkpt lat="45.7394" lon="4.86026">
        <ele>176.3</ele>
        <time>2020-09-12T12:15:38Z</time>
      </trkpt>
      <trkpt lat="45.73937" lon="4.86032">
        <ele>176.3</ele>
        <time>2020-09-12T12:15:39Z</time>
      </trkpt>
      <trkpt lat="45.73934" lon="4.8604">
        <ele>176.3</ele>
        <time>2020-09-12T12:15:40Z</time>
      </trkpt>
      <trkpt lat="45.73932" lon="4.86047">
        <ele>176.4</ele>
        <time>2020-09-12T12:15:41Z</time>
      </trkpt>
      <trkpt lat="45.73927" lon="4.86062">
        <ele>176.5</ele>
        <time>2020-09-12T12:15:43Z</time>
      </trkpt>
      <trkpt lat="45.73924" lon="4.8607">
        <ele>176.6</ele>
        <time>2020-09-12T12:15:44Z</time>
      </trkpt>
      <trkpt lat="45.73922" lon="4.86077">
        <ele>176.7</ele>
        <time>2020-09-12T12:15:45Z</time>
      </trkpt>
      <trkpt lat="45.7392" lon="4.86085">
        <ele>176.8</ele>
        <time>2020-09-12T12:15:46Z</time>
      </trkpt>
      <trkpt lat="45.73918" lon="4.86093">
        <ele>176.6</ele>
        <time>2020-09-12T12:15:47Z</time>
      </trkpt>
      <trkpt lat="45.73916" lon="4.861">
        <ele>175.9</ele>
        <time>2020-09-12T12:15:48Z</time>
      </trkpt>
      <trkpt lat="45.73914" lon="4.86107">
        <ele>175.7</ele>
        <time>2020-09-12T12:15:49Z</time>
      </trkpt>
      <trkpt lat="45.73911" lon="4.86114">
        <ele>175.5</ele>
        <time>2020-09-12T12:15:50Z</time>
      </trkpt>
      <trkpt lat="45.73908" lon="4.86122">
        <ele>175.4</ele>
        <time>2020-09-12T12:15:51Z</time>
      </trkpt>
      <trkpt lat="45.73906" lon="4.86129">
        <ele>175.3</ele>
        <time>2020-09-12T12:15:52Z</time>
      </trkpt>
      <trkpt lat="45.73903" lon="4.86135">
        <ele>175.2</ele>
        <time>2020-09-12T12:15:53Z</time>
      </trkpt>
      <trkpt lat="45.73901" lon="4.86141">
        <ele>175.2</ele>
        <time>2020-09-12T12:15:54Z</time>
      </trkpt>
      <trkpt lat="45.73898" lon="4.86148">
        <ele>175.2</ele>
        <time>2020-09-12T12:15:55Z</time>
      </trkpt>
      <trkpt lat="45.73897" lon="4.86154">
        <ele>175.2</ele>
        <time>2020-09-12T12:15:56Z</time>
      </trkpt>
      <trkpt lat="45.73896" lon="4.86164">
        <ele>175.3</ele>
        <time>2020-09-12T12:15:57Z</time>
      </trkpt>
      <trkpt lat="45.73894" lon="4.86171">
        <ele>175.3</ele>
        <time>2020-09-12T12:15:58Z</time>
      </trkpt>
      <trkpt lat="45.7389" lon="4.86176">
        <ele>175.2</ele>
        <time>2020-09-12T12:15:59Z</time>
      </trkpt>
      <trkpt lat="45.73888" lon="4.86184">
        <ele>175.1</ele>
        <time>2020-09-12T12:16:00Z</time>
      </trkpt>
      <trkpt lat="45.73885" lon="4.86191">
        <ele>175.1</ele>
        <time>2020-09-12T12:16:01Z</time>
      </trkpt>
      <trkpt lat="45.73882" lon="4.86198">
        <ele>175</ele>
        <time>2020-09-12T12:16:02Z</time>
      </trkpt>
      <trkpt lat="45.7388" lon="4.86206">
        <ele>175.1</ele>
        <time>2020-09-12T12:16:03Z</time>
      </trkpt>
      <trkpt lat="45.73878" lon="4.86213">
        <ele>175.1</ele>
        <time>2020-09-12T12:16:04Z</time>
      </trkpt>
      <trkpt lat="45.73875" lon="4.86219">
        <ele>175.1</ele>
        <time>2020-09-12T12:16:05Z</time>
      </trkpt>
      <trkpt lat="45.73872" lon="4.86225">
        <ele>175.1</ele>
        <time>2020-09-12T12:16:06Z</time>
      </trkpt>
      <trkpt lat="45.73869" lon="4.86232">
        <ele>175.1</ele>
        <time>2020-09-12T12:16:07Z</time>
      </trkpt>
      <trkpt lat="45.73864" lon="4.86248">
        <ele>175.1</ele>
        <time>2020-09-12T12:16:09Z</time>
      </trkpt>
      <trkpt lat="45.73863" lon="4.86255">
        <ele>175.4</ele>
        <time>2020-09-12T12:16:10Z</time>
      </trkpt>
      <trkpt lat="45.73861" lon="4.86262">
        <ele>175.4</ele>
        <time>2020-09-12T12:16:11Z</time>
      </trkpt>
      <trkpt lat="45.7386" lon="4.86271">
        <ele>175.4</ele>
        <time>2020-09-12T12:16:13Z</time>
      </trkpt>
      <trkpt lat="45.73859" lon="4.8628">
        <ele>175.4</ele>
        <time>2020-09-12T12:16:15Z</time>
      </trkpt>
      <trkpt lat="45.73857" lon="4.86289">
        <ele>175.4</ele>
        <time>2020-09-12T12:16:19Z</time>
      </trkpt>
      <trkpt lat="45.73854" lon="4.86299">
        <ele>175.4</ele>
        <time>2020-09-12T12:16:21Z</time>
      </trkpt>
      <trkpt lat="45.73851" lon="4.86304">
        <ele>175.4</ele>
        <time>2020-09-12T12:16:22Z</time>
      </trkpt>
      <trkpt lat="45.73848" lon="4.86311">
        <ele>175.3</ele>
        <time>2020-09-12T12:16:23Z</time>
      </trkpt>
      <trkpt lat="45.73845" lon="4.86318">
        <ele>175.3</ele>
        <time>2020-09-12T12:16:24Z</time>
      </trkpt>
      <trkpt lat="45.73842" lon="4.86325">
        <ele>175.2</ele>
        <time>2020-09-12T12:16:25Z</time>
      </trkpt>
      <trkpt lat="45.7384" lon="4.86334">
        <ele>175.1</ele>
        <time>2020-09-12T12:16:26Z</time>
      </trkpt>
      <trkpt lat="45.73837" lon="4.8634">
        <ele>175.1</ele>
        <time>2020-09-12T12:16:27Z</time>
      </trkpt>
      <trkpt lat="45.73834" lon="4.86348">
        <ele>175.1</ele>
        <time>2020-09-12T12:16:28Z</time>
      </trkpt>
      <trkpt lat="45.73832" lon="4.86355">
        <ele>175.3</ele>
        <time>2020-09-12T12:16:29Z</time>
      </trkpt>
      <trkpt lat="45.73829" lon="4.86362">
        <ele>175.3</ele>
        <time>2020-09-12T12:16:30Z</time>
      </trkpt>
      <trkpt lat="45.73827" lon="4.8637">
        <ele>175.3</ele>
        <time>2020-09-12T12:16:31Z</time>
      </trkpt>
      <trkpt lat="45.73824" lon="4.86377">
        <ele>175.3</ele>
        <time>2020-09-12T12:16:32Z</time>
      </trkpt>
      <trkpt lat="45.73822" lon="4.86384">
        <ele>175.3</ele>
        <time>2020-09-12T12:16:33Z</time>
      </trkpt>
      <trkpt lat="45.73819" lon="4.86392">
        <ele>175.2</ele>
        <time>2020-09-12T12:16:34Z</time>
      </trkpt>
      <trkpt lat="45.73816" lon="4.86399">
        <ele>175.2</ele>
        <time>2020-09-12T12:16:35Z</time>
      </trkpt>
      <trkpt lat="45.73814" lon="4.86405">
        <ele>175.2</ele>
        <time>2020-09-12T12:16:36Z</time>
      </trkpt>
      <trkpt lat="45.73811" lon="4.86411">
        <ele>175.2</ele>
        <time>2020-09-12T12:16:37Z</time>
      </trkpt>
      <trkpt lat="45.73807" lon="4.86424">
        <ele>176.2</ele>
        <time>2020-09-12T12:16:39Z</time>
      </trkpt>
      <trkpt lat="45.73804" lon="4.8643">
        <ele>176.4</ele>
        <time>2020-09-12T12:16:40Z</time>
      </trkpt>
      <trkpt lat="45.73801" lon="4.86439">
        <ele>176.7</ele>
        <time>2020-09-12T12:16:41Z</time>
      </trkpt>
      <trkpt lat="45.73798" lon="4.86445">
        <ele>176.9</ele>
        <time>2020-09-12T12:16:42Z</time>
      </trkpt>
      <trkpt lat="45.73796" lon="4.86452">
        <ele>177</ele>
        <time>2020-09-12T12:16:43Z</time>
      </trkpt>
      <trkpt lat="45.73794" lon="4.86459">
        <ele>177.2</ele>
        <time>2020-09-12T12:16:44Z</time>
      </trkpt>
      <trkpt lat="45.73792" lon="4.86466">
        <ele>177.4</ele>
        <time>2020-09-12T12:16:45Z</time>
      </trkpt>
      <trkpt lat="45.7379" lon="4.86473">
        <ele>177.5</ele>
        <time>2020-09-12T12:16:46Z</time>
      </trkpt>
      <trkpt lat="45.73788" lon="4.86479">
        <ele>177.7</ele>
        <time>2020-09-12T12:16:47Z</time>
      </trkpt>
      <trkpt lat="45.73785" lon="4.86485">
        <ele>177.9</ele>
        <time>2020-09-12T12:16:48Z</time>
      </trkpt>
      <trkpt lat="45.73781" lon="4.86496">
        <ele>178.2</ele>
        <time>2020-09-12T12:16:50Z</time>
      </trkpt>
      <trkpt lat="45.73779" lon="4.86502">
        <ele>179.2</ele>
        <time>2020-09-12T12:16:51Z</time>
      </trkpt>
      <trkpt lat="45.73776" lon="4.86507">
        <ele>179.3</ele>
        <time>2020-09-12T12:16:52Z</time>
      </trkpt>
      <trkpt lat="45.73774" lon="4.86513">
        <ele>179.3</ele>
        <time>2020-09-12T12:16:53Z</time>
      </trkpt>
      <trkpt lat="45.73771" lon="4.86522">
        <ele>179.3</ele>
        <time>2020-09-12T12:16:55Z</time>
      </trkpt>
      <trkpt lat="45.73768" lon="4.86529">
        <ele>179.3</ele>
        <time>2020-09-12T12:16:57Z</time>
      </trkpt>
      <trkpt lat="45.73769" lon="4.86536">
        <ele>179.2</ele>
        <time>2020-09-12T12:17:00Z</time>
      </trkpt>
      <trkpt lat="45.7377" lon="4.86542">
        <ele>179.2</ele>
        <time>2020-09-12T12:17:03Z</time>
      </trkpt>
      <trkpt lat="45.73772" lon="4.86548">
        <ele>179.1</ele>
        <time>2020-09-12T12:17:11Z</time>
      </trkpt>
      <trkpt lat="45.73772" lon="4.86555">
        <ele>179.1</ele>
        <time>2020-09-12T12:17:13Z</time>
      </trkpt>
      <trkpt lat="45.73772" lon="4.86564">
        <ele>179.2</ele>
        <time>2020-09-12T12:17:15Z</time>
      </trkpt>
      <trkpt lat="45.73769" lon="4.86572">
        <ele>179.3</ele>
        <time>2020-09-12T12:17:17Z</time>
      </trkpt>
      <trkpt lat="45.73768" lon="4.86582">
        <ele>179.4</ele>
        <time>2020-09-12T12:17:19Z</time>
      </trkpt>
      <trkpt lat="45.73764" lon="4.86593">
        <ele>179.4</ele>
        <time>2020-09-12T12:17:21Z</time>
      </trkpt>
      <trkpt lat="45.73761" lon="4.86603">
        <ele>179.3</ele>
        <time>2020-09-12T12:17:23Z</time>
      </trkpt>
      <trkpt lat="45.73757" lon="4.86611">
        <ele>179.2</ele>
        <time>2020-09-12T12:17:25Z</time>
      </trkpt>
      <trkpt lat="45.73753" lon="4.86619">
        <ele>179.1</ele>
        <time>2020-09-12T12:17:27Z</time>
      </trkpt>
      <trkpt lat="45.73751" lon="4.86628">
        <ele>179</ele>
        <time>2020-09-12T12:17:29Z</time>
      </trkpt>
      <trkpt lat="45.73748" lon="4.86636">
        <ele>179</ele>
        <time>2020-09-12T12:17:31Z</time>
      </trkpt>
      <trkpt lat="45.73745" lon="4.86644">
        <ele>178.9</ele>
        <time>2020-09-12T12:17:33Z</time>
      </trkpt>
      <trkpt lat="45.73736" lon="4.86655">
        <ele>178.9</ele>
        <time>2020-09-12T12:17:35Z</time>
      </trkpt>
      <trkpt lat="45.73734" lon="4.86661">
        <ele>178.9</ele>
        <time>2020-09-12T12:17:36Z</time>
      </trkpt>
      <trkpt lat="45.73732" lon="4.86667">
        <ele>178.2</ele>
        <time>2020-09-12T12:17:37Z</time>
      </trkpt>
      <trkpt lat="45.73725" lon="4.86679">
        <ele>178</ele>
        <time>2020-09-12T12:17:39Z</time>
      </trkpt>
      <trkpt lat="45.73724" lon="4.86686">
        <ele>177.9</ele>
        <time>2020-09-12T12:17:40Z</time>
      </trkpt>
      <trkpt lat="45.73721" lon="4.86693">
        <ele>177.7</ele>
        <time>2020-09-12T12:17:41Z</time>
      </trkpt>
      <trkpt lat="45.73718" lon="4.86699">
        <ele>177.6</ele>
        <time>2020-09-12T12:17:42Z</time>
      </trkpt>
      <trkpt lat="45.73716" lon="4.86706">
        <ele>177.5</ele>
        <time>2020-09-12T12:17:43Z</time>
      </trkpt>
      <trkpt lat="45.73713" lon="4.86713">
        <ele>177.4</ele>
        <time>2020-09-12T12:17:44Z</time>
      </trkpt>
      <trkpt lat="45.73712" lon="4.8672">
        <ele>177.3</ele>
        <time>2020-09-12T12:17:45Z</time>
      </trkpt>
      <trkpt lat="45.7371" lon="4.86728">
        <ele>177.3</ele>
        <time>2020-09-12T12:17:46Z</time>
      </trkpt>
      <trkpt lat="45.73709" lon="4.86735">
        <ele>177.2</ele>
        <time>2020-09-12T12:17:47Z</time>
      </trkpt>
      <trkpt lat="45.73708" lon="4.86743">
        <ele>177.2</ele>
        <time>2020-09-12T12:17:48Z</time>
      </trkpt>
      <trkpt lat="45.73705" lon="4.8675">
        <ele>176.7</ele>
        <time>2020-09-12T12:17:49Z</time>
      </trkpt>
      <trkpt lat="45.73702" lon="4.86756">
        <ele>176.7</ele>
        <time>2020-09-12T12:17:50Z</time>
      </trkpt>
      <trkpt lat="45.737" lon="4.86764">
        <ele>176.7</ele>
        <time>2020-09-12T12:17:51Z</time>
      </trkpt>
      <trkpt lat="45.73698" lon="4.86772">
        <ele>176.8</ele>
        <time>2020-09-12T12:17:52Z</time>
      </trkpt>
      <trkpt lat="45.73695" lon="4.8678">
        <ele>176.8</ele>
        <time>2020-09-12T12:17:53Z</time>
      </trkpt>
      <trkpt lat="45.73693" lon="4.86787">
        <ele>176.9</ele>
        <time>2020-09-12T12:17:54Z</time>
      </trkpt>
      <trkpt lat="45.73689" lon="4.86793">
        <ele>176.9</ele>
        <time>2020-09-12T12:17:55Z</time>
      </trkpt>
      <trkpt lat="45.73687" lon="4.86801">
        <ele>177</ele>
        <time>2020-09-12T12:17:56Z</time>
      </trkpt>
      <trkpt lat="45.73685" lon="4.86807">
        <ele>177.1</ele>
        <time>2020-09-12T12:17:57Z</time>
      </trkpt>
      <trkpt lat="45.73683" lon="4.86813">
        <ele>177.2</ele>
        <time>2020-09-12T12:17:58Z</time>
      </trkpt>
      <trkpt lat="45.73683" lon="4.86822">
        <ele>177.3</ele>
        <time>2020-09-12T12:17:59Z</time>
      </trkpt>
      <trkpt lat="45.73681" lon="4.86828">
        <ele>177.4</ele>
        <time>2020-09-12T12:18:00Z</time>
      </trkpt>
      <trkpt lat="45.73679" lon="4.86834">
        <ele>177.3</ele>
        <time>2020-09-12T12:18:01Z</time>
      </trkpt>
      <trkpt lat="45.73677" lon="4.86842">
        <ele>177.3</ele>
        <time>2020-09-12T12:18:02Z</time>
      </trkpt>
      <trkpt lat="45.73674" lon="4.86854">
        <ele>177</ele>
        <time>2020-09-12T12:18:04Z</time>
      </trkpt>
      <trkpt lat="45.73669" lon="4.86862">
        <ele>176.8</ele>
        <time>2020-09-12T12:18:06Z</time>
      </trkpt>
      <trkpt lat="45.73667" lon="4.86868">
        <ele>176.7</ele>
        <time>2020-09-12T12:18:07Z</time>
      </trkpt>
      <trkpt lat="45.73664" lon="4.86873">
        <ele>176.7</ele>
        <time>2020-09-12T12:18:08Z</time>
      </trkpt>
      <trkpt lat="45.73661" lon="4.86885">
        <ele>176.5</ele>
        <time>2020-09-12T12:18:10Z</time>
      </trkpt>
      <trkpt lat="45.73656" lon="4.86896">
        <ele>176.4</ele>
        <time>2020-09-12T12:18:12Z</time>
      </trkpt>
      <trkpt lat="45.73654" lon="4.86903">
        <ele>176.4</ele>
        <time>2020-09-12T12:18:13Z</time>
      </trkpt>
      <trkpt lat="45.7365" lon="4.86912">
        <ele>176.3</ele>
        <time>2020-09-12T12:18:15Z</time>
      </trkpt>
      <trkpt lat="45.73648" lon="4.86923">
        <ele>176.3</ele>
        <time>2020-09-12T12:18:17Z</time>
      </trkpt>
      <trkpt lat="45.73649" lon="4.86936">
        <ele>176.3</ele>
        <time>2020-09-12T12:18:19Z</time>
      </trkpt>
      <trkpt lat="45.7365" lon="4.86943">
        <ele>176.3</ele>
        <time>2020-09-12T12:18:20Z</time>
      </trkpt>
      <trkpt lat="45.73655" lon="4.86956">
        <ele>176.3</ele>
        <time>2020-09-12T12:18:22Z</time>
      </trkpt>
      <trkpt lat="45.73658" lon="4.86962">
        <ele>176.3</ele>
        <time>2020-09-12T12:18:23Z</time>
      </trkpt>
      <trkpt lat="45.73662" lon="4.86967">
        <ele>176.3</ele>
        <time>2020-09-12T12:18:24Z</time>
      </trkpt>
      <trkpt lat="45.73666" lon="4.86972">
        <ele>176.3</ele>
        <time>2020-09-12T12:18:25Z</time>
      </trkpt>
      <trkpt lat="45.7367" lon="4.86978">
        <ele>175.7</ele>
        <time>2020-09-12T12:18:26Z</time>
      </trkpt>
      <trkpt lat="45.73673" lon="4.86984">
        <ele>175.8</ele>
        <time>2020-09-12T12:18:27Z</time>
      </trkpt>
      <trkpt lat="45.73676" lon="4.8699">
        <ele>175.8</ele>
        <time>2020-09-12T12:18:28Z</time>
      </trkpt>
      <trkpt lat="45.73679" lon="4.86995">
        <ele>175.8</ele>
        <time>2020-09-12T12:18:29Z</time>
      </trkpt>
      <trkpt lat="45.73683" lon="4.86999">
        <ele>175.8</ele>
        <time>2020-09-12T12:18:30Z</time>
      </trkpt>
      <trkpt lat="45.73687" lon="4.87005">
        <ele>176</ele>
        <time>2020-09-12T12:18:31Z</time>
      </trkpt>
      <trkpt lat="45.73692" lon="4.87011">
        <ele>176</ele>
        <time>2020-09-12T12:18:32Z</time>
      </trkpt>
      <trkpt lat="45.73699" lon="4.8702">
        <ele>176</ele>
        <time>2020-09-12T12:18:34Z</time>
      </trkpt>
      <trkpt lat="45.73703" lon="4.87025">
        <ele>176</ele>
        <time>2020-09-12T12:18:35Z</time>
      </trkpt>
      <trkpt lat="45.73711" lon="4.87033">
        <ele>175.9</ele>
        <time>2020-09-12T12:18:37Z</time>
      </trkpt>
      <trkpt lat="45.73716" lon="4.87038">
        <ele>175.9</ele>
        <time>2020-09-12T12:18:38Z</time>
      </trkpt>
      <trkpt lat="45.7372" lon="4.87042">
        <ele>175.9</ele>
        <time>2020-09-12T12:18:39Z</time>
      </trkpt>
      <trkpt lat="45.73723" lon="4.87048">
        <ele>175.8</ele>
        <time>2020-09-12T12:18:40Z</time>
      </trkpt>
      <trkpt lat="45.73726" lon="4.87054">
        <ele>175.8</ele>
        <time>2020-09-12T12:18:41Z</time>
      </trkpt>
      <trkpt lat="45.73729" lon="4.87061">
        <ele>175.8</ele>
        <time>2020-09-12T12:18:42Z</time>
      </trkpt>
      <trkpt lat="45.73733" lon="4.87067">
        <ele>175.7</ele>
        <time>2020-09-12T12:18:43Z</time>
      </trkpt>
      <trkpt lat="45.73736" lon="4.87074">
        <ele>175.5</ele>
        <time>2020-09-12T12:18:44Z</time>
      </trkpt>
      <trkpt lat="45.73741" lon="4.87082">
        <ele>175.3</ele>
        <time>2020-09-12T12:18:46Z</time>
      </trkpt>
      <trkpt lat="45.73747" lon="4.87088">
        <ele>175.2</ele>
        <time>2020-09-12T12:18:47Z</time>
      </trkpt>
      <trkpt lat="45.73756" lon="4.87101">
        <ele>175</ele>
        <time>2020-09-12T12:18:49Z</time>
      </trkpt>
      <trkpt lat="45.73761" lon="4.87108">
        <ele>175</ele>
        <time>2020-09-12T12:18:50Z</time>
      </trkpt>
      <trkpt lat="45.73766" lon="4.87113">
        <ele>174.9</ele>
        <time>2020-09-12T12:18:51Z</time>
      </trkpt>
      <trkpt lat="45.73771" lon="4.87119">
        <ele>174.9</ele>
        <time>2020-09-12T12:18:52Z</time>
      </trkpt>
      <trkpt lat="45.73775" lon="4.87124">
        <ele>174.9</ele>
        <time>2020-09-12T12:18:53Z</time>
      </trkpt>
      <trkpt lat="45.73781" lon="4.87129">
        <ele>174.9</ele>
        <time>2020-09-12T12:18:54Z</time>
      </trkpt>
      <trkpt lat="45.73791" lon="4.87141">
        <ele>174.9</ele>
        <time>2020-09-12T12:18:57Z</time>
      </trkpt>
      <trkpt lat="45.73794" lon="4.87146">
        <ele>174.9</ele>
        <time>2020-09-12T12:18:59Z</time>
      </trkpt>
      <trkpt lat="45.73797" lon="4.87151">
        <ele>174.9</ele>
        <time>2020-09-12T12:19:04Z</time>
      </trkpt>
      <trkpt lat="45.73802" lon="4.87157">
        <ele>174.9</ele>
        <time>2020-09-12T12:19:06Z</time>
      </trkpt>
      <trkpt lat="45.73809" lon="4.87165">
        <ele>174.9</ele>
        <time>2020-09-12T12:19:08Z</time>
      </trkpt>
      <trkpt lat="45.73813" lon="4.87171">
        <ele>175.1</ele>
        <time>2020-09-12T12:19:09Z</time>
      </trkpt>
      <trkpt lat="45.73817" lon="4.87176">
        <ele>175.1</ele>
        <time>2020-09-12T12:19:10Z</time>
      </trkpt>
      <trkpt lat="45.73826" lon="4.87183">
        <ele>175.2</ele>
        <time>2020-09-12T12:19:12Z</time>
      </trkpt>
      <trkpt lat="45.7383" lon="4.8719">
        <ele>175.3</ele>
        <time>2020-09-12T12:19:13Z</time>
      </trkpt>
      <trkpt lat="45.73835" lon="4.87196">
        <ele>174.9</ele>
        <time>2020-09-12T12:19:14Z</time>
      </trkpt>
      <trkpt lat="45.73839" lon="4.87202">
        <ele>174.9</ele>
        <time>2020-09-12T12:19:15Z</time>
      </trkpt>
      <trkpt lat="45.73843" lon="4.87209">
        <ele>175</ele>
        <time>2020-09-12T12:19:16Z</time>
      </trkpt>
      <trkpt lat="45.73847" lon="4.87215">
        <ele>175.1</ele>
        <time>2020-09-12T12:19:17Z</time>
      </trkpt>
      <trkpt lat="45.73852" lon="4.87221">
        <ele>175.1</ele>
        <time>2020-09-12T12:19:18Z</time>
      </trkpt>
      <trkpt lat="45.73856" lon="4.87227">
        <ele>175.1</ele>
        <time>2020-09-12T12:19:19Z</time>
      </trkpt>
      <trkpt lat="45.73862" lon="4.87233">
        <ele>175</ele>
        <time>2020-09-12T12:19:20Z</time>
      </trkpt>
      <trkpt lat="45.73869" lon="4.87244">
        <ele>174.9</ele>
        <time>2020-09-12T12:19:22Z</time>
      </trkpt>
      <trkpt lat="45.73874" lon="4.87249">
        <ele>174.7</ele>
        <time>2020-09-12T12:19:23Z</time>
      </trkpt>
      <trkpt lat="45.73878" lon="4.87255">
        <ele>175.2</ele>
        <time>2020-09-12T12:19:24Z</time>
      </trkpt>
      <trkpt lat="45.73881" lon="4.87261">
        <ele>175.1</ele>
        <time>2020-09-12T12:19:25Z</time>
      </trkpt>
      <trkpt lat="45.73885" lon="4.87266">
        <ele>175</ele>
        <time>2020-09-12T12:19:26Z</time>
      </trkpt>
      <trkpt lat="45.73889" lon="4.87271">
        <ele>175</ele>
        <time>2020-09-12T12:19:27Z</time>
      </trkpt>
      <trkpt lat="45.73893" lon="4.87276">
        <ele>175</ele>
        <time>2020-09-12T12:19:28Z</time>
      </trkpt>
      <trkpt lat="45.73897" lon="4.87282">
        <ele>175</ele>
        <time>2020-09-12T12:19:29Z</time>
      </trkpt>
      <trkpt lat="45.73901" lon="4.87285">
        <ele>175</ele>
        <time>2020-09-12T12:19:30Z</time>
      </trkpt>
      <trkpt lat="45.73906" lon="4.8729">
        <ele>175</ele>
        <time>2020-09-12T12:19:31Z</time>
      </trkpt>
      <trkpt lat="45.73909" lon="4.87296">
        <ele>175</ele>
        <time>2020-09-12T12:19:32Z</time>
      </trkpt>
      <trkpt lat="45.73913" lon="4.87301">
        <ele>175.1</ele>
        <time>2020-09-12T12:19:33Z</time>
      </trkpt>
      <trkpt lat="45.73919" lon="4.87311">
        <ele>173.9</ele>
        <time>2020-09-12T12:19:35Z</time>
      </trkpt>
      <trkpt lat="45.73925" lon="4.87319">
        <ele>174.1</ele>
        <time>2020-09-12T12:19:37Z</time>
      </trkpt>
      <trkpt lat="45.73932" lon="4.87328">
        <ele>174.1</ele>
        <time>2020-09-12T12:19:39Z</time>
      </trkpt>
      <trkpt lat="45.73936" lon="4.87334">
        <ele>174.4</ele>
        <time>2020-09-12T12:19:40Z</time>
      </trkpt>
      <trkpt lat="45.7394" lon="4.87338">
        <ele>174.3</ele>
        <time>2020-09-12T12:19:41Z</time>
      </trkpt>
      <trkpt lat="45.73946" lon="4.87346">
        <ele>174.1</ele>
        <time>2020-09-12T12:19:43Z</time>
      </trkpt>
      <trkpt lat="45.73951" lon="4.87355">
        <ele>174</ele>
        <time>2020-09-12T12:19:45Z</time>
      </trkpt>
      <trkpt lat="45.73957" lon="4.87363">
        <ele>174</ele>
        <time>2020-09-12T12:19:47Z</time>
      </trkpt>
      <trkpt lat="45.73962" lon="4.87369">
        <ele>173.9</ele>
        <time>2020-09-12T12:19:49Z</time>
      </trkpt>
      <trkpt lat="45.73967" lon="4.87376">
        <ele>173.9</ele>
        <time>2020-09-12T12:19:51Z</time>
      </trkpt>
      <trkpt lat="45.73971" lon="4.87381">
        <ele>173.8</ele>
        <time>2020-09-12T12:19:53Z</time>
      </trkpt>
      <trkpt lat="45.73976" lon="4.87387">
        <ele>173.8</ele>
        <time>2020-09-12T12:19:55Z</time>
      </trkpt>
      <trkpt lat="45.7398" lon="4.87392">
        <ele>173.7</ele>
        <time>2020-09-12T12:19:57Z</time>
      </trkpt>
      <trkpt lat="45.7398" lon="4.87399">
        <ele>173.7</ele>
        <time>2020-09-12T12:20:06Z</time>
      </trkpt>
      <trkpt lat="45.73976" lon="4.87405">
        <ele>173.7</ele>
        <time>2020-09-12T12:20:10Z</time>
      </trkpt>
      <trkpt lat="45.73976" lon="4.87413">
        <ele>173.7</ele>
        <time>2020-09-12T12:20:14Z</time>
      </trkpt>
      <trkpt lat="45.73972" lon="4.87418">
        <ele>175.1</ele>
        <time>2020-09-12T12:20:18Z</time>
      </trkpt>
      <trkpt lat="45.73967" lon="4.87417">
        <ele>175.3</ele>
        <time>2020-09-12T12:20:22Z</time>
      </trkpt>
      <trkpt lat="45.73962" lon="4.87415">
        <ele>174.1</ele>
        <time>2020-09-12T12:20:25Z</time>
      </trkpt>
      <trkpt lat="45.73956" lon="4.87416">
        <ele>174.2</ele>
        <time>2020-09-12T12:20:30Z</time>
      </trkpt>
      <trkpt lat="45.73952" lon="4.87413">
        <ele>174.4</ele>
        <time>2020-09-12T12:20:34Z</time>
      </trkpt>
      <trkpt lat="45.73947" lon="4.8741">
        <ele>174.5</ele>
        <time>2020-09-12T12:20:38Z</time>
      </trkpt>
      <trkpt lat="45.73942" lon="4.87415">
        <ele>174.7</ele>
        <time>2020-09-12T12:20:45Z</time>
      </trkpt>
      <trkpt lat="45.73941" lon="4.87422">
        <ele>175.9</ele>
        <time>2020-09-12T12:20:48Z</time>
      </trkpt>
      <trkpt lat="45.73939" lon="4.87414">
        <ele>174.8</ele>
        <time>2020-09-12T12:21:01Z</time>
      </trkpt>
      <trkpt lat="45.7394" lon="4.87422">
        <ele>176</ele>
        <time>2020-09-12T12:21:05Z</time>
      </trkpt>
      <trkpt lat="45.73938" lon="4.87421">
        <ele>176</ele>
        <time>2020-09-12T12:21:25Z</time>
      </trkpt>
      <trkpt lat="45.73938" lon="4.87421">
        <ele>176</ele>
        <time>2020-09-12T12:21:28Z</time>
      </trkpt>
    </trkseg>
  </trk>
</gpx>